<?xml version="1.0" encoding="UTF-8"?>
<gpx version="1.1" creator="https://www.youtrack.es" xsi:schemaLocation="http://www.topografix.com/GPX/1/1 http://www.topografix.com/GPX/1/1/gpx.xsd http://www.garmin.com/xmlschemas/GpxExtensions/v3 http://www.garmin.com/xmlschemas/GpxExtensionsv3.xsd http://www.garmin.com/xmlschemas/TrackPointExtension/v1 http://www.garmin.com/xmlschemas/TrackPointExtensionv1.xsd" xmlns:gpxtpx="http://www.garmin.com/xmlschemas/TrackPointExtension/v1" xmlns:gpxx="http://www.garmin.com/xmlschemas/GpxExtensions/v3" xmlns:xsi="http://www.w3.org/2001/XMLSchema-instance">
  <metadata>
    <link href="https://www.youtrack.es">
      <text>YouTrack.es</text>
    </link>
    <time>2026-05-08T21:09:25Z</time>
  </metadata>
  <trk>
    <src>https://www.youtrack.es</src>
    <link href="https://www.youtrack.es/ruta/20704-track-cazorla-1">
      <text>YouTrack.es</text>
    </link>
    <trkseg>
      <trkpt lat="38.0472656339" lon="-2.8505452909">
        <ele>554.82</ele>
        <time>2017-10-07T10:11:31Z</time>
      </trkpt>
      <trkpt lat="38.0473014247" lon="-2.8505729511">
        <ele>555.78</ele>
        <time>2017-10-07T10:11:50Z</time>
      </trkpt>
      <trkpt lat="38.0473266542" lon="-2.8505619708">
        <ele>552.90</ele>
        <time>2017-10-07T10:12:04Z</time>
      </trkpt>
      <trkpt lat="38.0473278277" lon="-2.8505613841">
        <ele>560.11</ele>
        <time>2017-10-07T10:12:05Z</time>
      </trkpt>
      <trkpt lat="38.0473263189" lon="-2.8505576123">
        <ele>557.22</ele>
        <time>2017-10-07T10:12:07Z</time>
      </trkpt>
      <trkpt lat="38.0473023467" lon="-2.8505523317">
        <ele>558.18</ele>
        <time>2017-10-07T10:12:21Z</time>
      </trkpt>
      <trkpt lat="38.0473539792" lon="-2.8505514935">
        <ele>558.66</ele>
        <time>2017-10-07T10:12:37Z</time>
      </trkpt>
      <trkpt lat="38.0473464355" lon="-2.8505506553">
        <ele>559.62</ele>
        <time>2017-10-07T10:12:56Z</time>
      </trkpt>
      <trkpt lat="38.0473534763" lon="-2.8505467158">
        <ele>561.07</ele>
        <time>2017-10-07T10:13:17Z</time>
      </trkpt>
      <trkpt lat="38.0473441724" lon="-2.8505388368">
        <ele>562.51</ele>
        <time>2017-10-07T10:13:39Z</time>
      </trkpt>
      <trkpt lat="38.0473398976" lon="-2.8505090810">
        <ele>562.51</ele>
        <time>2017-10-07T10:13:50Z</time>
      </trkpt>
      <trkpt lat="38.0473270733" lon="-2.8504966758">
        <ele>563.47</ele>
        <time>2017-10-07T10:14:09Z</time>
      </trkpt>
      <trkpt lat="38.0473256484" lon="-2.8504906408">
        <ele>564.43</ele>
        <time>2017-10-07T10:14:25Z</time>
      </trkpt>
      <trkpt lat="38.0473193619" lon="-2.8504929878">
        <ele>565.39</ele>
        <time>2017-10-07T10:14:45Z</time>
      </trkpt>
      <trkpt lat="38.0473241396" lon="-2.8504904732">
        <ele>566.35</ele>
        <time>2017-10-07T10:15:01Z</time>
      </trkpt>
      <trkpt lat="38.0473247264" lon="-2.8504892997">
        <ele>567.32</ele>
        <time>2017-10-07T10:15:22Z</time>
      </trkpt>
      <trkpt lat="38.0473276600" lon="-2.8504880425">
        <ele>568.28</ele>
        <time>2017-10-07T10:15:38Z</time>
      </trkpt>
      <trkpt lat="38.0473237205" lon="-2.8504936583">
        <ele>569.24</ele>
        <time>2017-10-07T10:16:02Z</time>
      </trkpt>
      <trkpt lat="38.0473231338" lon="-2.8505012859">
        <ele>569.72</ele>
        <time>2017-10-07T10:16:14Z</time>
      </trkpt>
      <trkpt lat="38.0473756883" lon="-2.8504292015">
        <ele>571.64</ele>
        <time>2017-10-07T10:23:46Z</time>
      </trkpt>
      <trkpt lat="38.0473784544" lon="-2.8504282795">
        <ele>571.64</ele>
        <time>2017-10-07T10:23:47Z</time>
      </trkpt>
      <trkpt lat="38.0473424960" lon="-2.8504860308">
        <ele>577.41</ele>
        <time>2017-10-07T10:23:52Z</time>
      </trkpt>
      <trkpt lat="38.0473030172" lon="-2.8504975978">
        <ele>582.22</ele>
        <time>2017-10-07T10:23:55Z</time>
      </trkpt>
      <trkpt lat="38.0473087169" lon="-2.8504794929">
        <ele>587.50</ele>
        <time>2017-10-07T10:23:57Z</time>
      </trkpt>
      <trkpt lat="38.0473160930" lon="-2.8504721168">
        <ele>592.31</ele>
        <time>2017-10-07T10:23:59Z</time>
      </trkpt>
      <trkpt lat="38.0473121535" lon="-2.8504585382">
        <ele>597.12</ele>
        <time>2017-10-07T10:24:01Z</time>
      </trkpt>
      <trkpt lat="38.0473086331" lon="-2.8504585382">
        <ele>601.44</ele>
        <time>2017-10-07T10:24:03Z</time>
      </trkpt>
      <trkpt lat="38.0473062862" lon="-2.8504592925">
        <ele>605.29</ele>
        <time>2017-10-07T10:24:05Z</time>
      </trkpt>
      <trkpt lat="38.0473024305" lon="-2.8504593764">
        <ele>608.65</ele>
        <time>2017-10-07T10:24:07Z</time>
      </trkpt>
      <trkpt lat="38.0473001674" lon="-2.8504548501">
        <ele>612.02</ele>
        <time>2017-10-07T10:24:09Z</time>
      </trkpt>
      <trkpt lat="38.0472987425" lon="-2.8504498210">
        <ele>615.38</ele>
        <time>2017-10-07T10:24:11Z</time>
      </trkpt>
      <trkpt lat="38.0472963117" lon="-2.8504496533">
        <ele>618.75</ele>
        <time>2017-10-07T10:24:13Z</time>
      </trkpt>
      <trkpt lat="38.0472927913" lon="-2.8504462168">
        <ele>621.63</ele>
        <time>2017-10-07T10:24:15Z</time>
      </trkpt>
      <trkpt lat="38.0472764466" lon="-2.8504226636">
        <ele>626.92</ele>
        <time>2017-10-07T10:24:19Z</time>
      </trkpt>
      <trkpt lat="38.0472775362" lon="-2.8504141141">
        <ele>630.28</ele>
        <time>2017-10-07T10:24:22Z</time>
      </trkpt>
      <trkpt lat="38.0472790450" lon="-2.8503498249">
        <ele>634.61</ele>
        <time>2017-10-07T10:24:26Z</time>
      </trkpt>
      <trkpt lat="38.0472855829" lon="-2.8502568696">
        <ele>637.49</ele>
        <time>2017-10-07T10:24:30Z</time>
      </trkpt>
      <trkpt lat="38.0472984072" lon="-2.8502544388">
        <ele>640.38</ele>
        <time>2017-10-07T10:24:34Z</time>
      </trkpt>
      <trkpt lat="38.0473036040" lon="-2.8502525948">
        <ele>643.74</ele>
        <time>2017-10-07T10:24:39Z</time>
      </trkpt>
      <trkpt lat="38.0473145843" lon="-2.8502465598">
        <ele>646.14</ele>
        <time>2017-10-07T10:24:44Z</time>
      </trkpt>
      <trkpt lat="38.0473429151" lon="-2.8502136189">
        <ele>647.59</ele>
        <time>2017-10-07T10:24:47Z</time>
      </trkpt>
      <trkpt lat="38.0474146642" lon="-2.8500532731">
        <ele>649.51</ele>
        <time>2017-10-07T10:24:55Z</time>
      </trkpt>
      <trkpt lat="38.0474176817" lon="-2.8500491660">
        <ele>650.47</ele>
        <time>2017-10-07T10:25:00Z</time>
      </trkpt>
      <trkpt lat="38.0473712459" lon="-2.8500659298">
        <ele>653.35</ele>
        <time>2017-10-07T10:25:09Z</time>
      </trkpt>
      <trkpt lat="38.0474199448" lon="-2.8500624094">
        <ele>655.76</ele>
        <time>2017-10-07T10:25:21Z</time>
      </trkpt>
      <trkpt lat="38.0474381335" lon="-2.8500723839">
        <ele>656.24</ele>
        <time>2017-10-07T10:25:28Z</time>
      </trkpt>
      <trkpt lat="38.0476262234" lon="-2.8500267863">
        <ele>655.76</ele>
        <time>2017-10-07T10:25:36Z</time>
      </trkpt>
      <trkpt lat="38.0477098748" lon="-2.8501416184">
        <ele>655.28</ele>
        <time>2017-10-07T10:25:40Z</time>
      </trkpt>
      <trkpt lat="38.0478782672" lon="-2.8506488912">
        <ele>653.35</ele>
        <time>2017-10-07T10:25:48Z</time>
      </trkpt>
      <trkpt lat="38.0480437260" lon="-2.8511578403">
        <ele>652.87</ele>
        <time>2017-10-07T10:25:55Z</time>
      </trkpt>
      <trkpt lat="38.0480789300" lon="-2.8512056172">
        <ele>652.87</ele>
        <time>2017-10-07T10:25:56Z</time>
      </trkpt>
      <trkpt lat="38.0481210910" lon="-2.8512380552">
        <ele>653.35</ele>
        <time>2017-10-07T10:25:57Z</time>
      </trkpt>
      <trkpt lat="38.0481634196" lon="-2.8512523044">
        <ele>653.83</ele>
        <time>2017-10-07T10:25:58Z</time>
      </trkpt>
      <trkpt lat="38.0482000485" lon="-2.8512471076">
        <ele>653.83</ele>
        <time>2017-10-07T10:25:59Z</time>
      </trkpt>
      <trkpt lat="38.0482364260" lon="-2.8512348700">
        <ele>654.31</ele>
        <time>2017-10-07T10:26:00Z</time>
      </trkpt>
      <trkpt lat="38.0482686963" lon="-2.8512215428">
        <ele>654.31</ele>
        <time>2017-10-07T10:26:01Z</time>
      </trkpt>
      <trkpt lat="38.0482921656" lon="-2.8512015939">
        <ele>654.31</ele>
        <time>2017-10-07T10:26:02Z</time>
      </trkpt>
      <trkpt lat="38.0483115278" lon="-2.8511741851">
        <ele>654.80</ele>
        <time>2017-10-07T10:26:03Z</time>
      </trkpt>
      <trkpt lat="38.0483246036" lon="-2.8511499614">
        <ele>654.80</ele>
        <time>2017-10-07T10:26:04Z</time>
      </trkpt>
      <trkpt lat="38.0483386852" lon="-2.8511283360">
        <ele>654.80</ele>
        <time>2017-10-07T10:26:05Z</time>
      </trkpt>
      <trkpt lat="38.0483513419" lon="-2.8511044476">
        <ele>655.28</ele>
        <time>2017-10-07T10:26:06Z</time>
      </trkpt>
      <trkpt lat="38.0483647529" lon="-2.8510772064">
        <ele>655.28</ele>
        <time>2017-10-07T10:26:07Z</time>
      </trkpt>
      <trkpt lat="38.0483775772" lon="-2.8510477021">
        <ele>655.28</ele>
        <time>2017-10-07T10:26:08Z</time>
      </trkpt>
      <trkpt lat="38.0483869649" lon="-2.8510261606">
        <ele>655.76</ele>
        <time>2017-10-07T10:26:09Z</time>
      </trkpt>
      <trkpt lat="38.0484553613" lon="-2.8508062195">
        <ele>656.72</ele>
        <time>2017-10-07T10:26:17Z</time>
      </trkpt>
      <trkpt lat="38.0485674273" lon="-2.8505908884">
        <ele>658.64</ele>
        <time>2017-10-07T10:26:27Z</time>
      </trkpt>
      <trkpt lat="38.0486986041" lon="-2.8503825981">
        <ele>659.60</ele>
        <time>2017-10-07T10:26:36Z</time>
      </trkpt>
      <trkpt lat="38.0487671681" lon="-2.8502613958">
        <ele>660.56</ele>
        <time>2017-10-07T10:26:41Z</time>
      </trkpt>
      <trkpt lat="38.0487996060" lon="-2.8502202407">
        <ele>661.04</ele>
        <time>2017-10-07T10:26:43Z</time>
      </trkpt>
      <trkpt lat="38.0488129333" lon="-2.8502006270">
        <ele>661.04</ele>
        <time>2017-10-07T10:26:44Z</time>
      </trkpt>
      <trkpt lat="38.0488290265" lon="-2.8501830250">
        <ele>661.04</ele>
        <time>2017-10-07T10:26:45Z</time>
      </trkpt>
      <trkpt lat="38.0488429405" lon="-2.8501592204">
        <ele>661.52</ele>
        <time>2017-10-07T10:26:46Z</time>
      </trkpt>
      <trkpt lat="38.0488533340" lon="-2.8501385171">
        <ele>661.52</ele>
        <time>2017-10-07T10:26:47Z</time>
      </trkpt>
      <trkpt lat="38.0488611292" lon="-2.8501211666">
        <ele>662.01</ele>
        <time>2017-10-07T10:26:48Z</time>
      </trkpt>
      <trkpt lat="38.0488712713" lon="-2.8501027264">
        <ele>662.01</ele>
        <time>2017-10-07T10:26:49Z</time>
      </trkpt>
      <trkpt lat="38.0488809105" lon="-2.8500835318">
        <ele>662.01</ele>
        <time>2017-10-07T10:26:50Z</time>
      </trkpt>
      <trkpt lat="38.0488895439" lon="-2.8500642534">
        <ele>662.49</ele>
        <time>2017-10-07T10:26:51Z</time>
      </trkpt>
      <trkpt lat="38.0489001889" lon="-2.8500483278">
        <ele>662.49</ele>
        <time>2017-10-07T10:26:52Z</time>
      </trkpt>
      <trkpt lat="38.0489508156" lon="-2.8500034846">
        <ele>662.97</ele>
        <time>2017-10-07T10:26:55Z</time>
      </trkpt>
      <trkpt lat="38.0489762127" lon="-2.8499967791">
        <ele>662.97</ele>
        <time>2017-10-07T10:26:56Z</time>
      </trkpt>
      <trkpt lat="38.0490936432" lon="-2.8499932587">
        <ele>663.45</ele>
        <time>2017-10-07T10:27:02Z</time>
      </trkpt>
      <trkpt lat="38.0491176993" lon="-2.8500316478">
        <ele>663.45</ele>
        <time>2017-10-07T10:27:03Z</time>
      </trkpt>
      <trkpt lat="38.0491518974" lon="-2.8500971105">
        <ele>663.45</ele>
        <time>2017-10-07T10:27:05Z</time>
      </trkpt>
      <trkpt lat="38.0491551664" lon="-2.8501178976">
        <ele>663.45</ele>
        <time>2017-10-07T10:27:06Z</time>
      </trkpt>
      <trkpt lat="38.0491515622" lon="-2.8501395229">
        <ele>663.93</ele>
        <time>2017-10-07T10:27:07Z</time>
      </trkpt>
      <trkpt lat="38.0491375644" lon="-2.8501620702">
        <ele>663.93</ele>
        <time>2017-10-07T10:27:08Z</time>
      </trkpt>
      <trkpt lat="38.0491255783" lon="-2.8501805104">
        <ele>663.93</ele>
        <time>2017-10-07T10:27:09Z</time>
      </trkpt>
      <trkpt lat="38.0489695910" lon="-2.8503997810">
        <ele>664.41</ele>
        <time>2017-10-07T10:27:17Z</time>
      </trkpt>
      <trkpt lat="38.0488420185" lon="-2.8506927285">
        <ele>663.93</ele>
        <time>2017-10-07T10:27:25Z</time>
      </trkpt>
      <trkpt lat="38.0488006957" lon="-2.8508248273">
        <ele>663.93</ele>
        <time>2017-10-07T10:27:28Z</time>
      </trkpt>
      <trkpt lat="38.0487985164" lon="-2.8508618753">
        <ele>663.93</ele>
        <time>2017-10-07T10:27:29Z</time>
      </trkpt>
      <trkpt lat="38.0486508273" lon="-2.8512616083">
        <ele>663.93</ele>
        <time>2017-10-07T10:27:38Z</time>
      </trkpt>
      <trkpt lat="38.0483631603" lon="-2.8517501894">
        <ele>663.93</ele>
        <time>2017-10-07T10:27:48Z</time>
      </trkpt>
      <trkpt lat="38.0482451431" lon="-2.8518928494">
        <ele>663.93</ele>
        <time>2017-10-07T10:27:52Z</time>
      </trkpt>
      <trkpt lat="38.0482098553" lon="-2.8519279696">
        <ele>663.93</ele>
        <time>2017-10-07T10:27:53Z</time>
      </trkpt>
      <trkpt lat="38.0480493419" lon="-2.8521157242">
        <ele>663.45</ele>
        <time>2017-10-07T10:27:58Z</time>
      </trkpt>
      <trkpt lat="38.0480179936" lon="-2.8521566279">
        <ele>663.93</ele>
        <time>2017-10-07T10:27:59Z</time>
      </trkpt>
      <trkpt lat="38.0479863938" lon="-2.8521975316">
        <ele>663.93</ele>
        <time>2017-10-07T10:28:00Z</time>
      </trkpt>
      <trkpt lat="38.0478577316" lon="-2.8524058219">
        <ele>663.45</ele>
        <time>2017-10-07T10:28:05Z</time>
      </trkpt>
      <trkpt lat="38.0477282312" lon="-2.8526376653">
        <ele>663.93</ele>
        <time>2017-10-07T10:28:10Z</time>
      </trkpt>
      <trkpt lat="38.0474199448" lon="-2.8529824130">
        <ele>663.45</ele>
        <time>2017-10-07T10:28:21Z</time>
      </trkpt>
      <trkpt lat="38.0471444316" lon="-2.8532637097">
        <ele>663.45</ele>
        <time>2017-10-07T10:28:31Z</time>
      </trkpt>
      <trkpt lat="38.0467482191" lon="-2.8536479361">
        <ele>663.45</ele>
        <time>2017-10-07T10:28:43Z</time>
      </trkpt>
      <trkpt lat="38.0463624839" lon="-2.8538063541">
        <ele>663.45</ele>
        <time>2017-10-07T10:28:52Z</time>
      </trkpt>
      <trkpt lat="38.0463215802" lon="-2.8538323380">
        <ele>662.97</ele>
        <time>2017-10-07T10:28:53Z</time>
      </trkpt>
      <trkpt lat="38.0460106954" lon="-2.8540757485">
        <ele>662.97</ele>
        <time>2017-10-07T10:29:01Z</time>
      </trkpt>
      <trkpt lat="38.0459736474" lon="-2.8541083541">
        <ele>663.45</ele>
        <time>2017-10-07T10:29:02Z</time>
      </trkpt>
      <trkpt lat="38.0458273832" lon="-2.8542332444">
        <ele>663.45</ele>
        <time>2017-10-07T10:29:06Z</time>
      </trkpt>
      <trkpt lat="38.0455317535" lon="-2.8544973582">
        <ele>663.45</ele>
        <time>2017-10-07T10:29:14Z</time>
      </trkpt>
      <trkpt lat="38.0450973194" lon="-2.8548778966">
        <ele>662.97</ele>
        <time>2017-10-07T10:29:25Z</time>
      </trkpt>
      <trkpt lat="38.0448120832" lon="-2.8552830778">
        <ele>662.97</ele>
        <time>2017-10-07T10:29:34Z</time>
      </trkpt>
      <trkpt lat="38.0447124224" lon="-2.8554026876">
        <ele>662.97</ele>
        <time>2017-10-07T10:29:37Z</time>
      </trkpt>
      <trkpt lat="38.0444353167" lon="-2.8556601796">
        <ele>662.97</ele>
        <time>2017-10-07T10:29:44Z</time>
      </trkpt>
      <trkpt lat="38.0444012024" lon="-2.8557046875">
        <ele>662.97</ele>
        <time>2017-10-07T10:29:45Z</time>
      </trkpt>
      <trkpt lat="38.0443690158" lon="-2.8557529673">
        <ele>662.97</ele>
        <time>2017-10-07T10:29:46Z</time>
      </trkpt>
      <trkpt lat="38.0443394277" lon="-2.8558060247">
        <ele>662.97</ele>
        <time>2017-10-07T10:29:47Z</time>
      </trkpt>
      <trkpt lat="38.0443121865" lon="-2.8558604233">
        <ele>662.97</ele>
        <time>2017-10-07T10:29:48Z</time>
      </trkpt>
      <trkpt lat="38.0439899862" lon="-2.8565862123">
        <ele>662.97</ele>
        <time>2017-10-07T10:30:01Z</time>
      </trkpt>
      <trkpt lat="38.0438904092" lon="-2.8568185586">
        <ele>662.49</ele>
        <time>2017-10-07T10:30:05Z</time>
      </trkpt>
      <trkpt lat="38.0438595638" lon="-2.8569487296">
        <ele>662.97</ele>
        <time>2017-10-07T10:30:07Z</time>
      </trkpt>
      <trkpt lat="38.0438516010" lon="-2.8570166230">
        <ele>662.49</ele>
        <time>2017-10-07T10:30:08Z</time>
      </trkpt>
      <trkpt lat="38.0437666923" lon="-2.8575376421">
        <ele>662.97</ele>
        <time>2017-10-07T10:30:16Z</time>
      </trkpt>
      <trkpt lat="38.0437195860" lon="-2.8576579224">
        <ele>662.97</ele>
        <time>2017-10-07T10:30:18Z</time>
      </trkpt>
      <trkpt lat="38.0433879979" lon="-2.8583434783">
        <ele>662.97</ele>
        <time>2017-10-07T10:30:30Z</time>
      </trkpt>
      <trkpt lat="38.0433417298" lon="-2.8585236054">
        <ele>662.49</ele>
        <time>2017-10-07T10:30:33Z</time>
      </trkpt>
      <trkpt lat="38.0433301628" lon="-2.8585894033">
        <ele>662.49</ele>
        <time>2017-10-07T10:30:34Z</time>
      </trkpt>
      <trkpt lat="38.0432131514" lon="-2.8591385018">
        <ele>662.97</ele>
        <time>2017-10-07T10:30:43Z</time>
      </trkpt>
      <trkpt lat="38.0431612674" lon="-2.8593042120">
        <ele>662.97</ele>
        <time>2017-10-07T10:30:46Z</time>
      </trkpt>
      <trkpt lat="38.0431352835" lon="-2.8593514021">
        <ele>662.97</ele>
        <time>2017-10-07T10:30:47Z</time>
      </trkpt>
      <trkpt lat="38.0431025941" lon="-2.8593941499">
        <ele>662.97</ele>
        <time>2017-10-07T10:30:48Z</time>
      </trkpt>
      <trkpt lat="38.0430653784" lon="-2.8594312817">
        <ele>662.97</ele>
        <time>2017-10-07T10:30:49Z</time>
      </trkpt>
      <trkpt lat="38.0430253968" lon="-2.8594620433">
        <ele>662.97</ele>
        <time>2017-10-07T10:30:50Z</time>
      </trkpt>
      <trkpt lat="38.0429822300" lon="-2.8594855964">
        <ele>662.97</ele>
        <time>2017-10-07T10:30:51Z</time>
      </trkpt>
      <trkpt lat="38.0429373868" lon="-2.8594997618">
        <ele>662.97</ele>
        <time>2017-10-07T10:30:52Z</time>
      </trkpt>
      <trkpt lat="38.0428948067" lon="-2.8595109936">
        <ele>662.97</ele>
        <time>2017-10-07T10:30:53Z</time>
      </trkpt>
      <trkpt lat="38.0425525736" lon="-2.8595441021">
        <ele>664.89</ele>
        <time>2017-10-07T10:31:03Z</time>
      </trkpt>
      <trkpt lat="38.0422397610" lon="-2.8596668970">
        <ele>666.81</ele>
        <time>2017-10-07T10:31:14Z</time>
      </trkpt>
      <trkpt lat="38.0419403594" lon="-2.8599202819">
        <ele>668.25</ele>
        <time>2017-10-07T10:31:26Z</time>
      </trkpt>
      <trkpt lat="38.0417079292" lon="-2.8601279017">
        <ele>670.18</ele>
        <time>2017-10-07T10:31:37Z</time>
      </trkpt>
      <trkpt lat="38.0415081885" lon="-2.8604161553">
        <ele>671.62</ele>
        <time>2017-10-07T10:31:49Z</time>
      </trkpt>
      <trkpt lat="38.0413487647" lon="-2.8607065044">
        <ele>673.54</ele>
        <time>2017-10-07T10:32:01Z</time>
      </trkpt>
      <trkpt lat="38.0411210284" lon="-2.8608656768">
        <ele>674.98</ele>
        <time>2017-10-07T10:32:11Z</time>
      </trkpt>
      <trkpt lat="38.0408670567" lon="-2.8610504139">
        <ele>676.42</ele>
        <time>2017-10-07T10:32:22Z</time>
      </trkpt>
      <trkpt lat="38.0407885183" lon="-2.8611611389">
        <ele>676.91</ele>
        <time>2017-10-07T10:32:27Z</time>
      </trkpt>
      <trkpt lat="38.0407808907" lon="-2.8611877933">
        <ele>676.91</ele>
        <time>2017-10-07T10:32:28Z</time>
      </trkpt>
      <trkpt lat="38.0407670606" lon="-2.8612191416">
        <ele>677.39</ele>
        <time>2017-10-07T10:32:29Z</time>
      </trkpt>
      <trkpt lat="38.0407492910" lon="-2.8612487298">
        <ele>677.39</ele>
        <time>2017-10-07T10:32:30Z</time>
      </trkpt>
      <trkpt lat="38.0407318566" lon="-2.8612742107">
        <ele>677.39</ele>
        <time>2017-10-07T10:32:31Z</time>
      </trkpt>
      <trkpt lat="38.0404582713" lon="-2.8616021108">
        <ele>679.31</ele>
        <time>2017-10-07T10:32:45Z</time>
      </trkpt>
      <trkpt lat="38.0401789024" lon="-2.8618255723">
        <ele>680.75</ele>
        <time>2017-10-07T10:32:58Z</time>
      </trkpt>
      <trkpt lat="38.0399592128" lon="-2.8619537316">
        <ele>681.71</ele>
        <time>2017-10-07T10:33:09Z</time>
      </trkpt>
      <trkpt lat="38.0397394393" lon="-2.8620528895">
        <ele>682.19</ele>
        <time>2017-10-07T10:33:18Z</time>
      </trkpt>
      <trkpt lat="38.0394333322" lon="-2.8622270655">
        <ele>683.15</ele>
        <time>2017-10-07T10:33:29Z</time>
      </trkpt>
      <trkpt lat="38.0391781032" lon="-2.8624102101">
        <ele>683.63</ele>
        <time>2017-10-07T10:33:38Z</time>
      </trkpt>
      <trkpt lat="38.0388246384" lon="-2.8627040796">
        <ele>684.60</ele>
        <time>2017-10-07T10:33:51Z</time>
      </trkpt>
      <trkpt lat="38.0387419928" lon="-2.8627995495">
        <ele>684.60</ele>
        <time>2017-10-07T10:33:55Z</time>
      </trkpt>
      <trkpt lat="38.0387304258" lon="-2.8628536966">
        <ele>684.60</ele>
        <time>2017-10-07T10:34:03Z</time>
      </trkpt>
      <trkpt lat="38.0386776198" lon="-2.8628709633">
        <ele>685.08</ele>
        <time>2017-10-07T10:34:10Z</time>
      </trkpt>
      <trkpt lat="38.0385627877" lon="-2.8629629966">
        <ele>685.08</ele>
        <time>2017-10-07T10:34:19Z</time>
      </trkpt>
      <trkpt lat="38.0384373106" lon="-2.8630557843">
        <ele>685.56</ele>
        <time>2017-10-07T10:34:29Z</time>
      </trkpt>
      <trkpt lat="38.0383639690" lon="-2.8630849533">
        <ele>685.56</ele>
        <time>2017-10-07T10:34:34Z</time>
      </trkpt>
      <trkpt lat="38.0383418407" lon="-2.8630982805">
        <ele>685.56</ele>
        <time>2017-10-07T10:34:44Z</time>
      </trkpt>
      <trkpt lat="38.0383265857" lon="-2.8631073330">
        <ele>685.08</ele>
        <time>2017-10-07T10:34:59Z</time>
      </trkpt>
      <trkpt lat="38.0383116659" lon="-2.8631066624">
        <ele>685.08</ele>
        <time>2017-10-07T10:35:20Z</time>
      </trkpt>
      <trkpt lat="38.0383114982" lon="-2.8631085902">
        <ele>685.08</ele>
        <time>2017-10-07T10:35:47Z</time>
      </trkpt>
      <trkpt lat="38.0383079778" lon="-2.8631112725">
        <ele>685.08</ele>
        <time>2017-10-07T10:36:10Z</time>
      </trkpt>
      <trkpt lat="38.0382992607" lon="-2.8631132003">
        <ele>685.08</ele>
        <time>2017-10-07T10:36:31Z</time>
      </trkpt>
      <trkpt lat="38.0382943153" lon="-2.8630997892">
        <ele>685.08</ele>
        <time>2017-10-07T10:36:59Z</time>
      </trkpt>
      <trkpt lat="38.0382989254" lon="-2.8630965203">
        <ele>685.56</ele>
        <time>2017-10-07T10:37:24Z</time>
      </trkpt>
      <trkpt lat="38.0382981710" lon="-2.8630990349">
        <ele>685.56</ele>
        <time>2017-10-07T10:37:51Z</time>
      </trkpt>
      <trkpt lat="38.0383034516" lon="-2.8630917426">
        <ele>685.56</ele>
        <time>2017-10-07T10:38:19Z</time>
      </trkpt>
      <trkpt lat="38.0382998474" lon="-2.8630836122">
        <ele>685.56</ele>
        <time>2017-10-07T10:38:47Z</time>
      </trkpt>
      <trkpt lat="38.0383004341" lon="-2.8630827740">
        <ele>685.56</ele>
        <time>2017-10-07T10:39:15Z</time>
      </trkpt>
      <trkpt lat="38.0382928066" lon="-2.8631010465">
        <ele>686.04</ele>
        <time>2017-10-07T10:39:43Z</time>
      </trkpt>
      <trkpt lat="38.0382951535" lon="-2.8631042317">
        <ele>685.56</ele>
        <time>2017-10-07T10:40:09Z</time>
      </trkpt>
      <trkpt lat="38.0382870231" lon="-2.8630946763">
        <ele>686.04</ele>
        <time>2017-10-07T10:40:38Z</time>
      </trkpt>
      <trkpt lat="38.0382834189" lon="-2.8631033096">
        <ele>686.04</ele>
        <time>2017-10-07T10:41:07Z</time>
      </trkpt>
      <trkpt lat="38.0382621288" lon="-2.8630972747">
        <ele>686.04</ele>
        <time>2017-10-07T10:41:38Z</time>
      </trkpt>
      <trkpt lat="38.0382611230" lon="-2.8631023038">
        <ele>686.04</ele>
        <time>2017-10-07T10:42:10Z</time>
      </trkpt>
      <trkpt lat="38.0382653140" lon="-2.8631297965">
        <ele>686.04</ele>
        <time>2017-10-07T10:42:38Z</time>
      </trkpt>
      <trkpt lat="38.0382710975" lon="-2.8631347418">
        <ele>686.04</ele>
        <time>2017-10-07T10:43:08Z</time>
      </trkpt>
      <trkpt lat="38.0382704269" lon="-2.8631334007">
        <ele>686.04</ele>
        <time>2017-10-07T10:43:34Z</time>
      </trkpt>
      <trkpt lat="38.0382746179" lon="-2.8631273657">
        <ele>686.04</ele>
        <time>2017-10-07T10:43:58Z</time>
      </trkpt>
      <trkpt lat="38.0382788088" lon="-2.8631273657">
        <ele>687.00</ele>
        <time>2017-10-07T10:44:22Z</time>
      </trkpt>
      <trkpt lat="38.0382997636" lon="-2.8631919064">
        <ele>687.00</ele>
        <time>2017-10-07T10:44:33Z</time>
      </trkpt>
      <trkpt lat="38.0382998474" lon="-2.8631959297">
        <ele>687.48</ele>
        <time>2017-10-07T10:44:36Z</time>
      </trkpt>
      <trkpt lat="38.0382815748" lon="-2.8632196505">
        <ele>687.48</ele>
        <time>2017-10-07T10:44:38Z</time>
      </trkpt>
      <trkpt lat="38.0382622126" lon="-2.8632333968">
        <ele>687.48</ele>
        <time>2017-10-07T10:44:39Z</time>
      </trkpt>
      <trkpt lat="38.0381273478" lon="-2.8633426968">
        <ele>687.48</ele>
        <time>2017-10-07T10:44:48Z</time>
      </trkpt>
      <trkpt lat="38.0379101727" lon="-2.8635333851">
        <ele>687.96</ele>
        <time>2017-10-07T10:44:57Z</time>
      </trkpt>
      <trkpt lat="38.0376777425" lon="-2.8638412524">
        <ele>688.92</ele>
        <time>2017-10-07T10:45:07Z</time>
      </trkpt>
      <trkpt lat="38.0374624114" lon="-2.8641875926">
        <ele>690.36</ele>
        <time>2017-10-07T10:45:17Z</time>
      </trkpt>
      <trkpt lat="38.0372779258" lon="-2.8645473439">
        <ele>691.33</ele>
        <time>2017-10-07T10:45:27Z</time>
      </trkpt>
      <trkpt lat="38.0370601639" lon="-2.8649355099">
        <ele>692.29</ele>
        <time>2017-10-07T10:45:38Z</time>
      </trkpt>
      <trkpt lat="38.0368029233" lon="-2.8652135376">
        <ele>692.29</ele>
        <time>2017-10-07T10:45:47Z</time>
      </trkpt>
      <trkpt lat="38.0364547390" lon="-2.8655519150">
        <ele>692.29</ele>
        <time>2017-10-07T10:45:58Z</time>
      </trkpt>
      <trkpt lat="38.0361591931" lon="-2.8658355586">
        <ele>691.81</ele>
        <time>2017-10-07T10:46:08Z</time>
      </trkpt>
      <trkpt lat="38.0360419303" lon="-2.8659000993">
        <ele>691.81</ele>
        <time>2017-10-07T10:46:11Z</time>
      </trkpt>
      <trkpt lat="38.0359927285" lon="-2.8659164440">
        <ele>691.81</ele>
        <time>2017-10-07T10:46:12Z</time>
      </trkpt>
      <trkpt lat="38.0359446164" lon="-2.8659239877">
        <ele>691.81</ele>
        <time>2017-10-07T10:46:13Z</time>
      </trkpt>
      <trkpt lat="38.0358949117" lon="-2.8659258317">
        <ele>691.33</ele>
        <time>2017-10-07T10:46:14Z</time>
      </trkpt>
      <trkpt lat="38.0358467158" lon="-2.8659218084">
        <ele>691.33</ele>
        <time>2017-10-07T10:46:15Z</time>
      </trkpt>
      <trkpt lat="38.0357970111" lon="-2.8659130912">
        <ele>691.33</ele>
        <time>2017-10-07T10:46:16Z</time>
      </trkpt>
      <trkpt lat="38.0357459653" lon="-2.8659041226">
        <ele>691.33</ele>
        <time>2017-10-07T10:46:17Z</time>
      </trkpt>
      <trkpt lat="38.0350899138" lon="-2.8658420127">
        <ele>687.96</ele>
        <time>2017-10-07T10:46:27Z</time>
      </trkpt>
      <trkpt lat="38.0350124650" lon="-2.8658448625">
        <ele>687.48</ele>
        <time>2017-10-07T10:46:28Z</time>
      </trkpt>
      <trkpt lat="38.0344026815" lon="-2.8658648953">
        <ele>684.12</ele>
        <time>2017-10-07T10:46:36Z</time>
      </trkpt>
      <trkpt lat="38.0337049719" lon="-2.8659948986">
        <ele>681.23</ele>
        <time>2017-10-07T10:46:44Z</time>
      </trkpt>
      <trkpt lat="38.0336105917" lon="-2.8659972455">
        <ele>680.27</ele>
        <time>2017-10-07T10:46:45Z</time>
      </trkpt>
      <trkpt lat="38.0335164629" lon="-2.8659842536">
        <ele>679.79</ele>
        <time>2017-10-07T10:46:46Z</time>
      </trkpt>
      <trkpt lat="38.0329548754" lon="-2.8658642247">
        <ele>676.91</ele>
        <time>2017-10-07T10:46:52Z</time>
      </trkpt>
      <trkpt lat="38.0326945335" lon="-2.8658123408">
        <ele>675.94</ele>
        <time>2017-10-07T10:46:55Z</time>
      </trkpt>
      <trkpt lat="38.0325281527" lon="-2.8657642286">
        <ele>675.46</ele>
        <time>2017-10-07T10:46:57Z</time>
      </trkpt>
      <trkpt lat="38.0321889371" lon="-2.8657108359">
        <ele>674.50</ele>
        <time>2017-10-07T10:47:01Z</time>
      </trkpt>
      <trkpt lat="38.0321027711" lon="-2.8657180443">
        <ele>674.02</ele>
        <time>2017-10-07T10:47:02Z</time>
      </trkpt>
      <trkpt lat="38.0316673312" lon="-2.8657854348">
        <ele>671.62</ele>
        <time>2017-10-07T10:47:07Z</time>
      </trkpt>
      <trkpt lat="38.0312906485" lon="-2.8657814115">
        <ele>670.18</ele>
        <time>2017-10-07T10:47:11Z</time>
      </trkpt>
      <trkpt lat="38.0311943404" lon="-2.8657947388">
        <ele>669.70</ele>
        <time>2017-10-07T10:47:12Z</time>
      </trkpt>
      <trkpt lat="38.0309038237" lon="-2.8658546694">
        <ele>668.73</ele>
        <time>2017-10-07T10:47:15Z</time>
      </trkpt>
      <trkpt lat="38.0308072641" lon="-2.8658490535">
        <ele>668.25</ele>
        <time>2017-10-07T10:47:16Z</time>
      </trkpt>
      <trkpt lat="38.0299801379" lon="-2.8657077346">
        <ele>668.73</ele>
        <time>2017-10-07T10:47:26Z</time>
      </trkpt>
      <trkpt lat="38.0299065448" lon="-2.8657094948">
        <ele>669.22</ele>
        <time>2017-10-07T10:47:27Z</time>
      </trkpt>
      <trkpt lat="38.0298366398" lon="-2.8657229897">
        <ele>668.73</ele>
        <time>2017-10-07T10:47:28Z</time>
      </trkpt>
      <trkpt lat="38.0297643039" lon="-2.8657452017">
        <ele>668.73</ele>
        <time>2017-10-07T10:47:29Z</time>
      </trkpt>
      <trkpt lat="38.0296925548" lon="-2.8657757118">
        <ele>668.73</ele>
        <time>2017-10-07T10:47:30Z</time>
      </trkpt>
      <trkpt lat="38.0296244100" lon="-2.8658138495">
        <ele>668.25</ele>
        <time>2017-10-07T10:47:31Z</time>
      </trkpt>
      <trkpt lat="38.0295617133" lon="-2.8658622969">
        <ele>668.25</ele>
        <time>2017-10-07T10:47:32Z</time>
      </trkpt>
      <trkpt lat="38.0295013636" lon="-2.8659164440">
        <ele>668.25</ele>
        <time>2017-10-07T10:47:33Z</time>
      </trkpt>
      <trkpt lat="38.0292737111" lon="-2.8660976607">
        <ele>667.29</ele>
        <time>2017-10-07T10:47:37Z</time>
      </trkpt>
      <trkpt lat="38.0292264372" lon="-2.8661195375">
        <ele>666.81</ele>
        <time>2017-10-07T10:47:38Z</time>
      </trkpt>
      <trkpt lat="38.0291859526" lon="-2.8661320265">
        <ele>666.81</ele>
        <time>2017-10-07T10:47:39Z</time>
      </trkpt>
      <trkpt lat="38.0291221663" lon="-2.8661448509">
        <ele>667.29</ele>
        <time>2017-10-07T10:47:45Z</time>
      </trkpt>
      <trkpt lat="38.0291014630" lon="-2.8661332838">
        <ele>666.33</ele>
        <time>2017-10-07T10:47:58Z</time>
      </trkpt>
      <trkpt lat="38.0290853698" lon="-2.8661294281">
        <ele>666.33</ele>
        <time>2017-10-07T10:47:59Z</time>
      </trkpt>
      <trkpt lat="38.0290615652" lon="-2.8661245666">
        <ele>666.33</ele>
        <time>2017-10-07T10:48:00Z</time>
      </trkpt>
      <trkpt lat="38.0287155602" lon="-2.8660415020">
        <ele>665.37</ele>
        <time>2017-10-07T10:48:08Z</time>
      </trkpt>
      <trkpt lat="38.0281183496" lon="-2.8658948187">
        <ele>665.85</ele>
        <time>2017-10-07T10:48:20Z</time>
      </trkpt>
      <trkpt lat="38.0275087338" lon="-2.8657374065">
        <ele>666.33</ele>
        <time>2017-10-07T10:48:32Z</time>
      </trkpt>
      <trkpt lat="38.0272804108" lon="-2.8656889591">
        <ele>662.97</ele>
        <time>2017-10-07T10:48:37Z</time>
      </trkpt>
      <trkpt lat="38.0272359028" lon="-2.8656752966">
        <ele>668.73</ele>
        <time>2017-10-07T10:48:38Z</time>
      </trkpt>
      <trkpt lat="38.0271901377" lon="-2.8656626400">
        <ele>666.33</ele>
        <time>2017-10-07T10:48:39Z</time>
      </trkpt>
      <trkpt lat="38.0271429475" lon="-2.8656495642">
        <ele>664.41</ele>
        <time>2017-10-07T10:48:40Z</time>
      </trkpt>
      <trkpt lat="38.0270939134" lon="-2.8656382486">
        <ele>667.77</ele>
        <time>2017-10-07T10:48:41Z</time>
      </trkpt>
      <trkpt lat="38.0266779196" lon="-2.8655701037">
        <ele>666.33</ele>
        <time>2017-10-07T10:48:49Z</time>
      </trkpt>
      <trkpt lat="38.0266211741" lon="-2.8655760549">
        <ele>666.33</ele>
        <time>2017-10-07T10:48:50Z</time>
      </trkpt>
      <trkpt lat="38.0265610758" lon="-2.8655915614">
        <ele>666.33</ele>
        <time>2017-10-07T10:48:51Z</time>
      </trkpt>
      <trkpt lat="38.0265049171" lon="-2.8656180482">
        <ele>666.81</ele>
        <time>2017-10-07T10:48:52Z</time>
      </trkpt>
      <trkpt lat="38.0264547933" lon="-2.8656529170">
        <ele>666.81</ele>
        <time>2017-10-07T10:48:53Z</time>
      </trkpt>
      <trkpt lat="38.0264098663" lon="-2.8656965028">
        <ele>666.81</ele>
        <time>2017-10-07T10:48:54Z</time>
      </trkpt>
      <trkpt lat="38.0263698008" lon="-2.8657453693">
        <ele>667.29</ele>
        <time>2017-10-07T10:48:55Z</time>
      </trkpt>
      <trkpt lat="38.0263317470" lon="-2.8657908831">
        <ele>667.29</ele>
        <time>2017-10-07T10:48:56Z</time>
      </trkpt>
      <trkpt lat="38.0260620173" lon="-2.8661281709">
        <ele>668.73</ele>
        <time>2017-10-07T10:49:04Z</time>
      </trkpt>
      <trkpt lat="38.0260289926" lon="-2.8661686555">
        <ele>668.73</ele>
        <time>2017-10-07T10:49:05Z</time>
      </trkpt>
      <trkpt lat="38.0256078858" lon="-2.8667709790">
        <ele>670.66</ele>
        <time>2017-10-07T10:49:19Z</time>
      </trkpt>
      <trkpt lat="38.0252576061" lon="-2.8675150406">
        <ele>672.10</ele>
        <time>2017-10-07T10:49:34Z</time>
      </trkpt>
      <trkpt lat="38.0251336377" lon="-2.8678396717">
        <ele>672.10</ele>
        <time>2017-10-07T10:49:40Z</time>
      </trkpt>
      <trkpt lat="38.0248980224" lon="-2.8686574940">
        <ele>672.58</ele>
        <time>2017-10-07T10:49:54Z</time>
      </trkpt>
      <trkpt lat="38.0248345714" lon="-2.8688807040">
        <ele>672.58</ele>
        <time>2017-10-07T10:49:58Z</time>
      </trkpt>
      <trkpt lat="38.0247182306" lon="-2.8691428900">
        <ele>673.06</ele>
        <time>2017-10-07T10:50:03Z</time>
      </trkpt>
      <trkpt lat="38.0246919114" lon="-2.8691975400">
        <ele>673.06</ele>
        <time>2017-10-07T10:50:04Z</time>
      </trkpt>
      <trkpt lat="38.0245950166" lon="-2.8694067523">
        <ele>673.06</ele>
        <time>2017-10-07T10:50:08Z</time>
      </trkpt>
      <trkpt lat="38.0245689489" lon="-2.8694557864">
        <ele>673.06</ele>
        <time>2017-10-07T10:50:09Z</time>
      </trkpt>
      <trkpt lat="38.0244933441" lon="-2.8696051519">
        <ele>673.54</ele>
        <time>2017-10-07T10:50:12Z</time>
      </trkpt>
      <trkpt lat="38.0243413802" lon="-2.8698407672">
        <ele>673.54</ele>
        <time>2017-10-07T10:50:17Z</time>
      </trkpt>
      <trkpt lat="38.0243041646" lon="-2.8698825091">
        <ele>673.54</ele>
        <time>2017-10-07T10:50:18Z</time>
      </trkpt>
      <trkpt lat="38.0239473470" lon="-2.8702563420">
        <ele>673.54</ele>
        <time>2017-10-07T10:50:27Z</time>
      </trkpt>
      <trkpt lat="38.0239115562" lon="-2.8702990897">
        <ele>673.54</ele>
        <time>2017-10-07T10:50:28Z</time>
      </trkpt>
      <trkpt lat="38.0238740053" lon="-2.8703404963">
        <ele>673.54</ele>
        <time>2017-10-07T10:50:29Z</time>
      </trkpt>
      <trkpt lat="38.0238410644" lon="-2.8703794722">
        <ele>673.54</ele>
        <time>2017-10-07T10:50:30Z</time>
      </trkpt>
      <trkpt lat="38.0238107219" lon="-2.8704093117">
        <ele>673.54</ele>
        <time>2017-10-07T10:50:31Z</time>
      </trkpt>
      <trkpt lat="38.0237767752" lon="-2.8704385646">
        <ele>673.54</ele>
        <time>2017-10-07T10:50:32Z</time>
      </trkpt>
      <trkpt lat="38.0236955546" lon="-2.8704926278">
        <ele>673.54</ele>
        <time>2017-10-07T10:50:34Z</time>
      </trkpt>
      <trkpt lat="38.0232689995" lon="-2.8706353717">
        <ele>673.54</ele>
        <time>2017-10-07T10:50:43Z</time>
      </trkpt>
      <trkpt lat="38.0232196301" lon="-2.8706538118">
        <ele>673.54</ele>
        <time>2017-10-07T10:50:44Z</time>
      </trkpt>
      <trkpt lat="38.0228283629" lon="-2.8707620222">
        <ele>673.54</ele>
        <time>2017-10-07T10:50:52Z</time>
      </trkpt>
      <trkpt lat="38.0227819271" lon="-2.8707703203">
        <ele>674.02</ele>
        <time>2017-10-07T10:50:53Z</time>
      </trkpt>
      <trkpt lat="38.0222800188" lon="-2.8709020000">
        <ele>674.02</ele>
        <time>2017-10-07T10:51:03Z</time>
      </trkpt>
      <trkpt lat="38.0217686389" lon="-2.8708858229">
        <ele>674.02</ele>
        <time>2017-10-07T10:51:13Z</time>
      </trkpt>
      <trkpt lat="38.0212157685" lon="-2.8708121460">
        <ele>674.50</ele>
        <time>2017-10-07T10:51:24Z</time>
      </trkpt>
      <trkpt lat="38.0210855138" lon="-2.8708146606">
        <ele>675.46</ele>
        <time>2017-10-07T10:51:27Z</time>
      </trkpt>
      <trkpt lat="38.0206882954" lon="-2.8709863219">
        <ele>677.39</ele>
        <time>2017-10-07T10:51:38Z</time>
      </trkpt>
      <trkpt lat="38.0203236826" lon="-2.8712960333">
        <ele>679.31</ele>
        <time>2017-10-07T10:51:50Z</time>
      </trkpt>
      <trkpt lat="38.0200385302" lon="-2.8716047388">
        <ele>681.23</ele>
        <time>2017-10-07T10:52:01Z</time>
      </trkpt>
      <trkpt lat="38.0197257176" lon="-2.8719557729">
        <ele>682.67</ele>
        <time>2017-10-07T10:52:13Z</time>
      </trkpt>
      <trkpt lat="38.0193888489" lon="-2.8721107543">
        <ele>684.12</ele>
        <time>2017-10-07T10:52:23Z</time>
      </trkpt>
      <trkpt lat="38.0190385692" lon="-2.8722160310">
        <ele>685.56</ele>
        <time>2017-10-07T10:52:33Z</time>
      </trkpt>
      <trkpt lat="38.0186962523" lon="-2.8723944817">
        <ele>687.48</ele>
        <time>2017-10-07T10:52:44Z</time>
      </trkpt>
      <trkpt lat="38.0183948390" lon="-2.8725681547">
        <ele>688.92</ele>
        <time>2017-10-07T10:52:54Z</time>
      </trkpt>
      <trkpt lat="38.0181225948" lon="-2.8727245610">
        <ele>689.88</ele>
        <time>2017-10-07T10:53:03Z</time>
      </trkpt>
      <trkpt lat="38.0177566409" lon="-2.8727407381">
        <ele>691.33</ele>
        <time>2017-10-07T10:53:14Z</time>
      </trkpt>
      <trkpt lat="38.0174684711" lon="-2.8726265766">
        <ele>692.77</ele>
        <time>2017-10-07T10:53:24Z</time>
      </trkpt>
      <trkpt lat="38.0172151700" lon="-2.8725397401">
        <ele>694.21</ele>
        <time>2017-10-07T10:53:33Z</time>
      </trkpt>
      <trkpt lat="38.0169227254" lon="-2.8725048713">
        <ele>695.17</ele>
        <time>2017-10-07T10:53:42Z</time>
      </trkpt>
      <trkpt lat="38.0165997706" lon="-2.8725051228">
        <ele>696.61</ele>
        <time>2017-10-07T10:53:53Z</time>
      </trkpt>
      <trkpt lat="38.0162648298" lon="-2.8726154286">
        <ele>697.09</ele>
        <time>2017-10-07T10:54:03Z</time>
      </trkpt>
      <trkpt lat="38.0159180705" lon="-2.8727379721">
        <ele>696.61</ele>
        <time>2017-10-07T10:54:12Z</time>
      </trkpt>
      <trkpt lat="38.0158640910" lon="-2.8727435879">
        <ele>696.61</ele>
        <time>2017-10-07T10:54:13Z</time>
      </trkpt>
      <trkpt lat="38.0153932795" lon="-2.8726596013">
        <ele>696.61</ele>
        <time>2017-10-07T10:54:23Z</time>
      </trkpt>
      <trkpt lat="38.0153500289" lon="-2.8726298455">
        <ele>696.61</ele>
        <time>2017-10-07T10:54:24Z</time>
      </trkpt>
      <trkpt lat="38.0152783636" lon="-2.8725674842">
        <ele>696.61</ele>
        <time>2017-10-07T10:54:26Z</time>
      </trkpt>
      <trkpt lat="38.0149787944" lon="-2.8721554298">
        <ele>697.09</ele>
        <time>2017-10-07T10:54:36Z</time>
      </trkpt>
      <trkpt lat="38.0149438418" lon="-2.8721163701">
        <ele>697.09</ele>
        <time>2017-10-07T10:54:37Z</time>
      </trkpt>
      <trkpt lat="38.0148684885" lon="-2.8720511589">
        <ele>697.09</ele>
        <time>2017-10-07T10:54:39Z</time>
      </trkpt>
      <trkpt lat="38.0147890281" lon="-2.8720001969">
        <ele>697.57</ele>
        <time>2017-10-07T10:54:41Z</time>
      </trkpt>
      <trkpt lat="38.0147489626" lon="-2.8719841875">
        <ele>697.57</ele>
        <time>2017-10-07T10:54:42Z</time>
      </trkpt>
      <trkpt lat="38.0147106573" lon="-2.8719753865">
        <ele>697.57</ele>
        <time>2017-10-07T10:54:43Z</time>
      </trkpt>
      <trkpt lat="38.0144664086" lon="-2.8720589541">
        <ele>699.50</ele>
        <time>2017-10-07T10:54:50Z</time>
      </trkpt>
      <trkpt lat="38.0142436177" lon="-2.8724021930">
        <ele>700.94</ele>
        <time>2017-10-07T10:54:59Z</time>
      </trkpt>
      <trkpt lat="38.0140863732" lon="-2.8726191167">
        <ele>699.50</ele>
        <time>2017-10-07T10:55:05Z</time>
      </trkpt>
      <trkpt lat="38.0140240118" lon="-2.8726770356">
        <ele>708.15</ele>
        <time>2017-10-07T10:55:07Z</time>
      </trkpt>
      <trkpt lat="38.0139898974" lon="-2.8727044445">
        <ele>704.30</ele>
        <time>2017-10-07T10:55:08Z</time>
      </trkpt>
      <trkpt lat="38.0139178969" lon="-2.8727525566">
        <ele>701.90</ele>
        <time>2017-10-07T10:55:10Z</time>
      </trkpt>
      <trkpt lat="38.0138779990" lon="-2.8727720864">
        <ele>701.90</ele>
        <time>2017-10-07T10:55:11Z</time>
      </trkpt>
      <trkpt lat="38.0137970299" lon="-2.8728041053">
        <ele>697.57</ele>
        <time>2017-10-07T10:55:13Z</time>
      </trkpt>
      <trkpt lat="38.0137562100" lon="-2.8728201147">
        <ele>706.23</ele>
        <time>2017-10-07T10:55:14Z</time>
      </trkpt>
      <trkpt lat="38.0137141328" lon="-2.8728339449">
        <ele>704.30</ele>
        <time>2017-10-07T10:55:15Z</time>
      </trkpt>
      <trkpt lat="38.0136343371" lon="-2.8728621919">
        <ele>703.34</ele>
        <time>2017-10-07T10:55:17Z</time>
      </trkpt>
      <trkpt lat="38.0133974645" lon="-2.8729334380">
        <ele>698.05</ele>
        <time>2017-10-07T10:55:23Z</time>
      </trkpt>
      <trkpt lat="38.0133600812" lon="-2.8729418200">
        <ele>706.23</ele>
        <time>2017-10-07T10:55:24Z</time>
      </trkpt>
      <trkpt lat="38.0132862367" lon="-2.8729581647">
        <ele>703.34</ele>
        <time>2017-10-07T10:55:26Z</time>
      </trkpt>
      <trkpt lat="38.0128894374" lon="-2.8730978072">
        <ele>703.82</ele>
        <time>2017-10-07T10:55:38Z</time>
      </trkpt>
      <trkpt lat="38.0113100354" lon="-2.8742402606">
        <ele>696.13</ele>
        <time>2017-10-07T10:57:22Z</time>
      </trkpt>
      <trkpt lat="38.0113304872" lon="-2.8742099181">
        <ele>695.65</ele>
        <time>2017-10-07T10:57:39Z</time>
      </trkpt>
      <trkpt lat="38.0112849735" lon="-2.8741992731">
        <ele>695.65</ele>
        <time>2017-10-07T10:57:59Z</time>
      </trkpt>
      <trkpt lat="38.0113040004" lon="-2.8742431942">
        <ele>695.65</ele>
        <time>2017-10-07T10:58:18Z</time>
      </trkpt>
      <trkpt lat="38.0113074370" lon="-2.8742282744">
        <ele>692.77</ele>
        <time>2017-10-07T10:58:30Z</time>
      </trkpt>
      <trkpt lat="38.0113071017" lon="-2.8742268495">
        <ele>697.57</ele>
        <time>2017-10-07T10:58:31Z</time>
      </trkpt>
      <trkpt lat="38.0113047548" lon="-2.8742172103">
        <ele>695.65</ele>
        <time>2017-10-07T10:58:34Z</time>
      </trkpt>
      <trkpt lat="38.0113046709" lon="-2.8742283583">
        <ele>696.13</ele>
        <time>2017-10-07T10:58:56Z</time>
      </trkpt>
      <trkpt lat="38.0113305710" lon="-2.8742333036">
        <ele>696.13</ele>
        <time>2017-10-07T10:59:17Z</time>
      </trkpt>
      <trkpt lat="38.0113374442" lon="-2.8742441162">
        <ele>696.13</ele>
        <time>2017-10-07T10:59:31Z</time>
      </trkpt>
      <trkpt lat="38.0113261286" lon="-2.8742449544">
        <ele>696.13</ele>
        <time>2017-10-07T10:59:52Z</time>
      </trkpt>
      <trkpt lat="38.0113366060" lon="-2.8742379136">
        <ele>696.13</ele>
        <time>2017-10-07T11:00:08Z</time>
      </trkpt>
      <trkpt lat="38.0113359354" lon="-2.8742353152">
        <ele>696.13</ele>
        <time>2017-10-07T11:00:32Z</time>
      </trkpt>
      <trkpt lat="38.0113399588" lon="-2.8742322978">
        <ele>696.13</ele>
        <time>2017-10-07T11:00:53Z</time>
      </trkpt>
      <trkpt lat="38.0113330856" lon="-2.8742351476">
        <ele>696.13</ele>
        <time>2017-10-07T11:01:17Z</time>
      </trkpt>
      <trkpt lat="38.0113347620" lon="-2.8742445353">
        <ele>696.13</ele>
        <time>2017-10-07T11:01:30Z</time>
      </trkpt>
      <trkpt lat="38.0113326665" lon="-2.8742493130">
        <ele>696.13</ele>
        <time>2017-10-07T11:01:45Z</time>
      </trkpt>
      <trkpt lat="38.0113045871" lon="-2.8743370716">
        <ele>696.13</ele>
        <time>2017-10-07T11:01:50Z</time>
      </trkpt>
      <trkpt lat="38.0111945327" lon="-2.8745957371">
        <ele>695.65</ele>
        <time>2017-10-07T11:01:59Z</time>
      </trkpt>
      <trkpt lat="38.0110795330" lon="-2.8749993257">
        <ele>693.25</ele>
        <time>2017-10-07T11:02:09Z</time>
      </trkpt>
      <trkpt lat="38.0110503640" lon="-2.8750842344">
        <ele>696.61</ele>
        <time>2017-10-07T11:02:11Z</time>
      </trkpt>
      <trkpt lat="38.0108576640" lon="-2.8753613401">
        <ele>695.65</ele>
        <time>2017-10-07T11:02:20Z</time>
      </trkpt>
      <trkpt lat="38.0106048658" lon="-2.8755842149">
        <ele>695.65</ele>
        <time>2017-10-07T11:02:28Z</time>
      </trkpt>
      <trkpt lat="38.0104121659" lon="-2.8757512663">
        <ele>695.17</ele>
        <time>2017-10-07T11:02:33Z</time>
      </trkpt>
      <trkpt lat="38.0103439372" lon="-2.8758140467">
        <ele>695.17</ele>
        <time>2017-10-07T11:02:35Z</time>
      </trkpt>
      <trkpt lat="38.0102688354" lon="-2.8758659307">
        <ele>695.65</ele>
        <time>2017-10-07T11:02:37Z</time>
      </trkpt>
      <trkpt lat="38.0098559428" lon="-2.8760149609">
        <ele>697.57</ele>
        <time>2017-10-07T11:02:49Z</time>
      </trkpt>
      <trkpt lat="38.0095223431" lon="-2.8761623986">
        <ele>699.50</ele>
        <time>2017-10-07T11:03:00Z</time>
      </trkpt>
      <trkpt lat="38.0092768371" lon="-2.8764189687">
        <ele>700.46</ele>
        <time>2017-10-07T11:03:10Z</time>
      </trkpt>
      <trkpt lat="38.0089931097" lon="-2.8767893650">
        <ele>701.42</ele>
        <time>2017-10-07T11:03:21Z</time>
      </trkpt>
      <trkpt lat="38.0086656287" lon="-2.8772353660">
        <ele>702.86</ele>
        <time>2017-10-07T11:03:34Z</time>
      </trkpt>
      <trkpt lat="38.0083974078" lon="-2.8775663674">
        <ele>704.30</ele>
        <time>2017-10-07T11:03:45Z</time>
      </trkpt>
      <trkpt lat="38.0081299413" lon="-2.8778226022">
        <ele>706.23</ele>
        <time>2017-10-07T11:03:56Z</time>
      </trkpt>
      <trkpt lat="38.0079326313" lon="-2.8780949302">
        <ele>708.15</ele>
        <time>2017-10-07T11:04:06Z</time>
      </trkpt>
      <trkpt lat="38.0078309588" lon="-2.8784463834">
        <ele>710.07</ele>
        <time>2017-10-07T11:04:17Z</time>
      </trkpt>
      <trkpt lat="38.0077893008" lon="-2.8787053004">
        <ele>711.51</ele>
        <time>2017-10-07T11:04:26Z</time>
      </trkpt>
      <trkpt lat="38.0077773985" lon="-2.8789901175">
        <ele>713.44</ele>
        <time>2017-10-07T11:04:36Z</time>
      </trkpt>
      <trkpt lat="38.0077180546" lon="-2.8792517167">
        <ele>714.40</ele>
        <time>2017-10-07T11:04:46Z</time>
      </trkpt>
      <trkpt lat="38.0075488240" lon="-2.8794570733">
        <ele>716.32</ele>
        <time>2017-10-07T11:04:57Z</time>
      </trkpt>
      <trkpt lat="38.0073930044" lon="-2.8795734979">
        <ele>717.28</ele>
        <time>2017-10-07T11:05:05Z</time>
      </trkpt>
      <trkpt lat="38.0071270466" lon="-2.8797656950">
        <ele>720.16</ele>
        <time>2017-10-07T11:05:19Z</time>
      </trkpt>
      <trkpt lat="38.0069490988" lon="-2.8799785115">
        <ele>721.13</ele>
        <time>2017-10-07T11:05:30Z</time>
      </trkpt>
      <trkpt lat="38.0068334285" lon="-2.8802344110">
        <ele>722.57</ele>
        <time>2017-10-07T11:05:40Z</time>
      </trkpt>
      <trkpt lat="38.0066885054" lon="-2.8805512469">
        <ele>724.01</ele>
        <time>2017-10-07T11:05:53Z</time>
      </trkpt>
      <trkpt lat="38.0065268185" lon="-2.8808770515">
        <ele>725.93</ele>
        <time>2017-10-07T11:06:06Z</time>
      </trkpt>
      <trkpt lat="38.0063788779" lon="-2.8811150137">
        <ele>727.37</ele>
        <time>2017-10-07T11:06:17Z</time>
      </trkpt>
      <trkpt lat="38.0061452743" lon="-2.8812640440">
        <ele>728.34</ele>
        <time>2017-10-07T11:06:28Z</time>
      </trkpt>
      <trkpt lat="38.0058746226" lon="-2.8811993357">
        <ele>728.34</ele>
        <time>2017-10-07T11:06:38Z</time>
      </trkpt>
      <trkpt lat="38.0056789052" lon="-2.8808465414">
        <ele>728.82</ele>
        <time>2017-10-07T11:06:48Z</time>
      </trkpt>
      <trkpt lat="38.0055615585" lon="-2.8805426974">
        <ele>730.26</ele>
        <time>2017-10-07T11:06:58Z</time>
      </trkpt>
      <trkpt lat="38.0054270290" lon="-2.8802432958">
        <ele>731.70</ele>
        <time>2017-10-07T11:07:09Z</time>
      </trkpt>
      <trkpt lat="38.0052524339" lon="-2.8801229317">
        <ele>732.66</ele>
        <time>2017-10-07T11:07:17Z</time>
      </trkpt>
      <trkpt lat="38.0050087720" lon="-2.8801282961">
        <ele>733.62</ele>
        <time>2017-10-07T11:07:26Z</time>
      </trkpt>
      <trkpt lat="38.0047626793" lon="-2.8803528473">
        <ele>734.58</ele>
        <time>2017-10-07T11:07:36Z</time>
      </trkpt>
      <trkpt lat="38.0045153294" lon="-2.8806835134">
        <ele>735.55</ele>
        <time>2017-10-07T11:07:48Z</time>
      </trkpt>
      <trkpt lat="38.0043005012" lon="-2.8809575178">
        <ele>736.51</ele>
        <time>2017-10-07T11:07:58Z</time>
      </trkpt>
      <trkpt lat="38.0040378962" lon="-2.8813036904">
        <ele>737.47</ele>
        <time>2017-10-07T11:08:10Z</time>
      </trkpt>
      <trkpt lat="38.0037692562" lon="-2.8816423193">
        <ele>738.43</ele>
        <time>2017-10-07T11:08:21Z</time>
      </trkpt>
      <trkpt lat="38.0034999456" lon="-2.8819972090">
        <ele>738.43</ele>
        <time>2017-10-07T11:08:32Z</time>
      </trkpt>
      <trkpt lat="38.0033130292" lon="-2.8822802659">
        <ele>738.91</ele>
        <time>2017-10-07T11:08:41Z</time>
      </trkpt>
      <trkpt lat="38.0031881388" lon="-2.8824270330">
        <ele>738.43</ele>
        <time>2017-10-07T11:08:45Z</time>
      </trkpt>
      <trkpt lat="38.0029036570" lon="-2.8828302026">
        <ele>738.43</ele>
        <time>2017-10-07T11:08:54Z</time>
      </trkpt>
      <trkpt lat="38.0028511025" lon="-2.8829492256">
        <ele>738.43</ele>
        <time>2017-10-07T11:08:56Z</time>
      </trkpt>
      <trkpt lat="38.0028324109" lon="-2.8830146044">
        <ele>738.43</ele>
        <time>2017-10-07T11:08:57Z</time>
      </trkpt>
      <trkpt lat="38.0028025713" lon="-2.8831482958">
        <ele>738.43</ele>
        <time>2017-10-07T11:08:59Z</time>
      </trkpt>
      <trkpt lat="38.0027886573" lon="-2.8832167760">
        <ele>737.95</ele>
        <time>2017-10-07T11:09:00Z</time>
      </trkpt>
      <trkpt lat="38.0026819557" lon="-2.8836989868">
        <ele>737.95</ele>
        <time>2017-10-07T11:09:07Z</time>
      </trkpt>
      <trkpt lat="38.0026772618" lon="-2.8837694786">
        <ele>737.95</ele>
        <time>2017-10-07T11:09:08Z</time>
      </trkpt>
      <trkpt lat="38.0026797764" lon="-2.8838411439">
        <ele>737.47</ele>
        <time>2017-10-07T11:09:09Z</time>
      </trkpt>
      <trkpt lat="38.0026904214" lon="-2.8839112166">
        <ele>737.95</ele>
        <time>2017-10-07T11:09:10Z</time>
      </trkpt>
      <trkpt lat="38.0027133878" lon="-2.8839793615">
        <ele>737.47</ele>
        <time>2017-10-07T11:09:11Z</time>
      </trkpt>
      <trkpt lat="38.0027457420" lon="-2.8840444051">
        <ele>737.47</ele>
        <time>2017-10-07T11:09:12Z</time>
      </trkpt>
      <trkpt lat="38.0027801078" lon="-2.8841112927">
        <ele>737.47</ele>
        <time>2017-10-07T11:09:13Z</time>
      </trkpt>
      <trkpt lat="38.0028142221" lon="-2.8841787670">
        <ele>737.47</ele>
        <time>2017-10-07T11:09:14Z</time>
      </trkpt>
      <trkpt lat="38.0028469115" lon="-2.8842459060">
        <ele>737.47</ele>
        <time>2017-10-07T11:09:15Z</time>
      </trkpt>
      <trkpt lat="38.0028745718" lon="-2.8843151405">
        <ele>736.99</ele>
        <time>2017-10-07T11:09:16Z</time>
      </trkpt>
      <trkpt lat="38.0029004719" lon="-2.8843887337">
        <ele>736.99</ele>
        <time>2017-10-07T11:09:17Z</time>
      </trkpt>
      <trkpt lat="38.0029195827" lon="-2.8844670206">
        <ele>736.99</ele>
        <time>2017-10-07T11:09:18Z</time>
      </trkpt>
      <trkpt lat="38.0029286351" lon="-2.8845494147">
        <ele>736.99</ele>
        <time>2017-10-07T11:09:19Z</time>
      </trkpt>
      <trkpt lat="38.0029317364" lon="-2.8846325632">
        <ele>737.47</ele>
        <time>2017-10-07T11:09:20Z</time>
      </trkpt>
      <trkpt lat="38.0029334128" lon="-2.8847170528">
        <ele>736.99</ele>
        <time>2017-10-07T11:09:21Z</time>
      </trkpt>
      <trkpt lat="38.0029490869" lon="-2.8849722818">
        <ele>736.99</ele>
        <time>2017-10-07T11:09:24Z</time>
      </trkpt>
      <trkpt lat="38.0029740650" lon="-2.8850499820">
        <ele>736.99</ele>
        <time>2017-10-07T11:09:25Z</time>
      </trkpt>
      <trkpt lat="38.0030073412" lon="-2.8851214796">
        <ele>736.99</ele>
        <time>2017-10-07T11:09:26Z</time>
      </trkpt>
      <trkpt lat="38.0030469038" lon="-2.8851845954">
        <ele>736.99</ele>
        <time>2017-10-07T11:09:27Z</time>
      </trkpt>
      <trkpt lat="38.0030919146" lon="-2.8852427658">
        <ele>736.99</ele>
        <time>2017-10-07T11:09:28Z</time>
      </trkpt>
      <trkpt lat="38.0031409487" lon="-2.8852938116">
        <ele>736.99</ele>
        <time>2017-10-07T11:09:29Z</time>
      </trkpt>
      <trkpt lat="38.0031924974" lon="-2.8853403311">
        <ele>736.99</ele>
        <time>2017-10-07T11:09:30Z</time>
      </trkpt>
      <trkpt lat="38.0032460578" lon="-2.8853790555">
        <ele>736.51</ele>
        <time>2017-10-07T11:09:31Z</time>
      </trkpt>
      <trkpt lat="38.0033032224" lon="-2.8854091465">
        <ele>736.51</ele>
        <time>2017-10-07T11:09:32Z</time>
      </trkpt>
      <trkpt lat="38.0033605546" lon="-2.8854324482">
        <ele>736.51</ele>
        <time>2017-10-07T11:09:33Z</time>
      </trkpt>
      <trkpt lat="38.0035354849" lon="-2.8854872659">
        <ele>736.99</ele>
        <time>2017-10-07T11:09:36Z</time>
      </trkpt>
      <trkpt lat="38.0036483891" lon="-2.8855370544">
        <ele>736.99</ele>
        <time>2017-10-07T11:09:38Z</time>
      </trkpt>
      <trkpt lat="38.0037005246" lon="-2.8855737671">
        <ele>736.99</ele>
        <time>2017-10-07T11:09:39Z</time>
      </trkpt>
      <trkpt lat="38.0037455354" lon="-2.8856252320">
        <ele>736.99</ele>
        <time>2017-10-07T11:09:40Z</time>
      </trkpt>
      <trkpt lat="38.0037845951" lon="-2.8856855817">
        <ele>736.99</ele>
        <time>2017-10-07T11:09:41Z</time>
      </trkpt>
      <trkpt lat="38.0038140994" lon="-2.8857540619">
        <ele>736.99</ele>
        <time>2017-10-07T11:09:42Z</time>
      </trkpt>
      <trkpt lat="38.0038280133" lon="-2.8858299181">
        <ele>736.99</ele>
        <time>2017-10-07T11:09:43Z</time>
      </trkpt>
      <trkpt lat="38.0038315337" lon="-2.8859007452">
        <ele>736.51</ele>
        <time>2017-10-07T11:09:44Z</time>
      </trkpt>
      <trkpt lat="38.0038284324" lon="-2.8859693930">
        <ele>736.51</ele>
        <time>2017-10-07T11:09:45Z</time>
      </trkpt>
      <trkpt lat="38.0038194638" lon="-2.8860285692">
        <ele>736.99</ele>
        <time>2017-10-07T11:09:46Z</time>
      </trkpt>
      <trkpt lat="38.0038014427" lon="-2.8860843088">
        <ele>736.51</ele>
        <time>2017-10-07T11:09:47Z</time>
      </trkpt>
      <trkpt lat="38.0037726089" lon="-2.8861388750">
        <ele>736.51</ele>
        <time>2017-10-07T11:09:48Z</time>
      </trkpt>
      <trkpt lat="38.0037327949" lon="-2.8861873224">
        <ele>736.51</ele>
        <time>2017-10-07T11:09:49Z</time>
      </trkpt>
      <trkpt lat="38.0036842637" lon="-2.8862242028">
        <ele>736.51</ele>
        <time>2017-10-07T11:09:50Z</time>
      </trkpt>
      <trkpt lat="38.0036322121" lon="-2.8862519469">
        <ele>736.51</ele>
        <time>2017-10-07T11:09:51Z</time>
      </trkpt>
      <trkpt lat="38.0035799928" lon="-2.8862759192">
        <ele>736.51</ele>
        <time>2017-10-07T11:09:52Z</time>
      </trkpt>
      <trkpt lat="38.0031001288" lon="-2.8864641767">
        <ele>736.03</ele>
        <time>2017-10-07T11:10:01Z</time>
      </trkpt>
      <trkpt lat="38.0026006512" lon="-2.8867109399">
        <ele>736.51</ele>
        <time>2017-10-07T11:10:11Z</time>
      </trkpt>
      <trkpt lat="38.0024859868" lon="-2.8867289610">
        <ele>736.03</ele>
        <time>2017-10-07T11:10:13Z</time>
      </trkpt>
      <trkpt lat="38.0024269782" lon="-2.8867205791">
        <ele>735.55</ele>
        <time>2017-10-07T11:10:14Z</time>
      </trkpt>
      <trkpt lat="38.0021358747" lon="-2.8866543621">
        <ele>735.55</ele>
        <time>2017-10-07T11:10:19Z</time>
      </trkpt>
      <trkpt lat="38.0019557476" lon="-2.8866349999">
        <ele>735.55</ele>
        <time>2017-10-07T11:10:22Z</time>
      </trkpt>
      <trkpt lat="38.0018991698" lon="-2.8866456449">
        <ele>735.55</ele>
        <time>2017-10-07T11:10:23Z</time>
      </trkpt>
      <trkpt lat="38.0012484826" lon="-2.8868183959">
        <ele>735.55</ele>
        <time>2017-10-07T11:10:35Z</time>
      </trkpt>
      <trkpt lat="38.0011352431" lon="-2.8868773207">
        <ele>735.07</ele>
        <time>2017-10-07T11:10:37Z</time>
      </trkpt>
      <trkpt lat="38.0010820180" lon="-2.8869180568">
        <ele>735.55</ele>
        <time>2017-10-07T11:10:38Z</time>
      </trkpt>
      <trkpt lat="38.0010318942" lon="-2.8869660012">
        <ele>735.55</ele>
        <time>2017-10-07T11:10:39Z</time>
      </trkpt>
      <trkpt lat="38.0009854585" lon="-2.8870208189">
        <ele>735.55</ele>
        <time>2017-10-07T11:10:40Z</time>
      </trkpt>
      <trkpt lat="38.0009410344" lon="-2.8870777320">
        <ele>735.55</ele>
        <time>2017-10-07T11:10:41Z</time>
      </trkpt>
      <trkpt lat="38.0003781058" lon="-2.8878054488">
        <ele>735.55</ele>
        <time>2017-10-07T11:10:54Z</time>
      </trkpt>
      <trkpt lat="38.0003038421" lon="-2.8879255615">
        <ele>735.55</ele>
        <time>2017-10-07T11:10:56Z</time>
      </trkpt>
      <trkpt lat="38.0002735835" lon="-2.8879890125">
        <ele>735.55</ele>
        <time>2017-10-07T11:10:57Z</time>
      </trkpt>
      <trkpt lat="38.0002479348" lon="-2.8880581632">
        <ele>735.55</ele>
        <time>2017-10-07T11:10:58Z</time>
      </trkpt>
      <trkpt lat="38.0000030156" lon="-2.8888179827">
        <ele>732.18</ele>
        <time>2017-10-07T11:11:07Z</time>
      </trkpt>
      <trkpt lat="37.9996813182" lon="-2.8895128425">
        <ele>729.78</ele>
        <time>2017-10-07T11:11:15Z</time>
      </trkpt>
      <trkpt lat="37.9996353015" lon="-2.8895811550">
        <ele>729.30</ele>
        <time>2017-10-07T11:11:16Z</time>
      </trkpt>
      <trkpt lat="37.9995863512" lon="-2.8896394931">
        <ele>729.30</ele>
        <time>2017-10-07T11:11:17Z</time>
      </trkpt>
      <trkpt lat="37.9995380715" lon="-2.8896902874">
        <ele>729.30</ele>
        <time>2017-10-07T11:11:18Z</time>
      </trkpt>
      <trkpt lat="37.9994902108" lon="-2.8897339571">
        <ele>729.30</ele>
        <time>2017-10-07T11:11:19Z</time>
      </trkpt>
      <trkpt lat="37.9994416796" lon="-2.8897732683">
        <ele>730.26</ele>
        <time>2017-10-07T11:11:20Z</time>
      </trkpt>
      <trkpt lat="37.9992356524" lon="-2.8899065405">
        <ele>729.30</ele>
        <time>2017-10-07T11:11:24Z</time>
      </trkpt>
      <trkpt lat="37.9991897196" lon="-2.8899482824">
        <ele>729.30</ele>
        <time>2017-10-07T11:11:25Z</time>
      </trkpt>
      <trkpt lat="37.9991453793" lon="-2.8899973165">
        <ele>729.30</ele>
        <time>2017-10-07T11:11:26Z</time>
      </trkpt>
      <trkpt lat="37.9991039727" lon="-2.8900520504">
        <ele>729.30</ele>
        <time>2017-10-07T11:11:27Z</time>
      </trkpt>
      <trkpt lat="37.9990683496" lon="-2.8901141603">
        <ele>729.30</ele>
        <time>2017-10-07T11:11:28Z</time>
      </trkpt>
      <trkpt lat="37.9990367498" lon="-2.8901810478">
        <ele>729.30</ele>
        <time>2017-10-07T11:11:29Z</time>
      </trkpt>
      <trkpt lat="37.9987444729" lon="-2.8906437289">
        <ele>729.30</ele>
        <time>2017-10-07T11:11:37Z</time>
      </trkpt>
      <trkpt lat="37.9986965284" lon="-2.8906823695">
        <ele>729.30</ele>
        <time>2017-10-07T11:11:38Z</time>
      </trkpt>
      <trkpt lat="37.9981981404" lon="-2.8910263628">
        <ele>727.86</ele>
        <time>2017-10-07T11:11:47Z</time>
      </trkpt>
      <trkpt lat="37.9981462564" lon="-2.8910904843">
        <ele>727.86</ele>
        <time>2017-10-07T11:11:48Z</time>
      </trkpt>
      <trkpt lat="37.9980996531" lon="-2.8911609761">
        <ele>727.37</ele>
        <time>2017-10-07T11:11:49Z</time>
      </trkpt>
      <trkpt lat="37.9980604257" lon="-2.8912380058">
        <ele>726.89</ele>
        <time>2017-10-07T11:11:50Z</time>
      </trkpt>
      <trkpt lat="37.9980270658" lon="-2.8913200647">
        <ele>727.37</ele>
        <time>2017-10-07T11:11:51Z</time>
      </trkpt>
      <trkpt lat="37.9979978967" lon="-2.8914069012">
        <ele>726.89</ele>
        <time>2017-10-07T11:11:52Z</time>
      </trkpt>
      <trkpt lat="37.9977202881" lon="-2.8922094684">
        <ele>724.01</ele>
        <time>2017-10-07T11:12:01Z</time>
      </trkpt>
      <trkpt lat="37.9976364691" lon="-2.8925392963">
        <ele>723.05</ele>
        <time>2017-10-07T11:12:05Z</time>
      </trkpt>
      <trkpt lat="37.9976085573" lon="-2.8926176671">
        <ele>723.05</ele>
        <time>2017-10-07T11:12:06Z</time>
      </trkpt>
      <trkpt lat="37.9975808132" lon="-2.8926937748">
        <ele>723.05</ele>
        <time>2017-10-07T11:12:07Z</time>
      </trkpt>
      <trkpt lat="37.9972878657" lon="-2.8935996909">
        <ele>720.16</ele>
        <time>2017-10-07T11:12:18Z</time>
      </trkpt>
      <trkpt lat="37.9972594511" lon="-2.8936716076">
        <ele>719.68</ele>
        <time>2017-10-07T11:12:19Z</time>
      </trkpt>
      <trkpt lat="37.9972225707" lon="-2.8937392496">
        <ele>719.68</ele>
        <time>2017-10-07T11:12:20Z</time>
      </trkpt>
      <trkpt lat="37.9971794039" lon="-2.8937971685">
        <ele>719.68</ele>
        <time>2017-10-07T11:12:21Z</time>
      </trkpt>
      <trkpt lat="37.9971301183" lon="-2.8938437719">
        <ele>719.68</ele>
        <time>2017-10-07T11:12:22Z</time>
      </trkpt>
      <trkpt lat="37.9970777314" lon="-2.8938841727">
        <ele>719.68</ele>
        <time>2017-10-07T11:12:23Z</time>
      </trkpt>
      <trkpt lat="37.9966776632" lon="-2.8941511363">
        <ele>720.16</ele>
        <time>2017-10-07T11:12:31Z</time>
      </trkpt>
      <trkpt lat="37.9965173174" lon="-2.8942435887">
        <ele>720.65</ele>
        <time>2017-10-07T11:12:34Z</time>
      </trkpt>
      <trkpt lat="37.9964225180" lon="-2.8943212051">
        <ele>720.65</ele>
        <time>2017-10-07T11:12:36Z</time>
      </trkpt>
      <trkpt lat="37.9963847157" lon="-2.8943698201">
        <ele>720.65</ele>
        <time>2017-10-07T11:12:37Z</time>
      </trkpt>
      <trkpt lat="37.9963485058" lon="-2.8944241349">
        <ele>720.65</ele>
        <time>2017-10-07T11:12:38Z</time>
      </trkpt>
      <trkpt lat="37.9963164032" lon="-2.8944825567">
        <ele>720.65</ele>
        <time>2017-10-07T11:12:39Z</time>
      </trkpt>
      <trkpt lat="37.9962884076" lon="-2.8945438284">
        <ele>720.65</ele>
        <time>2017-10-07T11:12:40Z</time>
      </trkpt>
      <trkpt lat="37.9962649383" lon="-2.8946087882">
        <ele>720.65</ele>
        <time>2017-10-07T11:12:41Z</time>
      </trkpt>
      <trkpt lat="37.9962396249" lon="-2.8946732450">
        <ele>720.65</ele>
        <time>2017-10-07T11:12:42Z</time>
      </trkpt>
      <trkpt lat="37.9962106235" lon="-2.8947339300">
        <ele>720.65</ele>
        <time>2017-10-07T11:12:43Z</time>
      </trkpt>
      <trkpt lat="37.9961770121" lon="-2.8947905917">
        <ele>720.65</ele>
        <time>2017-10-07T11:12:44Z</time>
      </trkpt>
      <trkpt lat="37.9961383715" lon="-2.8948399611">
        <ele>720.65</ele>
        <time>2017-10-07T11:12:45Z</time>
      </trkpt>
      <trkpt lat="37.9960968811" lon="-2.8948791884">
        <ele>720.16</ele>
        <time>2017-10-07T11:12:46Z</time>
      </trkpt>
      <trkpt lat="37.9960534628" lon="-2.8949025739">
        <ele>720.16</ele>
        <time>2017-10-07T11:12:47Z</time>
      </trkpt>
      <trkpt lat="37.9960095417" lon="-2.8949159849">
        <ele>719.68</ele>
        <time>2017-10-07T11:12:48Z</time>
      </trkpt>
      <trkpt lat="37.9959681351" lon="-2.8949224390">
        <ele>719.68</ele>
        <time>2017-10-07T11:12:49Z</time>
      </trkpt>
      <trkpt lat="37.9958609305" lon="-2.8949219361">
        <ele>719.68</ele>
        <time>2017-10-07T11:12:55Z</time>
      </trkpt>
      <trkpt lat="37.9958548117" lon="-2.8949038312">
        <ele>719.68</ele>
        <time>2017-10-07T11:13:05Z</time>
      </trkpt>
      <trkpt lat="37.9958676361" lon="-2.8949074354">
        <ele>719.68</ele>
        <time>2017-10-07T11:13:16Z</time>
      </trkpt>
      <trkpt lat="37.9958586674" lon="-2.8949089441">
        <ele>719.20</ele>
        <time>2017-10-07T11:13:31Z</time>
      </trkpt>
      <trkpt lat="37.9958650377" lon="-2.8949205950">
        <ele>719.20</ele>
        <time>2017-10-07T11:13:51Z</time>
      </trkpt>
      <trkpt lat="37.9958722461" lon="-2.8949117940">
        <ele>719.68</ele>
        <time>2017-10-07T11:13:59Z</time>
      </trkpt>
      <trkpt lat="37.9958559852" lon="-2.8949185833">
        <ele>719.68</ele>
        <time>2017-10-07T11:14:13Z</time>
      </trkpt>
      <trkpt lat="37.9958408978" lon="-2.8949199244">
        <ele>719.68</ele>
        <time>2017-10-07T11:14:33Z</time>
      </trkpt>
      <trkpt lat="37.9958264809" lon="-2.8949133866">
        <ele>719.68</ele>
        <time>2017-10-07T11:14:57Z</time>
      </trkpt>
      <trkpt lat="37.9958200268" lon="-2.8949123807">
        <ele>719.68</ele>
        <time>2017-10-07T11:15:18Z</time>
      </trkpt>
      <trkpt lat="37.9958157521" lon="-2.8949024063">
        <ele>720.16</ele>
        <time>2017-10-07T11:15:41Z</time>
      </trkpt>
      <trkpt lat="37.9958060291" lon="-2.8948918451">
        <ele>720.16</ele>
        <time>2017-10-07T11:16:06Z</time>
      </trkpt>
      <trkpt lat="37.9958129022" lon="-2.8948882408">
        <ele>720.16</ele>
        <time>2017-10-07T11:16:31Z</time>
      </trkpt>
      <trkpt lat="37.9958171770" lon="-2.8948941082">
        <ele>720.65</ele>
        <time>2017-10-07T11:16:54Z</time>
      </trkpt>
      <trkpt lat="37.9958215356" lon="-2.8948784340">
        <ele>720.65</ele>
        <time>2017-10-07T11:17:16Z</time>
      </trkpt>
      <trkpt lat="37.9958184343" lon="-2.8948771767">
        <ele>720.65</ele>
        <time>2017-10-07T11:17:45Z</time>
      </trkpt>
      <trkpt lat="37.9958146624" lon="-2.8948692139">
        <ele>720.65</ele>
        <time>2017-10-07T11:18:15Z</time>
      </trkpt>
      <trkpt lat="37.9958163388" lon="-2.8948868159">
        <ele>721.13</ele>
        <time>2017-10-07T11:18:43Z</time>
      </trkpt>
      <trkpt lat="37.9958155844" lon="-2.8948883247">
        <ele>721.13</ele>
        <time>2017-10-07T11:19:04Z</time>
      </trkpt>
      <trkpt lat="37.9958217032" lon="-2.8948817868">
        <ele>721.13</ele>
        <time>2017-10-07T11:19:22Z</time>
      </trkpt>
      <trkpt lat="37.9958236311" lon="-2.8948802780">
        <ele>721.61</ele>
        <time>2017-10-07T11:19:45Z</time>
      </trkpt>
      <trkpt lat="37.9958248883" lon="-2.8948843852">
        <ele>721.61</ele>
        <time>2017-10-07T11:20:01Z</time>
      </trkpt>
      <trkpt lat="37.9958234634" lon="-2.8948940244">
        <ele>721.61</ele>
        <time>2017-10-07T11:20:13Z</time>
      </trkpt>
      <trkpt lat="37.9958258942" lon="-2.8949041665">
        <ele>721.61</ele>
        <time>2017-10-07T11:20:22Z</time>
      </trkpt>
      <trkpt lat="37.9957883433" lon="-2.8949368559">
        <ele>722.09</ele>
        <time>2017-10-07T11:20:26Z</time>
      </trkpt>
      <trkpt lat="37.9957785364" lon="-2.8949479200">
        <ele>721.61</ele>
        <time>2017-10-07T11:20:27Z</time>
      </trkpt>
      <trkpt lat="37.9957672209" lon="-2.8949599899">
        <ele>722.09</ele>
        <time>2017-10-07T11:20:28Z</time>
      </trkpt>
      <trkpt lat="37.9957466014" lon="-2.8949984629">
        <ele>721.61</ele>
        <time>2017-10-07T11:20:31Z</time>
      </trkpt>
      <trkpt lat="37.9957403149" lon="-2.8950173222">
        <ele>721.61</ele>
        <time>2017-10-07T11:20:32Z</time>
      </trkpt>
      <trkpt lat="37.9957398120" lon="-2.8950380255">
        <ele>721.61</ele>
        <time>2017-10-07T11:20:33Z</time>
      </trkpt>
      <trkpt lat="37.9957413208" lon="-2.8950579744">
        <ele>721.61</ele>
        <time>2017-10-07T11:20:34Z</time>
      </trkpt>
      <trkpt lat="37.9957448412" lon="-2.8950787615">
        <ele>721.61</ele>
        <time>2017-10-07T11:20:35Z</time>
      </trkpt>
      <trkpt lat="37.9957465176" lon="-2.8950990457">
        <ele>721.61</ele>
        <time>2017-10-07T11:20:36Z</time>
      </trkpt>
      <trkpt lat="37.9957404826" lon="-2.8951194976">
        <ele>721.61</ele>
        <time>2017-10-07T11:20:37Z</time>
      </trkpt>
      <trkpt lat="37.9957310110" lon="-2.8951410390">
        <ele>721.61</ele>
        <time>2017-10-07T11:20:38Z</time>
      </trkpt>
      <trkpt lat="37.9957241379" lon="-2.8951598983">
        <ele>721.13</ele>
        <time>2017-10-07T11:20:39Z</time>
      </trkpt>
      <trkpt lat="37.9957362916" lon="-2.8951933421">
        <ele>721.13</ele>
        <time>2017-10-07T11:20:48Z</time>
      </trkpt>
      <trkpt lat="37.9957352020" lon="-2.8952188231">
        <ele>721.13</ele>
        <time>2017-10-07T11:20:56Z</time>
      </trkpt>
      <trkpt lat="37.9957364593" lon="-2.8952410351">
        <ele>721.13</ele>
        <time>2017-10-07T11:20:57Z</time>
      </trkpt>
      <trkpt lat="37.9957367107" lon="-2.8952696174">
        <ele>721.13</ele>
        <time>2017-10-07T11:20:58Z</time>
      </trkpt>
      <trkpt lat="37.9957356211" lon="-2.8952979483">
        <ele>721.13</ele>
        <time>2017-10-07T11:20:59Z</time>
      </trkpt>
      <trkpt lat="37.9957283288" lon="-2.8953266982">
        <ele>721.13</ele>
        <time>2017-10-07T11:21:00Z</time>
      </trkpt>
      <trkpt lat="37.9957190249" lon="-2.8953552805">
        <ele>721.13</ele>
        <time>2017-10-07T11:21:01Z</time>
      </trkpt>
      <trkpt lat="37.9957078770" lon="-2.8953841981">
        <ele>721.13</ele>
        <time>2017-10-07T11:21:02Z</time>
      </trkpt>
      <trkpt lat="37.9955506325" lon="-2.8957373276">
        <ele>720.16</ele>
        <time>2017-10-07T11:21:11Z</time>
      </trkpt>
      <trkpt lat="37.9953398276" lon="-2.8962656390">
        <ele>720.65</ele>
        <time>2017-10-07T11:21:21Z</time>
      </trkpt>
      <trkpt lat="37.9953186214" lon="-2.8963232227">
        <ele>720.16</ele>
        <time>2017-10-07T11:21:22Z</time>
      </trkpt>
      <trkpt lat="37.9952341318" lon="-2.8966220375">
        <ele>720.16</ele>
        <time>2017-10-07T11:21:27Z</time>
      </trkpt>
      <trkpt lat="37.9952232353" lon="-2.8966874164">
        <ele>720.16</ele>
        <time>2017-10-07T11:21:28Z</time>
      </trkpt>
      <trkpt lat="37.9951122589" lon="-2.8971437272">
        <ele>720.16</ele>
        <time>2017-10-07T11:21:35Z</time>
      </trkpt>
      <trkpt lat="37.9951023683" lon="-2.8972103633">
        <ele>720.16</ele>
        <time>2017-10-07T11:21:36Z</time>
      </trkpt>
      <trkpt lat="37.9950208124" lon="-2.8975406103">
        <ele>720.16</ele>
        <time>2017-10-07T11:21:41Z</time>
      </trkpt>
      <trkpt lat="37.9949991871" lon="-2.8976016305">
        <ele>720.16</ele>
        <time>2017-10-07T11:21:42Z</time>
      </trkpt>
      <trkpt lat="37.9949603789" lon="-2.8977246769">
        <ele>720.16</ele>
        <time>2017-10-07T11:21:44Z</time>
      </trkpt>
      <trkpt lat="37.9949332215" lon="-2.8977829311">
        <ele>720.16</ele>
        <time>2017-10-07T11:21:45Z</time>
      </trkpt>
      <trkpt lat="37.9948693514" lon="-2.8978883754">
        <ele>720.16</ele>
        <time>2017-10-07T11:21:47Z</time>
      </trkpt>
      <trkpt lat="37.9948266875" lon="-2.8979305364">
        <ele>720.16</ele>
        <time>2017-10-07T11:21:48Z</time>
      </trkpt>
      <trkpt lat="37.9947784916" lon="-2.8979630582">
        <ele>720.16</ele>
        <time>2017-10-07T11:21:49Z</time>
      </trkpt>
      <trkpt lat="37.9947266076" lon="-2.8979832586">
        <ele>720.16</ele>
        <time>2017-10-07T11:21:50Z</time>
      </trkpt>
      <trkpt lat="37.9946792498" lon="-2.8979931492">
        <ele>720.65</ele>
        <time>2017-10-07T11:21:51Z</time>
      </trkpt>
      <trkpt lat="37.9946367536" lon="-2.8979988489">
        <ele>720.65</ele>
        <time>2017-10-07T11:21:52Z</time>
      </trkpt>
      <trkpt lat="37.9945950117" lon="-2.8980032913">
        <ele>720.65</ele>
        <time>2017-10-07T11:21:53Z</time>
      </trkpt>
      <trkpt lat="37.9943836201" lon="-2.8980317060">
        <ele>720.65</ele>
        <time>2017-10-07T11:21:58Z</time>
      </trkpt>
      <trkpt lat="37.9943345021" lon="-2.8980491403">
        <ele>720.65</ele>
        <time>2017-10-07T11:21:59Z</time>
      </trkpt>
      <trkpt lat="37.9942902457" lon="-2.8980723582">
        <ele>720.65</ele>
        <time>2017-10-07T11:22:00Z</time>
      </trkpt>
      <trkpt lat="37.9942482524" lon="-2.8981005214">
        <ele>721.13</ele>
        <time>2017-10-07T11:22:01Z</time>
      </trkpt>
      <trkpt lat="37.9942088574" lon="-2.8981301095">
        <ele>721.13</ele>
        <time>2017-10-07T11:22:02Z</time>
      </trkpt>
      <trkpt lat="37.9939081147" lon="-2.8983747773">
        <ele>722.57</ele>
        <time>2017-10-07T11:22:10Z</time>
      </trkpt>
      <trkpt lat="37.9938640259" lon="-2.8983984981">
        <ele>722.57</ele>
        <time>2017-10-07T11:22:11Z</time>
      </trkpt>
      <trkpt lat="37.9938212782" lon="-2.8984208778">
        <ele>722.57</ele>
        <time>2017-10-07T11:22:12Z</time>
      </trkpt>
      <trkpt lat="37.9933350440" lon="-2.8986927029">
        <ele>723.05</ele>
        <time>2017-10-07T11:22:24Z</time>
      </trkpt>
      <trkpt lat="37.9932894465" lon="-2.8987046052">
        <ele>723.05</ele>
        <time>2017-10-07T11:22:25Z</time>
      </trkpt>
      <trkpt lat="37.9930459522" lon="-2.8987259790">
        <ele>722.57</ele>
        <time>2017-10-07T11:22:30Z</time>
      </trkpt>
      <trkpt lat="37.9928856902" lon="-2.8987579979">
        <ele>721.61</ele>
        <time>2017-10-07T11:22:33Z</time>
      </trkpt>
      <trkpt lat="37.9928286094" lon="-2.8987857420">
        <ele>721.61</ele>
        <time>2017-10-07T11:22:34Z</time>
      </trkpt>
      <trkpt lat="37.9927749652" lon="-2.8988288250">
        <ele>721.61</ele>
        <time>2017-10-07T11:22:35Z</time>
      </trkpt>
      <trkpt lat="37.9927262664" lon="-2.8988864087">
        <ele>721.13</ele>
        <time>2017-10-07T11:22:36Z</time>
      </trkpt>
      <trkpt lat="37.9926849436" lon="-2.8989568166">
        <ele>720.65</ele>
        <time>2017-10-07T11:22:37Z</time>
      </trkpt>
      <trkpt lat="37.9926487338" lon="-2.8990354389">
        <ele>720.65</ele>
        <time>2017-10-07T11:22:38Z</time>
      </trkpt>
      <trkpt lat="37.9926155414" lon="-2.8991193417">
        <ele>720.16</ele>
        <time>2017-10-07T11:22:39Z</time>
      </trkpt>
      <trkpt lat="37.9925418645" lon="-2.8992926795">
        <ele>719.68</ele>
        <time>2017-10-07T11:22:41Z</time>
      </trkpt>
      <trkpt lat="37.9924957640" lon="-2.8993770853">
        <ele>719.20</ele>
        <time>2017-10-07T11:22:42Z</time>
      </trkpt>
      <trkpt lat="37.9924436286" lon="-2.8994561266">
        <ele>719.20</ele>
        <time>2017-10-07T11:22:43Z</time>
      </trkpt>
      <trkpt lat="37.9923879728" lon="-2.8995272890">
        <ele>718.72</ele>
        <time>2017-10-07T11:22:44Z</time>
      </trkpt>
      <trkpt lat="37.9923272878" lon="-2.8995922487">
        <ele>718.72</ele>
        <time>2017-10-07T11:22:45Z</time>
      </trkpt>
      <trkpt lat="37.9922661837" lon="-2.8996508382">
        <ele>718.24</ele>
        <time>2017-10-07T11:22:46Z</time>
      </trkpt>
      <trkpt lat="37.9922019783" lon="-2.8996996209">
        <ele>718.24</ele>
        <time>2017-10-07T11:22:47Z</time>
      </trkpt>
      <trkpt lat="37.9921318218" lon="-2.8997390997">
        <ele>718.24</ele>
        <time>2017-10-07T11:22:48Z</time>
      </trkpt>
      <trkpt lat="37.9920629226" lon="-2.8997687716">
        <ele>718.24</ele>
        <time>2017-10-07T11:22:49Z</time>
      </trkpt>
      <trkpt lat="37.9917537142" lon="-2.8998641577">
        <ele>718.24</ele>
        <time>2017-10-07T11:22:54Z</time>
      </trkpt>
      <trkpt lat="37.9917001538" lon="-2.8998704441">
        <ele>718.24</ele>
        <time>2017-10-07T11:22:55Z</time>
      </trkpt>
      <trkpt lat="37.9916523769" lon="-2.8998805862">
        <ele>718.24</ele>
        <time>2017-10-07T11:22:56Z</time>
      </trkpt>
      <trkpt lat="37.9915671330" lon="-2.8998932429">
        <ele>718.24</ele>
        <time>2017-10-07T11:23:01Z</time>
      </trkpt>
      <trkpt lat="37.9915592540" lon="-2.8998825140">
        <ele>718.24</ele>
        <time>2017-10-07T11:23:13Z</time>
      </trkpt>
      <trkpt lat="37.9915440828" lon="-2.8998857830">
        <ele>718.24</ele>
        <time>2017-10-07T11:23:35Z</time>
      </trkpt>
      <trkpt lat="37.9915243015" lon="-2.8998787422">
        <ele>718.24</ele>
        <time>2017-10-07T11:23:45Z</time>
      </trkpt>
      <trkpt lat="37.9914610181" lon="-2.8998956736">
        <ele>718.24</ele>
        <time>2017-10-07T11:23:49Z</time>
      </trkpt>
      <trkpt lat="37.9914411530" lon="-2.8998981044">
        <ele>718.24</ele>
        <time>2017-10-07T11:23:50Z</time>
      </trkpt>
      <trkpt lat="37.9914209526" lon="-2.8998996969">
        <ele>718.72</ele>
        <time>2017-10-07T11:23:51Z</time>
      </trkpt>
      <trkpt lat="37.9913998302" lon="-2.8999071568">
        <ele>718.24</ele>
        <time>2017-10-07T11:23:52Z</time>
      </trkpt>
      <trkpt lat="37.9913777858" lon="-2.8999179695">
        <ele>718.24</ele>
        <time>2017-10-07T11:23:53Z</time>
      </trkpt>
      <trkpt lat="37.9911822360" lon="-2.9001338035">
        <ele>718.24</ele>
        <time>2017-10-07T11:24:04Z</time>
      </trkpt>
      <trkpt lat="37.9911078047" lon="-2.9004421737">
        <ele>718.72</ele>
        <time>2017-10-07T11:24:14Z</time>
      </trkpt>
      <trkpt lat="37.9911453556" lon="-2.9007449280">
        <ele>719.20</ele>
        <time>2017-10-07T11:24:23Z</time>
      </trkpt>
      <trkpt lat="37.9911277536" lon="-2.9010348581">
        <ele>720.16</ele>
        <time>2017-10-07T11:24:31Z</time>
      </trkpt>
      <trkpt lat="37.9910001811" lon="-2.9013554659">
        <ele>721.13</ele>
        <time>2017-10-07T11:24:40Z</time>
      </trkpt>
      <trkpt lat="37.9909324553" lon="-2.9016157240">
        <ele>722.57</ele>
        <time>2017-10-07T11:24:48Z</time>
      </trkpt>
      <trkpt lat="37.9908362310" lon="-2.9019258544">
        <ele>723.53</ele>
        <time>2017-10-07T11:24:58Z</time>
      </trkpt>
      <trkpt lat="37.9906541761" lon="-2.9021531716">
        <ele>724.97</ele>
        <time>2017-10-07T11:25:08Z</time>
      </trkpt>
      <trkpt lat="37.9904584587" lon="-2.9023675807">
        <ele>726.41</ele>
        <time>2017-10-07T11:25:18Z</time>
      </trkpt>
      <trkpt lat="37.9903115239" lon="-2.9026416689">
        <ele>727.86</ele>
        <time>2017-10-07T11:25:29Z</time>
      </trkpt>
      <trkpt lat="37.9901670199" lon="-2.9028829001">
        <ele>729.30</ele>
        <time>2017-10-07T11:25:39Z</time>
      </trkpt>
      <trkpt lat="37.9899483360" lon="-2.9030414857">
        <ele>730.74</ele>
        <time>2017-10-07T11:25:50Z</time>
      </trkpt>
      <trkpt lat="37.9897228628" lon="-2.9032256361">
        <ele>732.18</ele>
        <time>2017-10-07T11:26:01Z</time>
      </trkpt>
      <trkpt lat="37.9895627685" lon="-2.9034251254">
        <ele>733.14</ele>
        <time>2017-10-07T11:26:11Z</time>
      </trkpt>
      <trkpt lat="37.9894087091" lon="-2.9036364332">
        <ele>734.58</ele>
        <time>2017-10-07T11:26:21Z</time>
      </trkpt>
      <trkpt lat="37.9891292565" lon="-2.9037277121">
        <ele>736.03</ele>
        <time>2017-10-07T11:26:33Z</time>
      </trkpt>
      <trkpt lat="37.9888635501" lon="-2.9038499203">
        <ele>736.51</ele>
        <time>2017-10-07T11:26:44Z</time>
      </trkpt>
      <trkpt lat="37.9887057189" lon="-2.9042368289">
        <ele>737.47</ele>
        <time>2017-10-07T11:26:55Z</time>
      </trkpt>
      <trkpt lat="37.9886747897" lon="-2.9046717659">
        <ele>737.47</ele>
        <time>2017-10-07T11:27:05Z</time>
      </trkpt>
      <trkpt lat="37.9884784017" lon="-2.9050691519">
        <ele>738.43</ele>
        <time>2017-10-07T11:27:16Z</time>
      </trkpt>
      <trkpt lat="37.9881914053" lon="-2.9053824674">
        <ele>738.91</ele>
        <time>2017-10-07T11:27:25Z</time>
      </trkpt>
      <trkpt lat="37.9879112821" lon="-2.9056825396">
        <ele>740.35</ele>
        <time>2017-10-07T11:27:35Z</time>
      </trkpt>
      <trkpt lat="37.9876709729" lon="-2.9059402831">
        <ele>741.79</ele>
        <time>2017-10-07T11:27:45Z</time>
      </trkpt>
      <trkpt lat="37.9874195997" lon="-2.9062517546">
        <ele>743.72</ele>
        <time>2017-10-07T11:27:57Z</time>
      </trkpt>
      <trkpt lat="37.9872645345" lon="-2.9065369070">
        <ele>745.16</ele>
        <time>2017-10-07T11:28:08Z</time>
      </trkpt>
      <trkpt lat="37.9871001653" lon="-2.9068171140">
        <ele>746.60</ele>
        <time>2017-10-07T11:28:20Z</time>
      </trkpt>
      <trkpt lat="37.9869294260" lon="-2.9069711734">
        <ele>747.08</ele>
        <time>2017-10-07T11:28:29Z</time>
      </trkpt>
      <trkpt lat="37.9867213871" lon="-2.9069878533">
        <ele>748.04</ele>
        <time>2017-10-07T11:28:37Z</time>
      </trkpt>
      <trkpt lat="37.9864390846" lon="-2.9068208858">
        <ele>748.04</ele>
        <time>2017-10-07T11:28:47Z</time>
      </trkpt>
      <trkpt lat="37.9861185607" lon="-2.9066602048">
        <ele>748.04</ele>
        <time>2017-10-07T11:28:57Z</time>
      </trkpt>
      <trkpt lat="37.9860763159" lon="-2.9066655692">
        <ele>748.04</ele>
        <time>2017-10-07T11:28:58Z</time>
      </trkpt>
      <trkpt lat="37.9860330652" lon="-2.9066763818">
        <ele>748.04</ele>
        <time>2017-10-07T11:28:59Z</time>
      </trkpt>
      <trkpt lat="37.9859897308" lon="-2.9066921398">
        <ele>748.04</ele>
        <time>2017-10-07T11:29:00Z</time>
      </trkpt>
      <trkpt lat="37.9859459773" lon="-2.9067125916">
        <ele>747.56</ele>
        <time>2017-10-07T11:29:01Z</time>
      </trkpt>
      <trkpt lat="37.9855114594" lon="-2.9069216363">
        <ele>745.64</ele>
        <time>2017-10-07T11:29:10Z</time>
      </trkpt>
      <trkpt lat="37.9852897581" lon="-2.9070126638">
        <ele>745.16</ele>
        <time>2017-10-07T11:29:14Z</time>
      </trkpt>
      <trkpt lat="37.9851734173" lon="-2.9070804734">
        <ele>740.35</ele>
        <time>2017-10-07T11:29:16Z</time>
      </trkpt>
      <trkpt lat="37.9851124808" lon="-2.9071154259">
        <ele>748.52</ele>
        <time>2017-10-07T11:29:17Z</time>
      </trkpt>
      <trkpt lat="37.9850544780" lon="-2.9071486183">
        <ele>745.16</ele>
        <time>2017-10-07T11:29:18Z</time>
      </trkpt>
      <trkpt lat="37.9849972297" lon="-2.9071806371">
        <ele>744.20</ele>
        <time>2017-10-07T11:29:19Z</time>
      </trkpt>
      <trkpt lat="37.9849344492" lon="-2.9072098061">
        <ele>744.20</ele>
        <time>2017-10-07T11:29:20Z</time>
      </trkpt>
      <trkpt lat="37.9844884481" lon="-2.9073108919">
        <ele>742.28</ele>
        <time>2017-10-07T11:29:28Z</time>
      </trkpt>
      <trkpt lat="37.9843540862" lon="-2.9073583335">
        <ele>741.79</ele>
        <time>2017-10-07T11:29:31Z</time>
      </trkpt>
      <trkpt lat="37.9843031242" lon="-2.9073725827">
        <ele>741.79</ele>
        <time>2017-10-07T11:29:32Z</time>
      </trkpt>
      <trkpt lat="37.9842520785" lon="-2.9073916934">
        <ele>741.79</ele>
        <time>2017-10-07T11:29:33Z</time>
      </trkpt>
      <trkpt lat="37.9839825165" lon="-2.9075129796">
        <ele>741.31</ele>
        <time>2017-10-07T11:29:38Z</time>
      </trkpt>
      <trkpt lat="37.9839256033" lon="-2.9075383767">
        <ele>741.31</ele>
        <time>2017-10-07T11:29:39Z</time>
      </trkpt>
      <trkpt lat="37.9833791871" lon="-2.9078532010">
        <ele>740.35</ele>
        <time>2017-10-07T11:29:48Z</time>
      </trkpt>
      <trkpt lat="37.9833247885" lon="-2.9078975413">
        <ele>740.35</ele>
        <time>2017-10-07T11:29:49Z</time>
      </trkpt>
      <trkpt lat="37.9832718149" lon="-2.9079448991">
        <ele>740.35</ele>
        <time>2017-10-07T11:29:50Z</time>
      </trkpt>
      <trkpt lat="37.9829215351" lon="-2.9082702845">
        <ele>740.83</ele>
        <time>2017-10-07T11:29:57Z</time>
      </trkpt>
      <trkpt lat="37.9828849901" lon="-2.9083164688">
        <ele>740.83</ele>
        <time>2017-10-07T11:29:58Z</time>
      </trkpt>
      <trkpt lat="37.9827974830" lon="-2.9083999526">
        <ele>740.83</ele>
        <time>2017-10-07T11:30:00Z</time>
      </trkpt>
      <trkpt lat="37.9827082157" lon="-2.9084694386">
        <ele>740.83</ele>
        <time>2017-10-07T11:30:02Z</time>
      </trkpt>
      <trkpt lat="37.9826632049" lon="-2.9084946681">
        <ele>740.83</ele>
        <time>2017-10-07T11:30:03Z</time>
      </trkpt>
      <trkpt lat="37.9826160148" lon="-2.9085126892">
        <ele>740.83</ele>
        <time>2017-10-07T11:30:04Z</time>
      </trkpt>
      <trkpt lat="37.9820729513" lon="-2.9087417666">
        <ele>739.87</ele>
        <time>2017-10-07T11:30:13Z</time>
      </trkpt>
      <trkpt lat="37.9820102546" lon="-2.9087741207">
        <ele>739.39</ele>
        <time>2017-10-07T11:30:14Z</time>
      </trkpt>
      <trkpt lat="37.9817214981" lon="-2.9088767152">
        <ele>738.43</ele>
        <time>2017-10-07T11:30:18Z</time>
      </trkpt>
      <trkpt lat="37.9816443846" lon="-2.9088812415">
        <ele>738.43</ele>
        <time>2017-10-07T11:30:19Z</time>
      </trkpt>
      <trkpt lat="37.9815628286" lon="-2.9088756256">
        <ele>737.95</ele>
        <time>2017-10-07T11:30:20Z</time>
      </trkpt>
      <trkpt lat="37.9814816918" lon="-2.9088612925">
        <ele>737.95</ele>
        <time>2017-10-07T11:30:21Z</time>
      </trkpt>
      <trkpt lat="37.9814024828" lon="-2.9088384937">
        <ele>737.95</ele>
        <time>2017-10-07T11:30:22Z</time>
      </trkpt>
      <trkpt lat="37.9813286383" lon="-2.9088037089">
        <ele>737.95</ele>
        <time>2017-10-07T11:30:23Z</time>
      </trkpt>
      <trkpt lat="37.9812588170" lon="-2.9087630566">
        <ele>737.95</ele>
        <time>2017-10-07T11:30:24Z</time>
      </trkpt>
      <trkpt lat="37.9811912589" lon="-2.9087203089">
        <ele>737.95</ele>
        <time>2017-10-07T11:30:25Z</time>
      </trkpt>
      <trkpt lat="37.9805229697" lon="-2.9082178976">
        <ele>738.43</ele>
        <time>2017-10-07T11:30:36Z</time>
      </trkpt>
      <trkpt lat="37.9799383320" lon="-2.9077646043">
        <ele>738.91</ele>
        <time>2017-10-07T11:30:47Z</time>
      </trkpt>
      <trkpt lat="37.9794185702" lon="-2.9074193537">
        <ele>738.91</ele>
        <time>2017-10-07T11:30:57Z</time>
      </trkpt>
      <trkpt lat="37.9788487684" lon="-2.9072106443">
        <ele>738.91</ele>
        <time>2017-10-07T11:31:07Z</time>
      </trkpt>
      <trkpt lat="37.9788009077" lon="-2.9071822297">
        <ele>738.91</ele>
        <time>2017-10-07T11:31:08Z</time>
      </trkpt>
      <trkpt lat="37.9783330299" lon="-2.9069216363">
        <ele>739.87</ele>
        <time>2017-10-07T11:31:18Z</time>
      </trkpt>
      <trkpt lat="37.9781029467" lon="-2.9067995958">
        <ele>740.35</ele>
        <time>2017-10-07T11:31:23Z</time>
      </trkpt>
      <trkpt lat="37.9780174512" lon="-2.9067469575">
        <ele>740.35</ele>
        <time>2017-10-07T11:31:25Z</time>
      </trkpt>
      <trkpt lat="37.9779255018" lon="-2.9067027010">
        <ele>740.83</ele>
        <time>2017-10-07T11:31:27Z</time>
      </trkpt>
      <trkpt lat="37.9778041318" lon="-2.9066296108">
        <ele>740.83</ele>
        <time>2017-10-07T11:31:30Z</time>
      </trkpt>
      <trkpt lat="37.9774076678" lon="-2.9064119328">
        <ele>741.79</ele>
        <time>2017-10-07T11:31:40Z</time>
      </trkpt>
      <trkpt lat="37.9772453941" lon="-2.9063186422">
        <ele>742.28</ele>
        <time>2017-10-07T11:31:44Z</time>
      </trkpt>
      <trkpt lat="37.9772036523" lon="-2.9062950891">
        <ele>742.28</ele>
        <time>2017-10-07T11:31:45Z</time>
      </trkpt>
      <trkpt lat="37.9771619104" lon="-2.9062710330">
        <ele>742.28</ele>
        <time>2017-10-07T11:31:46Z</time>
      </trkpt>
      <trkpt lat="37.9770047497" lon="-2.9061794188">
        <ele>742.76</ele>
        <time>2017-10-07T11:31:50Z</time>
      </trkpt>
      <trkpt lat="37.9769641813" lon="-2.9061577935">
        <ele>743.24</ele>
        <time>2017-10-07T11:31:51Z</time>
      </trkpt>
      <trkpt lat="37.9766420648" lon="-2.9059971962">
        <ele>743.24</ele>
        <time>2017-10-07T11:31:59Z</time>
      </trkpt>
      <trkpt lat="37.9765558988" lon="-2.9059787560">
        <ele>743.24</ele>
        <time>2017-10-07T11:32:01Z</time>
      </trkpt>
      <trkpt lat="37.9764716607" lon="-2.9059711285">
        <ele>743.72</ele>
        <time>2017-10-07T11:32:03Z</time>
      </trkpt>
      <trkpt lat="37.9761878494" lon="-2.9059953522">
        <ele>744.68</ele>
        <time>2017-10-07T11:32:10Z</time>
      </trkpt>
      <trkpt lat="37.9757679161" lon="-2.9060709570">
        <ele>745.16</ele>
        <time>2017-10-07T11:32:20Z</time>
      </trkpt>
      <trkpt lat="37.9752473999" lon="-2.9061591346">
        <ele>745.16</ele>
        <time>2017-10-07T11:32:31Z</time>
      </trkpt>
      <trkpt lat="37.9752005450" lon="-2.9061671812">
        <ele>745.16</ele>
        <time>2017-10-07T11:32:32Z</time>
      </trkpt>
      <trkpt lat="37.9751551989" lon="-2.9061736353">
        <ele>745.16</ele>
        <time>2017-10-07T11:32:33Z</time>
      </trkpt>
      <trkpt lat="37.9747146461" lon="-2.9062515870">
        <ele>744.20</ele>
        <time>2017-10-07T11:32:42Z</time>
      </trkpt>
      <trkpt lat="37.9746630136" lon="-2.9062735476">
        <ele>744.20</ele>
        <time>2017-10-07T11:32:43Z</time>
      </trkpt>
      <trkpt lat="37.9746133927" lon="-2.9063017108">
        <ele>743.72</ele>
        <time>2017-10-07T11:32:44Z</time>
      </trkpt>
      <trkpt lat="37.9745678790" lon="-2.9063359927">
        <ele>743.72</ele>
        <time>2017-10-07T11:32:45Z</time>
      </trkpt>
      <trkpt lat="37.9745274782" lon="-2.9063761421">
        <ele>743.72</ele>
        <time>2017-10-07T11:32:46Z</time>
      </trkpt>
      <trkpt lat="37.9744926095" lon="-2.9064234160">
        <ele>743.72</ele>
        <time>2017-10-07T11:32:47Z</time>
      </trkpt>
      <trkpt lat="37.9744593333" lon="-2.9064781498">
        <ele>743.72</ele>
        <time>2017-10-07T11:32:48Z</time>
      </trkpt>
      <trkpt lat="37.9744320922" lon="-2.9065377451">
        <ele>743.72</ele>
        <time>2017-10-07T11:32:49Z</time>
      </trkpt>
      <trkpt lat="37.9744112212" lon="-2.9065997712">
        <ele>743.72</ele>
        <time>2017-10-07T11:32:50Z</time>
      </trkpt>
      <trkpt lat="37.9743435793" lon="-2.9071907792">
        <ele>744.20</ele>
        <time>2017-10-07T11:32:59Z</time>
      </trkpt>
      <trkpt lat="37.9743345268" lon="-2.9072592594">
        <ele>743.72</ele>
        <time>2017-10-07T11:33:00Z</time>
      </trkpt>
      <trkpt lat="37.9743206967" lon="-2.9073271528">
        <ele>744.68</ele>
        <time>2017-10-07T11:33:01Z</time>
      </trkpt>
      <trkpt lat="37.9743012507" lon="-2.9073913582">
        <ele>744.20</ele>
        <time>2017-10-07T11:33:02Z</time>
      </trkpt>
      <trkpt lat="37.9742754344" lon="-2.9074517079">
        <ele>743.72</ele>
        <time>2017-10-07T11:33:03Z</time>
      </trkpt>
      <trkpt lat="37.9742458463" lon="-2.9075100459">
        <ele>743.72</ele>
        <time>2017-10-07T11:33:04Z</time>
      </trkpt>
      <trkpt lat="37.9742130730" lon="-2.9075636901">
        <ele>744.20</ele>
        <time>2017-10-07T11:33:05Z</time>
      </trkpt>
      <trkpt lat="37.9741771985" lon="-2.9076126404">
        <ele>744.20</ele>
        <time>2017-10-07T11:33:06Z</time>
      </trkpt>
      <trkpt lat="37.9741421621" lon="-2.9076595791">
        <ele>744.20</ele>
        <time>2017-10-07T11:33:07Z</time>
      </trkpt>
      <trkpt lat="37.9740430880" lon="-2.9077929351">
        <ele>744.68</ele>
        <time>2017-10-07T11:33:10Z</time>
      </trkpt>
      <trkpt lat="37.9740105662" lon="-2.9078373592">
        <ele>744.68</ele>
        <time>2017-10-07T11:33:11Z</time>
      </trkpt>
      <trkpt lat="37.9738827422" lon="-2.9080239404">
        <ele>744.68</ele>
        <time>2017-10-07T11:33:15Z</time>
      </trkpt>
      <trkpt lat="37.9738550819" lon="-2.9080731422">
        <ele>744.68</ele>
        <time>2017-10-07T11:33:16Z</time>
      </trkpt>
      <trkpt lat="37.9734517448" lon="-2.9086325504">
        <ele>745.16</ele>
        <time>2017-10-07T11:33:28Z</time>
      </trkpt>
      <trkpt lat="37.9733094200" lon="-2.9087876994">
        <ele>745.16</ele>
        <time>2017-10-07T11:33:32Z</time>
      </trkpt>
      <trkpt lat="37.9732443765" lon="-2.9088671599">
        <ele>745.16</ele>
        <time>2017-10-07T11:33:34Z</time>
      </trkpt>
      <trkpt lat="37.9732071608" lon="-2.9089062195">
        <ele>745.16</ele>
        <time>2017-10-07T11:33:35Z</time>
      </trkpt>
      <trkpt lat="37.9727785941" lon="-2.9094142467">
        <ele>745.16</ele>
        <time>2017-10-07T11:33:47Z</time>
      </trkpt>
      <trkpt lat="37.9726223554" lon="-2.9096504487">
        <ele>745.16</ele>
        <time>2017-10-07T11:33:52Z</time>
      </trkpt>
      <trkpt lat="37.9725964554" lon="-2.9096959624">
        <ele>745.16</ele>
        <time>2017-10-07T11:33:53Z</time>
      </trkpt>
      <trkpt lat="37.9725679569" lon="-2.9097434878">
        <ele>745.16</ele>
        <time>2017-10-07T11:33:54Z</time>
      </trkpt>
      <trkpt lat="37.9725400452" lon="-2.9097907618">
        <ele>745.64</ele>
        <time>2017-10-07T11:33:55Z</time>
      </trkpt>
      <trkpt lat="37.9725111276" lon="-2.9098355211">
        <ele>745.64</ele>
        <time>2017-10-07T11:33:56Z</time>
      </trkpt>
      <trkpt lat="37.9724786058" lon="-2.9098804481">
        <ele>745.64</ele>
        <time>2017-10-07T11:33:57Z</time>
      </trkpt>
      <trkpt lat="37.9723661207" lon="-2.9100036621">
        <ele>746.12</ele>
        <time>2017-10-07T11:34:00Z</time>
      </trkpt>
      <trkpt lat="37.9723206908" lon="-2.9100366868">
        <ele>746.12</ele>
        <time>2017-10-07T11:34:01Z</time>
      </trkpt>
      <trkpt lat="37.9722699802" lon="-2.9100631736">
        <ele>746.12</ele>
        <time>2017-10-07T11:34:02Z</time>
      </trkpt>
      <trkpt lat="37.9722171742" lon="-2.9100836255">
        <ele>746.12</ele>
        <time>2017-10-07T11:34:03Z</time>
      </trkpt>
      <trkpt lat="37.9721636977" lon="-2.9100961145">
        <ele>746.12</ele>
        <time>2017-10-07T11:34:04Z</time>
      </trkpt>
      <trkpt lat="37.9721117299" lon="-2.9101013113">
        <ele>746.12</ele>
        <time>2017-10-07T11:34:05Z</time>
      </trkpt>
      <trkpt lat="37.9720595945" lon="-2.9101048317">
        <ele>745.64</ele>
        <time>2017-10-07T11:34:06Z</time>
      </trkpt>
      <trkpt lat="37.9715031199" lon="-2.9102188256">
        <ele>745.64</ele>
        <time>2017-10-07T11:34:17Z</time>
      </trkpt>
      <trkpt lat="37.9714548402" lon="-2.9102439713">
        <ele>746.12</ele>
        <time>2017-10-07T11:34:18Z</time>
      </trkpt>
      <trkpt lat="37.9714072309" lon="-2.9102738947">
        <ele>745.64</ele>
        <time>2017-10-07T11:34:19Z</time>
      </trkpt>
      <trkpt lat="37.9713613819" lon="-2.9103057459">
        <ele>745.64</ele>
        <time>2017-10-07T11:34:20Z</time>
      </trkpt>
      <trkpt lat="37.9713195562" lon="-2.9103387706">
        <ele>746.12</ele>
        <time>2017-10-07T11:34:21Z</time>
      </trkpt>
      <trkpt lat="37.9706637561" lon="-2.9108848516">
        <ele>747.56</ele>
        <time>2017-10-07T11:34:37Z</time>
      </trkpt>
      <trkpt lat="37.9701915197" lon="-2.9114071280">
        <ele>748.52</ele>
        <time>2017-10-07T11:34:51Z</time>
      </trkpt>
      <trkpt lat="37.9701004922" lon="-2.9115916137">
        <ele>748.52</ele>
        <time>2017-10-07T11:34:55Z</time>
      </trkpt>
      <trkpt lat="37.9700873327" lon="-2.9116455931">
        <ele>748.52</ele>
        <time>2017-10-07T11:34:56Z</time>
      </trkpt>
      <trkpt lat="37.9700807109" lon="-2.9117023386">
        <ele>748.52</ele>
        <time>2017-10-07T11:34:57Z</time>
      </trkpt>
      <trkpt lat="37.9700773582" lon="-2.9117548931">
        <ele>748.52</ele>
        <time>2017-10-07T11:34:58Z</time>
      </trkpt>
      <trkpt lat="37.9700786155" lon="-2.9118051007">
        <ele>748.52</ele>
        <time>2017-10-07T11:34:59Z</time>
      </trkpt>
      <trkpt lat="37.9700843152" lon="-2.9118603375">
        <ele>748.52</ele>
        <time>2017-10-07T11:35:00Z</time>
      </trkpt>
      <trkpt lat="37.9700937867" lon="-2.9119172506">
        <ele>748.52</ele>
        <time>2017-10-07T11:35:01Z</time>
      </trkpt>
      <trkpt lat="37.9701069463" lon="-2.9119716492">
        <ele>748.52</ele>
        <time>2017-10-07T11:35:02Z</time>
      </trkpt>
      <trkpt lat="37.9701381270" lon="-2.9120746627">
        <ele>749.00</ele>
        <time>2017-10-07T11:35:04Z</time>
      </trkpt>
      <trkpt lat="37.9701586626" lon="-2.9121215176">
        <ele>749.00</ele>
        <time>2017-10-07T11:35:05Z</time>
      </trkpt>
      <trkpt lat="37.9701779410" lon="-2.9121666122">
        <ele>749.00</ele>
        <time>2017-10-07T11:35:06Z</time>
      </trkpt>
      <trkpt lat="37.9702004883" lon="-2.9122148082">
        <ele>749.00</ele>
        <time>2017-10-07T11:35:07Z</time>
      </trkpt>
      <trkpt lat="37.9702289030" lon="-2.9122651834">
        <ele>749.00</ele>
        <time>2017-10-07T11:35:08Z</time>
      </trkpt>
      <trkpt lat="37.9702614248" lon="-2.9123134632">
        <ele>749.00</ele>
        <time>2017-10-07T11:35:09Z</time>
      </trkpt>
      <trkpt lat="37.9702954553" lon="-2.9123604018">
        <ele>749.00</ele>
        <time>2017-10-07T11:35:10Z</time>
      </trkpt>
      <trkpt lat="37.9703682102" lon="-2.9124441370">
        <ele>749.00</ele>
        <time>2017-10-07T11:35:12Z</time>
      </trkpt>
      <trkpt lat="37.9704037495" lon="-2.9124853760">
        <ele>749.00</ele>
        <time>2017-10-07T11:35:13Z</time>
      </trkpt>
      <trkpt lat="37.9704678711" lon="-2.9125721287">
        <ele>749.49</ele>
        <time>2017-10-07T11:35:15Z</time>
      </trkpt>
      <trkpt lat="37.9705001414" lon="-2.9126083385">
        <ele>749.00</ele>
        <time>2017-10-07T11:35:16Z</time>
      </trkpt>
      <trkpt lat="37.9705267958" lon="-2.9126462247">
        <ele>749.49</ele>
        <time>2017-10-07T11:35:17Z</time>
      </trkpt>
      <trkpt lat="37.9705531150" lon="-2.9126795847">
        <ele>749.49</ele>
        <time>2017-10-07T11:35:18Z</time>
      </trkpt>
      <trkpt lat="37.9705803562" lon="-2.9127136152">
        <ele>749.49</ele>
        <time>2017-10-07T11:35:19Z</time>
      </trkpt>
      <trkpt lat="37.9707729723" lon="-2.9130117595">
        <ele>749.00</ele>
        <time>2017-10-07T11:35:27Z</time>
      </trkpt>
      <trkpt lat="37.9707865510" lon="-2.9130638950">
        <ele>749.00</ele>
        <time>2017-10-07T11:35:28Z</time>
      </trkpt>
      <trkpt lat="37.9707921669" lon="-2.9131245799">
        <ele>749.49</ele>
        <time>2017-10-07T11:35:29Z</time>
      </trkpt>
      <trkpt lat="37.9707888979" lon="-2.9131881986">
        <ele>749.49</ele>
        <time>2017-10-07T11:35:30Z</time>
      </trkpt>
      <trkpt lat="37.9707790911" lon="-2.9132523201">
        <ele>749.49</ele>
        <time>2017-10-07T11:35:31Z</time>
      </trkpt>
      <trkpt lat="37.9707628302" lon="-2.9133187048">
        <ele>749.00</ele>
        <time>2017-10-07T11:35:32Z</time>
      </trkpt>
      <trkpt lat="37.9707381036" lon="-2.9133793898">
        <ele>749.00</ele>
        <time>2017-10-07T11:35:33Z</time>
      </trkpt>
      <trkpt lat="37.9707044922" lon="-2.9134309385">
        <ele>749.00</ele>
        <time>2017-10-07T11:35:34Z</time>
      </trkpt>
      <trkpt lat="37.9706640914" lon="-2.9134767037">
        <ele>749.00</ele>
        <time>2017-10-07T11:35:35Z</time>
      </trkpt>
      <trkpt lat="37.9706221819" lon="-2.9135155957">
        <ele>748.52</ele>
        <time>2017-10-07T11:35:36Z</time>
      </trkpt>
      <trkpt lat="37.9702817928" lon="-2.9137069546">
        <ele>749.00</ele>
        <time>2017-10-07T11:35:44Z</time>
      </trkpt>
      <trkpt lat="37.9702382907" lon="-2.9137067869">
        <ele>749.00</ele>
        <time>2017-10-07T11:35:45Z</time>
      </trkpt>
      <trkpt lat="37.9701970518" lon="-2.9136951361">
        <ele>748.52</ele>
        <time>2017-10-07T11:35:46Z</time>
      </trkpt>
      <trkpt lat="37.9701117240" lon="-2.9136606026">
        <ele>748.52</ele>
        <time>2017-10-07T11:35:48Z</time>
      </trkpt>
      <trkpt lat="37.9700710718" lon="-2.9136346187">
        <ele>748.52</ele>
        <time>2017-10-07T11:35:49Z</time>
      </trkpt>
      <trkpt lat="37.9696814809" lon="-2.9133699182">
        <ele>749.00</ele>
        <time>2017-10-07T11:35:59Z</time>
      </trkpt>
      <trkpt lat="37.9692421854" lon="-2.9132160265">
        <ele>749.49</ele>
        <time>2017-10-07T11:36:09Z</time>
      </trkpt>
      <trkpt lat="37.9691564385" lon="-2.9131808225">
        <ele>749.00</ele>
        <time>2017-10-07T11:36:11Z</time>
      </trkpt>
      <trkpt lat="37.9691100027" lon="-2.9131665733">
        <ele>749.00</ele>
        <time>2017-10-07T11:36:12Z</time>
      </trkpt>
      <trkpt lat="37.9690613877" lon="-2.9131512344">
        <ele>749.00</ele>
        <time>2017-10-07T11:36:13Z</time>
      </trkpt>
      <trkpt lat="37.9689202365" lon="-2.9131257534">
        <ele>749.49</ele>
        <time>2017-10-07T11:36:16Z</time>
      </trkpt>
      <trkpt lat="37.9688748904" lon="-2.9131168686">
        <ele>749.49</ele>
        <time>2017-10-07T11:36:17Z</time>
      </trkpt>
      <trkpt lat="37.9684913345" lon="-2.9129899666">
        <ele>750.93</ele>
        <time>2017-10-07T11:36:27Z</time>
      </trkpt>
      <trkpt lat="37.9682316631" lon="-2.9127209075">
        <ele>752.37</ele>
        <time>2017-10-07T11:36:38Z</time>
      </trkpt>
      <trkpt lat="37.9680040106" lon="-2.9125053249">
        <ele>754.29</ele>
        <time>2017-10-07T11:36:47Z</time>
      </trkpt>
      <trkpt lat="37.9677811358" lon="-2.9123739805">
        <ele>755.73</ele>
        <time>2017-10-07T11:36:56Z</time>
      </trkpt>
      <trkpt lat="37.9674803093" lon="-2.9122148920">
        <ele>757.18</ele>
        <time>2017-10-07T11:37:05Z</time>
      </trkpt>
      <trkpt lat="37.9672918841" lon="-2.9121913388">
        <ele>758.62</ele>
        <time>2017-10-07T11:37:12Z</time>
      </trkpt>
      <trkpt lat="37.9670873657" lon="-2.9123069253">
        <ele>760.06</ele>
        <time>2017-10-07T11:37:19Z</time>
      </trkpt>
      <trkpt lat="37.9668903071" lon="-2.9125851206">
        <ele>761.98</ele>
        <time>2017-10-07T11:37:28Z</time>
      </trkpt>
      <trkpt lat="37.9667340685" lon="-2.9128438700">
        <ele>763.42</ele>
        <time>2017-10-07T11:37:39Z</time>
      </trkpt>
      <trkpt lat="37.9665373452" lon="-2.9129785672">
        <ele>764.87</ele>
        <time>2017-10-07T11:37:49Z</time>
      </trkpt>
      <trkpt lat="37.9665247723" lon="-2.9129856080">
        <ele>764.87</ele>
        <time>2017-10-07T11:37:50Z</time>
      </trkpt>
      <trkpt lat="37.9665101040" lon="-2.9129859433">
        <ele>764.87</ele>
        <time>2017-10-07T11:37:51Z</time>
      </trkpt>
      <trkpt lat="37.9664866347" lon="-2.9129837640">
        <ele>764.87</ele>
        <time>2017-10-07T11:37:52Z</time>
      </trkpt>
      <trkpt lat="37.9664601479" lon="-2.9129869491">
        <ele>765.35</ele>
        <time>2017-10-07T11:37:53Z</time>
      </trkpt>
      <trkpt lat="37.9664321523" lon="-2.9129863624">
        <ele>765.35</ele>
        <time>2017-10-07T11:37:54Z</time>
      </trkpt>
      <trkpt lat="37.9664045759" lon="-2.9129824229">
        <ele>765.35</ele>
        <time>2017-10-07T11:37:55Z</time>
      </trkpt>
      <trkpt lat="37.9661276378" lon="-2.9130405933">
        <ele>767.27</ele>
        <time>2017-10-07T11:38:06Z</time>
      </trkpt>
      <trkpt lat="37.9658993986" lon="-2.9132431000">
        <ele>768.71</ele>
        <time>2017-10-07T11:38:17Z</time>
      </trkpt>
      <trkpt lat="37.9656654596" lon="-2.9133977462">
        <ele>770.15</ele>
        <time>2017-10-07T11:38:27Z</time>
      </trkpt>
      <trkpt lat="37.9654497933" lon="-2.9135177750">
        <ele>771.60</ele>
        <time>2017-10-07T11:38:36Z</time>
      </trkpt>
      <trkpt lat="37.9652155191" lon="-2.9136472754">
        <ele>773.04</ele>
        <time>2017-10-07T11:38:46Z</time>
      </trkpt>
      <trkpt lat="37.9650447797" lon="-2.9137211200">
        <ele>774.00</ele>
        <time>2017-10-07T11:38:54Z</time>
      </trkpt>
      <trkpt lat="37.9647949990" lon="-2.9136005882">
        <ele>775.44</ele>
        <time>2017-10-07T11:39:05Z</time>
      </trkpt>
      <trkpt lat="37.9647214897" lon="-2.9135091417">
        <ele>776.40</ele>
        <time>2017-10-07T11:39:10Z</time>
      </trkpt>
      <trkpt lat="37.9644603096" lon="-2.9133882746">
        <ele>777.36</ele>
        <time>2017-10-07T11:39:22Z</time>
      </trkpt>
      <trkpt lat="37.9641943518" lon="-2.9134532344">
        <ele>779.29</ele>
        <time>2017-10-07T11:39:34Z</time>
      </trkpt>
      <trkpt lat="37.9640343413" lon="-2.9136398155">
        <ele>780.25</ele>
        <time>2017-10-07T11:39:43Z</time>
      </trkpt>
      <trkpt lat="37.9639301542" lon="-2.9139159154">
        <ele>781.69</ele>
        <time>2017-10-07T11:39:53Z</time>
      </trkpt>
      <trkpt lat="37.9638216924" lon="-2.9141854774">
        <ele>783.13</ele>
        <time>2017-10-07T11:40:03Z</time>
      </trkpt>
      <trkpt lat="37.9637040943" lon="-2.9145422950">
        <ele>784.57</ele>
        <time>2017-10-07T11:40:15Z</time>
      </trkpt>
      <trkpt lat="37.9635469336" lon="-2.9149177205">
        <ele>786.02</ele>
        <time>2017-10-07T11:40:28Z</time>
      </trkpt>
      <trkpt lat="37.9633602686" lon="-2.9151200596">
        <ele>787.46</ele>
        <time>2017-10-07T11:40:38Z</time>
      </trkpt>
      <trkpt lat="37.9633383919" lon="-2.9151286930">
        <ele>787.94</ele>
        <time>2017-10-07T11:40:39Z</time>
      </trkpt>
      <trkpt lat="37.9631019384" lon="-2.9152025376">
        <ele>788.42</ele>
        <time>2017-10-07T11:40:48Z</time>
      </trkpt>
      <trkpt lat="37.9628919717" lon="-2.9152832553">
        <ele>789.86</ele>
        <time>2017-10-07T11:40:57Z</time>
      </trkpt>
      <trkpt lat="37.9626344796" lon="-2.9153975006">
        <ele>791.30</ele>
        <time>2017-10-07T11:41:08Z</time>
      </trkpt>
      <trkpt lat="37.9623472318" lon="-2.9155394901">
        <ele>793.22</ele>
        <time>2017-10-07T11:41:20Z</time>
      </trkpt>
      <trkpt lat="37.9621230997" lon="-2.9156597704">
        <ele>795.15</ele>
        <time>2017-10-07T11:41:31Z</time>
      </trkpt>
      <trkpt lat="37.9619151447" lon="-2.9158562422">
        <ele>796.59</ele>
        <time>2017-10-07T11:41:41Z</time>
      </trkpt>
      <trkpt lat="37.9617808666" lon="-2.9161434900">
        <ele>798.03</ele>
        <time>2017-10-07T11:41:51Z</time>
      </trkpt>
      <trkpt lat="37.9615910165" lon="-2.9164026584">
        <ele>799.95</ele>
        <time>2017-10-07T11:42:02Z</time>
      </trkpt>
      <trkpt lat="37.9613852408" lon="-2.9165609926">
        <ele>800.92</ele>
        <time>2017-10-07T11:42:12Z</time>
      </trkpt>
      <trkpt lat="37.9610840790" lon="-2.9167180695">
        <ele>802.84</ele>
        <time>2017-10-07T11:42:24Z</time>
      </trkpt>
      <trkpt lat="37.9608487152" lon="-2.9168417025">
        <ele>804.28</ele>
        <time>2017-10-07T11:42:34Z</time>
      </trkpt>
      <trkpt lat="37.9605747946" lon="-2.9169745557">
        <ele>805.72</ele>
        <time>2017-10-07T11:42:45Z</time>
      </trkpt>
      <trkpt lat="37.9603311326" lon="-2.9170903936">
        <ele>805.72</ele>
        <time>2017-10-07T11:42:57Z</time>
      </trkpt>
      <trkpt lat="37.9600985348" lon="-2.9172306228">
        <ele>805.24</ele>
        <time>2017-10-07T11:43:07Z</time>
      </trkpt>
      <trkpt lat="37.9596481752" lon="-2.9174342193">
        <ele>804.28</ele>
        <time>2017-10-07T11:43:19Z</time>
      </trkpt>
      <trkpt lat="37.9592554830" lon="-2.9176301043">
        <ele>802.84</ele>
        <time>2017-10-07T11:43:28Z</time>
      </trkpt>
      <trkpt lat="37.9586287681" lon="-2.9179431684">
        <ele>801.88</ele>
        <time>2017-10-07T11:43:39Z</time>
      </trkpt>
      <trkpt lat="37.9581273627" lon="-2.9181999061">
        <ele>802.84</ele>
        <time>2017-10-07T11:43:49Z</time>
      </trkpt>
      <trkpt lat="37.9576494265" lon="-2.9184529558">
        <ele>803.32</ele>
        <time>2017-10-07T11:44:01Z</time>
      </trkpt>
      <trkpt lat="37.9573405534" lon="-2.9186064284">
        <ele>803.80</ele>
        <time>2017-10-07T11:44:10Z</time>
      </trkpt>
      <trkpt lat="37.9571572412" lon="-2.9187044967">
        <ele>803.32</ele>
        <time>2017-10-07T11:44:15Z</time>
      </trkpt>
      <trkpt lat="37.9571111407" lon="-2.9187266249">
        <ele>803.32</ele>
        <time>2017-10-07T11:44:16Z</time>
      </trkpt>
      <trkpt lat="37.9569716658" lon="-2.9187726416">
        <ele>803.32</ele>
        <time>2017-10-07T11:44:19Z</time>
      </trkpt>
      <trkpt lat="37.9569257330" lon="-2.9187796824">
        <ele>802.84</ele>
        <time>2017-10-07T11:44:20Z</time>
      </trkpt>
      <trkpt lat="37.9568777885" lon="-2.9187764972">
        <ele>802.84</ele>
        <time>2017-10-07T11:44:21Z</time>
      </trkpt>
      <trkpt lat="37.9568234738" lon="-2.9187579732">
        <ele>802.36</ele>
        <time>2017-10-07T11:44:22Z</time>
      </trkpt>
      <trkpt lat="37.9567641299" lon="-2.9187262058">
        <ele>801.40</ele>
        <time>2017-10-07T11:44:23Z</time>
      </trkpt>
      <trkpt lat="37.9567070492" lon="-2.9186851345">
        <ele>801.40</ele>
        <time>2017-10-07T11:44:24Z</time>
      </trkpt>
      <trkpt lat="37.9566436820" lon="-2.9186338373">
        <ele>800.92</ele>
        <time>2017-10-07T11:44:25Z</time>
      </trkpt>
      <trkpt lat="37.9564970825" lon="-2.9185368586">
        <ele>799.95</ele>
        <time>2017-10-07T11:44:27Z</time>
      </trkpt>
      <trkpt lat="37.9564134311" lon="-2.9185094498">
        <ele>799.47</ele>
        <time>2017-10-07T11:44:28Z</time>
      </trkpt>
      <trkpt lat="37.9563252535" lon="-2.9185067676">
        <ele>798.99</ele>
        <time>2017-10-07T11:44:29Z</time>
      </trkpt>
      <trkpt lat="37.9562444519" lon="-2.9185369425">
        <ele>798.51</ele>
        <time>2017-10-07T11:44:30Z</time>
      </trkpt>
      <trkpt lat="37.9561758880" lon="-2.9185910895">
        <ele>798.03</ele>
        <time>2017-10-07T11:44:31Z</time>
      </trkpt>
      <trkpt lat="37.9561084136" lon="-2.9186513554">
        <ele>798.51</ele>
        <time>2017-10-07T11:44:32Z</time>
      </trkpt>
      <trkpt lat="37.9556127917" lon="-2.9190843645">
        <ele>799.95</ele>
        <time>2017-10-07T11:44:41Z</time>
      </trkpt>
      <trkpt lat="37.9552175011" lon="-2.9193423595">
        <ele>800.92</ele>
        <time>2017-10-07T11:44:51Z</time>
      </trkpt>
      <trkpt lat="37.9549030121" lon="-2.9195363168">
        <ele>802.36</ele>
        <time>2017-10-07T11:45:01Z</time>
      </trkpt>
      <trkpt lat="37.9545296822" lon="-2.9197414219">
        <ele>803.80</ele>
        <time>2017-10-07T11:45:12Z</time>
      </trkpt>
      <trkpt lat="37.9542862717" lon="-2.9198678210">
        <ele>804.76</ele>
        <time>2017-10-07T11:45:20Z</time>
      </trkpt>
      <trkpt lat="37.9540366586" lon="-2.9200165998">
        <ele>805.72</ele>
        <time>2017-10-07T11:45:29Z</time>
      </trkpt>
      <trkpt lat="37.9537761491" lon="-2.9201625288">
        <ele>807.16</ele>
        <time>2017-10-07T11:45:38Z</time>
      </trkpt>
      <trkpt lat="37.9535100237" lon="-2.9203139059">
        <ele>808.61</ele>
        <time>2017-10-07T11:45:48Z</time>
      </trkpt>
      <trkpt lat="37.9533021525" lon="-2.9204360303">
        <ele>809.57</ele>
        <time>2017-10-07T11:45:56Z</time>
      </trkpt>
      <trkpt lat="37.9530488513" lon="-2.9205677938">
        <ele>811.01</ele>
        <time>2017-10-07T11:46:05Z</time>
      </trkpt>
      <trkpt lat="37.9527975619" lon="-2.9206375312">
        <ele>811.97</ele>
        <time>2017-10-07T11:46:13Z</time>
      </trkpt>
      <trkpt lat="37.9525109008" lon="-2.9206535406">
        <ele>812.45</ele>
        <time>2017-10-07T11:46:22Z</time>
      </trkpt>
      <trkpt lat="37.9521040432" lon="-2.9206854757">
        <ele>812.93</ele>
        <time>2017-10-07T11:46:33Z</time>
      </trkpt>
      <trkpt lat="37.9517431185" lon="-2.9206976295">
        <ele>813.89</ele>
        <time>2017-10-07T11:46:43Z</time>
      </trkpt>
      <trkpt lat="37.9514275398" lon="-2.9207126331">
        <ele>814.37</ele>
        <time>2017-10-07T11:46:52Z</time>
      </trkpt>
      <trkpt lat="37.9511080217" lon="-2.9207248706">
        <ele>814.85</ele>
        <time>2017-10-07T11:47:01Z</time>
      </trkpt>
      <trkpt lat="37.9510633461" lon="-2.9207312409">
        <ele>814.85</ele>
        <time>2017-10-07T11:47:02Z</time>
      </trkpt>
      <trkpt lat="37.9506358691" lon="-2.9207584821">
        <ele>815.82</ele>
        <time>2017-10-07T11:47:13Z</time>
      </trkpt>
      <trkpt lat="37.9503113218" lon="-2.9207829572">
        <ele>815.82</ele>
        <time>2017-10-07T11:47:23Z</time>
      </trkpt>
      <trkpt lat="37.9499443620" lon="-2.9207960330">
        <ele>815.34</ele>
        <time>2017-10-07T11:47:33Z</time>
      </trkpt>
      <trkpt lat="37.9494889732" lon="-2.9208182450">
        <ele>813.89</ele>
        <time>2017-10-07T11:47:44Z</time>
      </trkpt>
      <trkpt lat="37.9494028073" lon="-2.9208156466">
        <ele>813.89</ele>
        <time>2017-10-07T11:47:46Z</time>
      </trkpt>
      <trkpt lat="37.9488622583" lon="-2.9208304826">
        <ele>812.45</ele>
        <time>2017-10-07T11:47:57Z</time>
      </trkpt>
      <trkpt lat="37.9483697377" lon="-2.9208811093">
        <ele>812.45</ele>
        <time>2017-10-07T11:48:07Z</time>
      </trkpt>
      <trkpt lat="37.9480627924" lon="-2.9208928440">
        <ele>812.45</ele>
        <time>2017-10-07T11:48:16Z</time>
      </trkpt>
      <trkpt lat="37.9478779715" lon="-2.9209055845">
        <ele>812.45</ele>
        <time>2017-10-07T11:48:23Z</time>
      </trkpt>
      <trkpt lat="37.9474298749" lon="-2.9209295567">
        <ele>811.97</ele>
        <time>2017-10-07T11:48:34Z</time>
      </trkpt>
      <trkpt lat="37.9470505100" lon="-2.9209455661">
        <ele>811.01</ele>
        <time>2017-10-07T11:48:44Z</time>
      </trkpt>
      <trkpt lat="37.9470369313" lon="-2.9209453147">
        <ele>811.01</ele>
        <time>2017-10-07T11:48:52Z</time>
      </trkpt>
      <trkpt lat="37.9470365122" lon="-2.9209243599">
        <ele>811.01</ele>
        <time>2017-10-07T11:48:54Z</time>
      </trkpt>
      <trkpt lat="37.9470410384" lon="-2.9209106974">
        <ele>811.01</ele>
        <time>2017-10-07T11:48:55Z</time>
      </trkpt>
      <trkpt lat="37.9470501747" lon="-2.9209016450">
        <ele>811.01</ele>
        <time>2017-10-07T11:48:56Z</time>
      </trkpt>
      <trkpt lat="37.9470638372" lon="-2.9208987113">
        <ele>811.01</ele>
        <time>2017-10-07T11:48:57Z</time>
      </trkpt>
      <trkpt lat="37.9470794275" lon="-2.9208982922">
        <ele>811.01</ele>
        <time>2017-10-07T11:48:58Z</time>
      </trkpt>
      <trkpt lat="37.9472715408" lon="-2.9209045786">
        <ele>811.49</ele>
        <time>2017-10-07T11:49:13Z</time>
      </trkpt>
      <trkpt lat="37.9472917411" lon="-2.9208869766">
        <ele>811.49</ele>
        <time>2017-10-07T11:49:15Z</time>
      </trkpt>
      <trkpt lat="37.9473126121" lon="-2.9208669439">
        <ele>811.49</ele>
        <time>2017-10-07T11:49:17Z</time>
      </trkpt>
      <trkpt lat="37.9473469779" lon="-2.9208562989">
        <ele>811.97</ele>
        <time>2017-10-07T11:49:28Z</time>
      </trkpt>
      <trkpt lat="37.9473634902" lon="-2.9208390322">
        <ele>811.97</ele>
        <time>2017-10-07T11:49:41Z</time>
      </trkpt>
      <trkpt lat="37.9473327287" lon="-2.9208238609">
        <ele>811.97</ele>
        <time>2017-10-07T11:50:03Z</time>
      </trkpt>
      <trkpt lat="37.9473316390" lon="-2.9208414629">
        <ele>811.97</ele>
        <time>2017-10-07T11:50:28Z</time>
      </trkpt>
      <trkpt lat="37.9473286215" lon="-2.9208406247">
        <ele>811.97</ele>
        <time>2017-10-07T11:50:48Z</time>
      </trkpt>
      <trkpt lat="37.9473333154" lon="-2.9208480846">
        <ele>811.49</ele>
        <time>2017-10-07T11:51:09Z</time>
      </trkpt>
      <trkpt lat="37.9473422840" lon="-2.9208440613">
        <ele>811.97</ele>
        <time>2017-10-07T11:51:33Z</time>
      </trkpt>
      <trkpt lat="37.9473417811" lon="-2.9208400380">
        <ele>811.97</ele>
        <time>2017-10-07T11:51:59Z</time>
      </trkpt>
      <trkpt lat="37.9473462235" lon="-2.9208442289">
        <ele>811.97</ele>
        <time>2017-10-07T11:52:23Z</time>
      </trkpt>
      <trkpt lat="37.9473509174" lon="-2.9208513536">
        <ele>811.49</ele>
        <time>2017-10-07T11:52:48Z</time>
      </trkpt>
      <trkpt lat="37.9473519232" lon="-2.9208409600">
        <ele>811.97</ele>
        <time>2017-10-07T11:53:05Z</time>
      </trkpt>
      <trkpt lat="37.9473470617" lon="-2.9208329972">
        <ele>811.49</ele>
        <time>2017-10-07T11:53:28Z</time>
      </trkpt>
      <trkpt lat="37.9473544378" lon="-2.9208328295">
        <ele>811.49</ele>
        <time>2017-10-07T11:53:46Z</time>
      </trkpt>
      <trkpt lat="37.9473635741" lon="-2.9208456539">
        <ele>811.49</ele>
        <time>2017-10-07T11:54:06Z</time>
      </trkpt>
      <trkpt lat="37.9473629873" lon="-2.9208428878">
        <ele>811.97</ele>
        <time>2017-10-07T11:54:20Z</time>
      </trkpt>
      <trkpt lat="37.9473551922" lon="-2.9208402056">
        <ele>811.97</ele>
        <time>2017-10-07T11:54:37Z</time>
      </trkpt>
      <trkpt lat="37.9473484028" lon="-2.9208397027">
        <ele>811.97</ele>
        <time>2017-10-07T11:54:55Z</time>
      </trkpt>
      <trkpt lat="37.9473568685" lon="-2.9208644293">
        <ele>811.49</ele>
        <time>2017-10-07T11:55:03Z</time>
      </trkpt>
      <trkpt lat="37.9473508336" lon="-2.9208805226">
        <ele>811.49</ele>
        <time>2017-10-07T11:55:04Z</time>
      </trkpt>
      <trkpt lat="37.9473380931" lon="-2.9208930116">
        <ele>811.49</ele>
        <time>2017-10-07T11:55:05Z</time>
      </trkpt>
      <trkpt lat="37.9473185632" lon="-2.9209059197">
        <ele>811.49</ele>
        <time>2017-10-07T11:55:06Z</time>
      </trkpt>
      <trkpt lat="37.9472991172" lon="-2.9209123738">
        <ele>811.49</ele>
        <time>2017-10-07T11:55:07Z</time>
      </trkpt>
      <trkpt lat="37.9472763184" lon="-2.9209118709">
        <ele>811.49</ele>
        <time>2017-10-07T11:55:08Z</time>
      </trkpt>
      <trkpt lat="37.9470531084" lon="-2.9209339991">
        <ele>811.01</ele>
        <time>2017-10-07T11:55:16Z</time>
      </trkpt>
      <trkpt lat="37.9467109591" lon="-2.9209403694">
        <ele>810.53</ele>
        <time>2017-10-07T11:55:26Z</time>
      </trkpt>
      <trkpt lat="37.9465961270" lon="-2.9208958615">
        <ele>810.05</ele>
        <time>2017-10-07T11:55:29Z</time>
      </trkpt>
      <trkpt lat="37.9465637729" lon="-2.9208718054">
        <ele>810.05</ele>
        <time>2017-10-07T11:55:30Z</time>
      </trkpt>
      <trkpt lat="37.9465311673" lon="-2.9208433907">
        <ele>810.05</ele>
        <time>2017-10-07T11:55:31Z</time>
      </trkpt>
      <trkpt lat="37.9464996513" lon="-2.9208098631">
        <ele>810.05</ele>
        <time>2017-10-07T11:55:32Z</time>
      </trkpt>
      <trkpt lat="37.9464693926" lon="-2.9207739048">
        <ele>809.57</ele>
        <time>2017-10-07T11:55:33Z</time>
      </trkpt>
      <trkpt lat="37.9464026727" lon="-2.9207091127">
        <ele>809.57</ele>
        <time>2017-10-07T11:55:35Z</time>
      </trkpt>
      <trkpt lat="37.9463683069" lon="-2.9206755012">
        <ele>809.57</ele>
        <time>2017-10-07T11:55:36Z</time>
      </trkpt>
      <trkpt lat="37.9463307559" lon="-2.9206514452">
        <ele>809.09</ele>
        <time>2017-10-07T11:55:37Z</time>
      </trkpt>
      <trkpt lat="37.9462906066" lon="-2.9206315801">
        <ele>809.09</ele>
        <time>2017-10-07T11:55:38Z</time>
      </trkpt>
      <trkpt lat="37.9462505411" lon="-2.9206066858">
        <ele>809.09</ele>
        <time>2017-10-07T11:55:39Z</time>
      </trkpt>
      <trkpt lat="37.9462137446" lon="-2.9205789417">
        <ele>809.09</ele>
        <time>2017-10-07T11:55:40Z</time>
      </trkpt>
      <trkpt lat="37.9461765289" lon="-2.9205579031">
        <ele>809.09</ele>
        <time>2017-10-07T11:55:41Z</time>
      </trkpt>
      <trkpt lat="37.9461357929" lon="-2.9205441568">
        <ele>809.09</ele>
        <time>2017-10-07T11:55:42Z</time>
      </trkpt>
      <trkpt lat="37.9460921232" lon="-2.9205364455">
        <ele>809.09</ele>
        <time>2017-10-07T11:55:43Z</time>
      </trkpt>
      <trkpt lat="37.9457909614" lon="-2.9205283150">
        <ele>809.09</ele>
        <time>2017-10-07T11:55:50Z</time>
      </trkpt>
      <trkpt lat="37.9456115887" lon="-2.9205528740">
        <ele>808.61</ele>
        <time>2017-10-07T11:55:54Z</time>
      </trkpt>
      <trkpt lat="37.9455690086" lon="-2.9205636028">
        <ele>809.09</ele>
        <time>2017-10-07T11:55:55Z</time>
      </trkpt>
      <trkpt lat="37.9455293622" lon="-2.9205793608">
        <ele>809.09</ele>
        <time>2017-10-07T11:55:56Z</time>
      </trkpt>
      <trkpt lat="37.9454921465" lon="-2.9206026625">
        <ele>809.09</ele>
        <time>2017-10-07T11:55:57Z</time>
      </trkpt>
      <trkpt lat="37.9454554338" lon="-2.9206299875">
        <ele>808.61</ele>
        <time>2017-10-07T11:55:58Z</time>
      </trkpt>
      <trkpt lat="37.9449578840" lon="-2.9210154712">
        <ele>809.09</ele>
        <time>2017-10-07T11:56:12Z</time>
      </trkpt>
      <trkpt lat="37.9448526911" lon="-2.9211048223">
        <ele>809.09</ele>
        <time>2017-10-07T11:56:15Z</time>
      </trkpt>
      <trkpt lat="37.9448203370" lon="-2.9211391043">
        <ele>809.57</ele>
        <time>2017-10-07T11:56:16Z</time>
      </trkpt>
      <trkpt lat="37.9447904136" lon="-2.9211759008">
        <ele>809.57</ele>
        <time>2017-10-07T11:56:17Z</time>
      </trkpt>
      <trkpt lat="37.9447624180" lon="-2.9212182295">
        <ele>809.57</ele>
        <time>2017-10-07T11:56:18Z</time>
      </trkpt>
      <trkpt lat="37.9447406251" lon="-2.9212634917">
        <ele>809.57</ele>
        <time>2017-10-07T11:56:19Z</time>
      </trkpt>
      <trkpt lat="37.9447241127" lon="-2.9213111009">
        <ele>809.57</ele>
        <time>2017-10-07T11:56:20Z</time>
      </trkpt>
      <trkpt lat="37.9447162338" lon="-2.9213631526">
        <ele>809.57</ele>
        <time>2017-10-07T11:56:21Z</time>
      </trkpt>
      <trkpt lat="37.9447135516" lon="-2.9214175511">
        <ele>809.57</ele>
        <time>2017-10-07T11:56:22Z</time>
      </trkpt>
      <trkpt lat="37.9447144736" lon="-2.9214728717">
        <ele>809.09</ele>
        <time>2017-10-07T11:56:23Z</time>
      </trkpt>
      <trkpt lat="37.9447224364" lon="-2.9215276055">
        <ele>809.57</ele>
        <time>2017-10-07T11:56:24Z</time>
      </trkpt>
      <trkpt lat="37.9447343387" lon="-2.9215792380">
        <ele>809.57</ele>
        <time>2017-10-07T11:56:25Z</time>
      </trkpt>
      <trkpt lat="37.9447465762" lon="-2.9216309544">
        <ele>809.57</ele>
        <time>2017-10-07T11:56:26Z</time>
      </trkpt>
      <trkpt lat="37.9447556287" lon="-2.9216819163">
        <ele>809.57</ele>
        <time>2017-10-07T11:56:27Z</time>
      </trkpt>
      <trkpt lat="37.9448360950" lon="-2.9220606107">
        <ele>809.57</ele>
        <time>2017-10-07T11:56:34Z</time>
      </trkpt>
      <trkpt lat="37.9448567983" lon="-2.9222294223">
        <ele>809.57</ele>
        <time>2017-10-07T11:56:37Z</time>
      </trkpt>
      <trkpt lat="37.9448588099" lon="-2.9222873412">
        <ele>809.57</ele>
        <time>2017-10-07T11:56:38Z</time>
      </trkpt>
      <trkpt lat="37.9448485002" lon="-2.9224644508">
        <ele>809.57</ele>
        <time>2017-10-07T11:56:41Z</time>
      </trkpt>
      <trkpt lat="37.9448038246" lon="-2.9228179995">
        <ele>809.57</ele>
        <time>2017-10-07T11:56:47Z</time>
      </trkpt>
      <trkpt lat="37.9447893240" lon="-2.9228692967">
        <ele>809.57</ele>
        <time>2017-10-07T11:56:48Z</time>
      </trkpt>
      <trkpt lat="37.9447152279" lon="-2.9230848793">
        <ele>809.57</ele>
        <time>2017-10-07T11:56:52Z</time>
      </trkpt>
      <trkpt lat="37.9445251264" lon="-2.9234078340">
        <ele>809.57</ele>
        <time>2017-10-07T11:56:59Z</time>
      </trkpt>
      <trkpt lat="37.9444612563" lon="-2.9234857857">
        <ele>809.09</ele>
        <time>2017-10-07T11:57:01Z</time>
      </trkpt>
      <trkpt lat="37.9443136510" lon="-2.9237378296">
        <ele>809.09</ele>
        <time>2017-10-07T11:57:07Z</time>
      </trkpt>
      <trkpt lat="37.9443020839" lon="-2.9237899650">
        <ele>809.09</ele>
        <time>2017-10-07T11:57:08Z</time>
      </trkpt>
      <trkpt lat="37.9442900978" lon="-2.9238407593">
        <ele>809.09</ele>
        <time>2017-10-07T11:57:09Z</time>
      </trkpt>
      <trkpt lat="37.9442797042" lon="-2.9238908831">
        <ele>809.09</ele>
        <time>2017-10-07T11:57:10Z</time>
      </trkpt>
      <trkpt lat="37.9442705680" lon="-2.9239436053">
        <ele>809.09</ele>
        <time>2017-10-07T11:57:11Z</time>
      </trkpt>
      <trkpt lat="37.9441813007" lon="-2.9242541548">
        <ele>809.09</ele>
        <time>2017-10-07T11:57:17Z</time>
      </trkpt>
      <trkpt lat="37.9441160057" lon="-2.9243996646">
        <ele>809.09</ele>
        <time>2017-10-07T11:57:20Z</time>
      </trkpt>
      <trkpt lat="37.9437477048" lon="-2.9250014015">
        <ele>809.09</ele>
        <time>2017-10-07T11:57:33Z</time>
      </trkpt>
      <trkpt lat="37.9435052164" lon="-2.9252712987">
        <ele>809.09</ele>
        <time>2017-10-07T11:57:40Z</time>
      </trkpt>
      <trkpt lat="37.9430069122" lon="-2.9255448002">
        <ele>809.09</ele>
        <time>2017-10-07T11:57:52Z</time>
      </trkpt>
      <trkpt lat="37.9428753164" lon="-2.9256120231">
        <ele>808.61</ele>
        <time>2017-10-07T11:57:55Z</time>
      </trkpt>
      <trkpt lat="37.9426614102" lon="-2.9256995302">
        <ele>809.09</ele>
        <time>2017-10-07T11:58:00Z</time>
      </trkpt>
      <trkpt lat="37.9425716400" lon="-2.9257377516">
        <ele>808.61</ele>
        <time>2017-10-07T11:58:02Z</time>
      </trkpt>
      <trkpt lat="37.9423405509" lon="-2.9257790744">
        <ele>808.61</ele>
        <time>2017-10-07T11:58:07Z</time>
      </trkpt>
      <trkpt lat="37.9422958754" lon="-2.9257859476">
        <ele>808.61</ele>
        <time>2017-10-07T11:58:08Z</time>
      </trkpt>
      <trkpt lat="37.9422493558" lon="-2.9257986881">
        <ele>809.09</ele>
        <time>2017-10-07T11:58:09Z</time>
      </trkpt>
      <trkpt lat="37.9422040936" lon="-2.9258071538">
        <ele>809.09</ele>
        <time>2017-10-07T11:58:10Z</time>
      </trkpt>
      <trkpt lat="37.9421595018" lon="-2.9258136917">
        <ele>809.09</ele>
        <time>2017-10-07T11:58:11Z</time>
      </trkpt>
      <trkpt lat="37.9421134014" lon="-2.9258220736">
        <ele>809.09</ele>
        <time>2017-10-07T11:58:12Z</time>
      </trkpt>
      <trkpt lat="37.9419223778" lon="-2.9258752149">
        <ele>808.61</ele>
        <time>2017-10-07T11:58:16Z</time>
      </trkpt>
      <trkpt lat="37.9418800492" lon="-2.9258989356">
        <ele>808.61</ele>
        <time>2017-10-07T11:58:17Z</time>
      </trkpt>
      <trkpt lat="37.9414758738" lon="-2.9261041246">
        <ele>809.09</ele>
        <time>2017-10-07T11:58:26Z</time>
      </trkpt>
      <trkpt lat="37.9412023723" lon="-2.9261819087">
        <ele>809.09</ele>
        <time>2017-10-07T11:58:32Z</time>
      </trkpt>
      <trkpt lat="37.9411545116" lon="-2.9261803161">
        <ele>809.57</ele>
        <time>2017-10-07T11:58:33Z</time>
      </trkpt>
      <trkpt lat="37.9411096685" lon="-2.9261797294">
        <ele>809.57</ele>
        <time>2017-10-07T11:58:34Z</time>
      </trkpt>
      <trkpt lat="37.9407588020" lon="-2.9261407536">
        <ele>809.57</ele>
        <time>2017-10-07T11:58:42Z</time>
      </trkpt>
      <trkpt lat="37.9403930157" lon="-2.9261205532">
        <ele>809.57</ele>
        <time>2017-10-07T11:58:50Z</time>
      </trkpt>
      <trkpt lat="37.9403467476" lon="-2.9261262529">
        <ele>809.57</ele>
        <time>2017-10-07T11:58:51Z</time>
      </trkpt>
      <trkpt lat="37.9400197696" lon="-2.9261964094">
        <ele>809.09</ele>
        <time>2017-10-07T11:58:58Z</time>
      </trkpt>
      <trkpt lat="37.9396875110" lon="-2.9263196234">
        <ele>809.09</ele>
        <time>2017-10-07T11:59:05Z</time>
      </trkpt>
      <trkpt lat="37.9396479484" lon="-2.9263483733">
        <ele>809.09</ele>
        <time>2017-10-07T11:59:06Z</time>
      </trkpt>
      <trkpt lat="37.9396078829" lon="-2.9263834096">
        <ele>809.09</ele>
        <time>2017-10-07T11:59:07Z</time>
      </trkpt>
      <trkpt lat="37.9395311885" lon="-2.9264678154">
        <ele>809.09</ele>
        <time>2017-10-07T11:59:09Z</time>
      </trkpt>
      <trkpt lat="37.9395003431" lon="-2.9265108984">
        <ele>809.09</ele>
        <time>2017-10-07T11:59:10Z</time>
      </trkpt>
      <trkpt lat="37.9392667394" lon="-2.9269645270">
        <ele>809.09</ele>
        <time>2017-10-07T11:59:19Z</time>
      </trkpt>
      <trkpt lat="37.9392410070" lon="-2.9270187579">
        <ele>809.09</ele>
        <time>2017-10-07T11:59:20Z</time>
      </trkpt>
      <trkpt lat="37.9392117541" lon="-2.9270686302">
        <ele>808.61</ele>
        <time>2017-10-07T11:59:21Z</time>
      </trkpt>
      <trkpt lat="37.9391825013" lon="-2.9271156527">
        <ele>808.61</ele>
        <time>2017-10-07T11:59:22Z</time>
      </trkpt>
      <trkpt lat="37.9391541705" lon="-2.9271656927">
        <ele>809.09</ele>
        <time>2017-10-07T11:59:23Z</time>
      </trkpt>
      <trkpt lat="37.9391287733" lon="-2.9272159003">
        <ele>809.09</ele>
        <time>2017-10-07T11:59:24Z</time>
      </trkpt>
      <trkpt lat="37.9390782304" lon="-2.9273063410">
        <ele>809.09</ele>
        <time>2017-10-07T11:59:26Z</time>
      </trkpt>
      <trkpt lat="37.9390517436" lon="-2.9273516033">
        <ele>809.09</ele>
        <time>2017-10-07T11:59:27Z</time>
      </trkpt>
      <trkpt lat="37.9389180522" lon="-2.9275812674">
        <ele>809.57</ele>
        <time>2017-10-07T11:59:32Z</time>
      </trkpt>
      <trkpt lat="37.9388595466" lon="-2.9276717920">
        <ele>809.09</ele>
        <time>2017-10-07T11:59:34Z</time>
      </trkpt>
      <trkpt lat="37.9388095904" lon="-2.9277609754">
        <ele>809.09</ele>
        <time>2017-10-07T11:59:36Z</time>
      </trkpt>
      <trkpt lat="37.9387845285" lon="-2.9278098419">
        <ele>809.57</ele>
        <time>2017-10-07T11:59:37Z</time>
      </trkpt>
      <trkpt lat="37.9385070875" lon="-2.9282957409">
        <ele>809.09</ele>
        <time>2017-10-07T11:59:47Z</time>
      </trkpt>
      <trkpt lat="37.9382233601" lon="-2.9287455138">
        <ele>809.57</ele>
        <time>2017-10-07T11:59:57Z</time>
      </trkpt>
      <trkpt lat="37.9380568955" lon="-2.9289836437">
        <ele>809.57</ele>
        <time>2017-10-07T12:00:02Z</time>
      </trkpt>
      <trkpt lat="37.9379008245" lon="-2.9291201010">
        <ele>810.05</ele>
        <time>2017-10-07T12:00:06Z</time>
      </trkpt>
      <trkpt lat="37.9378117248" lon="-2.9291630164">
        <ele>809.57</ele>
        <time>2017-10-07T12:00:08Z</time>
      </trkpt>
      <trkpt lat="37.9374533985" lon="-2.9292721488">
        <ele>809.57</ele>
        <time>2017-10-07T12:00:16Z</time>
      </trkpt>
      <trkpt lat="37.9373076372" lon="-2.9292779323">
        <ele>809.57</ele>
        <time>2017-10-07T12:00:19Z</time>
      </trkpt>
      <trkpt lat="37.9372586869" lon="-2.9292784352">
        <ele>809.57</ele>
        <time>2017-10-07T12:00:20Z</time>
      </trkpt>
      <trkpt lat="37.9371032026" lon="-2.9292899184">
        <ele>809.57</ele>
        <time>2017-10-07T12:00:23Z</time>
      </trkpt>
      <trkpt lat="37.9370526597" lon="-2.9292951152">
        <ele>809.57</ele>
        <time>2017-10-07T12:00:24Z</time>
      </trkpt>
      <trkpt lat="37.9366796650" lon="-2.9292501044">
        <ele>809.57</ele>
        <time>2017-10-07T12:00:32Z</time>
      </trkpt>
      <trkpt lat="37.9363789223" lon="-2.9292090330">
        <ele>809.57</ele>
        <time>2017-10-07T12:00:38Z</time>
      </trkpt>
      <trkpt lat="37.9363287985" lon="-2.9291986395">
        <ele>809.57</ele>
        <time>2017-10-07T12:00:39Z</time>
      </trkpt>
      <trkpt lat="37.9362743162" lon="-2.9291973822">
        <ele>809.57</ele>
        <time>2017-10-07T12:00:40Z</time>
      </trkpt>
      <trkpt lat="37.9362200014" lon="-2.9291968793">
        <ele>809.57</ele>
        <time>2017-10-07T12:00:41Z</time>
      </trkpt>
      <trkpt lat="37.9361656029" lon="-2.9291897546">
        <ele>809.57</ele>
        <time>2017-10-07T12:00:42Z</time>
      </trkpt>
      <trkpt lat="37.9356450029" lon="-2.9290939495">
        <ele>809.09</ele>
        <time>2017-10-07T12:00:53Z</time>
      </trkpt>
      <trkpt lat="37.9355949629" lon="-2.9290867411">
        <ele>809.09</ele>
        <time>2017-10-07T12:00:54Z</time>
      </trkpt>
      <trkpt lat="37.9355461802" lon="-2.9290890042">
        <ele>809.09</ele>
        <time>2017-10-07T12:00:55Z</time>
      </trkpt>
      <trkpt lat="37.9353637900" lon="-2.9291045945">
        <ele>809.09</ele>
        <time>2017-10-07T12:00:59Z</time>
      </trkpt>
      <trkpt lat="37.9353217967" lon="-2.9291046783">
        <ele>809.57</ele>
        <time>2017-10-07T12:01:00Z</time>
      </trkpt>
      <trkpt lat="37.9352760315" lon="-2.9291128088">
        <ele>809.57</ele>
        <time>2017-10-07T12:01:01Z</time>
      </trkpt>
      <trkpt lat="37.9352284223" lon="-2.9291240405">
        <ele>809.09</ele>
        <time>2017-10-07T12:01:02Z</time>
      </trkpt>
      <trkpt lat="37.9351810645" lon="-2.9291360267">
        <ele>809.09</ele>
        <time>2017-10-07T12:01:03Z</time>
      </trkpt>
      <trkpt lat="37.9351305217" lon="-2.9291496053">
        <ele>809.09</ele>
        <time>2017-10-07T12:01:04Z</time>
      </trkpt>
      <trkpt lat="37.9350756202" lon="-2.9291701410">
        <ele>809.09</ele>
        <time>2017-10-07T12:01:05Z</time>
      </trkpt>
      <trkpt lat="37.9350296874" lon="-2.9291972984">
        <ele>809.09</ele>
        <time>2017-10-07T12:01:06Z</time>
      </trkpt>
      <trkpt lat="37.9347175453" lon="-2.9293345939">
        <ele>809.09</ele>
        <time>2017-10-07T12:01:13Z</time>
      </trkpt>
      <trkpt lat="37.9346064851" lon="-2.9293503519">
        <ele>809.57</ele>
        <time>2017-10-07T12:01:15Z</time>
      </trkpt>
      <trkpt lat="37.9342360888" lon="-2.9293144774">
        <ele>809.57</ele>
        <time>2017-10-07T12:01:22Z</time>
      </trkpt>
      <trkpt lat="37.9339910019" lon="-2.9291844741">
        <ele>809.09</ele>
        <time>2017-10-07T12:01:27Z</time>
      </trkpt>
      <trkpt lat="37.9339418001" lon="-2.9291603342">
        <ele>809.09</ele>
        <time>2017-10-07T12:01:28Z</time>
      </trkpt>
      <trkpt lat="37.9337523691" lon="-2.9290736653">
        <ele>809.09</ele>
        <time>2017-10-07T12:01:32Z</time>
      </trkpt>
      <trkpt lat="37.9337011557" lon="-2.9290572368">
        <ele>809.09</ele>
        <time>2017-10-07T12:01:33Z</time>
      </trkpt>
      <trkpt lat="37.9336491879" lon="-2.9290379584">
        <ele>809.09</ele>
        <time>2017-10-07T12:01:34Z</time>
      </trkpt>
      <trkpt lat="37.9334965535" lon="-2.9289874155">
        <ele>809.09</ele>
        <time>2017-10-07T12:01:37Z</time>
      </trkpt>
      <trkpt lat="37.9334453400" lon="-2.9289771896">
        <ele>809.09</ele>
        <time>2017-10-07T12:01:38Z</time>
      </trkpt>
      <trkpt lat="37.9333005846" lon="-2.9289568216">
        <ele>809.57</ele>
        <time>2017-10-07T12:01:41Z</time>
      </trkpt>
      <trkpt lat="37.9330829903" lon="-2.9289755132">
        <ele>810.05</ele>
        <time>2017-10-07T12:01:46Z</time>
      </trkpt>
      <trkpt lat="37.9330390692" lon="-2.9289860744">
        <ele>810.05</ele>
        <time>2017-10-07T12:01:47Z</time>
      </trkpt>
      <trkpt lat="37.9329959862" lon="-2.9289938696">
        <ele>810.05</ele>
        <time>2017-10-07T12:01:48Z</time>
      </trkpt>
      <trkpt lat="37.9326651525" lon="-2.9289729986">
        <ele>810.53</ele>
        <time>2017-10-07T12:01:56Z</time>
      </trkpt>
      <trkpt lat="37.9326235782" lon="-2.9289587494">
        <ele>810.53</ele>
        <time>2017-10-07T12:01:57Z</time>
      </trkpt>
      <trkpt lat="37.9325840157" lon="-2.9289461765">
        <ele>810.53</ele>
        <time>2017-10-07T12:01:58Z</time>
      </trkpt>
      <trkpt lat="37.9325032141" lon="-2.9289212823">
        <ele>810.53</ele>
        <time>2017-10-07T12:02:00Z</time>
      </trkpt>
      <trkpt lat="37.9324633162" lon="-2.9289154150">
        <ele>811.01</ele>
        <time>2017-10-07T12:02:01Z</time>
      </trkpt>
      <trkpt lat="37.9322929960" lon="-2.9288674705">
        <ele>811.01</ele>
        <time>2017-10-07T12:02:05Z</time>
      </trkpt>
      <trkpt lat="37.9322530143" lon="-2.9288452584">
        <ele>811.01</ele>
        <time>2017-10-07T12:02:06Z</time>
      </trkpt>
      <trkpt lat="37.9322163854" lon="-2.9288146645">
        <ele>811.01</ele>
        <time>2017-10-07T12:02:07Z</time>
      </trkpt>
      <trkpt lat="37.9320770781" lon="-2.9286554083">
        <ele>811.01</ele>
        <time>2017-10-07T12:02:11Z</time>
      </trkpt>
      <trkpt lat="37.9318454862" lon="-2.9283763748">
        <ele>811.49</ele>
        <time>2017-10-07T12:02:20Z</time>
      </trkpt>
      <trkpt lat="37.9315933585" lon="-2.9282783065">
        <ele>811.49</ele>
        <time>2017-10-07T12:02:27Z</time>
      </trkpt>
      <trkpt lat="37.9315529577" lon="-2.9282615427">
        <ele>811.49</ele>
        <time>2017-10-07T12:02:28Z</time>
      </trkpt>
      <trkpt lat="37.9312160052" lon="-2.9281334672">
        <ele>811.49</ele>
        <time>2017-10-07T12:02:36Z</time>
      </trkpt>
      <trkpt lat="37.9310392309" lon="-2.9281078186">
        <ele>811.01</ele>
        <time>2017-10-07T12:02:40Z</time>
      </trkpt>
      <trkpt lat="37.9309879337" lon="-2.9281160329">
        <ele>811.49</ele>
        <time>2017-10-07T12:02:41Z</time>
      </trkpt>
      <trkpt lat="37.9309363849" lon="-2.9281348083">
        <ele>811.01</ele>
        <time>2017-10-07T12:02:42Z</time>
      </trkpt>
      <trkpt lat="37.9308907036" lon="-2.9281538352">
        <ele>811.01</ele>
        <time>2017-10-07T12:02:43Z</time>
      </trkpt>
      <trkpt lat="37.9308526497" lon="-2.9281757958">
        <ele>811.49</ele>
        <time>2017-10-07T12:02:44Z</time>
      </trkpt>
      <trkpt lat="37.9306211416" lon="-2.9283591919">
        <ele>811.49</ele>
        <time>2017-10-07T12:02:49Z</time>
      </trkpt>
      <trkpt lat="37.9304472171" lon="-2.9286521394">
        <ele>812.93</ele>
        <time>2017-10-07T12:02:57Z</time>
      </trkpt>
      <trkpt lat="37.9304540902" lon="-2.9289683886">
        <ele>815.34</ele>
        <time>2017-10-07T12:03:05Z</time>
      </trkpt>
      <trkpt lat="37.9304710217" lon="-2.9292749148">
        <ele>816.78</ele>
        <time>2017-10-07T12:03:13Z</time>
      </trkpt>
      <trkpt lat="37.9304957483" lon="-2.9294609930">
        <ele>817.74</ele>
        <time>2017-10-07T12:03:21Z</time>
      </trkpt>
      <trkpt lat="37.9305132665" lon="-2.9294863902">
        <ele>817.74</ele>
        <time>2017-10-07T12:03:22Z</time>
      </trkpt>
      <trkpt lat="37.9305295274" lon="-2.9295084346">
        <ele>817.74</ele>
        <time>2017-10-07T12:03:23Z</time>
      </trkpt>
      <trkpt lat="37.9305934813" lon="-2.9296106100">
        <ele>818.70</ele>
        <time>2017-10-07T12:03:27Z</time>
      </trkpt>
      <trkpt lat="37.9306087364" lon="-2.9296340793">
        <ele>818.22</ele>
        <time>2017-10-07T12:03:28Z</time>
      </trkpt>
      <trkpt lat="37.9306271765" lon="-2.9296521004">
        <ele>818.70</ele>
        <time>2017-10-07T12:03:29Z</time>
      </trkpt>
      <trkpt lat="37.9306472931" lon="-2.9296680260">
        <ele>818.70</ele>
        <time>2017-10-07T12:03:30Z</time>
      </trkpt>
      <trkpt lat="37.9306717683" lon="-2.9296883103">
        <ele>819.18</ele>
        <time>2017-10-07T12:03:31Z</time>
      </trkpt>
      <trkpt lat="37.9306985904" lon="-2.9297096841">
        <ele>819.18</ele>
        <time>2017-10-07T12:03:32Z</time>
      </trkpt>
      <trkpt lat="37.9307259154" lon="-2.9297279567">
        <ele>819.18</ele>
        <time>2017-10-07T12:03:33Z</time>
      </trkpt>
      <trkpt lat="37.9307506420" lon="-2.9297445528">
        <ele>819.18</ele>
        <time>2017-10-07T12:03:34Z</time>
      </trkpt>
      <trkpt lat="37.9307695851" lon="-2.9297594726">
        <ele>819.18</ele>
        <time>2017-10-07T12:03:35Z</time>
      </trkpt>
      <trkpt lat="37.9307866842" lon="-2.9297770746">
        <ele>819.18</ele>
        <time>2017-10-07T12:03:36Z</time>
      </trkpt>
      <trkpt lat="37.9308054596" lon="-2.9297945090">
        <ele>819.66</ele>
        <time>2017-10-07T12:03:37Z</time>
      </trkpt>
      <trkpt lat="37.9308229778" lon="-2.9298111890">
        <ele>819.66</ele>
        <time>2017-10-07T12:03:38Z</time>
      </trkpt>
      <trkpt lat="37.9308417533" lon="-2.9298284557">
        <ele>819.66</ele>
        <time>2017-10-07T12:03:39Z</time>
      </trkpt>
      <trkpt lat="37.9310360458" lon="-2.9299786594">
        <ele>820.62</ele>
        <time>2017-10-07T12:03:48Z</time>
      </trkpt>
      <trkpt lat="37.9311894346" lon="-2.9301566072">
        <ele>821.58</ele>
        <time>2017-10-07T12:03:56Z</time>
      </trkpt>
      <trkpt lat="37.9312162567" lon="-2.9302186333">
        <ele>822.06</ele>
        <time>2017-10-07T12:03:59Z</time>
      </trkpt>
      <trkpt lat="37.9312202800" lon="-2.9302467965">
        <ele>822.55</ele>
        <time>2017-10-07T12:04:00Z</time>
      </trkpt>
      <trkpt lat="37.9312299192" lon="-2.9305495508">
        <ele>823.51</ele>
        <time>2017-10-07T12:04:09Z</time>
      </trkpt>
      <trkpt lat="37.9310822301" lon="-2.9308047798">
        <ele>823.99</ele>
        <time>2017-10-07T12:04:18Z</time>
      </trkpt>
      <trkpt lat="37.9307879414" lon="-2.9308751877">
        <ele>824.95</ele>
        <time>2017-10-07T12:04:27Z</time>
      </trkpt>
      <trkpt lat="37.9306975845" lon="-2.9308518860">
        <ele>824.95</ele>
        <time>2017-10-07T12:04:30Z</time>
      </trkpt>
      <trkpt lat="37.9306772165" lon="-2.9308363795">
        <ele>824.95</ele>
        <time>2017-10-07T12:04:31Z</time>
      </trkpt>
      <trkpt lat="37.9304981790" lon="-2.9307015147">
        <ele>826.87</ele>
        <time>2017-10-07T12:04:40Z</time>
      </trkpt>
      <trkpt lat="37.9303685948" lon="-2.9306166060">
        <ele>827.83</ele>
        <time>2017-10-07T12:04:47Z</time>
      </trkpt>
      <trkpt lat="37.9302455485" lon="-2.9304597806">
        <ele>828.79</ele>
        <time>2017-10-07T12:04:56Z</time>
      </trkpt>
      <trkpt lat="37.9301261902" lon="-2.9302412644">
        <ele>830.24</ele>
        <time>2017-10-07T12:05:05Z</time>
      </trkpt>
      <trkpt lat="37.9299618211" lon="-2.9301403463">
        <ele>831.68</ele>
        <time>2017-10-07T12:05:13Z</time>
      </trkpt>
      <trkpt lat="37.9297671095" lon="-2.9302696791">
        <ele>833.12</ele>
        <time>2017-10-07T12:05:23Z</time>
      </trkpt>
      <trkpt lat="37.9297378566" lon="-2.9302944057">
        <ele>834.08</ele>
        <time>2017-10-07T12:05:25Z</time>
      </trkpt>
      <trkpt lat="37.9297268763" lon="-2.9303150252">
        <ele>834.56</ele>
        <time>2017-10-07T12:05:26Z</time>
      </trkpt>
      <trkpt lat="37.9297199193" lon="-2.9303369019">
        <ele>834.08</ele>
        <time>2017-10-07T12:05:27Z</time>
      </trkpt>
      <trkpt lat="37.9297119565" lon="-2.9303604551">
        <ele>834.08</ele>
        <time>2017-10-07T12:05:28Z</time>
      </trkpt>
      <trkpt lat="37.9297034908" lon="-2.9303844273">
        <ele>834.08</ele>
        <time>2017-10-07T12:05:29Z</time>
      </trkpt>
      <trkpt lat="37.9296947736" lon="-2.9304077290">
        <ele>834.56</ele>
        <time>2017-10-07T12:05:30Z</time>
      </trkpt>
      <trkpt lat="37.9296870623" lon="-2.9304299410">
        <ele>834.56</ele>
        <time>2017-10-07T12:05:31Z</time>
      </trkpt>
      <trkpt lat="37.9296260420" lon="-2.9307119921">
        <ele>836.48</ele>
        <time>2017-10-07T12:05:42Z</time>
      </trkpt>
      <trkpt lat="37.9295502696" lon="-2.9309209529">
        <ele>837.93</ele>
        <time>2017-10-07T12:05:51Z</time>
      </trkpt>
      <trkpt lat="37.9294482619" lon="-2.9311039299">
        <ele>838.89</ele>
        <time>2017-10-07T12:06:00Z</time>
      </trkpt>
      <trkpt lat="37.9293434881" lon="-2.9312315863">
        <ele>840.33</ele>
        <time>2017-10-07T12:06:08Z</time>
      </trkpt>
      <trkpt lat="37.9293295741" lon="-2.9312455002">
        <ele>840.33</ele>
        <time>2017-10-07T12:06:09Z</time>
      </trkpt>
      <trkpt lat="37.9292624351" lon="-2.9313417245">
        <ele>841.29</ele>
        <time>2017-10-07T12:06:15Z</time>
      </trkpt>
      <trkpt lat="37.9292442463" lon="-2.9313497711">
        <ele>841.29</ele>
        <time>2017-10-07T12:06:16Z</time>
      </trkpt>
      <trkpt lat="37.9292294942" lon="-2.9313648585">
        <ele>841.29</ele>
        <time>2017-10-07T12:06:17Z</time>
      </trkpt>
      <trkpt lat="37.9292148259" lon="-2.9313807003">
        <ele>841.77</ele>
        <time>2017-10-07T12:06:18Z</time>
      </trkpt>
      <trkpt lat="37.9292016663" lon="-2.9313972965">
        <ele>841.29</ele>
        <time>2017-10-07T12:06:19Z</time>
      </trkpt>
      <trkpt lat="37.9291926138" lon="-2.9314131383">
        <ele>841.77</ele>
        <time>2017-10-07T12:06:20Z</time>
      </trkpt>
      <trkpt lat="37.9291792866" lon="-2.9314239509">
        <ele>841.77</ele>
        <time>2017-10-07T12:06:21Z</time>
      </trkpt>
      <trkpt lat="37.9291648697" lon="-2.9314350151">
        <ele>842.25</ele>
        <time>2017-10-07T12:06:22Z</time>
      </trkpt>
      <trkpt lat="37.9291499499" lon="-2.9314453248">
        <ele>842.25</ele>
        <time>2017-10-07T12:06:23Z</time>
      </trkpt>
      <trkpt lat="37.9290234670" lon="-2.9315049201">
        <ele>842.73</ele>
        <time>2017-10-07T12:06:31Z</time>
      </trkpt>
      <trkpt lat="37.9290072899" lon="-2.9314982146">
        <ele>843.21</ele>
        <time>2017-10-07T12:06:32Z</time>
      </trkpt>
      <trkpt lat="37.9289949685" lon="-2.9314894974">
        <ele>842.73</ele>
        <time>2017-10-07T12:06:33Z</time>
      </trkpt>
      <trkpt lat="37.9289787915" lon="-2.9314828757">
        <ele>843.21</ele>
        <time>2017-10-07T12:06:34Z</time>
      </trkpt>
      <trkpt lat="37.9289625306" lon="-2.9314812832">
        <ele>843.21</ele>
        <time>2017-10-07T12:06:35Z</time>
      </trkpt>
      <trkpt lat="37.9289454315" lon="-2.9314832110">
        <ele>843.21</ele>
        <time>2017-10-07T12:06:36Z</time>
      </trkpt>
      <trkpt lat="37.9289277457" lon="-2.9314807802">
        <ele>843.21</ele>
        <time>2017-10-07T12:06:37Z</time>
      </trkpt>
      <trkpt lat="37.9289100599" lon="-2.9314780980">
        <ele>843.69</ele>
        <time>2017-10-07T12:06:38Z</time>
      </trkpt>
      <trkpt lat="37.9288902786" lon="-2.9314744100">
        <ele>843.69</ele>
        <time>2017-10-07T12:06:39Z</time>
      </trkpt>
      <trkpt lat="37.9288735986" lon="-2.9314725660">
        <ele>843.69</ele>
        <time>2017-10-07T12:06:40Z</time>
      </trkpt>
      <trkpt lat="37.9288567510" lon="-2.9314703867">
        <ele>843.69</ele>
        <time>2017-10-07T12:06:41Z</time>
      </trkpt>
      <trkpt lat="37.9288378917" lon="-2.9314645194">
        <ele>844.18</ele>
        <time>2017-10-07T12:06:42Z</time>
      </trkpt>
      <trkpt lat="37.9288245644" lon="-2.9314559698">
        <ele>844.18</ele>
        <time>2017-10-07T12:06:43Z</time>
      </trkpt>
      <trkpt lat="37.9287307709" lon="-2.9313916806">
        <ele>845.14</ele>
        <time>2017-10-07T12:06:51Z</time>
      </trkpt>
      <trkpt lat="37.9287202936" lon="-2.9313800298">
        <ele>845.14</ele>
        <time>2017-10-07T12:06:52Z</time>
      </trkpt>
      <trkpt lat="37.9287099000" lon="-2.9313675407">
        <ele>845.14</ele>
        <time>2017-10-07T12:06:53Z</time>
      </trkpt>
      <trkpt lat="37.9286321998" lon="-2.9312367830">
        <ele>845.62</ele>
        <time>2017-10-07T12:07:04Z</time>
      </trkpt>
      <trkpt lat="37.9285317007" lon="-2.9310625233">
        <ele>846.58</ele>
        <time>2017-10-07T12:07:16Z</time>
      </trkpt>
      <trkpt lat="37.9285021126" lon="-2.9309751838">
        <ele>847.06</ele>
        <time>2017-10-07T12:07:23Z</time>
      </trkpt>
      <trkpt lat="37.9284907132" lon="-2.9309629463">
        <ele>847.06</ele>
        <time>2017-10-07T12:07:24Z</time>
      </trkpt>
      <trkpt lat="37.9284029547" lon="-2.9307860881">
        <ele>848.50</ele>
        <time>2017-10-07T12:07:34Z</time>
      </trkpt>
      <trkpt lat="37.9283888731" lon="-2.9307725932">
        <ele>848.50</ele>
        <time>2017-10-07T12:07:35Z</time>
      </trkpt>
      <trkpt lat="37.9283795692" lon="-2.9307477828">
        <ele>848.50</ele>
        <time>2017-10-07T12:07:36Z</time>
      </trkpt>
      <trkpt lat="37.9283680022" lon="-2.9307259060">
        <ele>848.50</ele>
        <time>2017-10-07T12:07:37Z</time>
      </trkpt>
      <trkpt lat="37.9283216503" lon="-2.9306441825">
        <ele>848.98</ele>
        <time>2017-10-07T12:07:41Z</time>
      </trkpt>
      <trkpt lat="37.9283089098" lon="-2.9306210484">
        <ele>849.46</ele>
        <time>2017-10-07T12:07:42Z</time>
      </trkpt>
      <trkpt lat="37.9282957502" lon="-2.9305995908">
        <ele>849.46</ele>
        <time>2017-10-07T12:07:43Z</time>
      </trkpt>
      <trkpt lat="37.9282812495" lon="-2.9305807315">
        <ele>849.46</ele>
        <time>2017-10-07T12:07:44Z</time>
      </trkpt>
      <trkpt lat="37.9282664973" lon="-2.9305677395">
        <ele>849.94</ele>
        <time>2017-10-07T12:07:45Z</time>
      </trkpt>
      <trkpt lat="37.9282515775" lon="-2.9305569269">
        <ele>849.94</ele>
        <time>2017-10-07T12:07:46Z</time>
      </trkpt>
      <trkpt lat="37.9282364901" lon="-2.9305468686">
        <ele>849.94</ele>
        <time>2017-10-07T12:07:47Z</time>
      </trkpt>
      <trkpt lat="37.9282206483" lon="-2.9305385705">
        <ele>850.42</ele>
        <time>2017-10-07T12:07:48Z</time>
      </trkpt>
      <trkpt lat="37.9282008670" lon="-2.9305311944">
        <ele>850.42</ele>
        <time>2017-10-07T12:07:49Z</time>
      </trkpt>
      <trkpt lat="37.9281662498" lon="-2.9305144306">
        <ele>850.90</ele>
        <time>2017-10-07T12:07:51Z</time>
      </trkpt>
      <trkpt lat="37.9281476419" lon="-2.9305106588">
        <ele>850.90</ele>
        <time>2017-10-07T12:07:52Z</time>
      </trkpt>
      <trkpt lat="37.9281271063" lon="-2.9305048753">
        <ele>850.90</ele>
        <time>2017-10-07T12:07:53Z</time>
      </trkpt>
      <trkpt lat="37.9281101748" lon="-2.9304980021">
        <ele>851.38</ele>
        <time>2017-10-07T12:07:54Z</time>
      </trkpt>
      <trkpt lat="37.9280941654" lon="-2.9304954875">
        <ele>851.38</ele>
        <time>2017-10-07T12:07:55Z</time>
      </trkpt>
      <trkpt lat="37.9280292057" lon="-2.9305078089">
        <ele>852.35</ele>
        <time>2017-10-07T12:08:01Z</time>
      </trkpt>
      <trkpt lat="37.9280220810" lon="-2.9305141792">
        <ele>852.35</ele>
        <time>2017-10-07T12:08:02Z</time>
      </trkpt>
      <trkpt lat="37.9280183930" lon="-2.9305258300">
        <ele>852.35</ele>
        <time>2017-10-07T12:08:03Z</time>
      </trkpt>
      <trkpt lat="37.9279998690" lon="-2.9305412527">
        <ele>852.83</ele>
        <time>2017-10-07T12:08:05Z</time>
      </trkpt>
      <trkpt lat="37.9278586339" lon="-2.9305945616">
        <ele>853.79</ele>
        <time>2017-10-07T12:08:13Z</time>
      </trkpt>
      <trkpt lat="37.9277900700" lon="-2.9306613654">
        <ele>854.75</ele>
        <time>2017-10-07T12:08:19Z</time>
      </trkpt>
      <trkpt lat="37.9277831968" lon="-2.9306793027">
        <ele>854.75</ele>
        <time>2017-10-07T12:08:20Z</time>
      </trkpt>
      <trkpt lat="37.9277770780" lon="-2.9307260737">
        <ele>854.75</ele>
        <time>2017-10-07T12:08:29Z</time>
      </trkpt>
      <trkpt lat="37.9277109448" lon="-2.9308564123">
        <ele>856.19</ele>
        <time>2017-10-07T12:08:39Z</time>
      </trkpt>
      <trkpt lat="37.9277012218" lon="-2.9308888502">
        <ele>856.19</ele>
        <time>2017-10-07T12:08:40Z</time>
      </trkpt>
      <trkpt lat="37.9276920017" lon="-2.9309209529">
        <ele>856.19</ele>
        <time>2017-10-07T12:08:41Z</time>
      </trkpt>
      <trkpt lat="37.9276317358" lon="-2.9311102163">
        <ele>857.63</ele>
        <time>2017-10-07T12:08:49Z</time>
      </trkpt>
      <trkpt lat="37.9276289698" lon="-2.9311339371">
        <ele>857.63</ele>
        <time>2017-10-07T12:08:50Z</time>
      </trkpt>
      <trkpt lat="37.9275844619" lon="-2.9313254636">
        <ele>858.59</ele>
        <time>2017-10-07T12:08:59Z</time>
      </trkpt>
      <trkpt lat="37.9275830369" lon="-2.9315004777">
        <ele>860.52</ele>
        <time>2017-10-07T12:09:08Z</time>
      </trkpt>
      <trkpt lat="37.9276288860" lon="-2.9316610750">
        <ele>861.00</ele>
        <time>2017-10-07T12:09:17Z</time>
      </trkpt>
      <trkpt lat="37.9277370125" lon="-2.9318090156">
        <ele>863.40</ele>
        <time>2017-10-07T12:09:27Z</time>
      </trkpt>
      <trkpt lat="37.9278317280" lon="-2.9319417849">
        <ele>863.40</ele>
        <time>2017-10-07T12:09:35Z</time>
      </trkpt>
      <trkpt lat="37.9279186483" lon="-2.9320518393">
        <ele>864.36</ele>
        <time>2017-10-07T12:09:44Z</time>
      </trkpt>
      <trkpt lat="37.9279740527" lon="-2.9321944993">
        <ele>865.80</ele>
        <time>2017-10-07T12:09:52Z</time>
      </trkpt>
      <trkpt lat="37.9279763997" lon="-2.9323591199">
        <ele>866.77</ele>
        <time>2017-10-07T12:10:00Z</time>
      </trkpt>
      <trkpt lat="37.9279515054" lon="-2.9325280990">
        <ele>867.73</ele>
        <time>2017-10-07T12:10:08Z</time>
      </trkpt>
      <trkpt lat="37.9279548582" lon="-2.9325439408">
        <ele>867.73</ele>
        <time>2017-10-07T12:10:09Z</time>
      </trkpt>
      <trkpt lat="37.9279571213" lon="-2.9325632192">
        <ele>867.73</ele>
        <time>2017-10-07T12:10:10Z</time>
      </trkpt>
      <trkpt lat="37.9279746395" lon="-2.9327545781">
        <ele>869.17</ele>
        <time>2017-10-07T12:10:20Z</time>
      </trkpt>
      <trkpt lat="37.9279750586" lon="-2.9328643810">
        <ele>869.65</ele>
        <time>2017-10-07T12:10:25Z</time>
      </trkpt>
      <trkpt lat="37.9279800877" lon="-2.9328852519">
        <ele>869.65</ele>
        <time>2017-10-07T12:10:26Z</time>
      </trkpt>
      <trkpt lat="37.9279805906" lon="-2.9329046980">
        <ele>869.65</ele>
        <time>2017-10-07T12:10:27Z</time>
      </trkpt>
      <trkpt lat="37.9280587099" lon="-2.9331170116">
        <ele>870.61</ele>
        <time>2017-10-07T12:10:38Z</time>
      </trkpt>
      <trkpt lat="37.9281682614" lon="-2.9332695622">
        <ele>872.05</ele>
        <time>2017-10-07T12:10:47Z</time>
      </trkpt>
      <trkpt lat="37.9282580316" lon="-2.9334997293">
        <ele>873.98</ele>
        <time>2017-10-07T12:10:58Z</time>
      </trkpt>
      <trkpt lat="37.9282685928" lon="-2.9337231908">
        <ele>874.94</ele>
        <time>2017-10-07T12:11:08Z</time>
      </trkpt>
      <trkpt lat="37.9282229114" lon="-2.9338746518">
        <ele>875.90</ele>
        <time>2017-10-07T12:11:16Z</time>
      </trkpt>
      <trkpt lat="37.9282167926" lon="-2.9338907450">
        <ele>876.38</ele>
        <time>2017-10-07T12:11:17Z</time>
      </trkpt>
      <trkpt lat="37.9282084107" lon="-2.9339032341">
        <ele>876.38</ele>
        <time>2017-10-07T12:11:18Z</time>
      </trkpt>
      <trkpt lat="37.9281981848" lon="-2.9339158908">
        <ele>876.86</ele>
        <time>2017-10-07T12:11:19Z</time>
      </trkpt>
      <trkpt lat="37.9281853605" lon="-2.9339257814">
        <ele>876.86</ele>
        <time>2017-10-07T12:11:20Z</time>
      </trkpt>
      <trkpt lat="37.9281742126" lon="-2.9339413717">
        <ele>876.86</ele>
        <time>2017-10-07T12:11:21Z</time>
      </trkpt>
      <trkpt lat="37.9281639028" lon="-2.9339596443">
        <ele>876.86</ele>
        <time>2017-10-07T12:11:22Z</time>
      </trkpt>
      <trkpt lat="37.9281509109" lon="-2.9339797609">
        <ele>877.34</ele>
        <time>2017-10-07T12:11:23Z</time>
      </trkpt>
      <trkpt lat="37.9281379189" lon="-2.9339976143">
        <ele>877.34</ele>
        <time>2017-10-07T12:11:24Z</time>
      </trkpt>
      <trkpt lat="37.9281244241" lon="-2.9340163060">
        <ele>877.34</ele>
        <time>2017-10-07T12:11:25Z</time>
      </trkpt>
      <trkpt lat="37.9279593844" lon="-2.9341001250">
        <ele>878.78</ele>
        <time>2017-10-07T12:11:36Z</time>
      </trkpt>
      <trkpt lat="37.9278764036" lon="-2.9340941738">
        <ele>879.26</ele>
        <time>2017-10-07T12:11:41Z</time>
      </trkpt>
      <trkpt lat="37.9278609809" lon="-2.9340873845">
        <ele>879.74</ele>
        <time>2017-10-07T12:11:42Z</time>
      </trkpt>
      <trkpt lat="37.9276880622" lon="-2.9339423776">
        <ele>881.19</ele>
        <time>2017-10-07T12:11:54Z</time>
      </trkpt>
      <trkpt lat="37.9275960289" lon="-2.9337850492">
        <ele>882.15</ele>
        <time>2017-10-07T12:12:04Z</time>
      </trkpt>
      <trkpt lat="37.9275869764" lon="-2.9337708000">
        <ele>882.15</ele>
        <time>2017-10-07T12:12:05Z</time>
      </trkpt>
      <trkpt lat="37.9275772534" lon="-2.9337566346">
        <ele>882.63</ele>
        <time>2017-10-07T12:12:06Z</time>
      </trkpt>
      <trkpt lat="37.9275673628" lon="-2.9337385297">
        <ele>882.63</ele>
        <time>2017-10-07T12:12:07Z</time>
      </trkpt>
      <trkpt lat="37.9274493456" lon="-2.9334903415">
        <ele>884.07</ele>
        <time>2017-10-07T12:12:20Z</time>
      </trkpt>
      <trkpt lat="37.9274344258" lon="-2.9334574845">
        <ele>884.55</ele>
        <time>2017-10-07T12:12:22Z</time>
      </trkpt>
      <trkpt lat="37.9274283070" lon="-2.9334189277">
        <ele>885.03</ele>
        <time>2017-10-07T12:12:25Z</time>
      </trkpt>
      <trkpt lat="37.9274208471" lon="-2.9333826341">
        <ele>885.51</ele>
        <time>2017-10-07T12:12:27Z</time>
      </trkpt>
      <trkpt lat="37.9274150636" lon="-2.9333669599">
        <ele>885.51</ele>
        <time>2017-10-07T12:12:28Z</time>
      </trkpt>
      <trkpt lat="37.9274134710" lon="-2.9333481845">
        <ele>885.51</ele>
        <time>2017-10-07T12:12:29Z</time>
      </trkpt>
      <trkpt lat="37.9274107050" lon="-2.9333290737">
        <ele>885.51</ele>
        <time>2017-10-07T12:12:30Z</time>
      </trkpt>
      <trkpt lat="37.9274015687" lon="-2.9333093762">
        <ele>885.99</ele>
        <time>2017-10-07T12:12:31Z</time>
      </trkpt>
      <trkpt lat="37.9273943603" lon="-2.9332950432">
        <ele>885.99</ele>
        <time>2017-10-07T12:12:32Z</time>
      </trkpt>
      <trkpt lat="37.9273843858" lon="-2.9332356155">
        <ele>886.47</ele>
        <time>2017-10-07T12:12:36Z</time>
      </trkpt>
      <trkpt lat="37.9273328371" lon="-2.9330859985">
        <ele>887.43</ele>
        <time>2017-10-07T12:12:46Z</time>
      </trkpt>
      <trkpt lat="37.9273356032" lon="-2.9330761917">
        <ele>887.43</ele>
        <time>2017-10-07T12:13:06Z</time>
      </trkpt>
      <trkpt lat="37.9273225274" lon="-2.9330621101">
        <ele>887.91</ele>
        <time>2017-10-07T12:13:23Z</time>
      </trkpt>
      <trkpt lat="37.9273131397" lon="-2.9330389760">
        <ele>887.43</ele>
        <time>2017-10-07T12:13:44Z</time>
      </trkpt>
      <trkpt lat="37.9273112956" lon="-2.9330409877">
        <ele>887.43</ele>
        <time>2017-10-07T12:14:04Z</time>
      </trkpt>
      <trkpt lat="37.9273085296" lon="-2.9330540635">
        <ele>887.91</ele>
        <time>2017-10-07T12:14:18Z</time>
      </trkpt>
      <trkpt lat="37.9273200128" lon="-2.9330550693">
        <ele>887.91</ele>
        <time>2017-10-07T12:14:33Z</time>
      </trkpt>
      <trkpt lat="37.9273211025" lon="-2.9330476932">
        <ele>887.91</ele>
        <time>2017-10-07T12:14:52Z</time>
      </trkpt>
      <trkpt lat="37.9272911791" lon="-2.9329704121">
        <ele>887.43</ele>
        <time>2017-10-07T12:14:59Z</time>
      </trkpt>
      <trkpt lat="37.9272832163" lon="-2.9329467751">
        <ele>888.40</ele>
        <time>2017-10-07T12:15:00Z</time>
      </trkpt>
      <trkpt lat="37.9272728227" lon="-2.9329214618">
        <ele>889.84</ele>
        <time>2017-10-07T12:15:01Z</time>
      </trkpt>
      <trkpt lat="37.9271825496" lon="-2.9327587690">
        <ele>890.32</ele>
        <time>2017-10-07T12:15:09Z</time>
      </trkpt>
      <trkpt lat="37.9270236287" lon="-2.9326283466">
        <ele>892.24</ele>
        <time>2017-10-07T12:15:18Z</time>
      </trkpt>
      <trkpt lat="37.9268375505" lon="-2.9326578509">
        <ele>894.64</ele>
        <time>2017-10-07T12:15:29Z</time>
      </trkpt>
      <trkpt lat="37.9268231336" lon="-2.9326629639">
        <ele>894.64</ele>
        <time>2017-10-07T12:15:30Z</time>
      </trkpt>
      <trkpt lat="37.9268119019" lon="-2.9326718487">
        <ele>895.12</ele>
        <time>2017-10-07T12:15:31Z</time>
      </trkpt>
      <trkpt lat="37.9268031847" lon="-2.9326869361">
        <ele>895.12</ele>
        <time>2017-10-07T12:15:32Z</time>
      </trkpt>
      <trkpt lat="37.9268049449" lon="-2.9327534046">
        <ele>895.61</ele>
        <time>2017-10-07T12:15:40Z</time>
      </trkpt>
      <trkpt lat="37.9268165957" lon="-2.9327776283">
        <ele>895.12</ele>
        <time>2017-10-07T12:15:48Z</time>
      </trkpt>
      <trkpt lat="37.9268255644" lon="-2.9327866808">
        <ele>894.64</ele>
        <time>2017-10-07T12:16:09Z</time>
      </trkpt>
      <trkpt lat="37.9268206190" lon="-2.9327950627">
        <ele>894.64</ele>
        <time>2017-10-07T12:16:33Z</time>
      </trkpt>
      <trkpt lat="37.9268242233" lon="-2.9328046180">
        <ele>894.64</ele>
        <time>2017-10-07T12:16:58Z</time>
      </trkpt>
      <trkpt lat="37.9268227983" lon="-2.9327823222">
        <ele>894.64</ele>
        <time>2017-10-07T12:17:23Z</time>
      </trkpt>
      <trkpt lat="37.9268234689" lon="-2.9327806458">
        <ele>894.64</ele>
        <time>2017-10-07T12:17:26Z</time>
      </trkpt>
      <trkpt lat="37.9268258158" lon="-2.9327694979">
        <ele>895.61</ele>
        <time>2017-10-07T12:17:31Z</time>
      </trkpt>
      <trkpt lat="37.9268116504" lon="-2.9327622056">
        <ele>895.61</ele>
        <time>2017-10-07T12:17:32Z</time>
      </trkpt>
      <trkpt lat="37.9267963115" lon="-2.9327554163">
        <ele>895.61</ele>
        <time>2017-10-07T12:17:33Z</time>
      </trkpt>
      <trkpt lat="37.9267544020" lon="-2.9327767063">
        <ele>896.09</ele>
        <time>2017-10-07T12:17:40Z</time>
      </trkpt>
      <trkpt lat="37.9267476127" lon="-2.9327945597">
        <ele>896.09</ele>
        <time>2017-10-07T12:17:41Z</time>
      </trkpt>
      <trkpt lat="37.9267361294" lon="-2.9328178614">
        <ele>896.09</ele>
        <time>2017-10-07T12:17:42Z</time>
      </trkpt>
      <trkpt lat="37.9267190304" lon="-2.9328438453">
        <ele>896.57</ele>
        <time>2017-10-07T12:17:43Z</time>
      </trkpt>
      <trkpt lat="37.9267020151" lon="-2.9328736011">
        <ele>896.57</ele>
        <time>2017-10-07T12:17:44Z</time>
      </trkpt>
      <trkpt lat="37.9266900290" lon="-2.9329031892">
        <ele>897.05</ele>
        <time>2017-10-07T12:17:45Z</time>
      </trkpt>
      <trkpt lat="37.9266835749" lon="-2.9329357110">
        <ele>897.05</ele>
        <time>2017-10-07T12:17:46Z</time>
      </trkpt>
      <trkpt lat="37.9266821500" lon="-2.9329713341">
        <ele>897.53</ele>
        <time>2017-10-07T12:17:47Z</time>
      </trkpt>
      <trkpt lat="37.9266822338" lon="-2.9330062866">
        <ele>897.53</ele>
        <time>2017-10-07T12:17:48Z</time>
      </trkpt>
      <trkpt lat="37.9266815633" lon="-2.9330424126">
        <ele>898.01</ele>
        <time>2017-10-07T12:17:49Z</time>
      </trkpt>
      <trkpt lat="37.9267426673" lon="-2.9333626851">
        <ele>900.89</ele>
        <time>2017-10-07T12:17:58Z</time>
      </trkpt>
      <trkpt lat="37.9268352035" lon="-2.9338000529">
        <ele>903.30</ele>
        <time>2017-10-07T12:18:08Z</time>
      </trkpt>
      <trkpt lat="37.9268777836" lon="-2.9341805074">
        <ele>904.74</ele>
        <time>2017-10-07T12:18:16Z</time>
      </trkpt>
      <trkpt lat="37.9268906079" lon="-2.9346847627">
        <ele>907.14</ele>
        <time>2017-10-07T12:18:28Z</time>
      </trkpt>
      <trkpt lat="37.9268504586" lon="-2.9349492956">
        <ele>907.62</ele>
        <time>2017-10-07T12:18:35Z</time>
      </trkpt>
      <trkpt lat="37.9267646279" lon="-2.9353770241">
        <ele>909.06</ele>
        <time>2017-10-07T12:18:44Z</time>
      </trkpt>
      <trkpt lat="37.9266662244" lon="-2.9357168265">
        <ele>910.51</ele>
        <time>2017-10-07T12:18:54Z</time>
      </trkpt>
      <trkpt lat="37.9264291003" lon="-2.9359539505">
        <ele>911.47</ele>
        <time>2017-10-07T12:19:05Z</time>
      </trkpt>
      <trkpt lat="37.9262035433" lon="-2.9361857940">
        <ele>912.43</ele>
        <time>2017-10-07T12:19:16Z</time>
      </trkpt>
      <trkpt lat="37.9260700196" lon="-2.9365071561">
        <ele>913.87</ele>
        <time>2017-10-07T12:19:27Z</time>
      </trkpt>
      <trkpt lat="37.9259608034" lon="-2.9368917178">
        <ele>914.83</ele>
        <time>2017-10-07T12:19:38Z</time>
      </trkpt>
      <trkpt lat="37.9259162117" lon="-2.9372618627">
        <ele>916.27</ele>
        <time>2017-10-07T12:19:50Z</time>
      </trkpt>
      <trkpt lat="37.9259121884" lon="-2.9373246431">
        <ele>916.75</ele>
        <time>2017-10-07T12:19:53Z</time>
      </trkpt>
      <trkpt lat="37.9259051476" lon="-2.9373419099">
        <ele>916.75</ele>
        <time>2017-10-07T12:19:54Z</time>
      </trkpt>
      <trkpt lat="37.9259001184" lon="-2.9373607691">
        <ele>916.75</ele>
        <time>2017-10-07T12:19:55Z</time>
      </trkpt>
      <trkpt lat="37.9258520063" lon="-2.9375967197">
        <ele>918.20</ele>
        <time>2017-10-07T12:20:05Z</time>
      </trkpt>
      <trkpt lat="37.9258455522" lon="-2.9376176745">
        <ele>918.68</ele>
        <time>2017-10-07T12:20:06Z</time>
      </trkpt>
      <trkpt lat="37.9258416966" lon="-2.9376429040">
        <ele>918.68</ele>
        <time>2017-10-07T12:20:07Z</time>
      </trkpt>
      <trkpt lat="37.9258411936" lon="-2.9376667086">
        <ele>918.68</ele>
        <time>2017-10-07T12:20:08Z</time>
      </trkpt>
      <trkpt lat="37.9258419480" lon="-2.9376925249">
        <ele>918.68</ele>
        <time>2017-10-07T12:20:09Z</time>
      </trkpt>
      <trkpt lat="37.9258440435" lon="-2.9377216939">
        <ele>919.16</ele>
        <time>2017-10-07T12:20:10Z</time>
      </trkpt>
      <trkpt lat="37.9258447140" lon="-2.9377470911">
        <ele>919.16</ele>
        <time>2017-10-07T12:20:11Z</time>
      </trkpt>
      <trkpt lat="37.9258417804" lon="-2.9377698060">
        <ele>919.16</ele>
        <time>2017-10-07T12:20:12Z</time>
      </trkpt>
      <trkpt lat="37.9258432891" lon="-2.9377945326">
        <ele>919.16</ele>
        <time>2017-10-07T12:20:13Z</time>
      </trkpt>
      <trkpt lat="37.9258453008" lon="-2.9378223605">
        <ele>919.16</ele>
        <time>2017-10-07T12:20:14Z</time>
      </trkpt>
      <trkpt lat="37.9258411098" lon="-2.9378426448">
        <ele>919.64</ele>
        <time>2017-10-07T12:20:15Z</time>
      </trkpt>
      <trkpt lat="37.9258368351" lon="-2.9378584027">
        <ele>919.64</ele>
        <time>2017-10-07T12:20:16Z</time>
      </trkpt>
      <trkpt lat="37.9258392658" lon="-2.9378785193">
        <ele>919.64</ele>
        <time>2017-10-07T12:20:17Z</time>
      </trkpt>
      <trkpt lat="37.9258446302" lon="-2.9379004799">
        <ele>920.12</ele>
        <time>2017-10-07T12:20:18Z</time>
      </trkpt>
      <trkpt lat="37.9258558620" lon="-2.9379283078">
        <ele>920.12</ele>
        <time>2017-10-07T12:20:19Z</time>
      </trkpt>
      <trkpt lat="37.9258658364" lon="-2.9379515257">
        <ele>920.60</ele>
        <time>2017-10-07T12:20:20Z</time>
      </trkpt>
      <trkpt lat="37.9258712009" lon="-2.9379722290">
        <ele>920.60</ele>
        <time>2017-10-07T12:20:21Z</time>
      </trkpt>
      <trkpt lat="37.9258757271" lon="-2.9379956983">
        <ele>920.60</ele>
        <time>2017-10-07T12:20:22Z</time>
      </trkpt>
      <trkpt lat="37.9258825164" lon="-2.9380180780">
        <ele>920.60</ele>
        <time>2017-10-07T12:20:23Z</time>
      </trkpt>
      <trkpt lat="37.9258895572" lon="-2.9380418826">
        <ele>921.08</ele>
        <time>2017-10-07T12:20:24Z</time>
      </trkpt>
      <trkpt lat="37.9258947540" lon="-2.9380639270">
        <ele>921.08</ele>
        <time>2017-10-07T12:20:25Z</time>
      </trkpt>
      <trkpt lat="37.9259027168" lon="-2.9380851332">
        <ele>921.08</ele>
        <time>2017-10-07T12:20:26Z</time>
      </trkpt>
      <trkpt lat="37.9259126075" lon="-2.9381037410">
        <ele>921.56</ele>
        <time>2017-10-07T12:20:27Z</time>
      </trkpt>
      <trkpt lat="37.9259198997" lon="-2.9381231871">
        <ele>921.56</ele>
        <time>2017-10-07T12:20:28Z</time>
      </trkpt>
      <trkpt lat="37.9259726219" lon="-2.9383673519">
        <ele>923.48</ele>
        <time>2017-10-07T12:20:39Z</time>
      </trkpt>
      <trkpt lat="37.9259493202" lon="-2.9386303760">
        <ele>925.41</ele>
        <time>2017-10-07T12:20:52Z</time>
      </trkpt>
      <trkpt lat="37.9259145353" lon="-2.9388494790">
        <ele>926.37</ele>
        <time>2017-10-07T12:21:04Z</time>
      </trkpt>
      <trkpt lat="37.9259139486" lon="-2.9389230721">
        <ele>926.85</ele>
        <time>2017-10-07T12:21:08Z</time>
      </trkpt>
      <trkpt lat="37.9259196483" lon="-2.9389636405">
        <ele>927.33</ele>
        <time>2017-10-07T12:21:11Z</time>
      </trkpt>
      <trkpt lat="37.9259205703" lon="-2.9389789794">
        <ele>927.81</ele>
        <time>2017-10-07T12:21:12Z</time>
      </trkpt>
      <trkpt lat="37.9259233363" lon="-2.9391140118">
        <ele>928.77</ele>
        <time>2017-10-07T12:21:21Z</time>
      </trkpt>
      <trkpt lat="37.9259265214" lon="-2.9391310271">
        <ele>928.77</ele>
        <time>2017-10-07T12:21:22Z</time>
      </trkpt>
      <trkpt lat="37.9259266891" lon="-2.9391470365">
        <ele>928.77</ele>
        <time>2017-10-07T12:21:23Z</time>
      </trkpt>
      <trkpt lat="37.9259278625" lon="-2.9391617049">
        <ele>928.77</ele>
        <time>2017-10-07T12:21:24Z</time>
      </trkpt>
      <trkpt lat="37.9259165470" lon="-2.9392999224">
        <ele>929.73</ele>
        <time>2017-10-07T12:21:32Z</time>
      </trkpt>
      <trkpt lat="37.9259115178" lon="-2.9393189494">
        <ele>929.73</ele>
        <time>2017-10-07T12:21:33Z</time>
      </trkpt>
      <trkpt lat="37.9259070754" lon="-2.9393406585">
        <ele>930.21</ele>
        <time>2017-10-07T12:21:34Z</time>
      </trkpt>
      <trkpt lat="37.9259012919" lon="-2.9393576737">
        <ele>930.21</ele>
        <time>2017-10-07T12:21:35Z</time>
      </trkpt>
      <trkpt lat="37.9258960951" lon="-2.9393746052">
        <ele>928.29</ele>
        <time>2017-10-07T12:21:36Z</time>
      </trkpt>
      <trkpt lat="37.9258931614" lon="-2.9393907823">
        <ele>928.77</ele>
        <time>2017-10-07T12:21:37Z</time>
      </trkpt>
      <trkpt lat="37.9258859530" lon="-2.9394074623">
        <ele>931.65</ele>
        <time>2017-10-07T12:21:38Z</time>
      </trkpt>
      <trkpt lat="37.9258761462" lon="-2.9394269083">
        <ele>930.21</ele>
        <time>2017-10-07T12:21:39Z</time>
      </trkpt>
      <trkpt lat="37.9258629866" lon="-2.9394457676">
        <ele>926.37</ele>
        <time>2017-10-07T12:21:40Z</time>
      </trkpt>
      <trkpt lat="37.9258525092" lon="-2.9394616093">
        <ele>933.58</ele>
        <time>2017-10-07T12:21:41Z</time>
      </trkpt>
      <trkpt lat="37.9258461390" lon="-2.9394865874">
        <ele>930.69</ele>
        <time>2017-10-07T12:21:42Z</time>
      </trkpt>
      <trkpt lat="37.9258353263" lon="-2.9395061173">
        <ele>931.17</ele>
        <time>2017-10-07T12:21:43Z</time>
      </trkpt>
      <trkpt lat="37.9258274473" lon="-2.9395279940">
        <ele>931.17</ele>
        <time>2017-10-07T12:21:44Z</time>
      </trkpt>
      <trkpt lat="37.9257764015" lon="-2.9396276549">
        <ele>931.65</ele>
        <time>2017-10-07T12:21:50Z</time>
      </trkpt>
      <trkpt lat="37.9257696960" lon="-2.9396489449">
        <ele>931.65</ele>
        <time>2017-10-07T12:21:51Z</time>
      </trkpt>
      <trkpt lat="37.9257574584" lon="-2.9396901838">
        <ele>932.14</ele>
        <time>2017-10-07T12:21:53Z</time>
      </trkpt>
      <trkpt lat="37.9257466458" lon="-2.9397071153">
        <ele>931.65</ele>
        <time>2017-10-07T12:21:54Z</time>
      </trkpt>
      <trkpt lat="37.9257425386" lon="-2.9397227895">
        <ele>930.69</ele>
        <time>2017-10-07T12:21:55Z</time>
      </trkpt>
      <trkpt lat="37.9257359169" lon="-2.9397406429">
        <ele>933.58</ele>
        <time>2017-10-07T12:21:56Z</time>
      </trkpt>
      <trkpt lat="37.9257287085" lon="-2.9397551436">
        <ele>931.65</ele>
        <time>2017-10-07T12:21:57Z</time>
      </trkpt>
      <trkpt lat="37.9257198237" lon="-2.9397657886">
        <ele>933.10</ele>
        <time>2017-10-07T12:21:58Z</time>
      </trkpt>
      <trkpt lat="37.9256915767" lon="-2.9398154933">
        <ele>933.10</ele>
        <time>2017-10-07T12:22:02Z</time>
      </trkpt>
      <trkpt lat="37.9256880563" lon="-2.9398363642">
        <ele>933.10</ele>
        <time>2017-10-07T12:22:03Z</time>
      </trkpt>
      <trkpt lat="37.9256869666" lon="-2.9398544692">
        <ele>933.10</ele>
        <time>2017-10-07T12:22:04Z</time>
      </trkpt>
      <trkpt lat="37.9256865475" lon="-2.9398756754">
        <ele>933.10</ele>
        <time>2017-10-07T12:22:05Z</time>
      </trkpt>
      <trkpt lat="37.9256896488" lon="-2.9398942832">
        <ele>933.58</ele>
        <time>2017-10-07T12:22:06Z</time>
      </trkpt>
      <trkpt lat="37.9256903194" lon="-2.9399120528">
        <ele>933.58</ele>
        <time>2017-10-07T12:22:07Z</time>
      </trkpt>
      <trkpt lat="37.9256777465" lon="-2.9399869870">
        <ele>934.06</ele>
        <time>2017-10-07T12:22:12Z</time>
      </trkpt>
      <trkpt lat="37.9256768245" lon="-2.9400069360">
        <ele>934.06</ele>
        <time>2017-10-07T12:22:13Z</time>
      </trkpt>
      <trkpt lat="37.9256729688" lon="-2.9400247056">
        <ele>934.06</ele>
        <time>2017-10-07T12:22:14Z</time>
      </trkpt>
      <trkpt lat="37.9256705381" lon="-2.9400425591">
        <ele>934.06</ele>
        <time>2017-10-07T12:22:15Z</time>
      </trkpt>
      <trkpt lat="37.9256678559" lon="-2.9400596581">
        <ele>934.54</ele>
        <time>2017-10-07T12:22:16Z</time>
      </trkpt>
      <trkpt lat="37.9256693646" lon="-2.9400812835">
        <ele>934.54</ele>
        <time>2017-10-07T12:22:17Z</time>
      </trkpt>
      <trkpt lat="37.9256684426" lon="-2.9400989693">
        <ele>934.54</ele>
        <time>2017-10-07T12:22:18Z</time>
      </trkpt>
      <trkpt lat="37.9256671853" lon="-2.9401175771">
        <ele>934.54</ele>
        <time>2017-10-07T12:22:19Z</time>
      </trkpt>
      <trkpt lat="37.9256654251" lon="-2.9401362687">
        <ele>935.02</ele>
        <time>2017-10-07T12:22:20Z</time>
      </trkpt>
      <trkpt lat="37.9256667662" lon="-2.9401552957">
        <ele>935.02</ele>
        <time>2017-10-07T12:22:21Z</time>
      </trkpt>
      <trkpt lat="37.9256718792" lon="-2.9401743226">
        <ele>935.02</ele>
        <time>2017-10-07T12:22:22Z</time>
      </trkpt>
      <trkpt lat="37.9256753158" lon="-2.9401932657">
        <ele>935.50</ele>
        <time>2017-10-07T12:22:23Z</time>
      </trkpt>
      <trkpt lat="37.9257173091" lon="-2.9403570481">
        <ele>936.46</ele>
        <time>2017-10-07T12:22:32Z</time>
      </trkpt>
      <trkpt lat="37.9257301334" lon="-2.9403867200">
        <ele>936.94</ele>
        <time>2017-10-07T12:22:34Z</time>
      </trkpt>
      <trkpt lat="37.9257883877" lon="-2.9405093472">
        <ele>937.42</ele>
        <time>2017-10-07T12:22:43Z</time>
      </trkpt>
      <trkpt lat="37.9258934129" lon="-2.9406363331">
        <ele>938.86</ele>
        <time>2017-10-07T12:22:53Z</time>
      </trkpt>
      <trkpt lat="37.9259334784" lon="-2.9406742193">
        <ele>938.86</ele>
        <time>2017-10-07T12:22:56Z</time>
      </trkpt>
      <trkpt lat="37.9259458836" lon="-2.9406906478">
        <ele>939.35</ele>
        <time>2017-10-07T12:22:57Z</time>
      </trkpt>
      <trkpt lat="37.9259584565" lon="-2.9407036398">
        <ele>939.35</ele>
        <time>2017-10-07T12:22:58Z</time>
      </trkpt>
      <trkpt lat="37.9260271043" lon="-2.9408312961">
        <ele>940.31</ele>
        <time>2017-10-07T12:23:07Z</time>
      </trkpt>
      <trkpt lat="37.9260354862" lon="-2.9408458807">
        <ele>940.31</ele>
        <time>2017-10-07T12:23:08Z</time>
      </trkpt>
      <trkpt lat="37.9260434490" lon="-2.9408615548">
        <ele>940.79</ele>
        <time>2017-10-07T12:23:09Z</time>
      </trkpt>
      <trkpt lat="37.9260498192" lon="-2.9408793245">
        <ele>940.79</ele>
        <time>2017-10-07T12:23:10Z</time>
      </trkpt>
      <trkpt lat="37.9260690138" lon="-2.9410363175">
        <ele>941.75</ele>
        <time>2017-10-07T12:23:20Z</time>
      </trkpt>
      <trkpt lat="37.9260757193" lon="-2.9410909675">
        <ele>942.23</ele>
        <time>2017-10-07T12:23:23Z</time>
      </trkpt>
      <trkpt lat="37.9260739591" lon="-2.9411101621">
        <ele>942.23</ele>
        <time>2017-10-07T12:23:24Z</time>
      </trkpt>
      <trkpt lat="37.9260745458" lon="-2.9411842581">
        <ele>938.86</ele>
        <time>2017-10-07T12:23:28Z</time>
      </trkpt>
      <trkpt lat="37.9260743782" lon="-2.9412037041">
        <ele>943.67</ele>
        <time>2017-10-07T12:23:29Z</time>
      </trkpt>
      <trkpt lat="37.9260730371" lon="-2.9412570968">
        <ele>942.71</ele>
        <time>2017-10-07T12:23:32Z</time>
      </trkpt>
      <trkpt lat="37.9260577820" lon="-2.9412989225">
        <ele>943.19</ele>
        <time>2017-10-07T12:23:35Z</time>
      </trkpt>
      <trkpt lat="37.9260582849" lon="-2.9413183685">
        <ele>943.67</ele>
        <time>2017-10-07T12:23:36Z</time>
      </trkpt>
      <trkpt lat="37.9260581173" lon="-2.9413390718">
        <ele>943.67</ele>
        <time>2017-10-07T12:23:37Z</time>
      </trkpt>
      <trkpt lat="37.9260483105" lon="-2.9415436741">
        <ele>944.15</ele>
        <time>2017-10-07T12:23:47Z</time>
      </trkpt>
      <trkpt lat="37.9260418564" lon="-2.9415999167">
        <ele>944.63</ele>
        <time>2017-10-07T12:23:50Z</time>
      </trkpt>
      <trkpt lat="37.9260383360" lon="-2.9416204523">
        <ele>944.63</ele>
        <time>2017-10-07T12:23:51Z</time>
      </trkpt>
      <trkpt lat="37.9260352347" lon="-2.9416423291">
        <ele>944.63</ele>
        <time>2017-10-07T12:23:52Z</time>
      </trkpt>
      <trkpt lat="37.9260331392" lon="-2.9416640382">
        <ele>944.63</ele>
        <time>2017-10-07T12:23:53Z</time>
      </trkpt>
      <trkpt lat="37.9260297865" lon="-2.9416839033">
        <ele>945.11</ele>
        <time>2017-10-07T12:23:54Z</time>
      </trkpt>
      <trkpt lat="37.9260069877" lon="-2.9417997412">
        <ele>946.07</ele>
        <time>2017-10-07T12:24:00Z</time>
      </trkpt>
      <trkpt lat="37.9260083288" lon="-2.9418203607">
        <ele>946.07</ele>
        <time>2017-10-07T12:24:01Z</time>
      </trkpt>
      <trkpt lat="37.9260052275" lon="-2.9418397229">
        <ele>946.07</ele>
        <time>2017-10-07T12:24:02Z</time>
      </trkpt>
      <trkpt lat="37.9260022938" lon="-2.9418593366">
        <ele>946.07</ele>
        <time>2017-10-07T12:24:03Z</time>
      </trkpt>
      <trkpt lat="37.9260011204" lon="-2.9418781120">
        <ele>946.56</ele>
        <time>2017-10-07T12:24:04Z</time>
      </trkpt>
      <trkpt lat="37.9259978514" lon="-2.9418957978">
        <ele>946.56</ele>
        <time>2017-10-07T12:24:05Z</time>
      </trkpt>
      <trkpt lat="37.9259883799" lon="-2.9419303313">
        <ele>946.56</ele>
        <time>2017-10-07T12:24:07Z</time>
      </trkpt>
      <trkpt lat="37.9259799141" lon="-2.9419455025">
        <ele>946.56</ele>
        <time>2017-10-07T12:24:08Z</time>
      </trkpt>
      <trkpt lat="37.9259750526" lon="-2.9419614282">
        <ele>947.04</ele>
        <time>2017-10-07T12:24:09Z</time>
      </trkpt>
      <trkpt lat="37.9259694368" lon="-2.9419778567">
        <ele>947.04</ele>
        <time>2017-10-07T12:24:10Z</time>
      </trkpt>
      <trkpt lat="37.9259639885" lon="-2.9419946205">
        <ele>947.52</ele>
        <time>2017-10-07T12:24:11Z</time>
      </trkpt>
      <trkpt lat="37.9259601329" lon="-2.9420113005">
        <ele>947.52</ele>
        <time>2017-10-07T12:24:12Z</time>
      </trkpt>
      <trkpt lat="37.9259515833" lon="-2.9420284834">
        <ele>947.52</ele>
        <time>2017-10-07T12:24:13Z</time>
      </trkpt>
      <trkpt lat="37.9259439558" lon="-2.9420424812">
        <ele>948.00</ele>
        <time>2017-10-07T12:24:14Z</time>
      </trkpt>
      <trkpt lat="37.9259380046" lon="-2.9420574848">
        <ele>948.00</ele>
        <time>2017-10-07T12:24:15Z</time>
      </trkpt>
      <trkpt lat="37.9259281140" lon="-2.9420890845">
        <ele>948.00</ele>
        <time>2017-10-07T12:24:17Z</time>
      </trkpt>
      <trkpt lat="37.9259207379" lon="-2.9421022441">
        <ele>948.48</ele>
        <time>2017-10-07T12:24:18Z</time>
      </trkpt>
      <trkpt lat="37.9259085003" lon="-2.9421343468">
        <ele>948.48</ele>
        <time>2017-10-07T12:24:20Z</time>
      </trkpt>
      <trkpt lat="37.9259015433" lon="-2.9421490990">
        <ele>948.48</ele>
        <time>2017-10-07T12:24:21Z</time>
      </trkpt>
      <trkpt lat="37.9258921556" lon="-2.9421644378">
        <ele>948.96</ele>
        <time>2017-10-07T12:24:22Z</time>
      </trkpt>
      <trkpt lat="37.9258829355" lon="-2.9421785194">
        <ele>948.96</ele>
        <time>2017-10-07T12:24:23Z</time>
      </trkpt>
      <trkpt lat="37.9258745536" lon="-2.9421915952">
        <ele>948.96</ele>
        <time>2017-10-07T12:24:24Z</time>
      </trkpt>
      <trkpt lat="37.9258652497" lon="-2.9422064312">
        <ele>948.96</ele>
        <time>2017-10-07T12:24:25Z</time>
      </trkpt>
      <trkpt lat="37.9258593824" lon="-2.9422230273">
        <ele>949.44</ele>
        <time>2017-10-07T12:24:26Z</time>
      </trkpt>
      <trkpt lat="37.9258648306" lon="-2.9422793537">
        <ele>949.44</ele>
        <time>2017-10-07T12:24:29Z</time>
      </trkpt>
      <trkpt lat="37.9258567840" lon="-2.9422951117">
        <ele>949.44</ele>
        <time>2017-10-07T12:24:30Z</time>
      </trkpt>
      <trkpt lat="37.9258424509" lon="-2.9423094448">
        <ele>949.44</ele>
        <time>2017-10-07T12:24:31Z</time>
      </trkpt>
      <trkpt lat="37.9258262739" lon="-2.9423236102">
        <ele>949.44</ele>
        <time>2017-10-07T12:24:32Z</time>
      </trkpt>
      <trkpt lat="37.9258152936" lon="-2.9423407093">
        <ele>949.44</ele>
        <time>2017-10-07T12:24:33Z</time>
      </trkpt>
      <trkpt lat="37.9258032236" lon="-2.9423678666">
        <ele>949.92</ele>
        <time>2017-10-07T12:24:35Z</time>
      </trkpt>
      <trkpt lat="37.9257896449" lon="-2.9423824511">
        <ele>949.92</ele>
        <time>2017-10-07T12:24:36Z</time>
      </trkpt>
      <trkpt lat="37.9257786646" lon="-2.9423965327">
        <ele>950.40</ele>
        <time>2017-10-07T12:24:37Z</time>
      </trkpt>
      <trkpt lat="37.9257697798" lon="-2.9424108658">
        <ele>950.40</ele>
        <time>2017-10-07T12:24:38Z</time>
      </trkpt>
      <trkpt lat="37.9257641640" lon="-2.9424232710">
        <ele>950.40</ele>
        <time>2017-10-07T12:24:39Z</time>
      </trkpt>
      <trkpt lat="37.9257536866" lon="-2.9424808547">
        <ele>950.40</ele>
        <time>2017-10-07T12:24:42Z</time>
      </trkpt>
      <trkpt lat="37.9257492442" lon="-2.9424997978">
        <ele>950.88</ele>
        <time>2017-10-07T12:24:43Z</time>
      </trkpt>
      <trkpt lat="37.9257451370" lon="-2.9425177351">
        <ele>950.88</ele>
        <time>2017-10-07T12:24:44Z</time>
      </trkpt>
      <trkpt lat="37.9257427063" lon="-2.9425374325">
        <ele>950.88</ele>
        <time>2017-10-07T12:24:45Z</time>
      </trkpt>
      <trkpt lat="37.9257387668" lon="-2.9425552022">
        <ele>950.88</ele>
        <time>2017-10-07T12:24:46Z</time>
      </trkpt>
      <trkpt lat="37.9257357493" lon="-2.9425704572">
        <ele>950.88</ele>
        <time>2017-10-07T12:24:47Z</time>
      </trkpt>
      <trkpt lat="37.9257318936" lon="-2.9425845388">
        <ele>951.36</ele>
        <time>2017-10-07T12:24:48Z</time>
      </trkpt>
      <trkpt lat="37.9257267807" lon="-2.9425969440">
        <ele>951.36</ele>
        <time>2017-10-07T12:24:49Z</time>
      </trkpt>
      <trkpt lat="37.9257220030" lon="-2.9426149651">
        <ele>951.36</ele>
        <time>2017-10-07T12:24:50Z</time>
      </trkpt>
      <trkpt lat="37.9257178120" lon="-2.9426331539">
        <ele>951.84</ele>
        <time>2017-10-07T12:24:51Z</time>
      </trkpt>
      <trkpt lat="37.9256478231" lon="-2.9427914042">
        <ele>952.80</ele>
        <time>2017-10-07T12:25:01Z</time>
      </trkpt>
      <trkpt lat="37.9256441351" lon="-2.9428086709">
        <ele>952.80</ele>
        <time>2017-10-07T12:25:02Z</time>
      </trkpt>
      <trkpt lat="37.9256366752" lon="-2.9428283684">
        <ele>952.80</ele>
        <time>2017-10-07T12:25:03Z</time>
      </trkpt>
      <trkpt lat="37.9256298020" lon="-2.9428462218">
        <ele>953.28</ele>
        <time>2017-10-07T12:25:04Z</time>
      </trkpt>
      <trkpt lat="37.9256210849" lon="-2.9428661708">
        <ele>953.28</ele>
        <time>2017-10-07T12:25:05Z</time>
      </trkpt>
      <trkpt lat="37.9256128706" lon="-2.9428827669">
        <ele>953.28</ele>
        <time>2017-10-07T12:25:06Z</time>
      </trkpt>
      <trkpt lat="37.9255594779" lon="-2.9430199787">
        <ele>954.25</ele>
        <time>2017-10-07T12:25:15Z</time>
      </trkpt>
      <trkpt lat="37.9255176522" lon="-2.9431110062">
        <ele>954.73</ele>
        <time>2017-10-07T12:25:20Z</time>
      </trkpt>
      <trkpt lat="37.9255053308" lon="-2.9431281891">
        <ele>955.21</ele>
        <time>2017-10-07T12:25:21Z</time>
      </trkpt>
      <trkpt lat="37.9254969489" lon="-2.9431433603">
        <ele>955.21</ele>
        <time>2017-10-07T12:25:22Z</time>
      </trkpt>
      <trkpt lat="37.9254909977" lon="-2.9431602918">
        <ele>955.21</ele>
        <time>2017-10-07T12:25:23Z</time>
      </trkpt>
      <trkpt lat="37.9254861362" lon="-2.9431785643">
        <ele>955.21</ele>
        <time>2017-10-07T12:25:24Z</time>
      </trkpt>
      <trkpt lat="37.9254791792" lon="-2.9431944061">
        <ele>955.69</ele>
        <time>2017-10-07T12:25:25Z</time>
      </trkpt>
      <trkpt lat="37.9254695401" lon="-2.9432130139">
        <ele>955.69</ele>
        <time>2017-10-07T12:25:26Z</time>
      </trkpt>
      <trkpt lat="37.9254574701" lon="-2.9432324599">
        <ele>955.69</ele>
        <time>2017-10-07T12:25:27Z</time>
      </trkpt>
      <trkpt lat="37.9253736511" lon="-2.9433701746">
        <ele>956.65</ele>
        <time>2017-10-07T12:25:35Z</time>
      </trkpt>
      <trkpt lat="37.9253164027" lon="-2.9434899520">
        <ele>957.13</ele>
        <time>2017-10-07T12:25:41Z</time>
      </trkpt>
      <trkpt lat="37.9253121279" lon="-2.9435098171">
        <ele>957.61</ele>
        <time>2017-10-07T12:25:42Z</time>
      </trkpt>
      <trkpt lat="37.9253041651" lon="-2.9435236473">
        <ele>957.61</ele>
        <time>2017-10-07T12:25:43Z</time>
      </trkpt>
      <trkpt lat="37.9252972919" lon="-2.9435389023">
        <ele>957.61</ele>
        <time>2017-10-07T12:25:44Z</time>
      </trkpt>
      <trkpt lat="37.9252907541" lon="-2.9435557500">
        <ele>957.61</ele>
        <time>2017-10-07T12:25:45Z</time>
      </trkpt>
      <trkpt lat="37.9252834618" lon="-2.9435719270">
        <ele>957.61</ele>
        <time>2017-10-07T12:25:46Z</time>
      </trkpt>
      <trkpt lat="37.9252443183" lon="-2.9436772037">
        <ele>958.57</ele>
        <time>2017-10-07T12:25:53Z</time>
      </trkpt>
      <trkpt lat="37.9251836333" lon="-2.9437821452">
        <ele>959.53</ele>
        <time>2017-10-07T12:26:01Z</time>
      </trkpt>
      <trkpt lat="37.9251647741" lon="-2.9438155890">
        <ele>960.01</ele>
        <time>2017-10-07T12:26:03Z</time>
      </trkpt>
      <trkpt lat="37.9250552226" lon="-2.9439357854">
        <ele>960.49</ele>
        <time>2017-10-07T12:26:13Z</time>
      </trkpt>
      <trkpt lat="37.9249813780" lon="-2.9440027568">
        <ele>961.46</ele>
        <time>2017-10-07T12:26:19Z</time>
      </trkpt>
      <trkpt lat="37.9248548113" lon="-2.9441610072">
        <ele>962.90</ele>
        <time>2017-10-07T12:26:30Z</time>
      </trkpt>
      <trkpt lat="37.9248035140" lon="-2.9442459997">
        <ele>963.38</ele>
        <time>2017-10-07T12:26:35Z</time>
      </trkpt>
      <trkpt lat="37.9247942939" lon="-2.9442632664">
        <ele>963.38</ele>
        <time>2017-10-07T12:26:36Z</time>
      </trkpt>
      <trkpt lat="37.9247270711" lon="-2.9444891587">
        <ele>964.34</ele>
        <time>2017-10-07T12:26:46Z</time>
      </trkpt>
      <trkpt lat="37.9247057810" lon="-2.9445721395">
        <ele>964.82</ele>
        <time>2017-10-07T12:26:50Z</time>
      </trkpt>
      <trkpt lat="37.9247008357" lon="-2.9445930943">
        <ele>965.30</ele>
        <time>2017-10-07T12:26:51Z</time>
      </trkpt>
      <trkpt lat="37.9246960580" lon="-2.9446141329">
        <ele>965.30</ele>
        <time>2017-10-07T12:26:52Z</time>
      </trkpt>
      <trkpt lat="37.9246921185" lon="-2.9446341656">
        <ele>965.78</ele>
        <time>2017-10-07T12:26:53Z</time>
      </trkpt>
      <trkpt lat="37.9246854968" lon="-2.9446512647">
        <ele>965.78</ele>
        <time>2017-10-07T12:26:54Z</time>
      </trkpt>
      <trkpt lat="37.9246797971" lon="-2.9446675256">
        <ele>965.78</ele>
        <time>2017-10-07T12:26:55Z</time>
      </trkpt>
      <trkpt lat="37.9246757738" lon="-2.9446859658">
        <ele>965.78</ele>
        <time>2017-10-07T12:26:56Z</time>
      </trkpt>
      <trkpt lat="37.9246547353" lon="-2.9447817709">
        <ele>966.74</ele>
        <time>2017-10-07T12:27:01Z</time>
      </trkpt>
      <trkpt lat="37.9246543162" lon="-2.9448006302">
        <ele>966.74</ele>
        <time>2017-10-07T12:27:02Z</time>
      </trkpt>
      <trkpt lat="37.9246478621" lon="-2.9448197410">
        <ele>966.74</ele>
        <time>2017-10-07T12:27:03Z</time>
      </trkpt>
      <trkpt lat="37.9246424139" lon="-2.9448387679">
        <ele>967.22</ele>
        <time>2017-10-07T12:27:04Z</time>
      </trkpt>
      <trkpt lat="37.9246388935" lon="-2.9448580462">
        <ele>967.22</ele>
        <time>2017-10-07T12:27:05Z</time>
      </trkpt>
      <trkpt lat="37.9246358760" lon="-2.9448778275">
        <ele>967.22</ele>
        <time>2017-10-07T12:27:06Z</time>
      </trkpt>
      <trkpt lat="37.9246331938" lon="-2.9448971059">
        <ele>967.70</ele>
        <time>2017-10-07T12:27:07Z</time>
      </trkpt>
      <trkpt lat="37.9246279970" lon="-2.9449170548">
        <ele>967.70</ele>
        <time>2017-10-07T12:27:08Z</time>
      </trkpt>
      <trkpt lat="37.9246135801" lon="-2.9449646641">
        <ele>968.18</ele>
        <time>2017-10-07T12:27:11Z</time>
      </trkpt>
      <trkpt lat="37.9246063717" lon="-2.9449927434">
        <ele>968.67</ele>
        <time>2017-10-07T12:27:13Z</time>
      </trkpt>
      <trkpt lat="37.9246001691" lon="-2.9450102616">
        <ele>968.67</ele>
        <time>2017-10-07T12:27:14Z</time>
      </trkpt>
      <trkpt lat="37.9245908652" lon="-2.9450276960">
        <ele>969.15</ele>
        <time>2017-10-07T12:27:15Z</time>
      </trkpt>
      <trkpt lat="37.9245828185" lon="-2.9450494889">
        <ele>969.15</ele>
        <time>2017-10-07T12:27:16Z</time>
      </trkpt>
      <trkpt lat="37.9245769512" lon="-2.9450708628">
        <ele>969.15</ele>
        <time>2017-10-07T12:27:17Z</time>
      </trkpt>
      <trkpt lat="37.9244648851" lon="-2.9452303704">
        <ele>970.59</ele>
        <time>2017-10-07T12:27:28Z</time>
      </trkpt>
      <trkpt lat="37.9244499654" lon="-2.9452338908">
        <ele>971.55</ele>
        <time>2017-10-07T12:27:29Z</time>
      </trkpt>
      <trkpt lat="37.9244373925" lon="-2.9452402610">
        <ele>971.07</ele>
        <time>2017-10-07T12:27:30Z</time>
      </trkpt>
      <trkpt lat="37.9244255740" lon="-2.9452457093">
        <ele>971.07</ele>
        <time>2017-10-07T12:27:31Z</time>
      </trkpt>
      <trkpt lat="37.9244114086" lon="-2.9452518281">
        <ele>971.07</ele>
        <time>2017-10-07T12:27:32Z</time>
      </trkpt>
      <trkpt lat="37.9243986681" lon="-2.9452669993">
        <ele>971.07</ele>
        <time>2017-10-07T12:27:33Z</time>
      </trkpt>
      <trkpt lat="37.9243874364" lon="-2.9452817515">
        <ele>971.07</ele>
        <time>2017-10-07T12:27:34Z</time>
      </trkpt>
      <trkpt lat="37.9242519010" lon="-2.9454161134">
        <ele>972.51</ele>
        <time>2017-10-07T12:27:44Z</time>
      </trkpt>
      <trkpt lat="37.9242388252" lon="-2.9454291053">
        <ele>972.51</ele>
        <time>2017-10-07T12:27:45Z</time>
      </trkpt>
      <trkpt lat="37.9240921419" lon="-2.9455957375">
        <ele>973.95</ele>
        <time>2017-10-07T12:27:57Z</time>
      </trkpt>
      <trkpt lat="37.9239668325" lon="-2.9457214661">
        <ele>974.91</ele>
        <time>2017-10-07T12:28:07Z</time>
      </trkpt>
      <trkpt lat="37.9238220770" lon="-2.9458414949">
        <ele>976.36</ele>
        <time>2017-10-07T12:28:19Z</time>
      </trkpt>
      <trkpt lat="37.9236954264" lon="-2.9459629487">
        <ele>978.28</ele>
        <time>2017-10-07T12:28:30Z</time>
      </trkpt>
      <trkpt lat="37.9235436302" lon="-2.9460937902">
        <ele>979.24</ele>
        <time>2017-10-07T12:28:41Z</time>
      </trkpt>
      <trkpt lat="37.9234129563" lon="-2.9462027550">
        <ele>980.20</ele>
        <time>2017-10-07T12:28:50Z</time>
      </trkpt>
      <trkpt lat="37.9234022275" lon="-2.9462180939">
        <ele>980.20</ele>
        <time>2017-10-07T12:28:51Z</time>
      </trkpt>
      <trkpt lat="37.9233894031" lon="-2.9462335166">
        <ele>980.68</ele>
        <time>2017-10-07T12:28:52Z</time>
      </trkpt>
      <trkpt lat="37.9233718850" lon="-2.9462475143">
        <ele>980.68</ele>
        <time>2017-10-07T12:28:53Z</time>
      </trkpt>
      <trkpt lat="37.9233554564" lon="-2.9462627694">
        <ele>980.68</ele>
        <time>2017-10-07T12:28:54Z</time>
      </trkpt>
      <trkpt lat="37.9233369324" lon="-2.9462755937">
        <ele>980.68</ele>
        <time>2017-10-07T12:28:55Z</time>
      </trkpt>
      <trkpt lat="37.9233020637" lon="-2.9463190958">
        <ele>981.16</ele>
        <time>2017-10-07T12:28:58Z</time>
      </trkpt>
      <trkpt lat="37.9232091084" lon="-2.9465285596">
        <ele>983.09</ele>
        <time>2017-10-07T12:29:11Z</time>
      </trkpt>
      <trkpt lat="37.9231333360" lon="-2.9466671962">
        <ele>984.05</ele>
        <time>2017-10-07T12:29:21Z</time>
      </trkpt>
      <trkpt lat="37.9230461642" lon="-2.9468270391">
        <ele>985.01</ele>
        <time>2017-10-07T12:29:31Z</time>
      </trkpt>
      <trkpt lat="37.9230199289" lon="-2.9468769953">
        <ele>985.49</ele>
        <time>2017-10-07T12:29:34Z</time>
      </trkpt>
      <trkpt lat="37.9229449108" lon="-2.9470252711">
        <ele>986.45</ele>
        <time>2017-10-07T12:29:42Z</time>
      </trkpt>
      <trkpt lat="37.9228669591" lon="-2.9471800011">
        <ele>987.41</ele>
        <time>2017-10-07T12:29:52Z</time>
      </trkpt>
      <trkpt lat="37.9227634426" lon="-2.9472914804">
        <ele>987.89</ele>
        <time>2017-10-07T12:30:01Z</time>
      </trkpt>
      <trkpt lat="37.9227542225" lon="-2.9473048914">
        <ele>988.37</ele>
        <time>2017-10-07T12:30:02Z</time>
      </trkpt>
      <trkpt lat="37.9226850718" lon="-2.9473874532">
        <ele>988.85</ele>
        <time>2017-10-07T12:30:09Z</time>
      </trkpt>
      <trkpt lat="37.9226702359" lon="-2.9473943263">
        <ele>989.33</ele>
        <time>2017-10-07T12:30:10Z</time>
      </trkpt>
      <trkpt lat="37.9226543941" lon="-2.9474033788">
        <ele>989.33</ele>
        <time>2017-10-07T12:30:11Z</time>
      </trkpt>
      <trkpt lat="37.9226408154" lon="-2.9474175442">
        <ele>989.33</ele>
        <time>2017-10-07T12:30:12Z</time>
      </trkpt>
      <trkpt lat="37.9226267338" lon="-2.9474302009">
        <ele>989.33</ele>
        <time>2017-10-07T12:30:13Z</time>
      </trkpt>
      <trkpt lat="37.9226124845" lon="-2.9474407621">
        <ele>987.89</ele>
        <time>2017-10-07T12:30:14Z</time>
      </trkpt>
      <trkpt lat="37.9225720838" lon="-2.9474757146">
        <ele>991.26</ele>
        <time>2017-10-07T12:30:17Z</time>
      </trkpt>
      <trkpt lat="37.9225639533" lon="-2.9474882036">
        <ele>991.74</ele>
        <time>2017-10-07T12:30:18Z</time>
      </trkpt>
      <trkpt lat="37.9225545656" lon="-2.9475065600">
        <ele>989.33</ele>
        <time>2017-10-07T12:30:19Z</time>
      </trkpt>
      <trkpt lat="37.9225464351" lon="-2.9475214798">
        <ele>990.30</ele>
        <time>2017-10-07T12:30:20Z</time>
      </trkpt>
      <trkpt lat="37.9225401487" lon="-2.9475407582">
        <ele>990.30</ele>
        <time>2017-10-07T12:30:21Z</time>
      </trkpt>
      <trkpt lat="37.9225331079" lon="-2.9475643113">
        <ele>989.81</ele>
        <time>2017-10-07T12:30:22Z</time>
      </trkpt>
      <trkpt lat="37.9225264024" lon="-2.9475877807">
        <ele>989.81</ele>
        <time>2017-10-07T12:30:23Z</time>
      </trkpt>
      <trkpt lat="37.9224544019" lon="-2.9477927182">
        <ele>991.74</ele>
        <time>2017-10-07T12:30:33Z</time>
      </trkpt>
      <trkpt lat="37.9224516358" lon="-2.9478166904">
        <ele>991.74</ele>
        <time>2017-10-07T12:30:34Z</time>
      </trkpt>
      <trkpt lat="37.9223684873" lon="-2.9480328597">
        <ele>993.66</ele>
        <time>2017-10-07T12:30:45Z</time>
      </trkpt>
      <trkpt lat="37.9222793039" lon="-2.9481554031">
        <ele>994.14</ele>
        <time>2017-10-07T12:30:54Z</time>
      </trkpt>
      <trkpt lat="37.9222798068" lon="-2.9481748492">
        <ele>994.62</ele>
        <time>2017-10-07T12:31:04Z</time>
      </trkpt>
      <trkpt lat="37.9222722631" lon="-2.9481896013">
        <ele>994.62</ele>
        <time>2017-10-07T12:31:23Z</time>
      </trkpt>
      <trkpt lat="37.9222751129" lon="-2.9481848236">
        <ele>994.62</ele>
        <time>2017-10-07T12:31:38Z</time>
      </trkpt>
      <trkpt lat="37.9222772922" lon="-2.9481596779">
        <ele>995.10</ele>
        <time>2017-10-07T12:32:02Z</time>
      </trkpt>
      <trkpt lat="37.9222760350" lon="-2.9481605161">
        <ele>995.10</ele>
        <time>2017-10-07T12:32:25Z</time>
      </trkpt>
      <trkpt lat="37.9222725984" lon="-2.9481653776">
        <ele>998.95</ele>
        <time>2017-10-07T12:32:44Z</time>
      </trkpt>
      <trkpt lat="37.9222725984" lon="-2.9481654614">
        <ele>995.58</ele>
        <time>2017-10-07T12:32:45Z</time>
      </trkpt>
      <trkpt lat="37.9222725984" lon="-2.9481654614">
        <ele>994.62</ele>
        <time>2017-10-07T12:32:47Z</time>
      </trkpt>
      <trkpt lat="37.9222479556" lon="-2.9481635336">
        <ele>995.10</ele>
        <time>2017-10-07T12:32:56Z</time>
      </trkpt>
      <trkpt lat="37.9222327005" lon="-2.9481684789">
        <ele>995.10</ele>
        <time>2017-10-07T12:32:57Z</time>
      </trkpt>
      <trkpt lat="37.9220887832" lon="-2.9482669663">
        <ele>996.06</ele>
        <time>2017-10-07T12:33:06Z</time>
      </trkpt>
      <trkpt lat="37.9219345562" lon="-2.9483702313">
        <ele>997.02</ele>
        <time>2017-10-07T12:33:16Z</time>
      </trkpt>
      <trkpt lat="37.9218867794" lon="-2.9484144039">
        <ele>997.99</ele>
        <time>2017-10-07T12:33:20Z</time>
      </trkpt>
      <trkpt lat="37.9218740389" lon="-2.9484333470">
        <ele>997.99</ele>
        <time>2017-10-07T12:33:21Z</time>
      </trkpt>
      <trkpt lat="37.9217778984" lon="-2.9485485982">
        <ele>999.91</ele>
        <time>2017-10-07T12:33:29Z</time>
      </trkpt>
      <trkpt lat="37.9217588715" lon="-2.9485580698">
        <ele>999.43</ele>
        <time>2017-10-07T12:33:30Z</time>
      </trkpt>
      <trkpt lat="37.9217411857" lon="-2.9485667031">
        <ele>999.43</ele>
        <time>2017-10-07T12:33:31Z</time>
      </trkpt>
      <trkpt lat="37.9216589592" lon="-2.9486242030">
        <ele>1000.39</ele>
        <time>2017-10-07T12:33:37Z</time>
      </trkpt>
      <trkpt lat="37.9216436204" lon="-2.9486327525">
        <ele>1000.39</ele>
        <time>2017-10-07T12:33:38Z</time>
      </trkpt>
      <trkpt lat="37.9216261022" lon="-2.9486443195">
        <ele>1000.39</ele>
        <time>2017-10-07T12:33:39Z</time>
      </trkpt>
      <trkpt lat="37.9216052312" lon="-2.9486528691">
        <ele>1000.39</ele>
        <time>2017-10-07T12:33:40Z</time>
      </trkpt>
      <trkpt lat="37.9215836059" lon="-2.9486587364">
        <ele>1000.87</ele>
        <time>2017-10-07T12:33:41Z</time>
      </trkpt>
      <trkpt lat="37.9215623159" lon="-2.9486666992">
        <ele>1000.87</ele>
        <time>2017-10-07T12:33:42Z</time>
      </trkpt>
      <trkpt lat="37.9215468094" lon="-2.9486750811">
        <ele>1000.87</ele>
        <time>2017-10-07T12:33:43Z</time>
      </trkpt>
      <trkpt lat="37.9215322249" lon="-2.9486808646">
        <ele>1000.87</ele>
        <time>2017-10-07T12:33:44Z</time>
      </trkpt>
      <trkpt lat="37.9215178918" lon="-2.9486848041">
        <ele>1001.35</ele>
        <time>2017-10-07T12:33:45Z</time>
      </trkpt>
      <trkpt lat="37.9215055704" lon="-2.9486904200">
        <ele>1001.35</ele>
        <time>2017-10-07T12:33:46Z</time>
      </trkpt>
      <trkpt lat="37.9214940872" lon="-2.9486929346">
        <ele>1001.35</ele>
        <time>2017-10-07T12:33:47Z</time>
      </trkpt>
      <trkpt lat="37.9214797541" lon="-2.9486936051">
        <ele>1001.35</ele>
        <time>2017-10-07T12:33:48Z</time>
      </trkpt>
      <trkpt lat="37.9214647505" lon="-2.9486978799">
        <ele>1001.83</ele>
        <time>2017-10-07T12:33:49Z</time>
      </trkpt>
      <trkpt lat="37.9214455560" lon="-2.9487027414">
        <ele>1001.83</ele>
        <time>2017-10-07T12:33:50Z</time>
      </trkpt>
      <trkpt lat="37.9213507567" lon="-2.9487217683">
        <ele>1002.31</ele>
        <time>2017-10-07T12:33:56Z</time>
      </trkpt>
      <trkpt lat="37.9213424586" lon="-2.9487336706">
        <ele>1002.79</ele>
        <time>2017-10-07T12:33:57Z</time>
      </trkpt>
      <trkpt lat="37.9212422948" lon="-2.9487827048">
        <ele>1003.75</ele>
        <time>2017-10-07T12:34:05Z</time>
      </trkpt>
      <trkpt lat="37.9212256148" lon="-2.9487873986">
        <ele>1003.75</ele>
        <time>2017-10-07T12:34:06Z</time>
      </trkpt>
      <trkpt lat="37.9212104436" lon="-2.9487930983">
        <ele>1003.75</ele>
        <time>2017-10-07T12:34:07Z</time>
      </trkpt>
      <trkpt lat="37.9211956076" lon="-2.9487973731">
        <ele>1003.75</ele>
        <time>2017-10-07T12:34:08Z</time>
      </trkpt>
      <trkpt lat="37.9211807717" lon="-2.9488032404">
        <ele>1004.23</ele>
        <time>2017-10-07T12:34:09Z</time>
      </trkpt>
      <trkpt lat="37.9211655166" lon="-2.9488064256">
        <ele>1004.23</ele>
        <time>2017-10-07T12:34:10Z</time>
      </trkpt>
      <trkpt lat="37.9211491719" lon="-2.9488024861">
        <ele>1004.23</ele>
        <time>2017-10-07T12:34:11Z</time>
      </trkpt>
      <trkpt lat="37.9210014828" lon="-2.9488303140">
        <ele>1005.68</ele>
        <time>2017-10-07T12:34:20Z</time>
      </trkpt>
      <trkpt lat="37.9208796099" lon="-2.9488039110">
        <ele>1006.16</ele>
        <time>2017-10-07T12:34:26Z</time>
      </trkpt>
      <trkpt lat="37.9208604153" lon="-2.9488062579">
        <ele>1006.16</ele>
        <time>2017-10-07T12:34:27Z</time>
      </trkpt>
      <trkpt lat="37.9208432324" lon="-2.9488050006">
        <ele>1006.64</ele>
        <time>2017-10-07T12:34:28Z</time>
      </trkpt>
      <trkpt lat="37.9208257981" lon="-2.9488038272">
        <ele>1006.64</ele>
        <time>2017-10-07T12:34:29Z</time>
      </trkpt>
      <trkpt lat="37.9208074417" lon="-2.9488046654">
        <ele>1006.64</ele>
        <time>2017-10-07T12:34:30Z</time>
      </trkpt>
      <trkpt lat="37.9207925219" lon="-2.9488019831">
        <ele>1006.64</ele>
        <time>2017-10-07T12:34:31Z</time>
      </trkpt>
      <trkpt lat="37.9207785241" lon="-2.9487954453">
        <ele>1007.12</ele>
        <time>2017-10-07T12:34:32Z</time>
      </trkpt>
      <trkpt lat="37.9207625985" lon="-2.9487871472">
        <ele>1007.12</ele>
        <time>2017-10-07T12:34:33Z</time>
      </trkpt>
      <trkpt lat="37.9207444936" lon="-2.9487785138">
        <ele>1007.12</ele>
        <time>2017-10-07T12:34:34Z</time>
      </trkpt>
      <trkpt lat="37.9207271431" lon="-2.9487691261">
        <ele>1007.12</ele>
        <time>2017-10-07T12:34:35Z</time>
      </trkpt>
      <trkpt lat="37.9207100440" lon="-2.9487630911">
        <ele>1007.60</ele>
        <time>2017-10-07T12:34:36Z</time>
      </trkpt>
      <trkpt lat="37.9206925258" lon="-2.9487522785">
        <ele>1007.60</ele>
        <time>2017-10-07T12:34:37Z</time>
      </trkpt>
      <trkpt lat="37.9206779413" lon="-2.9487401247">
        <ele>1007.60</ele>
        <time>2017-10-07T12:34:38Z</time>
      </trkpt>
      <trkpt lat="37.9206631891" lon="-2.9487288091">
        <ele>1008.08</ele>
        <time>2017-10-07T12:34:39Z</time>
      </trkpt>
      <trkpt lat="37.9204557370" lon="-2.9486114625">
        <ele>1009.52</ele>
        <time>2017-10-07T12:34:51Z</time>
      </trkpt>
      <trkpt lat="37.9202831537" lon="-2.9485356063">
        <ele>1010.48</ele>
        <time>2017-10-07T12:35:02Z</time>
      </trkpt>
      <trkpt lat="37.9202693235" lon="-2.9485288169">
        <ele>1010.96</ele>
        <time>2017-10-07T12:35:03Z</time>
      </trkpt>
      <trkpt lat="37.9202329461" lon="-2.9484953731">
        <ele>1010.96</ele>
        <time>2017-10-07T12:35:06Z</time>
      </trkpt>
      <trkpt lat="37.9202204570" lon="-2.9484879132">
        <ele>1010.96</ele>
        <time>2017-10-07T12:35:07Z</time>
      </trkpt>
      <trkpt lat="37.9202078003" lon="-2.9484788608">
        <ele>1011.44</ele>
        <time>2017-10-07T12:35:08Z</time>
      </trkpt>
      <trkpt lat="37.9201531503" lon="-2.9484463390">
        <ele>1011.93</ele>
        <time>2017-10-07T12:35:12Z</time>
      </trkpt>
      <trkpt lat="37.9201376438" lon="-2.9484366160">
        <ele>1011.93</ele>
        <time>2017-10-07T12:35:13Z</time>
      </trkpt>
      <trkpt lat="37.9201220535" lon="-2.9484277312">
        <ele>1011.44</ele>
        <time>2017-10-07T12:35:14Z</time>
      </trkpt>
      <trkpt lat="37.9199534096" lon="-2.9483442474">
        <ele>1013.37</ele>
        <time>2017-10-07T12:35:26Z</time>
      </trkpt>
      <trkpt lat="37.9197748750" lon="-2.9483091272">
        <ele>1014.33</ele>
        <time>2017-10-07T12:35:37Z</time>
      </trkpt>
      <trkpt lat="37.9197072331" lon="-2.9483290762">
        <ele>1014.81</ele>
        <time>2017-10-07T12:35:41Z</time>
      </trkpt>
      <trkpt lat="37.9196896311" lon="-2.9483389668">
        <ele>1014.81</ele>
        <time>2017-10-07T12:35:42Z</time>
      </trkpt>
      <trkpt lat="37.9196751304" lon="-2.9483444151">
        <ele>1015.29</ele>
        <time>2017-10-07T12:35:43Z</time>
      </trkpt>
      <trkpt lat="37.9196645692" lon="-2.9483520426">
        <ele>1015.29</ele>
        <time>2017-10-07T12:35:44Z</time>
      </trkpt>
      <trkpt lat="37.9196514096" lon="-2.9483620171">
        <ele>1015.29</ele>
        <time>2017-10-07T12:35:45Z</time>
      </trkpt>
      <trkpt lat="37.9196356516" lon="-2.9483734164">
        <ele>1015.29</ele>
        <time>2017-10-07T12:35:46Z</time>
      </trkpt>
      <trkpt lat="37.9196208157" lon="-2.9483857378">
        <ele>1015.77</ele>
        <time>2017-10-07T12:35:47Z</time>
      </trkpt>
      <trkpt lat="37.9194622301" lon="-2.9485150706">
        <ele>1017.21</ele>
        <time>2017-10-07T12:35:58Z</time>
      </trkpt>
      <trkpt lat="37.9194105975" lon="-2.9485654458">
        <ele>1017.69</ele>
        <time>2017-10-07T12:36:02Z</time>
      </trkpt>
      <trkpt lat="37.9193945881" lon="-2.9485747498">
        <ele>1017.69</ele>
        <time>2017-10-07T12:36:03Z</time>
      </trkpt>
      <trkpt lat="37.9192561191" lon="-2.9486988857">
        <ele>1019.13</ele>
        <time>2017-10-07T12:36:14Z</time>
      </trkpt>
      <trkpt lat="37.9190861341" lon="-2.9488910828">
        <ele>1021.06</ele>
        <time>2017-10-07T12:36:27Z</time>
      </trkpt>
      <trkpt lat="37.9190139659" lon="-2.9490137938">
        <ele>1022.02</ele>
        <time>2017-10-07T12:36:35Z</time>
      </trkpt>
      <trkpt lat="37.9190096911" lon="-2.9490308929">
        <ele>1022.02</ele>
        <time>2017-10-07T12:36:36Z</time>
      </trkpt>
      <trkpt lat="37.9190048296" lon="-2.9490453936">
        <ele>1022.02</ele>
        <time>2017-10-07T12:36:37Z</time>
      </trkpt>
      <trkpt lat="37.9189476650" lon="-2.9492771532">
        <ele>1023.46</ele>
        <time>2017-10-07T12:36:49Z</time>
      </trkpt>
      <trkpt lat="37.9189514369" lon="-2.9492980242">
        <ele>1023.46</ele>
        <time>2017-10-07T12:36:50Z</time>
      </trkpt>
      <trkpt lat="37.9189952742" lon="-2.9494515806">
        <ele>1024.90</ele>
        <time>2017-10-07T12:37:00Z</time>
      </trkpt>
      <trkpt lat="37.9190013930" lon="-2.9494597111">
        <ele>1024.90</ele>
        <time>2017-10-07T12:37:01Z</time>
      </trkpt>
      <trkpt lat="37.9190239403" lon="-2.9494793247">
        <ele>1025.38</ele>
        <time>2017-10-07T12:37:03Z</time>
      </trkpt>
      <trkpt lat="37.9190373514" lon="-2.9494946636">
        <ele>1025.38</ele>
        <time>2017-10-07T12:37:04Z</time>
      </trkpt>
      <trkpt lat="37.9190516844" lon="-2.9495104216">
        <ele>1025.38</ele>
        <time>2017-10-07T12:37:05Z</time>
      </trkpt>
      <trkpt lat="37.9190661851" lon="-2.9495270178">
        <ele>1025.38</ele>
        <time>2017-10-07T12:37:06Z</time>
      </trkpt>
      <trkpt lat="37.9190820269" lon="-2.9495416023">
        <ele>1025.86</ele>
        <time>2017-10-07T12:37:07Z</time>
      </trkpt>
      <trkpt lat="37.9190973658" lon="-2.9495571088">
        <ele>1025.86</ele>
        <time>2017-10-07T12:37:08Z</time>
      </trkpt>
      <trkpt lat="37.9191076756" lon="-2.9495727830">
        <ele>1022.98</ele>
        <time>2017-10-07T12:37:09Z</time>
      </trkpt>
      <trkpt lat="37.9191190749" lon="-2.9495860264">
        <ele>1027.79</ele>
        <time>2017-10-07T12:37:10Z</time>
      </trkpt>
      <trkpt lat="37.9191318154" lon="-2.9495958332">
        <ele>1026.34</ele>
        <time>2017-10-07T12:37:11Z</time>
      </trkpt>
      <trkpt lat="37.9191422928" lon="-2.9496062268">
        <ele>1026.34</ele>
        <time>2017-10-07T12:37:12Z</time>
      </trkpt>
      <trkpt lat="37.9192006309" lon="-2.9496479686">
        <ele>1027.31</ele>
        <time>2017-10-07T12:37:17Z</time>
      </trkpt>
      <trkpt lat="37.9192101024" lon="-2.9496652354">
        <ele>1026.83</ele>
        <time>2017-10-07T12:37:18Z</time>
      </trkpt>
      <trkpt lat="37.9192204122" lon="-2.9496803228">
        <ele>1027.31</ele>
        <time>2017-10-07T12:37:19Z</time>
      </trkpt>
      <trkpt lat="37.9192960169" lon="-2.9497836716">
        <ele>1028.27</ele>
        <time>2017-10-07T12:37:26Z</time>
      </trkpt>
      <trkpt lat="37.9193427879" lon="-2.9499265831">
        <ele>1029.23</ele>
        <time>2017-10-07T12:37:33Z</time>
      </trkpt>
      <trkpt lat="37.9193342384" lon="-2.9500838276">
        <ele>1030.67</ele>
        <time>2017-10-07T12:37:42Z</time>
      </trkpt>
      <trkpt lat="37.9193261079" lon="-2.9500960652">
        <ele>1030.67</ele>
        <time>2017-10-07T12:37:43Z</time>
      </trkpt>
      <trkpt lat="37.9193276167" lon="-2.9501222167">
        <ele>1031.15</ele>
        <time>2017-10-07T12:37:45Z</time>
      </trkpt>
      <trkpt lat="37.9193248507" lon="-2.9501394834">
        <ele>1031.15</ele>
        <time>2017-10-07T12:37:46Z</time>
      </trkpt>
      <trkpt lat="37.9193051532" lon="-2.9502406530">
        <ele>1032.11</ele>
        <time>2017-10-07T12:37:52Z</time>
      </trkpt>
      <trkpt lat="37.9192927480" lon="-2.9502600152">
        <ele>1032.11</ele>
        <time>2017-10-07T12:37:53Z</time>
      </trkpt>
      <trkpt lat="37.9192814324" lon="-2.9502822272">
        <ele>1032.59</ele>
        <time>2017-10-07T12:37:54Z</time>
      </trkpt>
      <trkpt lat="37.9192685243" lon="-2.9503064509">
        <ele>1032.59</ele>
        <time>2017-10-07T12:37:55Z</time>
      </trkpt>
      <trkpt lat="37.9192538559" lon="-2.9503267352">
        <ele>1032.59</ele>
        <time>2017-10-07T12:37:56Z</time>
      </trkpt>
      <trkpt lat="37.9191407003" lon="-2.9504084587">
        <ele>1033.55</ele>
        <time>2017-10-07T12:38:04Z</time>
      </trkpt>
      <trkpt lat="37.9191282950" lon="-2.9504171759">
        <ele>1033.55</ele>
        <time>2017-10-07T12:38:05Z</time>
      </trkpt>
      <trkpt lat="37.9191152193" lon="-2.9504253902">
        <ele>1033.55</ele>
        <time>2017-10-07T12:38:06Z</time>
      </trkpt>
      <trkpt lat="37.9191027302" lon="-2.9504346941">
        <ele>1033.55</ele>
        <time>2017-10-07T12:38:07Z</time>
      </trkpt>
      <trkpt lat="37.9190914147" lon="-2.9504470155">
        <ele>1034.04</ele>
        <time>2017-10-07T12:38:08Z</time>
      </trkpt>
      <trkpt lat="37.9190800153" lon="-2.9504587501">
        <ele>1034.04</ele>
        <time>2017-10-07T12:38:09Z</time>
      </trkpt>
      <trkpt lat="37.9190679453" lon="-2.9504693113">
        <ele>1034.04</ele>
        <time>2017-10-07T12:38:10Z</time>
      </trkpt>
      <trkpt lat="37.9190526064" lon="-2.9504792020">
        <ele>1034.04</ele>
        <time>2017-10-07T12:38:11Z</time>
      </trkpt>
      <trkpt lat="37.9190381058" lon="-2.9504906852">
        <ele>1034.04</ele>
        <time>2017-10-07T12:38:12Z</time>
      </trkpt>
      <trkpt lat="37.9190250300" lon="-2.9505074490">
        <ele>1034.04</ele>
        <time>2017-10-07T12:38:13Z</time>
      </trkpt>
      <trkpt lat="37.9190120380" lon="-2.9505209439">
        <ele>1034.52</ele>
        <time>2017-10-07T12:38:14Z</time>
      </trkpt>
      <trkpt lat="37.9189973697" lon="-2.9505325109">
        <ele>1034.52</ele>
        <time>2017-10-07T12:38:15Z</time>
      </trkpt>
      <trkpt lat="37.9189816117" lon="-2.9505379591">
        <ele>1034.52</ele>
        <time>2017-10-07T12:38:16Z</time>
      </trkpt>
      <trkpt lat="37.9189655185" lon="-2.9505411442">
        <ele>1035.00</ele>
        <time>2017-10-07T12:38:17Z</time>
      </trkpt>
      <trkpt lat="37.9189540353" lon="-2.9505439941">
        <ele>1035.00</ele>
        <time>2017-10-07T12:38:18Z</time>
      </trkpt>
      <trkpt lat="37.9189391155" lon="-2.9505502805">
        <ele>1035.48</ele>
        <time>2017-10-07T12:38:19Z</time>
      </trkpt>
      <trkpt lat="37.9189223517" lon="-2.9505584948">
        <ele>1035.00</ele>
        <time>2017-10-07T12:38:20Z</time>
      </trkpt>
      <trkpt lat="37.9189061746" lon="-2.9505667090">
        <ele>1035.48</ele>
        <time>2017-10-07T12:38:21Z</time>
      </trkpt>
      <trkpt lat="37.9188936017" lon="-2.9505748395">
        <ele>1035.48</ele>
        <time>2017-10-07T12:38:22Z</time>
      </trkpt>
      <trkpt lat="37.9188828729" lon="-2.9505834728">
        <ele>1035.48</ele>
        <time>2017-10-07T12:38:23Z</time>
      </trkpt>
      <trkpt lat="37.9188705515" lon="-2.9505937826">
        <ele>1035.96</ele>
        <time>2017-10-07T12:38:24Z</time>
      </trkpt>
      <trkpt lat="37.9187884927" lon="-2.9506914318">
        <ele>1036.92</ele>
        <time>2017-10-07T12:38:33Z</time>
      </trkpt>
      <trkpt lat="37.9186848085" lon="-2.9507636838">
        <ele>1037.88</ele>
        <time>2017-10-07T12:38:41Z</time>
      </trkpt>
      <trkpt lat="37.9185571522" lon="-2.9508821201">
        <ele>1038.84</ele>
        <time>2017-10-07T12:38:53Z</time>
      </trkpt>
      <trkpt lat="37.9184170906" lon="-2.9509837925">
        <ele>1040.28</ele>
        <time>2017-10-07T12:39:04Z</time>
      </trkpt>
      <trkpt lat="37.9183353670" lon="-2.9510702100">
        <ele>1040.76</ele>
        <time>2017-10-07T12:39:10Z</time>
      </trkpt>
      <trkpt lat="37.9183180165" lon="-2.9510771669">
        <ele>1040.76</ele>
        <time>2017-10-07T12:39:11Z</time>
      </trkpt>
      <trkpt lat="37.9182131588" lon="-2.9511310626">
        <ele>1041.73</ele>
        <time>2017-10-07T12:39:18Z</time>
      </trkpt>
      <trkpt lat="37.9181975685" lon="-2.9511401150">
        <ele>1042.21</ele>
        <time>2017-10-07T12:39:19Z</time>
      </trkpt>
      <trkpt lat="37.9181393981" lon="-2.9511820246">
        <ele>1042.69</ele>
        <time>2017-10-07T12:39:23Z</time>
      </trkpt>
      <trkpt lat="37.9181285854" lon="-2.9511912446">
        <ele>1042.69</ele>
        <time>2017-10-07T12:39:24Z</time>
      </trkpt>
      <trkpt lat="37.9181156773" lon="-2.9512055777">
        <ele>1042.69</ele>
        <time>2017-10-07T12:39:25Z</time>
      </trkpt>
      <trkpt lat="37.9181046970" lon="-2.9512199946">
        <ele>1043.17</ele>
        <time>2017-10-07T12:39:26Z</time>
      </trkpt>
      <trkpt lat="37.9180943035" lon="-2.9512313101">
        <ele>1043.17</ele>
        <time>2017-10-07T12:39:27Z</time>
      </trkpt>
      <trkpt lat="37.9180792999" lon="-2.9512399435">
        <ele>1043.17</ele>
        <time>2017-10-07T12:39:28Z</time>
      </trkpt>
      <trkpt lat="37.9180625360" lon="-2.9512468167">
        <ele>1043.65</ele>
        <time>2017-10-07T12:39:29Z</time>
      </trkpt>
      <trkpt lat="37.9180472810" lon="-2.9512541927">
        <ele>1044.13</ele>
        <time>2017-10-07T12:39:30Z</time>
      </trkpt>
      <trkpt lat="37.9180321097" lon="-2.9512637481">
        <ele>1043.65</ele>
        <time>2017-10-07T12:39:31Z</time>
      </trkpt>
      <trkpt lat="37.9178259987" lon="-2.9513670970">
        <ele>1045.09</ele>
        <time>2017-10-07T12:39:42Z</time>
      </trkpt>
      <trkpt lat="37.9176875297" lon="-2.9513694439">
        <ele>1046.53</ele>
        <time>2017-10-07T12:39:52Z</time>
      </trkpt>
      <trkpt lat="37.9175181314" lon="-2.9513292946">
        <ele>1047.49</ele>
        <time>2017-10-07T12:40:04Z</time>
      </trkpt>
      <trkpt lat="37.9173430335" lon="-2.9512502532">
        <ele>1048.94</ele>
        <time>2017-10-07T12:40:15Z</time>
      </trkpt>
      <trkpt lat="37.9171410296" lon="-2.9512323160">
        <ele>1050.38</ele>
        <time>2017-10-07T12:40:27Z</time>
      </trkpt>
      <trkpt lat="37.9171251878" lon="-2.9512329027">
        <ele>1050.86</ele>
        <time>2017-10-07T12:40:28Z</time>
      </trkpt>
      <trkpt lat="37.9171088431" lon="-2.9512379318">
        <ele>1050.86</ele>
        <time>2017-10-07T12:40:29Z</time>
      </trkpt>
      <trkpt lat="37.9170914087" lon="-2.9512465652">
        <ele>1050.86</ele>
        <time>2017-10-07T12:40:30Z</time>
      </trkpt>
      <trkpt lat="37.9170754831" lon="-2.9512573779">
        <ele>1051.34</ele>
        <time>2017-10-07T12:40:31Z</time>
      </trkpt>
      <trkpt lat="37.9170605633" lon="-2.9512671009">
        <ele>1051.34</ele>
        <time>2017-10-07T12:40:32Z</time>
      </trkpt>
      <trkpt lat="37.9170471523" lon="-2.9512774944">
        <ele>1051.34</ele>
        <time>2017-10-07T12:40:33Z</time>
      </trkpt>
      <trkpt lat="37.9170327354" lon="-2.9512890615">
        <ele>1051.34</ele>
        <time>2017-10-07T12:40:34Z</time>
      </trkpt>
      <trkpt lat="37.9169078451" lon="-2.9514325596">
        <ele>1052.78</ele>
        <time>2017-10-07T12:40:44Z</time>
      </trkpt>
      <trkpt lat="37.9168700427" lon="-2.9516708571">
        <ele>1054.22</ele>
        <time>2017-10-07T12:40:55Z</time>
      </trkpt>
      <trkpt lat="37.9169028997" lon="-2.9518234916">
        <ele>1055.67</ele>
        <time>2017-10-07T12:41:02Z</time>
      </trkpt>
      <trkpt lat="37.9169086833" lon="-2.9518456198">
        <ele>1055.67</ele>
        <time>2017-10-07T12:41:03Z</time>
      </trkpt>
      <trkpt lat="37.9169298057" lon="-2.9519041255">
        <ele>1056.15</ele>
        <time>2017-10-07T12:41:06Z</time>
      </trkpt>
      <trkpt lat="37.9169341642" lon="-2.9519208893">
        <ele>1056.63</ele>
        <time>2017-10-07T12:41:07Z</time>
      </trkpt>
      <trkpt lat="37.9169370979" lon="-2.9519428499">
        <ele>1056.63</ele>
        <time>2017-10-07T12:41:08Z</time>
      </trkpt>
      <trkpt lat="37.9169588909" lon="-2.9520648066">
        <ele>1057.59</ele>
        <time>2017-10-07T12:41:14Z</time>
      </trkpt>
      <trkpt lat="37.9169587232" lon="-2.9520857614">
        <ele>1057.59</ele>
        <time>2017-10-07T12:41:15Z</time>
      </trkpt>
      <trkpt lat="37.9169607349" lon="-2.9521092307">
        <ele>1057.59</ele>
        <time>2017-10-07T12:41:16Z</time>
      </trkpt>
      <trkpt lat="37.9169559572" lon="-2.9522300977">
        <ele>1058.55</ele>
        <time>2017-10-07T12:41:21Z</time>
      </trkpt>
      <trkpt lat="37.9169522692" lon="-2.9522526450">
        <ele>1058.55</ele>
        <time>2017-10-07T12:41:22Z</time>
      </trkpt>
      <trkpt lat="37.9169443902" lon="-2.9522707500">
        <ele>1058.55</ele>
        <time>2017-10-07T12:41:23Z</time>
      </trkpt>
      <trkpt lat="37.9169355892" lon="-2.9522877652">
        <ele>1059.03</ele>
        <time>2017-10-07T12:41:24Z</time>
      </trkpt>
      <trkpt lat="37.9169290513" lon="-2.9523043614">
        <ele>1059.03</ele>
        <time>2017-10-07T12:41:25Z</time>
      </trkpt>
      <trkpt lat="37.9169200826" lon="-2.9523196165">
        <ele>1059.03</ele>
        <time>2017-10-07T12:41:26Z</time>
      </trkpt>
      <trkpt lat="37.9169106949" lon="-2.9523357935">
        <ele>1059.51</ele>
        <time>2017-10-07T12:41:27Z</time>
      </trkpt>
      <trkpt lat="37.9169023130" lon="-2.9523534793">
        <ele>1059.51</ele>
        <time>2017-10-07T12:41:28Z</time>
      </trkpt>
      <trkpt lat="37.9167910852" lon="-2.9525903519">
        <ele>1060.47</ele>
        <time>2017-10-07T12:41:40Z</time>
      </trkpt>
      <trkpt lat="37.9166931845" lon="-2.9528061021">
        <ele>1061.91</ele>
        <time>2017-10-07T12:41:51Z</time>
      </trkpt>
      <trkpt lat="37.9166732356" lon="-2.9530627560">
        <ele>1063.84</ele>
        <time>2017-10-07T12:42:03Z</time>
      </trkpt>
      <trkpt lat="37.9166738223" lon="-2.9532948509">
        <ele>1064.80</ele>
        <time>2017-10-07T12:42:13Z</time>
      </trkpt>
      <trkpt lat="37.9166729841" lon="-2.9535649996">
        <ele>1066.24</ele>
        <time>2017-10-07T12:42:24Z</time>
      </trkpt>
      <trkpt lat="37.9166673683" lon="-2.9535887204">
        <ele>1066.24</ele>
        <time>2017-10-07T12:42:25Z</time>
      </trkpt>
      <trkpt lat="37.9166668653" lon="-2.9536112677">
        <ele>1066.24</ele>
        <time>2017-10-07T12:42:26Z</time>
      </trkpt>
      <trkpt lat="37.9166689608" lon="-2.9536343180">
        <ele>1066.72</ele>
        <time>2017-10-07T12:42:27Z</time>
      </trkpt>
      <trkpt lat="37.9166718945" lon="-2.9536573682">
        <ele>1066.72</ele>
        <time>2017-10-07T12:42:28Z</time>
      </trkpt>
      <trkpt lat="37.9166735709" lon="-2.9539156985">
        <ele>1067.68</ele>
        <time>2017-10-07T12:42:39Z</time>
      </trkpt>
      <trkpt lat="37.9166791867" lon="-2.9539942369">
        <ele>1068.64</ele>
        <time>2017-10-07T12:42:43Z</time>
      </trkpt>
      <trkpt lat="37.9166834615" lon="-2.9540149402">
        <ele>1068.64</ele>
        <time>2017-10-07T12:42:44Z</time>
      </trkpt>
      <trkpt lat="37.9166886583" lon="-2.9540383257">
        <ele>1069.12</ele>
        <time>2017-10-07T12:42:45Z</time>
      </trkpt>
      <trkpt lat="37.9166917596" lon="-2.9540622979">
        <ele>1069.12</ele>
        <time>2017-10-07T12:42:46Z</time>
      </trkpt>
      <trkpt lat="37.9166917596" lon="-2.9540840909">
        <ele>1069.12</ele>
        <time>2017-10-07T12:42:47Z</time>
      </trkpt>
      <trkpt lat="37.9166835453" lon="-2.9541011062">
        <ele>1069.12</ele>
        <time>2017-10-07T12:42:48Z</time>
      </trkpt>
      <trkpt lat="37.9166767560" lon="-2.9541151039">
        <ele>1069.60</ele>
        <time>2017-10-07T12:42:49Z</time>
      </trkpt>
      <trkpt lat="37.9166681226" lon="-2.9541311972">
        <ele>1069.60</ele>
        <time>2017-10-07T12:42:50Z</time>
      </trkpt>
      <trkpt lat="37.9166490119" lon="-2.9541781358">
        <ele>1070.08</ele>
        <time>2017-10-07T12:42:58Z</time>
      </trkpt>
      <trkpt lat="37.9166263808" lon="-2.9541872721">
        <ele>1070.08</ele>
        <time>2017-10-07T12:43:11Z</time>
      </trkpt>
      <trkpt lat="37.9166343436" lon="-2.9541957378">
        <ele>1070.57</ele>
        <time>2017-10-07T12:43:18Z</time>
      </trkpt>
      <trkpt lat="37.9166254587" lon="-2.9542034492">
        <ele>1070.57</ele>
        <time>2017-10-07T12:43:35Z</time>
      </trkpt>
      <trkpt lat="37.9166404624" lon="-2.9542103224">
        <ele>1070.57</ele>
        <time>2017-10-07T12:43:53Z</time>
      </trkpt>
      <trkpt lat="37.9166413005" lon="-2.9542221408">
        <ele>1071.05</ele>
        <time>2017-10-07T12:44:12Z</time>
      </trkpt>
      <trkpt lat="37.9166349303" lon="-2.9542161897">
        <ele>1070.57</ele>
        <time>2017-10-07T12:44:30Z</time>
      </trkpt>
      <trkpt lat="37.9166370258" lon="-2.9541897029">
        <ele>1070.57</ele>
        <time>2017-10-07T12:44:56Z</time>
      </trkpt>
      <trkpt lat="37.9166334216" lon="-2.9541992582">
        <ele>1070.57</ele>
        <time>2017-10-07T12:45:19Z</time>
      </trkpt>
      <trkpt lat="37.9166380316" lon="-2.9542032816">
        <ele>1070.57</ele>
        <time>2017-10-07T12:45:45Z</time>
      </trkpt>
      <trkpt lat="37.9166413844" lon="-2.9541972466">
        <ele>1070.57</ele>
        <time>2017-10-07T12:46:04Z</time>
      </trkpt>
      <trkpt lat="37.9166407976" lon="-2.9542148486">
        <ele>1071.05</ele>
        <time>2017-10-07T12:46:23Z</time>
      </trkpt>
      <trkpt lat="37.9166366905" lon="-2.9542384855">
        <ele>1071.05</ele>
        <time>2017-10-07T12:46:25Z</time>
      </trkpt>
      <trkpt lat="37.9166300688" lon="-2.9542507231">
        <ele>1071.05</ele>
        <time>2017-10-07T12:46:26Z</time>
      </trkpt>
      <trkpt lat="37.9166263808" lon="-2.9543272499">
        <ele>1071.05</ele>
        <time>2017-10-07T12:46:32Z</time>
      </trkpt>
      <trkpt lat="37.9166604113" lon="-2.9542537406">
        <ele>1073.45</ele>
        <time>2017-10-07T13:47:41Z</time>
      </trkpt>
      <trkpt lat="37.9166433122" lon="-2.9543186165">
        <ele>1073.45</ele>
        <time>2017-10-07T13:47:42Z</time>
      </trkpt>
      <trkpt lat="37.9166214354" lon="-2.9543877672">
        <ele>1072.97</ele>
        <time>2017-10-07T13:47:56Z</time>
      </trkpt>
      <trkpt lat="37.9166739900" lon="-2.9543090612">
        <ele>1073.93</ele>
        <time>2017-10-07T13:48:01Z</time>
      </trkpt>
      <trkpt lat="37.9169414565" lon="-2.9541683290">
        <ele>1077.29</ele>
        <time>2017-10-07T13:48:09Z</time>
      </trkpt>
      <trkpt lat="37.9171307199" lon="-2.9539445322">
        <ele>1080.66</ele>
        <time>2017-10-07T13:48:18Z</time>
      </trkpt>
      <trkpt lat="37.9171896446" lon="-2.9539001081">
        <ele>1081.62</ele>
        <time>2017-10-07T13:48:21Z</time>
      </trkpt>
      <trkpt lat="37.9173630662" lon="-2.9538497329">
        <ele>1083.54</ele>
        <time>2017-10-07T13:48:29Z</time>
      </trkpt>
      <trkpt lat="37.9174528364" lon="-2.9538744595">
        <ele>1084.99</ele>
        <time>2017-10-07T13:48:34Z</time>
      </trkpt>
      <trkpt lat="37.9175188858" lon="-2.9538744595">
        <ele>1085.95</ele>
        <time>2017-10-07T13:48:38Z</time>
      </trkpt>
      <trkpt lat="37.9176975880" lon="-2.9538303707">
        <ele>1088.35</ele>
        <time>2017-10-07T13:48:48Z</time>
      </trkpt>
      <trkpt lat="37.9178565089" lon="-2.9536805023">
        <ele>1090.27</ele>
        <time>2017-10-07T13:48:57Z</time>
      </trkpt>
      <trkpt lat="37.9179204628" lon="-2.9536243435">
        <ele>1090.75</ele>
        <time>2017-10-07T13:49:01Z</time>
      </trkpt>
      <trkpt lat="37.9180292599" lon="-2.9535732139">
        <ele>1091.71</ele>
        <time>2017-10-07T13:49:09Z</time>
      </trkpt>
      <trkpt lat="37.9181944672" lon="-2.9535368364">
        <ele>1092.68</ele>
        <time>2017-10-07T13:49:18Z</time>
      </trkpt>
      <trkpt lat="37.9183785338" lon="-2.9535114393">
        <ele>1093.64</ele>
        <time>2017-10-07T13:49:28Z</time>
      </trkpt>
      <trkpt lat="37.9185781069" lon="-2.9535236768">
        <ele>1095.08</ele>
        <time>2017-10-07T13:49:39Z</time>
      </trkpt>
      <trkpt lat="37.9187617544" lon="-2.9536873754">
        <ele>1096.04</ele>
        <time>2017-10-07T13:49:51Z</time>
      </trkpt>
      <trkpt lat="37.9189431388" lon="-2.9537946638">
        <ele>1096.52</ele>
        <time>2017-10-07T13:50:02Z</time>
      </trkpt>
      <trkpt lat="37.9190692864" lon="-2.9536147881">
        <ele>1097.00</ele>
        <time>2017-10-07T13:50:12Z</time>
      </trkpt>
      <trkpt lat="37.9191534407" lon="-2.9533474892">
        <ele>1097.96</ele>
        <time>2017-10-07T13:50:23Z</time>
      </trkpt>
      <trkpt lat="37.9193997011" lon="-2.9531134665">
        <ele>1097.96</ele>
        <time>2017-10-07T13:50:35Z</time>
      </trkpt>
      <trkpt lat="37.9196850210" lon="-2.9529663641">
        <ele>1098.92</ele>
        <time>2017-10-07T13:50:48Z</time>
      </trkpt>
      <trkpt lat="37.9198477138" lon="-2.9529538751">
        <ele>1099.89</ele>
        <time>2017-10-07T13:50:58Z</time>
      </trkpt>
      <trkpt lat="37.9198628012" lon="-2.9529606644">
        <ele>1099.89</ele>
        <time>2017-10-07T13:50:59Z</time>
      </trkpt>
      <trkpt lat="37.9200005159" lon="-2.9529647715">
        <ele>1100.85</ele>
        <time>2017-10-07T13:51:06Z</time>
      </trkpt>
      <trkpt lat="37.9202184454" lon="-2.9530124646">
        <ele>1102.77</ele>
        <time>2017-10-07T13:51:18Z</time>
      </trkpt>
      <trkpt lat="37.9203802999" lon="-2.9530728143">
        <ele>1103.73</ele>
        <time>2017-10-07T13:51:28Z</time>
      </trkpt>
      <trkpt lat="37.9205590859" lon="-2.9531883169">
        <ele>1104.21</ele>
        <time>2017-10-07T13:51:38Z</time>
      </trkpt>
      <trkpt lat="37.9207770154" lon="-2.9531818628">
        <ele>1105.65</ele>
        <time>2017-10-07T13:51:48Z</time>
      </trkpt>
      <trkpt lat="37.9209931847" lon="-2.9531157296">
        <ele>1107.58</ele>
        <time>2017-10-07T13:51:59Z</time>
      </trkpt>
      <trkpt lat="37.9212070908" lon="-2.9530774243">
        <ele>1108.06</ele>
        <time>2017-10-07T13:52:10Z</time>
      </trkpt>
      <trkpt lat="37.9214676842" lon="-2.9531243630">
        <ele>1109.02</ele>
        <time>2017-10-07T13:52:21Z</time>
      </trkpt>
      <trkpt lat="37.9217168782" lon="-2.9531184118">
        <ele>1109.98</ele>
        <time>2017-10-07T13:52:32Z</time>
      </trkpt>
      <trkpt lat="37.9218879528" lon="-2.9530184157">
        <ele>1110.94</ele>
        <time>2017-10-07T13:52:41Z</time>
      </trkpt>
      <trkpt lat="37.9219334666" lon="-2.9529905878">
        <ele>1111.42</ele>
        <time>2017-10-07T13:52:44Z</time>
      </trkpt>
      <trkpt lat="37.9221543297" lon="-2.9528682120">
        <ele>1112.86</ele>
        <time>2017-10-07T13:52:54Z</time>
      </trkpt>
      <trkpt lat="37.9224133305" lon="-2.9526455887">
        <ele>1113.82</ele>
        <time>2017-10-07T13:53:07Z</time>
      </trkpt>
      <trkpt lat="37.9226089641" lon="-2.9524681438">
        <ele>1114.79</ele>
        <time>2017-10-07T13:53:18Z</time>
      </trkpt>
      <trkpt lat="37.9228084534" lon="-2.9523003381">
        <ele>1116.23</ele>
        <time>2017-10-07T13:53:29Z</time>
      </trkpt>
      <trkpt lat="37.9230089486" lon="-2.9521087278">
        <ele>1117.67</ele>
        <time>2017-10-07T13:53:41Z</time>
      </trkpt>
      <trkpt lat="37.9231644329" lon="-2.9519700911">
        <ele>1118.63</ele>
        <time>2017-10-07T13:53:50Z</time>
      </trkpt>
      <trkpt lat="37.9233608209" lon="-2.9518569354">
        <ele>1120.55</ele>
        <time>2017-10-07T13:54:02Z</time>
      </trkpt>
      <trkpt lat="37.9234161414" lon="-2.9518689215">
        <ele>1121.52</ele>
        <time>2017-10-07T13:54:05Z</time>
      </trkpt>
      <trkpt lat="37.9236072488" lon="-2.9519573506">
        <ele>1122.00</ele>
        <time>2017-10-07T13:54:16Z</time>
      </trkpt>
      <trkpt lat="37.9237380065" lon="-2.9520482942">
        <ele>1123.44</ele>
        <time>2017-10-07T13:54:25Z</time>
      </trkpt>
      <trkpt lat="37.9237904772" lon="-2.9520779662">
        <ele>1123.92</ele>
        <time>2017-10-07T13:54:28Z</time>
      </trkpt>
      <trkpt lat="37.9238891322" lon="-2.9521132540">
        <ele>1124.40</ele>
        <time>2017-10-07T13:54:33Z</time>
      </trkpt>
      <trkpt lat="37.9240963329" lon="-2.9521070514">
        <ele>1125.84</ele>
        <time>2017-10-07T13:54:43Z</time>
      </trkpt>
      <trkpt lat="37.9242844228" lon="-2.9519753717">
        <ele>1127.28</ele>
        <time>2017-10-07T13:54:53Z</time>
      </trkpt>
      <trkpt lat="37.9244738538" lon="-2.9518953245">
        <ele>1127.28</ele>
        <time>2017-10-07T13:55:03Z</time>
      </trkpt>
      <trkpt lat="37.9246977344" lon="-2.9517920595">
        <ele>1128.24</ele>
        <time>2017-10-07T13:55:13Z</time>
      </trkpt>
      <trkpt lat="37.9248042684" lon="-2.9517591186">
        <ele>1128.73</ele>
        <time>2017-10-07T13:55:19Z</time>
      </trkpt>
      <trkpt lat="37.9249927774" lon="-2.9516088311">
        <ele>1129.69</ele>
        <time>2017-10-07T13:55:29Z</time>
      </trkpt>
      <trkpt lat="37.9251294862" lon="-2.9514476471">
        <ele>1131.61</ele>
        <time>2017-10-07T13:55:38Z</time>
      </trkpt>
      <trkpt lat="37.9252644349" lon="-2.9512579646">
        <ele>1132.09</ele>
        <time>2017-10-07T13:55:48Z</time>
      </trkpt>
      <trkpt lat="37.9253979586" lon="-2.9510958586">
        <ele>1133.53</ele>
        <time>2017-10-07T13:55:59Z</time>
      </trkpt>
      <trkpt lat="37.9255728051" lon="-2.9509289749">
        <ele>1134.97</ele>
        <time>2017-10-07T13:56:10Z</time>
      </trkpt>
      <trkpt lat="37.9257461429" lon="-2.9507640190">
        <ele>1136.90</ele>
        <time>2017-10-07T13:56:21Z</time>
      </trkpt>
      <trkpt lat="37.9259183072" lon="-2.9506411403">
        <ele>1137.86</ele>
        <time>2017-10-07T13:56:31Z</time>
      </trkpt>
      <trkpt lat="37.9260980990" lon="-2.9505258892">
        <ele>1139.78</ele>
        <time>2017-10-07T13:56:41Z</time>
      </trkpt>
      <trkpt lat="37.9262989294" lon="-2.9503823910">
        <ele>1141.22</ele>
        <time>2017-10-07T13:56:52Z</time>
      </trkpt>
      <trkpt lat="37.9265035316" lon="-2.9502975661">
        <ele>1142.18</ele>
        <time>2017-10-07T13:57:02Z</time>
      </trkpt>
      <trkpt lat="37.9267170187" lon="-2.9501256533">
        <ele>1143.63</ele>
        <time>2017-10-07T13:57:13Z</time>
      </trkpt>
      <trkpt lat="37.9269273207" lon="-2.9498818237">
        <ele>1144.59</ele>
        <time>2017-10-07T13:57:24Z</time>
      </trkpt>
      <trkpt lat="37.9271999840" lon="-2.9496410117">
        <ele>1145.07</ele>
        <time>2017-10-07T13:57:35Z</time>
      </trkpt>
      <trkpt lat="37.9275170714" lon="-2.9494045582">
        <ele>1144.59</ele>
        <time>2017-10-07T13:57:46Z</time>
      </trkpt>
      <trkpt lat="37.9277535249" lon="-2.9492089245">
        <ele>1146.03</ele>
        <time>2017-10-07T13:57:56Z</time>
      </trkpt>
      <trkpt lat="37.9280292895" lon="-2.9492778238">
        <ele>1147.47</ele>
        <time>2017-10-07T13:58:06Z</time>
      </trkpt>
      <trkpt lat="37.9282820038" lon="-2.9493858665">
        <ele>1148.91</ele>
        <time>2017-10-07T13:58:16Z</time>
      </trkpt>
      <trkpt lat="37.9285304435" lon="-2.9492925759">
        <ele>1150.84</ele>
        <time>2017-10-07T13:58:27Z</time>
      </trkpt>
      <trkpt lat="37.9287434276" lon="-2.9491888080">
        <ele>1152.28</ele>
        <time>2017-10-07T13:58:37Z</time>
      </trkpt>
      <trkpt lat="37.9289763607" lon="-2.9490703717">
        <ele>1153.24</ele>
        <time>2017-10-07T13:58:49Z</time>
      </trkpt>
      <trkpt lat="37.9292646144" lon="-2.9491016362">
        <ele>1153.72</ele>
        <time>2017-10-07T13:59:01Z</time>
      </trkpt>
      <trkpt lat="37.9295348469" lon="-2.9490529373">
        <ele>1155.16</ele>
        <time>2017-10-07T13:59:12Z</time>
      </trkpt>
      <trkpt lat="37.9297187459" lon="-2.9488547891">
        <ele>1156.12</ele>
        <time>2017-10-07T13:59:22Z</time>
      </trkpt>
      <trkpt lat="37.9299486615" lon="-2.9485858977">
        <ele>1157.56</ele>
        <time>2017-10-07T13:59:35Z</time>
      </trkpt>
      <trkpt lat="37.9301284533" lon="-2.9483507015">
        <ele>1159.49</ele>
        <time>2017-10-07T13:59:46Z</time>
      </trkpt>
      <trkpt lat="37.9301684350" lon="-2.9479882680">
        <ele>1160.45</ele>
        <time>2017-10-07T13:59:57Z</time>
      </trkpt>
      <trkpt lat="37.9302461352" lon="-2.9476725217">
        <ele>1161.41</ele>
        <time>2017-10-07T14:00:07Z</time>
      </trkpt>
      <trkpt lat="37.9303856939" lon="-2.9473916441">
        <ele>1162.85</ele>
        <time>2017-10-07T14:00:18Z</time>
      </trkpt>
      <trkpt lat="37.9306456167" lon="-2.9473239183">
        <ele>1164.77</ele>
        <time>2017-10-07T14:00:29Z</time>
      </trkpt>
      <trkpt lat="37.9308030289" lon="-2.9473957513">
        <ele>1165.74</ele>
        <time>2017-10-07T14:00:37Z</time>
      </trkpt>
      <trkpt lat="37.9309527297" lon="-2.9473031312">
        <ele>1166.70</ele>
        <time>2017-10-07T14:00:45Z</time>
      </trkpt>
      <trkpt lat="37.9311471060" lon="-2.9471617285">
        <ele>1168.14</ele>
        <time>2017-10-07T14:00:56Z</time>
      </trkpt>
      <trkpt lat="37.9312911071" lon="-2.9470172245">
        <ele>1169.10</ele>
        <time>2017-10-07T14:01:05Z</time>
      </trkpt>
      <trkpt lat="37.9314217810" lon="-2.9467832856">
        <ele>1170.06</ele>
        <time>2017-10-07T14:01:15Z</time>
      </trkpt>
      <trkpt lat="37.9315475095" lon="-2.9465822037">
        <ele>1171.02</ele>
        <time>2017-10-07T14:01:24Z</time>
      </trkpt>
      <trkpt lat="37.9317583144" lon="-2.9464345146">
        <ele>1171.98</ele>
        <time>2017-10-07T14:01:34Z</time>
      </trkpt>
      <trkpt lat="37.9319614917" lon="-2.9463050980">
        <ele>1173.43</ele>
        <time>2017-10-07T14:01:45Z</time>
      </trkpt>
      <trkpt lat="37.9321875516" lon="-2.9461334366">
        <ele>1173.91</ele>
        <time>2017-10-07T14:01:56Z</time>
      </trkpt>
      <trkpt lat="37.9322700296" lon="-2.9460428283">
        <ele>1174.39</ele>
        <time>2017-10-07T14:02:01Z</time>
      </trkpt>
      <trkpt lat="37.9324617237" lon="-2.9458238930">
        <ele>1175.83</ele>
        <time>2017-10-07T14:02:12Z</time>
      </trkpt>
      <trkpt lat="37.9326477181" lon="-2.9457037803">
        <ele>1176.79</ele>
        <time>2017-10-07T14:02:21Z</time>
      </trkpt>
      <trkpt lat="37.9328344669" lon="-2.9456560872">
        <ele>1177.75</ele>
        <time>2017-10-07T14:02:31Z</time>
      </trkpt>
      <trkpt lat="37.9329850059" lon="-2.9455778003">
        <ele>1183.04</ele>
        <time>2017-10-07T14:02:39Z</time>
      </trkpt>
      <trkpt lat="37.9329987522" lon="-2.9455653951">
        <ele>1179.19</ele>
        <time>2017-10-07T14:02:40Z</time>
      </trkpt>
      <trkpt lat="37.9330558330" lon="-2.9455173668">
        <ele>1183.04</ele>
        <time>2017-10-07T14:02:43Z</time>
      </trkpt>
      <trkpt lat="37.9330756981" lon="-2.9454980046">
        <ele>1180.64</ele>
        <time>2017-10-07T14:02:44Z</time>
      </trkpt>
      <trkpt lat="37.9331128299" lon="-2.9454581905">
        <ele>1179.67</ele>
        <time>2017-10-07T14:02:46Z</time>
      </trkpt>
      <trkpt lat="37.9332770314" lon="-2.9452602938">
        <ele>1181.12</ele>
        <time>2017-10-07T14:02:55Z</time>
      </trkpt>
      <trkpt lat="37.9334212840" lon="-2.9450894706">
        <ele>1182.56</ele>
        <time>2017-10-07T14:03:03Z</time>
      </trkpt>
      <trkpt lat="37.9335697275" lon="-2.9449059069">
        <ele>1183.52</ele>
        <time>2017-10-07T14:03:12Z</time>
      </trkpt>
      <trkpt lat="37.9337436520" lon="-2.9447143804">
        <ele>1184.96</ele>
        <time>2017-10-07T14:03:24Z</time>
      </trkpt>
      <trkpt lat="37.9339323286" lon="-2.9445603210">
        <ele>1185.92</ele>
        <time>2017-10-07T14:03:35Z</time>
      </trkpt>
      <trkpt lat="37.9341154732" lon="-2.9444253724">
        <ele>1187.85</ele>
        <time>2017-10-07T14:03:46Z</time>
      </trkpt>
      <trkpt lat="37.9342521820" lon="-2.9443205986">
        <ele>1188.81</ele>
        <time>2017-10-07T14:03:54Z</time>
      </trkpt>
      <trkpt lat="37.9342994560" lon="-2.9442914296">
        <ele>1189.29</ele>
        <time>2017-10-07T14:03:57Z</time>
      </trkpt>
      <trkpt lat="37.9343724623" lon="-2.9442024976">
        <ele>1190.25</ele>
        <time>2017-10-07T14:04:02Z</time>
      </trkpt>
      <trkpt lat="37.9345008731" lon="-2.9439728335">
        <ele>1191.69</ele>
        <time>2017-10-07T14:04:15Z</time>
      </trkpt>
      <trkpt lat="37.9345653299" lon="-2.9437209573">
        <ele>1193.13</ele>
        <time>2017-10-07T14:04:27Z</time>
      </trkpt>
      <trkpt lat="37.9346922319" lon="-2.9435088951">
        <ele>1194.09</ele>
        <time>2017-10-07T14:04:38Z</time>
      </trkpt>
      <trkpt lat="37.9348361492" lon="-2.9433854297">
        <ele>1195.54</ele>
        <time>2017-10-07T14:04:47Z</time>
      </trkpt>
      <trkpt lat="37.9350079782" lon="-2.9433177039">
        <ele>1196.50</ele>
        <time>2017-10-07T14:04:58Z</time>
      </trkpt>
      <trkpt lat="37.9351643845" lon="-2.9432694241">
        <ele>1197.46</ele>
        <time>2017-10-07T14:05:07Z</time>
      </trkpt>
      <trkpt lat="37.9352520593" lon="-2.9432436079">
        <ele>1198.42</ele>
        <time>2017-10-07T14:05:12Z</time>
      </trkpt>
      <trkpt lat="37.9353356268" lon="-2.9432246648">
        <ele>1198.42</ele>
        <time>2017-10-07T14:05:17Z</time>
      </trkpt>
      <trkpt lat="37.9355171788" lon="-2.9431334697">
        <ele>1199.86</ele>
        <time>2017-10-07T14:05:27Z</time>
      </trkpt>
      <trkpt lat="37.9356679693" lon="-2.9429678433">
        <ele>1200.34</ele>
        <time>2017-10-07T14:05:36Z</time>
      </trkpt>
      <trkpt lat="37.9358041752" lon="-2.9428020492">
        <ele>1200.82</ele>
        <time>2017-10-07T14:05:45Z</time>
      </trkpt>
      <trkpt lat="37.9359664489" lon="-2.9426213354">
        <ele>1201.79</ele>
        <time>2017-10-07T14:05:55Z</time>
      </trkpt>
      <trkpt lat="37.9362034891" lon="-2.9424723051">
        <ele>1202.75</ele>
        <time>2017-10-07T14:06:07Z</time>
      </trkpt>
      <trkpt lat="37.9364810139" lon="-2.9423094448">
        <ele>1203.23</ele>
        <time>2017-10-07T14:06:19Z</time>
      </trkpt>
      <trkpt lat="37.9366264399" lon="-2.9420379549">
        <ele>1204.67</ele>
        <time>2017-10-07T14:06:30Z</time>
      </trkpt>
      <trkpt lat="37.9367664177" lon="-2.9417633638">
        <ele>1206.11</ele>
        <time>2017-10-07T14:06:42Z</time>
      </trkpt>
      <trkpt lat="37.9368229955" lon="-2.9414983280">
        <ele>1207.07</ele>
        <time>2017-10-07T14:06:52Z</time>
      </trkpt>
      <trkpt lat="37.9368403461" lon="-2.9412348848">
        <ele>1209.00</ele>
        <time>2017-10-07T14:07:02Z</time>
      </trkpt>
      <trkpt lat="37.9368800763" lon="-2.9408524185">
        <ele>1210.92</ele>
        <time>2017-10-07T14:07:17Z</time>
      </trkpt>
      <trkpt lat="37.9369172081" lon="-2.9406284541">
        <ele>1212.36</ele>
        <time>2017-10-07T14:07:27Z</time>
      </trkpt>
      <trkpt lat="37.9369991831" lon="-2.9403163958">
        <ele>1213.80</ele>
        <time>2017-10-07T14:07:41Z</time>
      </trkpt>
      <trkpt lat="37.9370896239" lon="-2.9400719795">
        <ele>1215.24</ele>
        <time>2017-10-07T14:07:52Z</time>
      </trkpt>
      <trkpt lat="37.9373027757" lon="-2.9398974683">
        <ele>1216.69</ele>
        <time>2017-10-07T14:08:05Z</time>
      </trkpt>
      <trkpt lat="37.9375217110" lon="-2.9397387989">
        <ele>1218.13</ele>
        <time>2017-10-07T14:08:17Z</time>
      </trkpt>
      <trkpt lat="37.9376635328" lon="-2.9395358730">
        <ele>1220.05</ele>
        <time>2017-10-07T14:08:28Z</time>
      </trkpt>
      <trkpt lat="37.9378095455" lon="-2.9393625353">
        <ele>1221.01</ele>
        <time>2017-10-07T14:08:39Z</time>
      </trkpt>
      <trkpt lat="37.9379727412" lon="-2.9393062927">
        <ele>1221.97</ele>
        <time>2017-10-07T14:08:48Z</time>
      </trkpt>
      <trkpt lat="37.9381990526" lon="-2.9393264931">
        <ele>1222.93</ele>
        <time>2017-10-07T14:08:59Z</time>
      </trkpt>
      <trkpt lat="37.9384484980" lon="-2.9393750243">
        <ele>1224.86</ele>
        <time>2017-10-07T14:09:12Z</time>
      </trkpt>
      <trkpt lat="37.9386475682" lon="-2.9393927939">
        <ele>1225.82</ele>
        <time>2017-10-07T14:09:22Z</time>
      </trkpt>
      <trkpt lat="37.9388784897" lon="-2.9393503815">
        <ele>1227.74</ele>
        <time>2017-10-07T14:09:34Z</time>
      </trkpt>
      <trkpt lat="37.9390631430" lon="-2.9393057059">
        <ele>1229.18</ele>
        <time>2017-10-07T14:09:44Z</time>
      </trkpt>
      <trkpt lat="37.9392604530" lon="-2.9392875172">
        <ele>1230.14</ele>
        <time>2017-10-07T14:09:56Z</time>
      </trkpt>
      <trkpt lat="37.9392787255" lon="-2.9392801411">
        <ele>1230.62</ele>
        <time>2017-10-07T14:09:58Z</time>
      </trkpt>
      <trkpt lat="37.9394790530" lon="-2.9392705020">
        <ele>1231.59</ele>
        <time>2017-10-07T14:10:10Z</time>
      </trkpt>
      <trkpt lat="37.9397541471" lon="-2.9393117409">
        <ele>1233.03</ele>
        <time>2017-10-07T14:10:24Z</time>
      </trkpt>
      <trkpt lat="37.9400197696" lon="-2.9392964020">
        <ele>1234.95</ele>
        <time>2017-10-07T14:10:38Z</time>
      </trkpt>
      <trkpt lat="37.9402870685" lon="-2.9392226413">
        <ele>1236.87</ele>
        <time>2017-10-07T14:10:51Z</time>
      </trkpt>
      <trkpt lat="37.9405918345" lon="-2.9391565081">
        <ele>1238.32</ele>
        <time>2017-10-07T14:11:06Z</time>
      </trkpt>
      <trkpt lat="37.9408281203" lon="-2.9391376488">
        <ele>1239.76</ele>
        <time>2017-10-07T14:11:18Z</time>
      </trkpt>
      <trkpt lat="37.9409093410" lon="-2.9390980024">
        <ele>1240.24</ele>
        <time>2017-10-07T14:11:27Z</time>
      </trkpt>
      <trkpt lat="37.9409422819" lon="-2.9391127545">
        <ele>1240.24</ele>
        <time>2017-10-07T14:11:37Z</time>
      </trkpt>
      <trkpt lat="37.9409507476" lon="-2.9391187057">
        <ele>1240.24</ele>
        <time>2017-10-07T14:11:45Z</time>
      </trkpt>
      <trkpt lat="37.9409551062" lon="-2.9391157720">
        <ele>1240.24</ele>
        <time>2017-10-07T14:12:00Z</time>
      </trkpt>
      <trkpt lat="37.9409571178" lon="-2.9391140956">
        <ele>1240.24</ele>
        <time>2017-10-07T14:12:28Z</time>
      </trkpt>
      <trkpt lat="37.9409556929" lon="-2.9391140118">
        <ele>1240.24</ele>
        <time>2017-10-07T14:12:54Z</time>
      </trkpt>
      <trkpt lat="37.9409535974" lon="-2.9391135089">
        <ele>1240.24</ele>
        <time>2017-10-07T14:13:20Z</time>
      </trkpt>
      <trkpt lat="37.9409546871" lon="-2.9391145986">
        <ele>1240.24</ele>
        <time>2017-10-07T14:13:51Z</time>
      </trkpt>
      <trkpt lat="37.9409498256" lon="-2.9391215555">
        <ele>1240.24</ele>
        <time>2017-10-07T14:14:13Z</time>
      </trkpt>
      <trkpt lat="37.9409472272" lon="-2.9391225614">
        <ele>1239.76</ele>
        <time>2017-10-07T14:14:26Z</time>
      </trkpt>
      <trkpt lat="37.9409420304" lon="-2.9391240701">
        <ele>1240.24</ele>
        <time>2017-10-07T14:14:47Z</time>
      </trkpt>
      <trkpt lat="37.9409420304" lon="-2.9391263332">
        <ele>1240.24</ele>
        <time>2017-10-07T14:15:12Z</time>
      </trkpt>
      <trkpt lat="37.9409417789" lon="-2.9391267523">
        <ele>1240.24</ele>
        <time>2017-10-07T14:15:17Z</time>
      </trkpt>
      <trkpt lat="37.9409160465" lon="-2.9391895328">
        <ele>1240.24</ele>
        <time>2017-10-07T14:15:25Z</time>
      </trkpt>
      <trkpt lat="37.9409682658" lon="-2.9392128345">
        <ele>1240.24</ele>
        <time>2017-10-07T14:15:31Z</time>
      </trkpt>
      <trkpt lat="37.9409965128" lon="-2.9392371420">
        <ele>1240.24</ele>
        <time>2017-10-07T14:15:34Z</time>
      </trkpt>
      <trkpt lat="37.9410585389" lon="-2.9392666463">
        <ele>1240.72</ele>
        <time>2017-10-07T14:15:44Z</time>
      </trkpt>
      <trkpt lat="37.9410876241" lon="-2.9392732680">
        <ele>1240.72</ele>
        <time>2017-10-07T14:15:47Z</time>
      </trkpt>
      <trkpt lat="37.9411097523" lon="-2.9393021856">
        <ele>1241.20</ele>
        <time>2017-10-07T14:15:50Z</time>
      </trkpt>
      <trkpt lat="37.9411844350" lon="-2.9392901994">
        <ele>1241.20</ele>
        <time>2017-10-07T14:16:00Z</time>
      </trkpt>
      <trkpt lat="37.9411849380" lon="-2.9392894451">
        <ele>1241.20</ele>
        <time>2017-10-07T14:16:07Z</time>
      </trkpt>
      <trkpt lat="37.9412476346" lon="-2.9394239746">
        <ele>1241.68</ele>
        <time>2017-10-07T14:16:14Z</time>
      </trkpt>
      <trkpt lat="37.9414367303" lon="-2.9396362882">
        <ele>1242.16</ele>
        <time>2017-10-07T14:16:25Z</time>
      </trkpt>
      <trkpt lat="37.9417333659" lon="-2.9397469293">
        <ele>1242.16</ele>
        <time>2017-10-07T14:16:35Z</time>
      </trkpt>
      <trkpt lat="37.9418520536" lon="-2.9397662915">
        <ele>1241.68</ele>
        <time>2017-10-07T14:16:38Z</time>
      </trkpt>
      <trkpt lat="37.9418969806" lon="-2.9397670459">
        <ele>1241.68</ele>
        <time>2017-10-07T14:16:39Z</time>
      </trkpt>
      <trkpt lat="37.9419415724" lon="-2.9397735000">
        <ele>1241.20</ele>
        <time>2017-10-07T14:16:40Z</time>
      </trkpt>
      <trkpt lat="37.9419885948" lon="-2.9397799540">
        <ele>1241.20</ele>
        <time>2017-10-07T14:16:41Z</time>
      </trkpt>
      <trkpt lat="37.9420382995" lon="-2.9397855699">
        <ele>1241.20</ele>
        <time>2017-10-07T14:16:42Z</time>
      </trkpt>
      <trkpt lat="37.9420899320" lon="-2.9397955444">
        <ele>1240.72</ele>
        <time>2017-10-07T14:16:43Z</time>
      </trkpt>
      <trkpt lat="37.9423159920" lon="-2.9398305807">
        <ele>1240.24</ele>
        <time>2017-10-07T14:16:47Z</time>
      </trkpt>
      <trkpt lat="37.9423746653" lon="-2.9398216959">
        <ele>1240.24</ele>
        <time>2017-10-07T14:16:48Z</time>
      </trkpt>
      <trkpt lat="37.9424326681" lon="-2.9397924431">
        <ele>1239.76</ele>
        <time>2017-10-07T14:16:49Z</time>
      </trkpt>
      <trkpt lat="37.9426609911" lon="-2.9396282416">
        <ele>1238.32</ele>
        <time>2017-10-07T14:16:53Z</time>
      </trkpt>
      <trkpt lat="37.9427268729" lon="-2.9396047723">
        <ele>1237.83</ele>
        <time>2017-10-07T14:16:54Z</time>
      </trkpt>
      <trkpt lat="37.9427938443" lon="-2.9396020900">
        <ele>1237.83</ele>
        <time>2017-10-07T14:16:55Z</time>
      </trkpt>
      <trkpt lat="37.9428585526" lon="-2.9396227095">
        <ele>1237.35</ele>
        <time>2017-10-07T14:16:56Z</time>
      </trkpt>
      <trkpt lat="37.9429194890" lon="-2.9396631103">
        <ele>1236.87</ele>
        <time>2017-10-07T14:16:57Z</time>
      </trkpt>
      <trkpt lat="37.9429749772" lon="-2.9397147428">
        <ele>1236.87</ele>
        <time>2017-10-07T14:16:58Z</time>
      </trkpt>
      <trkpt lat="37.9430294596" lon="-2.9397702310">
        <ele>1236.39</ele>
        <time>2017-10-07T14:16:59Z</time>
      </trkpt>
      <trkpt lat="37.9430815950" lon="-2.9398291558">
        <ele>1236.39</ele>
        <time>2017-10-07T14:17:00Z</time>
      </trkpt>
      <trkpt lat="37.9435882811" lon="-2.9403788410">
        <ele>1233.99</ele>
        <time>2017-10-07T14:17:09Z</time>
      </trkpt>
      <trkpt lat="37.9436601140" lon="-2.9404277913">
        <ele>1233.51</ele>
        <time>2017-10-07T14:17:10Z</time>
      </trkpt>
      <trkpt lat="37.9437431786" lon="-2.9404470697">
        <ele>1233.03</ele>
        <time>2017-10-07T14:17:11Z</time>
      </trkpt>
      <trkpt lat="37.9439155106" lon="-2.9404555354">
        <ele>1232.07</ele>
        <time>2017-10-07T14:17:13Z</time>
      </trkpt>
      <trkpt lat="37.9439944681" lon="-2.9404964391">
        <ele>1231.59</ele>
        <time>2017-10-07T14:17:14Z</time>
      </trkpt>
      <trkpt lat="37.9440626968" lon="-2.9405691102">
        <ele>1231.11</ele>
        <time>2017-10-07T14:17:15Z</time>
      </trkpt>
      <trkpt lat="37.9441153351" lon="-2.9406654183">
        <ele>1230.14</ele>
        <time>2017-10-07T14:17:16Z</time>
      </trkpt>
      <trkpt lat="37.9441575799" lon="-2.9407758079">
        <ele>1229.66</ele>
        <time>2017-10-07T14:17:17Z</time>
      </trkpt>
      <trkpt lat="37.9442627728" lon="-2.9409978446">
        <ele>1227.74</ele>
        <time>2017-10-07T14:17:19Z</time>
      </trkpt>
      <trkpt lat="37.9443496931" lon="-2.9410793167">
        <ele>1227.26</ele>
        <time>2017-10-07T14:17:20Z</time>
      </trkpt>
      <trkpt lat="37.9444585741" lon="-2.9411173705">
        <ele>1225.82</ele>
        <time>2017-10-07T14:17:21Z</time>
      </trkpt>
      <trkpt lat="37.9445733223" lon="-2.9411260039">
        <ele>1225.34</ele>
        <time>2017-10-07T14:17:22Z</time>
      </trkpt>
      <trkpt lat="37.9446937703" lon="-2.9411286023">
        <ele>1224.38</ele>
        <time>2017-10-07T14:17:23Z</time>
      </trkpt>
      <trkpt lat="37.9449449759" lon="-2.9411534965">
        <ele>1222.45</ele>
        <time>2017-10-07T14:17:25Z</time>
      </trkpt>
      <trkpt lat="37.9450733028" lon="-2.9411944840">
        <ele>1221.49</ele>
        <time>2017-10-07T14:17:26Z</time>
      </trkpt>
      <trkpt lat="37.9452000372" lon="-2.9412617907">
        <ele>1221.01</ele>
        <time>2017-10-07T14:17:27Z</time>
      </trkpt>
      <trkpt lat="37.9453291185" lon="-2.9413301032">
        <ele>1220.53</ele>
        <time>2017-10-07T14:17:28Z</time>
      </trkpt>
      <trkpt lat="37.9454667494" lon="-2.9413694981">
        <ele>1220.05</ele>
        <time>2017-10-07T14:17:29Z</time>
      </trkpt>
      <trkpt lat="37.9456094094" lon="-2.9413829930">
        <ele>1218.61</ele>
        <time>2017-10-07T14:17:30Z</time>
      </trkpt>
      <trkpt lat="37.9460273311" lon="-2.9414275847">
        <ele>1215.24</ele>
        <time>2017-10-07T14:17:33Z</time>
      </trkpt>
      <trkpt lat="37.9461587593" lon="-2.9414302669">
        <ele>1213.80</ele>
        <time>2017-10-07T14:17:34Z</time>
      </trkpt>
      <trkpt lat="37.9462903552" lon="-2.9414166044">
        <ele>1213.32</ele>
        <time>2017-10-07T14:17:35Z</time>
      </trkpt>
      <trkpt lat="37.9467108753" lon="-2.9413499683">
        <ele>1209.96</ele>
        <time>2017-10-07T14:17:39Z</time>
      </trkpt>
      <trkpt lat="37.9468455724" lon="-2.9413196258">
        <ele>1209.96</ele>
        <time>2017-10-07T14:17:41Z</time>
      </trkpt>
      <trkpt lat="37.9468951933" lon="-2.9413031135">
        <ele>1208.51</ele>
        <time>2017-10-07T14:17:42Z</time>
      </trkpt>
      <trkpt lat="37.9469390307" lon="-2.9412938934">
        <ele>1208.51</ele>
        <time>2017-10-07T14:17:43Z</time>
      </trkpt>
      <trkpt lat="37.9471216723" lon="-2.9412990902">
        <ele>1207.07</ele>
        <time>2017-10-07T14:17:50Z</time>
      </trkpt>
      <trkpt lat="37.9472541064" lon="-2.9412903730">
        <ele>1207.07</ele>
        <time>2017-10-07T14:17:54Z</time>
      </trkpt>
      <trkpt lat="37.9472976085" lon="-2.9412881937">
        <ele>1206.11</ele>
        <time>2017-10-07T14:17:55Z</time>
      </trkpt>
      <trkpt lat="37.9473434575" lon="-2.9412945639">
        <ele>1205.63</ele>
        <time>2017-10-07T14:17:56Z</time>
      </trkpt>
      <trkpt lat="37.9473914020" lon="-2.9413065501">
        <ele>1205.15</ele>
        <time>2017-10-07T14:17:57Z</time>
      </trkpt>
      <trkpt lat="37.9474420287" lon="-2.9413232300">
        <ele>1205.15</ele>
        <time>2017-10-07T14:17:58Z</time>
      </trkpt>
      <trkpt lat="37.9474939127" lon="-2.9413435981">
        <ele>1204.67</ele>
        <time>2017-10-07T14:17:59Z</time>
      </trkpt>
      <trkpt lat="37.9479087330" lon="-2.9415709991">
        <ele>1201.30</ele>
        <time>2017-10-07T14:18:06Z</time>
      </trkpt>
      <trkpt lat="37.9482729267" lon="-2.9417839833">
        <ele>1198.90</ele>
        <time>2017-10-07T14:18:11Z</time>
      </trkpt>
      <trkpt lat="37.9483599309" lon="-2.9418076202">
        <ele>1198.42</ele>
        <time>2017-10-07T14:18:12Z</time>
      </trkpt>
      <trkpt lat="37.9484517965" lon="-2.9418172594">
        <ele>1197.94</ele>
        <time>2017-10-07T14:18:13Z</time>
      </trkpt>
      <trkpt lat="37.9485465121" lon="-2.9418074526">
        <ele>1196.98</ele>
        <time>2017-10-07T14:18:14Z</time>
      </trkpt>
      <trkpt lat="37.9486413952" lon="-2.9417770263">
        <ele>1196.50</ele>
        <time>2017-10-07T14:18:15Z</time>
      </trkpt>
      <trkpt lat="37.9487325065" lon="-2.9417301714">
        <ele>1196.02</ele>
        <time>2017-10-07T14:18:16Z</time>
      </trkpt>
      <trkpt lat="37.9488237016" lon="-2.9416758567">
        <ele>1195.54</ele>
        <time>2017-10-07T14:18:17Z</time>
      </trkpt>
      <trkpt lat="37.9492842034" lon="-2.9413690791">
        <ele>1192.17</ele>
        <time>2017-10-07T14:18:22Z</time>
      </trkpt>
      <trkpt lat="37.9494742211" lon="-2.9412396625">
        <ele>1191.21</ele>
        <time>2017-10-07T14:18:24Z</time>
      </trkpt>
      <trkpt lat="37.9498659912" lon="-2.9409038834">
        <ele>1187.37</ele>
        <time>2017-10-07T14:18:28Z</time>
      </trkpt>
      <trkpt lat="37.9502707534" lon="-2.9405669309">
        <ele>1184.48</ele>
        <time>2017-10-07T14:18:32Z</time>
      </trkpt>
      <trkpt lat="37.9508819617" lon="-2.9400718957">
        <ele>1181.12</ele>
        <time>2017-10-07T14:18:38Z</time>
      </trkpt>
      <trkpt lat="37.9509723186" lon="-2.9400283936">
        <ele>1181.12</ele>
        <time>2017-10-07T14:18:39Z</time>
      </trkpt>
      <trkpt lat="37.9510656092" lon="-2.9400097858">
        <ele>1180.64</ele>
        <time>2017-10-07T14:18:40Z</time>
      </trkpt>
      <trkpt lat="37.9511563852" lon="-2.9400169943">
        <ele>1180.16</ele>
        <time>2017-10-07T14:18:41Z</time>
      </trkpt>
      <trkpt lat="37.9512361810" lon="-2.9400478397">
        <ele>1179.67</ele>
        <time>2017-10-07T14:18:42Z</time>
      </trkpt>
      <trkpt lat="37.9513047449" lon="-2.9400998075">
        <ele>1179.19</ele>
        <time>2017-10-07T14:18:43Z</time>
      </trkpt>
      <trkpt lat="37.9513570480" lon="-2.9401724786">
        <ele>1178.71</ele>
        <time>2017-10-07T14:18:44Z</time>
      </trkpt>
      <trkpt lat="37.9514010530" lon="-2.9402571358">
        <ele>1177.75</ele>
        <time>2017-10-07T14:18:45Z</time>
      </trkpt>
      <trkpt lat="37.9516716208" lon="-2.9408391751">
        <ele>1174.39</ele>
        <time>2017-10-07T14:18:51Z</time>
      </trkpt>
      <trkpt lat="37.9518934060" lon="-2.9413913749">
        <ele>1171.02</ele>
        <time>2017-10-07T14:18:56Z</time>
      </trkpt>
      <trkpt lat="37.9519906361" lon="-2.9417618550">
        <ele>1169.10</ele>
        <time>2017-10-07T14:18:59Z</time>
      </trkpt>
      <trkpt lat="37.9521305300" lon="-2.9421062674">
        <ele>1167.18</ele>
        <time>2017-10-07T14:19:02Z</time>
      </trkpt>
      <trkpt lat="37.9521912150" lon="-2.9422122985">
        <ele>1166.70</ele>
        <time>2017-10-07T14:19:03Z</time>
      </trkpt>
      <trkpt lat="37.9522603657" lon="-2.9423122946">
        <ele>1165.74</ele>
        <time>2017-10-07T14:19:04Z</time>
      </trkpt>
      <trkpt lat="37.9523366410" lon="-2.9424029030">
        <ele>1164.77</ele>
        <time>2017-10-07T14:19:05Z</time>
      </trkpt>
      <trkpt lat="37.9524197057" lon="-2.9424812738">
        <ele>1164.29</ele>
        <time>2017-10-07T14:19:06Z</time>
      </trkpt>
      <trkpt lat="37.9525119066" lon="-2.9425481614">
        <ele>1163.81</ele>
        <time>2017-10-07T14:19:07Z</time>
      </trkpt>
      <trkpt lat="37.9526069574" lon="-2.9426135402">
        <ele>1162.85</ele>
        <time>2017-10-07T14:19:08Z</time>
      </trkpt>
      <trkpt lat="37.9527003318" lon="-2.9426810984">
        <ele>1161.89</ele>
        <time>2017-10-07T14:19:09Z</time>
      </trkpt>
      <trkpt lat="37.9527898505" lon="-2.9427573737">
        <ele>1161.41</ele>
        <time>2017-10-07T14:19:10Z</time>
      </trkpt>
      <trkpt lat="37.9528652038" lon="-2.9428526759">
        <ele>1160.45</ele>
        <time>2017-10-07T14:19:11Z</time>
      </trkpt>
      <trkpt lat="37.9529230390" lon="-2.9429670889">
        <ele>1160.45</ele>
        <time>2017-10-07T14:19:12Z</time>
      </trkpt>
      <trkpt lat="37.9529646970" lon="-2.9430958349">
        <ele>1159.97</ele>
        <time>2017-10-07T14:19:13Z</time>
      </trkpt>
      <trkpt lat="37.9529947042" lon="-2.9432312027">
        <ele>1159.01</ele>
        <time>2017-10-07T14:19:14Z</time>
      </trkpt>
      <trkpt lat="37.9530185089" lon="-2.9433705099">
        <ele>1158.53</ele>
        <time>2017-10-07T14:19:15Z</time>
      </trkpt>
      <trkpt lat="37.9530351050" lon="-2.9435121641">
        <ele>1157.56</ele>
        <time>2017-10-07T14:19:16Z</time>
      </trkpt>
      <trkpt lat="37.9530403018" lon="-2.9436544050">
        <ele>1157.08</ele>
        <time>2017-10-07T14:19:17Z</time>
      </trkpt>
      <trkpt lat="37.9530487675" lon="-2.9442399647">
        <ele>1152.76</ele>
        <time>2017-10-07T14:19:21Z</time>
      </trkpt>
      <trkpt lat="37.9530523717" lon="-2.9443818703">
        <ele>1152.76</ele>
        <time>2017-10-07T14:19:22Z</time>
      </trkpt>
      <trkpt lat="37.9530565627" lon="-2.9448134545">
        <ele>1150.84</ele>
        <time>2017-10-07T14:19:25Z</time>
      </trkpt>
      <trkpt lat="37.9530699737" lon="-2.9454849288">
        <ele>1148.91</ele>
        <time>2017-10-07T14:19:31Z</time>
      </trkpt>
      <trkpt lat="37.9530693032" lon="-2.9455599468">
        <ele>1148.43</ele>
        <time>2017-10-07T14:19:32Z</time>
      </trkpt>
      <trkpt lat="37.9530609213" lon="-2.9456244037">
        <ele>1148.43</ele>
        <time>2017-10-07T14:19:33Z</time>
      </trkpt>
      <trkpt lat="37.9530486837" lon="-2.9456773773">
        <ele>1148.43</ele>
        <time>2017-10-07T14:19:34Z</time>
      </trkpt>
      <trkpt lat="37.9530293215" lon="-2.9457233939">
        <ele>1147.95</ele>
        <time>2017-10-07T14:19:35Z</time>
      </trkpt>
      <trkpt lat="37.9530050978" lon="-2.9457563348">
        <ele>1147.95</ele>
        <time>2017-10-07T14:19:36Z</time>
      </trkpt>
      <trkpt lat="37.9529831372" lon="-2.9457814805">
        <ele>1147.95</ele>
        <time>2017-10-07T14:19:37Z</time>
      </trkpt>
      <trkpt lat="37.9529627692" lon="-2.9457984958">
        <ele>1147.95</ele>
        <time>2017-10-07T14:19:38Z</time>
      </trkpt>
      <trkpt lat="37.9529463407" lon="-2.9458045308">
        <ele>1147.47</ele>
        <time>2017-10-07T14:19:39Z</time>
      </trkpt>
      <trkpt lat="37.9529285710" lon="-2.9458009265">
        <ele>1147.47</ele>
        <time>2017-10-07T14:19:48Z</time>
      </trkpt>
      <trkpt lat="37.9529182613" lon="-2.9457915388">
        <ele>1147.47</ele>
        <time>2017-10-07T14:20:08Z</time>
      </trkpt>
      <trkpt lat="37.9529020842" lon="-2.9457845818">
        <ele>1147.47</ele>
        <time>2017-10-07T14:20:14Z</time>
      </trkpt>
      <trkpt lat="37.9528852366" lon="-2.9457804747">
        <ele>1147.47</ele>
        <time>2017-10-07T14:20:15Z</time>
      </trkpt>
      <trkpt lat="37.9528643657" lon="-2.9457759485">
        <ele>1147.47</ele>
        <time>2017-10-07T14:20:16Z</time>
      </trkpt>
      <trkpt lat="37.9528423212" lon="-2.9457635432">
        <ele>1147.47</ele>
        <time>2017-10-07T14:20:17Z</time>
      </trkpt>
      <trkpt lat="37.9528220370" lon="-2.9457420018">
        <ele>1146.99</ele>
        <time>2017-10-07T14:20:18Z</time>
      </trkpt>
      <trkpt lat="37.9528038483" lon="-2.9457181972">
        <ele>1146.99</ele>
        <time>2017-10-07T14:20:19Z</time>
      </trkpt>
      <trkpt lat="37.9527573287" lon="-2.9455772974">
        <ele>1146.51</ele>
        <time>2017-10-07T14:20:23Z</time>
      </trkpt>
      <trkpt lat="37.9527658783" lon="-2.9455325380">
        <ele>1146.03</ele>
        <time>2017-10-07T14:20:24Z</time>
      </trkpt>
      <trkpt lat="37.9527761880" lon="-2.9454817437">
        <ele>1146.03</ele>
        <time>2017-10-07T14:20:25Z</time>
      </trkpt>
      <trkpt lat="37.9527852405" lon="-2.9454250820">
        <ele>1145.55</ele>
        <time>2017-10-07T14:20:26Z</time>
      </trkpt>
      <trkpt lat="37.9527945444" lon="-2.9453658219">
        <ele>1145.55</ele>
        <time>2017-10-07T14:20:27Z</time>
      </trkpt>
      <trkpt lat="37.9528035130" lon="-2.9452365730">
        <ele>1145.07</ele>
        <time>2017-10-07T14:20:29Z</time>
      </trkpt>
      <trkpt lat="37.9527996574" lon="-2.9451645724">
        <ele>1144.59</ele>
        <time>2017-10-07T14:20:30Z</time>
      </trkpt>
      <trkpt lat="37.9527780320" lon="-2.9449423682">
        <ele>1144.11</ele>
        <time>2017-10-07T14:20:33Z</time>
      </trkpt>
      <trkpt lat="37.9526248109" lon="-2.9442420602">
        <ele>1141.22</ele>
        <time>2017-10-07T14:20:41Z</time>
      </trkpt>
      <trkpt lat="37.9525634553" lon="-2.9439446703">
        <ele>1140.26</ele>
        <time>2017-10-07T14:20:44Z</time>
      </trkpt>
      <trkpt lat="37.9525025189" lon="-2.9437462706">
        <ele>1139.30</ele>
        <time>2017-10-07T14:20:46Z</time>
      </trkpt>
      <trkpt lat="37.9524622019" lon="-2.9436486214">
        <ele>1138.82</ele>
        <time>2017-10-07T14:20:47Z</time>
      </trkpt>
      <trkpt lat="37.9524109047" lon="-2.9435549956">
        <ele>1138.34</ele>
        <time>2017-10-07T14:20:48Z</time>
      </trkpt>
      <trkpt lat="37.9523505550" lon="-2.9434663150">
        <ele>1137.86</ele>
        <time>2017-10-07T14:20:49Z</time>
      </trkpt>
      <trkpt lat="37.9522817396" lon="-2.9433804844">
        <ele>1137.38</ele>
        <time>2017-10-07T14:20:50Z</time>
      </trkpt>
      <trkpt lat="37.9522033688" lon="-2.9433073103">
        <ele>1136.90</ele>
        <time>2017-10-07T14:20:51Z</time>
      </trkpt>
      <trkpt lat="37.9521175381" lon="-2.9432463739">
        <ele>1136.42</ele>
        <time>2017-10-07T14:20:52Z</time>
      </trkpt>
      <trkpt lat="37.9520316236" lon="-2.9431825038">
        <ele>1135.94</ele>
        <time>2017-10-07T14:20:53Z</time>
      </trkpt>
      <trkpt lat="37.9519473854" lon="-2.9431125987">
        <ele>1134.97</ele>
        <time>2017-10-07T14:20:54Z</time>
      </trkpt>
      <trkpt lat="37.9515532684" lon="-2.9427056573">
        <ele>1132.57</ele>
        <time>2017-10-07T14:20:59Z</time>
      </trkpt>
      <trkpt lat="37.9514866322" lon="-2.9426059127">
        <ele>1132.09</ele>
        <time>2017-10-07T14:21:00Z</time>
      </trkpt>
      <trkpt lat="37.9514275398" lon="-2.9424980376">
        <ele>1131.61</ele>
        <time>2017-10-07T14:21:01Z</time>
      </trkpt>
      <trkpt lat="37.9512443114" lon="-2.9420874920">
        <ele>1130.65</ele>
        <time>2017-10-07T14:21:05Z</time>
      </trkpt>
      <trkpt lat="37.9511915054" lon="-2.9420212749">
        <ele>1130.65</ele>
        <time>2017-10-07T14:21:06Z</time>
      </trkpt>
      <trkpt lat="37.9511256237" lon="-2.9419789463">
        <ele>1130.65</ele>
        <time>2017-10-07T14:21:07Z</time>
      </trkpt>
      <trkpt lat="37.9510512762" lon="-2.9419688880">
        <ele>1130.65</ele>
        <time>2017-10-07T14:21:08Z</time>
      </trkpt>
      <trkpt lat="37.9509755038" lon="-2.9419846460">
        <ele>1130.65</ele>
        <time>2017-10-07T14:21:09Z</time>
      </trkpt>
      <trkpt lat="37.9509107955" lon="-2.9420228675">
        <ele>1130.65</ele>
        <time>2017-10-07T14:21:10Z</time>
      </trkpt>
      <trkpt lat="37.9508605879" lon="-2.9420796968">
        <ele>1130.65</ele>
        <time>2017-10-07T14:21:11Z</time>
      </trkpt>
      <trkpt lat="37.9508161638" lon="-2.9421473388">
        <ele>1130.65</ele>
        <time>2017-10-07T14:21:12Z</time>
      </trkpt>
      <trkpt lat="37.9506862443" lon="-2.9423627537">
        <ele>1130.17</ele>
        <time>2017-10-07T14:21:15Z</time>
      </trkpt>
      <trkpt lat="37.9506398924" lon="-2.9424332455">
        <ele>1130.17</ele>
        <time>2017-10-07T14:21:16Z</time>
      </trkpt>
      <trkpt lat="37.9505953006" lon="-2.9425018933">
        <ele>1130.17</ele>
        <time>2017-10-07T14:21:17Z</time>
      </trkpt>
      <trkpt lat="37.9502062127" lon="-2.9430493154">
        <ele>1128.73</ele>
        <time>2017-10-07T14:21:25Z</time>
      </trkpt>
      <trkpt lat="37.9496369977" lon="-2.9436694086">
        <ele>1127.76</ele>
        <time>2017-10-07T14:21:35Z</time>
      </trkpt>
      <trkpt lat="37.9495178070" lon="-2.9437818099">
        <ele>1127.28</ele>
        <time>2017-10-07T14:21:37Z</time>
      </trkpt>
      <trkpt lat="37.9490496777" lon="-2.9441390466">
        <ele>1124.40</ele>
        <time>2017-10-07T14:21:44Z</time>
      </trkpt>
      <trkpt lat="37.9485786147" lon="-2.9444545414">
        <ele>1121.52</ele>
        <time>2017-10-07T14:21:50Z</time>
      </trkpt>
      <trkpt lat="37.9485069495" lon="-2.9445293918">
        <ele>1121.52</ele>
        <time>2017-10-07T14:21:51Z</time>
      </trkpt>
      <trkpt lat="37.9484510422" lon="-2.9446270410">
        <ele>1120.55</ele>
        <time>2017-10-07T14:21:52Z</time>
      </trkpt>
      <trkpt lat="37.9484138265" lon="-2.9447373468">
        <ele>1120.07</ele>
        <time>2017-10-07T14:21:53Z</time>
      </trkpt>
      <trkpt lat="37.9483804666" lon="-2.9448472336">
        <ele>1120.07</ele>
        <time>2017-10-07T14:21:54Z</time>
      </trkpt>
      <trkpt lat="37.9483356234" lon="-2.9449524265">
        <ele>1118.63</ele>
        <time>2017-10-07T14:21:55Z</time>
      </trkpt>
      <trkpt lat="37.9482792970" lon="-2.9450468067">
        <ele>1118.63</ele>
        <time>2017-10-07T14:21:56Z</time>
      </trkpt>
      <trkpt lat="37.9482147563" lon="-2.9451243393">
        <ele>1118.15</ele>
        <time>2017-10-07T14:21:57Z</time>
      </trkpt>
      <trkpt lat="37.9481356312" lon="-2.9451721162">
        <ele>1118.15</ele>
        <time>2017-10-07T14:21:58Z</time>
      </trkpt>
      <trkpt lat="37.9480457772" lon="-2.9451839346">
        <ele>1118.15</ele>
        <time>2017-10-07T14:21:59Z</time>
      </trkpt>
      <trkpt lat="37.9479564261" lon="-2.9451649077">
        <ele>1118.15</ele>
        <time>2017-10-07T14:22:00Z</time>
      </trkpt>
      <trkpt lat="37.9478714336" lon="-2.9451273568">
        <ele>1117.67</ele>
        <time>2017-10-07T14:22:01Z</time>
      </trkpt>
      <trkpt lat="37.9477910511" lon="-2.9450836871">
        <ele>1117.67</ele>
        <time>2017-10-07T14:22:02Z</time>
      </trkpt>
      <trkpt lat="37.9477139376" lon="-2.9450364970">
        <ele>1117.19</ele>
        <time>2017-10-07T14:22:03Z</time>
      </trkpt>
      <trkpt lat="37.9475588724" lon="-2.9449502472">
        <ele>1116.71</ele>
        <time>2017-10-07T14:22:05Z</time>
      </trkpt>
      <trkpt lat="37.9474748019" lon="-2.9449289571">
        <ele>1116.23</ele>
        <time>2017-10-07T14:22:06Z</time>
      </trkpt>
      <trkpt lat="37.9473862052" lon="-2.9449334834">
        <ele>1115.75</ele>
        <time>2017-10-07T14:22:07Z</time>
      </trkpt>
      <trkpt lat="37.9471202474" lon="-2.9450154584">
        <ele>1114.31</ele>
        <time>2017-10-07T14:22:10Z</time>
      </trkpt>
      <trkpt lat="37.9469486699" lon="-2.9451092519">
        <ele>1113.34</ele>
        <time>2017-10-07T14:22:12Z</time>
      </trkpt>
      <trkpt lat="37.9468776751" lon="-2.9451742955">
        <ele>1112.86</ele>
        <time>2017-10-07T14:22:13Z</time>
      </trkpt>
      <trkpt lat="37.9468187504" lon="-2.9452560190">
        <ele>1111.90</ele>
        <time>2017-10-07T14:22:14Z</time>
      </trkpt>
      <trkpt lat="37.9467998911" lon="-2.9454094078">
        <ele>1111.42</ele>
        <time>2017-10-07T14:22:15Z</time>
      </trkpt>
      <trkpt lat="37.9467903357" lon="-2.9455700051">
        <ele>1110.46</ele>
        <time>2017-10-07T14:22:16Z</time>
      </trkpt>
      <trkpt lat="37.9468217678" lon="-2.9457473662">
        <ele>1110.46</ele>
        <time>2017-10-07T14:22:17Z</time>
      </trkpt>
      <trkpt lat="37.9468644317" lon="-2.9458983243">
        <ele>1108.54</ele>
        <time>2017-10-07T14:22:18Z</time>
      </trkpt>
      <trkpt lat="37.9468865599" lon="-2.9460305069">
        <ele>1108.06</ele>
        <time>2017-10-07T14:22:19Z</time>
      </trkpt>
      <trkpt lat="37.9468970373" lon="-2.9461691435">
        <ele>1107.10</ele>
        <time>2017-10-07T14:22:20Z</time>
      </trkpt>
      <trkpt lat="37.9468395375" lon="-2.9471836891">
        <ele>1104.21</ele>
        <time>2017-10-07T14:22:28Z</time>
      </trkpt>
      <trkpt lat="37.9468143079" lon="-2.9472980183">
        <ele>1104.21</ele>
        <time>2017-10-07T14:22:29Z</time>
      </trkpt>
      <trkpt lat="37.9467594065" lon="-2.9475352261">
        <ele>1103.73</ele>
        <time>2017-10-07T14:22:31Z</time>
      </trkpt>
      <trkpt lat="37.9467514437" lon="-2.9476627987">
        <ele>1103.25</ele>
        <time>2017-10-07T14:22:32Z</time>
      </trkpt>
      <trkpt lat="37.9467493482" lon="-2.9477860965">
        <ele>1102.29</ele>
        <time>2017-10-07T14:22:33Z</time>
      </trkpt>
      <trkpt lat="37.9467232805" lon="-2.9479040299">
        <ele>1101.81</ele>
        <time>2017-10-07T14:22:34Z</time>
      </trkpt>
      <trkpt lat="37.9466706421" lon="-2.9480108991">
        <ele>1101.33</ele>
        <time>2017-10-07T14:22:35Z</time>
      </trkpt>
      <trkpt lat="37.9466061853" lon="-2.9481023457">
        <ele>1100.85</ele>
        <time>2017-10-07T14:22:36Z</time>
      </trkpt>
      <trkpt lat="37.9465317540" lon="-2.9481802136">
        <ele>1100.37</ele>
        <time>2017-10-07T14:22:37Z</time>
      </trkpt>
      <trkpt lat="37.9464622680" lon="-2.9482615180">
        <ele>1099.40</ele>
        <time>2017-10-07T14:22:38Z</time>
      </trkpt>
      <trkpt lat="37.9464114737" lon="-2.9483492766">
        <ele>1098.92</ele>
        <time>2017-10-07T14:22:39Z</time>
      </trkpt>
      <trkpt lat="37.9463736713" lon="-2.9484296590">
        <ele>1098.44</ele>
        <time>2017-10-07T14:22:40Z</time>
      </trkpt>
      <trkpt lat="37.9463419877" lon="-2.9484967981">
        <ele>1097.96</ele>
        <time>2017-10-07T14:22:41Z</time>
      </trkpt>
      <trkpt lat="37.9463186022" lon="-2.9485571478">
        <ele>1097.48</ele>
        <time>2017-10-07T14:22:42Z</time>
      </trkpt>
      <trkpt lat="37.9463092145" lon="-2.9486215208">
        <ele>1097.00</ele>
        <time>2017-10-07T14:22:43Z</time>
      </trkpt>
      <trkpt lat="37.9463210329" lon="-2.9486877378">
        <ele>1096.52</ele>
        <time>2017-10-07T14:22:44Z</time>
      </trkpt>
      <trkpt lat="37.9463569075" lon="-2.9487398732">
        <ele>1096.04</ele>
        <time>2017-10-07T14:22:45Z</time>
      </trkpt>
      <trkpt lat="37.9464081209" lon="-2.9487596545">
        <ele>1095.56</ele>
        <time>2017-10-07T14:22:46Z</time>
      </trkpt>
      <trkpt lat="37.9464631900" lon="-2.9487407953">
        <ele>1095.08</ele>
        <time>2017-10-07T14:22:47Z</time>
      </trkpt>
      <trkpt lat="37.9465044290" lon="-2.9486870673">
        <ele>1095.08</ele>
        <time>2017-10-07T14:22:48Z</time>
      </trkpt>
      <trkpt lat="37.9465199355" lon="-2.9486143123">
        <ele>1094.60</ele>
        <time>2017-10-07T14:22:49Z</time>
      </trkpt>
      <trkpt lat="37.9465216957" lon="-2.9485393781">
        <ele>1094.60</ele>
        <time>2017-10-07T14:22:50Z</time>
      </trkpt>
      <trkpt lat="37.9465277307" lon="-2.9484703112">
        <ele>1094.60</ele>
        <time>2017-10-07T14:22:51Z</time>
      </trkpt>
      <trkpt lat="37.9465472605" lon="-2.9484037589">
        <ele>1094.60</ele>
        <time>2017-10-07T14:22:52Z</time>
      </trkpt>
      <trkpt lat="37.9465763457" lon="-2.9483399726">
        <ele>1094.60</ele>
        <time>2017-10-07T14:22:53Z</time>
      </trkpt>
      <trkpt lat="37.9466140643" lon="-2.9482814670">
        <ele>1094.60</ele>
        <time>2017-10-07T14:22:54Z</time>
      </trkpt>
      <trkpt lat="37.9466605000" lon="-2.9482341930">
        <ele>1094.60</ele>
        <time>2017-10-07T14:22:55Z</time>
      </trkpt>
      <trkpt lat="37.9467112105" lon="-2.9481937923">
        <ele>1094.12</ele>
        <time>2017-10-07T14:22:56Z</time>
      </trkpt>
      <trkpt lat="37.9468078539" lon="-2.9481004179">
        <ele>1094.12</ele>
        <time>2017-10-07T14:22:58Z</time>
      </trkpt>
      <trkpt lat="37.9468490928" lon="-2.9480411578">
        <ele>1094.12</ele>
        <time>2017-10-07T14:22:59Z</time>
      </trkpt>
      <trkpt lat="37.9468845483" lon="-2.9479751084">
        <ele>1093.64</ele>
        <time>2017-10-07T14:23:00Z</time>
      </trkpt>
      <trkpt lat="37.9469158128" lon="-2.9479051195">
        <ele>1093.64</ele>
        <time>2017-10-07T14:23:01Z</time>
      </trkpt>
      <trkpt lat="37.9469422158" lon="-2.9478313588">
        <ele>1093.16</ele>
        <time>2017-10-07T14:23:02Z</time>
      </trkpt>
      <trkpt lat="37.9469655175" lon="-2.9477545805">
        <ele>1093.16</ele>
        <time>2017-10-07T14:23:03Z</time>
      </trkpt>
      <trkpt lat="37.9470126238" lon="-2.9476016108">
        <ele>1093.16</ele>
        <time>2017-10-07T14:23:05Z</time>
      </trkpt>
      <trkpt lat="37.9470435530" lon="-2.9475275148">
        <ele>1093.16</ele>
        <time>2017-10-07T14:23:06Z</time>
      </trkpt>
      <trkpt lat="37.9470816907" lon="-2.9474583641">
        <ele>1093.16</ele>
        <time>2017-10-07T14:23:07Z</time>
      </trkpt>
      <trkpt lat="37.9471241031" lon="-2.9473912250">
        <ele>1092.68</ele>
        <time>2017-10-07T14:23:08Z</time>
      </trkpt>
      <trkpt lat="37.9471623246" lon="-2.9473181348">
        <ele>1092.20</ele>
        <time>2017-10-07T14:23:09Z</time>
      </trkpt>
      <trkpt lat="37.9471913259" lon="-2.9472362436">
        <ele>1091.71</ele>
        <time>2017-10-07T14:23:10Z</time>
      </trkpt>
      <trkpt lat="37.9472114425" lon="-2.9471457191">
        <ele>1091.23</ele>
        <time>2017-10-07T14:23:11Z</time>
      </trkpt>
      <trkpt lat="37.9472272005" lon="-2.9470522609">
        <ele>1090.75</ele>
        <time>2017-10-07T14:23:12Z</time>
      </trkpt>
      <trkpt lat="37.9473569524" lon="-2.9464506917">
        <ele>1088.35</ele>
        <time>2017-10-07T14:23:18Z</time>
      </trkpt>
      <trkpt lat="37.9474571161" lon="-2.9460543953">
        <ele>1086.91</ele>
        <time>2017-10-07T14:23:22Z</time>
      </trkpt>
      <trkpt lat="37.9474998638" lon="-2.9459828977">
        <ele>1086.91</ele>
        <time>2017-10-07T14:23:23Z</time>
      </trkpt>
      <trkpt lat="37.9475517478" lon="-2.9459303431">
        <ele>1086.43</ele>
        <time>2017-10-07T14:23:24Z</time>
      </trkpt>
      <trkpt lat="37.9476165399" lon="-2.9459024314">
        <ele>1085.95</ele>
        <time>2017-10-07T14:23:25Z</time>
      </trkpt>
      <trkpt lat="37.9476982635" lon="-2.9458948877">
        <ele>1085.95</ele>
        <time>2017-10-07T14:23:26Z</time>
      </trkpt>
      <trkpt lat="37.9477833398" lon="-2.9459025990">
        <ele>1085.95</ele>
        <time>2017-10-07T14:23:27Z</time>
      </trkpt>
      <trkpt lat="37.9478674941" lon="-2.9459150881">
        <ele>1085.47</ele>
        <time>2017-10-07T14:23:28Z</time>
      </trkpt>
      <trkpt lat="37.9481926281" lon="-2.9459637031">
        <ele>1083.54</ele>
        <time>2017-10-07T14:23:32Z</time>
      </trkpt>
      <trkpt lat="37.9482544027" lon="-2.9459600989">
        <ele>1083.06</ele>
        <time>2017-10-07T14:23:33Z</time>
      </trkpt>
      <trkpt lat="37.9484907724" lon="-2.9459268227">
        <ele>1082.10</ele>
        <time>2017-10-07T14:23:37Z</time>
      </trkpt>
      <trkpt lat="37.9485860746" lon="-2.9459127411">
        <ele>1081.62</ele>
        <time>2017-10-07T14:23:39Z</time>
      </trkpt>
      <trkpt lat="37.9489107896" lon="-2.9457288422">
        <ele>1080.18</ele>
        <time>2017-10-07T14:23:49Z</time>
      </trkpt>
      <trkpt lat="37.9490166530" lon="-2.9456373956">
        <ele>1079.70</ele>
        <time>2017-10-07T14:23:52Z</time>
      </trkpt>
      <trkpt lat="37.9490557965" lon="-2.9455974139">
        <ele>1079.22</ele>
        <time>2017-10-07T14:23:53Z</time>
      </trkpt>
      <trkpt lat="37.9490965325" lon="-2.9455565941">
        <ele>1079.22</ele>
        <time>2017-10-07T14:23:54Z</time>
      </trkpt>
      <trkpt lat="37.9491404537" lon="-2.9455182888">
        <ele>1079.22</ele>
        <time>2017-10-07T14:23:55Z</time>
      </trkpt>
      <trkpt lat="37.9491892364" lon="-2.9454818275">
        <ele>1079.22</ele>
        <time>2017-10-07T14:23:56Z</time>
      </trkpt>
      <trkpt lat="37.9492433835" lon="-2.9454439413">
        <ele>1078.74</ele>
        <time>2017-10-07T14:23:57Z</time>
      </trkpt>
      <trkpt lat="37.9498212319" lon="-2.9450510815">
        <ele>1075.37</ele>
        <time>2017-10-07T14:24:06Z</time>
      </trkpt>
      <trkpt lat="37.9502792191" lon="-2.9447427951">
        <ele>1072.97</ele>
        <time>2017-10-07T14:24:12Z</time>
      </trkpt>
      <trkpt lat="37.9503506329" lon="-2.9447082616">
        <ele>1072.97</ele>
        <time>2017-10-07T14:24:13Z</time>
      </trkpt>
      <trkpt lat="37.9504165985" lon="-2.9446942639">
        <ele>1072.49</ele>
        <time>2017-10-07T14:24:14Z</time>
      </trkpt>
      <trkpt lat="37.9504833184" lon="-2.9447120335">
        <ele>1072.01</ele>
        <time>2017-10-07T14:24:15Z</time>
      </trkpt>
      <trkpt lat="37.9505482782" lon="-2.9447621573">
        <ele>1071.53</ele>
        <time>2017-10-07T14:24:16Z</time>
      </trkpt>
      <trkpt lat="37.9505973961" lon="-2.9448453896">
        <ele>1071.05</ele>
        <time>2017-10-07T14:24:17Z</time>
      </trkpt>
      <trkpt lat="37.9506256431" lon="-2.9449501634">
        <ele>1070.57</ele>
        <time>2017-10-07T14:24:18Z</time>
      </trkpt>
      <trkpt lat="37.9506373778" lon="-2.9450607207">
        <ele>1070.08</ele>
        <time>2017-10-07T14:24:19Z</time>
      </trkpt>
      <trkpt lat="37.9506445024" lon="-2.9451727867">
        <ele>1069.12</ele>
        <time>2017-10-07T14:24:20Z</time>
      </trkpt>
      <trkpt lat="37.9506728332" lon="-2.9457749426">
        <ele>1065.76</ele>
        <time>2017-10-07T14:24:25Z</time>
      </trkpt>
      <trkpt lat="37.9506905191" lon="-2.9458810575">
        <ele>1064.80</ele>
        <time>2017-10-07T14:24:26Z</time>
      </trkpt>
      <trkpt lat="37.9507085402" lon="-2.9459707439">
        <ele>1064.80</ele>
        <time>2017-10-07T14:24:27Z</time>
      </trkpt>
      <trkpt lat="37.9507613461" lon="-2.9461840633">
        <ele>1064.32</ele>
        <time>2017-10-07T14:24:31Z</time>
      </trkpt>
      <trkpt lat="37.9508123919" lon="-2.9462779406">
        <ele>1063.84</ele>
        <time>2017-10-07T14:24:33Z</time>
      </trkpt>
      <trkpt lat="37.9508449975" lon="-2.9463255499">
        <ele>1063.84</ele>
        <time>2017-10-07T14:24:34Z</time>
      </trkpt>
      <trkpt lat="37.9509677924" lon="-2.9464730714">
        <ele>1062.87</ele>
        <time>2017-10-07T14:24:37Z</time>
      </trkpt>
      <trkpt lat="37.9510168266" lon="-2.9465146456">
        <ele>1062.39</ele>
        <time>2017-10-07T14:24:38Z</time>
      </trkpt>
      <trkpt lat="37.9514805134" lon="-2.9468902387">
        <ele>1058.07</ele>
        <time>2017-10-07T14:24:46Z</time>
      </trkpt>
      <trkpt lat="37.9521122575" lon="-2.9474303685">
        <ele>1055.18</ele>
        <time>2017-10-07T14:24:55Z</time>
      </trkpt>
      <trkpt lat="37.9526769463" lon="-2.9480060376">
        <ele>1051.82</ele>
        <time>2017-10-07T14:25:03Z</time>
      </trkpt>
      <trkpt lat="37.9530829657" lon="-2.9483165871">
        <ele>1049.42</ele>
        <time>2017-10-07T14:25:08Z</time>
      </trkpt>
      <trkpt lat="37.9531757534" lon="-2.9483488575">
        <ele>1048.94</ele>
        <time>2017-10-07T14:25:09Z</time>
      </trkpt>
      <trkpt lat="37.9532719776" lon="-2.9483735003">
        <ele>1047.97</ele>
        <time>2017-10-07T14:25:10Z</time>
      </trkpt>
      <trkpt lat="37.9536909051" lon="-2.9484177567">
        <ele>1045.09</ele>
        <time>2017-10-07T14:25:14Z</time>
      </trkpt>
      <trkpt lat="37.9540986847" lon="-2.9484775197">
        <ele>1041.73</ele>
        <time>2017-10-07T14:25:18Z</time>
      </trkpt>
      <trkpt lat="37.9541996866" lon="-2.9485117178">
        <ele>1041.73</ele>
        <time>2017-10-07T14:25:19Z</time>
      </trkpt>
      <trkpt lat="37.9545943066" lon="-2.9487360176">
        <ele>1039.32</ele>
        <time>2017-10-07T14:25:23Z</time>
      </trkpt>
      <trkpt lat="37.9546905309" lon="-2.9488087725">
        <ele>1038.84</ele>
        <time>2017-10-07T14:25:24Z</time>
      </trkpt>
      <trkpt lat="37.9550870787" lon="-2.9490376823">
        <ele>1036.92</ele>
        <time>2017-10-07T14:25:28Z</time>
      </trkpt>
      <trkpt lat="37.9553757515" lon="-2.9491367564">
        <ele>1035.96</ele>
        <time>2017-10-07T14:25:31Z</time>
      </trkpt>
      <trkpt lat="37.9557372630" lon="-2.9492209945">
        <ele>1035.96</ele>
        <time>2017-10-07T14:25:36Z</time>
      </trkpt>
      <trkpt lat="37.9557827767" lon="-2.9492709506">
        <ele>1035.00</ele>
        <time>2017-10-07T14:25:37Z</time>
      </trkpt>
      <trkpt lat="37.9558033962" lon="-2.9493387602">
        <ele>1035.00</ele>
        <time>2017-10-07T14:25:38Z</time>
      </trkpt>
      <trkpt lat="37.9557918292" lon="-2.9494050611">
        <ele>1034.52</ele>
        <time>2017-10-07T14:25:39Z</time>
      </trkpt>
      <trkpt lat="37.9557577986" lon="-2.9494537599">
        <ele>1034.52</ele>
        <time>2017-10-07T14:25:40Z</time>
      </trkpt>
      <trkpt lat="37.9557093512" lon="-2.9494693503">
        <ele>1035.00</ele>
        <time>2017-10-07T14:25:41Z</time>
      </trkpt>
      <trkpt lat="37.9556575511" lon="-2.9494656622">
        <ele>1034.04</ele>
        <time>2017-10-07T14:25:42Z</time>
      </trkpt>
      <trkpt lat="37.9556065053" lon="-2.9494540114">
        <ele>1033.55</ele>
        <time>2017-10-07T14:25:43Z</time>
      </trkpt>
      <trkpt lat="37.9555573035" lon="-2.9494316317">
        <ele>1033.07</ele>
        <time>2017-10-07T14:25:44Z</time>
      </trkpt>
      <trkpt lat="37.9555075988" lon="-2.9494030494">
        <ele>1033.07</ele>
        <time>2017-10-07T14:25:45Z</time>
      </trkpt>
      <trkpt lat="37.9550891742" lon="-2.9492235929">
        <ele>1029.71</ele>
        <time>2017-10-07T14:25:51Z</time>
      </trkpt>
      <trkpt lat="37.9550132342" lon="-2.9491990339">
        <ele>1029.23</ele>
        <time>2017-10-07T14:25:52Z</time>
      </trkpt>
      <trkpt lat="37.9548452608" lon="-2.9491541907">
        <ele>1028.27</ele>
        <time>2017-10-07T14:25:54Z</time>
      </trkpt>
      <trkpt lat="37.9542977549" lon="-2.9489503428">
        <ele>1024.90</ele>
        <time>2017-10-07T14:26:00Z</time>
      </trkpt>
      <trkpt lat="37.9541019537" lon="-2.9488971177">
        <ele>1023.46</ele>
        <time>2017-10-07T14:26:02Z</time>
      </trkpt>
      <trkpt lat="37.9539993592" lon="-2.9488886520">
        <ele>1022.50</ele>
        <time>2017-10-07T14:26:03Z</time>
      </trkpt>
      <trkpt lat="37.9538888857" lon="-2.9488980398">
        <ele>1022.02</ele>
        <time>2017-10-07T14:26:04Z</time>
      </trkpt>
      <trkpt lat="37.9535425454" lon="-2.9489526059">
        <ele>1018.65</ele>
        <time>2017-10-07T14:26:07Z</time>
      </trkpt>
      <trkpt lat="37.9530729074" lon="-2.9490283784">
        <ele>1015.29</ele>
        <time>2017-10-07T14:26:11Z</time>
      </trkpt>
      <trkpt lat="37.9527376313" lon="-2.9489965271">
        <ele>1012.89</ele>
        <time>2017-10-07T14:26:14Z</time>
      </trkpt>
      <trkpt lat="37.9526315164" lon="-2.9489485826">
        <ele>1012.41</ele>
        <time>2017-10-07T14:26:15Z</time>
      </trkpt>
      <trkpt lat="37.9525260720" lon="-2.9488858860">
        <ele>1011.44</ele>
        <time>2017-10-07T14:26:16Z</time>
      </trkpt>
      <trkpt lat="37.9519954138" lon="-2.9485251289">
        <ele>1007.60</ele>
        <time>2017-10-07T14:26:21Z</time>
      </trkpt>
      <trkpt lat="37.9517680127" lon="-2.9484076146">
        <ele>1005.68</ele>
        <time>2017-10-07T14:26:23Z</time>
      </trkpt>
      <trkpt lat="37.9516523425" lon="-2.9483662918">
        <ele>1005.20</ele>
        <time>2017-10-07T14:26:24Z</time>
      </trkpt>
      <trkpt lat="37.9511604086" lon="-2.9482648708">
        <ele>1001.35</ele>
        <time>2017-10-07T14:26:29Z</time>
      </trkpt>
      <trkpt lat="37.9510635976" lon="-2.9482465982">
        <ele>999.91</ele>
        <time>2017-10-07T14:26:30Z</time>
      </trkpt>
      <trkpt lat="37.9509717319" lon="-2.9482046887">
        <ele>998.95</ele>
        <time>2017-10-07T14:26:31Z</time>
      </trkpt>
      <trkpt lat="37.9508857336" lon="-2.9481389746">
        <ele>997.99</ele>
        <time>2017-10-07T14:26:32Z</time>
      </trkpt>
      <trkpt lat="37.9506124835" lon="-2.9479109868">
        <ele>993.18</ele>
        <time>2017-10-07T14:26:35Z</time>
      </trkpt>
      <trkpt lat="37.9505149182" lon="-2.9478420038">
        <ele>997.51</ele>
        <time>2017-10-07T14:26:36Z</time>
      </trkpt>
      <trkpt lat="37.9504132457" lon="-2.9477746133">
        <ele>994.14</ele>
        <time>2017-10-07T14:26:37Z</time>
      </trkpt>
      <trkpt lat="37.9499457031" lon="-2.9474612139">
        <ele>990.78</ele>
        <time>2017-10-07T14:26:42Z</time>
      </trkpt>
      <trkpt lat="37.9497437831" lon="-2.9473596253">
        <ele>989.33</ele>
        <time>2017-10-07T14:26:45Z</time>
      </trkpt>
      <trkpt lat="37.9496800806" lon="-2.9473625589">
        <ele>988.85</ele>
        <time>2017-10-07T14:26:46Z</time>
      </trkpt>
      <trkpt lat="37.9496172164" lon="-2.9473886266">
        <ele>988.85</ele>
        <time>2017-10-07T14:26:47Z</time>
      </trkpt>
      <trkpt lat="37.9495588783" lon="-2.9474317096">
        <ele>987.89</ele>
        <time>2017-10-07T14:26:48Z</time>
      </trkpt>
      <trkpt lat="37.9495061561" lon="-2.9474746250">
        <ele>987.89</ele>
        <time>2017-10-07T14:26:49Z</time>
      </trkpt>
      <trkpt lat="37.9494582955" lon="-2.9475079849">
        <ele>986.93</ele>
        <time>2017-10-07T14:26:50Z</time>
      </trkpt>
      <trkpt lat="37.9494126141" lon="-2.9475392494">
        <ele>986.45</ele>
        <time>2017-10-07T14:26:51Z</time>
      </trkpt>
      <trkpt lat="37.9493666813" lon="-2.9475781415">
        <ele>986.45</ele>
        <time>2017-10-07T14:26:52Z</time>
      </trkpt>
      <trkpt lat="37.9491950199" lon="-2.9476959072">
        <ele>984.53</ele>
        <time>2017-10-07T14:26:56Z</time>
      </trkpt>
      <trkpt lat="37.9490066785" lon="-2.9479096457">
        <ele>983.09</ele>
        <time>2017-10-07T14:27:04Z</time>
      </trkpt>
      <trkpt lat="37.9488701373" lon="-2.9482182674">
        <ele>982.12</ele>
        <time>2017-10-07T14:27:12Z</time>
      </trkpt>
      <trkpt lat="37.9487516172" lon="-2.9485226981">
        <ele>981.16</ele>
        <time>2017-10-07T14:27:19Z</time>
      </trkpt>
      <trkpt lat="37.9485542234" lon="-2.9488705471">
        <ele>980.20</ele>
        <time>2017-10-07T14:27:29Z</time>
      </trkpt>
      <trkpt lat="37.9483784549" lon="-2.9491264466">
        <ele>979.72</ele>
        <time>2017-10-07T14:27:38Z</time>
      </trkpt>
      <trkpt lat="37.9482730106" lon="-2.9492598865">
        <ele>979.24</ele>
        <time>2017-10-07T14:27:45Z</time>
      </trkpt>
      <trkpt lat="37.9482642934" lon="-2.9492876306">
        <ele>979.24</ele>
        <time>2017-10-07T14:27:52Z</time>
      </trkpt>
      <trkpt lat="37.9482616950" lon="-2.9492752254">
        <ele>978.76</ele>
        <time>2017-10-07T14:28:02Z</time>
      </trkpt>
      <trkpt lat="37.9482439253" lon="-2.9492727946">
        <ele>978.76</ele>
        <time>2017-10-07T14:28:25Z</time>
      </trkpt>
      <trkpt lat="37.9482353758" lon="-2.9492662568">
        <ele>978.76</ele>
        <time>2017-10-07T14:28:45Z</time>
      </trkpt>
      <trkpt lat="37.9482260719" lon="-2.9492525104">
        <ele>978.76</ele>
        <time>2017-10-07T14:29:06Z</time>
      </trkpt>
      <trkpt lat="37.9482066259" lon="-2.9492402729">
        <ele>978.28</ele>
        <time>2017-10-07T14:29:26Z</time>
      </trkpt>
      <trkpt lat="37.9482045304" lon="-2.9492456373">
        <ele>979.24</ele>
        <time>2017-10-07T14:29:42Z</time>
      </trkpt>
      <trkpt lat="37.9481989983" lon="-2.9492424522">
        <ele>978.28</ele>
        <time>2017-10-07T14:30:04Z</time>
      </trkpt>
      <trkpt lat="37.9481917899" lon="-2.9492376745">
        <ele>977.80</ele>
        <time>2017-10-07T14:30:29Z</time>
      </trkpt>
      <trkpt lat="37.9481814802" lon="-2.9492300469">
        <ele>977.32</ele>
        <time>2017-10-07T14:30:50Z</time>
      </trkpt>
      <trkpt lat="37.9481571727" lon="-2.9492230900">
        <ele>977.32</ele>
        <time>2017-10-07T14:31:16Z</time>
      </trkpt>
      <trkpt lat="37.9481530655" lon="-2.9492282029">
        <ele>977.32</ele>
        <time>2017-10-07T14:31:41Z</time>
      </trkpt>
      <trkpt lat="37.9481543228" lon="-2.9492378421">
        <ele>976.84</ele>
        <time>2017-10-07T14:32:02Z</time>
      </trkpt>
      <trkpt lat="37.9481732659" lon="-2.9492333159">
        <ele>976.84</ele>
        <time>2017-10-07T14:32:14Z</time>
      </trkpt>
      <trkpt lat="37.9481665604" lon="-2.9492261913">
        <ele>976.84</ele>
        <time>2017-10-07T14:32:17Z</time>
      </trkpt>
      <trkpt lat="37.9481526464" lon="-2.9492249340">
        <ele>976.84</ele>
        <time>2017-10-07T14:32:18Z</time>
      </trkpt>
      <trkpt lat="37.9481382295" lon="-2.9492350761">
        <ele>976.36</ele>
        <time>2017-10-07T14:32:19Z</time>
      </trkpt>
      <trkpt lat="37.9481243994" lon="-2.9492598027">
        <ele>976.36</ele>
        <time>2017-10-07T14:32:20Z</time>
      </trkpt>
      <trkpt lat="37.9481096473" lon="-2.9492934141">
        <ele>976.36</ele>
        <time>2017-10-07T14:32:21Z</time>
      </trkpt>
      <trkpt lat="37.9480903689" lon="-2.9493283667">
        <ele>975.88</ele>
        <time>2017-10-07T14:32:22Z</time>
      </trkpt>
      <trkpt lat="37.9480727669" lon="-2.9493685160">
        <ele>976.36</ele>
        <time>2017-10-07T14:32:23Z</time>
      </trkpt>
      <trkpt lat="37.9480501357" lon="-2.9494081624">
        <ele>975.39</ele>
        <time>2017-10-07T14:32:24Z</time>
      </trkpt>
      <trkpt lat="37.9480217211" lon="-2.9494485632">
        <ele>975.39</ele>
        <time>2017-10-07T14:32:25Z</time>
      </trkpt>
      <trkpt lat="37.9478956573" lon="-2.9496137705">
        <ele>974.43</ele>
        <time>2017-10-07T14:32:29Z</time>
      </trkpt>
      <trkpt lat="37.9475381691" lon="-2.9500767868">
        <ele>972.03</ele>
        <time>2017-10-07T14:32:38Z</time>
      </trkpt>
      <trkpt lat="37.9474546015" lon="-2.9502174351">
        <ele>971.07</ele>
        <time>2017-10-07T14:32:40Z</time>
      </trkpt>
      <trkpt lat="37.9474201519" lon="-2.9502969794">
        <ele>971.07</ele>
        <time>2017-10-07T14:32:41Z</time>
      </trkpt>
      <trkpt lat="37.9473954253" lon="-2.9503818043">
        <ele>970.59</ele>
        <time>2017-10-07T14:32:42Z</time>
      </trkpt>
      <trkpt lat="37.9473431222" lon="-2.9506411403">
        <ele>970.11</ele>
        <time>2017-10-07T14:32:45Z</time>
      </trkpt>
      <trkpt lat="37.9473310523" lon="-2.9507299047">
        <ele>970.11</ele>
        <time>2017-10-07T14:32:46Z</time>
      </trkpt>
      <trkpt lat="37.9473116901" lon="-2.9508161545">
        <ele>969.63</ele>
        <time>2017-10-07T14:32:47Z</time>
      </trkpt>
      <trkpt lat="37.9472870473" lon="-2.9508983810">
        <ele>969.15</ele>
        <time>2017-10-07T14:32:48Z</time>
      </trkpt>
      <trkpt lat="37.9472610634" lon="-2.9509759136">
        <ele>969.15</ele>
        <time>2017-10-07T14:32:49Z</time>
      </trkpt>
      <trkpt lat="37.9471263662" lon="-2.9512967728">
        <ele>967.22</ele>
        <time>2017-10-07T14:32:54Z</time>
      </trkpt>
      <trkpt lat="37.9471006338" lon="-2.9513442144">
        <ele>967.22</ele>
        <time>2017-10-07T14:32:55Z</time>
      </trkpt>
      <trkpt lat="37.9470795114" lon="-2.9513876326">
        <ele>966.74</ele>
        <time>2017-10-07T14:32:56Z</time>
      </trkpt>
      <trkpt lat="37.9470598139" lon="-2.9514325596">
        <ele>966.74</ele>
        <time>2017-10-07T14:32:57Z</time>
      </trkpt>
      <trkpt lat="37.9470371827" lon="-2.9514797498">
        <ele>966.26</ele>
        <time>2017-10-07T14:32:58Z</time>
      </trkpt>
      <trkpt lat="37.9469684511" lon="-2.9516214039">
        <ele>965.30</ele>
        <time>2017-10-07T14:33:01Z</time>
      </trkpt>
      <trkpt lat="37.9467058461" lon="-2.9520645551">
        <ele>963.86</ele>
        <time>2017-10-07T14:33:11Z</time>
      </trkpt>
      <trkpt lat="37.9466356896" lon="-2.9521516431">
        <ele>962.90</ele>
        <time>2017-10-07T14:33:18Z</time>
      </trkpt>
      <trkpt lat="37.9466161598" lon="-2.9521713406">
        <ele>962.42</ele>
        <time>2017-10-07T14:33:28Z</time>
      </trkpt>
      <trkpt lat="37.9466217756" lon="-2.9521747772">
        <ele>962.90</ele>
        <time>2017-10-07T14:33:53Z</time>
      </trkpt>
      <trkpt lat="37.9466169979" lon="-2.9521658923">
        <ele>962.42</ele>
        <time>2017-10-07T14:34:19Z</time>
      </trkpt>
      <trkpt lat="37.9464848991" lon="-2.9522398207">
        <ele>961.94</ele>
        <time>2017-10-07T14:34:27Z</time>
      </trkpt>
      <trkpt lat="37.9460812267" lon="-2.9524159245">
        <ele>959.53</ele>
        <time>2017-10-07T14:34:36Z</time>
      </trkpt>
      <trkpt lat="37.9459136724" lon="-2.9525235482">
        <ele>958.57</ele>
        <time>2017-10-07T14:34:39Z</time>
      </trkpt>
      <trkpt lat="37.9458637163" lon="-2.9525796231">
        <ele>958.09</ele>
        <time>2017-10-07T14:34:40Z</time>
      </trkpt>
      <trkpt lat="37.9458210524" lon="-2.9526513722">
        <ele>958.09</ele>
        <time>2017-10-07T14:34:41Z</time>
      </trkpt>
      <trkpt lat="37.9454860277" lon="-2.9531519394">
        <ele>955.21</ele>
        <time>2017-10-07T14:34:48Z</time>
      </trkpt>
      <trkpt lat="37.9449294694" lon="-2.9536209069">
        <ele>951.84</ele>
        <time>2017-10-07T14:34:57Z</time>
      </trkpt>
      <trkpt lat="37.9442140739" lon="-2.9539692588">
        <ele>948.48</ele>
        <time>2017-10-07T14:35:06Z</time>
      </trkpt>
      <trkpt lat="37.9439636227" lon="-2.9540980887">
        <ele>947.52</ele>
        <time>2017-10-07T14:35:09Z</time>
      </trkpt>
      <trkpt lat="37.9438861739" lon="-2.9541573487">
        <ele>947.04</ele>
        <time>2017-10-07T14:35:10Z</time>
      </trkpt>
      <trkpt lat="37.9438142572" lon="-2.9542295169">
        <ele>946.56</ele>
        <time>2017-10-07T14:35:11Z</time>
      </trkpt>
      <trkpt lat="37.9434825014" lon="-2.9546396434">
        <ele>944.63</ele>
        <time>2017-10-07T14:35:16Z</time>
      </trkpt>
      <trkpt lat="37.9434053041" lon="-2.9547105543">
        <ele>944.15</ele>
        <time>2017-10-07T14:35:17Z</time>
      </trkpt>
      <trkpt lat="37.9428121168" lon="-2.9551613331">
        <ele>940.79</ele>
        <time>2017-10-07T14:35:24Z</time>
      </trkpt>
      <trkpt lat="37.9423770122" lon="-2.9554997105">
        <ele>938.38</ele>
        <time>2017-10-07T14:35:29Z</time>
      </trkpt>
      <trkpt lat="37.9423014075" lon="-2.9555857927">
        <ele>938.38</ele>
        <time>2017-10-07T14:35:30Z</time>
      </trkpt>
      <trkpt lat="37.9421582446" lon="-2.9557639081">
        <ele>937.90</ele>
        <time>2017-10-07T14:35:32Z</time>
      </trkpt>
      <trkpt lat="37.9419210367" lon="-2.9559960030">
        <ele>936.46</ele>
        <time>2017-10-07T14:35:35Z</time>
      </trkpt>
      <trkpt lat="37.9418309312" lon="-2.9560532514">
        <ele>935.98</ele>
        <time>2017-10-07T14:35:36Z</time>
      </trkpt>
      <trkpt lat="37.9413474631" lon="-2.9562814906">
        <ele>934.06</ele>
        <time>2017-10-07T14:35:42Z</time>
      </trkpt>
      <trkpt lat="37.9410939943" lon="-2.9563379847">
        <ele>933.10</ele>
        <time>2017-10-07T14:35:49Z</time>
      </trkpt>
      <trkpt lat="37.9406336602" lon="-2.9564284254">
        <ele>931.17</ele>
        <time>2017-10-07T14:35:58Z</time>
      </trkpt>
      <trkpt lat="37.9402183369" lon="-2.9564419203">
        <ele>931.17</ele>
        <time>2017-10-07T14:36:05Z</time>
      </trkpt>
      <trkpt lat="37.9401626810" lon="-2.9564313591">
        <ele>931.17</ele>
        <time>2017-10-07T14:36:06Z</time>
      </trkpt>
      <trkpt lat="37.9396757763" lon="-2.9563358892">
        <ele>931.17</ele>
        <time>2017-10-07T14:36:14Z</time>
      </trkpt>
      <trkpt lat="37.9396201205" lon="-2.9563106596">
        <ele>931.17</ele>
        <time>2017-10-07T14:36:15Z</time>
      </trkpt>
      <trkpt lat="37.9390938208" lon="-2.9559915606">
        <ele>931.17</ele>
        <time>2017-10-07T14:36:25Z</time>
      </trkpt>
      <trkpt lat="37.9389883764" lon="-2.9559250083">
        <ele>931.17</ele>
        <time>2017-10-07T14:36:27Z</time>
      </trkpt>
      <trkpt lat="37.9389331397" lon="-2.9559057299">
        <ele>931.17</ele>
        <time>2017-10-07T14:36:28Z</time>
      </trkpt>
      <trkpt lat="37.9388772324" lon="-2.9558972642">
        <ele>931.17</ele>
        <time>2017-10-07T14:36:29Z</time>
      </trkpt>
      <trkpt lat="37.9388194811" lon="-2.9558945820">
        <ele>931.17</ele>
        <time>2017-10-07T14:36:30Z</time>
      </trkpt>
      <trkpt lat="37.9387629032" lon="-2.9558970127">
        <ele>931.17</ele>
        <time>2017-10-07T14:36:31Z</time>
      </trkpt>
      <trkpt lat="37.9387084208" lon="-2.9559070710">
        <ele>931.65</ele>
        <time>2017-10-07T14:36:32Z</time>
      </trkpt>
      <trkpt lat="37.9386551958" lon="-2.9559249245">
        <ele>931.65</ele>
        <time>2017-10-07T14:36:33Z</time>
      </trkpt>
      <trkpt lat="37.9386017192" lon="-2.9559436999">
        <ele>931.65</ele>
        <time>2017-10-07T14:36:34Z</time>
      </trkpt>
      <trkpt lat="37.9384439718" lon="-2.9560212325">
        <ele>932.14</ele>
        <time>2017-10-07T14:36:37Z</time>
      </trkpt>
      <trkpt lat="37.9383956920" lon="-2.9560626391">
        <ele>931.65</ele>
        <time>2017-10-07T14:36:38Z</time>
      </trkpt>
      <trkpt lat="37.9383521061" lon="-2.9561103322">
        <ele>931.17</ele>
        <time>2017-10-07T14:36:39Z</time>
      </trkpt>
      <trkpt lat="37.9383116215" lon="-2.9561674967">
        <ele>931.17</ele>
        <time>2017-10-07T14:36:40Z</time>
      </trkpt>
      <trkpt lat="37.9382773396" lon="-2.9562363960">
        <ele>930.69</ele>
        <time>2017-10-07T14:36:41Z</time>
      </trkpt>
      <trkpt lat="37.9382509366" lon="-2.9563142639">
        <ele>930.21</ele>
        <time>2017-10-07T14:36:42Z</time>
      </trkpt>
      <trkpt lat="37.9382304009" lon="-2.9563980829">
        <ele>930.21</ele>
        <time>2017-10-07T14:36:43Z</time>
      </trkpt>
      <trkpt lat="37.9382103682" lon="-2.9564840812">
        <ele>929.73</ele>
        <time>2017-10-07T14:36:44Z</time>
      </trkpt>
      <trkpt lat="37.9380180873" lon="-2.9573047534">
        <ele>926.85</ele>
        <time>2017-10-07T14:36:53Z</time>
      </trkpt>
      <trkpt lat="37.9379857332" lon="-2.9575131275">
        <ele>925.89</ele>
        <time>2017-10-07T14:36:55Z</time>
      </trkpt>
      <trkpt lat="37.9379885830" lon="-2.9576204158">
        <ele>925.41</ele>
        <time>2017-10-07T14:36:56Z</time>
      </trkpt>
      <trkpt lat="37.9380081128" lon="-2.9577227589">
        <ele>924.93</ele>
        <time>2017-10-07T14:36:57Z</time>
      </trkpt>
      <trkpt lat="37.9380652774" lon="-2.9579328932">
        <ele>923.48</ele>
        <time>2017-10-07T14:36:59Z</time>
      </trkpt>
      <trkpt lat="37.9380848072" lon="-2.9580440372">
        <ele>923.48</ele>
        <time>2017-10-07T14:37:00Z</time>
      </trkpt>
      <trkpt lat="37.9380909260" lon="-2.9581574444">
        <ele>923.00</ele>
        <time>2017-10-07T14:37:01Z</time>
      </trkpt>
      <trkpt lat="37.9380816221" lon="-2.9582744557">
        <ele>922.04</ele>
        <time>2017-10-07T14:37:02Z</time>
      </trkpt>
      <trkpt lat="37.9380583204" lon="-2.9583891202">
        <ele>921.56</ele>
        <time>2017-10-07T14:37:03Z</time>
      </trkpt>
      <trkpt lat="37.9380237870" lon="-2.9585008509">
        <ele>921.08</ele>
        <time>2017-10-07T14:37:04Z</time>
      </trkpt>
      <trkpt lat="37.9379806202" lon="-2.9586100671">
        <ele>920.60</ele>
        <time>2017-10-07T14:37:05Z</time>
      </trkpt>
      <trkpt lat="37.9379322566" lon="-2.9587160144">
        <ele>920.60</ele>
        <time>2017-10-07T14:37:06Z</time>
      </trkpt>
      <trkpt lat="37.9378028400" lon="-2.9590465967">
        <ele>919.16</ele>
        <time>2017-10-07T14:37:09Z</time>
      </trkpt>
      <trkpt lat="37.9377773590" lon="-2.9591703974">
        <ele>918.68</ele>
        <time>2017-10-07T14:37:10Z</time>
      </trkpt>
      <trkpt lat="37.9377139080" lon="-2.9598085117">
        <ele>915.31</ele>
        <time>2017-10-07T14:37:15Z</time>
      </trkpt>
      <trkpt lat="37.9376375489" lon="-2.9604138527">
        <ele>913.87</ele>
        <time>2017-10-07T14:37:20Z</time>
      </trkpt>
      <trkpt lat="37.9376068711" lon="-2.9605260026">
        <ele>913.87</ele>
        <time>2017-10-07T14:37:21Z</time>
      </trkpt>
      <trkpt lat="37.9375294223" lon="-2.9607318621">
        <ele>913.39</ele>
        <time>2017-10-07T14:37:23Z</time>
      </trkpt>
      <trkpt lat="37.9374453519" lon="-2.9609305132">
        <ele>912.91</ele>
        <time>2017-10-07T14:37:25Z</time>
      </trkpt>
      <trkpt lat="37.9374149255" lon="-2.9610364605">
        <ele>912.43</ele>
        <time>2017-10-07T14:37:26Z</time>
      </trkpt>
      <trkpt lat="37.9373961501" lon="-2.9611474369">
        <ele>912.43</ele>
        <time>2017-10-07T14:37:27Z</time>
      </trkpt>
      <trkpt lat="37.9373882711" lon="-2.9612574913">
        <ele>911.95</ele>
        <time>2017-10-07T14:37:28Z</time>
      </trkpt>
      <trkpt lat="37.9373896960" lon="-2.9613655340">
        <ele>911.95</ele>
        <time>2017-10-07T14:37:29Z</time>
      </trkpt>
      <trkpt lat="37.9373953119" lon="-2.9614754207">
        <ele>911.47</ele>
        <time>2017-10-07T14:37:30Z</time>
      </trkpt>
      <trkpt lat="37.9374304321" lon="-2.9618083499">
        <ele>910.51</ele>
        <time>2017-10-07T14:37:33Z</time>
      </trkpt>
      <trkpt lat="37.9376278259" lon="-2.9630292580">
        <ele>908.10</ele>
        <time>2017-10-07T14:37:44Z</time>
      </trkpt>
      <trkpt lat="37.9377349466" lon="-2.9641597252">
        <ele>906.66</ele>
        <time>2017-10-07T14:37:54Z</time>
      </trkpt>
      <trkpt lat="37.9377729166" lon="-2.9642644990">
        <ele>906.18</ele>
        <time>2017-10-07T14:37:55Z</time>
      </trkpt>
      <trkpt lat="37.9378205258" lon="-2.9643630702">
        <ele>906.18</ele>
        <time>2017-10-07T14:37:56Z</time>
      </trkpt>
      <trkpt lat="37.9378760140" lon="-2.9644536786">
        <ele>905.70</ele>
        <time>2017-10-07T14:37:57Z</time>
      </trkpt>
      <trkpt lat="37.9379385430" lon="-2.9645372462">
        <ele>905.70</ele>
        <time>2017-10-07T14:37:58Z</time>
      </trkpt>
      <trkpt lat="37.9380102083" lon="-2.9646123480">
        <ele>905.22</ele>
        <time>2017-10-07T14:37:59Z</time>
      </trkpt>
      <trkpt lat="37.9380884115" lon="-2.9646802414">
        <ele>904.74</ele>
        <time>2017-10-07T14:38:00Z</time>
      </trkpt>
      <trkpt lat="37.9384547006" lon="-2.9650184512">
        <ele>903.30</ele>
        <time>2017-10-07T14:38:05Z</time>
      </trkpt>
      <trkpt lat="37.9385038186" lon="-2.9651134182">
        <ele>903.30</ele>
        <time>2017-10-07T14:38:06Z</time>
      </trkpt>
      <trkpt lat="37.9385300539" lon="-2.9652197845">
        <ele>902.82</ele>
        <time>2017-10-07T14:38:07Z</time>
      </trkpt>
      <trkpt lat="37.9385361727" lon="-2.9653342813">
        <ele>902.82</ele>
        <time>2017-10-07T14:38:08Z</time>
      </trkpt>
      <trkpt lat="37.9385204148" lon="-2.9654495325">
        <ele>902.82</ele>
        <time>2017-10-07T14:38:09Z</time>
      </trkpt>
      <trkpt lat="37.9384909943" lon="-2.9655584134">
        <ele>902.33</ele>
        <time>2017-10-07T14:38:10Z</time>
      </trkpt>
      <trkpt lat="37.9384538624" lon="-2.9656618461">
        <ele>902.33</ele>
        <time>2017-10-07T14:38:11Z</time>
      </trkpt>
      <trkpt lat="37.9381936044" lon="-2.9663963523">
        <ele>899.93</ele>
        <time>2017-10-07T14:38:18Z</time>
      </trkpt>
      <trkpt lat="37.9381770082" lon="-2.9665131122">
        <ele>899.93</ele>
        <time>2017-10-07T14:38:19Z</time>
      </trkpt>
      <trkpt lat="37.9380807839" lon="-2.9671914596">
        <ele>898.49</ele>
        <time>2017-10-07T14:38:25Z</time>
      </trkpt>
      <trkpt lat="37.9380431492" lon="-2.9672916234">
        <ele>898.49</ele>
        <time>2017-10-07T14:38:26Z</time>
      </trkpt>
      <trkpt lat="37.9379964620" lon="-2.9673884343">
        <ele>898.01</ele>
        <time>2017-10-07T14:38:27Z</time>
      </trkpt>
      <trkpt lat="37.9379440751" lon="-2.9674780369">
        <ele>898.01</ele>
        <time>2017-10-07T14:38:28Z</time>
      </trkpt>
      <trkpt lat="37.9378862400" lon="-2.9675595090">
        <ele>898.01</ele>
        <time>2017-10-07T14:38:29Z</time>
      </trkpt>
      <trkpt lat="37.9378226213" lon="-2.9676361196">
        <ele>898.01</ele>
        <time>2017-10-07T14:38:30Z</time>
      </trkpt>
      <trkpt lat="37.9374498781" lon="-2.9680782650">
        <ele>897.05</ele>
        <time>2017-10-07T14:38:36Z</time>
      </trkpt>
      <trkpt lat="37.9374066275" lon="-2.9681660235">
        <ele>897.05</ele>
        <time>2017-10-07T14:38:37Z</time>
      </trkpt>
      <trkpt lat="37.9373772908" lon="-2.9682644270">
        <ele>896.57</ele>
        <time>2017-10-07T14:38:38Z</time>
      </trkpt>
      <trkpt lat="37.9373583477" lon="-2.9683681950">
        <ele>896.57</ele>
        <time>2017-10-07T14:38:39Z</time>
      </trkpt>
      <trkpt lat="37.9373420030" lon="-2.9684722982">
        <ele>896.57</ele>
        <time>2017-10-07T14:38:40Z</time>
      </trkpt>
      <trkpt lat="37.9372670688" lon="-2.9687862005">
        <ele>895.12</ele>
        <time>2017-10-07T14:38:43Z</time>
      </trkpt>
      <trkpt lat="37.9372243211" lon="-2.9688819218">
        <ele>895.61</ele>
        <time>2017-10-07T14:38:44Z</time>
      </trkpt>
      <trkpt lat="37.9371765442" lon="-2.9689718597">
        <ele>895.12</ele>
        <time>2017-10-07T14:38:45Z</time>
      </trkpt>
      <trkpt lat="37.9365396872" lon="-2.9699277319">
        <ele>893.20</ele>
        <time>2017-10-07T14:38:57Z</time>
      </trkpt>
      <trkpt lat="37.9364830256" lon="-2.9699863214">
        <ele>893.20</ele>
        <time>2017-10-07T14:38:58Z</time>
      </trkpt>
      <trkpt lat="37.9360410478" lon="-2.9703039955">
        <ele>892.72</ele>
        <time>2017-10-07T14:39:05Z</time>
      </trkpt>
      <trkpt lat="37.9355885088" lon="-2.9704693705">
        <ele>892.24</ele>
        <time>2017-10-07T14:39:12Z</time>
      </trkpt>
      <trkpt lat="37.9349935614" lon="-2.9706804268">
        <ele>891.76</ele>
        <time>2017-10-07T14:39:22Z</time>
      </trkpt>
      <trkpt lat="37.9343313910" lon="-2.9708700255">
        <ele>890.80</ele>
        <time>2017-10-07T14:39:33Z</time>
      </trkpt>
      <trkpt lat="37.9337640200" lon="-2.9711978417">
        <ele>890.32</ele>
        <time>2017-10-07T14:39:43Z</time>
      </trkpt>
      <trkpt lat="37.9337190092" lon="-2.9712543357">
        <ele>889.36</ele>
        <time>2017-10-07T14:39:44Z</time>
      </trkpt>
      <trkpt lat="37.9336802009" lon="-2.9713180382">
        <ele>889.36</ele>
        <time>2017-10-07T14:39:45Z</time>
      </trkpt>
      <trkpt lat="37.9336480983" lon="-2.9713889491">
        <ele>889.36</ele>
        <time>2017-10-07T14:39:46Z</time>
      </trkpt>
      <trkpt lat="37.9336234555" lon="-2.9714658950">
        <ele>889.36</ele>
        <time>2017-10-07T14:39:47Z</time>
      </trkpt>
      <trkpt lat="37.9336084519" lon="-2.9715471156">
        <ele>888.88</ele>
        <time>2017-10-07T14:39:48Z</time>
      </trkpt>
      <trkpt lat="37.9336059373" lon="-2.9716322757">
        <ele>889.36</ele>
        <time>2017-10-07T14:39:49Z</time>
      </trkpt>
      <trkpt lat="37.9336133972" lon="-2.9717158433">
        <ele>888.88</ele>
        <time>2017-10-07T14:39:50Z</time>
      </trkpt>
      <trkpt lat="37.9336296581" lon="-2.9717998300">
        <ele>888.88</ele>
        <time>2017-10-07T14:39:51Z</time>
      </trkpt>
      <trkpt lat="37.9336530436" lon="-2.9718819726">
        <ele>888.88</ele>
        <time>2017-10-07T14:39:52Z</time>
      </trkpt>
      <trkpt lat="37.9336856492" lon="-2.9719612654">
        <ele>888.88</ele>
        <time>2017-10-07T14:39:53Z</time>
      </trkpt>
      <trkpt lat="37.9337234516" lon="-2.9720370378">
        <ele>888.40</ele>
        <time>2017-10-07T14:39:54Z</time>
      </trkpt>
      <trkpt lat="37.9340354260" lon="-2.9726479109">
        <ele>887.91</ele>
        <time>2017-10-07T14:40:02Z</time>
      </trkpt>
      <trkpt lat="37.9340547044" lon="-2.9727431294">
        <ele>887.43</ele>
        <time>2017-10-07T14:40:03Z</time>
      </trkpt>
      <trkpt lat="37.9340544529" lon="-2.9728433769">
        <ele>886.95</ele>
        <time>2017-10-07T14:40:04Z</time>
      </trkpt>
      <trkpt lat="37.9340268765" lon="-2.9729389306">
        <ele>886.95</ele>
        <time>2017-10-07T14:40:05Z</time>
      </trkpt>
      <trkpt lat="37.9339747410" lon="-2.9730172176">
        <ele>886.47</ele>
        <time>2017-10-07T14:40:06Z</time>
      </trkpt>
      <trkpt lat="37.9339038301" lon="-2.9730658326">
        <ele>885.99</ele>
        <time>2017-10-07T14:40:07Z</time>
      </trkpt>
      <trkpt lat="37.9338219389" lon="-2.9730740469">
        <ele>885.03</ele>
        <time>2017-10-07T14:40:08Z</time>
      </trkpt>
      <trkpt lat="37.9337439034" lon="-2.9730395973">
        <ele>884.55</ele>
        <time>2017-10-07T14:40:09Z</time>
      </trkpt>
      <trkpt lat="37.9336785246" lon="-2.9729730450">
        <ele>884.55</ele>
        <time>2017-10-07T14:40:10Z</time>
      </trkpt>
      <trkpt lat="37.9336304124" lon="-2.9728893936">
        <ele>884.07</ele>
        <time>2017-10-07T14:40:11Z</time>
      </trkpt>
      <trkpt lat="37.9335949570" lon="-2.9727974441">
        <ele>884.07</ele>
        <time>2017-10-07T14:40:12Z</time>
      </trkpt>
      <trkpt lat="37.9335663747" lon="-2.9727032315">
        <ele>884.07</ele>
        <time>2017-10-07T14:40:13Z</time>
      </trkpt>
      <trkpt lat="37.9334443342" lon="-2.9723221064">
        <ele>883.11</ele>
        <time>2017-10-07T14:40:17Z</time>
      </trkpt>
      <trkpt lat="37.9334003292" lon="-2.9722299054">
        <ele>882.63</ele>
        <time>2017-10-07T14:40:18Z</time>
      </trkpt>
      <trkpt lat="37.9333526362" lon="-2.9721413925">
        <ele>882.15</ele>
        <time>2017-10-07T14:40:19Z</time>
      </trkpt>
      <trkpt lat="37.9332979862" lon="-2.9720575735">
        <ele>882.15</ele>
        <time>2017-10-07T14:40:20Z</time>
      </trkpt>
      <trkpt lat="37.9332351219" lon="-2.9719831422">
        <ele>881.67</ele>
        <time>2017-10-07T14:40:21Z</time>
      </trkpt>
      <trkpt lat="37.9331667256" lon="-2.9719175957">
        <ele>881.19</ele>
        <time>2017-10-07T14:40:22Z</time>
      </trkpt>
      <trkpt lat="37.9329557531" lon="-2.9717122391">
        <ele>875.42</ele>
        <time>2017-10-07T14:40:25Z</time>
      </trkpt>
      <trkpt lat="37.9328840040" lon="-2.9716404900">
        <ele>883.11</ele>
        <time>2017-10-07T14:40:26Z</time>
      </trkpt>
      <trkpt lat="37.9328094050" lon="-2.9715710878">
        <ele>879.74</ele>
        <time>2017-10-07T14:40:27Z</time>
      </trkpt>
      <trkpt lat="37.9324866179" lon="-2.9713327903">
        <ele>878.30</ele>
        <time>2017-10-07T14:40:31Z</time>
      </trkpt>
      <trkpt lat="37.9318301473" lon="-2.9710060637">
        <ele>874.94</ele>
        <time>2017-10-07T14:40:38Z</time>
      </trkpt>
      <trkpt lat="37.9312585015" lon="-2.9706473183">
        <ele>871.57</ele>
        <time>2017-10-07T14:40:44Z</time>
      </trkpt>
      <trkpt lat="37.9307721835" lon="-2.9703518562">
        <ele>865.80</ele>
        <time>2017-10-07T14:40:49Z</time>
      </trkpt>
      <trkpt lat="37.9306764621" lon="-2.9703019001">
        <ele>870.13</ele>
        <time>2017-10-07T14:40:50Z</time>
      </trkpt>
      <trkpt lat="37.9303877894" lon="-2.9701749142">
        <ele>867.25</ele>
        <time>2017-10-07T14:40:53Z</time>
      </trkpt>
      <trkpt lat="37.9295256268" lon="-2.9700108804">
        <ele>864.36</ele>
        <time>2017-10-07T14:41:02Z</time>
      </trkpt>
      <trkpt lat="37.9294330906" lon="-2.9700226150">
        <ele>863.88</ele>
        <time>2017-10-07T14:41:03Z</time>
      </trkpt>
      <trkpt lat="37.9291795380" lon="-2.9700849764">
        <ele>863.40</ele>
        <time>2017-10-07T14:41:06Z</time>
      </trkpt>
      <trkpt lat="37.9290983174" lon="-2.9700805340">
        <ele>862.92</ele>
        <time>2017-10-07T14:41:07Z</time>
      </trkpt>
      <trkpt lat="37.9290227126" lon="-2.9700483475">
        <ele>862.44</ele>
        <time>2017-10-07T14:41:08Z</time>
      </trkpt>
      <trkpt lat="37.9289544001" lon="-2.9699914344">
        <ele>861.96</ele>
        <time>2017-10-07T14:41:09Z</time>
      </trkpt>
      <trkpt lat="37.9288915358" lon="-2.9699232895">
        <ele>861.96</ele>
        <time>2017-10-07T14:41:10Z</time>
      </trkpt>
      <trkpt lat="37.9288301803" lon="-2.9698518757">
        <ele>861.48</ele>
        <time>2017-10-07T14:41:11Z</time>
      </trkpt>
      <trkpt lat="37.9286949802" lon="-2.9697193578">
        <ele>860.52</ele>
        <time>2017-10-07T14:41:13Z</time>
      </trkpt>
      <trkpt lat="37.9286206327" lon="-2.9696646240">
        <ele>860.52</ele>
        <time>2017-10-07T14:41:14Z</time>
      </trkpt>
      <trkpt lat="37.9285437707" lon="-2.9696169309">
        <ele>860.52</ele>
        <time>2017-10-07T14:41:15Z</time>
      </trkpt>
      <trkpt lat="37.9284663219" lon="-2.9695760272">
        <ele>860.04</ele>
        <time>2017-10-07T14:41:16Z</time>
      </trkpt>
      <trkpt lat="37.9283887055" lon="-2.9695462715">
        <ele>860.04</ele>
        <time>2017-10-07T14:41:17Z</time>
      </trkpt>
      <trkpt lat="37.9283084068" lon="-2.9695379734">
        <ele>859.56</ele>
        <time>2017-10-07T14:41:18Z</time>
      </trkpt>
      <trkpt lat="37.9282292817" lon="-2.9695607722">
        <ele>859.56</ele>
        <time>2017-10-07T14:41:19Z</time>
      </trkpt>
      <trkpt lat="37.9281566106" lon="-2.9696134944">
        <ele>859.08</ele>
        <time>2017-10-07T14:41:20Z</time>
      </trkpt>
      <trkpt lat="37.9280989431" lon="-2.9696914461">
        <ele>859.08</ele>
        <time>2017-10-07T14:41:21Z</time>
      </trkpt>
      <trkpt lat="37.9280630685" lon="-2.9697849043">
        <ele>858.59</ele>
        <time>2017-10-07T14:41:22Z</time>
      </trkpt>
      <trkpt lat="37.9280510824" lon="-2.9698828887">
        <ele>858.59</ele>
        <time>2017-10-07T14:41:23Z</time>
      </trkpt>
      <trkpt lat="37.9280626494" lon="-2.9699773528">
        <ele>858.59</ele>
        <time>2017-10-07T14:41:24Z</time>
      </trkpt>
      <trkpt lat="37.9280892201" lon="-2.9700646922">
        <ele>858.59</ele>
        <time>2017-10-07T14:41:25Z</time>
      </trkpt>
      <trkpt lat="37.9281221610" lon="-2.9701426439">
        <ele>859.08</ele>
        <time>2017-10-07T14:41:26Z</time>
      </trkpt>
      <trkpt lat="37.9281558562" lon="-2.9702128004">
        <ele>859.08</ele>
        <time>2017-10-07T14:41:27Z</time>
      </trkpt>
      <trkpt lat="37.9282115120" lon="-2.9703421332">
        <ele>859.56</ele>
        <time>2017-10-07T14:41:29Z</time>
      </trkpt>
      <trkpt lat="37.9282472190" lon="-2.9704614077">
        <ele>860.52</ele>
        <time>2017-10-07T14:41:31Z</time>
      </trkpt>
      <trkpt lat="37.9282570258" lon="-2.9705179855">
        <ele>860.52</ele>
        <time>2017-10-07T14:41:32Z</time>
      </trkpt>
      <trkpt lat="37.9282622226" lon="-2.9705739766">
        <ele>861.00</ele>
        <time>2017-10-07T14:41:33Z</time>
      </trkpt>
      <trkpt lat="37.9282588698" lon="-2.9706273694">
        <ele>861.00</ele>
        <time>2017-10-07T14:41:34Z</time>
      </trkpt>
      <trkpt lat="37.9282521643" lon="-2.9706779961">
        <ele>861.48</ele>
        <time>2017-10-07T14:41:35Z</time>
      </trkpt>
      <trkpt lat="37.9282431118" lon="-2.9707255214">
        <ele>861.96</ele>
        <time>2017-10-07T14:41:36Z</time>
      </trkpt>
      <trkpt lat="37.9280683491" lon="-2.9710351489">
        <ele>862.92</ele>
        <time>2017-10-07T14:41:45Z</time>
      </trkpt>
      <trkpt lat="37.9277925845" lon="-2.9714934714">
        <ele>864.36</ele>
        <time>2017-10-07T14:41:57Z</time>
      </trkpt>
      <trkpt lat="37.9276293889" lon="-2.9718308430">
        <ele>865.80</ele>
        <time>2017-10-07T14:42:07Z</time>
      </trkpt>
      <trkpt lat="37.9275089409" lon="-2.9721054342">
        <ele>867.25</ele>
        <time>2017-10-07T14:42:18Z</time>
      </trkpt>
      <trkpt lat="37.9274330009" lon="-2.9724236950">
        <ele>868.69</ele>
        <time>2017-10-07T14:42:29Z</time>
      </trkpt>
      <trkpt lat="37.9273675382" lon="-2.9726872221">
        <ele>869.65</ele>
        <time>2017-10-07T14:42:38Z</time>
      </trkpt>
      <trkpt lat="37.9272795282" lon="-2.9729380924">
        <ele>871.09</ele>
        <time>2017-10-07T14:42:48Z</time>
      </trkpt>
      <trkpt lat="37.9272241239" lon="-2.9731622245">
        <ele>872.05</ele>
        <time>2017-10-07T14:42:57Z</time>
      </trkpt>
      <trkpt lat="37.9271364491" lon="-2.9735291004">
        <ele>874.46</ele>
        <time>2017-10-07T14:43:12Z</time>
      </trkpt>
      <trkpt lat="37.9270721599" lon="-2.9737296794">
        <ele>875.42</ele>
        <time>2017-10-07T14:43:21Z</time>
      </trkpt>
      <trkpt lat="37.9270755127" lon="-2.9737511370">
        <ele>875.42</ele>
        <time>2017-10-07T14:43:27Z</time>
      </trkpt>
      <trkpt lat="37.9270128999" lon="-2.9737985786">
        <ele>875.90</ele>
        <time>2017-10-07T14:43:33Z</time>
      </trkpt>
      <trkpt lat="37.9268699046" lon="-2.9741201922">
        <ele>877.82</ele>
        <time>2017-10-07T14:43:44Z</time>
      </trkpt>
      <trkpt lat="37.9268526379" lon="-2.9741572402">
        <ele>877.34</ele>
        <time>2017-10-07T14:43:46Z</time>
      </trkpt>
      <trkpt lat="37.9268227145" lon="-2.9741757642">
        <ele>877.34</ele>
        <time>2017-10-07T14:43:54Z</time>
      </trkpt>
      <trkpt lat="37.9267961439" lon="-2.9741602577">
        <ele>877.34</ele>
        <time>2017-10-07T14:44:02Z</time>
      </trkpt>
      <trkpt lat="37.9267878458" lon="-2.9741476849">
        <ele>877.34</ele>
        <time>2017-10-07T14:44:14Z</time>
      </trkpt>
      <trkpt lat="37.9267936293" lon="-2.9741329327">
        <ele>876.86</ele>
        <time>2017-10-07T14:44:35Z</time>
      </trkpt>
      <trkpt lat="37.9267901927" lon="-2.9741427395">
        <ele>876.86</ele>
        <time>2017-10-07T14:44:49Z</time>
      </trkpt>
      <trkpt lat="37.9267948028" lon="-2.9741437454">
        <ele>876.86</ele>
        <time>2017-10-07T14:45:04Z</time>
      </trkpt>
      <trkpt lat="37.9267995805" lon="-2.9741430748">
        <ele>876.86</ele>
        <time>2017-10-07T14:45:26Z</time>
      </trkpt>
      <trkpt lat="37.9267997481" lon="-2.9741428234">
        <ele>876.86</ele>
        <time>2017-10-07T14:45:46Z</time>
      </trkpt>
      <trkpt lat="37.9267968144" lon="-2.9741357826">
        <ele>876.86</ele>
        <time>2017-10-07T14:46:06Z</time>
      </trkpt>
      <trkpt lat="37.9267911986" lon="-2.9741319269">
        <ele>876.86</ele>
        <time>2017-10-07T14:46:32Z</time>
      </trkpt>
      <trkpt lat="37.9267974012" lon="-2.9741361178">
        <ele>876.86</ele>
        <time>2017-10-07T14:46:52Z</time>
      </trkpt>
      <trkpt lat="37.9267991614" lon="-2.9741317593">
        <ele>876.86</ele>
        <time>2017-10-07T14:47:17Z</time>
      </trkpt>
      <trkpt lat="37.9267951380" lon="-2.9741672147">
        <ele>876.86</ele>
        <time>2017-10-07T14:47:35Z</time>
      </trkpt>
      <trkpt lat="37.9267907795" lon="-2.9741811287">
        <ele>876.86</ele>
        <time>2017-10-07T14:47:45Z</time>
      </trkpt>
      <trkpt lat="37.9267963953" lon="-2.9741831403">
        <ele>876.86</ele>
        <time>2017-10-07T14:48:01Z</time>
      </trkpt>
      <trkpt lat="37.9268072918" lon="-2.9741997365">
        <ele>876.86</ele>
        <time>2017-10-07T14:48:14Z</time>
      </trkpt>
      <trkpt lat="37.9267990775" lon="-2.9743485991">
        <ele>877.34</ele>
        <time>2017-10-07T14:48:21Z</time>
      </trkpt>
      <trkpt lat="37.9267599341" lon="-2.9746420495">
        <ele>878.30</ele>
        <time>2017-10-07T14:48:32Z</time>
      </trkpt>
      <trkpt lat="37.9267026018" lon="-2.9749732185">
        <ele>879.26</ele>
        <time>2017-10-07T14:48:44Z</time>
      </trkpt>
      <trkpt lat="37.9266633745" lon="-2.9752918147">
        <ele>880.22</ele>
        <time>2017-10-07T14:48:56Z</time>
      </trkpt>
      <trkpt lat="37.9266098142" lon="-2.9755884502">
        <ele>879.74</ele>
        <time>2017-10-07T14:49:07Z</time>
      </trkpt>
      <trkpt lat="37.9265704192" lon="-2.9757740255">
        <ele>883.59</ele>
        <time>2017-10-07T14:49:14Z</time>
      </trkpt>
      <trkpt lat="37.9264990892" lon="-2.9761666339">
        <ele>882.63</ele>
        <time>2017-10-07T14:49:28Z</time>
      </trkpt>
      <trkpt lat="37.9263863526" lon="-2.9765232839">
        <ele>883.59</ele>
        <time>2017-10-07T14:49:41Z</time>
      </trkpt>
      <trkpt lat="37.9262290243" lon="-2.9768207576">
        <ele>884.55</ele>
        <time>2017-10-07T14:49:53Z</time>
      </trkpt>
      <trkpt lat="37.9260851070" lon="-2.9770554509">
        <ele>885.51</ele>
        <time>2017-10-07T14:50:04Z</time>
      </trkpt>
      <trkpt lat="37.9259923194" lon="-2.9773505777">
        <ele>887.43</ele>
        <time>2017-10-07T14:50:15Z</time>
      </trkpt>
      <trkpt lat="37.9259666707" lon="-2.9776643962">
        <ele>888.40</ele>
        <time>2017-10-07T14:50:26Z</time>
      </trkpt>
      <trkpt lat="37.9260061495" lon="-2.9779001791">
        <ele>889.84</ele>
        <time>2017-10-07T14:50:35Z</time>
      </trkpt>
      <trkpt lat="37.9261354823" lon="-2.9781756084">
        <ele>891.28</ele>
        <time>2017-10-07T14:50:47Z</time>
      </trkpt>
      <trkpt lat="37.9262264259" lon="-2.9785424843">
        <ele>893.20</ele>
        <time>2017-10-07T14:51:01Z</time>
      </trkpt>
      <trkpt lat="37.9261348955" lon="-2.9788693786">
        <ele>894.16</ele>
        <time>2017-10-07T14:51:13Z</time>
      </trkpt>
      <trkpt lat="37.9259568639" lon="-2.9792245198">
        <ele>895.61</ele>
        <time>2017-10-07T14:51:27Z</time>
      </trkpt>
      <trkpt lat="37.9258011281" lon="-2.9795118514">
        <ele>896.57</ele>
        <time>2017-10-07T14:51:38Z</time>
      </trkpt>
      <trkpt lat="37.9256380163" lon="-2.9798244126">
        <ele>898.01</ele>
        <time>2017-10-07T14:51:51Z</time>
      </trkpt>
      <trkpt lat="37.9254855495" lon="-2.9800822400">
        <ele>898.97</ele>
        <time>2017-10-07T14:52:02Z</time>
      </trkpt>
      <trkpt lat="37.9252669495" lon="-2.9804351181">
        <ele>899.93</ele>
        <time>2017-10-07T14:52:16Z</time>
      </trkpt>
      <trkpt lat="37.9251811188" lon="-2.9807532113">
        <ele>901.37</ele>
        <time>2017-10-07T14:52:27Z</time>
      </trkpt>
      <trkpt lat="37.9250807874" lon="-2.9811930098">
        <ele>902.82</ele>
        <time>2017-10-07T14:52:42Z</time>
      </trkpt>
      <trkpt lat="37.9249443300" lon="-2.9814778268">
        <ele>903.78</ele>
        <time>2017-10-07T14:52:54Z</time>
      </trkpt>
      <trkpt lat="37.9247243050" lon="-2.9816076625">
        <ele>905.22</ele>
        <time>2017-10-07T14:53:05Z</time>
      </trkpt>
      <trkpt lat="37.9244465288" lon="-2.9816462193">
        <ele>905.70</ele>
        <time>2017-10-07T14:53:17Z</time>
      </trkpt>
      <trkpt lat="37.9241450317" lon="-2.9817194771">
        <ele>907.14</ele>
        <time>2017-10-07T14:53:31Z</time>
      </trkpt>
      <trkpt lat="37.9239721131" lon="-2.9818023741">
        <ele>908.10</ele>
        <time>2017-10-07T14:53:39Z</time>
      </trkpt>
      <trkpt lat="37.9237998649" lon="-2.9819203075">
        <ele>909.06</ele>
        <time>2017-10-07T14:53:48Z</time>
      </trkpt>
      <trkpt lat="37.9235818516" lon="-2.9821250774">
        <ele>910.03</ele>
        <time>2017-10-07T14:54:00Z</time>
      </trkpt>
      <trkpt lat="37.9233658500" lon="-2.9822570086">
        <ele>910.99</ele>
        <time>2017-10-07T14:54:10Z</time>
      </trkpt>
      <trkpt lat="37.9231925961" lon="-2.9823394865">
        <ele>911.95</ele>
        <time>2017-10-07T14:54:18Z</time>
      </trkpt>
      <trkpt lat="37.9229784384" lon="-2.9824311845">
        <ele>912.43</ele>
        <time>2017-10-07T14:54:28Z</time>
      </trkpt>
      <trkpt lat="37.9227963835" lon="-2.9825023469">
        <ele>913.39</ele>
        <time>2017-10-07T14:54:37Z</time>
      </trkpt>
      <trkpt lat="37.9226403125" lon="-2.9825652950">
        <ele>913.87</ele>
        <time>2017-10-07T14:54:45Z</time>
      </trkpt>
      <trkpt lat="37.9225740954" lon="-2.9826122336">
        <ele>914.35</ele>
        <time>2017-10-07T14:54:49Z</time>
      </trkpt>
      <trkpt lat="37.9223615304" lon="-2.9828327615">
        <ele>915.79</ele>
        <time>2017-10-07T14:55:02Z</time>
      </trkpt>
      <trkpt lat="37.9222974926" lon="-2.9830975458">
        <ele>916.27</ele>
        <time>2017-10-07T14:55:11Z</time>
      </trkpt>
      <trkpt lat="37.9222613666" lon="-2.9835463129">
        <ele>915.79</ele>
        <time>2017-10-07T14:55:22Z</time>
      </trkpt>
      <trkpt lat="37.9222099017" lon="-2.9840992671">
        <ele>913.87</ele>
        <time>2017-10-07T14:55:31Z</time>
      </trkpt>
      <trkpt lat="37.9222272523" lon="-2.9842460342">
        <ele>913.87</ele>
        <time>2017-10-07T14:55:33Z</time>
      </trkpt>
      <trkpt lat="37.9222435132" lon="-2.9843216389">
        <ele>913.39</ele>
        <time>2017-10-07T14:55:34Z</time>
      </trkpt>
      <trkpt lat="37.9224440083" lon="-2.9850771837">
        <ele>910.99</ele>
        <time>2017-10-07T14:55:44Z</time>
      </trkpt>
      <trkpt lat="37.9224458523" lon="-2.9851596616">
        <ele>911.47</ele>
        <time>2017-10-07T14:55:45Z</time>
      </trkpt>
      <trkpt lat="37.9223311041" lon="-2.9860024620">
        <ele>910.03</ele>
        <time>2017-10-07T14:55:56Z</time>
      </trkpt>
      <trkpt lat="37.9220534954" lon="-2.9865870997">
        <ele>910.03</ele>
        <time>2017-10-07T14:56:06Z</time>
      </trkpt>
      <trkpt lat="37.9215743858" lon="-2.9870562349">
        <ele>908.58</ele>
        <time>2017-10-07T14:56:17Z</time>
      </trkpt>
      <trkpt lat="37.9215185624" lon="-2.9870860744">
        <ele>908.58</ele>
        <time>2017-10-07T14:56:18Z</time>
      </trkpt>
      <trkpt lat="37.9214589670" lon="-2.9871082027">
        <ele>908.10</ele>
        <time>2017-10-07T14:56:19Z</time>
      </trkpt>
      <trkpt lat="37.9210565519" lon="-2.9872284830">
        <ele>906.18</ele>
        <time>2017-10-07T14:56:26Z</time>
      </trkpt>
      <trkpt lat="37.9210077692" lon="-2.9872674588">
        <ele>905.70</ele>
        <time>2017-10-07T14:56:27Z</time>
      </trkpt>
      <trkpt lat="37.9209227767" lon="-2.9873583186">
        <ele>904.74</ele>
        <time>2017-10-07T14:56:29Z</time>
      </trkpt>
      <trkpt lat="37.9208856449" lon="-2.9874120466">
        <ele>904.74</ele>
        <time>2017-10-07T14:56:30Z</time>
      </trkpt>
      <trkpt lat="37.9208515305" lon="-2.9874735698">
        <ele>904.26</ele>
        <time>2017-10-07T14:56:31Z</time>
      </trkpt>
      <trkpt lat="37.9208208527" lon="-2.9875453189">
        <ele>903.78</ele>
        <time>2017-10-07T14:56:32Z</time>
      </trkpt>
      <trkpt lat="37.9207999818" lon="-2.9876143020">
        <ele>903.78</ele>
        <time>2017-10-07T14:56:33Z</time>
      </trkpt>
      <trkpt lat="37.9207889177" lon="-2.9876729753">
        <ele>903.78</ele>
        <time>2017-10-07T14:56:34Z</time>
      </trkpt>
      <trkpt lat="37.9207808711" lon="-2.9877210874">
        <ele>903.30</ele>
        <time>2017-10-07T14:56:35Z</time>
      </trkpt>
      <trkpt lat="37.9207726568" lon="-2.9877862148">
        <ele>903.30</ele>
        <time>2017-10-07T14:56:37Z</time>
      </trkpt>
      <trkpt lat="37.9207669571" lon="-2.9878270347">
        <ele>902.82</ele>
        <time>2017-10-07T14:56:44Z</time>
      </trkpt>
      <trkpt lat="37.9207578208" lon="-2.9878358357">
        <ele>902.82</ele>
        <time>2017-10-07T14:57:01Z</time>
      </trkpt>
      <trkpt lat="37.9207518697" lon="-2.9878515936">
        <ele>902.82</ele>
        <time>2017-10-07T14:57:05Z</time>
      </trkpt>
      <trkpt lat="37.9207050987" lon="-2.9880941659">
        <ele>901.37</ele>
        <time>2017-10-07T14:57:11Z</time>
      </trkpt>
      <trkpt lat="37.9206414800" lon="-2.9884493910">
        <ele>900.41</ele>
        <time>2017-10-07T14:57:17Z</time>
      </trkpt>
      <trkpt lat="37.9206485208" lon="-2.9885151051">
        <ele>900.41</ele>
        <time>2017-10-07T14:57:18Z</time>
      </trkpt>
      <trkpt lat="37.9206682183" lon="-2.9885747842">
        <ele>900.41</ele>
        <time>2017-10-07T14:57:19Z</time>
      </trkpt>
      <trkpt lat="37.9206957109" lon="-2.9886302724">
        <ele>900.41</ele>
        <time>2017-10-07T14:57:20Z</time>
      </trkpt>
      <trkpt lat="37.9207268078" lon="-2.9886776302">
        <ele>900.41</ele>
        <time>2017-10-07T14:57:21Z</time>
      </trkpt>
      <trkpt lat="37.9207608383" lon="-2.9887179472">
        <ele>900.41</ele>
        <time>2017-10-07T14:57:22Z</time>
      </trkpt>
      <trkpt lat="37.9207953718" lon="-2.9887544084">
        <ele>900.41</ele>
        <time>2017-10-07T14:57:23Z</time>
      </trkpt>
      <trkpt lat="37.9208324198" lon="-2.9887855891">
        <ele>900.41</ele>
        <time>2017-10-07T14:57:24Z</time>
      </trkpt>
      <trkpt lat="37.9208689649" lon="-2.9888078012">
        <ele>900.41</ele>
        <time>2017-10-07T14:57:25Z</time>
      </trkpt>
      <trkpt lat="37.9210778419" lon="-2.9889163468">
        <ele>900.89</ele>
        <time>2017-10-07T14:57:34Z</time>
      </trkpt>
      <trkpt lat="37.9212693684" lon="-2.9890743457">
        <ele>900.89</ele>
        <time>2017-10-07T14:57:43Z</time>
      </trkpt>
      <trkpt lat="37.9212907422" lon="-2.9890994914">
        <ele>900.89</ele>
        <time>2017-10-07T14:57:44Z</time>
      </trkpt>
      <trkpt lat="37.9213957675" lon="-2.9892777745">
        <ele>897.05</ele>
        <time>2017-10-07T14:57:50Z</time>
      </trkpt>
      <trkpt lat="37.9214094300" lon="-2.9893107992">
        <ele>901.85</ele>
        <time>2017-10-07T14:57:51Z</time>
      </trkpt>
      <trkpt lat="37.9215551075" lon="-2.9896813631">
        <ele>901.37</ele>
        <time>2017-10-07T14:58:02Z</time>
      </trkpt>
      <trkpt lat="37.9217587039" lon="-2.9900107719">
        <ele>902.33</ele>
        <time>2017-10-07T14:58:12Z</time>
      </trkpt>
      <trkpt lat="37.9218850192" lon="-2.9903134424">
        <ele>901.85</ele>
        <time>2017-10-07T14:58:19Z</time>
      </trkpt>
      <trkpt lat="37.9218911380" lon="-2.9903628118">
        <ele>901.85</ele>
        <time>2017-10-07T14:58:20Z</time>
      </trkpt>
      <trkpt lat="37.9219041299" lon="-2.9906195495">
        <ele>900.89</ele>
        <time>2017-10-07T14:58:25Z</time>
      </trkpt>
      <trkpt lat="37.9219121765" lon="-2.9908883572">
        <ele>899.45</ele>
        <time>2017-10-07T14:58:29Z</time>
      </trkpt>
      <trkpt lat="37.9219254199" lon="-2.9909561668">
        <ele>899.45</ele>
        <time>2017-10-07T14:58:30Z</time>
      </trkpt>
      <trkpt lat="37.9219460394" lon="-2.9910146724">
        <ele>899.45</ele>
        <time>2017-10-07T14:58:31Z</time>
      </trkpt>
      <trkpt lat="37.9221341293" lon="-2.9916399624">
        <ele>897.53</ele>
        <time>2017-10-07T14:58:40Z</time>
      </trkpt>
      <trkpt lat="37.9221647233" lon="-2.9917153157">
        <ele>897.05</ele>
        <time>2017-10-07T14:58:41Z</time>
      </trkpt>
      <trkpt lat="37.9222007655" lon="-2.9917890765">
        <ele>896.57</ele>
        <time>2017-10-07T14:58:42Z</time>
      </trkpt>
      <trkpt lat="37.9224094748" lon="-2.9922270309">
        <ele>894.64</ele>
        <time>2017-10-07T14:58:48Z</time>
      </trkpt>
      <trkpt lat="37.9224248137" lon="-2.9923164658">
        <ele>894.16</ele>
        <time>2017-10-07T14:58:49Z</time>
      </trkpt>
      <trkpt lat="37.9224397335" lon="-2.9924105946">
        <ele>894.16</ele>
        <time>2017-10-07T14:58:50Z</time>
      </trkpt>
      <trkpt lat="37.9224591795" lon="-2.9925042205">
        <ele>893.68</ele>
        <time>2017-10-07T14:58:51Z</time>
      </trkpt>
      <trkpt lat="37.9224834032" lon="-2.9925973434">
        <ele>893.20</ele>
        <time>2017-10-07T14:58:52Z</time>
      </trkpt>
      <trkpt lat="37.9225410707" lon="-2.9927872773">
        <ele>892.24</ele>
        <time>2017-10-07T14:58:54Z</time>
      </trkpt>
      <trkpt lat="37.9225800466" lon="-2.9928822443">
        <ele>891.76</ele>
        <time>2017-10-07T14:58:55Z</time>
      </trkpt>
      <trkpt lat="37.9226171784" lon="-2.9929759540">
        <ele>891.76</ele>
        <time>2017-10-07T14:58:56Z</time>
      </trkpt>
      <trkpt lat="37.9226431623" lon="-2.9930688255">
        <ele>891.28</ele>
        <time>2017-10-07T14:58:57Z</time>
      </trkpt>
      <trkpt lat="37.9226613510" lon="-2.9931560811">
        <ele>890.80</ele>
        <time>2017-10-07T14:58:58Z</time>
      </trkpt>
      <trkpt lat="37.9226717446" lon="-2.9932404030">
        <ele>890.80</ele>
        <time>2017-10-07T14:58:59Z</time>
      </trkpt>
      <trkpt lat="37.9226750974" lon="-2.9933245573">
        <ele>890.32</ele>
        <time>2017-10-07T14:59:00Z</time>
      </trkpt>
      <trkpt lat="37.9226717446" lon="-2.9934057780">
        <ele>889.84</ele>
        <time>2017-10-07T14:59:01Z</time>
      </trkpt>
      <trkpt lat="37.9226619378" lon="-2.9934879206">
        <ele>889.36</ele>
        <time>2017-10-07T14:59:02Z</time>
      </trkpt>
      <trkpt lat="37.9226401448" lon="-2.9935669620">
        <ele>888.88</ele>
        <time>2017-10-07T14:59:03Z</time>
      </trkpt>
      <trkpt lat="37.9226049408" lon="-2.9936403036">
        <ele>888.88</ele>
        <time>2017-10-07T14:59:04Z</time>
      </trkpt>
      <trkpt lat="37.9225621931" lon="-2.9937067721">
        <ele>888.40</ele>
        <time>2017-10-07T14:59:05Z</time>
      </trkpt>
      <trkpt lat="37.9225153383" lon="-2.9937687144">
        <ele>888.40</ele>
        <time>2017-10-07T14:59:06Z</time>
      </trkpt>
      <trkpt lat="37.9224671423" lon="-2.9938257113">
        <ele>888.40</ele>
        <time>2017-10-07T14:59:07Z</time>
      </trkpt>
      <trkpt lat="37.9224151745" lon="-2.9938775953">
        <ele>888.40</ele>
        <time>2017-10-07T14:59:08Z</time>
      </trkpt>
      <trkpt lat="37.9223616980" lon="-2.9939278029">
        <ele>888.40</ele>
        <time>2017-10-07T14:59:09Z</time>
      </trkpt>
      <trkpt lat="37.9217783175" lon="-2.9945638217">
        <ele>886.95</ele>
        <time>2017-10-07T14:59:21Z</time>
      </trkpt>
      <trkpt lat="37.9216654971" lon="-2.9947394226">
        <ele>887.43</ele>
        <time>2017-10-07T14:59:24Z</time>
      </trkpt>
      <trkpt lat="37.9216393456" lon="-2.9947948270">
        <ele>886.95</ele>
        <time>2017-10-07T14:59:25Z</time>
      </trkpt>
      <trkpt lat="37.9216240067" lon="-2.9948501475">
        <ele>886.95</ele>
        <time>2017-10-07T14:59:26Z</time>
      </trkpt>
      <trkpt lat="37.9216200672" lon="-2.9949030373">
        <ele>886.47</ele>
        <time>2017-10-07T14:59:27Z</time>
      </trkpt>
      <trkpt lat="37.9216200672" lon="-2.9949436896">
        <ele>886.47</ele>
        <time>2017-10-07T14:59:28Z</time>
      </trkpt>
      <trkpt lat="37.9216144513" lon="-2.9949690867">
        <ele>886.47</ele>
        <time>2017-10-07T14:59:29Z</time>
      </trkpt>
      <trkpt lat="37.9216129426" lon="-2.9949863534">
        <ele>887.43</ele>
        <time>2017-10-07T14:59:36Z</time>
      </trkpt>
      <trkpt lat="37.9216102604" lon="-2.9949832521">
        <ele>884.55</ele>
        <time>2017-10-07T14:59:41Z</time>
      </trkpt>
      <trkpt lat="37.9216097575" lon="-2.9949824139">
        <ele>887.91</ele>
        <time>2017-10-07T14:59:42Z</time>
      </trkpt>
      <trkpt lat="37.9215936642" lon="-2.9949902929">
        <ele>886.47</ele>
        <time>2017-10-07T14:59:55Z</time>
      </trkpt>
      <trkpt lat="37.9215257708" lon="-2.9950694181">
        <ele>885.99</ele>
        <time>2017-10-07T15:00:03Z</time>
      </trkpt>
      <trkpt lat="37.9213349987" lon="-2.9950817395">
        <ele>886.47</ele>
        <time>2017-10-07T15:00:12Z</time>
      </trkpt>
      <trkpt lat="37.9212026484" lon="-2.9951070528">
        <ele>887.91</ele>
        <time>2017-10-07T15:00:20Z</time>
      </trkpt>
      <trkpt lat="37.9210785124" lon="-2.9952373914">
        <ele>889.36</ele>
        <time>2017-10-07T15:00:30Z</time>
      </trkpt>
      <trkpt lat="37.9209514428" lon="-2.9954585899">
        <ele>891.28</ele>
        <time>2017-10-07T15:00:43Z</time>
      </trkpt>
      <trkpt lat="37.9208175000" lon="-2.9956411477">
        <ele>892.24</ele>
        <time>2017-10-07T15:00:54Z</time>
      </trkpt>
      <trkpt lat="37.9206450842" lon="-2.9958077800">
        <ele>893.20</ele>
        <time>2017-10-07T15:01:06Z</time>
      </trkpt>
      <trkpt lat="37.9204824753" lon="-2.9959168285">
        <ele>894.64</ele>
        <time>2017-10-07T15:01:18Z</time>
      </trkpt>
      <trkpt lat="37.9204694834" lon="-2.9959238693">
        <ele>894.64</ele>
        <time>2017-10-07T15:01:19Z</time>
      </trkpt>
      <trkpt lat="37.9204600956" lon="-2.9959389567">
        <ele>894.64</ele>
        <time>2017-10-07T15:01:20Z</time>
      </trkpt>
      <trkpt lat="37.9204514623" lon="-2.9959555529">
        <ele>894.64</ele>
        <time>2017-10-07T15:01:21Z</time>
      </trkpt>
      <trkpt lat="37.9204382189" lon="-2.9959640186">
        <ele>894.64</ele>
        <time>2017-10-07T15:01:22Z</time>
      </trkpt>
      <trkpt lat="37.9204220418" lon="-2.9959701374">
        <ele>895.12</ele>
        <time>2017-10-07T15:01:23Z</time>
      </trkpt>
      <trkpt lat="37.9204082116" lon="-2.9959777649">
        <ele>895.12</ele>
        <time>2017-10-07T15:01:24Z</time>
      </trkpt>
      <trkpt lat="37.9203979019" lon="-2.9959863145">
        <ele>895.12</ele>
        <time>2017-10-07T15:01:25Z</time>
      </trkpt>
      <trkpt lat="37.9203869216" lon="-2.9959980492">
        <ele>895.12</ele>
        <time>2017-10-07T15:01:26Z</time>
      </trkpt>
      <trkpt lat="37.9203737620" lon="-2.9960089456">
        <ele>895.12</ele>
        <time>2017-10-07T15:01:27Z</time>
      </trkpt>
      <trkpt lat="37.9203599319" lon="-2.9960195068">
        <ele>895.12</ele>
        <time>2017-10-07T15:01:28Z</time>
      </trkpt>
      <trkpt lat="37.9203442577" lon="-2.9960250389">
        <ele>895.61</ele>
        <time>2017-10-07T15:01:29Z</time>
      </trkpt>
      <trkpt lat="37.9202676471" lon="-2.9960679542">
        <ele>896.09</ele>
        <time>2017-10-07T15:01:34Z</time>
      </trkpt>
      <trkpt lat="37.9202574212" lon="-2.9960801080">
        <ele>896.09</ele>
        <time>2017-10-07T15:01:35Z</time>
      </trkpt>
      <trkpt lat="37.9202440102" lon="-2.9960877355">
        <ele>896.09</ele>
        <time>2017-10-07T15:01:36Z</time>
      </trkpt>
      <trkpt lat="37.9202335328" lon="-2.9960976262">
        <ele>896.09</ele>
        <time>2017-10-07T15:01:37Z</time>
      </trkpt>
      <trkpt lat="37.9202211276" lon="-2.9961103667">
        <ele>896.09</ele>
        <time>2017-10-07T15:01:38Z</time>
      </trkpt>
      <trkpt lat="37.9202036094" lon="-2.9961186647">
        <ele>896.57</ele>
        <time>2017-10-07T15:01:39Z</time>
      </trkpt>
      <trkpt lat="37.9201856721" lon="-2.9961255379">
        <ele>896.57</ele>
        <time>2017-10-07T15:01:40Z</time>
      </trkpt>
      <trkpt lat="37.9201682378" lon="-2.9961359315">
        <ele>896.57</ele>
        <time>2017-10-07T15:01:41Z</time>
      </trkpt>
      <trkpt lat="37.9201512225" lon="-2.9961500131">
        <ele>896.57</ele>
        <time>2017-10-07T15:01:42Z</time>
      </trkpt>
      <trkpt lat="37.9201207124" lon="-2.9961721413">
        <ele>896.57</ele>
        <time>2017-10-07T15:01:44Z</time>
      </trkpt>
      <trkpt lat="37.9201047029" lon="-2.9961798526">
        <ele>897.05</ele>
        <time>2017-10-07T15:01:45Z</time>
      </trkpt>
      <trkpt lat="37.9199279286" lon="-2.9962961096">
        <ele>898.49</ele>
        <time>2017-10-07T15:01:57Z</time>
      </trkpt>
      <trkpt lat="37.9197642300" lon="-2.9963931721">
        <ele>899.45</ele>
        <time>2017-10-07T15:02:08Z</time>
      </trkpt>
      <trkpt lat="37.9196203966" lon="-2.9964883905">
        <ele>900.41</ele>
        <time>2017-10-07T15:02:17Z</time>
      </trkpt>
      <trkpt lat="37.9195145331" lon="-2.9966240097">
        <ele>901.37</ele>
        <time>2017-10-07T15:02:26Z</time>
      </trkpt>
      <trkpt lat="37.9194493219" lon="-2.9968002811">
        <ele>902.82</ele>
        <time>2017-10-07T15:02:35Z</time>
      </trkpt>
      <trkpt lat="37.9194447957" lon="-2.9968211520">
        <ele>902.82</ele>
        <time>2017-10-07T15:02:36Z</time>
      </trkpt>
      <trkpt lat="37.9194408562" lon="-2.9968414363">
        <ele>902.82</ele>
        <time>2017-10-07T15:02:37Z</time>
      </trkpt>
      <trkpt lat="37.9194385093" lon="-2.9968636483">
        <ele>901.85</ele>
        <time>2017-10-07T15:02:38Z</time>
      </trkpt>
      <trkpt lat="37.9194676783" lon="-2.9971871059">
        <ele>904.74</ele>
        <time>2017-10-07T15:02:52Z</time>
      </trkpt>
      <trkpt lat="37.9194653314" lon="-2.9974078853">
        <ele>905.70</ele>
        <time>2017-10-07T15:03:02Z</time>
      </trkpt>
      <trkpt lat="37.9194570333" lon="-2.9974539857">
        <ele>905.70</ele>
        <time>2017-10-07T15:03:04Z</time>
      </trkpt>
      <trkpt lat="37.9194580391" lon="-2.9974777903">
        <ele>906.18</ele>
        <time>2017-10-07T15:03:05Z</time>
      </trkpt>
      <trkpt lat="37.9194427002" lon="-2.9976058658">
        <ele>906.66</ele>
        <time>2017-10-07T15:03:11Z</time>
      </trkpt>
      <trkpt lat="37.9194276128" lon="-2.9976176005">
        <ele>906.66</ele>
        <time>2017-10-07T15:03:12Z</time>
      </trkpt>
      <trkpt lat="37.9194154590" lon="-2.9976319335">
        <ele>907.14</ele>
        <time>2017-10-07T15:03:13Z</time>
      </trkpt>
      <trkpt lat="37.9194012098" lon="-2.9976665508">
        <ele>907.62</ele>
        <time>2017-10-07T15:03:15Z</time>
      </trkpt>
      <trkpt lat="37.9193944205" lon="-2.9976829793">
        <ele>907.62</ele>
        <time>2017-10-07T15:03:16Z</time>
      </trkpt>
      <trkpt lat="37.9193880502" lon="-2.9977008328">
        <ele>907.62</ele>
        <time>2017-10-07T15:03:17Z</time>
      </trkpt>
      <trkpt lat="37.9193799198" lon="-2.9977196921">
        <ele>908.10</ele>
        <time>2017-10-07T15:03:18Z</time>
      </trkpt>
      <trkpt lat="37.9193731304" lon="-2.9977372102">
        <ele>907.62</ele>
        <time>2017-10-07T15:03:19Z</time>
      </trkpt>
      <trkpt lat="37.9193358310" lon="-2.9978007451">
        <ele>908.10</ele>
        <time>2017-10-07T15:03:23Z</time>
      </trkpt>
      <trkpt lat="37.9193240125" lon="-2.9978124797">
        <ele>908.58</ele>
        <time>2017-10-07T15:03:24Z</time>
      </trkpt>
      <trkpt lat="37.9193139542" lon="-2.9978263099">
        <ele>908.58</ele>
        <time>2017-10-07T15:03:25Z</time>
      </trkpt>
      <trkpt lat="37.9193025548" lon="-2.9978415649">
        <ele>908.58</ele>
        <time>2017-10-07T15:03:26Z</time>
      </trkpt>
      <trkpt lat="37.9192921612" lon="-2.9978579096">
        <ele>909.06</ele>
        <time>2017-10-07T15:03:27Z</time>
      </trkpt>
      <trkpt lat="37.9192798398" lon="-2.9978725780">
        <ele>909.06</ele>
        <time>2017-10-07T15:03:28Z</time>
      </trkpt>
      <trkpt lat="37.9192697816" lon="-2.9978876654">
        <ele>909.06</ele>
        <time>2017-10-07T15:03:29Z</time>
      </trkpt>
      <trkpt lat="37.9192602262" lon="-2.9979029205">
        <ele>909.06</ele>
        <time>2017-10-07T15:03:30Z</time>
      </trkpt>
      <trkpt lat="37.9192490783" lon="-2.9979183432">
        <ele>909.06</ele>
        <time>2017-10-07T15:03:31Z</time>
      </trkpt>
      <trkpt lat="37.9190999642" lon="-2.9980330914">
        <ele>910.51</ele>
        <time>2017-10-07T15:03:41Z</time>
      </trkpt>
      <trkpt lat="37.9189745709" lon="-2.9980770126">
        <ele>911.47</ele>
        <time>2017-10-07T15:03:49Z</time>
      </trkpt>
      <trkpt lat="37.9188154824" lon="-2.9980560578">
        <ele>912.91</ele>
        <time>2017-10-07T15:03:59Z</time>
      </trkpt>
      <trkpt lat="37.9187995568" lon="-2.9980541300">
        <ele>912.91</ele>
        <time>2017-10-07T15:04:00Z</time>
      </trkpt>
      <trkpt lat="37.9187703039" lon="-2.9980366118">
        <ele>912.91</ele>
        <time>2017-10-07T15:04:02Z</time>
      </trkpt>
      <trkpt lat="37.9186698049" lon="-2.9980267212">
        <ele>913.87</ele>
        <time>2017-10-07T15:04:09Z</time>
      </trkpt>
      <trkpt lat="37.9185831361" lon="-2.9979771003">
        <ele>914.35</ele>
        <time>2017-10-07T15:04:15Z</time>
      </trkpt>
      <trkpt lat="37.9185563140" lon="-2.9979529604">
        <ele>914.83</ele>
        <time>2017-10-07T15:04:17Z</time>
      </trkpt>
      <trkpt lat="37.9184874985" lon="-2.9977628589">
        <ele>916.27</ele>
        <time>2017-10-07T15:04:28Z</time>
      </trkpt>
      <trkpt lat="37.9185698088" lon="-2.9976147506">
        <ele>917.24</ele>
        <time>2017-10-07T15:04:38Z</time>
      </trkpt>
      <trkpt lat="37.9185842257" lon="-2.9976036027">
        <ele>917.72</ele>
        <time>2017-10-07T15:04:39Z</time>
      </trkpt>
      <trkpt lat="37.9186139815" lon="-2.9975271598">
        <ele>918.20</ele>
        <time>2017-10-07T15:04:44Z</time>
      </trkpt>
      <trkpt lat="37.9186545499" lon="-2.9974538181">
        <ele>919.16</ele>
        <time>2017-10-07T15:04:49Z</time>
      </trkpt>
      <trkpt lat="37.9187155701" lon="-2.9973813146">
        <ele>919.64</ele>
        <time>2017-10-07T15:04:54Z</time>
      </trkpt>
      <trkpt lat="37.9187970422" lon="-2.9971841723">
        <ele>923.96</ele>
        <time>2017-10-07T15:05:05Z</time>
      </trkpt>
      <trkpt lat="37.9188035801" lon="-2.9971684981">
        <ele>920.12</ele>
        <time>2017-10-07T15:05:06Z</time>
      </trkpt>
      <trkpt lat="37.9188305698" lon="-2.9970933124">
        <ele>923.48</ele>
        <time>2017-10-07T15:05:11Z</time>
      </trkpt>
      <trkpt lat="37.9188947752" lon="-2.9967961740">
        <ele>923.48</ele>
        <time>2017-10-07T15:05:21Z</time>
      </trkpt>
      <trkpt lat="37.9189485870" lon="-2.9967686813">
        <ele>923.48</ele>
        <time>2017-10-07T15:05:30Z</time>
      </trkpt>
      <trkpt lat="37.9189530294" lon="-2.9967825953">
        <ele>923.48</ele>
        <time>2017-10-07T15:05:54Z</time>
      </trkpt>
      <trkpt lat="37.9189608246" lon="-2.9967912287">
        <ele>923.48</ele>
        <time>2017-10-07T15:06:20Z</time>
      </trkpt>
      <trkpt lat="37.9189679492" lon="-2.9967984371">
        <ele>923.48</ele>
        <time>2017-10-07T15:06:47Z</time>
      </trkpt>
      <trkpt lat="37.9189687036" lon="-2.9968098365">
        <ele>923.48</ele>
        <time>2017-10-07T15:07:12Z</time>
      </trkpt>
      <trkpt lat="37.9189759959" lon="-2.9968054779">
        <ele>923.48</ele>
        <time>2017-10-07T15:07:39Z</time>
      </trkpt>
      <trkpt lat="37.9189729784" lon="-2.9967934079">
        <ele>923.48</ele>
        <time>2017-10-07T15:08:03Z</time>
      </trkpt>
      <trkpt lat="37.9189688712" lon="-2.9967738781">
        <ele>923.48</ele>
        <time>2017-10-07T15:08:29Z</time>
      </trkpt>
      <trkpt lat="37.9189644288" lon="-2.9967565276">
        <ele>923.48</ele>
        <time>2017-10-07T15:08:58Z</time>
      </trkpt>
      <trkpt lat="37.9189597350" lon="-2.9967509117">
        <ele>923.48</ele>
        <time>2017-10-07T15:09:19Z</time>
      </trkpt>
      <trkpt lat="37.9189616628" lon="-2.9967284482">
        <ele>923.96</ele>
        <time>2017-10-07T15:09:29Z</time>
      </trkpt>
      <trkpt lat="37.9189469945" lon="-2.9967198987">
        <ele>923.96</ele>
        <time>2017-10-07T15:09:37Z</time>
      </trkpt>
      <trkpt lat="37.9189341702" lon="-2.9966662545">
        <ele>923.96</ele>
        <time>2017-10-07T15:09:41Z</time>
      </trkpt>
      <trkpt lat="37.9189491738" lon="-2.9965898953">
        <ele>924.45</ele>
        <time>2017-10-07T15:09:46Z</time>
      </trkpt>
      <trkpt lat="37.9189527780" lon="-2.9965108540">
        <ele>924.45</ele>
        <time>2017-10-07T15:09:52Z</time>
      </trkpt>
      <trkpt lat="37.9189617466" lon="-2.9964215029">
        <ele>924.93</ele>
        <time>2017-10-07T15:09:57Z</time>
      </trkpt>
      <trkpt lat="37.9189696256" lon="-2.9963563755">
        <ele>925.41</ele>
        <time>2017-10-07T15:10:01Z</time>
      </trkpt>
      <trkpt lat="37.9190044943" lon="-2.9961817805">
        <ele>926.37</ele>
        <time>2017-10-07T15:10:11Z</time>
      </trkpt>
      <trkpt lat="37.9190240242" lon="-2.9960458260">
        <ele>927.33</ele>
        <time>2017-10-07T15:10:19Z</time>
      </trkpt>
      <trkpt lat="37.9190510139" lon="-2.9959908407">
        <ele>927.33</ele>
        <time>2017-10-07T15:10:27Z</time>
      </trkpt>
      <trkpt lat="37.9192101024" lon="-2.9958187602">
        <ele>929.25</ele>
        <time>2017-10-07T15:10:36Z</time>
      </trkpt>
      <trkpt lat="37.9194099270" lon="-2.9956320114">
        <ele>930.69</ele>
        <time>2017-10-07T15:10:47Z</time>
      </trkpt>
      <trkpt lat="37.9196043033" lon="-2.9954641219">
        <ele>932.14</ele>
        <time>2017-10-07T15:10:58Z</time>
      </trkpt>
      <trkpt lat="37.9197881185" lon="-2.9953143373">
        <ele>932.62</ele>
        <time>2017-10-07T15:11:07Z</time>
      </trkpt>
      <trkpt lat="37.9199388251" lon="-2.9950703401">
        <ele>933.58</ele>
        <time>2017-10-07T15:11:18Z</time>
      </trkpt>
      <trkpt lat="37.9200684931" lon="-2.9948425200">
        <ele>932.62</ele>
        <time>2017-10-07T15:11:26Z</time>
      </trkpt>
      <trkpt lat="37.9200967401" lon="-2.9948016163">
        <ele>932.62</ele>
        <time>2017-10-07T15:11:27Z</time>
      </trkpt>
      <trkpt lat="37.9201190360" lon="-2.9947463796">
        <ele>932.14</ele>
        <time>2017-10-07T15:11:28Z</time>
      </trkpt>
      <trkpt lat="37.9203361273" lon="-2.9943306372">
        <ele>931.17</ele>
        <time>2017-10-07T15:11:36Z</time>
      </trkpt>
      <trkpt lat="37.9203381389" lon="-2.9942858778">
        <ele>931.17</ele>
        <time>2017-10-07T15:11:37Z</time>
      </trkpt>
      <trkpt lat="37.9202746879" lon="-2.9942051601">
        <ele>932.14</ele>
        <time>2017-10-07T15:11:40Z</time>
      </trkpt>
      <trkpt lat="37.9202314373" lon="-2.9941697046">
        <ele>932.62</ele>
        <time>2017-10-07T15:11:42Z</time>
      </trkpt>
      <trkpt lat="37.9200884420" lon="-2.9941800982">
        <ele>934.54</ele>
        <time>2017-10-07T15:11:49Z</time>
      </trkpt>
      <trkpt lat="37.9199438542" lon="-2.9943582136">
        <ele>937.42</ele>
        <time>2017-10-07T15:11:59Z</time>
      </trkpt>
      <trkpt lat="37.9199150205" lon="-2.9943866283">
        <ele>937.90</ele>
        <time>2017-10-07T15:12:01Z</time>
      </trkpt>
      <trkpt lat="37.9198444448" lon="-2.9944803379">
        <ele>939.35</ele>
        <time>2017-10-07T15:12:07Z</time>
      </trkpt>
      <trkpt lat="37.9197969195" lon="-2.9945710301">
        <ele>939.83</ele>
        <time>2017-10-07T15:12:12Z</time>
      </trkpt>
      <trkpt lat="37.9197509866" lon="-2.9946379177">
        <ele>940.79</ele>
        <time>2017-10-07T15:12:16Z</time>
      </trkpt>
      <trkpt lat="37.9196790699" lon="-2.9948885366">
        <ele>941.27</ele>
        <time>2017-10-07T15:12:27Z</time>
      </trkpt>
      <trkpt lat="37.9196733702" lon="-2.9949753731">
        <ele>941.27</ele>
        <time>2017-10-07T15:12:36Z</time>
      </trkpt>
      <trkpt lat="37.9196574446" lon="-2.9949903768">
        <ele>941.75</ele>
        <time>2017-10-07T15:12:56Z</time>
      </trkpt>
      <trkpt lat="37.9196546786" lon="-2.9949982557">
        <ele>941.27</ele>
        <time>2017-10-07T15:13:14Z</time>
      </trkpt>
      <trkpt lat="37.9196602944" lon="-2.9949912988">
        <ele>942.71</ele>
        <time>2017-10-07T15:13:26Z</time>
      </trkpt>
      <trkpt lat="37.9196593724" lon="-2.9949927237">
        <ele>941.27</ele>
        <time>2017-10-07T15:13:44Z</time>
      </trkpt>
      <trkpt lat="37.9196633957" lon="-2.9950104933">
        <ele>941.27</ele>
        <time>2017-10-07T15:14:08Z</time>
      </trkpt>
      <trkpt lat="37.9196540918" lon="-2.9950039554">
        <ele>941.27</ele>
        <time>2017-10-07T15:14:35Z</time>
      </trkpt>
      <trkpt lat="37.9196471348" lon="-2.9950016923">
        <ele>941.27</ele>
        <time>2017-10-07T15:15:01Z</time>
      </trkpt>
      <trkpt lat="37.9196541756" lon="-2.9950066376">
        <ele>941.27</ele>
        <time>2017-10-07T15:15:23Z</time>
      </trkpt>
      <trkpt lat="37.9196655750" lon="-2.9949909635">
        <ele>941.75</ele>
        <time>2017-10-07T15:15:49Z</time>
      </trkpt>
      <trkpt lat="37.9196756333" lon="-2.9949991778">
        <ele>941.27</ele>
        <time>2017-10-07T15:16:12Z</time>
      </trkpt>
      <trkpt lat="37.9196829256" lon="-2.9950108286">
        <ele>941.27</ele>
        <time>2017-10-07T15:16:33Z</time>
      </trkpt>
      <trkpt lat="37.9196877871" lon="-2.9950129241">
        <ele>941.27</ele>
        <time>2017-10-07T15:16:56Z</time>
      </trkpt>
      <trkpt lat="37.9196860269" lon="-2.9950000159">
        <ele>941.27</ele>
        <time>2017-10-07T15:17:28Z</time>
      </trkpt>
      <trkpt lat="37.9196853563" lon="-2.9949964955">
        <ele>941.27</ele>
        <time>2017-10-07T15:17:43Z</time>
      </trkpt>
      <trkpt lat="37.9196718615" lon="-2.9950208869">
        <ele>941.27</ele>
        <time>2017-10-07T15:17:52Z</time>
      </trkpt>
      <trkpt lat="37.9195982683" lon="-2.9951620381">
        <ele>941.27</ele>
        <time>2017-10-07T15:18:01Z</time>
      </trkpt>
      <trkpt lat="37.9194010422" lon="-2.9953915346">
        <ele>939.35</ele>
        <time>2017-10-07T15:18:10Z</time>
      </trkpt>
      <trkpt lat="37.9192583822" lon="-2.9955276567">
        <ele>938.38</ele>
        <time>2017-10-07T15:18:13Z</time>
      </trkpt>
      <trkpt lat="37.9192038160" lon="-2.9955750983">
        <ele>937.90</ele>
        <time>2017-10-07T15:18:14Z</time>
      </trkpt>
      <trkpt lat="37.9191530216" lon="-2.9956273176">
        <ele>937.90</ele>
        <time>2017-10-07T15:18:15Z</time>
      </trkpt>
      <trkpt lat="37.9191066697" lon="-2.9956851527">
        <ele>937.42</ele>
        <time>2017-10-07T15:18:16Z</time>
      </trkpt>
      <trkpt lat="37.9190580547" lon="-2.9957414791">
        <ele>937.42</ele>
        <time>2017-10-07T15:18:17Z</time>
      </trkpt>
      <trkpt lat="37.9190055002" lon="-2.9957905132">
        <ele>937.42</ele>
        <time>2017-10-07T15:18:18Z</time>
      </trkpt>
      <trkpt lat="37.9189518560" lon="-2.9958350211">
        <ele>937.42</ele>
        <time>2017-10-07T15:18:19Z</time>
      </trkpt>
      <trkpt lat="37.9186404683" lon="-2.9961395357">
        <ele>939.35</ele>
        <time>2017-10-07T15:18:27Z</time>
      </trkpt>
      <trkpt lat="37.9184695613" lon="-2.9962512664">
        <ele>941.27</ele>
        <time>2017-10-07T15:18:36Z</time>
      </trkpt>
      <trkpt lat="37.9183674697" lon="-2.9963307269">
        <ele>942.23</ele>
        <time>2017-10-07T15:18:42Z</time>
      </trkpt>
      <trkpt lat="37.9183372948" lon="-2.9963546991">
        <ele>942.71</ele>
        <time>2017-10-07T15:18:44Z</time>
      </trkpt>
      <trkpt lat="37.9183240514" lon="-2.9963676911">
        <ele>942.71</ele>
        <time>2017-10-07T15:18:45Z</time>
      </trkpt>
      <trkpt lat="37.9183106404" lon="-2.9963883944">
        <ele>943.19</ele>
        <time>2017-10-07T15:18:46Z</time>
      </trkpt>
      <trkpt lat="37.9183022585" lon="-2.9964147974">
        <ele>943.67</ele>
        <time>2017-10-07T15:18:47Z</time>
      </trkpt>
      <trkpt lat="37.9182885122" lon="-2.9964374285">
        <ele>943.67</ele>
        <time>2017-10-07T15:18:48Z</time>
      </trkpt>
      <trkpt lat="37.9182783701" lon="-2.9964594729">
        <ele>943.67</ele>
        <time>2017-10-07T15:18:49Z</time>
      </trkpt>
      <trkpt lat="37.9182047769" lon="-2.9966282845">
        <ele>945.59</ele>
        <time>2017-10-07T15:18:57Z</time>
      </trkpt>
      <trkpt lat="37.9180339538" lon="-2.9967795778">
        <ele>948.00</ele>
        <time>2017-10-07T15:19:07Z</time>
      </trkpt>
      <trkpt lat="37.9179854225" lon="-2.9968105070">
        <ele>948.48</ele>
        <time>2017-10-07T15:19:10Z</time>
      </trkpt>
      <trkpt lat="37.9179724306" lon="-2.9968239181">
        <ele>948.48</ele>
        <time>2017-10-07T15:19:11Z</time>
      </trkpt>
      <trkpt lat="37.9179580137" lon="-2.9968348145">
        <ele>948.96</ele>
        <time>2017-10-07T15:19:12Z</time>
      </trkpt>
      <trkpt lat="37.9179455247" lon="-2.9968462139">
        <ele>948.96</ele>
        <time>2017-10-07T15:19:13Z</time>
      </trkpt>
      <trkpt lat="37.9179381486" lon="-2.9968559369">
        <ele>948.96</ele>
        <time>2017-10-07T15:19:14Z</time>
      </trkpt>
      <trkpt lat="37.9178281780" lon="-2.9968756344">
        <ele>948.96</ele>
        <time>2017-10-07T15:19:22Z</time>
      </trkpt>
      <trkpt lat="37.9176745377" lon="-2.9969087429">
        <ele>948.96</ele>
        <time>2017-10-07T15:19:32Z</time>
      </trkpt>
      <trkpt lat="37.9175759666" lon="-2.9968988523">
        <ele>949.44</ele>
        <time>2017-10-07T15:19:37Z</time>
      </trkpt>
      <trkpt lat="37.9175574426" lon="-2.9968993552">
        <ele>949.44</ele>
        <time>2017-10-07T15:19:38Z</time>
      </trkpt>
      <trkpt lat="37.9175374098" lon="-2.9969018698">
        <ele>949.44</ele>
        <time>2017-10-07T15:19:39Z</time>
      </trkpt>
      <trkpt lat="37.9175144434" lon="-2.9969024565">
        <ele>949.44</ele>
        <time>2017-10-07T15:19:40Z</time>
      </trkpt>
      <trkpt lat="37.9174870346" lon="-2.9968949966">
        <ele>949.44</ele>
        <time>2017-10-07T15:19:41Z</time>
      </trkpt>
      <trkpt lat="37.9172926582" lon="-2.9968892969">
        <ele>949.92</ele>
        <time>2017-10-07T15:19:49Z</time>
      </trkpt>
      <trkpt lat="37.9170700349" lon="-2.9969287757">
        <ele>950.40</ele>
        <time>2017-10-07T15:19:59Z</time>
      </trkpt>
      <trkpt lat="37.9170338251" lon="-2.9969475511">
        <ele>950.40</ele>
        <time>2017-10-07T15:20:01Z</time>
      </trkpt>
      <trkpt lat="37.9168670252" lon="-2.9970565997">
        <ele>951.84</ele>
        <time>2017-10-07T15:20:11Z</time>
      </trkpt>
      <trkpt lat="37.9168171529" lon="-2.9970635567">
        <ele>952.32</ele>
        <time>2017-10-07T15:20:14Z</time>
      </trkpt>
      <trkpt lat="37.9168052506" lon="-2.9970746208">
        <ele>952.80</ele>
        <time>2017-10-07T15:20:15Z</time>
      </trkpt>
      <trkpt lat="37.9167921748" lon="-2.9970856849">
        <ele>952.80</ele>
        <time>2017-10-07T15:20:16Z</time>
      </trkpt>
      <trkpt lat="37.9167790990" lon="-2.9970913008">
        <ele>952.80</ele>
        <time>2017-10-07T15:20:17Z</time>
      </trkpt>
      <trkpt lat="37.9167649336" lon="-2.9970929772">
        <ele>953.28</ele>
        <time>2017-10-07T15:20:18Z</time>
      </trkpt>
      <trkpt lat="37.9167511035" lon="-2.9971025325">
        <ele>953.28</ele>
        <time>2017-10-07T15:20:19Z</time>
      </trkpt>
      <trkpt lat="37.9167378601" lon="-2.9971150216">
        <ele>953.28</ele>
        <time>2017-10-07T15:20:20Z</time>
      </trkpt>
      <trkpt lat="37.9167242814" lon="-2.9971260019">
        <ele>953.28</ele>
        <time>2017-10-07T15:20:21Z</time>
      </trkpt>
      <trkpt lat="37.9167101998" lon="-2.9971358087">
        <ele>953.28</ele>
        <time>2017-10-07T15:20:22Z</time>
      </trkpt>
      <trkpt lat="37.9166969564" lon="-2.9971462023">
        <ele>953.77</ele>
        <time>2017-10-07T15:20:23Z</time>
      </trkpt>
      <trkpt lat="37.9166799411" lon="-2.9971578531">
        <ele>953.77</ele>
        <time>2017-10-07T15:20:24Z</time>
      </trkpt>
      <trkpt lat="37.9166303203" lon="-2.9971881118">
        <ele>954.25</ele>
        <time>2017-10-07T15:20:27Z</time>
      </trkpt>
      <trkpt lat="37.9166132212" lon="-2.9971959908">
        <ele>954.25</ele>
        <time>2017-10-07T15:20:28Z</time>
      </trkpt>
      <trkpt lat="37.9165976308" lon="-2.9972070549">
        <ele>954.73</ele>
        <time>2017-10-07T15:20:29Z</time>
      </trkpt>
      <trkpt lat="37.9165824596" lon="-2.9972159397">
        <ele>954.73</ele>
        <time>2017-10-07T15:20:30Z</time>
      </trkpt>
      <trkpt lat="37.9165669531" lon="-2.9972226452">
        <ele>954.73</ele>
        <time>2017-10-07T15:20:31Z</time>
      </trkpt>
      <trkpt lat="37.9165519495" lon="-2.9972308595">
        <ele>955.21</ele>
        <time>2017-10-07T15:20:32Z</time>
      </trkpt>
      <trkpt lat="37.9165382870" lon="-2.9972400796">
        <ele>955.21</ele>
        <time>2017-10-07T15:20:33Z</time>
      </trkpt>
      <trkpt lat="37.9165230319" lon="-2.9972513113">
        <ele>955.21</ele>
        <time>2017-10-07T15:20:34Z</time>
      </trkpt>
      <trkpt lat="37.9165052623" lon="-2.9972626269">
        <ele>955.69</ele>
        <time>2017-10-07T15:20:35Z</time>
      </trkpt>
      <trkpt lat="37.9164869897" lon="-2.9972713441">
        <ele>955.69</ele>
        <time>2017-10-07T15:20:36Z</time>
      </trkpt>
      <trkpt lat="37.9164719023" lon="-2.9972829949">
        <ele>955.69</ele>
        <time>2017-10-07T15:20:37Z</time>
      </trkpt>
      <trkpt lat="37.9164558928" lon="-2.9972941428">
        <ele>955.69</ele>
        <time>2017-10-07T15:20:38Z</time>
      </trkpt>
      <trkpt lat="37.9164387099" lon="-2.9972990882">
        <ele>955.69</ele>
        <time>2017-10-07T15:20:39Z</time>
      </trkpt>
      <trkpt lat="37.9162923619" lon="-2.9973992519">
        <ele>957.13</ele>
        <time>2017-10-07T15:20:49Z</time>
      </trkpt>
      <trkpt lat="37.9162506200" lon="-2.9974318575">
        <ele>957.61</ele>
        <time>2017-10-07T15:20:52Z</time>
      </trkpt>
      <trkpt lat="37.9162329342" lon="-2.9974419158">
        <ele>958.09</ele>
        <time>2017-10-07T15:20:53Z</time>
      </trkpt>
      <trkpt lat="37.9161802959" lon="-2.9974747729">
        <ele>958.57</ele>
        <time>2017-10-07T15:20:56Z</time>
      </trkpt>
      <trkpt lat="37.9161621071" lon="-2.9974815622">
        <ele>958.57</ele>
        <time>2017-10-07T15:20:57Z</time>
      </trkpt>
      <trkpt lat="37.9161471874" lon="-2.9974944703">
        <ele>958.57</ele>
        <time>2017-10-07T15:20:58Z</time>
      </trkpt>
      <trkpt lat="37.9161308426" lon="-2.9975061212">
        <ele>959.05</ele>
        <time>2017-10-07T15:20:59Z</time>
      </trkpt>
      <trkpt lat="37.9161126539" lon="-2.9975138325">
        <ele>959.05</ele>
        <time>2017-10-07T15:21:00Z</time>
      </trkpt>
      <trkpt lat="37.9160946328" lon="-2.9975197837">
        <ele>959.05</ele>
        <time>2017-10-07T15:21:01Z</time>
      </trkpt>
      <trkpt lat="37.9160751868" lon="-2.9975238908">
        <ele>959.53</ele>
        <time>2017-10-07T15:21:02Z</time>
      </trkpt>
      <trkpt lat="37.9160570819" lon="-2.9975254834">
        <ele>959.53</ele>
        <time>2017-10-07T15:21:03Z</time>
      </trkpt>
      <trkpt lat="37.9160378873" lon="-2.9975259025">
        <ele>959.53</ele>
        <time>2017-10-07T15:21:04Z</time>
      </trkpt>
      <trkpt lat="37.9160207883" lon="-2.9975277465">
        <ele>960.01</ele>
        <time>2017-10-07T15:21:05Z</time>
      </trkpt>
      <trkpt lat="37.9160047788" lon="-2.9975276627">
        <ele>960.01</ele>
        <time>2017-10-07T15:21:06Z</time>
      </trkpt>
      <trkpt lat="37.9159925412" lon="-2.9975273274">
        <ele>960.01</ele>
        <time>2017-10-07T15:21:07Z</time>
      </trkpt>
      <trkpt lat="37.9159799684" lon="-2.9975253996">
        <ele>960.49</ele>
        <time>2017-10-07T15:21:08Z</time>
      </trkpt>
      <trkpt lat="37.9159646295" lon="-2.9975180235">
        <ele>960.49</ele>
        <time>2017-10-07T15:21:09Z</time>
      </trkpt>
      <trkpt lat="37.9159509670" lon="-2.9975077976">
        <ele>960.49</ele>
        <time>2017-10-07T15:21:10Z</time>
      </trkpt>
      <trkpt lat="37.9159379750" lon="-2.9974961467">
        <ele>960.49</ele>
        <time>2017-10-07T15:21:11Z</time>
      </trkpt>
      <trkpt lat="37.9159222171" lon="-2.9974909499">
        <ele>960.49</ele>
        <time>2017-10-07T15:21:12Z</time>
      </trkpt>
      <trkpt lat="37.9159084707" lon="-2.9974826518">
        <ele>960.98</ele>
        <time>2017-10-07T15:21:13Z</time>
      </trkpt>
      <trkpt lat="37.9158954788" lon="-2.9974713363">
        <ele>960.98</ele>
        <time>2017-10-07T15:21:14Z</time>
      </trkpt>
      <trkpt lat="37.9158827383" lon="-2.9974596854">
        <ele>960.98</ele>
        <time>2017-10-07T15:21:15Z</time>
      </trkpt>
      <trkpt lat="37.9158668965" lon="-2.9974477831">
        <ele>960.98</ele>
        <time>2017-10-07T15:21:16Z</time>
      </trkpt>
      <trkpt lat="37.9158070497" lon="-2.9973993357">
        <ele>961.94</ele>
        <time>2017-10-07T15:21:23Z</time>
      </trkpt>
      <trkpt lat="37.9157347139" lon="-2.9973530676">
        <ele>962.90</ele>
        <time>2017-10-07T15:21:28Z</time>
      </trkpt>
      <trkpt lat="37.9157184530" lon="-2.9973465297">
        <ele>962.42</ele>
        <time>2017-10-07T15:21:29Z</time>
      </trkpt>
      <trkpt lat="37.9157037847" lon="-2.9973378964">
        <ele>962.90</ele>
        <time>2017-10-07T15:21:30Z</time>
      </trkpt>
      <trkpt lat="37.9156524036" lon="-2.9972978309">
        <ele>963.86</ele>
        <time>2017-10-07T15:21:38Z</time>
      </trkpt>
      <trkpt lat="37.9156402498" lon="-2.9972915445">
        <ele>963.86</ele>
        <time>2017-10-07T15:21:39Z</time>
      </trkpt>
      <trkpt lat="37.9156291019" lon="-2.9972834978">
        <ele>964.34</ele>
        <time>2017-10-07T15:21:40Z</time>
      </trkpt>
      <trkpt lat="37.9156223964" lon="-2.9972739425">
        <ele>964.34</ele>
        <time>2017-10-07T15:21:41Z</time>
      </trkpt>
      <trkpt lat="37.9156154394" lon="-2.9972627945">
        <ele>964.34</ele>
        <time>2017-10-07T15:21:42Z</time>
      </trkpt>
      <trkpt lat="37.9156042915" lon="-2.9972525686">
        <ele>964.34</ele>
        <time>2017-10-07T15:21:43Z</time>
      </trkpt>
      <trkpt lat="37.9155928921" lon="-2.9972444382">
        <ele>964.82</ele>
        <time>2017-10-07T15:21:44Z</time>
      </trkpt>
      <trkpt lat="37.9154944886" lon="-2.9971639719">
        <ele>966.26</ele>
        <time>2017-10-07T15:21:53Z</time>
      </trkpt>
      <trkpt lat="37.9153908044" lon="-2.9971131776">
        <ele>967.22</ele>
        <time>2017-10-07T15:22:01Z</time>
      </trkpt>
      <trkpt lat="37.9153654072" lon="-2.9970932286">
        <ele>967.70</ele>
        <time>2017-10-07T15:22:03Z</time>
      </trkpt>
      <trkpt lat="37.9153532535" lon="-2.9970871937">
        <ele>967.70</ele>
        <time>2017-10-07T15:22:04Z</time>
      </trkpt>
      <trkpt lat="37.9153413512" lon="-2.9970799852">
        <ele>967.70</ele>
        <time>2017-10-07T15:22:05Z</time>
      </trkpt>
      <trkpt lat="37.9153282754" lon="-2.9970691726">
        <ele>968.18</ele>
        <time>2017-10-07T15:22:06Z</time>
      </trkpt>
      <trkpt lat="37.9153175466" lon="-2.9970583599">
        <ele>968.18</ele>
        <time>2017-10-07T15:22:07Z</time>
      </trkpt>
      <trkpt lat="37.9153078236" lon="-2.9970520735">
        <ele>968.67</ele>
        <time>2017-10-07T15:22:08Z</time>
      </trkpt>
      <trkpt lat="37.9152981006" lon="-2.9970459547">
        <ele>968.67</ele>
        <time>2017-10-07T15:22:09Z</time>
      </trkpt>
      <trkpt lat="37.9152871203" lon="-2.9970447812">
        <ele>968.67</ele>
        <time>2017-10-07T15:22:10Z</time>
      </trkpt>
      <trkpt lat="37.9152739607" lon="-2.9970408417">
        <ele>968.67</ele>
        <time>2017-10-07T15:22:11Z</time>
      </trkpt>
      <trkpt lat="37.9152585380" lon="-2.9970349744">
        <ele>969.15</ele>
        <time>2017-10-07T15:22:12Z</time>
      </trkpt>
      <trkpt lat="37.9152422771" lon="-2.9970309511">
        <ele>969.15</ele>
        <time>2017-10-07T15:22:13Z</time>
      </trkpt>
      <trkpt lat="37.9152304586" lon="-2.9970253352">
        <ele>969.63</ele>
        <time>2017-10-07T15:22:14Z</time>
      </trkpt>
      <trkpt lat="37.9152208194" lon="-2.9970162828">
        <ele>969.63</ele>
        <time>2017-10-07T15:22:15Z</time>
      </trkpt>
      <trkpt lat="37.9152090009" lon="-2.9970075656">
        <ele>969.63</ele>
        <time>2017-10-07T15:22:16Z</time>
      </trkpt>
      <trkpt lat="37.9151953384" lon="-2.9970011115">
        <ele>970.11</ele>
        <time>2017-10-07T15:22:17Z</time>
      </trkpt>
      <trkpt lat="37.9151812568" lon="-2.9970002733">
        <ele>970.11</ele>
        <time>2017-10-07T15:22:18Z</time>
      </trkpt>
      <trkpt lat="37.9151694383" lon="-2.9970011115">
        <ele>970.11</ele>
        <time>2017-10-07T15:22:19Z</time>
      </trkpt>
      <trkpt lat="37.9151503276" lon="-2.9969924781">
        <ele>970.59</ele>
        <time>2017-10-07T15:22:21Z</time>
      </trkpt>
      <trkpt lat="37.9151380900" lon="-2.9969689250">
        <ele>970.59</ele>
        <time>2017-10-07T15:22:23Z</time>
      </trkpt>
      <trkpt lat="37.9151319712" lon="-2.9969545081">
        <ele>971.07</ele>
        <time>2017-10-07T15:22:24Z</time>
      </trkpt>
      <trkpt lat="37.9150979407" lon="-2.9969260097">
        <ele>971.55</ele>
        <time>2017-10-07T15:22:27Z</time>
      </trkpt>
      <trkpt lat="37.9150846135" lon="-2.9969216511">
        <ele>971.55</ele>
        <time>2017-10-07T15:22:28Z</time>
      </trkpt>
      <trkpt lat="37.9150729626" lon="-2.9969142750">
        <ele>971.55</ele>
        <time>2017-10-07T15:22:29Z</time>
      </trkpt>
      <trkpt lat="37.9150633235" lon="-2.9969062284">
        <ele>971.55</ele>
        <time>2017-10-07T15:22:30Z</time>
      </trkpt>
      <trkpt lat="37.9150551930" lon="-2.9968952481">
        <ele>972.03</ele>
        <time>2017-10-07T15:22:31Z</time>
      </trkpt>
      <trkpt lat="37.9150314722" lon="-2.9968688451">
        <ele>972.51</ele>
        <time>2017-10-07T15:22:34Z</time>
      </trkpt>
      <trkpt lat="37.9150217492" lon="-2.9968642350">
        <ele>972.51</ele>
        <time>2017-10-07T15:22:35Z</time>
      </trkpt>
      <trkpt lat="37.9150110204" lon="-2.9968601279">
        <ele>972.99</ele>
        <time>2017-10-07T15:22:36Z</time>
      </trkpt>
      <trkpt lat="37.9149986152" lon="-2.9968560208">
        <ele>972.99</ele>
        <time>2017-10-07T15:22:37Z</time>
      </trkpt>
      <trkpt lat="37.9149867967" lon="-2.9968481418">
        <ele>972.99</ele>
        <time>2017-10-07T15:22:38Z</time>
      </trkpt>
      <trkpt lat="37.9149739724" lon="-2.9968405981">
        <ele>973.47</ele>
        <time>2017-10-07T15:22:39Z</time>
      </trkpt>
      <trkpt lat="37.9149615671" lon="-2.9968359042">
        <ele>973.47</ele>
        <time>2017-10-07T15:22:40Z</time>
      </trkpt>
      <trkpt lat="37.9149500001" lon="-2.9968311265">
        <ele>973.47</ele>
        <time>2017-10-07T15:22:41Z</time>
      </trkpt>
      <trkpt lat="37.9149386846" lon="-2.9968276899">
        <ele>973.95</ele>
        <time>2017-10-07T15:22:42Z</time>
      </trkpt>
      <trkpt lat="37.9149272013" lon="-2.9968203977">
        <ele>973.95</ele>
        <time>2017-10-07T15:22:43Z</time>
      </trkpt>
      <trkpt lat="37.9149146285" lon="-2.9968129378">
        <ele>974.43</ele>
        <time>2017-10-07T15:22:44Z</time>
      </trkpt>
      <trkpt lat="37.9149018042" lon="-2.9968069028">
        <ele>974.43</ele>
        <time>2017-10-07T15:22:45Z</time>
      </trkpt>
      <trkpt lat="37.9148661811" lon="-2.9967925698">
        <ele>974.91</ele>
        <time>2017-10-07T15:22:48Z</time>
      </trkpt>
      <trkpt lat="37.9148241039" lon="-2.9967971798">
        <ele>975.39</ele>
        <time>2017-10-07T15:22:51Z</time>
      </trkpt>
      <trkpt lat="37.9148088489" lon="-2.9968012031">
        <ele>975.39</ele>
        <time>2017-10-07T15:22:52Z</time>
      </trkpt>
      <trkpt lat="37.9147926718" lon="-2.9967991076">
        <ele>975.39</ele>
        <time>2017-10-07T15:22:53Z</time>
      </trkpt>
      <trkpt lat="37.9147786740" lon="-2.9967944976">
        <ele>975.88</ele>
        <time>2017-10-07T15:22:54Z</time>
      </trkpt>
      <trkpt lat="37.9147674423" lon="-2.9967883788">
        <ele>975.88</ele>
        <time>2017-10-07T15:22:55Z</time>
      </trkpt>
      <trkpt lat="37.9147562943" lon="-2.9967788234">
        <ele>975.88</ele>
        <time>2017-10-07T15:22:56Z</time>
      </trkpt>
      <trkpt lat="37.9147453979" lon="-2.9967707768">
        <ele>976.36</ele>
        <time>2017-10-07T15:22:57Z</time>
      </trkpt>
      <trkpt lat="37.9147329088" lon="-2.9967657477">
        <ele>976.36</ele>
        <time>2017-10-07T15:22:58Z</time>
      </trkpt>
      <trkpt lat="37.9147194978" lon="-2.9967556894">
        <ele>976.36</ele>
        <time>2017-10-07T15:22:59Z</time>
      </trkpt>
      <trkpt lat="37.9147046618" lon="-2.9967447929">
        <ele>976.84</ele>
        <time>2017-10-07T15:23:00Z</time>
      </trkpt>
      <trkpt lat="37.9146904126" lon="-2.9967362434">
        <ele>976.84</ele>
        <time>2017-10-07T15:23:01Z</time>
      </trkpt>
      <trkpt lat="37.9145240318" lon="-2.9966254346">
        <ele>977.80</ele>
        <time>2017-10-07T15:23:12Z</time>
      </trkpt>
      <trkpt lat="37.9144718964" lon="-2.9965816811">
        <ele>977.80</ele>
        <time>2017-10-07T15:23:16Z</time>
      </trkpt>
      <trkpt lat="37.9144566413" lon="-2.9965786636">
        <ele>978.28</ele>
        <time>2017-10-07T15:23:17Z</time>
      </trkpt>
      <trkpt lat="37.9143539630" lon="-2.9965044837">
        <ele>978.28</ele>
        <time>2017-10-07T15:23:25Z</time>
      </trkpt>
      <trkpt lat="37.9143397138" lon="-2.9964941740">
        <ele>978.28</ele>
        <time>2017-10-07T15:23:26Z</time>
      </trkpt>
      <trkpt lat="37.9143255483" lon="-2.9964855406">
        <ele>978.28</ele>
        <time>2017-10-07T15:23:27Z</time>
      </trkpt>
      <trkpt lat="37.9143131431" lon="-2.9964719620">
        <ele>978.76</ele>
        <time>2017-10-07T15:23:28Z</time>
      </trkpt>
      <trkpt lat="37.9143040907" lon="-2.9964541085">
        <ele>978.76</ele>
        <time>2017-10-07T15:23:29Z</time>
      </trkpt>
      <trkpt lat="37.9142252170" lon="-2.9962629173">
        <ele>979.24</ele>
        <time>2017-10-07T15:23:39Z</time>
      </trkpt>
      <trkpt lat="37.9141503666" lon="-2.9960697144">
        <ele>980.68</ele>
        <time>2017-10-07T15:23:50Z</time>
      </trkpt>
      <trkpt lat="37.9141241312" lon="-2.9960240331">
        <ele>980.68</ele>
        <time>2017-10-07T15:23:53Z</time>
      </trkpt>
      <trkpt lat="37.9141086247" lon="-2.9960067663">
        <ele>980.68</ele>
        <time>2017-10-07T15:23:54Z</time>
      </trkpt>
      <trkpt lat="37.9140978120" lon="-2.9959917627">
        <ele>981.16</ele>
        <time>2017-10-07T15:23:55Z</time>
      </trkpt>
      <trkpt lat="37.9140853230" lon="-2.9959748313">
        <ele>981.16</ele>
        <time>2017-10-07T15:23:56Z</time>
      </trkpt>
      <trkpt lat="37.9140730016" lon="-2.9959634319">
        <ele>981.16</ele>
        <time>2017-10-07T15:23:57Z</time>
      </trkpt>
      <trkpt lat="37.9140602611" lon="-2.9959578160">
        <ele>981.64</ele>
        <time>2017-10-07T15:23:58Z</time>
      </trkpt>
      <trkpt lat="37.9139253963" lon="-2.9959003162">
        <ele>982.60</ele>
        <time>2017-10-07T15:24:07Z</time>
      </trkpt>
      <trkpt lat="37.9137391504" lon="-2.9957927763">
        <ele>983.09</ele>
        <time>2017-10-07T15:24:17Z</time>
      </trkpt>
      <trkpt lat="37.9136947263" lon="-2.9957460053">
        <ele>984.53</ele>
        <time>2017-10-07T15:24:20Z</time>
      </trkpt>
      <trkpt lat="37.9136794712" lon="-2.9957435746">
        <ele>984.53</ele>
        <time>2017-10-07T15:24:21Z</time>
      </trkpt>
      <trkpt lat="37.9136614501" lon="-2.9957363661">
        <ele>984.53</ele>
        <time>2017-10-07T15:24:22Z</time>
      </trkpt>
      <trkpt lat="37.9136433452" lon="-2.9957247153">
        <ele>984.53</ele>
        <time>2017-10-07T15:24:23Z</time>
      </trkpt>
      <trkpt lat="37.9136301856" lon="-2.9957076162">
        <ele>985.01</ele>
        <time>2017-10-07T15:24:24Z</time>
      </trkpt>
      <trkpt lat="37.9136244860" lon="-2.9956906848">
        <ele>985.01</ele>
        <time>2017-10-07T15:24:25Z</time>
      </trkpt>
      <trkpt lat="37.9136216361" lon="-2.9956731666">
        <ele>985.01</ele>
        <time>2017-10-07T15:24:26Z</time>
      </trkpt>
      <trkpt lat="37.9136121646" lon="-2.9956577439">
        <ele>985.01</ele>
        <time>2017-10-07T15:24:27Z</time>
      </trkpt>
      <trkpt lat="37.9135930538" lon="-2.9956497811">
        <ele>985.01</ele>
        <time>2017-10-07T15:24:28Z</time>
      </trkpt>
      <trkpt lat="37.9135762900" lon="-2.9956409801">
        <ele>985.49</ele>
        <time>2017-10-07T15:24:29Z</time>
      </trkpt>
      <trkpt lat="37.9135596100" lon="-2.9956288263">
        <ele>985.49</ele>
        <time>2017-10-07T15:24:30Z</time>
      </trkpt>
      <trkpt lat="37.9135517310" lon="-2.9956149962">
        <ele>985.97</ele>
        <time>2017-10-07T15:24:31Z</time>
      </trkpt>
      <trkpt lat="37.9135443550" lon="-2.9955990706">
        <ele>985.97</ele>
        <time>2017-10-07T15:24:32Z</time>
      </trkpt>
      <trkpt lat="37.9135404993" lon="-2.9955823068">
        <ele>985.97</ele>
        <time>2017-10-07T15:24:33Z</time>
      </trkpt>
      <trkpt lat="37.9135384876" lon="-2.9955635313">
        <ele>986.45</ele>
        <time>2017-10-07T15:24:34Z</time>
      </trkpt>
      <trkpt lat="37.9135365598" lon="-2.9955449235">
        <ele>985.97</ele>
        <time>2017-10-07T15:24:35Z</time>
      </trkpt>
      <trkpt lat="37.9135226458" lon="-2.9955232982">
        <ele>986.45</ele>
        <time>2017-10-07T15:24:37Z</time>
      </trkpt>
      <trkpt lat="37.9135104083" lon="-2.9955191072">
        <ele>986.45</ele>
        <time>2017-10-07T15:24:38Z</time>
      </trkpt>
      <trkpt lat="37.9134980030" lon="-2.9955109768">
        <ele>986.93</ele>
        <time>2017-10-07T15:24:39Z</time>
      </trkpt>
      <trkpt lat="37.9134875257" lon="-2.9954962246">
        <ele>986.93</ele>
        <time>2017-10-07T15:24:40Z</time>
      </trkpt>
      <trkpt lat="37.9134421796" lon="-2.9954419099">
        <ele>987.41</ele>
        <time>2017-10-07T15:24:45Z</time>
      </trkpt>
      <trkpt lat="37.9134256672" lon="-2.9954227153">
        <ele>987.41</ele>
        <time>2017-10-07T15:24:47Z</time>
      </trkpt>
      <trkpt lat="37.9134116694" lon="-2.9954210389">
        <ele>987.41</ele>
        <time>2017-10-07T15:24:48Z</time>
      </trkpt>
      <trkpt lat="37.9133997671" lon="-2.9954208713">
        <ele>987.41</ele>
        <time>2017-10-07T15:24:49Z</time>
      </trkpt>
      <trkpt lat="37.9133840930" lon="-2.9954022635">
        <ele>987.89</ele>
        <time>2017-10-07T15:24:51Z</time>
      </trkpt>
      <trkpt lat="37.9133736156" lon="-2.9953893553">
        <ele>987.89</ele>
        <time>2017-10-07T15:24:52Z</time>
      </trkpt>
      <trkpt lat="37.9133606236" lon="-2.9953811411">
        <ele>988.37</ele>
        <time>2017-10-07T15:24:53Z</time>
      </trkpt>
      <trkpt lat="37.9133477155" lon="-2.9953778721">
        <ele>988.37</ele>
        <time>2017-10-07T15:24:54Z</time>
      </trkpt>
      <trkpt lat="37.9132422712" lon="-2.9953666404">
        <ele>989.33</ele>
        <time>2017-10-07T15:25:01Z</time>
      </trkpt>
      <trkpt lat="37.9131995235" lon="-2.9953792132">
        <ele>989.81</ele>
        <time>2017-10-07T15:25:04Z</time>
      </trkpt>
      <trkpt lat="37.9131626431" lon="-2.9953917023">
        <ele>990.78</ele>
        <time>2017-10-07T15:25:07Z</time>
      </trkpt>
      <trkpt lat="37.9130687658" lon="-2.9953963961">
        <ele>991.26</ele>
        <time>2017-10-07T15:25:12Z</time>
      </trkpt>
      <trkpt lat="37.9130369145" lon="-2.9953792132">
        <ele>991.74</ele>
        <time>2017-10-07T15:25:14Z</time>
      </trkpt>
      <trkpt lat="37.9129226692" lon="-2.9954139981">
        <ele>992.70</ele>
        <time>2017-10-07T15:25:21Z</time>
      </trkpt>
      <trkpt lat="37.9129045643" lon="-2.9954129923">
        <ele>992.70</ele>
        <time>2017-10-07T15:25:22Z</time>
      </trkpt>
      <trkpt lat="37.9128495790" lon="-2.9954194464">
        <ele>993.66</ele>
        <time>2017-10-07T15:25:25Z</time>
      </trkpt>
      <trkpt lat="37.9128317256" lon="-2.9954210389">
        <ele>993.66</ele>
        <time>2017-10-07T15:25:26Z</time>
      </trkpt>
      <trkpt lat="37.9128147941" lon="-2.9954192787">
        <ele>993.66</ele>
        <time>2017-10-07T15:25:27Z</time>
      </trkpt>
      <trkpt lat="37.9126757383" lon="-2.9954499565">
        <ele>995.58</ele>
        <time>2017-10-07T15:25:35Z</time>
      </trkpt>
      <trkpt lat="37.9125508480" lon="-2.9954873398">
        <ele>996.54</ele>
        <time>2017-10-07T15:25:42Z</time>
      </trkpt>
      <trkpt lat="37.9124900792" lon="-2.9954956379">
        <ele>997.51</ele>
        <time>2017-10-07T15:25:45Z</time>
      </trkpt>
      <trkpt lat="37.9124705493" lon="-2.9955198616">
        <ele>997.51</ele>
        <time>2017-10-07T15:25:47Z</time>
      </trkpt>
      <trkpt lat="37.9124704655" lon="-2.9955410678">
        <ele>997.51</ele>
        <time>2017-10-07T15:25:48Z</time>
      </trkpt>
      <trkpt lat="37.9124765843" lon="-2.9955745116">
        <ele>997.99</ele>
        <time>2017-10-07T15:25:49Z</time>
      </trkpt>
      <trkpt lat="37.9124835413" lon="-2.9956144933">
        <ele>997.51</ele>
        <time>2017-10-07T15:25:50Z</time>
      </trkpt>
      <trkpt lat="37.9124840442" lon="-2.9956492782">
        <ele>997.51</ele>
        <time>2017-10-07T15:25:51Z</time>
      </trkpt>
      <trkpt lat="37.9124808591" lon="-2.9956815485">
        <ele>997.51</ele>
        <time>2017-10-07T15:25:52Z</time>
      </trkpt>
      <trkpt lat="37.9124781769" lon="-2.9957176745">
        <ele>996.54</ele>
        <time>2017-10-07T15:25:53Z</time>
      </trkpt>
      <trkpt lat="37.9124407098" lon="-2.9959195107">
        <ele>997.02</ele>
        <time>2017-10-07T15:26:01Z</time>
      </trkpt>
      <trkpt lat="37.9124382790" lon="-2.9959372804">
        <ele>996.54</ele>
        <time>2017-10-07T15:26:16Z</time>
      </trkpt>
      <trkpt lat="37.9124350939" lon="-2.9959371127">
        <ele>996.54</ele>
        <time>2017-10-07T15:26:40Z</time>
      </trkpt>
      <trkpt lat="37.9124179948" lon="-2.9959317483">
        <ele>996.54</ele>
        <time>2017-10-07T15:27:05Z</time>
      </trkpt>
      <trkpt lat="37.9124149773" lon="-2.9959413875">
        <ele>996.54</ele>
        <time>2017-10-07T15:27:26Z</time>
      </trkpt>
      <trkpt lat="37.9124102835" lon="-2.9959465005">
        <ele>996.54</ele>
        <time>2017-10-07T15:27:47Z</time>
      </trkpt>
      <trkpt lat="37.9124153126" lon="-2.9959423933">
        <ele>996.54</ele>
        <time>2017-10-07T15:28:11Z</time>
      </trkpt>
      <trkpt lat="37.9124252871" lon="-2.9959466681">
        <ele>996.54</ele>
        <time>2017-10-07T15:28:34Z</time>
      </trkpt>
      <trkpt lat="37.9124345910" lon="-2.9959412199">
        <ele>996.54</ele>
        <time>2017-10-07T15:28:59Z</time>
      </trkpt>
      <trkpt lat="37.9124385305" lon="-2.9959418904">
        <ele>996.54</ele>
        <time>2017-10-07T15:29:19Z</time>
      </trkpt>
      <trkpt lat="37.9124298133" lon="-2.9959363583">
        <ele>996.54</ele>
        <time>2017-10-07T15:29:43Z</time>
      </trkpt>
      <trkpt lat="37.9124272987" lon="-2.9959481768">
        <ele>997.02</ele>
        <time>2017-10-07T15:30:08Z</time>
      </trkpt>
      <trkpt lat="37.9124345910" lon="-2.9959508590">
        <ele>996.54</ele>
        <time>2017-10-07T15:30:24Z</time>
      </trkpt>
      <trkpt lat="37.9124613293" lon="-2.9959332570">
        <ele>997.02</ele>
        <time>2017-10-07T15:30:43Z</time>
      </trkpt>
      <trkpt lat="37.9124662746" lon="-2.9959227797">
        <ele>997.02</ele>
        <time>2017-10-07T15:30:58Z</time>
      </trkpt>
      <trkpt lat="37.9124706332" lon="-2.9959272221">
        <ele>997.02</ele>
        <time>2017-10-07T15:31:23Z</time>
      </trkpt>
      <trkpt lat="37.9124715552" lon="-2.9959294014">
        <ele>997.02</ele>
        <time>2017-10-07T15:31:45Z</time>
      </trkpt>
      <trkpt lat="37.9124770034" lon="-2.9959132243">
        <ele>997.02</ele>
        <time>2017-10-07T15:31:47Z</time>
      </trkpt>
      <trkpt lat="37.9124798533" lon="-2.9958987236">
        <ele>997.02</ele>
        <time>2017-10-07T15:31:48Z</time>
      </trkpt>
      <trkpt lat="37.9124806076" lon="-2.9958827980">
        <ele>996.54</ele>
        <time>2017-10-07T15:31:49Z</time>
      </trkpt>
      <trkpt lat="37.9124726448" lon="-2.9956840631">
        <ele>997.51</ele>
        <time>2017-10-07T15:31:59Z</time>
      </trkpt>
      <trkpt lat="37.9124568030" lon="-2.9955419898">
        <ele>997.51</ele>
        <time>2017-10-07T15:32:07Z</time>
      </trkpt>
      <trkpt lat="37.9124536179" lon="-2.9955034330">
        <ele>997.99</ele>
        <time>2017-10-07T15:32:10Z</time>
      </trkpt>
      <trkpt lat="37.9124443978" lon="-2.9954862501">
        <ele>997.99</ele>
        <time>2017-10-07T15:32:11Z</time>
      </trkpt>
      <trkpt lat="37.9124286398" lon="-2.9954676423">
        <ele>997.99</ele>
        <time>2017-10-07T15:32:13Z</time>
      </trkpt>
      <trkpt lat="37.9123414680" lon="-2.9954442568">
        <ele>998.95</ele>
        <time>2017-10-07T15:32:20Z</time>
      </trkpt>
      <trkpt lat="37.9121494386" lon="-2.9954212066">
        <ele>998.95</ele>
        <time>2017-10-07T15:32:29Z</time>
      </trkpt>
      <trkpt lat="37.9120542202" lon="-2.9953960609">
        <ele>998.95</ele>
        <time>2017-10-07T15:32:34Z</time>
      </trkpt>
      <trkpt lat="37.9120118078" lon="-2.9953984916">
        <ele>998.95</ele>
        <time>2017-10-07T15:32:43Z</time>
      </trkpt>
      <trkpt lat="37.9119813815" lon="-2.9953659698">
        <ele>998.95</ele>
        <time>2017-10-07T15:33:04Z</time>
      </trkpt>
      <trkpt lat="37.9119813815" lon="-2.9953614436">
        <ele>998.95</ele>
        <time>2017-10-07T15:33:25Z</time>
      </trkpt>
      <trkpt lat="37.9119851533" lon="-2.9953701608">
        <ele>999.91</ele>
        <time>2017-10-07T15:33:50Z</time>
      </trkpt>
      <trkpt lat="37.9119766038" lon="-2.9953851644">
        <ele>999.43</ele>
        <time>2017-10-07T15:34:14Z</time>
      </trkpt>
      <trkpt lat="37.9119755980" lon="-2.9953869246">
        <ele>999.43</ele>
        <time>2017-10-07T15:34:33Z</time>
      </trkpt>
      <trkpt lat="37.9119758494" lon="-2.9953854997">
        <ele>999.43</ele>
        <time>2017-10-07T15:34:51Z</time>
      </trkpt>
      <trkpt lat="37.9119778611" lon="-2.9953736812">
        <ele>999.43</ele>
        <time>2017-10-07T15:35:05Z</time>
      </trkpt>
      <trkpt lat="37.9119588342" lon="-2.9953627009">
        <ele>999.43</ele>
        <time>2017-10-07T15:35:10Z</time>
      </trkpt>
      <trkpt lat="37.9118688963" lon="-2.9953212105">
        <ele>999.91</ele>
        <time>2017-10-07T15:35:19Z</time>
      </trkpt>
      <trkpt lat="37.9118515458" lon="-2.9953237250">
        <ele>999.43</ele>
        <time>2017-10-07T15:35:20Z</time>
      </trkpt>
      <trkpt lat="37.9118351173" lon="-2.9953274131">
        <ele>999.43</ele>
        <time>2017-10-07T15:35:21Z</time>
      </trkpt>
      <trkpt lat="37.9118188564" lon="-2.9953254852">
        <ele>999.43</ele>
        <time>2017-10-07T15:35:22Z</time>
      </trkpt>
      <trkpt lat="37.9118046071" lon="-2.9953199532">
        <ele>999.43</ele>
        <time>2017-10-07T15:35:23Z</time>
      </trkpt>
      <trkpt lat="37.9117935430" lon="-2.9953121580">
        <ele>999.43</ele>
        <time>2017-10-07T15:35:24Z</time>
      </trkpt>
      <trkpt lat="37.9117834847" lon="-2.9953037761">
        <ele>999.43</ele>
        <time>2017-10-07T15:35:25Z</time>
      </trkpt>
      <trkpt lat="37.9117720015" lon="-2.9952972382">
        <ele>999.43</ele>
        <time>2017-10-07T15:35:26Z</time>
      </trkpt>
      <trkpt lat="37.9117569141" lon="-2.9952958971">
        <ele>999.91</ele>
        <time>2017-10-07T15:35:27Z</time>
      </trkpt>
      <trkpt lat="37.9117351212" lon="-2.9953005072">
        <ele>999.43</ele>
        <time>2017-10-07T15:35:28Z</time>
      </trkpt>
      <trkpt lat="37.9117141664" lon="-2.9953052010">
        <ele>999.43</ele>
        <time>2017-10-07T15:35:29Z</time>
      </trkpt>
      <trkpt lat="37.9116970673" lon="-2.9953065421">
        <ele>999.43</ele>
        <time>2017-10-07T15:35:30Z</time>
      </trkpt>
      <trkpt lat="37.9116804712" lon="-2.9953014292">
        <ele>999.43</ele>
        <time>2017-10-07T15:35:31Z</time>
      </trkpt>
      <trkpt lat="37.9116578400" lon="-2.9952964000">
        <ele>999.91</ele>
        <time>2017-10-07T15:35:32Z</time>
      </trkpt>
      <trkpt lat="37.9116349574" lon="-2.9952895269">
        <ele>999.43</ele>
        <time>2017-10-07T15:35:33Z</time>
      </trkpt>
      <trkpt lat="37.9116130807" lon="-2.9952803068">
        <ele>999.43</ele>
        <time>2017-10-07T15:35:34Z</time>
      </trkpt>
      <trkpt lat="37.9115172755" lon="-2.9952543229">
        <ele>999.91</ele>
        <time>2017-10-07T15:35:39Z</time>
      </trkpt>
      <trkpt lat="37.9114917107" lon="-2.9952572566">
        <ele>999.43</ele>
        <time>2017-10-07T15:35:40Z</time>
      </trkpt>
      <trkpt lat="37.9114749469" lon="-2.9952614475">
        <ele>999.43</ele>
        <time>2017-10-07T15:35:41Z</time>
      </trkpt>
      <trkpt lat="37.9114591051" lon="-2.9952607770">
        <ele>999.43</ele>
        <time>2017-10-07T15:35:42Z</time>
      </trkpt>
      <trkpt lat="37.9114394076" lon="-2.9952542391">
        <ele>999.43</ele>
        <time>2017-10-07T15:35:43Z</time>
      </trkpt>
      <trkpt lat="37.9114141781" lon="-2.9952444322">
        <ele>999.43</ele>
        <time>2017-10-07T15:35:44Z</time>
      </trkpt>
      <trkpt lat="37.9113855120" lon="-2.9952339549">
        <ele>999.91</ele>
        <time>2017-10-07T15:35:45Z</time>
      </trkpt>
      <trkpt lat="37.9113529064" lon="-2.9952218011">
        <ele>999.43</ele>
        <time>2017-10-07T15:35:46Z</time>
      </trkpt>
      <trkpt lat="37.9113198817" lon="-2.9952152632">
        <ele>999.43</ele>
        <time>2017-10-07T15:35:47Z</time>
      </trkpt>
      <trkpt lat="37.9112850968" lon="-2.9952184483">
        <ele>999.43</ele>
        <time>2017-10-07T15:35:48Z</time>
      </trkpt>
      <trkpt lat="37.9112571850" lon="-2.9952321108">
        <ele>999.43</ele>
        <time>2017-10-07T15:35:49Z</time>
      </trkpt>
      <trkpt lat="37.9112357274" lon="-2.9952535685">
        <ele>1000.39</ele>
        <time>2017-10-07T15:35:50Z</time>
      </trkpt>
      <trkpt lat="37.9112181254" lon="-2.9952765349">
        <ele>999.43</ele>
        <time>2017-10-07T15:35:51Z</time>
      </trkpt>
      <trkpt lat="37.9111394193" lon="-2.9953829013">
        <ele>999.91</ele>
        <time>2017-10-07T15:35:56Z</time>
      </trkpt>
      <trkpt lat="37.9111233260" lon="-2.9954020120">
        <ele>1000.39</ele>
        <time>2017-10-07T15:35:57Z</time>
      </trkpt>
      <trkpt lat="37.9109746311" lon="-2.9955837317">
        <ele>1001.35</ele>
        <time>2017-10-07T15:36:08Z</time>
      </trkpt>
      <trkpt lat="37.9109576996" lon="-2.9956044350">
        <ele>1001.35</ele>
        <time>2017-10-07T15:36:09Z</time>
      </trkpt>
      <trkpt lat="37.9109387565" lon="-2.9956219532">
        <ele>1001.83</ele>
        <time>2017-10-07T15:36:10Z</time>
      </trkpt>
      <trkpt lat="37.9107904807" lon="-2.9957668763">
        <ele>1003.27</ele>
        <time>2017-10-07T15:36:19Z</time>
      </trkpt>
      <trkpt lat="37.9107687715" lon="-2.9957510345">
        <ele>1003.27</ele>
        <time>2017-10-07T15:36:21Z</time>
      </trkpt>
      <trkpt lat="37.9107448831" lon="-2.9957281519">
        <ele>1003.75</ele>
        <time>2017-10-07T15:36:23Z</time>
      </trkpt>
      <trkpt lat="37.9107027221" lon="-2.9957014974">
        <ele>1004.23</ele>
        <time>2017-10-07T15:36:27Z</time>
      </trkpt>
      <trkpt lat="37.9106896464" lon="-2.9956924450">
        <ele>1004.72</ele>
        <time>2017-10-07T15:36:28Z</time>
      </trkpt>
      <trkpt lat="37.9106756486" lon="-2.9956806265">
        <ele>1004.23</ele>
        <time>2017-10-07T15:36:29Z</time>
      </trkpt>
      <trkpt lat="37.9106017202" lon="-2.9956257250">
        <ele>1005.68</ele>
        <time>2017-10-07T15:36:37Z</time>
      </trkpt>
      <trkpt lat="37.9105970263" lon="-2.9956201091">
        <ele>1005.68</ele>
        <time>2017-10-07T15:36:38Z</time>
      </trkpt>
      <trkpt lat="37.9105757363" lon="-2.9956174269">
        <ele>1006.16</ele>
        <time>2017-10-07T15:36:40Z</time>
      </trkpt>
      <trkpt lat="37.9104414582" lon="-2.9955876712">
        <ele>1007.60</ele>
        <time>2017-10-07T15:36:50Z</time>
      </trkpt>
      <trkpt lat="37.9102768376" lon="-2.9955820553">
        <ele>1008.56</ele>
        <time>2017-10-07T15:36:59Z</time>
      </trkpt>
      <trkpt lat="37.9102632590" lon="-2.9955844022">
        <ele>1008.56</ele>
        <time>2017-10-07T15:37:00Z</time>
      </trkpt>
      <trkpt lat="37.9102483392" lon="-2.9955917783">
        <ele>1008.56</ele>
        <time>2017-10-07T15:37:01Z</time>
      </trkpt>
      <trkpt lat="37.9102298152" lon="-2.9955939576">
        <ele>1009.04</ele>
        <time>2017-10-07T15:37:02Z</time>
      </trkpt>
      <trkpt lat="37.9102132190" lon="-2.9955930356">
        <ele>1009.04</ele>
        <time>2017-10-07T15:37:03Z</time>
      </trkpt>
      <trkpt lat="37.9101695493" lon="-2.9955693986">
        <ele>1009.52</ele>
        <time>2017-10-07T15:37:06Z</time>
      </trkpt>
      <trkpt lat="37.9101515282" lon="-2.9955728352">
        <ele>1009.52</ele>
        <time>2017-10-07T15:37:07Z</time>
      </trkpt>
      <trkpt lat="37.9101333395" lon="-2.9955807142">
        <ele>1009.52</ele>
        <time>2017-10-07T15:37:08Z</time>
      </trkpt>
      <trkpt lat="37.9101167433" lon="-2.9955810495">
        <ele>1010.00</ele>
        <time>2017-10-07T15:37:09Z</time>
      </trkpt>
      <trkpt lat="37.9101006500" lon="-2.9955784511">
        <ele>1010.00</ele>
        <time>2017-10-07T15:37:10Z</time>
      </trkpt>
      <trkpt lat="37.9100879934" lon="-2.9955748469">
        <ele>1010.00</ele>
        <time>2017-10-07T15:37:11Z</time>
      </trkpt>
      <trkpt lat="37.9100654460" lon="-2.9955653753">
        <ele>1010.48</ele>
        <time>2017-10-07T15:37:13Z</time>
      </trkpt>
      <trkpt lat="37.9099708144" lon="-2.9955408163">
        <ele>1011.93</ele>
        <time>2017-10-07T15:37:22Z</time>
      </trkpt>
      <trkpt lat="37.9099351913" lon="-2.9955048580">
        <ele>1011.93</ele>
        <time>2017-10-07T15:37:26Z</time>
      </trkpt>
      <trkpt lat="37.9099221993" lon="-2.9954908602">
        <ele>1012.41</ele>
        <time>2017-10-07T15:37:27Z</time>
      </trkpt>
      <trkpt lat="37.9098211136" lon="-2.9954063706">
        <ele>1013.37</ele>
        <time>2017-10-07T15:37:36Z</time>
      </trkpt>
      <trkpt lat="37.9098142404" lon="-2.9953818116">
        <ele>1013.37</ele>
        <time>2017-10-07T15:37:38Z</time>
      </trkpt>
      <trkpt lat="37.9098095465" lon="-2.9953590129">
        <ele>1013.85</ele>
        <time>2017-10-07T15:37:39Z</time>
      </trkpt>
      <trkpt lat="37.9098000750" lon="-2.9953386448">
        <ele>1013.85</ele>
        <time>2017-10-07T15:37:40Z</time>
      </trkpt>
      <trkpt lat="37.9097884241" lon="-2.9953208752">
        <ele>1013.85</ele>
        <time>2017-10-07T15:37:41Z</time>
      </trkpt>
      <trkpt lat="37.9097599257" lon="-2.9952995852">
        <ele>1014.33</ele>
        <time>2017-10-07T15:37:43Z</time>
      </trkpt>
      <trkpt lat="37.9097470175" lon="-2.9952935502">
        <ele>1014.33</ele>
        <time>2017-10-07T15:37:44Z</time>
      </trkpt>
      <trkpt lat="37.9097351152" lon="-2.9952829052">
        <ele>1014.33</ele>
        <time>2017-10-07T15:37:45Z</time>
      </trkpt>
      <trkpt lat="37.9097265657" lon="-2.9952685721">
        <ele>1014.33</ele>
        <time>2017-10-07T15:37:46Z</time>
      </trkpt>
      <trkpt lat="37.9097225424" lon="-2.9952507187">
        <ele>1014.33</ele>
        <time>2017-10-07T15:37:47Z</time>
      </trkpt>
      <trkpt lat="37.9097200278" lon="-2.9952303506">
        <ele>1014.81</ele>
        <time>2017-10-07T15:37:48Z</time>
      </trkpt>
      <trkpt lat="37.9097140767" lon="-2.9952114075">
        <ele>1014.81</ele>
        <time>2017-10-07T15:37:49Z</time>
      </trkpt>
      <trkpt lat="37.9097085446" lon="-2.9951979965">
        <ele>1015.77</ele>
        <time>2017-10-07T15:37:50Z</time>
      </trkpt>
      <trkpt lat="37.9096766096" lon="-2.9951667320">
        <ele>1015.29</ele>
        <time>2017-10-07T15:37:54Z</time>
      </trkpt>
      <trkpt lat="37.9096609354" lon="-2.9951637145">
        <ele>1015.29</ele>
        <time>2017-10-07T15:37:55Z</time>
      </trkpt>
      <trkpt lat="37.9096455965" lon="-2.9951586854">
        <ele>1015.77</ele>
        <time>2017-10-07T15:37:56Z</time>
      </trkpt>
      <trkpt lat="37.9096307606" lon="-2.9951513093">
        <ele>1015.77</ele>
        <time>2017-10-07T15:37:57Z</time>
      </trkpt>
      <trkpt lat="37.9096178524" lon="-2.9951411672">
        <ele>1016.25</ele>
        <time>2017-10-07T15:37:58Z</time>
      </trkpt>
      <trkpt lat="37.9096106440" lon="-2.9951270018">
        <ele>1015.77</ele>
        <time>2017-10-07T15:37:59Z</time>
      </trkpt>
      <trkpt lat="37.9096022621" lon="-2.9951108247">
        <ele>1016.25</ele>
        <time>2017-10-07T15:38:00Z</time>
      </trkpt>
      <trkpt lat="37.9095763620" lon="-2.9950789735">
        <ele>1016.25</ele>
        <time>2017-10-07T15:38:03Z</time>
      </trkpt>
      <trkpt lat="37.9094601050" lon="-2.9950156063">
        <ele>1017.69</ele>
        <time>2017-10-07T15:38:13Z</time>
      </trkpt>
      <trkpt lat="37.9093724303" lon="-2.9949631356">
        <ele>1018.65</ele>
        <time>2017-10-07T15:38:22Z</time>
      </trkpt>
      <trkpt lat="37.9093571752" lon="-2.9949555080">
        <ele>1018.65</ele>
        <time>2017-10-07T15:38:23Z</time>
      </trkpt>
      <trkpt lat="37.9093435965" lon="-2.9949510656">
        <ele>1018.65</ele>
        <time>2017-10-07T15:38:24Z</time>
      </trkpt>
      <trkpt lat="37.9093102366" lon="-2.9949155264">
        <ele>1019.13</ele>
        <time>2017-10-07T15:38:27Z</time>
      </trkpt>
      <trkpt lat="37.9092265852" lon="-2.9948217329">
        <ele>1020.10</ele>
        <time>2017-10-07T15:38:35Z</time>
      </trkpt>
      <trkpt lat="37.9091498069" lon="-2.9947552644">
        <ele>1020.10</ele>
        <time>2017-10-07T15:38:55Z</time>
      </trkpt>
      <trkpt lat="37.9091217276" lon="-2.9947466310">
        <ele>1020.58</ele>
        <time>2017-10-07T15:39:00Z</time>
      </trkpt>
      <trkpt lat="37.9089602083" lon="-2.9947084934">
        <ele>1021.54</ele>
        <time>2017-10-07T15:39:09Z</time>
      </trkpt>
      <trkpt lat="37.9089425225" lon="-2.9947058111">
        <ele>1022.02</ele>
        <time>2017-10-07T15:39:10Z</time>
      </trkpt>
      <trkpt lat="37.9087616410" lon="-2.9946395941">
        <ele>1022.98</ele>
        <time>2017-10-07T15:39:20Z</time>
      </trkpt>
      <trkpt lat="37.9086923227" lon="-2.9946478922">
        <ele>1022.98</ele>
        <time>2017-10-07T15:39:23Z</time>
      </trkpt>
      <trkpt lat="37.9086744692" lon="-2.9946604650">
        <ele>1022.98</ele>
        <time>2017-10-07T15:39:24Z</time>
      </trkpt>
      <trkpt lat="37.9086300451" lon="-2.9946917295">
        <ele>1022.98</ele>
        <time>2017-10-07T15:39:27Z</time>
      </trkpt>
      <trkpt lat="37.9086108506" lon="-2.9946986865">
        <ele>1023.46</ele>
        <time>2017-10-07T15:39:28Z</time>
      </trkpt>
      <trkpt lat="37.9085915722" lon="-2.9947081581">
        <ele>1023.46</ele>
        <time>2017-10-07T15:39:29Z</time>
      </trkpt>
      <trkpt lat="37.9085743055" lon="-2.9947192222">
        <ele>1023.46</ele>
        <time>2017-10-07T15:39:30Z</time>
      </trkpt>
      <trkpt lat="37.9085608106" lon="-2.9947322980">
        <ele>1023.46</ele>
        <time>2017-10-07T15:39:31Z</time>
      </trkpt>
      <trkpt lat="37.9085439630" lon="-2.9947421048">
        <ele>1022.98</ele>
        <time>2017-10-07T15:39:32Z</time>
      </trkpt>
      <trkpt lat="37.9085253552" lon="-2.9947532527">
        <ele>1023.46</ele>
        <time>2017-10-07T15:39:33Z</time>
      </trkpt>
      <trkpt lat="37.9085068312" lon="-2.9947649036">
        <ele>1023.46</ele>
        <time>2017-10-07T15:39:34Z</time>
      </trkpt>
      <trkpt lat="37.9084888101" lon="-2.9947766382">
        <ele>1023.46</ele>
        <time>2017-10-07T15:39:35Z</time>
      </trkpt>
      <trkpt lat="37.9084709566" lon="-2.9947841819">
        <ele>1023.46</ele>
        <time>2017-10-07T15:39:36Z</time>
      </trkpt>
      <trkpt lat="37.9084562883" lon="-2.9947991017">
        <ele>1023.46</ele>
        <time>2017-10-07T15:39:37Z</time>
      </trkpt>
      <trkpt lat="37.9084421229" lon="-2.9948168714">
        <ele>1023.94</ele>
        <time>2017-10-07T15:39:38Z</time>
      </trkpt>
      <trkpt lat="37.9084290471" lon="-2.9948367365">
        <ele>1023.94</ele>
        <time>2017-10-07T15:39:39Z</time>
      </trkpt>
      <trkpt lat="37.9084108584" lon="-2.9948540870">
        <ele>1023.94</ele>
        <time>2017-10-07T15:39:40Z</time>
      </trkpt>
      <trkpt lat="37.9083934240" lon="-2.9948691744">
        <ele>1023.94</ele>
        <time>2017-10-07T15:39:41Z</time>
      </trkpt>
      <trkpt lat="37.9083788395" lon="-2.9948802385">
        <ele>1023.94</ele>
        <time>2017-10-07T15:39:42Z</time>
      </trkpt>
      <trkpt lat="37.9083635844" lon="-2.9948918894">
        <ele>1023.94</ele>
        <time>2017-10-07T15:39:43Z</time>
      </trkpt>
      <trkpt lat="37.9083487485" lon="-2.9949073959">
        <ele>1023.94</ele>
        <time>2017-10-07T15:39:44Z</time>
      </trkpt>
      <trkpt lat="37.9081568867" lon="-2.9950236529">
        <ele>1024.90</ele>
        <time>2017-10-07T15:39:55Z</time>
      </trkpt>
      <trkpt lat="37.9079839680" lon="-2.9951418377">
        <ele>1025.86</ele>
        <time>2017-10-07T15:40:07Z</time>
      </trkpt>
      <trkpt lat="37.9079412203" lon="-2.9951955657">
        <ele>1026.34</ele>
        <time>2017-10-07T15:40:10Z</time>
      </trkpt>
      <trkpt lat="37.9079209361" lon="-2.9952052888">
        <ele>1026.34</ele>
        <time>2017-10-07T15:40:11Z</time>
      </trkpt>
      <trkpt lat="37.9079009034" lon="-2.9952114914">
        <ele>1026.34</ele>
        <time>2017-10-07T15:40:12Z</time>
      </trkpt>
      <trkpt lat="37.9078213591" lon="-2.9951997567">
        <ele>1026.83</ele>
        <time>2017-10-07T15:40:16Z</time>
      </trkpt>
      <trkpt lat="37.9078020807" lon="-2.9951889440">
        <ele>1026.83</ele>
        <time>2017-10-07T15:40:17Z</time>
      </trkpt>
      <trkpt lat="37.9077850655" lon="-2.9951800592">
        <ele>1026.83</ele>
        <time>2017-10-07T15:40:18Z</time>
      </trkpt>
      <trkpt lat="37.9077719059" lon="-2.9951627087">
        <ele>1027.31</ele>
        <time>2017-10-07T15:40:19Z</time>
      </trkpt>
      <trkpt lat="37.9077644460" lon="-2.9951469507">
        <ele>1027.31</ele>
        <time>2017-10-07T15:40:20Z</time>
      </trkpt>
      <trkpt lat="37.9077502806" lon="-2.9951272532">
        <ele>1027.31</ele>
        <time>2017-10-07T15:40:21Z</time>
      </trkpt>
      <trkpt lat="37.9077303316" lon="-2.9951094836">
        <ele>1027.31</ele>
        <time>2017-10-07T15:40:22Z</time>
      </trkpt>
      <trkpt lat="37.9077135678" lon="-2.9950959887">
        <ele>1027.31</ele>
        <time>2017-10-07T15:40:23Z</time>
      </trkpt>
      <trkpt lat="37.9076982290" lon="-2.9950836673">
        <ele>1027.79</ele>
        <time>2017-10-07T15:40:24Z</time>
      </trkpt>
      <trkpt lat="37.9076856561" lon="-2.9950663168">
        <ele>1027.79</ele>
        <time>2017-10-07T15:40:25Z</time>
      </trkpt>
      <trkpt lat="37.9076758493" lon="-2.9950451106">
        <ele>1027.79</ele>
        <time>2017-10-07T15:40:26Z</time>
      </trkpt>
      <trkpt lat="37.9076649528" lon="-2.9950254969">
        <ele>1027.79</ele>
        <time>2017-10-07T15:40:27Z</time>
      </trkpt>
      <trkpt lat="37.9076538887" lon="-2.9950089008">
        <ele>1027.79</ele>
        <time>2017-10-07T15:40:28Z</time>
      </trkpt>
      <trkpt lat="37.9076192714" lon="-2.9949361458">
        <ele>1028.27</ele>
        <time>2017-10-07T15:40:32Z</time>
      </trkpt>
      <trkpt lat="37.9076075368" lon="-2.9949172866">
        <ele>1028.75</ele>
        <time>2017-10-07T15:40:33Z</time>
      </trkpt>
      <trkpt lat="37.9075957183" lon="-2.9948988464">
        <ele>1028.75</ele>
        <time>2017-10-07T15:40:34Z</time>
      </trkpt>
      <trkpt lat="37.9075853247" lon="-2.9948797356">
        <ele>1028.75</ele>
        <time>2017-10-07T15:40:35Z</time>
      </trkpt>
      <trkpt lat="37.9075763561" lon="-2.9948631395">
        <ele>1028.75</ele>
        <time>2017-10-07T15:40:36Z</time>
      </trkpt>
      <trkpt lat="37.9075673036" lon="-2.9948436935">
        <ele>1028.75</ele>
        <time>2017-10-07T15:40:37Z</time>
      </trkpt>
      <trkpt lat="37.9075604305" lon="-2.9948258400">
        <ele>1029.23</ele>
        <time>2017-10-07T15:40:38Z</time>
      </trkpt>
      <trkpt lat="37.9075504560" lon="-2.9948112555">
        <ele>1029.23</ele>
        <time>2017-10-07T15:40:39Z</time>
      </trkpt>
      <trkpt lat="37.9075391404" lon="-2.9947944917">
        <ele>1029.23</ele>
        <time>2017-10-07T15:40:40Z</time>
      </trkpt>
      <trkpt lat="37.9074438382" lon="-2.9946439527">
        <ele>1030.67</ele>
        <time>2017-10-07T15:40:50Z</time>
      </trkpt>
      <trkpt lat="37.9073720053" lon="-2.9945035558">
        <ele>1031.63</ele>
        <time>2017-10-07T15:40:57Z</time>
      </trkpt>
      <trkpt lat="37.9073595162" lon="-2.9944863729">
        <ele>1031.15</ele>
        <time>2017-10-07T15:40:58Z</time>
      </trkpt>
      <trkpt lat="37.9073499609" lon="-2.9944647476">
        <ele>1031.63</ele>
        <time>2017-10-07T15:40:59Z</time>
      </trkpt>
      <trkpt lat="37.9073380586" lon="-2.9944418650">
        <ele>1031.63</ele>
        <time>2017-10-07T15:41:00Z</time>
      </trkpt>
      <trkpt lat="37.9073251504" lon="-2.9944179766">
        <ele>1031.63</ele>
        <time>2017-10-07T15:41:01Z</time>
      </trkpt>
      <trkpt lat="37.9073109850" lon="-2.9943948425">
        <ele>1032.11</ele>
        <time>2017-10-07T15:41:02Z</time>
      </trkpt>
      <trkpt lat="37.9072951432" lon="-2.9943704512">
        <ele>1032.11</ele>
        <time>2017-10-07T15:41:03Z</time>
      </trkpt>
      <trkpt lat="37.9072798882" lon="-2.9943432938">
        <ele>1032.11</ele>
        <time>2017-10-07T15:41:04Z</time>
      </trkpt>
      <trkpt lat="37.9071399942" lon="-2.9941844568">
        <ele>1033.55</ele>
        <time>2017-10-07T15:41:13Z</time>
      </trkpt>
      <trkpt lat="37.9070875235" lon="-2.9941128753">
        <ele>1033.55</ele>
        <time>2017-10-07T15:41:17Z</time>
      </trkpt>
      <trkpt lat="37.9069010261" lon="-2.9939423874">
        <ele>1035.48</ele>
        <time>2017-10-07T15:41:28Z</time>
      </trkpt>
      <trkpt lat="37.9068840947" lon="-2.9939279705">
        <ele>1035.48</ele>
        <time>2017-10-07T15:41:29Z</time>
      </trkpt>
      <trkpt lat="37.9068666603" lon="-2.9939122126">
        <ele>1035.48</ele>
        <time>2017-10-07T15:41:30Z</time>
      </trkpt>
      <trkpt lat="37.9068445321" lon="-2.9938993044">
        <ele>1035.48</ele>
        <time>2017-10-07T15:41:31Z</time>
      </trkpt>
      <trkpt lat="37.9068247508" lon="-2.9938871507">
        <ele>1035.96</ele>
        <time>2017-10-07T15:41:32Z</time>
      </trkpt>
      <trkpt lat="37.9068136029" lon="-2.9938758351">
        <ele>1035.96</ele>
        <time>2017-10-07T15:41:33Z</time>
      </trkpt>
      <trkpt lat="37.9066675901" lon="-2.9937754199">
        <ele>1036.44</ele>
        <time>2017-10-07T15:41:40Z</time>
      </trkpt>
      <trkpt lat="37.9064324778" lon="-2.9937791079">
        <ele>1037.40</ele>
        <time>2017-10-07T15:41:50Z</time>
      </trkpt>
      <trkpt lat="37.9062354192" lon="-2.9938340094">
        <ele>1037.88</ele>
        <time>2017-10-07T15:41:59Z</time>
      </trkpt>
      <trkpt lat="37.9060568847" lon="-2.9940540344">
        <ele>1038.36</ele>
        <time>2017-10-07T15:42:09Z</time>
      </trkpt>
      <trkpt lat="37.9058857262" lon="-2.9943417851">
        <ele>1038.36</ele>
        <time>2017-10-07T15:42:20Z</time>
      </trkpt>
      <trkpt lat="37.9056298267" lon="-2.9944877140">
        <ele>1038.36</ele>
        <time>2017-10-07T15:42:29Z</time>
      </trkpt>
      <trkpt lat="37.9053085484" lon="-2.9944981076">
        <ele>1039.32</ele>
        <time>2017-10-07T15:42:39Z</time>
      </trkpt>
      <trkpt lat="37.9050400760" lon="-2.9942948464">
        <ele>1040.28</ele>
        <time>2017-10-07T15:42:49Z</time>
      </trkpt>
      <trkpt lat="37.9049416725" lon="-2.9942289647">
        <ele>1040.76</ele>
        <time>2017-10-07T15:42:53Z</time>
      </trkpt>
      <trkpt lat="37.9045825917" lon="-2.9941058345">
        <ele>1041.25</ele>
        <time>2017-10-07T15:43:05Z</time>
      </trkpt>
      <trkpt lat="37.9044090025" lon="-2.9939086922">
        <ele>1042.69</ele>
        <time>2017-10-07T15:43:13Z</time>
      </trkpt>
      <trkpt lat="37.9043568671" lon="-2.9938498512">
        <ele>1043.65</ele>
        <time>2017-10-07T15:43:16Z</time>
      </trkpt>
      <trkpt lat="37.9042881355" lon="-2.9937418923">
        <ele>1044.61</ele>
        <time>2017-10-07T15:43:23Z</time>
      </trkpt>
      <trkpt lat="37.9042288754" lon="-2.9935902636">
        <ele>1046.53</ele>
        <time>2017-10-07T15:43:33Z</time>
      </trkpt>
      <trkpt lat="37.9041593894" lon="-2.9934391379">
        <ele>1047.97</ele>
        <time>2017-10-07T15:43:42Z</time>
      </trkpt>
      <trkpt lat="37.9040572140" lon="-2.9933811352">
        <ele>1050.86</ele>
        <time>2017-10-07T15:43:51Z</time>
      </trkpt>
      <trkpt lat="37.9039443936" lon="-2.9933458474">
        <ele>1050.86</ele>
        <time>2017-10-07T15:44:00Z</time>
      </trkpt>
      <trkpt lat="37.9038355127" lon="-2.9933123197">
        <ele>1051.82</ele>
        <time>2017-10-07T15:44:08Z</time>
      </trkpt>
      <trkpt lat="37.9036906734" lon="-2.9932803847">
        <ele>1053.26</ele>
        <time>2017-10-07T15:44:18Z</time>
      </trkpt>
      <trkpt lat="37.9035277292" lon="-2.9932542332">
        <ele>1053.74</ele>
        <time>2017-10-07T15:44:28Z</time>
      </trkpt>
      <trkpt lat="37.9034620989" lon="-2.9932575859">
        <ele>1054.22</ele>
        <time>2017-10-07T15:44:32Z</time>
      </trkpt>
      <trkpt lat="37.9033750948" lon="-2.9931886028">
        <ele>1054.22</ele>
        <time>2017-10-07T15:44:38Z</time>
      </trkpt>
      <trkpt lat="37.9032980651" lon="-2.9930104036">
        <ele>1054.70</ele>
        <time>2017-10-07T15:44:48Z</time>
      </trkpt>
      <trkpt lat="37.9031965602" lon="-2.9928134289">
        <ele>1055.67</ele>
        <time>2017-10-07T15:44:59Z</time>
      </trkpt>
      <trkpt lat="37.9031817243" lon="-2.9927981738">
        <ele>1056.15</ele>
        <time>2017-10-07T15:45:00Z</time>
      </trkpt>
      <trkpt lat="37.9031657148" lon="-2.9927649815">
        <ele>1056.15</ele>
        <time>2017-10-07T15:45:02Z</time>
      </trkpt>
      <trkpt lat="37.9030647967" lon="-2.9926620517">
        <ele>1057.59</ele>
        <time>2017-10-07T15:45:12Z</time>
      </trkpt>
      <trkpt lat="37.9029638786" lon="-2.9925835971">
        <ele>1058.55</ele>
        <time>2017-10-07T15:45:20Z</time>
      </trkpt>
      <trkpt lat="37.9028547462" lon="-2.9925148655">
        <ele>1059.51</ele>
        <time>2017-10-07T15:45:29Z</time>
      </trkpt>
      <trkpt lat="37.9027700052" lon="-2.9924786557">
        <ele>1060.47</ele>
        <time>2017-10-07T15:45:35Z</time>
      </trkpt>
      <trkpt lat="37.9026487190" lon="-2.9925218225">
        <ele>1061.43</ele>
        <time>2017-10-07T15:45:44Z</time>
      </trkpt>
      <trkpt lat="37.9025757965" lon="-2.9925806634">
        <ele>1062.39</ele>
        <time>2017-10-07T15:45:50Z</time>
      </trkpt>
      <trkpt lat="37.9025345575" lon="-2.9926105030">
        <ele>1062.87</ele>
        <time>2017-10-07T15:45:54Z</time>
      </trkpt>
      <trkpt lat="37.9024550971" lon="-2.9926584475">
        <ele>1063.84</ele>
        <time>2017-10-07T15:46:01Z</time>
      </trkpt>
      <trkpt lat="37.9023648240" lon="-2.9926882870">
        <ele>1064.32</ele>
        <time>2017-10-07T15:46:07Z</time>
      </trkpt>
      <trkpt lat="37.9023029655" lon="-2.9926885385">
        <ele>1065.28</ele>
        <time>2017-10-07T15:46:11Z</time>
      </trkpt>
      <trkpt lat="37.9022127762" lon="-2.9926831741">
        <ele>1065.76</ele>
        <time>2017-10-07T15:46:17Z</time>
      </trkpt>
      <trkpt lat="37.9020356666" lon="-2.9927220661">
        <ele>1066.72</ele>
        <time>2017-10-07T15:46:28Z</time>
      </trkpt>
      <trkpt lat="37.9019080102" lon="-2.9927809071">
        <ele>1068.64</ele>
        <time>2017-10-07T15:46:38Z</time>
      </trkpt>
      <trkpt lat="37.9018551204" lon="-2.9928098246">
        <ele>1069.12</ele>
        <time>2017-10-07T15:46:42Z</time>
      </trkpt>
      <trkpt lat="37.9017434735" lon="-2.9927856848">
        <ele>1071.05</ele>
        <time>2017-10-07T15:46:52Z</time>
      </trkpt>
      <trkpt lat="37.9016807768" lon="-2.9927669093">
        <ele>1071.53</ele>
        <time>2017-10-07T15:46:57Z</time>
      </trkpt>
      <trkpt lat="37.9016159009" lon="-2.9927423503">
        <ele>1072.49</ele>
        <time>2017-10-07T15:47:02Z</time>
      </trkpt>
      <trkpt lat="37.9015798587" lon="-2.9927296098">
        <ele>1073.45</ele>
        <time>2017-10-07T15:47:05Z</time>
      </trkpt>
      <trkpt lat="37.9015528690" lon="-2.9926753789">
        <ele>1073.93</ele>
        <time>2017-10-07T15:47:09Z</time>
      </trkpt>
      <trkpt lat="37.9015436489" lon="-2.9925219901">
        <ele>1074.41</ele>
        <time>2017-10-07T15:47:17Z</time>
      </trkpt>
      <trkpt lat="37.9015458282" lon="-2.9924689326">
        <ele>1074.41</ele>
        <time>2017-10-07T15:47:19Z</time>
      </trkpt>
      <trkpt lat="37.9015584011" lon="-2.9923875444">
        <ele>1074.41</ele>
        <time>2017-10-07T15:47:23Z</time>
      </trkpt>
      <trkpt lat="37.9014171660" lon="-2.9921522643">
        <ele>1073.45</ele>
        <time>2017-10-07T15:47:32Z</time>
      </trkpt>
      <trkpt lat="37.9013645276" lon="-2.9920572974">
        <ele>1072.49</ele>
        <time>2017-10-07T15:47:34Z</time>
      </trkpt>
      <trkpt lat="37.9013421480" lon="-2.9920061678">
        <ele>1072.49</ele>
        <time>2017-10-07T15:47:35Z</time>
      </trkpt>
      <trkpt lat="37.9013206065" lon="-2.9919519369">
        <ele>1072.01</ele>
        <time>2017-10-07T15:47:36Z</time>
      </trkpt>
      <trkpt lat="37.9012900963" lon="-2.9918968678">
        <ele>1071.53</ele>
        <time>2017-10-07T15:47:37Z</time>
      </trkpt>
      <trkpt lat="37.9012469295" lon="-2.9918467440">
        <ele>1071.05</ele>
        <time>2017-10-07T15:47:38Z</time>
      </trkpt>
      <trkpt lat="37.9011935368" lon="-2.9917971231">
        <ele>1070.57</ele>
        <time>2017-10-07T15:47:39Z</time>
      </trkpt>
      <trkpt lat="37.9010764416" lon="-2.9916904215">
        <ele>1069.12</ele>
        <time>2017-10-07T15:47:41Z</time>
      </trkpt>
      <trkpt lat="37.9010208696" lon="-2.9916268867">
        <ele>1068.16</ele>
        <time>2017-10-07T15:47:42Z</time>
      </trkpt>
      <trkpt lat="37.9008637927" lon="-2.9913801234">
        <ele>1065.28</ele>
        <time>2017-10-07T15:47:46Z</time>
      </trkpt>
      <trkpt lat="37.9008483700" lon="-2.9913004953">
        <ele>1065.28</ele>
        <time>2017-10-07T15:47:47Z</time>
      </trkpt>
      <trkpt lat="37.9008507170" lon="-2.9912242200">
        <ele>1064.80</ele>
        <time>2017-10-07T15:47:48Z</time>
      </trkpt>
      <trkpt lat="37.9008592665" lon="-2.9911572486">
        <ele>1064.80</ele>
        <time>2017-10-07T15:47:49Z</time>
      </trkpt>
      <trkpt lat="37.9008707497" lon="-2.9910979886">
        <ele>1064.32</ele>
        <time>2017-10-07T15:47:50Z</time>
      </trkpt>
      <trkpt lat="37.9008830711" lon="-2.9910403211">
        <ele>1065.28</ele>
        <time>2017-10-07T15:47:51Z</time>
      </trkpt>
      <trkpt lat="37.9009043612" lon="-2.9909108207">
        <ele>1064.32</ele>
        <time>2017-10-07T15:47:53Z</time>
      </trkpt>
      <trkpt lat="37.9009049479" lon="-2.9908446036">
        <ele>1063.84</ele>
        <time>2017-10-07T15:47:54Z</time>
      </trkpt>
      <trkpt lat="37.9008999187" lon="-2.9907853436">
        <ele>1063.84</ele>
        <time>2017-10-07T15:47:55Z</time>
      </trkpt>
      <trkpt lat="37.9008846637" lon="-2.9907365609">
        <ele>1063.84</ele>
        <time>2017-10-07T15:47:56Z</time>
      </trkpt>
      <trkpt lat="37.9008540697" lon="-2.9906932265">
        <ele>1063.84</ele>
        <time>2017-10-07T15:47:57Z</time>
      </trkpt>
      <trkpt lat="37.9008226376" lon="-2.9906499758">
        <ele>1063.84</ele>
        <time>2017-10-07T15:47:58Z</time>
      </trkpt>
      <trkpt lat="37.9008033592" lon="-2.9906099942">
        <ele>1063.36</ele>
        <time>2017-10-07T15:47:59Z</time>
      </trkpt>
      <trkpt lat="37.9007917922" lon="-2.9905814119">
        <ele>1063.36</ele>
        <time>2017-10-07T15:48:00Z</time>
      </trkpt>
      <trkpt lat="37.9007790517" lon="-2.9905561823">
        <ele>1063.36</ele>
        <time>2017-10-07T15:48:01Z</time>
      </trkpt>
      <trkpt lat="37.9006863479" lon="-2.9903485626">
        <ele>1063.36</ele>
        <time>2017-10-07T15:48:08Z</time>
      </trkpt>
      <trkpt lat="37.9006155208" lon="-2.9902017117">
        <ele>1063.36</ele>
        <time>2017-10-07T15:48:13Z</time>
      </trkpt>
      <trkpt lat="37.9005992599" lon="-2.9901842773">
        <ele>1063.36</ele>
        <time>2017-10-07T15:48:14Z</time>
      </trkpt>
      <trkpt lat="37.9005841725" lon="-2.9901617300">
        <ele>1063.36</ele>
        <time>2017-10-07T15:48:15Z</time>
      </trkpt>
      <trkpt lat="37.9005684145" lon="-2.9901420325">
        <ele>1063.84</ele>
        <time>2017-10-07T15:48:16Z</time>
      </trkpt>
      <trkpt lat="37.9005560931" lon="-2.9901283700">
        <ele>1063.36</ele>
        <time>2017-10-07T15:48:17Z</time>
      </trkpt>
      <trkpt lat="37.9004315380" lon="-2.9900118615">
        <ele>1063.84</ele>
        <time>2017-10-07T15:48:21Z</time>
      </trkpt>
      <trkpt lat="37.9002763890" lon="-2.9899045732">
        <ele>1064.80</ele>
        <time>2017-10-07T15:48:27Z</time>
      </trkpt>
      <trkpt lat="37.9002517462" lon="-2.9898769129">
        <ele>1065.28</ele>
        <time>2017-10-07T15:48:29Z</time>
      </trkpt>
      <trkpt lat="37.9001479782" lon="-2.9898236040">
        <ele>1065.76</ele>
        <time>2017-10-07T15:48:35Z</time>
      </trkpt>
      <trkpt lat="37.8999508359" lon="-2.9897362646">
        <ele>1067.20</ele>
        <time>2017-10-07T15:48:45Z</time>
      </trkpt>
      <trkpt lat="37.8998344950" lon="-2.9896945227">
        <ele>1067.68</ele>
        <time>2017-10-07T15:48:52Z</time>
      </trkpt>
      <trkpt lat="37.8996762447" lon="-2.9895932693">
        <ele>1068.16</ele>
        <time>2017-10-07T15:48:59Z</time>
      </trkpt>
      <trkpt lat="37.8993641026" lon="-2.9892902635">
        <ele>1067.20</ele>
        <time>2017-10-07T15:49:08Z</time>
      </trkpt>
      <trkpt lat="37.8992895037" lon="-2.9892248847">
        <ele>1067.68</ele>
        <time>2017-10-07T15:49:10Z</time>
      </trkpt>
      <trkpt lat="37.8992466722" lon="-2.9892002419">
        <ele>1067.68</ele>
        <time>2017-10-07T15:49:11Z</time>
      </trkpt>
      <trkpt lat="37.8992002364" lon="-2.9891818017">
        <ele>1067.68</ele>
        <time>2017-10-07T15:49:12Z</time>
      </trkpt>
      <trkpt lat="37.8991517052" lon="-2.9891654570">
        <ele>1067.20</ele>
        <time>2017-10-07T15:49:13Z</time>
      </trkpt>
      <trkpt lat="37.8991035093" lon="-2.9891494475">
        <ele>1067.20</ele>
        <time>2017-10-07T15:49:14Z</time>
      </trkpt>
      <trkpt lat="37.8990590014" lon="-2.9891316779">
        <ele>1067.20</ele>
        <time>2017-10-07T15:49:15Z</time>
      </trkpt>
      <trkpt lat="37.8990161698" lon="-2.9891126510">
        <ele>1067.20</ele>
        <time>2017-10-07T15:49:16Z</time>
      </trkpt>
      <trkpt lat="37.8989740089" lon="-2.9890915286">
        <ele>1067.20</ele>
        <time>2017-10-07T15:49:17Z</time>
      </trkpt>
      <trkpt lat="37.8989332728" lon="-2.9890649579">
        <ele>1067.20</ele>
        <time>2017-10-07T15:49:18Z</time>
      </trkpt>
      <trkpt lat="37.8988984041" lon="-2.9890324362">
        <ele>1067.20</ele>
        <time>2017-10-07T15:49:19Z</time>
      </trkpt>
      <trkpt lat="37.8988700733" lon="-2.9889921192">
        <ele>1067.20</ele>
        <time>2017-10-07T15:49:20Z</time>
      </trkpt>
      <trkpt lat="37.8988409042" lon="-2.9889549874">
        <ele>1067.20</ele>
        <time>2017-10-07T15:49:21Z</time>
      </trkpt>
      <trkpt lat="37.8988117352" lon="-2.9889186937">
        <ele>1067.20</ele>
        <time>2017-10-07T15:49:22Z</time>
      </trkpt>
      <trkpt lat="37.8987851646" lon="-2.9888777062">
        <ele>1067.20</ele>
        <time>2017-10-07T15:49:23Z</time>
      </trkpt>
      <trkpt lat="37.8987572528" lon="-2.9888361320">
        <ele>1066.72</ele>
        <time>2017-10-07T15:49:24Z</time>
      </trkpt>
      <trkpt lat="37.8987288382" lon="-2.9887969885">
        <ele>1066.72</ele>
        <time>2017-10-07T15:49:25Z</time>
      </trkpt>
      <trkpt lat="37.8986980766" lon="-2.9887615331">
        <ele>1067.20</ele>
        <time>2017-10-07T15:49:26Z</time>
      </trkpt>
      <trkpt lat="37.8983803187" lon="-2.9885073937">
        <ele>1066.72</ele>
        <time>2017-10-07T15:49:36Z</time>
      </trkpt>
      <trkpt lat="37.8981783986" lon="-2.9883258417">
        <ele>1066.72</ele>
        <time>2017-10-07T15:49:44Z</time>
      </trkpt>
      <trkpt lat="37.8979535121" lon="-2.9881007038">
        <ele>1066.24</ele>
        <time>2017-10-07T15:49:54Z</time>
      </trkpt>
      <trkpt lat="37.8978048172" lon="-2.9880204052">
        <ele>1066.24</ele>
        <time>2017-10-07T15:50:01Z</time>
      </trkpt>
      <trkpt lat="37.8976411186" lon="-2.9881587904">
        <ele>1066.72</ele>
        <time>2017-10-07T15:50:08Z</time>
      </trkpt>
      <trkpt lat="37.8975174855" lon="-2.9883381631">
        <ele>1067.68</ele>
        <time>2017-10-07T15:50:17Z</time>
      </trkpt>
      <trkpt lat="37.8975199163" lon="-2.9883509874">
        <ele>1067.68</ele>
        <time>2017-10-07T15:50:21Z</time>
      </trkpt>
      <trkpt lat="37.8975231014" lon="-2.9883640632">
        <ele>1067.68</ele>
        <time>2017-10-07T15:50:22Z</time>
      </trkpt>
      <trkpt lat="37.8975225147" lon="-2.9883820843">
        <ele>1068.16</ele>
        <time>2017-10-07T15:50:31Z</time>
      </trkpt>
      <trkpt lat="37.8975184076" lon="-2.9883856047">
        <ele>1068.16</ele>
        <time>2017-10-07T15:50:52Z</time>
      </trkpt>
      <trkpt lat="37.8975137975" lon="-2.9883886222">
        <ele>1068.16</ele>
        <time>2017-10-07T15:51:18Z</time>
      </trkpt>
      <trkpt lat="37.8975085169" lon="-2.9883706849">
        <ele>1068.16</ele>
        <time>2017-10-07T15:51:40Z</time>
      </trkpt>
      <trkpt lat="37.8975092713" lon="-2.9883690085">
        <ele>1068.16</ele>
        <time>2017-10-07T15:51:55Z</time>
      </trkpt>
      <trkpt lat="37.8975098580" lon="-2.9883701820">
        <ele>1068.16</ele>
        <time>2017-10-07T15:52:04Z</time>
      </trkpt>
      <trkpt lat="37.8975061700" lon="-2.9883831739">
        <ele>1068.16</ele>
        <time>2017-10-07T15:52:05Z</time>
      </trkpt>
      <trkpt lat="37.8974992130" lon="-2.9884001892">
        <ele>1068.64</ele>
        <time>2017-10-07T15:52:06Z</time>
      </trkpt>
      <trkpt lat="37.8974642605" lon="-2.9886260815">
        <ele>1069.60</ele>
        <time>2017-10-07T15:52:15Z</time>
      </trkpt>
      <trkpt lat="37.8974290565" lon="-2.9888860043">
        <ele>1070.57</ele>
        <time>2017-10-07T15:52:23Z</time>
      </trkpt>
      <trkpt lat="37.8974243626" lon="-2.9891558178">
        <ele>1072.01</ele>
        <time>2017-10-07T15:52:31Z</time>
      </trkpt>
      <trkpt lat="37.8974573873" lon="-2.9893486854">
        <ele>1072.97</ele>
        <time>2017-10-07T15:52:37Z</time>
      </trkpt>
      <trkpt lat="37.8974660207" lon="-2.9893723223">
        <ele>1073.45</ele>
        <time>2017-10-07T15:52:38Z</time>
      </trkpt>
      <trkpt lat="37.8974721394" lon="-2.9893959593">
        <ele>1073.45</ele>
        <time>2017-10-07T15:52:39Z</time>
      </trkpt>
      <trkpt lat="37.8974754084" lon="-2.9894172493">
        <ele>1073.45</ele>
        <time>2017-10-07T15:52:40Z</time>
      </trkpt>
      <trkpt lat="37.8975051641" lon="-2.9895435646">
        <ele>1074.41</ele>
        <time>2017-10-07T15:52:46Z</time>
      </trkpt>
      <trkpt lat="37.8975034878" lon="-2.9896225221">
        <ele>1074.41</ele>
        <time>2017-10-07T15:52:49Z</time>
      </trkpt>
      <trkpt lat="37.8975008894" lon="-2.9896492604">
        <ele>1074.89</ele>
        <time>2017-10-07T15:52:50Z</time>
      </trkpt>
      <trkpt lat="37.8974952735" lon="-2.9897354264">
        <ele>1075.37</ele>
        <time>2017-10-07T15:52:54Z</time>
      </trkpt>
      <trkpt lat="37.8974927589" lon="-2.9897563811">
        <ele>1075.37</ele>
        <time>2017-10-07T15:52:55Z</time>
      </trkpt>
      <trkpt lat="37.8975097742" lon="-2.9898308124">
        <ele>1075.37</ele>
        <time>2017-10-07T15:53:05Z</time>
      </trkpt>
      <trkpt lat="37.8975137975" lon="-2.9898909945">
        <ele>1075.85</ele>
        <time>2017-10-07T15:53:13Z</time>
      </trkpt>
      <trkpt lat="37.8975066729" lon="-2.9899132904">
        <ele>1075.85</ele>
        <time>2017-10-07T15:53:14Z</time>
      </trkpt>
      <trkpt lat="37.8974992130" lon="-2.9899475724">
        <ele>1075.85</ele>
        <time>2017-10-07T15:53:15Z</time>
      </trkpt>
      <trkpt lat="37.8974060901" lon="-2.9902641568">
        <ele>1077.29</ele>
        <time>2017-10-07T15:53:26Z</time>
      </trkpt>
      <trkpt lat="37.8973113745" lon="-2.9905566853">
        <ele>1078.74</ele>
        <time>2017-10-07T15:53:37Z</time>
      </trkpt>
      <trkpt lat="37.8972463310" lon="-2.9907135107">
        <ele>1080.18</ele>
        <time>2017-10-07T15:53:44Z</time>
      </trkpt>
      <trkpt lat="37.8972365241" lon="-2.9907399975">
        <ele>1080.18</ele>
        <time>2017-10-07T15:53:45Z</time>
      </trkpt>
      <trkpt lat="37.8972273879" lon="-2.9907622095">
        <ele>1080.18</ele>
        <time>2017-10-07T15:53:46Z</time>
      </trkpt>
      <trkpt lat="37.8972170781" lon="-2.9907838348">
        <ele>1080.66</ele>
        <time>2017-10-07T15:53:47Z</time>
      </trkpt>
      <trkpt lat="37.8972056787" lon="-2.9908057954">
        <ele>1080.66</ele>
        <time>2017-10-07T15:53:48Z</time>
      </trkpt>
      <trkpt lat="37.8970768489" lon="-2.9909941368">
        <ele>1082.58</ele>
        <time>2017-10-07T15:53:58Z</time>
      </trkpt>
      <trkpt lat="37.8970145714" lon="-2.9910975695">
        <ele>1083.06</ele>
        <time>2017-10-07T15:54:04Z</time>
      </trkpt>
      <trkpt lat="37.8970050998" lon="-2.9911154229">
        <ele>1083.54</ele>
        <time>2017-10-07T15:54:05Z</time>
      </trkpt>
      <trkpt lat="37.8969848156" lon="-2.9911469389">
        <ele>1083.54</ele>
        <time>2017-10-07T15:54:07Z</time>
      </trkpt>
      <trkpt lat="37.8969423193" lon="-2.9912914429">
        <ele>1084.50</ele>
        <time>2017-10-07T15:54:14Z</time>
      </trkpt>
      <trkpt lat="37.8969352785" lon="-2.9913190193">
        <ele>1084.50</ele>
        <time>2017-10-07T15:54:15Z</time>
      </trkpt>
      <trkpt lat="37.8969302494" lon="-2.9913419019">
        <ele>1084.99</ele>
        <time>2017-10-07T15:54:16Z</time>
      </trkpt>
      <trkpt lat="37.8969258908" lon="-2.9913626052">
        <ele>1085.47</ele>
        <time>2017-10-07T15:54:17Z</time>
      </trkpt>
      <trkpt lat="37.8969230410" lon="-2.9913809616">
        <ele>1085.47</ele>
        <time>2017-10-07T15:54:18Z</time>
      </trkpt>
      <trkpt lat="37.8969195206" lon="-2.9914029222">
        <ele>1085.47</ele>
        <time>2017-10-07T15:54:19Z</time>
      </trkpt>
      <trkpt lat="37.8969424870" lon="-2.9915239569">
        <ele>1086.43</ele>
        <time>2017-10-07T15:54:24Z</time>
      </trkpt>
      <trkpt lat="37.8969515394" lon="-2.9915479291">
        <ele>1086.43</ele>
        <time>2017-10-07T15:54:25Z</time>
      </trkpt>
      <trkpt lat="37.8969624359" lon="-2.9915727396">
        <ele>1086.91</ele>
        <time>2017-10-07T15:54:26Z</time>
      </trkpt>
      <trkpt lat="37.8969698120" lon="-2.9915938620">
        <ele>1086.91</ele>
        <time>2017-10-07T15:54:27Z</time>
      </trkpt>
      <trkpt lat="37.8969727457" lon="-2.9916104581">
        <ele>1086.91</ele>
        <time>2017-10-07T15:54:28Z</time>
      </trkpt>
      <trkpt lat="37.8969559819" lon="-2.9916769266">
        <ele>1087.39</ele>
        <time>2017-10-07T15:54:33Z</time>
      </trkpt>
      <trkpt lat="37.8969579097" lon="-2.9916983843">
        <ele>1087.87</ele>
        <time>2017-10-07T15:54:34Z</time>
      </trkpt>
      <trkpt lat="37.8969686385" lon="-2.9917195067">
        <ele>1087.87</ele>
        <time>2017-10-07T15:54:35Z</time>
      </trkpt>
      <trkpt lat="37.8969942033" lon="-2.9918190837">
        <ele>1088.35</ele>
        <time>2017-10-07T15:54:39Z</time>
      </trkpt>
      <trkpt lat="37.8969860729" lon="-2.9918781761">
        <ele>1088.83</ele>
        <time>2017-10-07T15:54:42Z</time>
      </trkpt>
      <trkpt lat="37.8969868273" lon="-2.9919004720">
        <ele>1088.83</ele>
        <time>2017-10-07T15:54:43Z</time>
      </trkpt>
      <trkpt lat="37.8969832230" lon="-2.9920490831">
        <ele>1089.79</ele>
        <time>2017-10-07T15:54:50Z</time>
      </trkpt>
      <trkpt lat="37.8969763499" lon="-2.9920699541">
        <ele>1089.79</ele>
        <time>2017-10-07T15:54:51Z</time>
      </trkpt>
      <trkpt lat="37.8969700634" lon="-2.9921111930">
        <ele>1086.43</ele>
        <time>2017-10-07T15:54:53Z</time>
      </trkpt>
      <trkpt lat="37.8969663754" lon="-2.9921317287">
        <ele>1092.68</ele>
        <time>2017-10-07T15:54:54Z</time>
      </trkpt>
      <trkpt lat="37.8969475161" lon="-2.9921800084">
        <ele>1089.31</ele>
        <time>2017-10-07T15:54:57Z</time>
      </trkpt>
      <trkpt lat="37.8969330993" lon="-2.9922518414">
        <ele>1094.12</ele>
        <time>2017-10-07T15:55:01Z</time>
      </trkpt>
      <trkpt lat="37.8969241306" lon="-2.9923783243">
        <ele>1092.20</ele>
        <time>2017-10-07T15:55:07Z</time>
      </trkpt>
      <trkpt lat="37.8969273996" lon="-2.9924001172">
        <ele>1092.20</ele>
        <time>2017-10-07T15:55:08Z</time>
      </trkpt>
      <trkpt lat="37.8969279863" lon="-2.9924242571">
        <ele>1092.20</ele>
        <time>2017-10-07T15:55:09Z</time>
      </trkpt>
      <trkpt lat="37.8969245497" lon="-2.9924490675">
        <ele>1092.20</ele>
        <time>2017-10-07T15:55:10Z</time>
      </trkpt>
      <trkpt lat="37.8969253879" lon="-2.9924730398">
        <ele>1092.20</ele>
        <time>2017-10-07T15:55:11Z</time>
      </trkpt>
      <trkpt lat="37.8969264776" lon="-2.9924936593">
        <ele>1092.68</ele>
        <time>2017-10-07T15:55:12Z</time>
      </trkpt>
      <trkpt lat="37.8969196882" lon="-2.9925114289">
        <ele>1092.68</ele>
        <time>2017-10-07T15:55:13Z</time>
      </trkpt>
      <trkpt lat="37.8969151620" lon="-2.9925276060">
        <ele>1093.16</ele>
        <time>2017-10-07T15:55:14Z</time>
      </trkpt>
      <trkpt lat="37.8969164193" lon="-2.9925488122">
        <ele>1093.16</ele>
        <time>2017-10-07T15:55:15Z</time>
      </trkpt>
      <trkpt lat="37.8969196882" lon="-2.9925731197">
        <ele>1093.16</ele>
        <time>2017-10-07T15:55:16Z</time>
      </trkpt>
      <trkpt lat="37.8969172575" lon="-2.9925984330">
        <ele>1093.16</ele>
        <time>2017-10-07T15:55:17Z</time>
      </trkpt>
      <trkpt lat="37.8969152458" lon="-2.9926230758">
        <ele>1093.64</ele>
        <time>2017-10-07T15:55:18Z</time>
      </trkpt>
      <trkpt lat="37.8969123960" lon="-2.9926474672">
        <ele>1093.64</ele>
        <time>2017-10-07T15:55:19Z</time>
      </trkpt>
      <trkpt lat="37.8969108034" lon="-2.9926722776">
        <ele>1093.64</ele>
        <time>2017-10-07T15:55:20Z</time>
      </trkpt>
      <trkpt lat="37.8969127312" lon="-2.9926969204">
        <ele>1094.12</ele>
        <time>2017-10-07T15:55:21Z</time>
      </trkpt>
      <trkpt lat="37.8969143238" lon="-2.9927187134">
        <ele>1094.12</ele>
        <time>2017-10-07T15:55:22Z</time>
      </trkpt>
      <trkpt lat="37.8969165869" lon="-2.9927391652">
        <ele>1093.16</ele>
        <time>2017-10-07T15:55:23Z</time>
      </trkpt>
      <trkpt lat="37.8969151620" lon="-2.9927572701">
        <ele>1095.08</ele>
        <time>2017-10-07T15:55:24Z</time>
      </trkpt>
      <trkpt lat="37.8969064448" lon="-2.9927751236">
        <ele>1094.60</ele>
        <time>2017-10-07T15:55:25Z</time>
      </trkpt>
      <trkpt lat="37.8969015833" lon="-2.9927933961">
        <ele>1094.60</ele>
        <time>2017-10-07T15:55:26Z</time>
      </trkpt>
      <trkpt lat="37.8968969733" lon="-2.9928163625">
        <ele>1094.60</ele>
        <time>2017-10-07T15:55:27Z</time>
      </trkpt>
      <trkpt lat="37.8968885075" lon="-2.9928404186">
        <ele>1095.08</ele>
        <time>2017-10-07T15:55:28Z</time>
      </trkpt>
      <trkpt lat="37.8968829755" lon="-2.9928642232">
        <ele>1095.08</ele>
        <time>2017-10-07T15:55:29Z</time>
      </trkpt>
      <trkpt lat="37.8968772758" lon="-2.9928933922">
        <ele>1095.56</ele>
        <time>2017-10-07T15:55:30Z</time>
      </trkpt>
      <trkpt lat="37.8968732525" lon="-2.9929151013">
        <ele>1095.08</ele>
        <time>2017-10-07T15:55:31Z</time>
      </trkpt>
      <trkpt lat="37.8968694806" lon="-2.9929389898">
        <ele>1095.56</ele>
        <time>2017-10-07T15:55:32Z</time>
      </trkpt>
      <trkpt lat="37.8968666308" lon="-2.9929620400">
        <ele>1095.56</ele>
        <time>2017-10-07T15:55:33Z</time>
      </trkpt>
      <trkpt lat="37.8968657088" lon="-2.9929866828">
        <ele>1096.04</ele>
        <time>2017-10-07T15:55:34Z</time>
      </trkpt>
      <trkpt lat="37.8968610149" lon="-2.9930124152">
        <ele>1096.04</ele>
        <time>2017-10-07T15:55:35Z</time>
      </trkpt>
      <trkpt lat="37.8968529683" lon="-2.9930350464">
        <ele>1096.04</ele>
        <time>2017-10-07T15:55:36Z</time>
      </trkpt>
      <trkpt lat="37.8967816383" lon="-2.9932438396">
        <ele>1097.96</ele>
        <time>2017-10-07T15:55:46Z</time>
      </trkpt>
      <trkpt lat="37.8966715001" lon="-2.9934055265">
        <ele>1099.89</ele>
        <time>2017-10-07T15:55:56Z</time>
      </trkpt>
      <trkpt lat="37.8966573346" lon="-2.9934111424">
        <ele>1099.89</ele>
        <time>2017-10-07T15:55:57Z</time>
      </trkpt>
      <trkpt lat="37.8966439236" lon="-2.9934155848">
        <ele>1099.89</ele>
        <time>2017-10-07T15:55:58Z</time>
      </trkpt>
      <trkpt lat="37.8966275789" lon="-2.9934215359">
        <ele>1099.89</ele>
        <time>2017-10-07T15:55:59Z</time>
      </trkpt>
      <trkpt lat="37.8966129106" lon="-2.9934219550">
        <ele>1100.37</ele>
        <time>2017-10-07T15:56:00Z</time>
      </trkpt>
      <trkpt lat="37.8966027685" lon="-2.9934206139">
        <ele>1100.37</ele>
        <time>2017-10-07T15:56:01Z</time>
      </trkpt>
      <trkpt lat="37.8965906147" lon="-2.9934165068">
        <ele>1100.37</ele>
        <time>2017-10-07T15:56:02Z</time>
      </trkpt>
      <trkpt lat="37.8965730127" lon="-2.9934129026">
        <ele>1099.89</ele>
        <time>2017-10-07T15:56:03Z</time>
      </trkpt>
      <trkpt lat="37.8965563327" lon="-2.9934096336">
        <ele>1100.37</ele>
        <time>2017-10-07T15:56:04Z</time>
      </trkpt>
      <trkpt lat="37.8965402395" lon="-2.9934006650">
        <ele>1101.33</ele>
        <time>2017-10-07T15:56:05Z</time>
      </trkpt>
      <trkpt lat="37.8965253197" lon="-2.9933947977">
        <ele>1100.85</ele>
        <time>2017-10-07T15:56:06Z</time>
      </trkpt>
      <trkpt lat="37.8965137526" lon="-2.9933942109">
        <ele>1100.85</ele>
        <time>2017-10-07T15:56:07Z</time>
      </trkpt>
      <trkpt lat="37.8965010121" lon="-2.9933905229">
        <ele>1101.33</ele>
        <time>2017-10-07T15:56:08Z</time>
      </trkpt>
      <trkpt lat="37.8964842483" lon="-2.9933870863">
        <ele>1101.33</ele>
        <time>2017-10-07T15:56:09Z</time>
      </trkpt>
      <trkpt lat="37.8964684904" lon="-2.9933788721">
        <ele>1101.33</ele>
        <time>2017-10-07T15:56:10Z</time>
      </trkpt>
      <trkpt lat="37.8964518104" lon="-2.9933687299">
        <ele>1101.33</ele>
        <time>2017-10-07T15:56:11Z</time>
      </trkpt>
      <trkpt lat="37.8964415006" lon="-2.9933594260">
        <ele>1101.81</ele>
        <time>2017-10-07T15:56:12Z</time>
      </trkpt>
      <trkpt lat="37.8963336255" lon="-2.9932993278">
        <ele>1102.77</ele>
        <time>2017-10-07T15:56:20Z</time>
      </trkpt>
      <trkpt lat="37.8963202145" lon="-2.9932972323">
        <ele>1102.77</ele>
        <time>2017-10-07T15:56:21Z</time>
      </trkpt>
      <trkpt lat="37.8962268401" lon="-2.9932272434">
        <ele>1103.73</ele>
        <time>2017-10-07T15:56:30Z</time>
      </trkpt>
      <trkpt lat="37.8962150216" lon="-2.9932247289">
        <ele>1103.73</ele>
        <time>2017-10-07T15:56:31Z</time>
      </trkpt>
      <trkpt lat="37.8961997665" lon="-2.9932181910">
        <ele>1104.21</ele>
        <time>2017-10-07T15:56:32Z</time>
      </trkpt>
      <trkpt lat="37.8961839247" lon="-2.9932118207">
        <ele>1104.21</ele>
        <time>2017-10-07T15:56:33Z</time>
      </trkpt>
      <trkpt lat="37.8961687535" lon="-2.9932054505">
        <ele>1104.21</ele>
        <time>2017-10-07T15:56:34Z</time>
      </trkpt>
      <trkpt lat="37.8961551748" lon="-2.9931989126">
        <ele>1104.69</ele>
        <time>2017-10-07T15:56:35Z</time>
      </trkpt>
      <trkpt lat="37.8960597049" lon="-2.9931431729">
        <ele>1105.17</ele>
        <time>2017-10-07T15:56:41Z</time>
      </trkpt>
      <trkpt lat="37.8960178792" lon="-2.9931380600">
        <ele>1105.65</ele>
        <time>2017-10-07T15:56:44Z</time>
      </trkpt>
      <trkpt lat="37.8960006125" lon="-2.9931428377">
        <ele>1106.13</ele>
        <time>2017-10-07T15:56:45Z</time>
      </trkpt>
      <trkpt lat="37.8959882911" lon="-2.9931438435">
        <ele>1106.13</ele>
        <time>2017-10-07T15:56:46Z</time>
      </trkpt>
      <trkpt lat="37.8959585354" lon="-2.9931435082">
        <ele>1106.61</ele>
        <time>2017-10-07T15:56:48Z</time>
      </trkpt>
      <trkpt lat="37.8959412687" lon="-2.9931429215">
        <ele>1106.61</ele>
        <time>2017-10-07T15:56:49Z</time>
      </trkpt>
      <trkpt lat="37.8959255945" lon="-2.9931383114">
        <ele>1106.61</ele>
        <time>2017-10-07T15:56:50Z</time>
      </trkpt>
      <trkpt lat="37.8958409373" lon="-2.9931688216">
        <ele>1107.10</ele>
        <time>2017-10-07T15:56:56Z</time>
      </trkpt>
      <trkpt lat="37.8957577888" lon="-2.9931299295">
        <ele>1108.06</ele>
        <time>2017-10-07T15:57:01Z</time>
      </trkpt>
      <trkpt lat="37.8957428690" lon="-2.9931205418">
        <ele>1108.06</ele>
        <time>2017-10-07T15:57:02Z</time>
      </trkpt>
      <trkpt lat="37.8956936672" lon="-2.9930922948">
        <ele>1108.54</ele>
        <time>2017-10-07T15:57:05Z</time>
      </trkpt>
      <trkpt lat="37.8956787474" lon="-2.9930830747">
        <ele>1109.02</ele>
        <time>2017-10-07T15:57:06Z</time>
      </trkpt>
      <trkpt lat="37.8956387658" lon="-2.9930652212">
        <ele>1109.02</ele>
        <time>2017-10-07T15:57:09Z</time>
      </trkpt>
      <trkpt lat="37.8955949284" lon="-2.9930463620">
        <ele>1109.50</ele>
        <time>2017-10-07T15:57:12Z</time>
      </trkpt>
      <trkpt lat="37.8955740575" lon="-2.9930284247">
        <ele>1109.98</ele>
        <time>2017-10-07T15:57:13Z</time>
      </trkpt>
      <trkpt lat="37.8955289628" lon="-2.9929684103">
        <ele>1110.46</ele>
        <time>2017-10-07T15:57:16Z</time>
      </trkpt>
      <trkpt lat="37.8955186531" lon="-2.9929502215">
        <ele>1110.46</ele>
        <time>2017-10-07T15:57:17Z</time>
      </trkpt>
      <trkpt lat="37.8955047391" lon="-2.9929303564">
        <ele>1110.46</ele>
        <time>2017-10-07T15:57:18Z</time>
      </trkpt>
      <trkpt lat="37.8954961058" lon="-2.9929145146">
        <ele>1110.46</ele>
        <time>2017-10-07T15:57:19Z</time>
      </trkpt>
      <trkpt lat="37.8954812698" lon="-2.9929023609">
        <ele>1110.46</ele>
        <time>2017-10-07T15:57:20Z</time>
      </trkpt>
      <trkpt lat="37.8954645060" lon="-2.9928906262">
        <ele>1110.94</ele>
        <time>2017-10-07T15:57:21Z</time>
      </trkpt>
      <trkpt lat="37.8954394441" lon="-2.9928676598">
        <ele>1110.94</ele>
        <time>2017-10-07T15:57:23Z</time>
      </trkpt>
      <trkpt lat="37.8954205010" lon="-2.9928594455">
        <ele>1110.94</ele>
        <time>2017-10-07T15:57:24Z</time>
      </trkpt>
      <trkpt lat="37.8953830339" lon="-2.9928406700">
        <ele>1111.42</ele>
        <time>2017-10-07T15:57:26Z</time>
      </trkpt>
      <trkpt lat="37.8953685332" lon="-2.9928292707">
        <ele>1111.42</ele>
        <time>2017-10-07T15:57:27Z</time>
      </trkpt>
      <trkpt lat="37.8953547869" lon="-2.9928224813">
        <ele>1111.90</ele>
        <time>2017-10-07T15:57:28Z</time>
      </trkpt>
      <trkpt lat="37.8953378554" lon="-2.9928177875">
        <ele>1111.90</ele>
        <time>2017-10-07T15:57:29Z</time>
      </trkpt>
      <trkpt lat="37.8953251988" lon="-2.9928099085">
        <ele>1111.90</ele>
        <time>2017-10-07T15:57:30Z</time>
      </trkpt>
      <trkpt lat="37.8951760009" lon="-2.9927745368">
        <ele>1113.34</ele>
        <time>2017-10-07T15:57:39Z</time>
      </trkpt>
      <trkpt lat="37.8950691316" lon="-2.9927934799">
        <ele>1114.79</ele>
        <time>2017-10-07T15:57:47Z</time>
      </trkpt>
      <trkpt lat="37.8948883340" lon="-2.9928140994">
        <ele>1116.23</ele>
        <time>2017-10-07T15:57:57Z</time>
      </trkpt>
      <trkpt lat="37.8948750906" lon="-2.9928134289">
        <ele>1116.23</ele>
        <time>2017-10-07T15:57:58Z</time>
      </trkpt>
      <trkpt lat="37.8948354442" lon="-2.9928034544">
        <ele>1116.71</ele>
        <time>2017-10-07T15:58:01Z</time>
      </trkpt>
      <trkpt lat="37.8947084583" lon="-2.9927669931">
        <ele>1117.67</ele>
        <time>2017-10-07T15:58:10Z</time>
      </trkpt>
      <trkpt lat="37.8945499565" lon="-2.9926956631">
        <ele>1119.11</ele>
        <time>2017-10-07T15:58:19Z</time>
      </trkpt>
      <trkpt lat="37.8944239765" lon="-2.9926477186">
        <ele>1120.07</ele>
        <time>2017-10-07T15:58:27Z</time>
      </trkpt>
      <trkpt lat="37.8943017684" lon="-2.9925806634">
        <ele>1121.52</ele>
        <time>2017-10-07T15:58:35Z</time>
      </trkpt>
      <trkpt lat="37.8942315280" lon="-2.9925338924">
        <ele>1122.00</ele>
        <time>2017-10-07T15:58:38Z</time>
      </trkpt>
      <trkpt lat="37.8942080587" lon="-2.9925137758">
        <ele>1122.00</ele>
        <time>2017-10-07T15:58:39Z</time>
      </trkpt>
      <trkpt lat="37.8941878583" lon="-2.9925038852">
        <ele>1122.00</ele>
        <time>2017-10-07T15:58:40Z</time>
      </trkpt>
      <trkpt lat="37.8941669036" lon="-2.9924993590">
        <ele>1122.48</ele>
        <time>2017-10-07T15:58:41Z</time>
      </trkpt>
      <trkpt lat="37.8941424284" lon="-2.9924939107">
        <ele>1122.48</ele>
        <time>2017-10-07T15:58:42Z</time>
      </trkpt>
      <trkpt lat="37.8941213898" lon="-2.9924934078">
        <ele>1122.48</ele>
        <time>2017-10-07T15:58:43Z</time>
      </trkpt>
      <trkpt lat="37.8941066377" lon="-2.9924923182">
        <ele>1122.48</ele>
        <time>2017-10-07T15:58:44Z</time>
      </trkpt>
      <trkpt lat="37.8939982597" lon="-2.9924403504">
        <ele>1123.92</ele>
        <time>2017-10-07T15:58:52Z</time>
      </trkpt>
      <trkpt lat="37.8939697612" lon="-2.9924235027">
        <ele>1123.92</ele>
        <time>2017-10-07T15:58:55Z</time>
      </trkpt>
      <trkpt lat="37.8939537518" lon="-2.9924219940">
        <ele>1123.92</ele>
        <time>2017-10-07T15:58:56Z</time>
      </trkpt>
      <trkpt lat="37.8938725311" lon="-2.9924120195">
        <ele>1124.40</ele>
        <time>2017-10-07T15:59:02Z</time>
      </trkpt>
      <trkpt lat="37.8938509058" lon="-2.9924082477">
        <ele>1124.88</ele>
        <time>2017-10-07T15:59:03Z</time>
      </trkpt>
      <trkpt lat="37.8938287776" lon="-2.9924119357">
        <ele>1124.88</ele>
        <time>2017-10-07T15:59:04Z</time>
      </trkpt>
      <trkpt lat="37.8937560227" lon="-2.9925198946">
        <ele>1125.84</ele>
        <time>2017-10-07T15:59:10Z</time>
      </trkpt>
      <trkpt lat="37.8937413543" lon="-2.9925306235">
        <ele>1125.84</ele>
        <time>2017-10-07T15:59:11Z</time>
      </trkpt>
      <trkpt lat="37.8937100060" lon="-2.9925547633">
        <ele>1126.32</ele>
        <time>2017-10-07T15:59:13Z</time>
      </trkpt>
      <trkpt lat="37.8936982714" lon="-2.9925689287">
        <ele>1126.32</ele>
        <time>2017-10-07T15:59:14Z</time>
      </trkpt>
      <trkpt lat="37.8936913144" lon="-2.9926327150">
        <ele>1126.80</ele>
        <time>2017-10-07T15:59:18Z</time>
      </trkpt>
      <trkpt lat="37.8936869558" lon="-2.9926528316">
        <ele>1126.80</ele>
        <time>2017-10-07T15:59:19Z</time>
      </trkpt>
      <trkpt lat="37.8936789092" lon="-2.9926730320">
        <ele>1126.80</ele>
        <time>2017-10-07T15:59:20Z</time>
      </trkpt>
      <trkpt lat="37.8936732933" lon="-2.9926935676">
        <ele>1127.28</ele>
        <time>2017-10-07T15:59:21Z</time>
      </trkpt>
      <trkpt lat="37.8936709464" lon="-2.9927132651">
        <ele>1127.28</ele>
        <time>2017-10-07T15:59:22Z</time>
      </trkpt>
      <trkpt lat="37.8936332278" lon="-2.9927560128">
        <ele>1127.76</ele>
        <time>2017-10-07T15:59:26Z</time>
      </trkpt>
      <trkpt lat="37.8935935814" lon="-2.9927992634">
        <ele>1128.24</ele>
        <time>2017-10-07T15:59:30Z</time>
      </trkpt>
      <trkpt lat="37.8935836069" lon="-2.9928635526">
        <ele>1128.24</ele>
        <time>2017-10-07T15:59:34Z</time>
      </trkpt>
      <trkpt lat="37.8935721237" lon="-2.9928727727">
        <ele>1128.73</ele>
        <time>2017-10-07T15:59:35Z</time>
      </trkpt>
      <trkpt lat="37.8935331479" lon="-2.9929067194">
        <ele>1129.21</ele>
        <time>2017-10-07T15:59:39Z</time>
      </trkpt>
      <trkpt lat="37.8934766538" lon="-2.9929995909">
        <ele>1130.17</ele>
        <time>2017-10-07T15:59:48Z</time>
      </trkpt>
      <trkpt lat="37.8934609797" lon="-2.9930388182">
        <ele>1130.65</ele>
        <time>2017-10-07T15:59:51Z</time>
      </trkpt>
      <trkpt lat="37.8934508376" lon="-2.9930929653">
        <ele>1131.13</ele>
        <time>2017-10-07T15:59:54Z</time>
      </trkpt>
      <trkpt lat="37.8934410308" lon="-2.9931532312">
        <ele>1131.61</ele>
        <time>2017-10-07T16:00:02Z</time>
      </trkpt>
      <trkpt lat="37.8934016358" lon="-2.9931534827">
        <ele>1131.61</ele>
        <time>2017-10-07T16:00:19Z</time>
      </trkpt>
      <trkpt lat="37.8933940921" lon="-2.9931612778">
        <ele>1131.13</ele>
        <time>2017-10-07T16:00:31Z</time>
      </trkpt>
      <trkpt lat="37.8933941759" lon="-2.9931707494">
        <ele>1131.61</ele>
        <time>2017-10-07T16:00:53Z</time>
      </trkpt>
      <trkpt lat="37.8933816869" lon="-2.9931682348">
        <ele>1131.61</ele>
        <time>2017-10-07T16:01:15Z</time>
      </trkpt>
      <trkpt lat="37.8933835309" lon="-2.9931606911">
        <ele>1131.61</ele>
        <time>2017-10-07T16:01:35Z</time>
      </trkpt>
      <trkpt lat="37.8933847044" lon="-2.9931426700">
        <ele>1132.09</ele>
        <time>2017-10-07T16:01:58Z</time>
      </trkpt>
      <trkpt lat="37.8933821060" lon="-2.9931508005">
        <ele>1132.57</ele>
        <time>2017-10-07T16:02:23Z</time>
      </trkpt>
      <trkpt lat="37.8933842853" lon="-2.9931503814">
        <ele>1132.57</ele>
        <time>2017-10-07T16:02:46Z</time>
      </trkpt>
      <trkpt lat="37.8933826927" lon="-2.9931548238">
        <ele>1132.57</ele>
        <time>2017-10-07T16:03:05Z</time>
      </trkpt>
      <trkpt lat="37.8933856264" lon="-2.9931710847">
        <ele>1132.57</ele>
        <time>2017-10-07T16:03:29Z</time>
      </trkpt>
      <trkpt lat="37.8933840338" lon="-2.9931656364">
        <ele>1132.57</ele>
        <time>2017-10-07T16:03:37Z</time>
      </trkpt>
      <trkpt lat="37.8933895659" lon="-2.9931593500">
        <ele>1133.05</ele>
        <time>2017-10-07T16:03:47Z</time>
      </trkpt>
      <trkpt lat="37.8933662642" lon="-2.9931458551">
        <ele>1133.53</ele>
        <time>2017-10-07T16:04:01Z</time>
      </trkpt>
      <trkpt lat="37.8933787532" lon="-2.9931469448">
        <ele>1133.53</ele>
        <time>2017-10-07T16:04:14Z</time>
      </trkpt>
      <trkpt lat="37.8933686949" lon="-2.9931523092">
        <ele>1133.53</ele>
        <time>2017-10-07T16:04:15Z</time>
      </trkpt>
      <trkpt lat="37.8933593072" lon="-2.9931627028">
        <ele>1133.53</ele>
        <time>2017-10-07T16:04:16Z</time>
      </trkpt>
      <trkpt lat="37.8933181521" lon="-2.9931989964">
        <ele>1134.01</ele>
        <time>2017-10-07T16:04:20Z</time>
      </trkpt>
      <trkpt lat="37.8933054954" lon="-2.9932129942">
        <ele>1134.49</ele>
        <time>2017-10-07T16:04:21Z</time>
      </trkpt>
      <trkpt lat="37.8932933416" lon="-2.9932242259">
        <ele>1134.49</ele>
        <time>2017-10-07T16:04:22Z</time>
      </trkpt>
      <trkpt lat="37.8932809364" lon="-2.9932388943">
        <ele>1134.49</ele>
        <time>2017-10-07T16:04:23Z</time>
      </trkpt>
      <trkpt lat="37.8932668548" lon="-2.9932512157">
        <ele>1134.97</ele>
        <time>2017-10-07T16:04:24Z</time>
      </trkpt>
      <trkpt lat="37.8932570480" lon="-2.9932655487">
        <ele>1134.97</ele>
        <time>2017-10-07T16:04:25Z</time>
      </trkpt>
      <trkpt lat="37.8932471573" lon="-2.9932772834">
        <ele>1134.97</ele>
        <time>2017-10-07T16:04:26Z</time>
      </trkpt>
      <trkpt lat="37.8932372667" lon="-2.9932891857">
        <ele>1134.97</ele>
        <time>2017-10-07T16:04:27Z</time>
      </trkpt>
      <trkpt lat="37.8932248615" lon="-2.9933030158">
        <ele>1135.45</ele>
        <time>2017-10-07T16:04:28Z</time>
      </trkpt>
      <trkpt lat="37.8932129592" lon="-2.9933150858">
        <ele>1135.45</ele>
        <time>2017-10-07T16:04:29Z</time>
      </trkpt>
      <trkpt lat="37.8932012245" lon="-2.9933332745">
        <ele>1135.45</ele>
        <time>2017-10-07T16:04:30Z</time>
      </trkpt>
      <trkpt lat="37.8931895737" lon="-2.9933517985">
        <ele>1135.45</ele>
        <time>2017-10-07T16:04:31Z</time>
      </trkpt>
      <trkpt lat="37.8930698801" lon="-2.9934960511">
        <ele>1136.90</ele>
        <time>2017-10-07T16:04:41Z</time>
      </trkpt>
      <trkpt lat="37.8929207660" lon="-2.9935600888">
        <ele>1138.82</ele>
        <time>2017-10-07T16:04:53Z</time>
      </trkpt>
      <trkpt lat="37.8928501066" lon="-2.9935532995">
        <ele>1139.30</ele>
        <time>2017-10-07T16:04:58Z</time>
      </trkpt>
      <trkpt lat="37.8928401321" lon="-2.9935462587">
        <ele>1139.30</ele>
        <time>2017-10-07T16:04:59Z</time>
      </trkpt>
      <trkpt lat="37.8928287327" lon="-2.9935419001">
        <ele>1139.30</ele>
        <time>2017-10-07T16:05:00Z</time>
      </trkpt>
      <trkpt lat="37.8928149026" lon="-2.9935437441">
        <ele>1139.30</ele>
        <time>2017-10-07T16:05:01Z</time>
      </trkpt>
      <trkpt lat="37.8927961271" lon="-2.9935608432">
        <ele>1139.30</ele>
        <time>2017-10-07T16:05:02Z</time>
      </trkpt>
      <trkpt lat="37.8927789442" lon="-2.9935698956">
        <ele>1139.78</ele>
        <time>2017-10-07T16:05:03Z</time>
      </trkpt>
      <trkpt lat="37.8927628510" lon="-2.9935820494">
        <ele>1139.78</ele>
        <time>2017-10-07T16:05:04Z</time>
      </trkpt>
      <trkpt lat="37.8927441593" lon="-2.9935916886">
        <ele>1139.78</ele>
        <time>2017-10-07T16:05:05Z</time>
      </trkpt>
      <trkpt lat="37.8927020822" lon="-2.9936132301">
        <ele>1140.26</ele>
        <time>2017-10-07T16:05:08Z</time>
      </trkpt>
      <trkpt lat="37.8926913533" lon="-2.9936242942">
        <ele>1140.26</ele>
        <time>2017-10-07T16:05:09Z</time>
      </trkpt>
      <trkpt lat="37.8926796187" lon="-2.9936347716">
        <ele>1140.74</ele>
        <time>2017-10-07T16:05:10Z</time>
      </trkpt>
      <trkpt lat="37.8926688060" lon="-2.9936445784">
        <ele>1140.74</ele>
        <time>2017-10-07T16:05:11Z</time>
      </trkpt>
      <trkpt lat="37.8926551435" lon="-2.9936552234">
        <ele>1140.74</ele>
        <time>2017-10-07T16:05:12Z</time>
      </trkpt>
      <trkpt lat="37.8926408943" lon="-2.9936681315">
        <ele>1140.74</ele>
        <time>2017-10-07T16:05:13Z</time>
      </trkpt>
      <trkpt lat="37.8926291596" lon="-2.9936853144">
        <ele>1141.22</ele>
        <time>2017-10-07T16:05:14Z</time>
      </trkpt>
      <trkpt lat="37.8926218674" lon="-2.9937045090">
        <ele>1141.22</ele>
        <time>2017-10-07T16:05:15Z</time>
      </trkpt>
      <trkpt lat="37.8925713245" lon="-2.9938618373">
        <ele>1142.18</ele>
        <time>2017-10-07T16:05:25Z</time>
      </trkpt>
      <trkpt lat="37.8925729170" lon="-2.9939135537">
        <ele>1142.66</ele>
        <time>2017-10-07T16:05:28Z</time>
      </trkpt>
      <trkpt lat="37.8925728332" lon="-2.9939677007">
        <ele>1142.66</ele>
        <time>2017-10-07T16:05:31Z</time>
      </trkpt>
      <trkpt lat="37.8925667983" lon="-2.9939874820">
        <ele>1143.14</ele>
        <time>2017-10-07T16:05:32Z</time>
      </trkpt>
      <trkpt lat="37.8925265651" lon="-2.9941710457">
        <ele>1144.11</ele>
        <time>2017-10-07T16:05:41Z</time>
      </trkpt>
      <trkpt lat="37.8924874216" lon="-2.9943804257">
        <ele>1146.03</ele>
        <time>2017-10-07T16:05:52Z</time>
      </trkpt>
      <trkpt lat="37.8924635332" lon="-2.9944196530">
        <ele>1146.03</ele>
        <time>2017-10-07T16:06:02Z</time>
      </trkpt>
      <trkpt lat="37.8924482781" lon="-2.9944381770">
        <ele>1146.03</ele>
        <time>2017-10-07T16:06:04Z</time>
      </trkpt>
      <trkpt lat="37.8924115654" lon="-2.9944794159">
        <ele>1146.51</ele>
        <time>2017-10-07T16:06:07Z</time>
      </trkpt>
      <trkpt lat="37.8924022615" lon="-2.9944934137">
        <ele>1146.51</ele>
        <time>2017-10-07T16:06:08Z</time>
      </trkpt>
      <trkpt lat="37.8923287522" lon="-2.9945396818">
        <ele>1147.47</ele>
        <time>2017-10-07T16:06:15Z</time>
      </trkpt>
      <trkpt lat="37.8922694921" lon="-2.9946015403">
        <ele>1148.43</ele>
        <time>2017-10-07T16:06:20Z</time>
      </trkpt>
      <trkpt lat="37.8922533151" lon="-2.9946188908">
        <ele>1148.43</ele>
        <time>2017-10-07T16:06:21Z</time>
      </trkpt>
      <trkpt lat="37.8922388982" lon="-2.9946351517">
        <ele>1148.43</ele>
        <time>2017-10-07T16:06:22Z</time>
      </trkpt>
      <trkpt lat="37.8922286723" lon="-2.9946501553">
        <ele>1148.43</ele>
        <time>2017-10-07T16:06:23Z</time>
      </trkpt>
      <trkpt lat="37.8922191169" lon="-2.9946635664">
        <ele>1148.91</ele>
        <time>2017-10-07T16:06:24Z</time>
      </trkpt>
      <trkpt lat="37.8922078852" lon="-2.9946778994">
        <ele>1148.91</ele>
        <time>2017-10-07T16:06:25Z</time>
      </trkpt>
      <trkpt lat="37.8921906184" lon="-2.9946909752">
        <ele>1149.39</ele>
        <time>2017-10-07T16:06:26Z</time>
      </trkpt>
      <trkpt lat="37.8920081444" lon="-2.9948149435">
        <ele>1150.35</ele>
        <time>2017-10-07T16:06:36Z</time>
      </trkpt>
      <trkpt lat="37.8919246607" lon="-2.9948284384">
        <ele>1150.84</ele>
        <time>2017-10-07T16:06:40Z</time>
      </trkpt>
      <trkpt lat="37.8918224014" lon="-2.9948802385">
        <ele>1151.32</ele>
        <time>2017-10-07T16:06:47Z</time>
      </trkpt>
      <trkpt lat="37.8916686773" lon="-2.9949866049">
        <ele>1152.28</ele>
        <time>2017-10-07T16:06:57Z</time>
      </trkpt>
      <trkpt lat="37.8916555177" lon="-2.9950483795">
        <ele>1152.28</ele>
        <time>2017-10-07T16:07:00Z</time>
      </trkpt>
      <trkpt lat="37.8916914761" lon="-2.9951369762">
        <ele>1152.76</ele>
        <time>2017-10-07T16:07:06Z</time>
      </trkpt>
      <trkpt lat="37.8916957509" lon="-2.9953969829">
        <ele>1153.72</ele>
        <time>2017-10-07T16:07:16Z</time>
      </trkpt>
      <trkpt lat="37.8917359840" lon="-2.9957048502">
        <ele>1154.68</ele>
        <time>2017-10-07T16:07:26Z</time>
      </trkpt>
      <trkpt lat="37.8918628022" lon="-2.9959216062">
        <ele>1155.64</ele>
        <time>2017-10-07T16:07:35Z</time>
      </trkpt>
      <trkpt lat="37.8919709288" lon="-2.9960809462">
        <ele>1156.12</ele>
        <time>2017-10-07T16:07:42Z</time>
      </trkpt>
      <trkpt lat="37.8921116609" lon="-2.9962786753">
        <ele>1157.08</ele>
        <time>2017-10-07T16:07:53Z</time>
      </trkpt>
      <trkpt lat="37.8922790475" lon="-2.9964761529">
        <ele>1158.05</ele>
        <time>2017-10-07T16:08:04Z</time>
      </trkpt>
      <trkpt lat="37.8924693167" lon="-2.9967107624">
        <ele>1159.49</ele>
        <time>2017-10-07T16:08:15Z</time>
      </trkpt>
      <trkpt lat="37.8926361166" lon="-2.9969387501">
        <ele>1160.45</ele>
        <time>2017-10-07T16:08:26Z</time>
      </trkpt>
      <trkpt lat="37.8926421516" lon="-2.9969634768">
        <ele>1160.45</ele>
        <time>2017-10-07T16:08:27Z</time>
      </trkpt>
      <trkpt lat="37.8928501904" lon="-2.9972078092">
        <ele>1161.41</ele>
        <time>2017-10-07T16:08:38Z</time>
      </trkpt>
      <trkpt lat="37.8930214327" lon="-2.9974254873">
        <ele>1162.85</ele>
        <time>2017-10-07T16:08:48Z</time>
      </trkpt>
      <trkpt lat="37.8931656014" lon="-2.9976323526">
        <ele>1164.77</ele>
        <time>2017-10-07T16:08:59Z</time>
      </trkpt>
      <trkpt lat="37.8931849636" lon="-2.9977129865">
        <ele>1164.77</ele>
        <time>2017-10-07T16:09:02Z</time>
      </trkpt>
      <trkpt lat="37.8931777552" lon="-2.9978544731">
        <ele>1165.74</ele>
        <time>2017-10-07T16:09:08Z</time>
      </trkpt>
      <trkpt lat="37.8931616619" lon="-2.9979007412">
        <ele>1165.74</ele>
        <time>2017-10-07T16:09:10Z</time>
      </trkpt>
      <trkpt lat="37.8930338379" lon="-2.9980694689">
        <ele>1166.70</ele>
        <time>2017-10-07T16:09:20Z</time>
      </trkpt>
      <trkpt lat="37.8929918446" lon="-2.9981743265">
        <ele>1167.18</ele>
        <time>2017-10-07T16:09:25Z</time>
      </trkpt>
      <trkpt lat="37.8929749969" lon="-2.9983073473">
        <ele>1168.14</ele>
        <time>2017-10-07T16:09:33Z</time>
      </trkpt>
      <trkpt lat="37.8929752484" lon="-2.9983276315">
        <ele>1168.62</ele>
        <time>2017-10-07T16:09:34Z</time>
      </trkpt>
      <trkpt lat="37.8929759189" lon="-2.9984636698">
        <ele>1169.10</ele>
        <time>2017-10-07T16:09:40Z</time>
      </trkpt>
      <trkpt lat="37.8930388670" lon="-2.9986423720">
        <ele>1170.54</ele>
        <time>2017-10-07T16:09:49Z</time>
      </trkpt>
      <trkpt lat="37.8930878174" lon="-2.9986642487">
        <ele>1171.02</ele>
        <time>2017-10-07T16:09:53Z</time>
      </trkpt>
      <trkpt lat="37.8931728937" lon="-2.9987180606">
        <ele>1171.50</ele>
        <time>2017-10-07T16:10:00Z</time>
      </trkpt>
      <trkpt lat="37.8933135420" lon="-2.9987776559">
        <ele>1172.47</ele>
        <time>2017-10-07T16:10:09Z</time>
      </trkpt>
      <trkpt lat="37.8933973610" lon="-2.9987980239">
        <ele>1172.95</ele>
        <time>2017-10-07T16:10:14Z</time>
      </trkpt>
      <trkpt lat="37.8935863730" lon="-2.9988790769">
        <ele>1173.91</ele>
        <time>2017-10-07T16:10:24Z</time>
      </trkpt>
      <trkpt lat="37.8937777318" lon="-2.9990191385">
        <ele>1175.35</ele>
        <time>2017-10-07T16:10:35Z</time>
      </trkpt>
      <trkpt lat="37.8939861059" lon="-2.9991322942">
        <ele>1175.83</ele>
        <time>2017-10-07T16:10:45Z</time>
      </trkpt>
      <trkpt lat="37.8941478767" lon="-2.9992554244">
        <ele>1177.27</ele>
        <time>2017-10-07T16:10:55Z</time>
      </trkpt>
      <trkpt lat="37.8941916302" lon="-2.9993887804">
        <ele>1178.23</ele>
        <time>2017-10-07T16:11:01Z</time>
      </trkpt>
      <trkpt lat="37.8941541631" lon="-2.9995222203">
        <ele>1179.19</ele>
        <time>2017-10-07T16:11:08Z</time>
      </trkpt>
      <trkpt lat="37.8939923085" lon="-2.9995796364">
        <ele>1180.16</ele>
        <time>2017-10-07T16:11:19Z</time>
      </trkpt>
      <trkpt lat="37.8938922286" lon="-2.9995342065">
        <ele>1185.92</ele>
        <time>2017-10-07T16:11:25Z</time>
      </trkpt>
      <trkpt lat="37.8938804101" lon="-2.9995257407">
        <ele>1180.64</ele>
        <time>2017-10-07T16:11:26Z</time>
      </trkpt>
      <trkpt lat="37.8938695136" lon="-2.9995157663">
        <ele>1184.48</ele>
        <time>2017-10-07T16:11:27Z</time>
      </trkpt>
      <trkpt lat="37.8938447870" lon="-2.9994927999">
        <ele>1177.27</ele>
        <time>2017-10-07T16:11:29Z</time>
      </trkpt>
      <trkpt lat="37.8938323818" lon="-2.9994858429">
        <ele>1185.92</ele>
        <time>2017-10-07T16:11:30Z</time>
      </trkpt>
      <trkpt lat="37.8938105889" lon="-2.9994624574">
        <ele>1183.52</ele>
        <time>2017-10-07T16:11:32Z</time>
      </trkpt>
      <trkpt lat="37.8937152028" lon="-2.9993864335">
        <ele>1182.56</ele>
        <time>2017-10-07T16:11:39Z</time>
      </trkpt>
      <trkpt lat="37.8936468903" lon="-2.9993191268">
        <ele>1186.40</ele>
        <time>2017-10-07T16:11:45Z</time>
      </trkpt>
      <trkpt lat="37.8936363291" lon="-2.9993064702">
        <ele>1184.00</ele>
        <time>2017-10-07T16:11:46Z</time>
      </trkpt>
      <trkpt lat="37.8935135342" lon="-2.9992051329">
        <ele>1184.48</ele>
        <time>2017-10-07T16:11:56Z</time>
      </trkpt>
      <trkpt lat="37.8933527693" lon="-2.9990984313">
        <ele>1185.92</ele>
        <time>2017-10-07T16:12:08Z</time>
      </trkpt>
      <trkpt lat="37.8932039067" lon="-2.9990497325">
        <ele>1186.88</ele>
        <time>2017-10-07T16:12:19Z</time>
      </trkpt>
      <trkpt lat="37.8931902442" lon="-2.9990483075">
        <ele>1187.37</ele>
        <time>2017-10-07T16:12:20Z</time>
      </trkpt>
      <trkpt lat="37.8930505179" lon="-2.9990538396">
        <ele>1188.33</ele>
        <time>2017-10-07T16:12:31Z</time>
      </trkpt>
      <trkpt lat="37.8930262104" lon="-2.9990505707">
        <ele>1188.33</ele>
        <time>2017-10-07T16:12:33Z</time>
      </trkpt>
      <trkpt lat="37.8929079417" lon="-2.9990886245">
        <ele>1189.29</ele>
        <time>2017-10-07T16:12:41Z</time>
      </trkpt>
      <trkpt lat="37.8927476797" lon="-2.9990877863">
        <ele>1190.25</ele>
        <time>2017-10-07T16:12:51Z</time>
      </trkpt>
      <trkpt lat="37.8925822210" lon="-2.9990742914">
        <ele>1191.69</ele>
        <time>2017-10-07T16:13:02Z</time>
      </trkpt>
      <trkpt lat="37.8925019223" lon="-2.9989794921">
        <ele>1192.65</ele>
        <time>2017-10-07T16:13:12Z</time>
      </trkpt>
      <trkpt lat="37.8924958035" lon="-2.9989621416">
        <ele>1192.65</ele>
        <time>2017-10-07T16:13:13Z</time>
      </trkpt>
      <trkpt lat="37.8924879245" lon="-2.9989162087">
        <ele>1192.65</ele>
        <time>2017-10-07T16:13:16Z</time>
      </trkpt>
      <trkpt lat="37.8924800456" lon="-2.9988482315">
        <ele>1193.61</ele>
        <time>2017-10-07T16:13:20Z</time>
      </trkpt>
      <trkpt lat="37.8925067838" lon="-2.9987980239">
        <ele>1193.61</ele>
        <time>2017-10-07T16:13:24Z</time>
      </trkpt>
      <trkpt lat="37.8924546484" lon="-2.9986929987">
        <ele>1194.58</ele>
        <time>2017-10-07T16:13:29Z</time>
      </trkpt>
      <trkpt lat="37.8923615254" lon="-2.9984753206">
        <ele>1195.54</ele>
        <time>2017-10-07T16:13:39Z</time>
      </trkpt>
      <trkpt lat="37.8923455160" lon="-2.9983815271">
        <ele>1196.02</ele>
        <time>2017-10-07T16:13:44Z</time>
      </trkpt>
      <trkpt lat="37.8922650497" lon="-2.9982618336">
        <ele>1196.50</ele>
        <time>2017-10-07T16:13:52Z</time>
      </trkpt>
      <trkpt lat="37.8921206295" lon="-2.9982148949">
        <ele>1197.94</ele>
        <time>2017-10-07T16:14:02Z</time>
      </trkpt>
      <trkpt lat="37.8919866867" lon="-2.9982060939">
        <ele>1198.90</ele>
        <time>2017-10-07T16:14:12Z</time>
      </trkpt>
      <trkpt lat="37.8919163626" lon="-2.9982055072">
        <ele>1199.38</ele>
        <time>2017-10-07T16:14:18Z</time>
      </trkpt>
      <trkpt lat="37.8917268477" lon="-2.9982174095">
        <ele>1200.34</ele>
        <time>2017-10-07T16:14:30Z</time>
      </trkpt>
      <trkpt lat="37.8916788194" lon="-2.9982293118">
        <ele>1200.34</ele>
        <time>2017-10-07T16:14:33Z</time>
      </trkpt>
      <trkpt lat="37.8915523365" lon="-2.9982378613">
        <ele>1201.79</ele>
        <time>2017-10-07T16:14:43Z</time>
      </trkpt>
      <trkpt lat="37.8914583754" lon="-2.9982187506">
        <ele>1202.27</ele>
        <time>2017-10-07T16:14:49Z</time>
      </trkpt>
      <trkpt lat="37.8913766518" lon="-2.9981745780">
        <ele>1202.75</ele>
        <time>2017-10-07T16:14:53Z</time>
      </trkpt>
      <trkpt lat="37.8912155516" lon="-2.9980417248">
        <ele>1203.71</ele>
        <time>2017-10-07T16:15:05Z</time>
      </trkpt>
      <trkpt lat="37.8911536094" lon="-2.9979736637">
        <ele>1200.82</ele>
        <time>2017-10-07T16:15:11Z</time>
      </trkpt>
      <trkpt lat="37.8911452275" lon="-2.9979613423">
        <ele>1207.55</ele>
        <time>2017-10-07T16:15:12Z</time>
      </trkpt>
      <trkpt lat="37.8911358397" lon="-2.9979512002">
        <ele>1203.23</ele>
        <time>2017-10-07T16:15:13Z</time>
      </trkpt>
      <trkpt lat="37.8911281284" lon="-2.9979421478">
        <ele>1203.71</ele>
        <time>2017-10-07T16:15:14Z</time>
      </trkpt>
      <trkpt lat="37.8911263682" lon="-2.9979318380">
        <ele>1209.48</ele>
        <time>2017-10-07T16:15:15Z</time>
      </trkpt>
      <trkpt lat="37.8911207523" lon="-2.9979312513">
        <ele>1202.75</ele>
        <time>2017-10-07T16:15:16Z</time>
      </trkpt>
      <trkpt lat="37.8911183216" lon="-2.9979236238">
        <ele>1208.03</ele>
        <time>2017-10-07T16:15:17Z</time>
      </trkpt>
      <trkpt lat="37.8910867218" lon="-2.9979009926">
        <ele>1205.63</ele>
        <time>2017-10-07T16:15:19Z</time>
      </trkpt>
      <trkpt lat="37.8910457343" lon="-2.9978592508">
        <ele>1205.63</ele>
        <time>2017-10-07T16:15:22Z</time>
      </trkpt>
      <trkpt lat="37.8909061756" lon="-2.9977807123">
        <ele>1207.07</ele>
        <time>2017-10-07T16:15:34Z</time>
      </trkpt>
      <trkpt lat="37.8907421418" lon="-2.9976238031">
        <ele>1208.51</ele>
        <time>2017-10-07T16:15:46Z</time>
      </trkpt>
      <trkpt lat="37.8907284793" lon="-2.9975917004">
        <ele>1210.92</ele>
        <time>2017-10-07T16:15:48Z</time>
      </trkpt>
      <trkpt lat="37.8906786907" lon="-2.9975406546">
        <ele>1208.51</ele>
        <time>2017-10-07T16:15:52Z</time>
      </trkpt>
      <trkpt lat="37.8905585781" lon="-2.9974266607">
        <ele>1210.44</ele>
        <time>2017-10-07T16:16:04Z</time>
      </trkpt>
      <trkpt lat="37.8905251343" lon="-2.9973667301">
        <ele>1211.40</ele>
        <time>2017-10-07T16:16:11Z</time>
      </trkpt>
      <trkpt lat="37.8904471826" lon="-2.9972773790">
        <ele>1212.36</ele>
        <time>2017-10-07T16:16:19Z</time>
      </trkpt>
      <trkpt lat="37.8904297482" lon="-2.9972433485">
        <ele>1212.84</ele>
        <time>2017-10-07T16:16:22Z</time>
      </trkpt>
      <trkpt lat="37.8903870843" lon="-2.9971438553">
        <ele>1213.32</ele>
        <time>2017-10-07T16:16:28Z</time>
      </trkpt>
      <trkpt lat="37.8903628606" lon="-2.9970489722">
        <ele>1214.28</ele>
        <time>2017-10-07T16:16:34Z</time>
      </trkpt>
      <trkpt lat="37.8902356233" lon="-2.9968856927">
        <ele>1215.24</ele>
        <time>2017-10-07T16:16:44Z</time>
      </trkpt>
      <trkpt lat="37.8902157582" lon="-2.9968234152">
        <ele>1216.21</ele>
        <time>2017-10-07T16:16:50Z</time>
      </trkpt>
      <trkpt lat="37.8901960608" lon="-2.9967861157">
        <ele>1216.21</ele>
        <time>2017-10-07T16:16:52Z</time>
      </trkpt>
      <trkpt lat="37.8900612798" lon="-2.9966558609">
        <ele>1217.17</ele>
        <time>2017-10-07T16:16:58Z</time>
      </trkpt>
      <trkpt lat="37.8899453580" lon="-2.9965732154">
        <ele>1217.65</ele>
        <time>2017-10-07T16:17:07Z</time>
      </trkpt>
      <trkpt lat="37.8898541629" lon="-2.9966318049">
        <ele>1218.61</ele>
        <time>2017-10-07T16:17:16Z</time>
      </trkpt>
      <trkpt lat="37.8897833358" lon="-2.9967516661">
        <ele>1219.57</ele>
        <time>2017-10-07T16:17:25Z</time>
      </trkpt>
      <trkpt lat="37.8897703439" lon="-2.9968420230">
        <ele>1220.05</ele>
        <time>2017-10-07T16:17:30Z</time>
      </trkpt>
      <trkpt lat="37.8897797316" lon="-2.9969120119">
        <ele>1220.53</ele>
        <time>2017-10-07T16:17:34Z</time>
      </trkpt>
      <trkpt lat="37.8898386564" lon="-2.9971048795">
        <ele>1221.49</ele>
        <time>2017-10-07T16:17:45Z</time>
      </trkpt>
      <trkpt lat="37.8898569290" lon="-2.9971280135">
        <ele>1221.97</ele>
        <time>2017-10-07T16:17:47Z</time>
      </trkpt>
      <trkpt lat="37.8899412509" lon="-2.9973481223">
        <ele>1223.42</ele>
        <time>2017-10-07T16:18:00Z</time>
      </trkpt>
      <trkpt lat="37.8899812326" lon="-2.9974281695">
        <ele>1223.42</ele>
        <time>2017-10-07T16:18:05Z</time>
      </trkpt>
      <trkpt lat="37.8900410794" lon="-2.9975806363">
        <ele>1224.86</ele>
        <time>2017-10-07T16:18:15Z</time>
      </trkpt>
      <trkpt lat="37.8901155107" lon="-2.9977621883">
        <ele>1225.82</ele>
        <time>2017-10-07T16:18:26Z</time>
      </trkpt>
      <trkpt lat="37.8901264071" lon="-2.9978839774">
        <ele>1226.78</ele>
        <time>2017-10-07T16:18:32Z</time>
      </trkpt>
      <trkpt lat="37.8901568335" lon="-2.9979650304">
        <ele>1227.26</ele>
        <time>2017-10-07T16:18:37Z</time>
      </trkpt>
      <trkpt lat="37.8901968990" lon="-2.9980408028">
        <ele>1227.74</ele>
        <time>2017-10-07T16:18:42Z</time>
      </trkpt>
      <trkpt lat="37.8902145009" lon="-2.9980605841">
        <ele>1228.22</ele>
        <time>2017-10-07T16:18:44Z</time>
      </trkpt>
      <trkpt lat="37.8902392276" lon="-2.9981449898">
        <ele>1228.70</ele>
        <time>2017-10-07T16:18:49Z</time>
      </trkpt>
      <trkpt lat="37.8902678099" lon="-2.9982136376">
        <ele>1229.18</ele>
        <time>2017-10-07T16:18:54Z</time>
      </trkpt>
      <trkpt lat="37.8902702406" lon="-2.9982322454">
        <ele>1229.18</ele>
        <time>2017-10-07T16:18:55Z</time>
      </trkpt>
      <trkpt lat="37.8903166763" lon="-2.9983617458">
        <ele>1230.62</ele>
        <time>2017-10-07T16:19:04Z</time>
      </trkpt>
      <trkpt lat="37.8904329333" lon="-2.9984485824">
        <ele>1231.59</ele>
        <time>2017-10-07T16:19:14Z</time>
      </trkpt>
      <trkpt lat="37.8904439136" lon="-2.9984557070">
        <ele>1231.59</ele>
        <time>2017-10-07T16:19:15Z</time>
      </trkpt>
      <trkpt lat="37.8905895073" lon="-2.9985008854">
        <ele>1232.55</ele>
        <time>2017-10-07T16:19:23Z</time>
      </trkpt>
      <trkpt lat="37.8907137271" lon="-2.9985746462">
        <ele>1233.51</ele>
        <time>2017-10-07T16:19:31Z</time>
      </trkpt>
      <trkpt lat="37.8907848895" lon="-2.9986291286">
        <ele>1233.99</ele>
        <time>2017-10-07T16:19:37Z</time>
      </trkpt>
      <trkpt lat="37.8909024037" lon="-2.9987073317">
        <ele>1235.43</ele>
        <time>2017-10-07T16:19:47Z</time>
      </trkpt>
      <trkpt lat="37.8909134679" lon="-2.9987143725">
        <ele>1235.91</ele>
        <time>2017-10-07T16:19:48Z</time>
      </trkpt>
      <trkpt lat="37.8909329139" lon="-2.9987430386">
        <ele>1235.91</ele>
        <time>2017-10-07T16:19:51Z</time>
      </trkpt>
      <trkpt lat="37.8910485003" lon="-2.9988185596">
        <ele>1236.87</ele>
        <time>2017-10-07T16:20:00Z</time>
      </trkpt>
      <trkpt lat="37.8910948522" lon="-2.9988504946">
        <ele>1237.35</ele>
        <time>2017-10-07T16:20:04Z</time>
      </trkpt>
      <trkpt lat="37.8911619913" lon="-2.9989266023">
        <ele>1237.83</ele>
        <time>2017-10-07T16:20:10Z</time>
      </trkpt>
      <trkpt lat="37.8912394401" lon="-2.9990558513">
        <ele>1238.80</ele>
        <time>2017-10-07T16:20:20Z</time>
      </trkpt>
      <trkpt lat="37.8912534378" lon="-2.9991554283">
        <ele>1239.28</ele>
        <time>2017-10-07T16:20:28Z</time>
      </trkpt>
      <trkpt lat="37.8912525997" lon="-2.9991773888">
        <ele>1239.28</ele>
        <time>2017-10-07T16:20:30Z</time>
      </trkpt>
      <trkpt lat="37.8912578803" lon="-2.9992017802">
        <ele>1239.28</ele>
        <time>2017-10-07T16:20:32Z</time>
      </trkpt>
      <trkpt lat="37.8912702855" lon="-2.9992969148">
        <ele>1240.24</ele>
        <time>2017-10-07T16:20:41Z</time>
      </trkpt>
      <trkpt lat="37.8912646696" lon="-2.9993627127">
        <ele>1240.72</ele>
        <time>2017-10-07T16:20:47Z</time>
      </trkpt>
      <trkpt lat="37.8912697826" lon="-2.9993928038">
        <ele>1240.72</ele>
        <time>2017-10-07T16:20:49Z</time>
      </trkpt>
      <trkpt lat="37.8912697826" lon="-2.9994640499">
        <ele>1241.20</ele>
        <time>2017-10-07T16:20:57Z</time>
      </trkpt>
      <trkpt lat="37.8912450559" lon="-2.9995461926">
        <ele>1242.64</ele>
        <time>2017-10-07T16:21:08Z</time>
      </trkpt>
      <trkpt lat="37.8912291303" lon="-2.9995613638">
        <ele>1241.68</ele>
        <time>2017-10-07T16:21:14Z</time>
      </trkpt>
      <trkpt lat="37.8912110254" lon="-2.9995913710">
        <ele>1242.16</ele>
        <time>2017-10-07T16:21:17Z</time>
      </trkpt>
      <trkpt lat="37.8911919147" lon="-2.9996744357">
        <ele>1242.64</ele>
        <time>2017-10-07T16:21:27Z</time>
      </trkpt>
      <trkpt lat="37.8911855444" lon="-2.9997864179">
        <ele>1243.60</ele>
        <time>2017-10-07T16:21:35Z</time>
      </trkpt>
      <trkpt lat="37.8912201617" lon="-2.9998949636">
        <ele>1243.60</ele>
        <time>2017-10-07T16:21:41Z</time>
      </trkpt>
      <trkpt lat="37.8913203254" lon="-3.0000114720">
        <ele>1246.49</ele>
        <time>2017-10-07T16:21:52Z</time>
      </trkpt>
      <trkpt lat="37.8913515899" lon="-3.0000318401">
        <ele>1245.53</ele>
        <time>2017-10-07T16:21:56Z</time>
      </trkpt>
      <trkpt lat="37.8913873807" lon="-3.0000526272">
        <ele>1246.97</ele>
        <time>2017-10-07T16:22:00Z</time>
      </trkpt>
      <trkpt lat="37.8915821761" lon="-3.0000778567">
        <ele>1246.49</ele>
        <time>2017-10-07T16:22:11Z</time>
      </trkpt>
      <trkpt lat="37.8916653246" lon="-3.0001191795">
        <ele>1246.97</ele>
        <time>2017-10-07T16:22:22Z</time>
      </trkpt>
      <trkpt lat="37.8917918913" lon="-3.0002014898">
        <ele>1247.93</ele>
        <time>2017-10-07T16:22:36Z</time>
      </trkpt>
      <trkpt lat="37.8918014467" lon="-3.0002012383">
        <ele>1247.93</ele>
        <time>2017-10-07T16:22:37Z</time>
      </trkpt>
      <trkpt lat="37.8919735271" lon="-3.0002559721">
        <ele>1249.85</ele>
        <time>2017-10-07T16:22:54Z</time>
      </trkpt>
      <trkpt lat="37.8920871019" lon="-3.0003182497">
        <ele>1250.81</ele>
        <time>2017-10-07T16:23:06Z</time>
      </trkpt>
      <trkpt lat="37.8921476193" lon="-3.0003782641">
        <ele>1251.29</ele>
        <time>2017-10-07T16:23:13Z</time>
      </trkpt>
      <trkpt lat="37.8921850864" lon="-3.0004428886">
        <ele>1251.77</ele>
        <time>2017-10-07T16:23:18Z</time>
      </trkpt>
      <trkpt lat="37.8923137486" lon="-3.0006159749">
        <ele>1252.74</ele>
        <time>2017-10-07T16:23:34Z</time>
      </trkpt>
      <trkpt lat="37.8923876770" lon="-3.0007519294">
        <ele>1253.70</ele>
        <time>2017-10-07T16:23:46Z</time>
      </trkpt>
      <trkpt lat="37.8924631141" lon="-3.0008603912">
        <ele>1255.14</ele>
        <time>2017-10-07T16:23:57Z</time>
      </trkpt>
      <trkpt lat="37.8924651258" lon="-3.0008986127">
        <ele>1255.14</ele>
        <time>2017-10-07T16:24:00Z</time>
      </trkpt>
      <trkpt lat="37.8925165068" lon="-3.0009813420">
        <ele>1256.58</ele>
        <time>2017-10-07T16:24:09Z</time>
      </trkpt>
      <trkpt lat="37.8925421555" lon="-3.0010397639">
        <ele>1257.06</ele>
        <time>2017-10-07T16:24:14Z</time>
      </trkpt>
      <trkpt lat="37.8926398046" lon="-3.0011130217">
        <ele>1257.54</ele>
        <time>2017-10-07T16:24:24Z</time>
      </trkpt>
      <trkpt lat="37.8927715681" lon="-3.0011978466">
        <ele>1258.98</ele>
        <time>2017-10-07T16:24:35Z</time>
      </trkpt>
      <trkpt lat="37.8928935248" lon="-3.0013070628">
        <ele>1259.94</ele>
        <time>2017-10-07T16:24:48Z</time>
      </trkpt>
      <trkpt lat="37.8929121327" lon="-3.0013384949">
        <ele>1260.43</ele>
        <time>2017-10-07T16:24:51Z</time>
      </trkpt>
      <trkpt lat="37.8929956164" lon="-3.0014620442">
        <ele>1261.39</ele>
        <time>2017-10-07T16:25:03Z</time>
      </trkpt>
      <trkpt lat="37.8930066805" lon="-3.0014702585">
        <ele>1261.39</ele>
        <time>2017-10-07T16:25:13Z</time>
      </trkpt>
      <trkpt lat="37.8930607438" lon="-3.0015309434">
        <ele>1261.87</ele>
        <time>2017-10-07T16:25:28Z</time>
      </trkpt>
      <trkpt lat="37.8930921759" lon="-3.0016363040">
        <ele>1262.83</ele>
        <time>2017-10-07T16:25:38Z</time>
      </trkpt>
      <trkpt lat="37.8931273799" lon="-3.0018120725">
        <ele>1263.31</ele>
        <time>2017-10-07T16:25:52Z</time>
      </trkpt>
      <trkpt lat="37.8931351751" lon="-3.0018552393">
        <ele>1263.79</ele>
        <time>2017-10-07T16:26:03Z</time>
      </trkpt>
      <trkpt lat="37.8931348398" lon="-3.0019428302">
        <ele>1264.27</ele>
        <time>2017-10-07T16:26:16Z</time>
      </trkpt>
      <trkpt lat="37.8931317385" lon="-3.0021207780">
        <ele>1265.71</ele>
        <time>2017-10-07T16:26:29Z</time>
      </trkpt>
      <trkpt lat="37.8931358457" lon="-3.0021247175">
        <ele>1265.71</ele>
        <time>2017-10-07T16:26:37Z</time>
      </trkpt>
      <trkpt lat="37.8931072634" lon="-3.0022821296">
        <ele>1266.67</ele>
        <time>2017-10-07T16:26:44Z</time>
      </trkpt>
      <trkpt lat="37.8930971213" lon="-3.0025833752">
        <ele>1268.12</ele>
        <time>2017-10-07T16:26:56Z</time>
      </trkpt>
      <trkpt lat="37.8930658568" lon="-3.0027676933">
        <ele>1269.08</ele>
        <time>2017-10-07T16:27:05Z</time>
      </trkpt>
      <trkpt lat="37.8929613344" lon="-3.0029727984">
        <ele>1270.04</ele>
        <time>2017-10-07T16:27:16Z</time>
      </trkpt>
      <trkpt lat="37.8927945346" lon="-3.0031545181">
        <ele>1271.00</ele>
        <time>2017-10-07T16:27:27Z</time>
      </trkpt>
      <trkpt lat="37.8926065285" lon="-3.0033898819">
        <ele>1271.48</ele>
        <time>2017-10-07T16:27:40Z</time>
      </trkpt>
      <trkpt lat="37.8925595898" lon="-3.0036912113">
        <ele>1271.48</ele>
        <time>2017-10-07T16:27:51Z</time>
      </trkpt>
      <trkpt lat="37.8926346079" lon="-3.0040005874">
        <ele>1271.00</ele>
        <time>2017-10-07T16:28:00Z</time>
      </trkpt>
      <trkpt lat="37.8926953766" lon="-3.0043504480">
        <ele>1270.04</ele>
        <time>2017-10-07T16:28:08Z</time>
      </trkpt>
      <trkpt lat="37.8928033356" lon="-3.0047072656">
        <ele>1270.52</ele>
        <time>2017-10-07T16:28:16Z</time>
      </trkpt>
      <trkpt lat="37.8929803614" lon="-3.0051007960">
        <ele>1270.04</ele>
        <time>2017-10-07T16:28:26Z</time>
      </trkpt>
      <trkpt lat="37.8930919245" lon="-3.0052048992">
        <ele>1269.56</ele>
        <time>2017-10-07T16:28:30Z</time>
      </trkpt>
      <trkpt lat="37.8931847122" lon="-3.0052366666">
        <ele>1269.56</ele>
        <time>2017-10-07T16:28:32Z</time>
      </trkpt>
      <trkpt lat="37.8932298906" lon="-3.0052493233">
        <ele>1269.56</ele>
        <time>2017-10-07T16:28:33Z</time>
      </trkpt>
      <trkpt lat="37.8935541026" lon="-3.0053639878">
        <ele>1269.56</ele>
        <time>2017-10-07T16:28:42Z</time>
      </trkpt>
      <trkpt lat="37.8935892228" lon="-3.0054529198">
        <ele>1269.56</ele>
        <time>2017-10-07T16:28:44Z</time>
      </trkpt>
      <trkpt lat="37.8935985267" lon="-3.0055044685">
        <ele>1269.56</ele>
        <time>2017-10-07T16:28:45Z</time>
      </trkpt>
      <trkpt lat="37.8935962636" lon="-3.0055533350">
        <ele>1269.56</ele>
        <time>2017-10-07T16:28:46Z</time>
      </trkpt>
      <trkpt lat="37.8935806733" lon="-3.0055971723">
        <ele>1269.08</ele>
        <time>2017-10-07T16:28:47Z</time>
      </trkpt>
      <trkpt lat="37.8935589641" lon="-3.0056405067">
        <ele>1269.08</ele>
        <time>2017-10-07T16:28:48Z</time>
      </trkpt>
      <trkpt lat="37.8933782503" lon="-3.0060427543">
        <ele>1268.60</ele>
        <time>2017-10-07T16:28:58Z</time>
      </trkpt>
      <trkpt lat="37.8933629114" lon="-3.0063781980">
        <ele>1267.64</ele>
        <time>2017-10-07T16:29:06Z</time>
      </trkpt>
      <trkpt lat="37.8934676014" lon="-3.0066102929">
        <ele>1266.67</ele>
        <time>2017-10-07T16:29:11Z</time>
      </trkpt>
      <trkpt lat="37.8936236724" lon="-3.0068924278">
        <ele>1266.19</ele>
        <time>2017-10-07T16:29:17Z</time>
      </trkpt>
      <trkpt lat="37.8936411906" lon="-3.0069444794">
        <ele>1266.19</ele>
        <time>2017-10-07T16:29:18Z</time>
      </trkpt>
      <trkpt lat="37.8936556913" lon="-3.0070002191">
        <ele>1266.19</ele>
        <time>2017-10-07T16:29:19Z</time>
      </trkpt>
      <trkpt lat="37.8936657496" lon="-3.0070563778">
        <ele>1266.19</ele>
        <time>2017-10-07T16:29:20Z</time>
      </trkpt>
      <trkpt lat="37.8936700244" lon="-3.0071127042">
        <ele>1265.71</ele>
        <time>2017-10-07T16:29:21Z</time>
      </trkpt>
      <trkpt lat="37.8936666716" lon="-3.0071705393">
        <ele>1265.71</ele>
        <time>2017-10-07T16:29:22Z</time>
      </trkpt>
      <trkpt lat="37.8936540987" lon="-3.0072304700">
        <ele>1265.23</ele>
        <time>2017-10-07T16:29:23Z</time>
      </trkpt>
      <trkpt lat="37.8936305456" lon="-3.0072853714">
        <ele>1265.23</ele>
        <time>2017-10-07T16:29:24Z</time>
      </trkpt>
      <trkpt lat="37.8935971856" lon="-3.0073335674">
        <ele>1265.23</ele>
        <time>2017-10-07T16:29:25Z</time>
      </trkpt>
      <trkpt lat="37.8935577068" lon="-3.0073766503">
        <ele>1264.75</ele>
        <time>2017-10-07T16:29:26Z</time>
      </trkpt>
      <trkpt lat="37.8935126960" lon="-3.0074131954">
        <ele>1264.75</ele>
        <time>2017-10-07T16:29:27Z</time>
      </trkpt>
      <trkpt lat="37.8934658412" lon="-3.0074478965">
        <ele>1264.75</ele>
        <time>2017-10-07T16:29:28Z</time>
      </trkpt>
      <trkpt lat="37.8934166394" lon="-3.0074808374">
        <ele>1264.75</ele>
        <time>2017-10-07T16:29:29Z</time>
      </trkpt>
      <trkpt lat="37.8932222631" lon="-3.0076312926">
        <ele>1263.79</ele>
        <time>2017-10-07T16:29:33Z</time>
      </trkpt>
      <trkpt lat="37.8931871429" lon="-3.0076856911">
        <ele>1263.79</ele>
        <time>2017-10-07T16:29:34Z</time>
      </trkpt>
      <trkpt lat="37.8929803614" lon="-3.0080926325">
        <ele>1264.27</ele>
        <time>2017-10-07T16:29:43Z</time>
      </trkpt>
      <trkpt lat="37.8927082848" lon="-3.0083305109">
        <ele>1266.19</ele>
        <time>2017-10-07T16:29:52Z</time>
      </trkpt>
      <trkpt lat="37.8924042732" lon="-3.0085845664">
        <ele>1265.23</ele>
        <time>2017-10-07T16:30:02Z</time>
      </trkpt>
      <trkpt lat="37.8919524886" lon="-3.0088599119">
        <ele>1266.19</ele>
        <time>2017-10-07T16:30:16Z</time>
      </trkpt>
      <trkpt lat="37.8916618042" lon="-3.0089573935">
        <ele>1267.16</ele>
        <time>2017-10-07T16:30:25Z</time>
      </trkpt>
      <trkpt lat="37.8914262727" lon="-3.0088065192">
        <ele>1267.64</ele>
        <time>2017-10-07T16:30:33Z</time>
      </trkpt>
      <trkpt lat="37.8914137837" lon="-3.0085479375">
        <ele>1268.60</ele>
        <time>2017-10-07T16:30:41Z</time>
      </trkpt>
      <trkpt lat="37.8914053179" lon="-3.0082744360">
        <ele>1268.60</ele>
        <time>2017-10-07T16:30:50Z</time>
      </trkpt>
      <trkpt lat="37.8912591375" lon="-3.0081472825">
        <ele>1269.56</ele>
        <time>2017-10-07T16:30:58Z</time>
      </trkpt>
      <trkpt lat="37.8910212591" lon="-3.0080353003">
        <ele>1270.04</ele>
        <time>2017-10-07T16:31:08Z</time>
      </trkpt>
      <trkpt lat="37.8907680418" lon="-3.0079446081">
        <ele>1271.48</ele>
        <time>2017-10-07T16:31:19Z</time>
      </trkpt>
      <trkpt lat="37.8906974662" lon="-3.0079079792">
        <ele>1271.48</ele>
        <time>2017-10-07T16:31:22Z</time>
      </trkpt>
      <trkpt lat="37.8906719852" lon="-3.0079045426">
        <ele>1271.48</ele>
        <time>2017-10-07T16:31:23Z</time>
      </trkpt>
      <trkpt lat="37.8906470910" lon="-3.0079007708">
        <ele>1271.48</ele>
        <time>2017-10-07T16:31:24Z</time>
      </trkpt>
      <trkpt lat="37.8906237893" lon="-3.0078898743">
        <ele>1271.96</ele>
        <time>2017-10-07T16:31:25Z</time>
      </trkpt>
      <trkpt lat="37.8905995656" lon="-3.0078786425">
        <ele>1271.96</ele>
        <time>2017-10-07T16:31:26Z</time>
      </trkpt>
      <trkpt lat="37.8905725759" lon="-3.0078724399">
        <ele>1271.96</ele>
        <time>2017-10-07T16:31:27Z</time>
      </trkpt>
      <trkpt lat="37.8902782034" lon="-3.0078001879">
        <ele>1272.92</ele>
        <time>2017-10-07T16:31:38Z</time>
      </trkpt>
      <trkpt lat="37.8899883572" lon="-3.0076803267">
        <ele>1273.88</ele>
        <time>2017-10-07T16:31:50Z</time>
      </trkpt>
      <trkpt lat="37.8897224832" lon="-3.0074954219">
        <ele>1274.85</ele>
        <time>2017-10-07T16:32:03Z</time>
      </trkpt>
      <trkpt lat="37.8895053919" lon="-3.0074065737">
        <ele>1275.33</ele>
        <time>2017-10-07T16:32:13Z</time>
      </trkpt>
      <trkpt lat="37.8892961796" lon="-3.0074105132">
        <ele>1276.29</ele>
        <time>2017-10-07T16:32:22Z</time>
      </trkpt>
      <trkpt lat="37.8890583012" lon="-3.0074670911">
        <ele>1277.25</ele>
        <time>2017-10-07T16:32:32Z</time>
      </trkpt>
      <trkpt lat="37.8888902441" lon="-3.0075022113">
        <ele>1277.25</ele>
        <time>2017-10-07T16:32:39Z</time>
      </trkpt>
      <trkpt lat="37.8888702113" lon="-3.0075126886">
        <ele>1277.25</ele>
        <time>2017-10-07T16:32:40Z</time>
      </trkpt>
      <trkpt lat="37.8888507653" lon="-3.0075197294">
        <ele>1277.25</ele>
        <time>2017-10-07T16:32:41Z</time>
      </trkpt>
      <trkpt lat="37.8888259549" lon="-3.0075197294">
        <ele>1277.25</ele>
        <time>2017-10-07T16:32:42Z</time>
      </trkpt>
      <trkpt lat="37.8888027370" lon="-3.0075233337">
        <ele>1277.25</ele>
        <time>2017-10-07T16:32:43Z</time>
      </trkpt>
      <trkpt lat="37.8887770884" lon="-3.0075331405">
        <ele>1277.25</ele>
        <time>2017-10-07T16:32:44Z</time>
      </trkpt>
      <trkpt lat="37.8887527809" lon="-3.0075452942">
        <ele>1277.25</ele>
        <time>2017-10-07T16:32:45Z</time>
      </trkpt>
      <trkpt lat="37.8887319937" lon="-3.0075602140">
        <ele>1277.25</ele>
        <time>2017-10-07T16:32:46Z</time>
      </trkpt>
      <trkpt lat="37.8887137212" lon="-3.0075792409">
        <ele>1277.25</ele>
        <time>2017-10-07T16:32:47Z</time>
      </trkpt>
      <trkpt lat="37.8886822052" lon="-3.0076255091">
        <ele>1277.25</ele>
        <time>2017-10-07T16:32:49Z</time>
      </trkpt>
      <trkpt lat="37.8886672854" lon="-3.0076857749">
        <ele>1277.25</ele>
        <time>2017-10-07T16:32:51Z</time>
      </trkpt>
      <trkpt lat="37.8886613343" lon="-3.0077136029">
        <ele>1277.73</ele>
        <time>2017-10-07T16:32:52Z</time>
      </trkpt>
      <trkpt lat="37.8885955364" lon="-3.0079333764">
        <ele>1278.21</ele>
        <time>2017-10-07T16:33:02Z</time>
      </trkpt>
      <trkpt lat="37.8885517828" lon="-3.0079736095">
        <ele>1278.21</ele>
        <time>2017-10-07T16:33:12Z</time>
      </trkpt>
      <trkpt lat="37.8885392938" lon="-3.0079816561">
        <ele>1278.21</ele>
        <time>2017-10-07T16:33:13Z</time>
      </trkpt>
      <trkpt lat="37.8885331750" lon="-3.0079907924">
        <ele>1278.69</ele>
        <time>2017-10-07T16:33:14Z</time>
      </trkpt>
      <trkpt lat="37.8885091189" lon="-3.0080915429">
        <ele>1278.69</ele>
        <time>2017-10-07T16:33:21Z</time>
      </trkpt>
      <trkpt lat="37.8885220271" lon="-3.0081192870">
        <ele>1278.69</ele>
        <time>2017-10-07T16:33:22Z</time>
      </trkpt>
      <trkpt lat="37.8885190096" lon="-3.0081629567">
        <ele>1278.69</ele>
        <time>2017-10-07T16:33:25Z</time>
      </trkpt>
      <trkpt lat="37.8884540498" lon="-3.0082984921">
        <ele>1279.65</ele>
        <time>2017-10-07T16:33:35Z</time>
      </trkpt>
      <trkpt lat="37.8884462547" lon="-3.0083207041">
        <ele>1279.65</ele>
        <time>2017-10-07T16:33:36Z</time>
      </trkpt>
      <trkpt lat="37.8884430695" lon="-3.0083411559">
        <ele>1279.65</ele>
        <time>2017-10-07T16:33:37Z</time>
      </trkpt>
      <trkpt lat="37.8884385433" lon="-3.0083582550">
        <ele>1279.65</ele>
        <time>2017-10-07T16:33:38Z</time>
      </trkpt>
      <trkpt lat="37.8884320892" lon="-3.0083751027">
        <ele>1279.65</ele>
        <time>2017-10-07T16:33:39Z</time>
      </trkpt>
      <trkpt lat="37.8884268086" lon="-3.0083908606">
        <ele>1279.65</ele>
        <time>2017-10-07T16:33:40Z</time>
      </trkpt>
      <trkpt lat="37.8884211928" lon="-3.0084125698">
        <ele>1279.65</ele>
        <time>2017-10-07T16:33:41Z</time>
      </trkpt>
      <trkpt lat="37.8884185944" lon="-3.0084318481">
        <ele>1279.65</ele>
        <time>2017-10-07T16:33:42Z</time>
      </trkpt>
      <trkpt lat="37.8883595858" lon="-3.0086201895">
        <ele>1280.13</ele>
        <time>2017-10-07T16:33:53Z</time>
      </trkpt>
      <trkpt lat="37.8883122280" lon="-3.0088192597">
        <ele>1280.61</ele>
        <time>2017-10-07T16:34:03Z</time>
      </trkpt>
      <trkpt lat="37.8882778622" lon="-3.0089929327">
        <ele>1281.09</ele>
        <time>2017-10-07T16:34:13Z</time>
      </trkpt>
      <trkpt lat="37.8882784490" lon="-3.0090143066">
        <ele>1281.09</ele>
        <time>2017-10-07T16:34:14Z</time>
      </trkpt>
      <trkpt lat="37.8882600088" lon="-3.0091797654">
        <ele>1281.57</ele>
        <time>2017-10-07T16:34:24Z</time>
      </trkpt>
      <trkpt lat="37.8882471845" lon="-3.0092185736">
        <ele>1281.57</ele>
        <time>2017-10-07T16:34:26Z</time>
      </trkpt>
      <trkpt lat="37.8882397246" lon="-3.0092326552">
        <ele>1282.06</ele>
        <time>2017-10-07T16:34:27Z</time>
      </trkpt>
      <trkpt lat="37.8882343601" lon="-3.0092571303">
        <ele>1281.57</ele>
        <time>2017-10-07T16:34:28Z</time>
      </trkpt>
      <trkpt lat="37.8882327676" lon="-3.0092841201">
        <ele>1282.06</ele>
        <time>2017-10-07T16:34:29Z</time>
      </trkpt>
      <trkpt lat="37.8882341087" lon="-3.0093045719">
        <ele>1282.06</ele>
        <time>2017-10-07T16:34:30Z</time>
      </trkpt>
      <trkpt lat="37.8881488647" lon="-3.0095200706">
        <ele>1283.02</ele>
        <time>2017-10-07T16:34:42Z</time>
      </trkpt>
      <trkpt lat="37.8880672250" lon="-3.0097214878">
        <ele>1283.98</ele>
        <time>2017-10-07T16:34:54Z</time>
      </trkpt>
      <trkpt lat="37.8880216274" lon="-3.0097970925">
        <ele>1283.98</ele>
        <time>2017-10-07T16:35:00Z</time>
      </trkpt>
      <trkpt lat="37.8880147543" lon="-3.0098131858">
        <ele>1283.98</ele>
        <time>2017-10-07T16:35:01Z</time>
      </trkpt>
      <trkpt lat="37.8880045284" lon="-3.0098279379">
        <ele>1284.46</ele>
        <time>2017-10-07T16:35:02Z</time>
      </trkpt>
      <trkpt lat="37.8879922908" lon="-3.0098394211">
        <ele>1284.46</ele>
        <time>2017-10-07T16:35:03Z</time>
      </trkpt>
      <trkpt lat="37.8879810590" lon="-3.0098509043">
        <ele>1284.46</ele>
        <time>2017-10-07T16:35:04Z</time>
      </trkpt>
      <trkpt lat="37.8879693244" lon="-3.0098597053">
        <ele>1284.46</ele>
        <time>2017-10-07T16:35:05Z</time>
      </trkpt>
      <trkpt lat="37.8879564162" lon="-3.0098669976">
        <ele>1284.46</ele>
        <time>2017-10-07T16:35:06Z</time>
      </trkpt>
      <trkpt lat="37.8879445978" lon="-3.0098715238">
        <ele>1284.46</ele>
        <time>2017-10-07T16:35:07Z</time>
      </trkpt>
      <trkpt lat="37.8878215514" lon="-3.0099348910">
        <ele>1285.42</ele>
        <time>2017-10-07T16:35:18Z</time>
      </trkpt>
      <trkpt lat="37.8876503091" lon="-3.0099885352">
        <ele>1285.90</ele>
        <time>2017-10-07T16:35:30Z</time>
      </trkpt>
      <trkpt lat="37.8876345512" lon="-3.0099943187">
        <ele>1285.90</ele>
        <time>2017-10-07T16:35:31Z</time>
      </trkpt>
      <trkpt lat="37.8876198828" lon="-3.0099961627">
        <ele>1285.90</ele>
        <time>2017-10-07T16:35:32Z</time>
      </trkpt>
      <trkpt lat="37.8875469603" lon="-3.0100264214">
        <ele>1285.90</ele>
        <time>2017-10-07T16:35:37Z</time>
      </trkpt>
      <trkpt lat="37.8875348065" lon="-3.0100345518">
        <ele>1286.38</ele>
        <time>2017-10-07T16:35:38Z</time>
      </trkpt>
      <trkpt lat="37.8875212278" lon="-3.0100421794">
        <ele>1286.38</ele>
        <time>2017-10-07T16:35:39Z</time>
      </trkpt>
      <trkpt lat="37.8875090741" lon="-3.0100500584">
        <ele>1286.38</ele>
        <time>2017-10-07T16:35:40Z</time>
      </trkpt>
      <trkpt lat="37.8874958307" lon="-3.0100602005">
        <ele>1286.38</ele>
        <time>2017-10-07T16:35:41Z</time>
      </trkpt>
      <trkpt lat="37.8874838445" lon="-3.0100698397">
        <ele>1286.38</ele>
        <time>2017-10-07T16:35:42Z</time>
      </trkpt>
      <trkpt lat="37.8874695953" lon="-3.0100777186">
        <ele>1286.38</ele>
        <time>2017-10-07T16:35:43Z</time>
      </trkpt>
      <trkpt lat="37.8873536736" lon="-3.0102582648">
        <ele>1287.82</ele>
        <time>2017-10-07T16:35:56Z</time>
      </trkpt>
      <trkpt lat="37.8873158712" lon="-3.0103255715">
        <ele>1288.30</ele>
        <time>2017-10-07T16:36:01Z</time>
      </trkpt>
      <trkpt lat="37.8873058967" lon="-3.0103300977">
        <ele>1288.30</ele>
        <time>2017-10-07T16:36:02Z</time>
      </trkpt>
      <trkpt lat="37.8872953355" lon="-3.0103421677">
        <ele>1288.30</ele>
        <time>2017-10-07T16:36:03Z</time>
      </trkpt>
      <trkpt lat="37.8872860316" lon="-3.0103585962">
        <ele>1288.30</ele>
        <time>2017-10-07T16:36:04Z</time>
      </trkpt>
      <trkpt lat="37.8872804157" lon="-3.0103824008">
        <ele>1288.30</ele>
        <time>2017-10-07T16:36:05Z</time>
      </trkpt>
      <trkpt lat="37.8872446250" lon="-3.0104433373">
        <ele>1288.78</ele>
        <time>2017-10-07T16:36:09Z</time>
      </trkpt>
      <trkpt lat="37.8872367460" lon="-3.0104572512">
        <ele>1288.78</ele>
        <time>2017-10-07T16:36:10Z</time>
      </trkpt>
      <trkpt lat="37.8872280288" lon="-3.0104705784">
        <ele>1288.78</ele>
        <time>2017-10-07T16:36:11Z</time>
      </trkpt>
      <trkpt lat="37.8871158790" lon="-3.0106112268">
        <ele>1289.75</ele>
        <time>2017-10-07T16:36:23Z</time>
      </trkpt>
      <trkpt lat="37.8870385140" lon="-3.0107701477">
        <ele>1290.23</ele>
        <time>2017-10-07T16:36:34Z</time>
      </trkpt>
      <trkpt lat="37.8869396914" lon="-3.0109530408">
        <ele>1290.71</ele>
        <time>2017-10-07T16:36:46Z</time>
      </trkpt>
      <trkpt lat="37.8868949320" lon="-3.0110581499">
        <ele>1291.19</ele>
        <time>2017-10-07T16:36:53Z</time>
      </trkpt>
      <trkpt lat="37.8868899029" lon="-3.0111046694">
        <ele>1291.19</ele>
        <time>2017-10-07T16:36:56Z</time>
      </trkpt>
      <trkpt lat="37.8868857957" lon="-3.0111200921">
        <ele>1291.19</ele>
        <time>2017-10-07T16:36:57Z</time>
      </trkpt>
      <trkpt lat="37.8868841194" lon="-3.0111366883">
        <ele>1291.19</ele>
        <time>2017-10-07T16:36:58Z</time>
      </trkpt>
      <trkpt lat="37.8868813533" lon="-3.0111544579">
        <ele>1291.19</ele>
        <time>2017-10-07T16:36:59Z</time>
      </trkpt>
      <trkpt lat="37.8868472390" lon="-3.0113170668">
        <ele>1291.67</ele>
        <time>2017-10-07T16:37:09Z</time>
      </trkpt>
      <trkpt lat="37.8868452273" lon="-3.0113501754">
        <ele>1291.67</ele>
        <time>2017-10-07T16:37:11Z</time>
      </trkpt>
      <trkpt lat="37.8868488315" lon="-3.0113699567">
        <ele>1291.67</ele>
        <time>2017-10-07T16:37:12Z</time>
      </trkpt>
      <trkpt lat="37.8868515976" lon="-3.0113924202">
        <ele>1291.67</ele>
        <time>2017-10-07T16:37:13Z</time>
      </trkpt>
      <trkpt lat="37.8868563753" lon="-3.0114166439">
        <ele>1291.67</ele>
        <time>2017-10-07T16:37:14Z</time>
      </trkpt>
      <trkpt lat="37.8868652601" lon="-3.0114372633">
        <ele>1291.67</ele>
        <time>2017-10-07T16:37:15Z</time>
      </trkpt>
      <trkpt lat="37.8868708760" lon="-3.0114555359">
        <ele>1291.67</ele>
        <time>2017-10-07T16:37:16Z</time>
      </trkpt>
      <trkpt lat="37.8868738934" lon="-3.0114763230">
        <ele>1292.15</ele>
        <time>2017-10-07T16:37:17Z</time>
      </trkpt>
      <trkpt lat="37.8868722171" lon="-3.0114968587">
        <ele>1291.67</ele>
        <time>2017-10-07T16:37:18Z</time>
      </trkpt>
      <trkpt lat="37.8868732229" lon="-3.0115161370">
        <ele>1292.15</ele>
        <time>2017-10-07T16:37:19Z</time>
      </trkpt>
      <trkpt lat="37.8868721332" lon="-3.0115328170">
        <ele>1292.15</ele>
        <time>2017-10-07T16:37:20Z</time>
      </trkpt>
      <trkpt lat="37.8868563753" lon="-3.0115700327">
        <ele>1292.15</ele>
        <time>2017-10-07T16:37:22Z</time>
      </trkpt>
      <trkpt lat="37.8868637513" lon="-3.0116000399">
        <ele>1291.67</ele>
        <time>2017-10-07T16:37:24Z</time>
      </trkpt>
      <trkpt lat="37.8868663497" lon="-3.0116175581">
        <ele>1292.15</ele>
        <time>2017-10-07T16:37:25Z</time>
      </trkpt>
      <trkpt lat="37.8869007155" lon="-3.0117026344">
        <ele>1292.15</ele>
        <time>2017-10-07T16:37:29Z</time>
      </trkpt>
      <trkpt lat="37.8869117796" lon="-3.0117180571">
        <ele>1292.15</ele>
        <time>2017-10-07T16:37:30Z</time>
      </trkpt>
      <trkpt lat="37.8869203292" lon="-3.0117367487">
        <ele>1292.63</ele>
        <time>2017-10-07T16:37:31Z</time>
      </trkpt>
      <trkpt lat="37.8869306389" lon="-3.0117551051">
        <ele>1292.63</ele>
        <time>2017-10-07T16:37:32Z</time>
      </trkpt>
      <trkpt lat="37.8869364224" lon="-3.0117720366">
        <ele>1292.63</ele>
        <time>2017-10-07T16:37:33Z</time>
      </trkpt>
      <trkpt lat="37.8869437985" lon="-3.0117892195">
        <ele>1292.63</ele>
        <time>2017-10-07T16:37:34Z</time>
      </trkpt>
      <trkpt lat="37.8869520128" lon="-3.0118067376">
        <ele>1292.63</ele>
        <time>2017-10-07T16:37:35Z</time>
      </trkpt>
      <trkpt lat="37.8869606461" lon="-3.0118220765">
        <ele>1292.63</ele>
        <time>2017-10-07T16:37:36Z</time>
      </trkpt>
      <trkpt lat="37.8869728837" lon="-3.0118359067">
        <ele>1292.63</ele>
        <time>2017-10-07T16:37:37Z</time>
      </trkpt>
      <trkpt lat="37.8869829420" lon="-3.0118502397">
        <ele>1292.63</ele>
        <time>2017-10-07T16:37:38Z</time>
      </trkpt>
      <trkpt lat="37.8869912401" lon="-3.0118669197">
        <ele>1293.11</ele>
        <time>2017-10-07T16:37:39Z</time>
      </trkpt>
      <trkpt lat="37.8870621510" lon="-3.0120144412">
        <ele>1293.59</ele>
        <time>2017-10-07T16:37:49Z</time>
      </trkpt>
      <trkpt lat="37.8870691080" lon="-3.0120268464">
        <ele>1293.59</ele>
        <time>2017-10-07T16:37:50Z</time>
      </trkpt>
      <trkpt lat="37.8870770708" lon="-3.0120408442">
        <ele>1293.59</ele>
        <time>2017-10-07T16:37:51Z</time>
      </trkpt>
      <trkpt lat="37.8870824352" lon="-3.0120561831">
        <ele>1294.07</ele>
        <time>2017-10-07T16:37:52Z</time>
      </trkpt>
      <trkpt lat="37.8870887216" lon="-3.0120715220">
        <ele>1294.07</ele>
        <time>2017-10-07T16:37:53Z</time>
      </trkpt>
      <trkpt lat="37.8870976064" lon="-3.0120874476">
        <ele>1294.07</ele>
        <time>2017-10-07T16:37:54Z</time>
      </trkpt>
      <trkpt lat="37.8871054854" lon="-3.0121019483">
        <ele>1294.07</ele>
        <time>2017-10-07T16:37:55Z</time>
      </trkpt>
      <trkpt lat="37.8871252667" lon="-3.0122881941">
        <ele>1295.03</ele>
        <time>2017-10-07T16:38:06Z</time>
      </trkpt>
      <trkpt lat="37.8871305473" lon="-3.0123516452">
        <ele>1295.03</ele>
        <time>2017-10-07T16:38:10Z</time>
      </trkpt>
      <trkpt lat="37.8871388454" lon="-3.0124423373">
        <ele>1295.51</ele>
        <time>2017-10-07T16:38:16Z</time>
      </trkpt>
      <trkpt lat="37.8871111013" lon="-3.0126041919">
        <ele>1295.99</ele>
        <time>2017-10-07T16:38:25Z</time>
      </trkpt>
      <trkpt lat="37.8870875482" lon="-3.0126862507">
        <ele>1295.99</ele>
        <time>2017-10-07T16:38:29Z</time>
      </trkpt>
      <trkpt lat="37.8870925773" lon="-3.0128151644">
        <ele>1296.48</ele>
        <time>2017-10-07T16:38:36Z</time>
      </trkpt>
      <trkpt lat="37.8870846145" lon="-3.0130064394">
        <ele>1297.44</ele>
        <time>2017-10-07T16:38:47Z</time>
      </trkpt>
      <trkpt lat="37.8869877197" lon="-3.0131905060">
        <ele>1298.40</ele>
        <time>2017-10-07T16:38:59Z</time>
      </trkpt>
      <trkpt lat="37.8869736381" lon="-3.0132178310">
        <ele>1298.40</ele>
        <time>2017-10-07T16:39:01Z</time>
      </trkpt>
      <trkpt lat="37.8868125379" lon="-3.0133359320">
        <ele>1299.84</ele>
        <time>2017-10-07T16:39:14Z</time>
      </trkpt>
      <trkpt lat="37.8866627533" lon="-3.0133122113">
        <ele>1300.80</ele>
        <time>2017-10-07T16:39:25Z</time>
      </trkpt>
      <trkpt lat="37.8866438940" lon="-3.0132984649">
        <ele>1301.28</ele>
        <time>2017-10-07T16:39:33Z</time>
      </trkpt>
      <trkpt lat="37.8865055088" lon="-3.0132133048">
        <ele>1301.76</ele>
        <time>2017-10-07T16:39:43Z</time>
      </trkpt>
      <trkpt lat="37.8864452429" lon="-3.0131703895">
        <ele>1302.24</ele>
        <time>2017-10-07T16:39:47Z</time>
      </trkpt>
      <trkpt lat="37.8863127250" lon="-3.0130403023">
        <ele>1303.69</ele>
        <time>2017-10-07T16:39:57Z</time>
      </trkpt>
      <trkpt lat="37.8861776926" lon="-3.0128878355">
        <ele>1304.65</ele>
        <time>2017-10-07T16:40:10Z</time>
      </trkpt>
      <trkpt lat="37.8860559873" lon="-3.0127429124">
        <ele>1305.61</ele>
        <time>2017-10-07T16:40:21Z</time>
      </trkpt>
      <trkpt lat="37.8859513812" lon="-3.0125571694">
        <ele>1307.05</ele>
        <time>2017-10-07T16:40:33Z</time>
      </trkpt>
      <trkpt lat="37.8859372158" lon="-3.0124142580">
        <ele>1307.53</ele>
        <time>2017-10-07T16:40:42Z</time>
      </trkpt>
      <trkpt lat="37.8860107251" lon="-3.0122394953">
        <ele>1308.49</ele>
        <time>2017-10-07T16:40:53Z</time>
      </trkpt>
      <trkpt lat="37.8860139102" lon="-3.0122219771">
        <ele>1308.49</ele>
        <time>2017-10-07T16:40:54Z</time>
      </trkpt>
      <trkpt lat="37.8860432468" lon="-3.0121379066">
        <ele>1312.82</ele>
        <time>2017-10-07T16:41:00Z</time>
      </trkpt>
      <trkpt lat="37.8860485274" lon="-3.0121191312">
        <ele>1306.57</ele>
        <time>2017-10-07T16:41:01Z</time>
      </trkpt>
      <trkpt lat="37.8860556521" lon="-3.0121012777">
        <ele>1310.90</ele>
        <time>2017-10-07T16:41:02Z</time>
      </trkpt>
      <trkpt lat="37.8861189354" lon="-3.0119810812">
        <ele>1309.45</ele>
        <time>2017-10-07T16:41:10Z</time>
      </trkpt>
      <trkpt lat="37.8861869965" lon="-3.0117540993">
        <ele>1310.41</ele>
        <time>2017-10-07T16:41:23Z</time>
      </trkpt>
      <trkpt lat="37.8862079512" lon="-3.0115985312">
        <ele>1310.90</ele>
        <time>2017-10-07T16:41:32Z</time>
      </trkpt>
      <trkpt lat="37.8862200212" lon="-3.0115444679">
        <ele>1311.38</ele>
        <time>2017-10-07T16:41:35Z</time>
      </trkpt>
      <trkpt lat="37.8862279840" lon="-3.0114623252">
        <ele>1311.38</ele>
        <time>2017-10-07T16:41:39Z</time>
      </trkpt>
      <trkpt lat="37.8862416465" lon="-3.0112226028">
        <ele>1312.82</ele>
        <time>2017-10-07T16:41:52Z</time>
      </trkpt>
      <trkpt lat="37.8862205241" lon="-3.0110367760">
        <ele>1313.78</ele>
        <time>2017-10-07T16:42:03Z</time>
      </trkpt>
      <trkpt lat="37.8861643653" lon="-3.0108680483">
        <ele>1315.22</ele>
        <time>2017-10-07T16:42:13Z</time>
      </trkpt>
      <trkpt lat="37.8860976454" lon="-3.0107337702">
        <ele>1316.18</ele>
        <time>2017-10-07T16:42:22Z</time>
      </trkpt>
      <trkpt lat="37.8860531375" lon="-3.0105911940">
        <ele>1316.66</ele>
        <time>2017-10-07T16:42:30Z</time>
      </trkpt>
      <trkpt lat="37.8860255610" lon="-3.0104761943">
        <ele>1317.14</ele>
        <time>2017-10-07T16:42:37Z</time>
      </trkpt>
      <trkpt lat="37.8860249743" lon="-3.0103722587">
        <ele>1317.62</ele>
        <time>2017-10-07T16:42:43Z</time>
      </trkpt>
      <trkpt lat="37.8860425763" lon="-3.0102914572">
        <ele>1318.10</ele>
        <time>2017-10-07T16:42:48Z</time>
      </trkpt>
      <trkpt lat="37.8861740883" lon="-3.0100995954">
        <ele>1319.07</ele>
        <time>2017-10-07T16:43:02Z</time>
      </trkpt>
      <trkpt lat="37.8862089571" lon="-3.0100684986">
        <ele>1319.55</ele>
        <time>2017-10-07T16:43:05Z</time>
      </trkpt>
      <trkpt lat="37.8863264713" lon="-3.0099259224">
        <ele>1320.03</ele>
        <time>2017-10-07T16:43:17Z</time>
      </trkpt>
      <trkpt lat="37.8864004835" lon="-3.0098120123">
        <ele>1320.99</ele>
        <time>2017-10-07T16:43:26Z</time>
      </trkpt>
      <trkpt lat="37.8864333406" lon="-3.0097758863">
        <ele>1321.47</ele>
        <time>2017-10-07T16:43:29Z</time>
      </trkpt>
      <trkpt lat="37.8864770103" lon="-3.0097134411">
        <ele>1321.95</ele>
        <time>2017-10-07T16:43:33Z</time>
      </trkpt>
      <trkpt lat="37.8865203448" lon="-3.0095935799">
        <ele>1322.43</ele>
        <time>2017-10-07T16:43:40Z</time>
      </trkpt>
      <trkpt lat="37.8865500167" lon="-3.0094417837">
        <ele>1323.39</ele>
        <time>2017-10-07T16:43:49Z</time>
      </trkpt>
      <trkpt lat="37.8865630087" lon="-3.0093759019">
        <ele>1323.39</ele>
        <time>2017-10-07T16:43:53Z</time>
      </trkpt>
      <trkpt lat="37.8866015654" lon="-3.0092200823">
        <ele>1324.35</ele>
        <time>2017-10-07T16:44:02Z</time>
      </trkpt>
      <trkpt lat="37.8866340034" lon="-3.0090423860">
        <ele>1324.83</ele>
        <time>2017-10-07T16:44:12Z</time>
      </trkpt>
      <trkpt lat="37.8866982087" lon="-3.0088674556">
        <ele>1325.80</ele>
        <time>2017-10-07T16:44:22Z</time>
      </trkpt>
      <trkpt lat="37.8868250269" lon="-3.0086673796">
        <ele>1326.76</ele>
        <time>2017-10-07T16:44:35Z</time>
      </trkpt>
      <trkpt lat="37.8869388532" lon="-3.0084726680">
        <ele>1327.72</ele>
        <time>2017-10-07T16:44:48Z</time>
      </trkpt>
      <trkpt lat="37.8869769070" lon="-3.0083177704">
        <ele>1328.68</ele>
        <time>2017-10-07T16:44:57Z</time>
      </trkpt>
      <trkpt lat="37.8869771585" lon="-3.0082703289">
        <ele>1323.39</ele>
        <time>2017-10-07T16:45:00Z</time>
      </trkpt>
      <trkpt lat="37.8869769070" lon="-3.0082568340">
        <ele>1332.52</ele>
        <time>2017-10-07T16:45:01Z</time>
      </trkpt>
      <trkpt lat="37.8869761527" lon="-3.0082431715">
        <ele>1328.20</ele>
        <time>2017-10-07T16:45:02Z</time>
      </trkpt>
      <trkpt lat="37.8869745601" lon="-3.0082315207">
        <ele>1329.64</ele>
        <time>2017-10-07T16:45:03Z</time>
      </trkpt>
      <trkpt lat="37.8869681899" lon="-3.0081959814">
        <ele>1329.16</ele>
        <time>2017-10-07T16:45:05Z</time>
      </trkpt>
      <trkpt lat="37.8869659267" lon="-3.0080292653">
        <ele>1329.64</ele>
        <time>2017-10-07T16:45:15Z</time>
      </trkpt>
      <trkpt lat="37.8869494982" lon="-3.0078341346">
        <ele>1330.60</ele>
        <time>2017-10-07T16:45:26Z</time>
      </trkpt>
      <trkpt lat="37.8869044036" lon="-3.0076887086">
        <ele>1331.56</ele>
        <time>2017-10-07T16:45:35Z</time>
      </trkpt>
      <trkpt lat="37.8867811896" lon="-3.0075073242">
        <ele>1333.01</ele>
        <time>2017-10-07T16:45:46Z</time>
      </trkpt>
      <trkpt lat="37.8866519406" lon="-3.0073226709">
        <ele>1333.97</ele>
        <time>2017-10-07T16:45:58Z</time>
      </trkpt>
      <trkpt lat="37.8865744080" lon="-3.0072164722">
        <ele>1334.45</ele>
        <time>2017-10-07T16:46:06Z</time>
      </trkpt>
      <trkpt lat="37.8865216020" lon="-3.0071816873">
        <ele>1334.93</ele>
        <time>2017-10-07T16:46:11Z</time>
      </trkpt>
      <trkpt lat="37.8863623459" lon="-3.0071432143">
        <ele>1335.89</ele>
        <time>2017-10-07T16:46:23Z</time>
      </trkpt>
      <trkpt lat="37.8863365296" lon="-3.0071351677">
        <ele>1335.89</ele>
        <time>2017-10-07T16:46:25Z</time>
      </trkpt>
      <trkpt lat="37.8862771858" lon="-3.0071274564">
        <ele>1336.37</ele>
        <time>2017-10-07T16:46:29Z</time>
      </trkpt>
      <trkpt lat="37.8861046862" lon="-3.0069982074">
        <ele>1337.33</ele>
        <time>2017-10-07T16:46:43Z</time>
      </trkpt>
      <trkpt lat="37.8860369604" lon="-3.0068392865">
        <ele>1338.29</ele>
        <time>2017-10-07T16:46:56Z</time>
      </trkpt>
      <trkpt lat="37.8860398941" lon="-3.0068323296">
        <ele>1338.29</ele>
        <time>2017-10-07T16:46:57Z</time>
      </trkpt>
      <trkpt lat="37.8860046063" lon="-3.0067482591">
        <ele>1338.77</ele>
        <time>2017-10-07T16:47:01Z</time>
      </trkpt>
      <trkpt lat="37.8859507944" lon="-3.0066505261">
        <ele>1339.25</ele>
        <time>2017-10-07T16:47:07Z</time>
      </trkpt>
      <trkpt lat="37.8858720884" lon="-3.0064990651">
        <ele>1340.22</ele>
        <time>2017-10-07T16:47:18Z</time>
      </trkpt>
      <trkpt lat="37.8858558275" lon="-3.0064683035">
        <ele>1340.22</ele>
        <time>2017-10-07T16:47:20Z</time>
      </trkpt>
      <trkpt lat="37.8858232219" lon="-3.0064230412">
        <ele>1340.70</ele>
        <time>2017-10-07T16:47:23Z</time>
      </trkpt>
      <trkpt lat="37.8857741039" lon="-3.0063758511">
        <ele>1341.18</ele>
        <time>2017-10-07T16:47:27Z</time>
      </trkpt>
      <trkpt lat="37.8856402449" lon="-3.0062225461">
        <ele>1342.14</ele>
        <time>2017-10-07T16:47:39Z</time>
      </trkpt>
      <trkpt lat="37.8855733573" lon="-3.0061640404">
        <ele>1342.62</ele>
        <time>2017-10-07T16:47:45Z</time>
      </trkpt>
      <trkpt lat="37.8854707628" lon="-3.0061078817">
        <ele>1343.10</ele>
        <time>2017-10-07T16:47:53Z</time>
      </trkpt>
      <trkpt lat="37.8853205591" lon="-3.0060064606">
        <ele>1343.58</ele>
        <time>2017-10-07T16:48:04Z</time>
      </trkpt>
      <trkpt lat="37.8853085730" lon="-3.0060024373">
        <ele>1343.58</ele>
        <time>2017-10-07T16:48:05Z</time>
      </trkpt>
      <trkpt lat="37.8852184676" lon="-3.0059233960">
        <ele>1344.06</ele>
        <time>2017-10-07T16:48:13Z</time>
      </trkpt>
      <trkpt lat="37.8851959202" lon="-3.0059105717">
        <ele>1344.06</ele>
        <time>2017-10-07T16:48:15Z</time>
      </trkpt>
      <trkpt lat="37.8851156216" lon="-3.0058804806">
        <ele>1345.02</ele>
        <time>2017-10-07T16:48:21Z</time>
      </trkpt>
      <trkpt lat="37.8850896377" lon="-3.0058789719">
        <ele>1344.54</ele>
        <time>2017-10-07T16:48:23Z</time>
      </trkpt>
      <trkpt lat="37.8849655855" lon="-3.0058537424">
        <ele>1345.50</ele>
        <time>2017-10-07T16:48:33Z</time>
      </trkpt>
      <trkpt lat="37.8848864604" lon="-3.0058338773">
        <ele>1345.98</ele>
        <time>2017-10-07T16:48:38Z</time>
      </trkpt>
      <trkpt lat="37.8848040663" lon="-3.0058473721">
        <ele>1346.46</ele>
        <time>2017-10-07T16:48:45Z</time>
      </trkpt>
      <trkpt lat="37.8847225942" lon="-3.0058625434">
        <ele>1346.94</ele>
        <time>2017-10-07T16:48:51Z</time>
      </trkpt>
      <trkpt lat="37.8845719714" lon="-3.0058824085">
        <ele>1348.39</ele>
        <time>2017-10-07T16:49:03Z</time>
      </trkpt>
      <trkpt lat="37.8844969533" lon="-3.0058881920">
        <ele>1348.39</ele>
        <time>2017-10-07T16:49:09Z</time>
      </trkpt>
      <trkpt lat="37.8843140602" lon="-3.0058926344">
        <ele>1349.83</ele>
        <time>2017-10-07T16:49:20Z</time>
      </trkpt>
      <trkpt lat="37.8842434846" lon="-3.0059348792">
        <ele>1350.31</ele>
        <time>2017-10-07T16:49:26Z</time>
      </trkpt>
      <trkpt lat="37.8840983100" lon="-3.0059571750">
        <ele>1351.27</ele>
        <time>2017-10-07T16:49:36Z</time>
      </trkpt>
      <trkpt lat="37.8839537222" lon="-3.0060239788">
        <ele>1352.23</ele>
        <time>2017-10-07T16:49:46Z</time>
      </trkpt>
      <trkpt lat="37.8837933764" lon="-3.0061699077">
        <ele>1353.19</ele>
        <time>2017-10-07T16:49:58Z</time>
      </trkpt>
      <trkpt lat="37.8836810589" lon="-3.0063546449">
        <ele>1354.15</ele>
        <time>2017-10-07T16:50:09Z</time>
      </trkpt>
      <trkpt lat="37.8836238105" lon="-3.0065444950">
        <ele>1354.15</ele>
        <time>2017-10-07T16:50:18Z</time>
      </trkpt>
      <trkpt lat="37.8835896123" lon="-3.0068213493">
        <ele>1354.63</ele>
        <time>2017-10-07T16:50:31Z</time>
      </trkpt>
      <trkpt lat="37.8835838288" lon="-3.0071036518">
        <ele>1355.12</ele>
        <time>2017-10-07T16:50:44Z</time>
      </trkpt>
      <trkpt lat="37.8836107347" lon="-3.0073251016">
        <ele>1356.08</ele>
        <time>2017-10-07T16:50:55Z</time>
      </trkpt>
      <trkpt lat="37.8836547397" lon="-3.0074700247">
        <ele>1356.08</ele>
        <time>2017-10-07T16:51:03Z</time>
      </trkpt>
      <trkpt lat="37.8836898599" lon="-3.0076530017">
        <ele>1356.56</ele>
        <time>2017-10-07T16:51:12Z</time>
      </trkpt>
      <trkpt lat="37.8837154247" lon="-3.0077909678">
        <ele>1356.56</ele>
        <time>2017-10-07T16:51:18Z</time>
      </trkpt>
      <trkpt lat="37.8837155923" lon="-3.0080033652">
        <ele>1356.56</ele>
        <time>2017-10-07T16:51:27Z</time>
      </trkpt>
      <trkpt lat="37.8836295102" lon="-3.0081329495">
        <ele>1356.56</ele>
        <time>2017-10-07T16:51:33Z</time>
      </trkpt>
      <trkpt lat="37.8835332859" lon="-3.0082327779">
        <ele>1356.08</ele>
        <time>2017-10-07T16:51:40Z</time>
      </trkpt>
      <trkpt lat="37.8833202180" lon="-3.0083811376">
        <ele>1355.12</ele>
        <time>2017-10-07T16:51:51Z</time>
      </trkpt>
      <trkpt lat="37.8833206370" lon="-3.0083901063">
        <ele>1355.12</ele>
        <time>2017-10-07T16:52:01Z</time>
      </trkpt>
      <trkpt lat="37.8832833376" lon="-3.0084094685">
        <ele>1355.12</ele>
        <time>2017-10-07T16:52:21Z</time>
      </trkpt>
      <trkpt lat="37.8830760531" lon="-3.0084760208">
        <ele>1354.15</ele>
        <time>2017-10-07T16:52:30Z</time>
      </trkpt>
      <trkpt lat="37.8827821836" lon="-3.0085399747">
        <ele>1353.19</ele>
        <time>2017-10-07T16:52:40Z</time>
      </trkpt>
      <trkpt lat="37.8826900665" lon="-3.0086323433">
        <ele>1352.23</ele>
        <time>2017-10-07T16:52:48Z</time>
      </trkpt>
      <trkpt lat="37.8826790024" lon="-3.0086441617">
        <ele>1351.75</ele>
        <time>2017-10-07T16:52:57Z</time>
      </trkpt>
      <trkpt lat="37.8826727998" lon="-3.0086358637">
        <ele>1352.23</ele>
        <time>2017-10-07T16:53:22Z</time>
      </trkpt>
      <trkpt lat="37.8826763202" lon="-3.0086586624">
        <ele>1352.71</ele>
        <time>2017-10-07T16:53:48Z</time>
      </trkpt>
      <trkpt lat="37.8826845344" lon="-3.0086693075">
        <ele>1352.71</ele>
        <time>2017-10-07T16:54:16Z</time>
      </trkpt>
      <trkpt lat="37.8826836962" lon="-3.0086649489">
        <ele>1352.71</ele>
        <time>2017-10-07T16:54:42Z</time>
      </trkpt>
      <trkpt lat="37.8826831933" lon="-3.0086522922">
        <ele>1353.19</ele>
        <time>2017-10-07T16:55:08Z</time>
      </trkpt>
      <trkpt lat="37.8826764040" lon="-3.0086572375">
        <ele>1353.19</ele>
        <time>2017-10-07T16:55:34Z</time>
      </trkpt>
      <trkpt lat="37.8826728836" lon="-3.0086595844">
        <ele>1353.19</ele>
        <time>2017-10-07T16:55:59Z</time>
      </trkpt>
      <trkpt lat="37.8826676030" lon="-3.0086404737">
        <ele>1353.19</ele>
        <time>2017-10-07T16:56:14Z</time>
      </trkpt>
      <trkpt lat="37.8826774936" lon="-3.0086159986">
        <ele>1353.67</ele>
        <time>2017-10-07T16:56:35Z</time>
      </trkpt>
      <trkpt lat="37.8826727159" lon="-3.0085594207">
        <ele>1354.15</ele>
        <time>2017-10-07T16:56:47Z</time>
      </trkpt>
      <trkpt lat="37.8826811817" lon="-3.0085550621">
        <ele>1354.15</ele>
        <time>2017-10-07T16:57:00Z</time>
      </trkpt>
      <trkpt lat="37.8826661780" lon="-3.0085552298">
        <ele>1354.15</ele>
        <time>2017-10-07T16:57:15Z</time>
      </trkpt>
      <trkpt lat="37.8824550379" lon="-3.0084530544">
        <ele>1353.19</ele>
        <time>2017-10-07T16:57:25Z</time>
      </trkpt>
      <trkpt lat="37.8822766710" lon="-3.0082777049">
        <ele>1352.23</ele>
        <time>2017-10-07T16:57:34Z</time>
      </trkpt>
      <trkpt lat="37.8821967077" lon="-3.0081087258">
        <ele>1351.75</ele>
        <time>2017-10-07T16:57:38Z</time>
      </trkpt>
      <trkpt lat="37.8821647726" lon="-3.0080600269">
        <ele>1352.23</ele>
        <time>2017-10-07T16:57:39Z</time>
      </trkpt>
      <trkpt lat="37.8821027465" lon="-3.0079644732">
        <ele>1351.75</ele>
        <time>2017-10-07T16:57:41Z</time>
      </trkpt>
      <trkpt lat="37.8819884174" lon="-3.0076768901">
        <ele>1350.79</ele>
        <time>2017-10-07T16:57:47Z</time>
      </trkpt>
      <trkpt lat="37.8819563147" lon="-3.0075797439">
        <ele>1350.31</ele>
        <time>2017-10-07T16:57:49Z</time>
      </trkpt>
      <trkpt lat="37.8819327615" lon="-3.0075357389">
        <ele>1350.79</ele>
        <time>2017-10-07T16:57:50Z</time>
      </trkpt>
      <trkpt lat="37.8818816319" lon="-3.0074530933">
        <ele>1350.31</ele>
        <time>2017-10-07T16:57:52Z</time>
      </trkpt>
      <trkpt lat="37.8818497807" lon="-3.0074157938">
        <ele>1349.83</ele>
        <time>2017-10-07T16:57:53Z</time>
      </trkpt>
      <trkpt lat="37.8818122298" lon="-3.0073888041">
        <ele>1350.31</ele>
        <time>2017-10-07T16:57:54Z</time>
      </trkpt>
      <trkpt lat="37.8817708232" lon="-3.0073712859">
        <ele>1349.83</ele>
        <time>2017-10-07T16:57:55Z</time>
      </trkpt>
      <trkpt lat="37.8817317635" lon="-3.0073620658">
        <ele>1350.31</ele>
        <time>2017-10-07T16:57:56Z</time>
      </trkpt>
      <trkpt lat="37.8816981521" lon="-3.0073658377">
        <ele>1350.31</ele>
        <time>2017-10-07T16:57:57Z</time>
      </trkpt>
      <trkpt lat="37.8816660494" lon="-3.0073805060">
        <ele>1350.31</ele>
        <time>2017-10-07T16:57:58Z</time>
      </trkpt>
      <trkpt lat="37.8816360421" lon="-3.0073949229">
        <ele>1350.31</ele>
        <time>2017-10-07T16:57:59Z</time>
      </trkpt>
      <trkpt lat="37.8813875187" lon="-3.0075421929">
        <ele>1350.79</ele>
        <time>2017-10-07T16:58:09Z</time>
      </trkpt>
      <trkpt lat="37.8811523225" lon="-3.0076418538">
        <ele>1350.79</ele>
        <time>2017-10-07T16:58:19Z</time>
      </trkpt>
      <trkpt lat="37.8807556070" lon="-3.0078605376">
        <ele>1350.79</ele>
        <time>2017-10-07T16:58:30Z</time>
      </trkpt>
      <trkpt lat="37.8803765774" lon="-3.0079453625">
        <ele>1351.27</ele>
        <time>2017-10-07T16:58:41Z</time>
      </trkpt>
      <trkpt lat="37.8800892457" lon="-3.0078946520">
        <ele>1351.75</ele>
        <time>2017-10-07T16:58:50Z</time>
      </trkpt>
      <trkpt lat="37.8798228689" lon="-3.0077599548">
        <ele>1351.75</ele>
        <time>2017-10-07T16:58:59Z</time>
      </trkpt>
      <trkpt lat="37.8794850782" lon="-3.0075585376">
        <ele>1350.79</ele>
        <time>2017-10-07T16:59:10Z</time>
      </trkpt>
      <trkpt lat="37.8794227168" lon="-3.0074919015">
        <ele>1350.79</ele>
        <time>2017-10-07T16:59:12Z</time>
      </trkpt>
      <trkpt lat="37.8793055378" lon="-3.0073143728">
        <ele>1349.83</ele>
        <time>2017-10-07T16:59:16Z</time>
      </trkpt>
      <trkpt lat="37.8792528994" lon="-3.0072021391">
        <ele>1349.35</ele>
        <time>2017-10-07T16:59:18Z</time>
      </trkpt>
      <trkpt lat="37.8792321961" lon="-3.0071391072">
        <ele>1349.35</ele>
        <time>2017-10-07T16:59:19Z</time>
      </trkpt>
      <trkpt lat="37.8791824076" lon="-3.0069309007">
        <ele>1347.91</ele>
        <time>2017-10-07T16:59:22Z</time>
      </trkpt>
      <trkpt lat="37.8791531548" lon="-3.0066059344">
        <ele>1346.94</ele>
        <time>2017-10-07T16:59:26Z</time>
      </trkpt>
      <trkpt lat="37.8791528195" lon="-3.0065250490">
        <ele>1346.46</ele>
        <time>2017-10-07T16:59:27Z</time>
      </trkpt>
      <trkpt lat="37.8791570105" lon="-3.0064433254">
        <ele>1345.98</ele>
        <time>2017-10-07T16:59:28Z</time>
      </trkpt>
      <trkpt lat="37.8791664820" lon="-3.0063617695">
        <ele>1345.50</ele>
        <time>2017-10-07T16:59:29Z</time>
      </trkpt>
      <trkpt lat="37.8791814018" lon="-3.0062782858">
        <ele>1345.50</ele>
        <time>2017-10-07T16:59:30Z</time>
      </trkpt>
      <trkpt lat="37.8792003449" lon="-3.0061926227">
        <ele>1345.02</ele>
        <time>2017-10-07T16:59:31Z</time>
      </trkpt>
      <trkpt lat="37.8793190327" lon="-3.0055961665">
        <ele>1342.14</ele>
        <time>2017-10-07T16:59:39Z</time>
      </trkpt>
      <trkpt lat="37.8793467768" lon="-3.0054881237">
        <ele>1341.66</ele>
        <time>2017-10-07T16:59:41Z</time>
      </trkpt>
      <trkpt lat="37.8793572541" lon="-3.0054294504">
        <ele>1341.66</ele>
        <time>2017-10-07T16:59:42Z</time>
      </trkpt>
      <trkpt lat="37.8793678991" lon="-3.0053688493">
        <ele>1341.18</ele>
        <time>2017-10-07T16:59:43Z</time>
      </trkpt>
      <trkpt lat="37.8793729283" lon="-3.0053105950">
        <ele>1340.70</ele>
        <time>2017-10-07T16:59:44Z</time>
      </trkpt>
      <trkpt lat="37.8793703299" lon="-3.0052519217">
        <ele>1340.70</ele>
        <time>2017-10-07T16:59:45Z</time>
      </trkpt>
      <trkpt lat="37.8793648817" lon="-3.0051926617">
        <ele>1340.22</ele>
        <time>2017-10-07T16:59:46Z</time>
      </trkpt>
      <trkpt lat="37.8793486208" lon="-3.0051383469">
        <ele>1340.22</ele>
        <time>2017-10-07T16:59:47Z</time>
      </trkpt>
      <trkpt lat="37.8793140873" lon="-3.0050941743">
        <ele>1339.73</ele>
        <time>2017-10-07T16:59:48Z</time>
      </trkpt>
      <trkpt lat="37.8792705014" lon="-3.0050624069">
        <ele>1339.25</ele>
        <time>2017-10-07T16:59:49Z</time>
      </trkpt>
      <trkpt lat="37.8792244010" lon="-3.0050399434">
        <ele>1339.25</ele>
        <time>2017-10-07T16:59:50Z</time>
      </trkpt>
      <trkpt lat="37.8791790549" lon="-3.0050274543">
        <ele>1339.25</ele>
        <time>2017-10-07T16:59:51Z</time>
      </trkpt>
      <trkpt lat="37.8791340441" lon="-3.0050262809">
        <ele>1339.25</ele>
        <time>2017-10-07T16:59:52Z</time>
      </trkpt>
      <trkpt lat="37.8790922184" lon="-3.0050219223">
        <ele>1339.25</ele>
        <time>2017-10-07T16:59:53Z</time>
      </trkpt>
      <trkpt lat="37.8790557571" lon="-3.0050180666">
        <ele>1339.25</ele>
        <time>2017-10-07T16:59:54Z</time>
      </trkpt>
      <trkpt lat="37.8790239897" lon="-3.0050210841">
        <ele>1339.73</ele>
        <time>2017-10-07T16:59:55Z</time>
      </trkpt>
      <trkpt lat="37.8789928090" lon="-3.0050286278">
        <ele>1339.25</ele>
        <time>2017-10-07T16:59:56Z</time>
      </trkpt>
      <trkpt lat="37.8786744643" lon="-3.0050518457">
        <ele>1340.22</ele>
        <time>2017-10-07T17:00:07Z</time>
      </trkpt>
      <trkpt lat="37.8783571254" lon="-3.0050893966">
        <ele>1340.70</ele>
        <time>2017-10-07T17:00:18Z</time>
      </trkpt>
      <trkpt lat="37.8782407846" lon="-3.0050768238">
        <ele>1340.70</ele>
        <time>2017-10-07T17:00:21Z</time>
      </trkpt>
      <trkpt lat="37.8782004677" lon="-3.0050654244">
        <ele>1340.70</ele>
        <time>2017-10-07T17:00:22Z</time>
      </trkpt>
      <trkpt lat="37.8781619109" lon="-3.0050494988">
        <ele>1340.70</ele>
        <time>2017-10-07T17:00:23Z</time>
      </trkpt>
      <trkpt lat="37.8781244438" lon="-3.0050309747">
        <ele>1340.70</ele>
        <time>2017-10-07T17:00:24Z</time>
      </trkpt>
      <trkpt lat="37.8780911677" lon="-3.0050105229">
        <ele>1340.22</ele>
        <time>2017-10-07T17:00:25Z</time>
      </trkpt>
      <trkpt lat="37.8780584782" lon="-3.0049851257">
        <ele>1340.22</ele>
        <time>2017-10-07T17:00:26Z</time>
      </trkpt>
      <trkpt lat="37.8780236933" lon="-3.0049550347">
        <ele>1340.22</ele>
        <time>2017-10-07T17:00:27Z</time>
      </trkpt>
      <trkpt lat="37.8779924288" lon="-3.0049206689">
        <ele>1340.22</ele>
        <time>2017-10-07T17:00:28Z</time>
      </trkpt>
      <trkpt lat="37.8779069334" lon="-3.0048054177">
        <ele>1339.73</ele>
        <time>2017-10-07T17:00:31Z</time>
      </trkpt>
      <trkpt lat="37.8778792731" lon="-3.0047661904">
        <ele>1339.73</ele>
        <time>2017-10-07T17:00:32Z</time>
      </trkpt>
      <trkpt lat="37.8778524511" lon="-3.0047262926">
        <ele>1339.73</ele>
        <time>2017-10-07T17:00:33Z</time>
      </trkpt>
      <trkpt lat="37.8778213542" lon="-3.0046869814">
        <ele>1339.25</ele>
        <time>2017-10-07T17:00:34Z</time>
      </trkpt>
      <trkpt lat="37.8777784389" lon="-3.0046563875">
        <ele>1339.73</ele>
        <time>2017-10-07T17:00:35Z</time>
      </trkpt>
      <trkpt lat="37.8777341824" lon="-3.0046373606">
        <ele>1339.25</ele>
        <time>2017-10-07T17:00:36Z</time>
      </trkpt>
      <trkpt lat="37.8776916862" lon="-3.0046357680">
        <ele>1339.25</ele>
        <time>2017-10-07T17:00:37Z</time>
      </trkpt>
      <trkpt lat="37.8776517045" lon="-3.0046496820">
        <ele>1339.73</ele>
        <time>2017-10-07T17:00:38Z</time>
      </trkpt>
      <trkpt lat="37.8776165005" lon="-3.0046708044">
        <ele>1339.73</ele>
        <time>2017-10-07T17:00:39Z</time>
      </trkpt>
      <trkpt lat="37.8775863256" lon="-3.0046997219">
        <ele>1339.73</ele>
        <time>2017-10-07T17:00:40Z</time>
      </trkpt>
      <trkpt lat="37.8775583301" lon="-3.0047314893">
        <ele>1339.73</ele>
        <time>2017-10-07T17:00:41Z</time>
      </trkpt>
      <trkpt lat="37.8775362018" lon="-3.0047622509">
        <ele>1339.73</ele>
        <time>2017-10-07T17:00:42Z</time>
      </trkpt>
      <trkpt lat="37.8775166720" lon="-3.0047888216">
        <ele>1339.73</ele>
        <time>2017-10-07T17:00:43Z</time>
      </trkpt>
      <trkpt lat="37.8774956334" lon="-3.0048135482">
        <ele>1340.22</ele>
        <time>2017-10-07T17:00:44Z</time>
      </trkpt>
      <trkpt lat="37.8772541508" lon="-3.0051000416">
        <ele>1341.18</ele>
        <time>2017-10-07T17:00:55Z</time>
      </trkpt>
      <trkpt lat="37.8769974131" lon="-3.0054086633">
        <ele>1342.14</ele>
        <time>2017-10-07T17:01:06Z</time>
      </trkpt>
      <trkpt lat="37.8766737040" lon="-3.0056793150">
        <ele>1343.58</ele>
        <time>2017-10-07T17:01:18Z</time>
      </trkpt>
      <trkpt lat="37.8763597179" lon="-3.0057868548">
        <ele>1345.98</ele>
        <time>2017-10-07T17:01:31Z</time>
      </trkpt>
      <trkpt lat="37.8761304729" lon="-3.0058427621">
        <ele>1346.94</ele>
        <time>2017-10-07T17:01:40Z</time>
      </trkpt>
      <trkpt lat="37.8758602403" lon="-3.0058438517">
        <ele>1347.91</ele>
        <time>2017-10-07T17:01:51Z</time>
      </trkpt>
      <trkpt lat="37.8758447338" lon="-3.0058386549">
        <ele>1347.91</ele>
        <time>2017-10-07T17:01:52Z</time>
      </trkpt>
      <trkpt lat="37.8758335859" lon="-3.0058270041">
        <ele>1348.39</ele>
        <time>2017-10-07T17:01:53Z</time>
      </trkpt>
      <trkpt lat="37.8758241143" lon="-3.0058168620">
        <ele>1348.39</ele>
        <time>2017-10-07T17:01:54Z</time>
      </trkpt>
      <trkpt lat="37.8758084401" lon="-3.0058068875">
        <ele>1348.39</ele>
        <time>2017-10-07T17:01:55Z</time>
      </trkpt>
      <trkpt lat="37.8757911734" lon="-3.0058057979">
        <ele>1348.39</ele>
        <time>2017-10-07T17:01:56Z</time>
      </trkpt>
      <trkpt lat="37.8757775947" lon="-3.0058151856">
        <ele>1348.39</ele>
        <time>2017-10-07T17:01:57Z</time>
      </trkpt>
      <trkpt lat="37.8757768404" lon="-3.0058269203">
        <ele>1348.39</ele>
        <time>2017-10-07T17:01:58Z</time>
      </trkpt>
      <trkpt lat="37.8757971246" lon="-3.0058372300">
        <ele>1348.39</ele>
        <time>2017-10-07T17:02:00Z</time>
      </trkpt>
      <trkpt lat="37.8760391101" lon="-3.0058077257">
        <ele>1347.43</ele>
        <time>2017-10-07T17:02:11Z</time>
      </trkpt>
      <trkpt lat="37.8761905711" lon="-3.0058069713">
        <ele>1346.94</ele>
        <time>2017-10-07T17:02:15Z</time>
      </trkpt>
      <trkpt lat="37.8766635619" lon="-3.0056687538">
        <ele>1344.54</ele>
        <time>2017-10-07T17:02:25Z</time>
      </trkpt>
      <trkpt lat="37.8768162802" lon="-3.0055911373">
        <ele>1343.10</ele>
        <time>2017-10-07T17:02:31Z</time>
      </trkpt>
      <trkpt lat="37.8768416774" lon="-3.0056162830">
        <ele>1342.62</ele>
        <time>2017-10-07T17:02:34Z</time>
      </trkpt>
      <trkpt lat="37.8768408392" lon="-3.0056349747">
        <ele>1343.10</ele>
        <time>2017-10-07T17:02:35Z</time>
      </trkpt>
      <trkpt lat="37.8768358100" lon="-3.0056513194">
        <ele>1342.62</ele>
        <time>2017-10-07T17:02:36Z</time>
      </trkpt>
      <trkpt lat="37.8768250812" lon="-3.0056646466">
        <ele>1342.62</ele>
        <time>2017-10-07T17:02:37Z</time>
      </trkpt>
      <trkpt lat="37.8768130112" lon="-3.0056777224">
        <ele>1342.62</ele>
        <time>2017-10-07T17:02:38Z</time>
      </trkpt>
      <trkpt lat="37.8768006060" lon="-3.0056902952">
        <ele>1342.14</ele>
        <time>2017-10-07T17:02:39Z</time>
      </trkpt>
      <trkpt lat="37.8765865322" lon="-3.0058927182">
        <ele>1340.22</ele>
        <time>2017-10-07T17:02:48Z</time>
      </trkpt>
      <trkpt lat="37.8763156291" lon="-3.0061614420">
        <ele>1337.33</ele>
        <time>2017-10-07T17:02:54Z</time>
      </trkpt>
      <trkpt lat="37.8758699633" lon="-3.0066018272">
        <ele>1335.89</ele>
        <time>2017-10-07T17:03:03Z</time>
      </trkpt>
      <trkpt lat="37.8756517824" lon="-3.0067499354">
        <ele>1335.89</ele>
        <time>2017-10-07T17:03:11Z</time>
      </trkpt>
      <trkpt lat="37.8755217791" lon="-3.0070097744">
        <ele>1333.01</ele>
        <time>2017-10-07T17:03:20Z</time>
      </trkpt>
      <trkpt lat="37.8754906822" lon="-3.0070495047">
        <ele>1332.52</ele>
        <time>2017-10-07T17:03:29Z</time>
      </trkpt>
      <trkpt lat="37.8754880000" lon="-3.0070533603">
        <ele>1332.52</ele>
        <time>2017-10-07T17:03:38Z</time>
      </trkpt>
      <trkpt lat="37.8754755948" lon="-3.0070431344">
        <ele>1332.52</ele>
        <time>2017-10-07T17:04:05Z</time>
      </trkpt>
      <trkpt lat="37.8754760977" lon="-3.0070375185">
        <ele>1333.01</ele>
        <time>2017-10-07T17:04:30Z</time>
      </trkpt>
      <trkpt lat="37.8754769359" lon="-3.0070367642">
        <ele>1332.52</ele>
        <time>2017-10-07T17:04:55Z</time>
      </trkpt>
      <trkpt lat="37.8754769359" lon="-3.0070288014">
        <ele>1333.01</ele>
        <time>2017-10-07T17:05:21Z</time>
      </trkpt>
      <trkpt lat="37.8754749242" lon="-3.0070257001">
        <ele>1333.01</ele>
        <time>2017-10-07T17:05:43Z</time>
      </trkpt>
      <trkpt lat="37.8754671291" lon="-3.0070260353">
        <ele>1333.01</ele>
        <time>2017-10-07T17:06:06Z</time>
      </trkpt>
      <trkpt lat="37.8754719906" lon="-3.0070314836">
        <ele>1333.01</ele>
        <time>2017-10-07T17:06:24Z</time>
      </trkpt>
      <trkpt lat="37.8754855692" lon="-3.0070424639">
        <ele>1333.01</ele>
        <time>2017-10-07T17:06:49Z</time>
      </trkpt>
      <trkpt lat="37.8754763491" lon="-3.0070438888">
        <ele>1332.04</ele>
        <time>2017-10-07T17:07:10Z</time>
      </trkpt>
      <trkpt lat="37.8754764330" lon="-3.0070381891">
        <ele>1328.68</ele>
        <time>2017-10-07T17:07:20Z</time>
      </trkpt>
      <trkpt lat="37.8754764330" lon="-3.0070378538">
        <ele>1334.93</ele>
        <time>2017-10-07T17:07:21Z</time>
      </trkpt>
      <trkpt lat="37.8754785284" lon="-3.0070363451">
        <ele>1332.04</ele>
        <time>2017-10-07T17:07:26Z</time>
      </trkpt>
      <trkpt lat="37.8757894132" lon="-3.0058464501">
        <ele>1350.79</ele>
        <time>2017-10-08T07:49:09Z</time>
      </trkpt>
      <trkpt lat="37.8757925984" lon="-3.0058425106">
        <ele>1349.83</ele>
        <time>2017-10-08T07:49:24Z</time>
      </trkpt>
      <trkpt lat="37.8757977113" lon="-3.0058428459">
        <ele>1349.83</ele>
        <time>2017-10-08T07:49:40Z</time>
      </trkpt>
      <trkpt lat="37.8757173289" lon="-3.0058395769">
        <ele>1349.83</ele>
        <time>2017-10-08T07:49:58Z</time>
      </trkpt>
      <trkpt lat="37.8755161632" lon="-3.0057634693">
        <ele>1349.83</ele>
        <time>2017-10-08T07:50:08Z</time>
      </trkpt>
      <trkpt lat="37.8753163386" lon="-3.0056876130">
        <ele>1350.31</ele>
        <time>2017-10-08T07:50:18Z</time>
      </trkpt>
      <trkpt lat="37.8752056975" lon="-3.0056450330">
        <ele>1350.79</ele>
        <time>2017-10-08T07:50:23Z</time>
      </trkpt>
      <trkpt lat="37.8750336170" lon="-3.0055342242">
        <ele>1351.27</ele>
        <time>2017-10-08T07:50:33Z</time>
      </trkpt>
      <trkpt lat="37.8749374766" lon="-3.0054519139">
        <ele>1351.27</ele>
        <time>2017-10-08T07:50:38Z</time>
      </trkpt>
      <trkpt lat="37.8746767156" lon="-3.0053615570">
        <ele>1351.27</ele>
        <time>2017-10-08T07:50:50Z</time>
      </trkpt>
      <trkpt lat="37.8745465446" lon="-3.0052241776">
        <ele>1351.27</ele>
        <time>2017-10-08T07:50:58Z</time>
      </trkpt>
      <trkpt lat="37.8744651563" lon="-3.0050034821">
        <ele>1350.79</ele>
        <time>2017-10-08T07:51:09Z</time>
      </trkpt>
      <trkpt lat="37.8744133562" lon="-3.0048966128">
        <ele>1350.31</ele>
        <time>2017-10-08T07:51:13Z</time>
      </trkpt>
      <trkpt lat="37.8743722010" lon="-3.0048101116">
        <ele>1350.31</ele>
        <time>2017-10-08T07:51:16Z</time>
      </trkpt>
      <trkpt lat="37.8741187323" lon="-3.0044972990">
        <ele>1346.94</ele>
        <time>2017-10-08T07:51:26Z</time>
      </trkpt>
      <trkpt lat="37.8740863781" lon="-3.0044585746">
        <ele>1346.46</ele>
        <time>2017-10-08T07:51:27Z</time>
      </trkpt>
      <trkpt lat="37.8740553651" lon="-3.0044130608">
        <ele>1346.46</ele>
        <time>2017-10-08T07:51:28Z</time>
      </trkpt>
      <trkpt lat="37.8738376871" lon="-3.0041157547">
        <ele>1343.58</ele>
        <time>2017-10-08T07:51:34Z</time>
      </trkpt>
      <trkpt lat="37.8738011420" lon="-3.0040647928">
        <ele>1343.10</ele>
        <time>2017-10-08T07:51:35Z</time>
      </trkpt>
      <trkpt lat="37.8735689633" lon="-3.0037731864">
        <ele>1340.22</ele>
        <time>2017-10-08T07:51:41Z</time>
      </trkpt>
      <trkpt lat="37.8735299874" lon="-3.0037248228">
        <ele>1339.73</ele>
        <time>2017-10-08T07:51:42Z</time>
      </trkpt>
      <trkpt lat="37.8734112158" lon="-3.0035802349">
        <ele>1338.29</ele>
        <time>2017-10-08T07:51:45Z</time>
      </trkpt>
      <trkpt lat="37.8731449228" lon="-3.0031344853">
        <ele>1334.93</ele>
        <time>2017-10-08T07:51:52Z</time>
      </trkpt>
      <trkpt lat="37.8730710782" lon="-3.0030145403">
        <ele>1333.97</ele>
        <time>2017-10-08T07:51:54Z</time>
      </trkpt>
      <trkpt lat="37.8729373030" lon="-3.0028066691">
        <ele>1332.52</ele>
        <time>2017-10-08T07:51:58Z</time>
      </trkpt>
      <trkpt lat="37.8727925476" lon="-3.0026939325">
        <ele>1331.08</ele>
        <time>2017-10-08T07:52:02Z</time>
      </trkpt>
      <trkpt lat="37.8727600258" lon="-3.0026847124">
        <ele>1330.60</ele>
        <time>2017-10-08T07:52:03Z</time>
      </trkpt>
      <trkpt lat="37.8727233130" lon="-3.0026784260">
        <ele>1330.60</ele>
        <time>2017-10-08T07:52:04Z</time>
      </trkpt>
      <trkpt lat="37.8726812359" lon="-3.0026775878">
        <ele>1330.12</ele>
        <time>2017-10-08T07:52:05Z</time>
      </trkpt>
      <trkpt lat="37.8726368956" lon="-3.0026810244">
        <ele>1329.64</ele>
        <time>2017-10-08T07:52:06Z</time>
      </trkpt>
      <trkpt lat="37.8725915495" lon="-3.0026910827">
        <ele>1329.16</ele>
        <time>2017-10-08T07:52:07Z</time>
      </trkpt>
      <trkpt lat="37.8725485504" lon="-3.0027078465">
        <ele>1329.16</ele>
        <time>2017-10-08T07:52:08Z</time>
      </trkpt>
      <trkpt lat="37.8724395018" lon="-3.0027836189">
        <ele>1327.72</ele>
        <time>2017-10-08T07:52:11Z</time>
      </trkpt>
      <trkpt lat="37.8723822534" lon="-3.0028589722">
        <ele>1326.76</ele>
        <time>2017-10-08T07:52:13Z</time>
      </trkpt>
      <trkpt lat="37.8723634779" lon="-3.0029045697">
        <ele>1326.28</ele>
        <time>2017-10-08T07:52:14Z</time>
      </trkpt>
      <trkpt lat="37.8723333031" lon="-3.0030414462">
        <ele>1325.80</ele>
        <time>2017-10-08T07:52:16Z</time>
      </trkpt>
      <trkpt lat="37.8723186348" lon="-3.0033839308">
        <ele>1323.39</ele>
        <time>2017-10-08T07:52:20Z</time>
      </trkpt>
      <trkpt lat="37.8723026253" lon="-3.0034587812">
        <ele>1322.91</ele>
        <time>2017-10-08T07:52:21Z</time>
      </trkpt>
      <trkpt lat="37.8722679242" lon="-3.0035890359">
        <ele>1321.95</ele>
        <time>2017-10-08T07:52:23Z</time>
      </trkpt>
      <trkpt lat="37.8722415213" lon="-3.0036446918">
        <ele>1321.95</ele>
        <time>2017-10-08T07:52:24Z</time>
      </trkpt>
      <trkpt lat="37.8722087480" lon="-3.0037035327">
        <ele>1321.47</ele>
        <time>2017-10-08T07:52:25Z</time>
      </trkpt>
      <trkpt lat="37.8720155451" lon="-3.0039881822">
        <ele>1318.59</ele>
        <time>2017-10-08T07:52:30Z</time>
      </trkpt>
      <trkpt lat="37.8719313908" lon="-3.0041160900">
        <ele>1317.62</ele>
        <time>2017-10-08T07:52:37Z</time>
      </trkpt>
      <trkpt lat="37.8718261980" lon="-3.0042591691">
        <ele>1316.66</ele>
        <time>2017-10-08T07:52:44Z</time>
      </trkpt>
      <trkpt lat="37.8717607353" lon="-3.0043232068">
        <ele>1316.18</ele>
        <time>2017-10-08T07:52:46Z</time>
      </trkpt>
      <trkpt lat="37.8717146348" lon="-3.0043537170">
        <ele>1315.70</ele>
        <time>2017-10-08T07:52:47Z</time>
      </trkpt>
      <trkpt lat="37.8716635890" lon="-3.0043797847">
        <ele>1315.70</ele>
        <time>2017-10-08T07:52:48Z</time>
      </trkpt>
      <trkpt lat="37.8716086876" lon="-3.0043962132">
        <ele>1314.74</ele>
        <time>2017-10-08T07:52:49Z</time>
      </trkpt>
      <trkpt lat="37.8715491761" lon="-3.0044114683">
        <ele>1314.74</ele>
        <time>2017-10-08T07:52:50Z</time>
      </trkpt>
      <trkpt lat="37.8714304045" lon="-3.0044396315">
        <ele>1312.82</ele>
        <time>2017-10-08T07:52:52Z</time>
      </trkpt>
      <trkpt lat="37.8713746648" lon="-3.0044621788">
        <ele>1312.82</ele>
        <time>2017-10-08T07:52:53Z</time>
      </trkpt>
      <trkpt lat="37.8713272233" lon="-3.0044960417">
        <ele>1312.34</ele>
        <time>2017-10-08T07:52:54Z</time>
      </trkpt>
      <trkpt lat="37.8712820448" lon="-3.0045470875">
        <ele>1312.82</ele>
        <time>2017-10-08T07:52:55Z</time>
      </trkpt>
      <trkpt lat="37.8712465893" lon="-3.0046079401">
        <ele>1312.82</ele>
        <time>2017-10-08T07:52:56Z</time>
      </trkpt>
      <trkpt lat="37.8712137323" lon="-3.0046787672">
        <ele>1312.34</ele>
        <time>2017-10-08T07:52:57Z</time>
      </trkpt>
      <trkpt lat="37.8711888380" lon="-3.0047533661">
        <ele>1312.82</ele>
        <time>2017-10-08T07:52:58Z</time>
      </trkpt>
      <trkpt lat="37.8711790312" lon="-3.0048235226">
        <ele>1312.82</ele>
        <time>2017-10-08T07:52:59Z</time>
      </trkpt>
      <trkpt lat="37.8711762652" lon="-3.0048839562">
        <ele>1313.30</ele>
        <time>2017-10-08T07:53:00Z</time>
      </trkpt>
      <trkpt lat="37.8711777739" lon="-3.0049352534">
        <ele>1313.30</ele>
        <time>2017-10-08T07:53:01Z</time>
      </trkpt>
      <trkpt lat="37.8711816296" lon="-3.0049747322">
        <ele>1313.78</ele>
        <time>2017-10-08T07:53:02Z</time>
      </trkpt>
      <trkpt lat="37.8711977229" lon="-3.0050956830">
        <ele>1314.26</ele>
        <time>2017-10-08T07:53:07Z</time>
      </trkpt>
      <trkpt lat="37.8712025005" lon="-3.0051134527">
        <ele>1314.26</ele>
        <time>2017-10-08T07:53:08Z</time>
      </trkpt>
      <trkpt lat="37.8712205216" lon="-3.0051976070">
        <ele>1314.74</ele>
        <time>2017-10-08T07:53:13Z</time>
      </trkpt>
      <trkpt lat="37.8712200187" lon="-3.0052178912">
        <ele>1314.74</ele>
        <time>2017-10-08T07:53:14Z</time>
      </trkpt>
      <trkpt lat="37.8712241258" lon="-3.0052390136">
        <ele>1314.74</ele>
        <time>2017-10-08T07:53:15Z</time>
      </trkpt>
      <trkpt lat="37.8712289035" lon="-3.0052556936">
        <ele>1314.74</ele>
        <time>2017-10-08T07:53:16Z</time>
      </trkpt>
      <trkpt lat="37.8712320887" lon="-3.0052756425">
        <ele>1315.70</ele>
        <time>2017-10-08T07:53:17Z</time>
      </trkpt>
      <trkpt lat="37.8712366987" lon="-3.0052955076">
        <ele>1315.22</ele>
        <time>2017-10-08T07:53:18Z</time>
      </trkpt>
      <trkpt lat="37.8712437395" lon="-3.0053148698">
        <ele>1315.22</ele>
        <time>2017-10-08T07:53:19Z</time>
      </trkpt>
      <trkpt lat="37.8712486848" lon="-3.0053291190">
        <ele>1315.22</ele>
        <time>2017-10-08T07:53:20Z</time>
      </trkpt>
      <trkpt lat="37.8712555580" lon="-3.0053470563">
        <ele>1315.22</ele>
        <time>2017-10-08T07:53:21Z</time>
      </trkpt>
      <trkpt lat="37.8712623473" lon="-3.0053644907">
        <ele>1315.22</ele>
        <time>2017-10-08T07:53:22Z</time>
      </trkpt>
      <trkpt lat="37.8712661192" lon="-3.0053857807">
        <ele>1315.70</ele>
        <time>2017-10-08T07:53:23Z</time>
      </trkpt>
      <trkpt lat="37.8713044245" lon="-3.0054688454">
        <ele>1315.70</ele>
        <time>2017-10-08T07:53:28Z</time>
      </trkpt>
      <trkpt lat="37.8713956196" lon="-3.0056492239">
        <ele>1316.66</ele>
        <time>2017-10-08T07:53:39Z</time>
      </trkpt>
      <trkpt lat="37.8714591544" lon="-3.0057428498">
        <ele>1317.14</ele>
        <time>2017-10-08T07:53:45Z</time>
      </trkpt>
      <trkpt lat="37.8715893254" lon="-3.0058985017">
        <ele>1318.59</ele>
        <time>2017-10-08T07:53:56Z</time>
      </trkpt>
      <trkpt lat="37.8716481663" lon="-3.0059739389">
        <ele>1319.07</ele>
        <time>2017-10-08T07:54:02Z</time>
      </trkpt>
      <trkpt lat="37.8716730606" lon="-3.0060399882">
        <ele>1319.55</ele>
        <time>2017-10-08T07:54:07Z</time>
      </trkpt>
      <trkpt lat="37.8716868069" lon="-3.0061609391">
        <ele>1320.51</ele>
        <time>2017-10-08T07:54:13Z</time>
      </trkpt>
      <trkpt lat="37.8716771677" lon="-3.0062509608">
        <ele>1320.51</ele>
        <time>2017-10-08T07:54:17Z</time>
      </trkpt>
      <trkpt lat="37.8716251999" lon="-3.0064759310">
        <ele>1320.99</ele>
        <time>2017-10-08T07:54:25Z</time>
      </trkpt>
      <trkpt lat="37.8715060931" lon="-3.0067792721">
        <ele>1321.47</ele>
        <time>2017-10-08T07:54:36Z</time>
      </trkpt>
      <trkpt lat="37.8714314941" lon="-3.0069603212">
        <ele>1321.95</ele>
        <time>2017-10-08T07:54:44Z</time>
      </trkpt>
      <trkpt lat="37.8713504411" lon="-3.0071860459">
        <ele>1322.43</ele>
        <time>2017-10-08T07:54:53Z</time>
      </trkpt>
      <trkpt lat="37.8713252954" lon="-3.0072792526">
        <ele>1322.43</ele>
        <time>2017-10-08T07:54:57Z</time>
      </trkpt>
      <trkpt lat="37.8712450806" lon="-3.0075258482">
        <ele>1322.91</ele>
        <time>2017-10-08T07:55:07Z</time>
      </trkpt>
      <trkpt lat="37.8711387981" lon="-3.0078384094">
        <ele>1323.39</ele>
        <time>2017-10-08T07:55:18Z</time>
      </trkpt>
      <trkpt lat="37.8709990717" lon="-3.0081209633">
        <ele>1322.91</ele>
        <time>2017-10-08T07:55:29Z</time>
      </trkpt>
      <trkpt lat="37.8708875924" lon="-3.0084965564">
        <ele>1322.43</ele>
        <time>2017-10-08T07:55:39Z</time>
      </trkpt>
      <trkpt lat="37.8708210401" lon="-3.0088718142">
        <ele>1321.95</ele>
        <time>2017-10-08T07:55:48Z</time>
      </trkpt>
      <trkpt lat="37.8707741853" lon="-3.0091575533">
        <ele>1322.43</ele>
        <time>2017-10-08T07:55:56Z</time>
      </trkpt>
      <trkpt lat="37.8707672283" lon="-3.0093510915">
        <ele>1322.91</ele>
        <time>2017-10-08T07:56:03Z</time>
      </trkpt>
      <trkpt lat="37.8706929646" lon="-3.0096225813">
        <ele>1323.39</ele>
        <time>2017-10-08T07:56:12Z</time>
      </trkpt>
      <trkpt lat="37.8705270868" lon="-3.0100308638">
        <ele>1323.39</ele>
        <time>2017-10-08T07:56:23Z</time>
      </trkpt>
      <trkpt lat="37.8704065550" lon="-3.0102858413">
        <ele>1322.43</ele>
        <time>2017-10-08T07:56:32Z</time>
      </trkpt>
      <trkpt lat="37.8702721093" lon="-3.0104888510">
        <ele>1321.95</ele>
        <time>2017-10-08T07:56:36Z</time>
      </trkpt>
      <trkpt lat="37.8702368215" lon="-3.0105300900">
        <ele>1321.47</ele>
        <time>2017-10-08T07:56:37Z</time>
      </trkpt>
      <trkpt lat="37.8699900582" lon="-3.0108007416">
        <ele>1319.07</ele>
        <time>2017-10-08T07:56:43Z</time>
      </trkpt>
      <trkpt lat="37.8699389286" lon="-3.0108339339">
        <ele>1319.07</ele>
        <time>2017-10-08T07:56:44Z</time>
      </trkpt>
      <trkpt lat="37.8697032295" lon="-3.0109687150">
        <ele>1320.03</ele>
        <time>2017-10-08T07:56:50Z</time>
      </trkpt>
      <trkpt lat="37.8695204202" lon="-3.0110449903">
        <ele>1321.47</ele>
        <time>2017-10-08T07:56:58Z</time>
      </trkpt>
      <trkpt lat="37.8692690469" lon="-3.0111074354">
        <ele>1323.87</ele>
        <time>2017-10-08T07:57:11Z</time>
      </trkpt>
      <trkpt lat="37.8690553084" lon="-3.0111664440">
        <ele>1325.31</ele>
        <time>2017-10-08T07:57:21Z</time>
      </trkpt>
      <trkpt lat="37.8688642848" lon="-3.0112060066">
        <ele>1326.28</ele>
        <time>2017-10-08T07:57:31Z</time>
      </trkpt>
      <trkpt lat="37.8686377220" lon="-3.0112600699">
        <ele>1327.24</ele>
        <time>2017-10-08T07:57:42Z</time>
      </trkpt>
      <trkpt lat="37.8684264980" lon="-3.0113193300">
        <ele>1328.20</ele>
        <time>2017-10-08T07:57:53Z</time>
      </trkpt>
      <trkpt lat="37.8682886995" lon="-3.0113529414">
        <ele>1329.16</ele>
        <time>2017-10-08T07:58:02Z</time>
      </trkpt>
      <trkpt lat="37.8681136854" lon="-3.0114365928">
        <ele>1330.12</ele>
        <time>2017-10-08T07:58:12Z</time>
      </trkpt>
      <trkpt lat="37.8679576144" lon="-3.0114769097">
        <ele>1331.56</ele>
        <time>2017-10-08T07:58:22Z</time>
      </trkpt>
      <trkpt lat="37.8678661678" lon="-3.0115166400">
        <ele>1332.04</ele>
        <time>2017-10-08T07:58:28Z</time>
      </trkpt>
      <trkpt lat="37.8678479791" lon="-3.0115173943">
        <ele>1332.04</ele>
        <time>2017-10-08T07:58:29Z</time>
      </trkpt>
      <trkpt lat="37.8676851187" lon="-3.0115789175">
        <ele>1333.01</ele>
        <time>2017-10-08T07:58:38Z</time>
      </trkpt>
      <trkpt lat="37.8675104398" lon="-3.0116012134">
        <ele>1333.97</ele>
        <time>2017-10-08T07:58:47Z</time>
      </trkpt>
      <trkpt lat="37.8672805242" lon="-3.0116091762">
        <ele>1335.41</ele>
        <time>2017-10-08T07:58:59Z</time>
      </trkpt>
      <trkpt lat="37.8671012353" lon="-3.0116156302">
        <ele>1335.89</ele>
        <time>2017-10-08T07:59:08Z</time>
      </trkpt>
      <trkpt lat="37.8669174202" lon="-3.0116225034">
        <ele>1336.85</ele>
        <time>2017-10-08T07:59:19Z</time>
      </trkpt>
      <trkpt lat="37.8667308390" lon="-3.0116512533">
        <ele>1338.29</ele>
        <time>2017-10-08T07:59:29Z</time>
      </trkpt>
      <trkpt lat="37.8665531427" lon="-3.0116652511">
        <ele>1339.73</ele>
        <time>2017-10-08T07:59:40Z</time>
      </trkpt>
      <trkpt lat="37.8664989956" lon="-3.0116607249">
        <ele>1339.73</ele>
        <time>2017-10-08T07:59:44Z</time>
      </trkpt>
      <trkpt lat="37.8664738499" lon="-3.0116540194">
        <ele>1339.73</ele>
        <time>2017-10-08T07:59:54Z</time>
      </trkpt>
      <trkpt lat="37.8664727602" lon="-3.0116546061">
        <ele>1339.73</ele>
        <time>2017-10-08T08:00:21Z</time>
      </trkpt>
      <trkpt lat="37.8664666414" lon="-3.0116555281">
        <ele>1339.73</ele>
        <time>2017-10-08T08:00:40Z</time>
      </trkpt>
      <trkpt lat="37.8664352093" lon="-3.0116503313">
        <ele>1339.73</ele>
        <time>2017-10-08T08:00:51Z</time>
      </trkpt>
      <trkpt lat="37.8664354607" lon="-3.0116600543">
        <ele>1339.73</ele>
        <time>2017-10-08T08:01:10Z</time>
      </trkpt>
      <trkpt lat="37.8664373048" lon="-3.0116568692">
        <ele>1339.73</ele>
        <time>2017-10-08T08:01:39Z</time>
      </trkpt>
      <trkpt lat="37.8664373886" lon="-3.0116669275">
        <ele>1339.25</ele>
        <time>2017-10-08T08:02:06Z</time>
      </trkpt>
      <trkpt lat="37.8664300125" lon="-3.0116580427">
        <ele>1339.73</ele>
        <time>2017-10-08T08:02:20Z</time>
      </trkpt>
      <trkpt lat="37.8664305154" lon="-3.0116485711">
        <ele>1339.73</ele>
        <time>2017-10-08T08:02:35Z</time>
      </trkpt>
      <trkpt lat="37.8664274979" lon="-3.0116390157">
        <ele>1339.73</ele>
        <time>2017-10-08T08:02:57Z</time>
      </trkpt>
      <trkpt lat="37.8663971554" lon="-3.0116366688">
        <ele>1339.73</ele>
        <time>2017-10-08T08:03:10Z</time>
      </trkpt>
      <trkpt lat="37.8663691599" lon="-3.0116427876">
        <ele>1339.73</ele>
        <time>2017-10-08T08:03:12Z</time>
      </trkpt>
      <trkpt lat="37.8661608696" lon="-3.0116556119">
        <ele>1340.70</ele>
        <time>2017-10-08T08:03:22Z</time>
      </trkpt>
      <trkpt lat="37.8660079837" lon="-3.0116608925">
        <ele>1341.18</ele>
        <time>2017-10-08T08:03:30Z</time>
      </trkpt>
      <trkpt lat="37.8658308741" lon="-3.0116287898">
        <ele>1342.14</ele>
        <time>2017-10-08T08:03:38Z</time>
      </trkpt>
      <trkpt lat="37.8656442091" lon="-3.0115571246">
        <ele>1343.10</ele>
        <time>2017-10-08T08:03:48Z</time>
      </trkpt>
      <trkpt lat="37.8656140342" lon="-3.0115428753">
        <ele>1343.10</ele>
        <time>2017-10-08T08:03:50Z</time>
      </trkpt>
      <trkpt lat="37.8656043950" lon="-3.0115344934">
        <ele>1343.10</ele>
        <time>2017-10-08T08:03:51Z</time>
      </trkpt>
      <trkpt lat="37.8654145449" lon="-3.0114839505">
        <ele>1344.06</ele>
        <time>2017-10-08T08:04:01Z</time>
      </trkpt>
      <trkpt lat="37.8652465716" lon="-3.0114579666">
        <ele>1344.54</ele>
        <time>2017-10-08T08:04:10Z</time>
      </trkpt>
      <trkpt lat="37.8652301431" lon="-3.0114551168">
        <ele>1344.54</ele>
        <time>2017-10-08T08:04:11Z</time>
      </trkpt>
      <trkpt lat="37.8652149718" lon="-3.0114476569">
        <ele>1345.02</ele>
        <time>2017-10-08T08:04:12Z</time>
      </trkpt>
      <trkpt lat="37.8651971184" lon="-3.0114414543">
        <ele>1344.54</ele>
        <time>2017-10-08T08:04:13Z</time>
      </trkpt>
      <trkpt lat="37.8651775885" lon="-3.0114359222">
        <ele>1345.02</ele>
        <time>2017-10-08T08:04:14Z</time>
      </trkpt>
      <trkpt lat="37.8651578911" lon="-3.0114278756">
        <ele>1344.54</ele>
        <time>2017-10-08T08:04:15Z</time>
      </trkpt>
      <trkpt lat="37.8649915103" lon="-3.0114057474">
        <ele>1345.50</ele>
        <time>2017-10-08T08:04:23Z</time>
      </trkpt>
      <trkpt lat="37.8647815436" lon="-3.0113908276">
        <ele>1345.98</ele>
        <time>2017-10-08T08:04:33Z</time>
      </trkpt>
      <trkpt lat="37.8647617623" lon="-3.0113823619">
        <ele>1345.98</ele>
        <time>2017-10-08T08:04:34Z</time>
      </trkpt>
      <trkpt lat="37.8647432383" lon="-3.0113727227">
        <ele>1345.98</ele>
        <time>2017-10-08T08:04:35Z</time>
      </trkpt>
      <trkpt lat="37.8647231217" lon="-3.0113620777">
        <ele>1346.46</ele>
        <time>2017-10-08T08:04:36Z</time>
      </trkpt>
      <trkpt lat="37.8646984790" lon="-3.0113552045">
        <ele>1345.98</ele>
        <time>2017-10-08T08:04:37Z</time>
      </trkpt>
      <trkpt lat="37.8646733332" lon="-3.0113490857">
        <ele>1345.98</ele>
        <time>2017-10-08T08:04:38Z</time>
      </trkpt>
      <trkpt lat="37.8646512050" lon="-3.0113449786">
        <ele>1346.46</ele>
        <time>2017-10-08T08:04:39Z</time>
      </trkpt>
      <trkpt lat="37.8646238800" lon="-3.0113368481">
        <ele>1346.46</ele>
        <time>2017-10-08T08:04:40Z</time>
      </trkpt>
      <trkpt lat="37.8645985667" lon="-3.0113287177">
        <ele>1346.46</ele>
        <time>2017-10-08T08:04:41Z</time>
      </trkpt>
      <trkpt lat="37.8645730019" lon="-3.0113174021">
        <ele>1346.46</ele>
        <time>2017-10-08T08:04:42Z</time>
      </trkpt>
      <trkpt lat="37.8645476047" lon="-3.0113098584">
        <ele>1346.46</ele>
        <time>2017-10-08T08:04:43Z</time>
      </trkpt>
      <trkpt lat="37.8645253927" lon="-3.0113065895">
        <ele>1346.46</ele>
        <time>2017-10-08T08:04:44Z</time>
      </trkpt>
      <trkpt lat="37.8645031806" lon="-3.0112979561">
        <ele>1346.46</ele>
        <time>2017-10-08T08:04:45Z</time>
      </trkpt>
      <trkpt lat="37.8644788731" lon="-3.0112917535">
        <ele>1346.46</ele>
        <time>2017-10-08T08:04:46Z</time>
      </trkpt>
      <trkpt lat="37.8644536436" lon="-3.0112866405">
        <ele>1346.46</ele>
        <time>2017-10-08T08:04:47Z</time>
      </trkpt>
      <trkpt lat="37.8644300066" lon="-3.0112810247">
        <ele>1346.46</ele>
        <time>2017-10-08T08:04:48Z</time>
      </trkpt>
      <trkpt lat="37.8642828204" lon="-3.0112630036">
        <ele>1347.43</ele>
        <time>2017-10-08T08:04:55Z</time>
      </trkpt>
      <trkpt lat="37.8642624523" lon="-3.0112654343">
        <ele>1347.43</ele>
        <time>2017-10-08T08:04:56Z</time>
      </trkpt>
      <trkpt lat="37.8640191257" lon="-3.0112008937">
        <ele>1348.39</ele>
        <time>2017-10-08T08:05:08Z</time>
      </trkpt>
      <trkpt lat="37.8638214804" lon="-3.0111162364">
        <ele>1349.35</ele>
        <time>2017-10-08T08:05:18Z</time>
      </trkpt>
      <trkpt lat="37.8636684269" lon="-3.0110263824">
        <ele>1348.87</ele>
        <time>2017-10-08T08:05:26Z</time>
      </trkpt>
      <trkpt lat="37.8635208216" lon="-3.0108849797">
        <ele>1349.35</ele>
        <time>2017-10-08T08:05:35Z</time>
      </trkpt>
      <trkpt lat="37.8633655049" lon="-3.0106481072">
        <ele>1349.83</ele>
        <time>2017-10-08T08:05:46Z</time>
      </trkpt>
      <trkpt lat="37.8632254433" lon="-3.0102411658">
        <ele>1350.79</ele>
        <time>2017-10-08T08:05:57Z</time>
      </trkpt>
      <trkpt lat="37.8631738946" lon="-3.0099625513">
        <ele>1351.75</ele>
        <time>2017-10-08T08:06:09Z</time>
      </trkpt>
      <trkpt lat="37.8631660156" lon="-3.0097146146">
        <ele>1353.19</ele>
        <time>2017-10-08T08:06:21Z</time>
      </trkpt>
      <trkpt lat="37.8631619085" lon="-3.0095331464">
        <ele>1354.63</ele>
        <time>2017-10-08T08:06:30Z</time>
      </trkpt>
      <trkpt lat="37.8631630819" lon="-3.0095101800">
        <ele>1354.63</ele>
        <time>2017-10-08T08:06:31Z</time>
      </trkpt>
      <trkpt lat="37.8631595615" lon="-3.0092323199">
        <ele>1356.08</ele>
        <time>2017-10-08T08:06:44Z</time>
      </trkpt>
      <trkpt lat="37.8631484974" lon="-3.0090482533">
        <ele>1357.52</ele>
        <time>2017-10-08T08:06:53Z</time>
      </trkpt>
      <trkpt lat="37.8631282970" lon="-3.0088972952">
        <ele>1358.00</ele>
        <time>2017-10-08T08:07:02Z</time>
      </trkpt>
      <trkpt lat="37.8631302249" lon="-3.0088802800">
        <ele>1358.48</ele>
        <time>2017-10-08T08:07:03Z</time>
      </trkpt>
      <trkpt lat="37.8631272912" lon="-3.0088542122">
        <ele>1358.48</ele>
        <time>2017-10-08T08:07:04Z</time>
      </trkpt>
      <trkpt lat="37.8631246928" lon="-3.0088314973">
        <ele>1358.96</ele>
        <time>2017-10-08T08:07:05Z</time>
      </trkpt>
      <trkpt lat="37.8631184064" lon="-3.0088121351">
        <ele>1358.96</ele>
        <time>2017-10-08T08:07:06Z</time>
      </trkpt>
      <trkpt lat="37.8631093539" lon="-3.0087929405">
        <ele>1358.96</ele>
        <time>2017-10-08T08:07:07Z</time>
      </trkpt>
      <trkpt lat="37.8630882315" lon="-3.0087113846">
        <ele>1359.44</ele>
        <time>2017-10-08T08:07:11Z</time>
      </trkpt>
      <trkpt lat="37.8630784247" lon="-3.0086957105">
        <ele>1359.92</ele>
        <time>2017-10-08T08:07:12Z</time>
      </trkpt>
      <trkpt lat="37.8630668577" lon="-3.0086825509">
        <ele>1359.92</ele>
        <time>2017-10-08T08:07:13Z</time>
      </trkpt>
      <trkpt lat="37.8630568832" lon="-3.0086684693">
        <ele>1359.92</ele>
        <time>2017-10-08T08:07:14Z</time>
      </trkpt>
      <trkpt lat="37.8630499262" lon="-3.0086545553">
        <ele>1359.92</ele>
        <time>2017-10-08T08:07:15Z</time>
      </trkpt>
      <trkpt lat="37.8630442265" lon="-3.0086334329">
        <ele>1360.40</ele>
        <time>2017-10-08T08:07:16Z</time>
      </trkpt>
      <trkpt lat="37.8630391974" lon="-3.0086130649">
        <ele>1360.40</ele>
        <time>2017-10-08T08:07:17Z</time>
      </trkpt>
      <trkpt lat="37.8630307317" lon="-3.0085932836">
        <ele>1361.36</ele>
        <time>2017-10-08T08:07:18Z</time>
      </trkpt>
      <trkpt lat="37.8630220145" lon="-3.0085735023">
        <ele>1360.40</ele>
        <time>2017-10-08T08:07:19Z</time>
      </trkpt>
      <trkpt lat="37.8630134650" lon="-3.0085533019">
        <ele>1360.40</ele>
        <time>2017-10-08T08:07:20Z</time>
      </trkpt>
      <trkpt lat="37.8629486728" lon="-3.0084146652">
        <ele>1361.36</ele>
        <time>2017-10-08T08:07:28Z</time>
      </trkpt>
      <trkpt lat="37.8629389498" lon="-3.0084010866">
        <ele>1361.36</ele>
        <time>2017-10-08T08:07:29Z</time>
      </trkpt>
      <trkpt lat="37.8629307356" lon="-3.0083849095">
        <ele>1361.36</ele>
        <time>2017-10-08T08:07:30Z</time>
      </trkpt>
      <trkpt lat="37.8629252873" lon="-3.0083684810">
        <ele>1361.36</ele>
        <time>2017-10-08T08:07:31Z</time>
      </trkpt>
      <trkpt lat="37.8629221860" lon="-3.0083495378">
        <ele>1361.84</ele>
        <time>2017-10-08T08:07:32Z</time>
      </trkpt>
      <trkpt lat="37.8629182465" lon="-3.0083284993">
        <ele>1361.84</ele>
        <time>2017-10-08T08:07:33Z</time>
      </trkpt>
      <trkpt lat="37.8629131336" lon="-3.0083082989">
        <ele>1361.84</ele>
        <time>2017-10-08T08:07:34Z</time>
      </trkpt>
      <trkpt lat="37.8629058413" lon="-3.0082861707">
        <ele>1361.84</ele>
        <time>2017-10-08T08:07:35Z</time>
      </trkpt>
      <trkpt lat="37.8628913406" lon="-3.0082429200">
        <ele>1362.33</ele>
        <time>2017-10-08T08:07:37Z</time>
      </trkpt>
      <trkpt lat="37.8628783487" lon="-3.0082278326">
        <ele>1362.33</ele>
        <time>2017-10-08T08:07:38Z</time>
      </trkpt>
      <trkpt lat="37.8628656082" lon="-3.0082142539">
        <ele>1362.33</ele>
        <time>2017-10-08T08:07:39Z</time>
      </trkpt>
      <trkpt lat="37.8628585674" lon="-3.0081948079">
        <ele>1362.33</ele>
        <time>2017-10-08T08:07:40Z</time>
      </trkpt>
      <trkpt lat="37.8628524486" lon="-3.0081732664">
        <ele>1362.33</ele>
        <time>2017-10-08T08:07:41Z</time>
      </trkpt>
      <trkpt lat="37.8628506046" lon="-3.0081474502">
        <ele>1362.33</ele>
        <time>2017-10-08T08:07:42Z</time>
      </trkpt>
      <trkpt lat="37.8628456593" lon="-3.0081228074">
        <ele>1362.81</ele>
        <time>2017-10-08T08:07:43Z</time>
      </trkpt>
      <trkpt lat="37.8628381994" lon="-3.0081032775">
        <ele>1362.81</ele>
        <time>2017-10-08T08:07:44Z</time>
      </trkpt>
      <trkpt lat="37.8628321644" lon="-3.0080817360">
        <ele>1362.81</ele>
        <time>2017-10-08T08:07:45Z</time>
      </trkpt>
      <trkpt lat="37.8627000656" lon="-3.0078405049">
        <ele>1364.25</ele>
        <time>2017-10-08T08:07:58Z</time>
      </trkpt>
      <trkpt lat="37.8626014106" lon="-3.0077207275">
        <ele>1365.21</ele>
        <time>2017-10-08T08:08:05Z</time>
      </trkpt>
      <trkpt lat="37.8625923581" lon="-3.0076977611">
        <ele>1365.21</ele>
        <time>2017-10-08T08:08:06Z</time>
      </trkpt>
      <trkpt lat="37.8625754267" lon="-3.0076825060">
        <ele>1365.21</ele>
        <time>2017-10-08T08:08:07Z</time>
      </trkpt>
      <trkpt lat="37.8625585791" lon="-3.0076694302">
        <ele>1365.21</ele>
        <time>2017-10-08T08:08:08Z</time>
      </trkpt>
      <trkpt lat="37.8625433240" lon="-3.0076530017">
        <ele>1365.21</ele>
        <time>2017-10-08T08:08:09Z</time>
      </trkpt>
      <trkpt lat="37.8623621911" lon="-3.0074828491">
        <ele>1365.69</ele>
        <time>2017-10-08T08:08:19Z</time>
      </trkpt>
      <trkpt lat="37.8622118197" lon="-3.0073026381">
        <ele>1365.21</ele>
        <time>2017-10-08T08:08:28Z</time>
      </trkpt>
      <trkpt lat="37.8621935472" lon="-3.0072868802">
        <ele>1365.21</ele>
        <time>2017-10-08T08:08:29Z</time>
      </trkpt>
      <trkpt lat="37.8621709161" lon="-3.0072692782">
        <ele>1365.21</ele>
        <time>2017-10-08T08:08:30Z</time>
      </trkpt>
      <trkpt lat="37.8619832452" lon="-3.0070583895">
        <ele>1364.73</ele>
        <time>2017-10-08T08:08:39Z</time>
      </trkpt>
      <trkpt lat="37.8618327063" lon="-3.0068278871">
        <ele>1364.25</ele>
        <time>2017-10-08T08:08:48Z</time>
      </trkpt>
      <trkpt lat="37.8616949916" lon="-3.0066097900">
        <ele>1364.25</ele>
        <time>2017-10-08T08:08:55Z</time>
      </trkpt>
      <trkpt lat="37.8616766352" lon="-3.0065822136">
        <ele>1364.25</ele>
        <time>2017-10-08T08:08:56Z</time>
      </trkpt>
      <trkpt lat="37.8616613802" lon="-3.0065451656">
        <ele>1364.25</ele>
        <time>2017-10-08T08:08:57Z</time>
      </trkpt>
      <trkpt lat="37.8616481367" lon="-3.0065060221">
        <ele>1363.77</ele>
        <time>2017-10-08T08:08:58Z</time>
      </trkpt>
      <trkpt lat="37.8616338875" lon="-3.0064707343">
        <ele>1363.77</ele>
        <time>2017-10-08T08:08:59Z</time>
      </trkpt>
      <trkpt lat="37.8616179619" lon="-3.0064394698">
        <ele>1363.77</ele>
        <time>2017-10-08T08:09:00Z</time>
      </trkpt>
      <trkpt lat="37.8614165448" lon="-3.0061053671">
        <ele>1363.29</ele>
        <time>2017-10-08T08:09:09Z</time>
      </trkpt>
      <trkpt lat="37.8611354157" lon="-3.0060585123">
        <ele>1363.29</ele>
        <time>2017-10-08T08:09:17Z</time>
      </trkpt>
      <trkpt lat="37.8608894907" lon="-3.0062064528">
        <ele>1363.29</ele>
        <time>2017-10-08T08:09:26Z</time>
      </trkpt>
      <trkpt lat="37.8607129678" lon="-3.0063383840">
        <ele>1363.29</ele>
        <time>2017-10-08T08:09:33Z</time>
      </trkpt>
      <trkpt lat="37.8605025820" lon="-3.0064657051">
        <ele>1362.81</ele>
        <time>2017-10-08T08:09:41Z</time>
      </trkpt>
      <trkpt lat="37.8603386320" lon="-3.0065493565">
        <ele>1362.81</ele>
        <time>2017-10-08T08:09:49Z</time>
      </trkpt>
      <trkpt lat="37.8601647075" lon="-3.0066340975">
        <ele>1361.84</ele>
        <time>2017-10-08T08:09:58Z</time>
      </trkpt>
      <trkpt lat="37.8600886837" lon="-3.0066659488">
        <ele>1361.84</ele>
        <time>2017-10-08T08:10:03Z</time>
      </trkpt>
      <trkpt lat="37.8600746021" lon="-3.0066662841">
        <ele>1361.84</ele>
        <time>2017-10-08T08:10:04Z</time>
      </trkpt>
      <trkpt lat="37.8599953093" lon="-3.0066884123">
        <ele>1361.36</ele>
        <time>2017-10-08T08:10:08Z</time>
      </trkpt>
      <trkpt lat="37.8599781264" lon="-3.0066872388">
        <ele>1361.36</ele>
        <time>2017-10-08T08:10:09Z</time>
      </trkpt>
      <trkpt lat="37.8599622846" lon="-3.0066854786">
        <ele>1361.36</ele>
        <time>2017-10-08T08:10:10Z</time>
      </trkpt>
      <trkpt lat="37.8599451855" lon="-3.0066872388">
        <ele>1361.36</ele>
        <time>2017-10-08T08:10:11Z</time>
      </trkpt>
      <trkpt lat="37.8599320259" lon="-3.0066850595">
        <ele>1360.88</ele>
        <time>2017-10-08T08:10:12Z</time>
      </trkpt>
      <trkpt lat="37.8599207103" lon="-3.0066804495">
        <ele>1360.88</ele>
        <time>2017-10-08T08:10:13Z</time>
      </trkpt>
      <trkpt lat="37.8599016834" lon="-3.0066833831">
        <ele>1360.88</ele>
        <time>2017-10-08T08:10:14Z</time>
      </trkpt>
      <trkpt lat="37.8596656490" lon="-3.0068345927">
        <ele>1360.40</ele>
        <time>2017-10-08T08:10:23Z</time>
      </trkpt>
      <trkpt lat="37.8593446221" lon="-3.0071696173">
        <ele>1359.92</ele>
        <time>2017-10-08T08:10:33Z</time>
      </trkpt>
      <trkpt lat="37.8592074104" lon="-3.0073155463">
        <ele>1360.40</ele>
        <time>2017-10-08T08:10:40Z</time>
      </trkpt>
      <trkpt lat="37.8589486610" lon="-3.0075960886">
        <ele>1360.88</ele>
        <time>2017-10-08T08:10:50Z</time>
      </trkpt>
      <trkpt lat="37.8585452400" lon="-3.0079186242">
        <ele>1361.36</ele>
        <time>2017-10-08T08:11:01Z</time>
      </trkpt>
      <trkpt lat="37.8581926972" lon="-3.0079974141">
        <ele>1361.84</ele>
        <time>2017-10-08T08:11:11Z</time>
      </trkpt>
      <trkpt lat="37.8578095604" lon="-3.0078588612">
        <ele>1362.81</ele>
        <time>2017-10-08T08:11:24Z</time>
      </trkpt>
      <trkpt lat="37.8575675748" lon="-3.0077375751">
        <ele>1362.81</ele>
        <time>2017-10-08T08:11:32Z</time>
      </trkpt>
      <trkpt lat="37.8572657425" lon="-3.0076691788">
        <ele>1362.81</ele>
        <time>2017-10-08T08:11:41Z</time>
      </trkpt>
      <trkpt lat="37.8569924925" lon="-3.0076124333">
        <ele>1363.29</ele>
        <time>2017-10-08T08:11:49Z</time>
      </trkpt>
      <trkpt lat="37.8566893190" lon="-3.0075526703">
        <ele>1363.29</ele>
        <time>2017-10-08T08:11:58Z</time>
      </trkpt>
      <trkpt lat="37.8563848045" lon="-3.0075367447">
        <ele>1363.29</ele>
        <time>2017-10-08T08:12:07Z</time>
      </trkpt>
      <trkpt lat="37.8560367879" lon="-3.0075877067">
        <ele>1363.77</ele>
        <time>2017-10-08T08:12:17Z</time>
      </trkpt>
      <trkpt lat="37.8556783777" lon="-3.0078092404">
        <ele>1363.77</ele>
        <time>2017-10-08T08:12:28Z</time>
      </trkpt>
      <trkpt lat="37.8553133458" lon="-3.0078815762">
        <ele>1363.77</ele>
        <time>2017-10-08T08:12:38Z</time>
      </trkpt>
      <trkpt lat="37.8551032115" lon="-3.0079007708">
        <ele>1364.25</ele>
        <time>2017-10-08T08:12:46Z</time>
      </trkpt>
      <trkpt lat="37.8548379242" lon="-3.0078955740">
        <ele>1364.25</ele>
        <time>2017-10-08T08:12:56Z</time>
      </trkpt>
      <trkpt lat="37.8545510955" lon="-3.0079534091">
        <ele>1364.25</ele>
        <time>2017-10-08T08:13:06Z</time>
      </trkpt>
      <trkpt lat="37.8542438988" lon="-3.0080715101">
        <ele>1364.25</ele>
        <time>2017-10-08T08:13:16Z</time>
      </trkpt>
      <trkpt lat="37.8539700620" lon="-3.0082025193">
        <ele>1364.25</ele>
        <time>2017-10-08T08:13:25Z</time>
      </trkpt>
      <trkpt lat="37.8537355363" lon="-3.0083124898">
        <ele>1364.25</ele>
        <time>2017-10-08T08:13:34Z</time>
      </trkpt>
      <trkpt lat="37.8534875158" lon="-3.0084803794">
        <ele>1364.25</ele>
        <time>2017-10-08T08:13:43Z</time>
      </trkpt>
      <trkpt lat="37.8533981647" lon="-3.0086237937">
        <ele>1364.25</ele>
        <time>2017-10-08T08:13:47Z</time>
      </trkpt>
      <trkpt lat="37.8533784673" lon="-3.0086708162">
        <ele>1364.25</ele>
        <time>2017-10-08T08:13:48Z</time>
      </trkpt>
      <trkpt lat="37.8533336241" lon="-3.0088277254">
        <ele>1363.77</ele>
        <time>2017-10-08T08:13:51Z</time>
      </trkpt>
      <trkpt lat="37.8533254936" lon="-3.0088855606">
        <ele>1363.77</ele>
        <time>2017-10-08T08:13:52Z</time>
      </trkpt>
      <trkpt lat="37.8532481287" lon="-3.0092940107">
        <ele>1362.33</ele>
        <time>2017-10-08T08:14:00Z</time>
      </trkpt>
      <trkpt lat="37.8532254137" lon="-3.0093380157">
        <ele>1362.33</ele>
        <time>2017-10-08T08:14:01Z</time>
      </trkpt>
      <trkpt lat="37.8529110923" lon="-3.0097675882">
        <ele>1358.96</ele>
        <time>2017-10-08T08:14:11Z</time>
      </trkpt>
      <trkpt lat="37.8527428675" lon="-3.0099690892">
        <ele>1357.52</ele>
        <time>2017-10-08T08:14:16Z</time>
      </trkpt>
      <trkpt lat="37.8526989464" lon="-3.0100007728">
        <ele>1357.04</ele>
        <time>2017-10-08T08:14:17Z</time>
      </trkpt>
      <trkpt lat="37.8526519239" lon="-3.0100256670">
        <ele>1356.56</ele>
        <time>2017-10-08T08:14:18Z</time>
      </trkpt>
      <trkpt lat="37.8526021354" lon="-3.0100434367">
        <ele>1356.08</ele>
        <time>2017-10-08T08:14:19Z</time>
      </trkpt>
      <trkpt lat="37.8525502514" lon="-3.0100569315">
        <ele>1355.60</ele>
        <time>2017-10-08T08:14:20Z</time>
      </trkpt>
      <trkpt lat="37.8524495009" lon="-3.0100707617">
        <ele>1354.63</ele>
        <time>2017-10-08T08:14:22Z</time>
      </trkpt>
      <trkpt lat="37.8523998801" lon="-3.0100681633">
        <ele>1354.15</ele>
        <time>2017-10-08T08:14:23Z</time>
      </trkpt>
      <trkpt lat="37.8522534482" lon="-3.0100479629">
        <ele>1353.19</ele>
        <time>2017-10-08T08:14:26Z</time>
      </trkpt>
      <trkpt lat="37.8522045817" lon="-3.0100328755">
        <ele>1352.71</ele>
        <time>2017-10-08T08:14:27Z</time>
      </trkpt>
      <trkpt lat="37.8521539550" lon="-3.0100176204">
        <ele>1352.71</ele>
        <time>2017-10-08T08:14:28Z</time>
      </trkpt>
      <trkpt lat="37.8521030769" lon="-3.0099992640">
        <ele>1352.23</ele>
        <time>2017-10-08T08:14:29Z</time>
      </trkpt>
      <trkpt lat="37.8520512767" lon="-3.0099737830">
        <ele>1351.75</ele>
        <time>2017-10-08T08:14:30Z</time>
      </trkpt>
      <trkpt lat="37.8519977164" lon="-3.0099386629">
        <ele>1351.27</ele>
        <time>2017-10-08T08:14:31Z</time>
      </trkpt>
      <trkpt lat="37.8519492690" lon="-3.0098964181">
        <ele>1350.79</ele>
        <time>2017-10-08T08:14:32Z</time>
      </trkpt>
      <trkpt lat="37.8516181000" lon="-3.0095406063">
        <ele>1347.91</ele>
        <time>2017-10-08T08:14:39Z</time>
      </trkpt>
      <trkpt lat="37.8514628671" lon="-3.0094159674">
        <ele>1346.46</ele>
        <time>2017-10-08T08:14:42Z</time>
      </trkpt>
      <trkpt lat="37.8510901239" lon="-3.0091827828">
        <ele>1343.10</ele>
        <time>2017-10-08T08:14:49Z</time>
      </trkpt>
      <trkpt lat="37.8509969171" lon="-3.0091133807">
        <ele>1342.62</ele>
        <time>2017-10-08T08:14:51Z</time>
      </trkpt>
      <trkpt lat="37.8509157803" lon="-3.0090236943">
        <ele>1341.66</ele>
        <time>2017-10-08T08:14:53Z</time>
      </trkpt>
      <trkpt lat="37.8508824203" lon="-3.0089718103">
        <ele>1341.18</ele>
        <time>2017-10-08T08:14:54Z</time>
      </trkpt>
      <trkpt lat="37.8506882116" lon="-3.0085968040">
        <ele>1338.29</ele>
        <time>2017-10-08T08:15:00Z</time>
      </trkpt>
      <trkpt lat="37.8504768200" lon="-3.0081936345">
        <ele>1335.41</ele>
        <time>2017-10-08T08:15:07Z</time>
      </trkpt>
      <trkpt lat="37.8503663465" lon="-3.0080202967">
        <ele>1333.97</ele>
        <time>2017-10-08T08:15:10Z</time>
      </trkpt>
      <trkpt lat="37.8502899036" lon="-3.0079089012">
        <ele>1333.01</ele>
        <time>2017-10-08T08:15:12Z</time>
      </trkpt>
      <trkpt lat="37.8502524365" lon="-3.0078648962">
        <ele>1333.01</ele>
        <time>2017-10-08T08:15:13Z</time>
      </trkpt>
      <trkpt lat="37.8502181545" lon="-3.0078209750">
        <ele>1332.52</ele>
        <time>2017-10-08T08:15:14Z</time>
      </trkpt>
      <trkpt lat="37.8499018215" lon="-3.0074651632">
        <ele>1329.16</ele>
        <time>2017-10-08T08:15:22Z</time>
      </trkpt>
      <trkpt lat="37.8495626897" lon="-3.0071194936">
        <ele>1326.28</ele>
        <time>2017-10-08T08:15:31Z</time>
      </trkpt>
      <trkpt lat="37.8495378792" lon="-3.0070738122">
        <ele>1325.80</ele>
        <time>2017-10-08T08:15:32Z</time>
      </trkpt>
      <trkpt lat="37.8495190199" lon="-3.0070278794">
        <ele>1325.80</ele>
        <time>2017-10-08T08:15:33Z</time>
      </trkpt>
      <trkpt lat="37.8495063633" lon="-3.0069775041">
        <ele>1325.31</ele>
        <time>2017-10-08T08:15:34Z</time>
      </trkpt>
      <trkpt lat="37.8495004959" lon="-3.0069219321">
        <ele>1324.83</ele>
        <time>2017-10-08T08:15:35Z</time>
      </trkpt>
      <trkpt lat="37.8495017532" lon="-3.0068639293">
        <ele>1324.35</ele>
        <time>2017-10-08T08:15:36Z</time>
      </trkpt>
      <trkpt lat="37.8495094646" lon="-3.0068048369">
        <ele>1323.87</ele>
        <time>2017-10-08T08:15:37Z</time>
      </trkpt>
      <trkpt lat="37.8495254740" lon="-3.0067421403">
        <ele>1323.87</ele>
        <time>2017-10-08T08:15:38Z</time>
      </trkpt>
      <trkpt lat="37.8495506197" lon="-3.0066765100">
        <ele>1322.91</ele>
        <time>2017-10-08T08:15:39Z</time>
      </trkpt>
      <trkpt lat="37.8495837282" lon="-3.0066118017">
        <ele>1322.91</ele>
        <time>2017-10-08T08:15:40Z</time>
      </trkpt>
      <trkpt lat="37.8496209439" lon="-3.0065473448">
        <ele>1322.43</ele>
        <time>2017-10-08T08:15:41Z</time>
      </trkpt>
      <trkpt lat="37.8496853169" lon="-3.0064202752">
        <ele>1321.47</ele>
        <time>2017-10-08T08:15:43Z</time>
      </trkpt>
      <trkpt lat="37.8497032542" lon="-3.0063518789">
        <ele>1320.99</ele>
        <time>2017-10-08T08:15:44Z</time>
      </trkpt>
      <trkpt lat="37.8497149050" lon="-3.0062785372">
        <ele>1320.51</ele>
        <time>2017-10-08T08:15:45Z</time>
      </trkpt>
      <trkpt lat="37.8497143183" lon="-3.0061988253">
        <ele>1320.03</ele>
        <time>2017-10-08T08:15:46Z</time>
      </trkpt>
      <trkpt lat="37.8497023322" lon="-3.0061206222">
        <ele>1319.55</ele>
        <time>2017-10-08T08:15:47Z</time>
      </trkpt>
      <trkpt lat="37.8496845625" lon="-3.0060465261">
        <ele>1319.07</ele>
        <time>2017-10-08T08:15:48Z</time>
      </trkpt>
      <trkpt lat="37.8496600874" lon="-3.0059777107">
        <ele>1318.59</ele>
        <time>2017-10-08T08:15:49Z</time>
      </trkpt>
      <trkpt lat="37.8496316727" lon="-3.0059096497">
        <ele>1318.10</ele>
        <time>2017-10-08T08:15:50Z</time>
      </trkpt>
      <trkpt lat="37.8494587541" lon="-3.0054782331">
        <ele>1315.22</ele>
        <time>2017-10-08T08:15:56Z</time>
      </trkpt>
      <trkpt lat="37.8494184371" lon="-3.0053470563">
        <ele>1314.26</ele>
        <time>2017-10-08T08:15:58Z</time>
      </trkpt>
      <trkpt lat="37.8494098037" lon="-3.0052805878">
        <ele>1313.78</ele>
        <time>2017-10-08T08:15:59Z</time>
      </trkpt>
      <trkpt lat="37.8494094685" lon="-3.0052131135">
        <ele>1313.78</ele>
        <time>2017-10-08T08:16:00Z</time>
      </trkpt>
      <trkpt lat="37.8494196944" lon="-3.0051423702">
        <ele>1312.82</ele>
        <time>2017-10-08T08:16:01Z</time>
      </trkpt>
      <trkpt lat="37.8494380508" lon="-3.0050712917">
        <ele>1312.34</ele>
        <time>2017-10-08T08:16:02Z</time>
      </trkpt>
      <trkpt lat="37.8494599275" lon="-3.0049997102">
        <ele>1312.34</ele>
        <time>2017-10-08T08:16:03Z</time>
      </trkpt>
      <trkpt lat="37.8495580796" lon="-3.0046973750">
        <ele>1310.90</ele>
        <time>2017-10-08T08:16:07Z</time>
      </trkpt>
      <trkpt lat="37.8495688923" lon="-3.0046241172">
        <ele>1310.41</ele>
        <time>2017-10-08T08:16:08Z</time>
      </trkpt>
      <trkpt lat="37.8495815489" lon="-3.0044915993">
        <ele>1309.93</ele>
        <time>2017-10-08T08:16:10Z</time>
      </trkpt>
      <trkpt lat="37.8495931998" lon="-3.0044351052">
        <ele>1309.93</ele>
        <time>2017-10-08T08:16:11Z</time>
      </trkpt>
      <trkpt lat="37.8496036772" lon="-3.0043858197">
        <ele>1309.45</ele>
        <time>2017-10-08T08:16:12Z</time>
      </trkpt>
      <trkpt lat="37.8497167490" lon="-3.0039830692">
        <ele>1308.49</ele>
        <time>2017-10-08T08:16:22Z</time>
      </trkpt>
      <trkpt lat="37.8497364465" lon="-3.0038300157">
        <ele>1308.01</ele>
        <time>2017-10-08T08:16:25Z</time>
      </trkpt>
      <trkpt lat="37.8497326747" lon="-3.0037722643">
        <ele>1307.53</ele>
        <time>2017-10-08T08:16:26Z</time>
      </trkpt>
      <trkpt lat="37.8497222811" lon="-3.0037148483">
        <ele>1307.05</ele>
        <time>2017-10-08T08:16:27Z</time>
      </trkpt>
      <trkpt lat="37.8497045953" lon="-3.0036567617">
        <ele>1307.05</ele>
        <time>2017-10-08T08:16:28Z</time>
      </trkpt>
      <trkpt lat="37.8496800363" lon="-3.0036033690">
        <ele>1307.05</ele>
        <time>2017-10-08T08:16:29Z</time>
      </trkpt>
      <trkpt lat="37.8496512864" lon="-3.0035561789">
        <ele>1307.05</ele>
        <time>2017-10-08T08:16:30Z</time>
      </trkpt>
      <trkpt lat="37.8496234585" lon="-3.0035125092">
        <ele>1307.05</ele>
        <time>2017-10-08T08:16:31Z</time>
      </trkpt>
      <trkpt lat="37.8495937865" lon="-3.0034783948">
        <ele>1307.05</ele>
        <time>2017-10-08T08:16:32Z</time>
      </trkpt>
      <trkpt lat="37.8495608456" lon="-3.0034576915">
        <ele>1307.05</ele>
        <time>2017-10-08T08:16:33Z</time>
      </trkpt>
      <trkpt lat="37.8495291620" lon="-3.0034477171">
        <ele>1307.53</ele>
        <time>2017-10-08T08:16:34Z</time>
      </trkpt>
      <trkpt lat="37.8495000768" lon="-3.0034428556">
        <ele>1307.53</ele>
        <time>2017-10-08T08:16:35Z</time>
      </trkpt>
      <trkpt lat="37.8494756017" lon="-3.0034407601">
        <ele>1307.53</ele>
        <time>2017-10-08T08:16:36Z</time>
      </trkpt>
      <trkpt lat="37.8494561557" lon="-3.0034392513">
        <ele>1308.01</ele>
        <time>2017-10-08T08:16:37Z</time>
      </trkpt>
      <trkpt lat="37.8494381346" lon="-3.0034352280">
        <ele>1308.01</ele>
        <time>2017-10-08T08:16:38Z</time>
      </trkpt>
      <trkpt lat="37.8492568340" lon="-3.0034186319">
        <ele>1308.97</ele>
        <time>2017-10-08T08:16:48Z</time>
      </trkpt>
      <trkpt lat="37.8490481246" lon="-3.0033870321">
        <ele>1310.41</ele>
        <time>2017-10-08T08:17:00Z</time>
      </trkpt>
      <trkpt lat="37.8488623817" lon="-3.0033387523">
        <ele>1311.38</ele>
        <time>2017-10-08T08:17:11Z</time>
      </trkpt>
      <trkpt lat="37.8486467153" lon="-3.0032241717">
        <ele>1312.82</ele>
        <time>2017-10-08T08:17:24Z</time>
      </trkpt>
      <trkpt lat="37.8485370800" lon="-3.0031480640">
        <ele>1313.78</ele>
        <time>2017-10-08T08:17:32Z</time>
      </trkpt>
      <trkpt lat="37.8485265188" lon="-3.0031387601">
        <ele>1313.78</ele>
        <time>2017-10-08T08:17:33Z</time>
      </trkpt>
      <trkpt lat="37.8485146165" lon="-3.0031262711">
        <ele>1314.26</ele>
        <time>2017-10-08T08:17:34Z</time>
      </trkpt>
      <trkpt lat="37.8485031333" lon="-3.0031139497">
        <ele>1314.26</ele>
        <time>2017-10-08T08:17:35Z</time>
      </trkpt>
      <trkpt lat="37.8484887164" lon="-3.0031022150">
        <ele>1314.26</ele>
        <time>2017-10-08T08:17:36Z</time>
      </trkpt>
      <trkpt lat="37.8484750539" lon="-3.0030886363">
        <ele>1314.26</ele>
        <time>2017-10-08T08:17:37Z</time>
      </trkpt>
      <trkpt lat="37.8484592121" lon="-3.0030789133">
        <ele>1314.26</ele>
        <time>2017-10-08T08:17:38Z</time>
      </trkpt>
      <trkpt lat="37.8484437056" lon="-3.0030695256">
        <ele>1314.74</ele>
        <time>2017-10-08T08:17:39Z</time>
      </trkpt>
      <trkpt lat="37.8484319709" lon="-3.0030604731">
        <ele>1314.74</ele>
        <time>2017-10-08T08:17:40Z</time>
      </trkpt>
      <trkpt lat="37.8484221641" lon="-3.0030460563">
        <ele>1314.74</ele>
        <time>2017-10-08T08:17:41Z</time>
      </trkpt>
      <trkpt lat="37.8484099265" lon="-3.0030355789">
        <ele>1314.74</ele>
        <time>2017-10-08T08:17:42Z</time>
      </trkpt>
      <trkpt lat="37.8483967669" lon="-3.0030235089">
        <ele>1314.74</ele>
        <time>2017-10-08T08:17:43Z</time>
      </trkpt>
      <trkpt lat="37.8483855352" lon="-3.0030076671">
        <ele>1314.74</ele>
        <time>2017-10-08T08:17:44Z</time>
      </trkpt>
      <trkpt lat="37.8483303823" lon="-3.0029475689">
        <ele>1315.22</ele>
        <time>2017-10-08T08:17:48Z</time>
      </trkpt>
      <trkpt lat="37.8483151272" lon="-3.0029382650">
        <ele>1315.22</ele>
        <time>2017-10-08T08:17:49Z</time>
      </trkpt>
      <trkpt lat="37.8483015485" lon="-3.0029281229">
        <ele>1315.70</ele>
        <time>2017-10-08T08:17:50Z</time>
      </trkpt>
      <trkpt lat="37.8482889757" lon="-3.0029153824">
        <ele>1315.70</ele>
        <time>2017-10-08T08:17:51Z</time>
      </trkpt>
      <trkpt lat="37.8482791688" lon="-3.0029023904">
        <ele>1315.70</ele>
        <time>2017-10-08T08:17:52Z</time>
      </trkpt>
      <trkpt lat="37.8482679371" lon="-3.0028932542">
        <ele>1316.18</ele>
        <time>2017-10-08T08:17:53Z</time>
      </trkpt>
      <trkpt lat="37.8482358344" lon="-3.0028573796">
        <ele>1316.18</ele>
        <time>2017-10-08T08:17:56Z</time>
      </trkpt>
      <trkpt lat="37.8482244350" lon="-3.0028466508">
        <ele>1316.18</ele>
        <time>2017-10-08T08:17:57Z</time>
      </trkpt>
      <trkpt lat="37.8482132871" lon="-3.0028341617">
        <ele>1316.18</ele>
        <time>2017-10-08T08:17:58Z</time>
      </trkpt>
      <trkpt lat="37.8481628280" lon="-3.0027766619">
        <ele>1316.66</ele>
        <time>2017-10-08T08:18:02Z</time>
      </trkpt>
      <trkpt lat="37.8481486626" lon="-3.0027658492">
        <ele>1316.66</ele>
        <time>2017-10-08T08:18:03Z</time>
      </trkpt>
      <trkpt lat="37.8481378499" lon="-3.0027528573">
        <ele>1317.14</ele>
        <time>2017-10-08T08:18:04Z</time>
      </trkpt>
      <trkpt lat="37.8480350040" lon="-3.0026427191">
        <ele>1318.10</ele>
        <time>2017-10-08T08:18:13Z</time>
      </trkpt>
      <trkpt lat="37.8479519393" lon="-3.0025515240">
        <ele>1318.59</ele>
        <time>2017-10-08T08:18:20Z</time>
      </trkpt>
      <trkpt lat="37.8479424678" lon="-3.0025337543">
        <ele>1318.59</ele>
        <time>2017-10-08T08:18:21Z</time>
      </trkpt>
      <trkpt lat="37.8478318267" lon="-3.0023637693">
        <ele>1320.03</ele>
        <time>2017-10-08T08:18:32Z</time>
      </trkpt>
      <trkpt lat="37.8477490973" lon="-3.0022417288">
        <ele>1320.51</ele>
        <time>2017-10-08T08:18:40Z</time>
      </trkpt>
      <trkpt lat="37.8477384523" lon="-3.0022301618">
        <ele>1320.99</ele>
        <time>2017-10-08T08:18:41Z</time>
      </trkpt>
      <trkpt lat="37.8477267176" lon="-3.0022184271">
        <ele>1320.99</ele>
        <time>2017-10-08T08:18:42Z</time>
      </trkpt>
      <trkpt lat="37.8477121331" lon="-3.0022088718">
        <ele>1320.99</ele>
        <time>2017-10-08T08:18:43Z</time>
      </trkpt>
      <trkpt lat="37.8476964589" lon="-3.0022006575">
        <ele>1320.99</ele>
        <time>2017-10-08T08:18:44Z</time>
      </trkpt>
      <trkpt lat="37.8476812039" lon="-3.0021955445">
        <ele>1320.99</ele>
        <time>2017-10-08T08:18:45Z</time>
      </trkpt>
      <trkpt lat="37.8476653621" lon="-3.0021926109">
        <ele>1321.47</ele>
        <time>2017-10-08T08:18:46Z</time>
      </trkpt>
      <trkpt lat="37.8476501070" lon="-3.0021869950">
        <ele>1321.47</ele>
        <time>2017-10-08T08:18:47Z</time>
      </trkpt>
      <trkpt lat="37.8476366960" lon="-3.0021824688">
        <ele>1321.47</ele>
        <time>2017-10-08T08:18:48Z</time>
      </trkpt>
      <trkpt lat="37.8476229496" lon="-3.0021804571">
        <ele>1321.95</ele>
        <time>2017-10-08T08:18:49Z</time>
      </trkpt>
      <trkpt lat="37.8475614265" lon="-3.0021762662">
        <ele>1322.43</ele>
        <time>2017-10-08T08:18:54Z</time>
      </trkpt>
      <trkpt lat="37.8475429025" lon="-3.0021783616">
        <ele>1322.43</ele>
        <time>2017-10-08T08:18:56Z</time>
      </trkpt>
      <trkpt lat="37.8475297429" lon="-3.0021802057">
        <ele>1322.91</ele>
        <time>2017-10-08T08:18:57Z</time>
      </trkpt>
      <trkpt lat="37.8475169186" lon="-3.0021837261">
        <ele>1322.91</ele>
        <time>2017-10-08T08:18:58Z</time>
      </trkpt>
      <trkpt lat="37.8475037590" lon="-3.0021879170">
        <ele>1322.91</ele>
        <time>2017-10-08T08:18:59Z</time>
      </trkpt>
      <trkpt lat="37.8474881686" lon="-3.0021905992">
        <ele>1323.39</ele>
        <time>2017-10-08T08:19:00Z</time>
      </trkpt>
      <trkpt lat="37.8473730013" lon="-3.0022395495">
        <ele>1324.35</ele>
        <time>2017-10-08T08:19:09Z</time>
      </trkpt>
      <trkpt lat="37.8473600093" lon="-3.0022460036">
        <ele>1324.35</ele>
        <time>2017-10-08T08:19:10Z</time>
      </trkpt>
      <trkpt lat="37.8472568281" lon="-3.0022577383">
        <ele>1326.28</ele>
        <time>2017-10-08T08:19:20Z</time>
      </trkpt>
      <trkpt lat="37.8471263219" lon="-3.0023234524">
        <ele>1326.76</ele>
        <time>2017-10-08T08:19:30Z</time>
      </trkpt>
      <trkpt lat="37.8469875176" lon="-3.0023485981">
        <ele>1327.72</ele>
        <time>2017-10-08T08:19:40Z</time>
      </trkpt>
      <trkpt lat="37.8469700832" lon="-3.0023563933">
        <ele>1327.72</ele>
        <time>2017-10-08T08:19:41Z</time>
      </trkpt>
      <trkpt lat="37.8469549958" lon="-3.0023600813">
        <ele>1328.20</ele>
        <time>2017-10-08T08:19:42Z</time>
      </trkpt>
      <trkpt lat="37.8469398245" lon="-3.0023651943">
        <ele>1328.20</ele>
        <time>2017-10-08T08:19:43Z</time>
      </trkpt>
      <trkpt lat="37.8469244018" lon="-3.0023713131">
        <ele>1328.20</ele>
        <time>2017-10-08T08:19:44Z</time>
      </trkpt>
      <trkpt lat="37.8467729408" lon="-3.0024052598">
        <ele>1329.16</ele>
        <time>2017-10-08T08:19:55Z</time>
      </trkpt>
      <trkpt lat="37.8467506450" lon="-3.0024154857">
        <ele>1329.64</ele>
        <time>2017-10-08T08:19:57Z</time>
      </trkpt>
      <trkpt lat="37.8467398323" lon="-3.0024153180">
        <ele>1329.64</ele>
        <time>2017-10-08T08:19:58Z</time>
      </trkpt>
      <trkpt lat="37.8465878684" lon="-3.0024912581">
        <ele>1330.60</ele>
        <time>2017-10-08T08:20:08Z</time>
      </trkpt>
      <trkpt lat="37.8463992756" lon="-3.0025582295">
        <ele>1332.04</ele>
        <time>2017-10-08T08:20:20Z</time>
      </trkpt>
      <trkpt lat="37.8462451324" lon="-3.0026165675">
        <ele>1333.01</ele>
        <time>2017-10-08T08:20:30Z</time>
      </trkpt>
      <trkpt lat="37.8460769076" lon="-3.0026837066">
        <ele>1333.97</ele>
        <time>2017-10-08T08:20:41Z</time>
      </trkpt>
      <trkpt lat="37.8459143825" lon="-3.0027258676">
        <ele>1335.41</ele>
        <time>2017-10-08T08:20:52Z</time>
      </trkpt>
      <trkpt lat="37.8458845429" lon="-3.0027388595">
        <ele>1335.89</ele>
        <time>2017-10-08T08:20:54Z</time>
      </trkpt>
      <trkpt lat="37.8458699584" lon="-3.0027407035">
        <ele>1335.89</ele>
        <time>2017-10-08T08:20:55Z</time>
      </trkpt>
      <trkpt lat="37.8458552901" lon="-3.0027449783">
        <ele>1335.89</ele>
        <time>2017-10-08T08:20:56Z</time>
      </trkpt>
      <trkpt lat="37.8456851374" lon="-3.0028262828">
        <ele>1337.33</ele>
        <time>2017-10-08T08:21:08Z</time>
      </trkpt>
      <trkpt lat="37.8455379512" lon="-3.0029377621">
        <ele>1338.29</ele>
        <time>2017-10-08T08:21:19Z</time>
      </trkpt>
      <trkpt lat="37.8453786112" lon="-3.0030805059">
        <ele>1339.73</ele>
        <time>2017-10-08T08:21:32Z</time>
      </trkpt>
      <trkpt lat="37.8452683054" lon="-3.0031996127">
        <ele>1341.18</ele>
        <time>2017-10-08T08:21:42Z</time>
      </trkpt>
      <trkpt lat="37.8451756854" lon="-3.0033499002">
        <ele>1342.14</ele>
        <time>2017-10-08T08:21:52Z</time>
      </trkpt>
      <trkpt lat="37.8450875916" lon="-3.0035102461">
        <ele>1343.58</ele>
        <time>2017-10-08T08:22:03Z</time>
      </trkpt>
      <trkpt lat="37.8450571653" lon="-3.0035463721">
        <ele>1344.06</ele>
        <time>2017-10-08T08:22:06Z</time>
      </trkpt>
      <trkpt lat="37.8450426646" lon="-3.0035503954">
        <ele>1344.54</ele>
        <time>2017-10-08T08:22:07Z</time>
      </trkpt>
      <trkpt lat="37.8450292535" lon="-3.0035565980">
        <ele>1344.54</ele>
        <time>2017-10-08T08:22:08Z</time>
      </trkpt>
      <trkpt lat="37.8450148366" lon="-3.0035655666">
        <ele>1344.54</ele>
        <time>2017-10-08T08:22:09Z</time>
      </trkpt>
      <trkpt lat="37.8449989948" lon="-3.0035726912">
        <ele>1345.02</ele>
        <time>2017-10-08T08:22:10Z</time>
      </trkpt>
      <trkpt lat="37.8449837398" lon="-3.0035790615">
        <ele>1345.02</ele>
        <time>2017-10-08T08:22:11Z</time>
      </trkpt>
      <trkpt lat="37.8449707478" lon="-3.0035873596">
        <ele>1345.02</ele>
        <time>2017-10-08T08:22:12Z</time>
      </trkpt>
      <trkpt lat="37.8448570054" lon="-3.0036001001">
        <ele>1349.83</ele>
        <time>2017-10-08T08:22:20Z</time>
      </trkpt>
      <trkpt lat="37.8448439296" lon="-3.0035995971">
        <ele>1345.98</ele>
        <time>2017-10-08T08:22:21Z</time>
      </trkpt>
      <trkpt lat="37.8448329493" lon="-3.0035964120">
        <ele>1345.98</ele>
        <time>2017-10-08T08:22:22Z</time>
      </trkpt>
      <trkpt lat="37.8448233102" lon="-3.0035936460">
        <ele>1345.98</ele>
        <time>2017-10-08T08:22:23Z</time>
      </trkpt>
      <trkpt lat="37.8448114078" lon="-3.0035928916">
        <ele>1345.98</ele>
        <time>2017-10-08T08:22:24Z</time>
      </trkpt>
      <trkpt lat="37.8447974101" lon="-3.0035937298">
        <ele>1345.98</ele>
        <time>2017-10-08T08:22:25Z</time>
      </trkpt>
      <trkpt lat="37.8447837476" lon="-3.0035959929">
        <ele>1346.46</ele>
        <time>2017-10-08T08:22:26Z</time>
      </trkpt>
      <trkpt lat="37.8447707556" lon="-3.0035907961">
        <ele>1346.46</ele>
        <time>2017-10-08T08:22:27Z</time>
      </trkpt>
      <trkpt lat="37.8447598591" lon="-3.0035808217">
        <ele>1346.46</ele>
        <time>2017-10-08T08:22:28Z</time>
      </trkpt>
      <trkpt lat="37.8446217254" lon="-3.0035090726">
        <ele>1347.91</ele>
        <time>2017-10-08T08:22:40Z</time>
      </trkpt>
      <trkpt lat="37.8444986790" lon="-3.0034392513">
        <ele>1348.87</ele>
        <time>2017-10-08T08:22:52Z</time>
      </trkpt>
      <trkpt lat="37.8443850204" lon="-3.0033879541">
        <ele>1349.83</ele>
        <time>2017-10-08T08:23:00Z</time>
      </trkpt>
      <trkpt lat="37.8443687595" lon="-3.0033852719">
        <ele>1349.83</ele>
        <time>2017-10-08T08:23:01Z</time>
      </trkpt>
      <trkpt lat="37.8443546779" lon="-3.0033780634">
        <ele>1349.83</ele>
        <time>2017-10-08T08:23:02Z</time>
      </trkpt>
      <trkpt lat="37.8443390876" lon="-3.0033721123">
        <ele>1349.83</ele>
        <time>2017-10-08T08:23:03Z</time>
      </trkpt>
      <trkpt lat="37.8443255089" lon="-3.0033630598">
        <ele>1349.83</ele>
        <time>2017-10-08T08:23:04Z</time>
      </trkpt>
      <trkpt lat="37.8441942483" lon="-3.0033126008">
        <ele>1350.79</ele>
        <time>2017-10-08T08:23:13Z</time>
      </trkpt>
      <trkpt lat="37.8440576233" lon="-3.0032787379">
        <ele>1352.23</ele>
        <time>2017-10-08T08:23:23Z</time>
      </trkpt>
      <trkpt lat="37.8440170549" lon="-3.0032659136">
        <ele>1352.71</ele>
        <time>2017-10-08T08:23:26Z</time>
      </trkpt>
      <trkpt lat="37.8440022189" lon="-3.0032639019">
        <ele>1352.71</ele>
        <time>2017-10-08T08:23:27Z</time>
      </trkpt>
      <trkpt lat="37.8438933380" lon="-3.0032217409">
        <ele>1353.67</ele>
        <time>2017-10-08T08:23:35Z</time>
      </trkpt>
      <trkpt lat="37.8438812681" lon="-3.0032076593">
        <ele>1353.67</ele>
        <time>2017-10-08T08:23:36Z</time>
      </trkpt>
      <trkpt lat="37.8438691143" lon="-3.0031946674">
        <ele>1353.67</ele>
        <time>2017-10-08T08:23:37Z</time>
      </trkpt>
      <trkpt lat="37.8438559547" lon="-3.0031836871">
        <ele>1354.15</ele>
        <time>2017-10-08T08:23:38Z</time>
      </trkpt>
      <trkpt lat="37.8438416217" lon="-3.0031758919">
        <ele>1354.15</ele>
        <time>2017-10-08T08:23:39Z</time>
      </trkpt>
      <trkpt lat="37.8438266180" lon="-3.0031674262">
        <ele>1354.15</ele>
        <time>2017-10-08T08:23:40Z</time>
      </trkpt>
      <trkpt lat="37.8438126203" lon="-3.0031582899">
        <ele>1354.15</ele>
        <time>2017-10-08T08:23:41Z</time>
      </trkpt>
      <trkpt lat="37.8437995445" lon="-3.0031464715">
        <ele>1354.15</ele>
        <time>2017-10-08T08:23:42Z</time>
      </trkpt>
      <trkpt lat="37.8437842894" lon="-3.0031400174">
        <ele>1354.15</ele>
        <time>2017-10-08T08:23:43Z</time>
      </trkpt>
      <trkpt lat="37.8437669389" lon="-3.0031294562">
        <ele>1354.63</ele>
        <time>2017-10-08T08:23:44Z</time>
      </trkpt>
      <trkpt lat="37.8437505104" lon="-3.0031253491">
        <ele>1354.63</ele>
        <time>2017-10-08T08:23:45Z</time>
      </trkpt>
      <trkpt lat="37.8437334113" lon="-3.0031189788">
        <ele>1354.63</ele>
        <time>2017-10-08T08:23:46Z</time>
      </trkpt>
      <trkpt lat="37.8437181562" lon="-3.0031131115">
        <ele>1354.63</ele>
        <time>2017-10-08T08:23:47Z</time>
      </trkpt>
      <trkpt lat="37.8435972892" lon="-3.0030784942">
        <ele>1356.08</ele>
        <time>2017-10-08T08:23:55Z</time>
      </trkpt>
      <trkpt lat="37.8434553836" lon="-3.0030287057">
        <ele>1357.04</ele>
        <time>2017-10-08T08:24:05Z</time>
      </trkpt>
      <trkpt lat="37.8433328401" lon="-3.0029952619">
        <ele>1358.48</ele>
        <time>2017-10-08T08:24:14Z</time>
      </trkpt>
      <trkpt lat="37.8432059381" lon="-3.0029303860">
        <ele>1359.44</ele>
        <time>2017-10-08T08:24:24Z</time>
      </trkpt>
      <trkpt lat="37.8430408984" lon="-3.0028759874">
        <ele>1359.92</ele>
        <time>2017-10-08T08:24:34Z</time>
      </trkpt>
      <trkpt lat="37.8430129029" lon="-3.0028614029">
        <ele>1360.40</ele>
        <time>2017-10-08T08:24:36Z</time>
      </trkpt>
      <trkpt lat="37.8429977316" lon="-3.0028592236">
        <ele>1360.40</ele>
        <time>2017-10-08T08:24:37Z</time>
      </trkpt>
      <trkpt lat="37.8429835662" lon="-3.0028555356">
        <ele>1360.88</ele>
        <time>2017-10-08T08:24:38Z</time>
      </trkpt>
      <trkpt lat="37.8429726698" lon="-3.0028524343">
        <ele>1360.88</ele>
        <time>2017-10-08T08:24:39Z</time>
      </trkpt>
      <trkpt lat="37.8429595940" lon="-3.0028492492">
        <ele>1360.88</ele>
        <time>2017-10-08T08:24:40Z</time>
      </trkpt>
      <trkpt lat="37.8429435007" lon="-3.0028436333">
        <ele>1361.36</ele>
        <time>2017-10-08T08:24:41Z</time>
      </trkpt>
      <trkpt lat="37.8429284971" lon="-3.0028396100">
        <ele>1361.36</ele>
        <time>2017-10-08T08:24:42Z</time>
      </trkpt>
      <trkpt lat="37.8429046925" lon="-3.0028257798">
        <ele>1361.36</ele>
        <time>2017-10-08T08:24:44Z</time>
      </trkpt>
      <trkpt lat="37.8428918682" lon="-3.0028154701">
        <ele>1361.36</ele>
        <time>2017-10-08T08:24:45Z</time>
      </trkpt>
      <trkpt lat="37.8428789601" lon="-3.0028068367">
        <ele>1361.84</ele>
        <time>2017-10-08T08:24:46Z</time>
      </trkpt>
      <trkpt lat="37.8428673092" lon="-3.0027986225">
        <ele>1361.84</ele>
        <time>2017-10-08T08:24:47Z</time>
      </trkpt>
      <trkpt lat="37.8428575024" lon="-3.0027904082">
        <ele>1361.84</ele>
        <time>2017-10-08T08:24:48Z</time>
      </trkpt>
      <trkpt lat="37.8428474441" lon="-3.0027807690">
        <ele>1361.84</ele>
        <time>2017-10-08T08:24:49Z</time>
      </trkpt>
      <trkpt lat="37.8428378049" lon="-3.0027666874">
        <ele>1362.33</ele>
        <time>2017-10-08T08:24:50Z</time>
      </trkpt>
      <trkpt lat="37.8428331949" lon="-3.0027519353">
        <ele>1362.33</ele>
        <time>2017-10-08T08:24:51Z</time>
      </trkpt>
      <trkpt lat="37.8428107314" lon="-3.0025713891">
        <ele>1363.29</ele>
        <time>2017-10-08T08:25:01Z</time>
      </trkpt>
      <trkpt lat="37.8428923711" lon="-3.0023672897">
        <ele>1364.73</ele>
        <time>2017-10-08T08:25:13Z</time>
      </trkpt>
      <trkpt lat="37.8430092148" lon="-3.0022824649">
        <ele>1366.17</ele>
        <time>2017-10-08T08:25:23Z</time>
      </trkpt>
      <trkpt lat="37.8431967180" lon="-3.0022581574">
        <ele>1367.13</ele>
        <time>2017-10-08T08:25:34Z</time>
      </trkpt>
      <trkpt lat="37.8434024099" lon="-3.0023156572">
        <ele>1369.05</ele>
        <time>2017-10-08T08:25:46Z</time>
      </trkpt>
      <trkpt lat="37.8434966225" lon="-3.0023257993">
        <ele>1369.54</ele>
        <time>2017-10-08T08:25:53Z</time>
      </trkpt>
      <trkpt lat="37.8435125481" lon="-3.0023239553">
        <ele>1370.02</ele>
        <time>2017-10-08T08:25:54Z</time>
      </trkpt>
      <trkpt lat="37.8435255401" lon="-3.0023268890">
        <ele>1370.02</ele>
        <time>2017-10-08T08:25:55Z</time>
      </trkpt>
      <trkpt lat="37.8435402084" lon="-3.0023278948">
        <ele>1370.02</ele>
        <time>2017-10-08T08:25:56Z</time>
      </trkpt>
      <trkpt lat="37.8435537871" lon="-3.0023305770">
        <ele>1370.02</ele>
        <time>2017-10-08T08:25:57Z</time>
      </trkpt>
      <trkpt lat="37.8435657732" lon="-3.0023319181">
        <ele>1370.02</ele>
        <time>2017-10-08T08:25:58Z</time>
      </trkpt>
      <trkpt lat="37.8435805254" lon="-3.0023328401">
        <ele>1370.02</ele>
        <time>2017-10-08T08:25:59Z</time>
      </trkpt>
      <trkpt lat="37.8435947746" lon="-3.0023317505">
        <ele>1370.50</ele>
        <time>2017-10-08T08:26:00Z</time>
      </trkpt>
      <trkpt lat="37.8436072636" lon="-3.0023269728">
        <ele>1370.50</ele>
        <time>2017-10-08T08:26:01Z</time>
      </trkpt>
      <trkpt lat="37.8437879775" lon="-3.0023278110">
        <ele>1371.46</ele>
        <time>2017-10-08T08:26:14Z</time>
      </trkpt>
      <trkpt lat="37.8439364210" lon="-3.0023662839">
        <ele>1372.90</ele>
        <time>2017-10-08T08:26:25Z</time>
      </trkpt>
      <trkpt lat="37.8441048134" lon="-3.0024131387">
        <ele>1373.86</ele>
        <time>2017-10-08T08:26:36Z</time>
      </trkpt>
      <trkpt lat="37.8441693541" lon="-3.0024242029">
        <ele>1373.86</ele>
        <time>2017-10-08T08:26:40Z</time>
      </trkpt>
      <trkpt lat="37.8441829327" lon="-3.0024368595">
        <ele>1374.34</ele>
        <time>2017-10-08T08:26:41Z</time>
      </trkpt>
      <trkpt lat="37.8441950027" lon="-3.0024497677">
        <ele>1374.34</ele>
        <time>2017-10-08T08:26:42Z</time>
      </trkpt>
      <trkpt lat="37.8442068212" lon="-3.0024599936">
        <ele>1374.34</ele>
        <time>2017-10-08T08:26:43Z</time>
      </trkpt>
      <trkpt lat="37.8442195617" lon="-3.0024682079">
        <ele>1374.82</ele>
        <time>2017-10-08T08:26:44Z</time>
      </trkpt>
      <trkpt lat="37.8443545103" lon="-3.0025572237">
        <ele>1375.30</ele>
        <time>2017-10-08T08:26:55Z</time>
      </trkpt>
      <trkpt lat="37.8443822544" lon="-3.0025810283">
        <ele>1376.26</ele>
        <time>2017-10-08T08:26:58Z</time>
      </trkpt>
      <trkpt lat="37.8444373235" lon="-3.0026044138">
        <ele>1376.26</ele>
        <time>2017-10-08T08:27:02Z</time>
      </trkpt>
      <trkpt lat="37.8444522433" lon="-3.0026029889">
        <ele>1376.26</ele>
        <time>2017-10-08T08:27:03Z</time>
      </trkpt>
      <trkpt lat="37.8444725275" lon="-3.0026012287">
        <ele>1376.26</ele>
        <time>2017-10-08T08:27:04Z</time>
      </trkpt>
      <trkpt lat="37.8444932308" lon="-3.0026001390">
        <ele>1376.75</ele>
        <time>2017-10-08T08:27:05Z</time>
      </trkpt>
      <trkpt lat="37.8446322866" lon="-3.0026785098">
        <ele>1377.71</ele>
        <time>2017-10-08T08:27:15Z</time>
      </trkpt>
      <trkpt lat="37.8448000085" lon="-3.0027060024">
        <ele>1379.15</ele>
        <time>2017-10-08T08:27:25Z</time>
      </trkpt>
      <trkpt lat="37.8448133357" lon="-3.0027046613">
        <ele>1379.15</ele>
        <time>2017-10-08T08:27:26Z</time>
      </trkpt>
      <trkpt lat="37.8448280040" lon="-3.0026983749">
        <ele>1379.15</ele>
        <time>2017-10-08T08:27:27Z</time>
      </trkpt>
      <trkpt lat="37.8448418342" lon="-3.0026935972">
        <ele>1379.15</ele>
        <time>2017-10-08T08:27:28Z</time>
      </trkpt>
      <trkpt lat="37.8449533973" lon="-3.0025356822">
        <ele>1380.59</ele>
        <time>2017-10-08T08:27:40Z</time>
      </trkpt>
      <trkpt lat="37.8449114878" lon="-3.0023522861">
        <ele>1382.51</ele>
        <time>2017-10-08T08:27:49Z</time>
      </trkpt>
      <trkpt lat="37.8447709233" lon="-3.0022881646">
        <ele>1383.47</ele>
        <time>2017-10-08T08:28:00Z</time>
      </trkpt>
      <trkpt lat="37.8447446879" lon="-3.0022838060">
        <ele>1383.47</ele>
        <time>2017-10-08T08:28:02Z</time>
      </trkpt>
      <trkpt lat="37.8447308578" lon="-3.0022859015">
        <ele>1383.47</ele>
        <time>2017-10-08T08:28:03Z</time>
      </trkpt>
      <trkpt lat="37.8447162732" lon="-3.0022831354">
        <ele>1383.47</ele>
        <time>2017-10-08T08:28:04Z</time>
      </trkpt>
      <trkpt lat="37.8447016887" lon="-3.0022774357">
        <ele>1383.47</ele>
        <time>2017-10-08T08:28:05Z</time>
      </trkpt>
      <trkpt lat="37.8446891159" lon="-3.0022728257">
        <ele>1383.96</ele>
        <time>2017-10-08T08:28:06Z</time>
      </trkpt>
      <trkpt lat="37.8446764592" lon="-3.0022679642">
        <ele>1383.96</ele>
        <time>2017-10-08T08:28:07Z</time>
      </trkpt>
      <trkpt lat="37.8445382416" lon="-3.0022183433">
        <ele>1384.92</ele>
        <time>2017-10-08T08:28:18Z</time>
      </trkpt>
      <trkpt lat="37.8444115072" lon="-3.0021941196">
        <ele>1386.36</ele>
        <time>2017-10-08T08:28:28Z</time>
      </trkpt>
      <trkpt lat="37.8442414384" lon="-3.0021342728">
        <ele>1387.32</ele>
        <time>2017-10-08T08:28:40Z</time>
      </trkpt>
      <trkpt lat="37.8440632392" lon="-3.0020559020">
        <ele>1388.76</ele>
        <time>2017-10-08T08:28:52Z</time>
      </trkpt>
      <trkpt lat="37.8438987862" lon="-3.0019363761">
        <ele>1390.20</ele>
        <time>2017-10-08T08:29:04Z</time>
      </trkpt>
      <trkpt lat="37.8437612392" lon="-3.0018171854">
        <ele>1391.17</ele>
        <time>2017-10-08T08:29:14Z</time>
      </trkpt>
      <trkpt lat="37.8435857221" lon="-3.0016853381">
        <ele>1392.61</ele>
        <time>2017-10-08T08:29:27Z</time>
      </trkpt>
      <trkpt lat="37.8435603250" lon="-3.0016776267">
        <ele>1392.61</ele>
        <time>2017-10-08T08:29:29Z</time>
      </trkpt>
      <trkpt lat="37.8435485065" lon="-3.0016747769">
        <ele>1393.09</ele>
        <time>2017-10-08T08:29:30Z</time>
      </trkpt>
      <trkpt lat="37.8435369395" lon="-3.0016701669">
        <ele>1393.09</ele>
        <time>2017-10-08T08:29:31Z</time>
      </trkpt>
      <trkpt lat="37.8435251210" lon="-3.0016674008">
        <ele>1393.09</ele>
        <time>2017-10-08T08:29:32Z</time>
      </trkpt>
      <trkpt lat="37.8435123805" lon="-3.0016620364">
        <ele>1393.09</ele>
        <time>2017-10-08T08:29:33Z</time>
      </trkpt>
      <trkpt lat="37.8434984665" lon="-3.0016629584">
        <ele>1393.57</ele>
        <time>2017-10-08T08:29:34Z</time>
      </trkpt>
      <trkpt lat="37.8434822056" lon="-3.0016648863">
        <ele>1393.57</ele>
        <time>2017-10-08T08:29:35Z</time>
      </trkpt>
      <trkpt lat="37.8434661962" lon="-3.0016662274">
        <ele>1393.57</ele>
        <time>2017-10-08T08:29:36Z</time>
      </trkpt>
      <trkpt lat="37.8434510250" lon="-3.0016686581">
        <ele>1393.57</ele>
        <time>2017-10-08T08:29:37Z</time>
      </trkpt>
      <trkpt lat="37.8434381168" lon="-3.0016719270">
        <ele>1394.05</ele>
        <time>2017-10-08T08:29:38Z</time>
      </trkpt>
      <trkpt lat="37.8434247058" lon="-3.0016742740">
        <ele>1394.05</ele>
        <time>2017-10-08T08:29:39Z</time>
      </trkpt>
      <trkpt lat="37.8434113786" lon="-3.0016775429">
        <ele>1394.53</ele>
        <time>2017-10-08T08:29:40Z</time>
      </trkpt>
      <trkpt lat="37.8433963750" lon="-3.0016800575">
        <ele>1394.53</ele>
        <time>2017-10-08T08:29:41Z</time>
      </trkpt>
      <trkpt lat="37.8433827125" lon="-3.0016846675">
        <ele>1394.53</ele>
        <time>2017-10-08T08:29:42Z</time>
      </trkpt>
      <trkpt lat="37.8433672059" lon="-3.0016902834">
        <ele>1394.53</ele>
        <time>2017-10-08T08:29:43Z</time>
      </trkpt>
      <trkpt lat="37.8433505259" lon="-3.0016911216">
        <ele>1394.53</ele>
        <time>2017-10-08T08:29:44Z</time>
      </trkpt>
      <trkpt lat="37.8433351871" lon="-3.0016942229">
        <ele>1395.01</ele>
        <time>2017-10-08T08:29:45Z</time>
      </trkpt>
      <trkpt lat="37.8433198482" lon="-3.0016992521">
        <ele>1395.01</ele>
        <time>2017-10-08T08:29:46Z</time>
      </trkpt>
      <trkpt lat="37.8433045931" lon="-3.0017014313">
        <ele>1395.01</ele>
        <time>2017-10-08T08:29:47Z</time>
      </trkpt>
      <trkpt lat="37.8432588279" lon="-3.0017078854">
        <ele>1395.49</ele>
        <time>2017-10-08T08:29:50Z</time>
      </trkpt>
      <trkpt lat="37.8432449978" lon="-3.0017070472">
        <ele>1395.49</ele>
        <time>2017-10-08T08:29:51Z</time>
      </trkpt>
      <trkpt lat="37.8432324249" lon="-3.0017054547">
        <ele>1395.49</ele>
        <time>2017-10-08T08:29:52Z</time>
      </trkpt>
      <trkpt lat="37.8432192653" lon="-3.0017039459">
        <ele>1395.49</ele>
        <time>2017-10-08T08:29:53Z</time>
      </trkpt>
      <trkpt lat="37.8432024177" lon="-3.0017042812">
        <ele>1395.97</ele>
        <time>2017-10-08T08:29:54Z</time>
      </trkpt>
      <trkpt lat="37.8430412337" lon="-3.0016717594">
        <ele>1397.41</ele>
        <time>2017-10-08T08:30:05Z</time>
      </trkpt>
      <trkpt lat="37.8429709934" lon="-3.0016675685">
        <ele>1397.41</ele>
        <time>2017-10-08T08:30:09Z</time>
      </trkpt>
      <trkpt lat="37.8429549839" lon="-3.0016699992">
        <ele>1397.89</ele>
        <time>2017-10-08T08:30:10Z</time>
      </trkpt>
      <trkpt lat="37.8428964783" lon="-3.0016627908">
        <ele>1398.37</ele>
        <time>2017-10-08T08:30:14Z</time>
      </trkpt>
      <trkpt lat="37.8428813070" lon="-3.0016553309">
        <ele>1398.37</ele>
        <time>2017-10-08T08:30:15Z</time>
      </trkpt>
      <trkpt lat="37.8426841646" lon="-3.0015912931">
        <ele>1399.82</ele>
        <time>2017-10-08T08:30:28Z</time>
      </trkpt>
      <trkpt lat="37.8425232321" lon="-3.0015840009">
        <ele>1401.26</ele>
        <time>2017-10-08T08:30:39Z</time>
      </trkpt>
      <trkpt lat="37.8423748724" lon="-3.0016134214">
        <ele>1402.22</ele>
        <time>2017-10-08T08:30:48Z</time>
      </trkpt>
      <trkpt lat="37.8422414325" lon="-3.0016437639">
        <ele>1403.18</ele>
        <time>2017-10-08T08:30:57Z</time>
      </trkpt>
      <trkpt lat="37.8420766443" lon="-3.0016898643">
        <ele>1404.14</ele>
        <time>2017-10-08T08:31:07Z</time>
      </trkpt>
      <trkpt lat="37.8418971039" lon="-3.0017286725">
        <ele>1405.58</ele>
        <time>2017-10-08T08:31:17Z</time>
      </trkpt>
      <trkpt lat="37.8418602236" lon="-3.0017469451">
        <ele>1406.07</ele>
        <time>2017-10-08T08:31:19Z</time>
      </trkpt>
      <trkpt lat="37.8418432921" lon="-3.0017502978">
        <ele>1406.07</ele>
        <time>2017-10-08T08:31:20Z</time>
      </trkpt>
      <trkpt lat="37.8416866343" lon="-3.0017868429">
        <ele>1407.51</ele>
        <time>2017-10-08T08:31:29Z</time>
      </trkpt>
      <trkpt lat="37.8415850457" lon="-3.0018146709">
        <ele>1408.47</ele>
        <time>2017-10-08T08:31:37Z</time>
      </trkpt>
      <trkpt lat="37.8415837046" lon="-3.0018241424">
        <ele>1408.47</ele>
        <time>2017-10-08T08:31:52Z</time>
      </trkpt>
      <trkpt lat="37.8415746521" lon="-3.0018385593">
        <ele>1408.47</ele>
        <time>2017-10-08T08:32:11Z</time>
      </trkpt>
      <trkpt lat="37.8415727243" lon="-3.0018184427">
        <ele>1408.47</ele>
        <time>2017-10-08T08:32:28Z</time>
      </trkpt>
      <trkpt lat="37.8415877279" lon="-3.0018450134">
        <ele>1408.47</ele>
        <time>2017-10-08T08:32:51Z</time>
      </trkpt>
      <trkpt lat="37.8415786754" lon="-3.0018396489">
        <ele>1408.47</ele>
        <time>2017-10-08T08:33:11Z</time>
      </trkpt>
      <trkpt lat="37.8415262885" lon="-3.0018510483">
        <ele>1408.95</ele>
        <time>2017-10-08T08:33:23Z</time>
      </trkpt>
      <trkpt lat="37.8414910007" lon="-3.0018279143">
        <ele>1409.43</ele>
        <time>2017-10-08T08:33:34Z</time>
      </trkpt>
      <trkpt lat="37.8414453194" lon="-3.0018397328">
        <ele>1409.91</ele>
        <time>2017-10-08T08:33:46Z</time>
      </trkpt>
      <trkpt lat="37.8413549624" lon="-3.0018123239">
        <ele>1410.87</ele>
        <time>2017-10-08T08:33:54Z</time>
      </trkpt>
      <trkpt lat="37.8412879072" lon="-3.0018000025">
        <ele>1411.35</ele>
        <time>2017-10-08T08:34:01Z</time>
      </trkpt>
      <trkpt lat="37.8412423935" lon="-3.0017819814">
        <ele>1412.79</ele>
        <time>2017-10-08T08:34:10Z</time>
      </trkpt>
      <trkpt lat="37.8411239572" lon="-3.0017601047">
        <ele>1414.24</ele>
        <time>2017-10-08T08:34:23Z</time>
      </trkpt>
      <trkpt lat="37.8410453349" lon="-3.0017449334">
        <ele>1416.16</ele>
        <time>2017-10-08T08:34:35Z</time>
      </trkpt>
      <trkpt lat="37.8409802914" lon="-3.0017050356">
        <ele>1417.12</ele>
        <time>2017-10-08T08:34:45Z</time>
      </trkpt>
      <trkpt lat="37.8409652039" lon="-3.0016999226">
        <ele>1417.60</ele>
        <time>2017-10-08T08:34:47Z</time>
      </trkpt>
      <trkpt lat="37.8408618551" lon="-3.0016721785">
        <ele>1419.52</ele>
        <time>2017-10-08T08:34:58Z</time>
      </trkpt>
      <trkpt lat="37.8407608531" lon="-3.0016166065">
        <ele>1421.45</ele>
        <time>2017-10-08T08:35:11Z</time>
      </trkpt>
      <trkpt lat="37.8406765312" lon="-3.0015861802">
        <ele>1423.37</ele>
        <time>2017-10-08T08:35:23Z</time>
      </trkpt>
      <trkpt lat="37.8405975737" lon="-3.0015543289">
        <ele>1424.33</ele>
        <time>2017-10-08T08:35:35Z</time>
      </trkpt>
      <trkpt lat="37.8405756131" lon="-3.0015061330">
        <ele>1424.81</ele>
        <time>2017-10-08T08:35:47Z</time>
      </trkpt>
      <trkpt lat="37.8405412473" lon="-3.0014589429">
        <ele>1424.81</ele>
        <time>2017-10-08T08:36:02Z</time>
      </trkpt>
      <trkpt lat="37.8405297641" lon="-3.0014043767">
        <ele>1425.29</ele>
        <time>2017-10-08T08:36:15Z</time>
      </trkpt>
      <trkpt lat="37.8405036964" lon="-3.0014095735">
        <ele>1425.29</ele>
        <time>2017-10-08T08:36:28Z</time>
      </trkpt>
      <trkpt lat="37.8404964879" lon="-3.0014154408">
        <ele>1425.77</ele>
        <time>2017-10-08T08:36:45Z</time>
      </trkpt>
      <trkpt lat="37.8404933866" lon="-3.0014159437">
        <ele>1425.29</ele>
        <time>2017-10-08T08:36:56Z</time>
      </trkpt>
      <trkpt lat="37.8404907044" lon="-3.0014258344">
        <ele>1425.29</ele>
        <time>2017-10-08T08:37:18Z</time>
      </trkpt>
      <trkpt lat="37.8404691629" lon="-3.0014079809">
        <ele>1425.77</ele>
        <time>2017-10-08T08:37:24Z</time>
      </trkpt>
      <trkpt lat="37.8404579312" lon="-3.0013938993">
        <ele>1425.77</ele>
        <time>2017-10-08T08:37:25Z</time>
      </trkpt>
      <trkpt lat="37.8404482082" lon="-3.0013758782">
        <ele>1425.77</ele>
        <time>2017-10-08T08:37:26Z</time>
      </trkpt>
      <trkpt lat="37.8404395748" lon="-3.0013571866">
        <ele>1425.77</ele>
        <time>2017-10-08T08:37:27Z</time>
      </trkpt>
      <trkpt lat="37.8404287621" lon="-3.0013406742">
        <ele>1425.77</ele>
        <time>2017-10-08T08:37:28Z</time>
      </trkpt>
      <trkpt lat="37.8404149320" lon="-3.0013254192">
        <ele>1426.25</ele>
        <time>2017-10-08T08:37:29Z</time>
      </trkpt>
      <trkpt lat="37.8402299434" lon="-3.0011225771">
        <ele>1427.70</ele>
        <time>2017-10-08T08:37:42Z</time>
      </trkpt>
      <trkpt lat="37.8400628921" lon="-3.0009426177">
        <ele>1428.66</ele>
        <time>2017-10-08T08:37:55Z</time>
      </trkpt>
      <trkpt lat="37.8400104214" lon="-3.0008900631">
        <ele>1429.14</ele>
        <time>2017-10-08T08:37:59Z</time>
      </trkpt>
      <trkpt lat="37.8399985190" lon="-3.0008751433">
        <ele>1429.14</ele>
        <time>2017-10-08T08:38:00Z</time>
      </trkpt>
      <trkpt lat="37.8399867844" lon="-3.0008620676">
        <ele>1429.14</ele>
        <time>2017-10-08T08:38:01Z</time>
      </trkpt>
      <trkpt lat="37.8399764746" lon="-3.0008473992">
        <ele>1429.14</ele>
        <time>2017-10-08T08:38:02Z</time>
      </trkpt>
      <trkpt lat="37.8399650753" lon="-3.0008343235">
        <ele>1429.62</ele>
        <time>2017-10-08T08:38:03Z</time>
      </trkpt>
      <trkpt lat="37.8399535920" lon="-3.0008212477">
        <ele>1429.62</ele>
        <time>2017-10-08T08:38:04Z</time>
      </trkpt>
      <trkpt lat="37.8397986107" lon="-3.0005980376">
        <ele>1431.06</ele>
        <time>2017-10-08T08:38:18Z</time>
      </trkpt>
      <trkpt lat="37.8396682721" lon="-3.0004707165">
        <ele>1432.02</ele>
        <time>2017-10-08T08:38:29Z</time>
      </trkpt>
      <trkpt lat="37.8395299707" lon="-3.0003630091">
        <ele>1432.98</ele>
        <time>2017-10-08T08:38:40Z</time>
      </trkpt>
      <trkpt lat="37.8393831197" lon="-3.0002150685">
        <ele>1434.42</ele>
        <time>2017-10-08T08:38:51Z</time>
      </trkpt>
      <trkpt lat="37.8392370231" lon="-3.0000601709">
        <ele>1435.39</ele>
        <time>2017-10-08T08:39:02Z</time>
      </trkpt>
      <trkpt lat="37.8391692974" lon="-3.0000036769">
        <ele>1435.87</ele>
        <time>2017-10-08T08:39:07Z</time>
      </trkpt>
      <trkpt lat="37.8391548805" lon="-2.9999947082">
        <ele>1436.35</ele>
        <time>2017-10-08T08:39:08Z</time>
      </trkpt>
      <trkpt lat="37.8390002344" lon="-2.9999051895">
        <ele>1437.31</ele>
        <time>2017-10-08T08:39:19Z</time>
      </trkpt>
      <trkpt lat="37.8388877492" lon="-2.9998629447">
        <ele>1438.27</ele>
        <time>2017-10-08T08:39:27Z</time>
      </trkpt>
      <trkpt lat="37.8387365397" lon="-2.9998038523">
        <ele>1439.71</ele>
        <time>2017-10-08T08:39:37Z</time>
      </trkpt>
      <trkpt lat="37.8385647945" lon="-2.9997759406">
        <ele>1440.67</ele>
        <time>2017-10-08T08:39:48Z</time>
      </trkpt>
      <trkpt lat="37.8384259064" lon="-2.9996528942">
        <ele>1441.63</ele>
        <time>2017-10-08T08:40:00Z</time>
      </trkpt>
      <trkpt lat="37.8383269161" lon="-2.9995081387">
        <ele>1443.08</ele>
        <time>2017-10-08T08:40:11Z</time>
      </trkpt>
      <trkpt lat="37.8382398281" lon="-2.9993538279">
        <ele>1444.52</ele>
        <time>2017-10-08T08:40:21Z</time>
      </trkpt>
      <trkpt lat="37.8381988406" lon="-2.9992668238">
        <ele>1445.48</ele>
        <time>2017-10-08T08:40:27Z</time>
      </trkpt>
      <trkpt lat="37.8381885309" lon="-2.9992547538">
        <ele>1445.48</ele>
        <time>2017-10-08T08:40:28Z</time>
      </trkpt>
      <trkpt lat="37.8381772153" lon="-2.9992408399">
        <ele>1445.48</ele>
        <time>2017-10-08T08:40:29Z</time>
      </trkpt>
      <trkpt lat="37.8381636366" lon="-2.9992246628">
        <ele>1445.48</ele>
        <time>2017-10-08T08:40:30Z</time>
      </trkpt>
      <trkpt lat="37.8381488845" lon="-2.9992110841">
        <ele>1445.96</ele>
        <time>2017-10-08T08:40:31Z</time>
      </trkpt>
      <trkpt lat="37.8381337970" lon="-2.9991972540">
        <ele>1445.96</ele>
        <time>2017-10-08T08:40:32Z</time>
      </trkpt>
      <trkpt lat="37.8381192964" lon="-2.9991809931">
        <ele>1445.96</ele>
        <time>2017-10-08T08:40:33Z</time>
      </trkpt>
      <trkpt lat="37.8381055500" lon="-2.9991682526">
        <ele>1446.44</ele>
        <time>2017-10-08T08:40:34Z</time>
      </trkpt>
      <trkpt lat="37.8380915523" lon="-2.9991613794">
        <ele>1446.44</ele>
        <time>2017-10-08T08:40:35Z</time>
      </trkpt>
      <trkpt lat="37.8380654007" lon="-2.9991286062">
        <ele>1446.44</ele>
        <time>2017-10-08T08:40:44Z</time>
      </trkpt>
      <trkpt lat="37.8380755428" lon="-2.9991067294">
        <ele>1446.44</ele>
        <time>2017-10-08T08:40:56Z</time>
      </trkpt>
      <trkpt lat="37.8380820807" lon="-2.9991026223">
        <ele>1446.92</ele>
        <time>2017-10-08T08:41:19Z</time>
      </trkpt>
      <trkpt lat="37.8380888700" lon="-2.9990991857">
        <ele>1446.92</ele>
        <time>2017-10-08T08:41:36Z</time>
      </trkpt>
      <trkpt lat="37.8380872775" lon="-2.9991011135">
        <ele>1446.92</ele>
        <time>2017-10-08T08:41:53Z</time>
      </trkpt>
      <trkpt lat="37.8380893730" lon="-2.9991056398">
        <ele>1446.92</ele>
        <time>2017-10-08T08:42:12Z</time>
      </trkpt>
      <trkpt lat="37.8380894568" lon="-2.9991192184">
        <ele>1446.92</ele>
        <time>2017-10-08T08:42:30Z</time>
      </trkpt>
      <trkpt lat="37.8380897082" lon="-2.9991055559">
        <ele>1446.92</ele>
        <time>2017-10-08T08:42:47Z</time>
      </trkpt>
      <trkpt lat="37.8380927257" lon="-2.9991022032">
        <ele>1447.40</ele>
        <time>2017-10-08T08:43:10Z</time>
      </trkpt>
      <trkpt lat="37.8380975872" lon="-2.9990964197">
        <ele>1447.40</ele>
        <time>2017-10-08T08:43:28Z</time>
      </trkpt>
      <trkpt lat="37.8381083161" lon="-2.9990604613">
        <ele>1447.40</ele>
        <time>2017-10-08T08:43:39Z</time>
      </trkpt>
      <trkpt lat="37.8381104954" lon="-2.9990514927">
        <ele>1447.88</ele>
        <time>2017-10-08T08:44:00Z</time>
      </trkpt>
      <trkpt lat="37.8381029516" lon="-2.9990339745">
        <ele>1447.88</ele>
        <time>2017-10-08T08:44:15Z</time>
      </trkpt>
      <trkpt lat="37.8380852658" lon="-2.9990049731">
        <ele>1448.36</ele>
        <time>2017-10-08T08:44:24Z</time>
      </trkpt>
      <trkpt lat="37.8380027041" lon="-2.9988682643">
        <ele>1449.32</ele>
        <time>2017-10-08T08:44:33Z</time>
      </trkpt>
      <trkpt lat="37.8378897160" lon="-2.9987314716">
        <ele>1450.29</ele>
        <time>2017-10-08T08:44:43Z</time>
      </trkpt>
      <trkpt lat="37.8377695195" lon="-2.9986297991">
        <ele>1451.73</ele>
        <time>2017-10-08T08:44:52Z</time>
      </trkpt>
      <trkpt lat="37.8376850300" lon="-2.9985869676">
        <ele>1452.21</ele>
        <time>2017-10-08T08:44:58Z</time>
      </trkpt>
      <trkpt lat="37.8376715351" lon="-2.9985790048">
        <ele>1452.21</ele>
        <time>2017-10-08T08:44:59Z</time>
      </trkpt>
      <trkpt lat="37.8376589622" lon="-2.9985688627">
        <ele>1452.69</ele>
        <time>2017-10-08T08:45:00Z</time>
      </trkpt>
      <trkpt lat="37.8376456350" lon="-2.9985581338">
        <ele>1452.69</ele>
        <time>2017-10-08T08:45:01Z</time>
      </trkpt>
      <trkpt lat="37.8376349062" lon="-2.9985467345">
        <ele>1452.69</ele>
        <time>2017-10-08T08:45:02Z</time>
      </trkpt>
      <trkpt lat="37.8376273625" lon="-2.9985320661">
        <ele>1452.69</ele>
        <time>2017-10-08T08:45:03Z</time>
      </trkpt>
      <trkpt lat="37.8376043122" lon="-2.9985075910">
        <ele>1452.69</ele>
        <time>2017-10-08T08:45:05Z</time>
      </trkpt>
      <trkpt lat="37.8375916556" lon="-2.9985009693">
        <ele>1453.17</ele>
        <time>2017-10-08T08:45:06Z</time>
      </trkpt>
      <trkpt lat="37.8375779092" lon="-2.9984933417">
        <ele>1453.17</ele>
        <time>2017-10-08T08:45:07Z</time>
      </trkpt>
      <trkpt lat="37.8375661746" lon="-2.9984857980">
        <ele>1453.17</ele>
        <time>2017-10-08T08:45:08Z</time>
      </trkpt>
      <trkpt lat="37.8375537694" lon="-2.9984735604">
        <ele>1453.65</ele>
        <time>2017-10-08T08:45:09Z</time>
      </trkpt>
      <trkpt lat="37.8375422861" lon="-2.9984605685">
        <ele>1453.65</ele>
        <time>2017-10-08T08:45:10Z</time>
      </trkpt>
      <trkpt lat="37.8375303000" lon="-2.9984493367">
        <ele>1454.13</ele>
        <time>2017-10-08T08:45:11Z</time>
      </trkpt>
      <trkpt lat="37.8374982812" lon="-2.9984102771">
        <ele>1454.13</ele>
        <time>2017-10-08T08:45:14Z</time>
      </trkpt>
      <trkpt lat="37.8374190722" lon="-2.9983174056">
        <ele>1455.09</ele>
        <time>2017-10-08T08:45:21Z</time>
      </trkpt>
      <trkpt lat="37.8374090977" lon="-2.9983046651">
        <ele>1455.09</ele>
        <time>2017-10-08T08:45:22Z</time>
      </trkpt>
      <trkpt lat="37.8372573853" lon="-2.9982276354">
        <ele>1456.53</ele>
        <time>2017-10-08T08:45:32Z</time>
      </trkpt>
      <trkpt lat="37.8371522762" lon="-2.9981900007">
        <ele>1457.50</ele>
        <time>2017-10-08T08:45:40Z</time>
      </trkpt>
      <trkpt lat="37.8371379431" lon="-2.9981822893">
        <ele>1457.50</ele>
        <time>2017-10-08T08:45:41Z</time>
      </trkpt>
      <trkpt lat="37.8370390367" lon="-2.9981593229">
        <ele>1457.98</ele>
        <time>2017-10-08T08:45:48Z</time>
      </trkpt>
      <trkpt lat="37.8370210994" lon="-2.9981559701">
        <ele>1458.46</ele>
        <time>2017-10-08T08:45:49Z</time>
      </trkpt>
      <trkpt lat="37.8370053414" lon="-2.9981525335">
        <ele>1458.46</ele>
        <time>2017-10-08T08:45:50Z</time>
      </trkpt>
      <trkpt lat="37.8369906731" lon="-2.9981485102">
        <ele>1458.46</ele>
        <time>2017-10-08T08:45:51Z</time>
      </trkpt>
      <trkpt lat="37.8369762562" lon="-2.9981459957">
        <ele>1458.46</ele>
        <time>2017-10-08T08:45:52Z</time>
      </trkpt>
      <trkpt lat="37.8369642701" lon="-2.9981420562">
        <ele>1458.94</ele>
        <time>2017-10-08T08:45:53Z</time>
      </trkpt>
      <trkpt lat="37.8369508591" lon="-2.9981394578">
        <ele>1458.94</ele>
        <time>2017-10-08T08:45:54Z</time>
      </trkpt>
      <trkpt lat="37.8369372804" lon="-2.9981382843">
        <ele>1458.94</ele>
        <time>2017-10-08T08:45:55Z</time>
      </trkpt>
      <trkpt lat="37.8369250428" lon="-2.9981350992">
        <ele>1458.94</ele>
        <time>2017-10-08T08:45:56Z</time>
      </trkpt>
      <trkpt lat="37.8369107936" lon="-2.9981293995">
        <ele>1458.94</ele>
        <time>2017-10-08T08:45:57Z</time>
      </trkpt>
      <trkpt lat="37.8368583228" lon="-2.9981266335">
        <ele>1459.42</ele>
        <time>2017-10-08T08:46:01Z</time>
      </trkpt>
      <trkpt lat="37.8368461691" lon="-2.9981198441">
        <ele>1459.90</ele>
        <time>2017-10-08T08:46:02Z</time>
      </trkpt>
      <trkpt lat="37.8368332610" lon="-2.9981134739">
        <ele>1459.90</ele>
        <time>2017-10-08T08:46:03Z</time>
      </trkpt>
      <trkpt lat="37.8368195985" lon="-2.9981100373">
        <ele>1460.38</ele>
        <time>2017-10-08T08:46:04Z</time>
      </trkpt>
      <trkpt lat="37.8368050978" lon="-2.9981076904">
        <ele>1460.38</ele>
        <time>2017-10-08T08:46:05Z</time>
      </trkpt>
      <trkpt lat="37.8367921896" lon="-2.9981039185">
        <ele>1460.38</ele>
        <time>2017-10-08T08:46:06Z</time>
      </trkpt>
      <trkpt lat="37.8366716579" lon="-2.9980496038">
        <ele>1461.34</ele>
        <time>2017-10-08T08:46:15Z</time>
      </trkpt>
      <trkpt lat="37.8366598394" lon="-2.9980414733">
        <ele>1461.34</ele>
        <time>2017-10-08T08:46:16Z</time>
      </trkpt>
      <trkpt lat="37.8366462607" lon="-2.9980363604">
        <ele>1461.34</ele>
        <time>2017-10-08T08:46:17Z</time>
      </trkpt>
      <trkpt lat="37.8366326820" lon="-2.9980302416">
        <ele>1461.34</ele>
        <time>2017-10-08T08:46:18Z</time>
      </trkpt>
      <trkpt lat="37.8366196901" lon="-2.9980214406">
        <ele>1461.82</ele>
        <time>2017-10-08T08:46:19Z</time>
      </trkpt>
      <trkpt lat="37.8364612721" lon="-2.9979196843">
        <ele>1462.78</ele>
        <time>2017-10-08T08:46:31Z</time>
      </trkpt>
      <trkpt lat="37.8364470229" lon="-2.9979120567">
        <ele>1463.26</ele>
        <time>2017-10-08T08:46:32Z</time>
      </trkpt>
      <trkpt lat="37.8364337794" lon="-2.9979031719">
        <ele>1463.26</ele>
        <time>2017-10-08T08:46:33Z</time>
      </trkpt>
      <trkpt lat="37.8363541514" lon="-2.9978299979">
        <ele>1463.74</ele>
        <time>2017-10-08T08:46:40Z</time>
      </trkpt>
      <trkpt lat="37.8363453504" lon="-2.9978178442">
        <ele>1464.23</ele>
        <time>2017-10-08T08:46:41Z</time>
      </trkpt>
      <trkpt lat="37.8362285066" lon="-2.9976451769">
        <ele>1465.19</ele>
        <time>2017-10-08T08:46:53Z</time>
      </trkpt>
      <trkpt lat="37.8361340426" lon="-2.9974610265">
        <ele>1466.63</ele>
        <time>2017-10-08T08:47:04Z</time>
      </trkpt>
      <trkpt lat="37.8360327892" lon="-2.9972498026">
        <ele>1468.07</ele>
        <time>2017-10-08T08:47:16Z</time>
      </trkpt>
      <trkpt lat="37.8359774686" lon="-2.9970762972">
        <ele>1469.51</ele>
        <time>2017-10-08T08:47:25Z</time>
      </trkpt>
      <trkpt lat="37.8359716013" lon="-2.9970584437">
        <ele>1469.51</ele>
        <time>2017-10-08T08:47:26Z</time>
      </trkpt>
      <trkpt lat="37.8359682485" lon="-2.9970405903">
        <ele>1469.51</ele>
        <time>2017-10-08T08:47:27Z</time>
      </trkpt>
      <trkpt lat="37.8359498084" lon="-2.9968084954">
        <ele>1471.44</ele>
        <time>2017-10-08T08:47:39Z</time>
      </trkpt>
      <trkpt lat="37.8359356429" lon="-2.9965854529">
        <ele>1472.40</ele>
        <time>2017-10-08T08:47:51Z</time>
      </trkpt>
      <trkpt lat="37.8359377384" lon="-2.9965472315">
        <ele>1472.88</ele>
        <time>2017-10-08T08:47:53Z</time>
      </trkpt>
      <trkpt lat="37.8359350562" lon="-2.9965308867">
        <ele>1472.88</ele>
        <time>2017-10-08T08:47:54Z</time>
      </trkpt>
      <trkpt lat="37.8359326255" lon="-2.9965128656">
        <ele>1472.88</ele>
        <time>2017-10-08T08:47:55Z</time>
      </trkpt>
      <trkpt lat="37.8359326255" lon="-2.9964918271">
        <ele>1473.36</ele>
        <time>2017-10-08T08:47:56Z</time>
      </trkpt>
      <trkpt lat="37.8359327931" lon="-2.9964713752">
        <ele>1473.36</ele>
        <time>2017-10-08T08:47:57Z</time>
      </trkpt>
      <trkpt lat="37.8359347209" lon="-2.9964510910">
        <ele>1473.36</ele>
        <time>2017-10-08T08:47:58Z</time>
      </trkpt>
      <trkpt lat="37.8359389957" lon="-2.9962824471">
        <ele>1474.32</ele>
        <time>2017-10-08T08:48:07Z</time>
      </trkpt>
      <trkpt lat="37.8359446116" lon="-2.9962599836">
        <ele>1474.32</ele>
        <time>2017-10-08T08:48:08Z</time>
      </trkpt>
      <trkpt lat="37.8359725233" lon="-2.9960428085">
        <ele>1475.76</ele>
        <time>2017-10-08T08:48:19Z</time>
      </trkpt>
      <trkpt lat="37.8360289335" lon="-2.9958071932">
        <ele>1477.20</ele>
        <time>2017-10-08T08:48:31Z</time>
      </trkpt>
      <trkpt lat="37.8360941447" lon="-2.9955697339">
        <ele>1480.09</ele>
        <time>2017-10-08T08:48:43Z</time>
      </trkpt>
      <trkpt lat="37.8361026943" lon="-2.9955471028">
        <ele>1475.76</ele>
        <time>2017-10-08T08:48:44Z</time>
      </trkpt>
      <trkpt lat="37.8361116629" lon="-2.9955280758">
        <ele>1481.05</ele>
        <time>2017-10-08T08:48:45Z</time>
      </trkpt>
      <trkpt lat="37.8361459449" lon="-2.9954624455">
        <ele>1479.13</ele>
        <time>2017-10-08T08:48:49Z</time>
      </trkpt>
      <trkpt lat="37.8361563385" lon="-2.9954463523">
        <ele>1479.61</ele>
        <time>2017-10-08T08:48:50Z</time>
      </trkpt>
      <trkpt lat="37.8361687437" lon="-2.9954284988">
        <ele>1479.61</ele>
        <time>2017-10-08T08:48:51Z</time>
      </trkpt>
      <trkpt lat="37.8361798916" lon="-2.9954110645">
        <ele>1479.61</ele>
        <time>2017-10-08T08:48:52Z</time>
      </trkpt>
      <trkpt lat="37.8361924645" lon="-2.9953956418">
        <ele>1480.09</ele>
        <time>2017-10-08T08:48:53Z</time>
      </trkpt>
      <trkpt lat="37.8362027742" lon="-2.9953839071">
        <ele>1479.61</ele>
        <time>2017-10-08T08:48:54Z</time>
      </trkpt>
      <trkpt lat="37.8362117428" lon="-2.9953704122">
        <ele>1480.09</ele>
        <time>2017-10-08T08:48:55Z</time>
      </trkpt>
      <trkpt lat="37.8362226393" lon="-2.9953561630">
        <ele>1480.09</ele>
        <time>2017-10-08T08:48:56Z</time>
      </trkpt>
      <trkpt lat="37.8362363856" lon="-2.9953445122">
        <ele>1480.09</ele>
        <time>2017-10-08T08:48:57Z</time>
      </trkpt>
      <trkpt lat="37.8363926243" lon="-2.9952600226">
        <ele>1481.53</ele>
        <time>2017-10-08T08:49:07Z</time>
      </trkpt>
      <trkpt lat="37.8365612682" lon="-2.9951752815">
        <ele>1482.97</ele>
        <time>2017-10-08T08:49:19Z</time>
      </trkpt>
      <trkpt lat="37.8367135674" lon="-2.9950566776">
        <ele>1484.41</ele>
        <time>2017-10-08T08:49:30Z</time>
      </trkpt>
      <trkpt lat="37.8367966320" lon="-2.9949177895">
        <ele>1485.37</ele>
        <time>2017-10-08T08:49:39Z</time>
      </trkpt>
      <trkpt lat="37.8368050978" lon="-2.9949032888">
        <ele>1485.85</ele>
        <time>2017-10-08T08:49:40Z</time>
      </trkpt>
      <trkpt lat="37.8369093686" lon="-2.9947483912">
        <ele>1487.30</ele>
        <time>2017-10-08T08:49:51Z</time>
      </trkpt>
      <trkpt lat="37.8369750828" lon="-2.9946986027">
        <ele>1487.78</ele>
        <time>2017-10-08T08:49:56Z</time>
      </trkpt>
      <trkpt lat="37.8369905893" lon="-2.9946944956">
        <ele>1487.78</ele>
        <time>2017-10-08T08:49:57Z</time>
      </trkpt>
      <trkpt lat="37.8370056767" lon="-2.9946872033">
        <ele>1487.78</ele>
        <time>2017-10-08T08:49:58Z</time>
      </trkpt>
      <trkpt lat="37.8370189201" lon="-2.9946788214">
        <ele>1488.26</ele>
        <time>2017-10-08T08:49:59Z</time>
      </trkpt>
      <trkpt lat="37.8370325826" lon="-2.9946685955">
        <ele>1488.26</ele>
        <time>2017-10-08T08:50:00Z</time>
      </trkpt>
      <trkpt lat="37.8370479215" lon="-2.9946600460">
        <ele>1488.26</ele>
        <time>2017-10-08T08:50:01Z</time>
      </trkpt>
      <trkpt lat="37.8370647691" lon="-2.9946543463">
        <ele>1488.74</ele>
        <time>2017-10-08T08:50:02Z</time>
      </trkpt>
      <trkpt lat="37.8372265399" lon="-2.9945796635">
        <ele>1490.18</ele>
        <time>2017-10-08T08:50:14Z</time>
      </trkpt>
      <trkpt lat="37.8372651804" lon="-2.9945579544">
        <ele>1490.18</ele>
        <time>2017-10-08T08:50:17Z</time>
      </trkpt>
      <trkpt lat="37.8372953553" lon="-2.9945227504">
        <ele>1490.66</ele>
        <time>2017-10-08T08:50:21Z</time>
      </trkpt>
      <trkpt lat="37.8373070061" lon="-2.9945152067">
        <ele>1490.66</ele>
        <time>2017-10-08T08:50:22Z</time>
      </trkpt>
      <trkpt lat="37.8373186570" lon="-2.9945087526">
        <ele>1490.66</ele>
        <time>2017-10-08T08:50:23Z</time>
      </trkpt>
      <trkpt lat="37.8373561241" lon="-2.9944831040">
        <ele>1491.14</ele>
        <time>2017-10-08T08:50:27Z</time>
      </trkpt>
      <trkpt lat="37.8373714630" lon="-2.9944851156">
        <ele>1491.14</ele>
        <time>2017-10-08T08:50:28Z</time>
      </trkpt>
      <trkpt lat="37.8373856284" lon="-2.9944883846">
        <ele>1491.14</ele>
        <time>2017-10-08T08:50:29Z</time>
      </trkpt>
      <trkpt lat="37.8373972792" lon="-2.9944894742">
        <ele>1491.14</ele>
        <time>2017-10-08T08:50:30Z</time>
      </trkpt>
      <trkpt lat="37.8374085110" lon="-2.9944871273">
        <ele>1491.62</ele>
        <time>2017-10-08T08:50:31Z</time>
      </trkpt>
      <trkpt lat="37.8374178149" lon="-2.9944806732">
        <ele>1491.62</ele>
        <time>2017-10-08T08:50:32Z</time>
      </trkpt>
      <trkpt lat="37.8374277893" lon="-2.9944712017">
        <ele>1491.62</ele>
        <time>2017-10-08T08:50:33Z</time>
      </trkpt>
      <trkpt lat="37.8374355007" lon="-2.9944588803">
        <ele>1491.62</ele>
        <time>2017-10-08T08:50:34Z</time>
      </trkpt>
      <trkpt lat="37.8374437988" lon="-2.9944472294">
        <ele>1491.62</ele>
        <time>2017-10-08T08:50:35Z</time>
      </trkpt>
      <trkpt lat="37.8374543600" lon="-2.9944445472">
        <ele>1492.10</ele>
        <time>2017-10-08T08:50:36Z</time>
      </trkpt>
      <trkpt lat="37.8374723811" lon="-2.9944453854">
        <ele>1492.10</ele>
        <time>2017-10-08T08:50:37Z</time>
      </trkpt>
      <trkpt lat="37.8374898154" lon="-2.9944465589">
        <ele>1492.10</ele>
        <time>2017-10-08T08:50:38Z</time>
      </trkpt>
      <trkpt lat="37.8375385981" lon="-2.9944536835">
        <ele>1492.58</ele>
        <time>2017-10-08T08:50:42Z</time>
      </trkpt>
      <trkpt lat="37.8375506680" lon="-2.9944495764">
        <ele>1492.58</ele>
        <time>2017-10-08T08:50:43Z</time>
      </trkpt>
      <trkpt lat="37.8375582956" lon="-2.9944406077">
        <ele>1492.58</ele>
        <time>2017-10-08T08:50:44Z</time>
      </trkpt>
      <trkpt lat="37.8375872131" lon="-2.9943896458">
        <ele>1493.06</ele>
        <time>2017-10-08T08:50:48Z</time>
      </trkpt>
      <trkpt lat="37.8375976067" lon="-2.9943865445">
        <ele>1493.06</ele>
        <time>2017-10-08T08:50:49Z</time>
      </trkpt>
      <trkpt lat="37.8376084194" lon="-2.9943904839">
        <ele>1493.06</ele>
        <time>2017-10-08T08:50:50Z</time>
      </trkpt>
      <trkpt lat="37.8376266919" lon="-2.9944101814">
        <ele>1493.55</ele>
        <time>2017-10-08T08:50:52Z</time>
      </trkpt>
      <trkpt lat="37.8376853652" lon="-2.9943818506">
        <ele>1494.03</ele>
        <time>2017-10-08T08:50:57Z</time>
      </trkpt>
      <trkpt lat="37.8377672564" lon="-2.9943798389">
        <ele>1494.51</ele>
        <time>2017-10-08T08:51:07Z</time>
      </trkpt>
      <trkpt lat="37.8378607146" lon="-2.9943330679">
        <ele>1495.47</ele>
        <time>2017-10-08T08:51:15Z</time>
      </trkpt>
      <trkpt lat="37.8378775623" lon="-2.9943261947">
        <ele>1495.47</ele>
        <time>2017-10-08T08:51:17Z</time>
      </trkpt>
      <trkpt lat="37.8378908895" lon="-2.9943227582">
        <ele>1495.47</ele>
        <time>2017-10-08T08:51:18Z</time>
      </trkpt>
      <trkpt lat="37.8379057255" lon="-2.9943180643">
        <ele>1495.95</ele>
        <time>2017-10-08T08:51:19Z</time>
      </trkpt>
      <trkpt lat="37.8379178792" lon="-2.9943097662">
        <ele>1495.95</ele>
        <time>2017-10-08T08:51:20Z</time>
      </trkpt>
      <trkpt lat="37.8379297815" lon="-2.9942995403">
        <ele>1495.95</ele>
        <time>2017-10-08T08:51:21Z</time>
      </trkpt>
      <trkpt lat="37.8380507324" lon="-2.9942354187">
        <ele>1496.43</ele>
        <time>2017-10-08T08:51:31Z</time>
      </trkpt>
      <trkpt lat="37.8380854335" lon="-2.9942164756">
        <ele>1496.91</ele>
        <time>2017-10-08T08:51:34Z</time>
      </trkpt>
      <trkpt lat="37.8381864354" lon="-2.9941635858">
        <ele>1497.87</ele>
        <time>2017-10-08T08:51:43Z</time>
      </trkpt>
      <trkpt lat="37.8382137604" lon="-2.9941453971">
        <ele>1497.87</ele>
        <time>2017-10-08T08:51:45Z</time>
      </trkpt>
      <trkpt lat="37.8382257465" lon="-2.9941359255">
        <ele>1497.87</ele>
        <time>2017-10-08T08:51:46Z</time>
      </trkpt>
      <trkpt lat="37.8383646347" lon="-2.9940452334">
        <ele>1499.31</ele>
        <time>2017-10-08T08:51:58Z</time>
      </trkpt>
      <trkpt lat="37.8384983260" lon="-2.9939245339">
        <ele>1500.27</ele>
        <time>2017-10-08T08:52:09Z</time>
      </trkpt>
      <trkpt lat="37.8385955561" lon="-2.9937533755">
        <ele>1501.72</ele>
        <time>2017-10-08T08:52:20Z</time>
      </trkpt>
      <trkpt lat="37.8386124037" lon="-2.9936921876">
        <ele>1502.20</ele>
        <time>2017-10-08T08:52:24Z</time>
      </trkpt>
      <trkpt lat="37.8386163432" lon="-2.9936729930">
        <ele>1502.20</ele>
        <time>2017-10-08T08:52:25Z</time>
      </trkpt>
      <trkpt lat="37.8386274073" lon="-2.9934849031">
        <ele>1503.64</ele>
        <time>2017-10-08T08:52:36Z</time>
      </trkpt>
      <trkpt lat="37.8386528045" lon="-2.9933543969">
        <ele>1504.60</ele>
        <time>2017-10-08T08:52:44Z</time>
      </trkpt>
      <trkpt lat="37.8386564925" lon="-2.9933403153">
        <ele>1504.60</ele>
        <time>2017-10-08T08:52:45Z</time>
      </trkpt>
      <trkpt lat="37.8386629466" lon="-2.9933232162">
        <ele>1504.60</ele>
        <time>2017-10-08T08:52:46Z</time>
      </trkpt>
      <trkpt lat="37.8386789560" lon="-2.9931349587">
        <ele>1505.56</ele>
        <time>2017-10-08T08:52:57Z</time>
      </trkpt>
      <trkpt lat="37.8386490326" lon="-2.9929780494">
        <ele>1507.00</ele>
        <time>2017-10-08T08:53:07Z</time>
      </trkpt>
      <trkpt lat="37.8386020102" lon="-2.9928830825">
        <ele>1507.97</ele>
        <time>2017-10-08T08:53:14Z</time>
      </trkpt>
      <trkpt lat="37.8385978192" lon="-2.9928525724">
        <ele>1507.97</ele>
        <time>2017-10-08T08:53:16Z</time>
      </trkpt>
      <trkpt lat="37.8384947218" lon="-2.9927219823">
        <ele>1509.41</ele>
        <time>2017-10-08T08:53:27Z</time>
      </trkpt>
      <trkpt lat="37.8383880202" lon="-2.9926635604">
        <ele>1509.89</ele>
        <time>2017-10-08T08:53:36Z</time>
      </trkpt>
      <trkpt lat="37.8382562567" lon="-2.9925654083">
        <ele>1511.33</ele>
        <time>2017-10-08T08:53:48Z</time>
      </trkpt>
      <trkpt lat="37.8380959108" lon="-2.9924732912">
        <ele>1512.29</ele>
        <time>2017-10-08T08:54:01Z</time>
      </trkpt>
      <trkpt lat="37.8379773069" lon="-2.9923816770">
        <ele>1513.73</ele>
        <time>2017-10-08T08:54:11Z</time>
      </trkpt>
      <trkpt lat="37.8379409295" lon="-2.9923631530">
        <ele>1513.73</ele>
        <time>2017-10-08T08:54:14Z</time>
      </trkpt>
      <trkpt lat="37.8378430288" lon="-2.9922775738">
        <ele>1514.69</ele>
        <time>2017-10-08T08:54:23Z</time>
      </trkpt>
      <trkpt lat="37.8378201462" lon="-2.9922568705">
        <ele>1515.18</ele>
        <time>2017-10-08T08:54:25Z</time>
      </trkpt>
      <trkpt lat="37.8376786597" lon="-2.9920754023">
        <ele>1516.62</ele>
        <time>2017-10-08T08:54:38Z</time>
      </trkpt>
      <trkpt lat="37.8375807591" lon="-2.9919080995">
        <ele>1518.06</ele>
        <time>2017-10-08T08:54:49Z</time>
      </trkpt>
      <trkpt lat="37.8375688568" lon="-2.9918771703">
        <ele>1518.06</ele>
        <time>2017-10-08T08:54:51Z</time>
      </trkpt>
      <trkpt lat="37.8375292942" lon="-2.9917881545">
        <ele>1519.02</ele>
        <time>2017-10-08T08:54:57Z</time>
      </trkpt>
      <trkpt lat="37.8374935035" lon="-2.9915868212">
        <ele>1519.98</ele>
        <time>2017-10-08T08:55:09Z</time>
      </trkpt>
      <trkpt lat="37.8375007119" lon="-2.9914452508">
        <ele>1520.94</ele>
        <time>2017-10-08T08:55:17Z</time>
      </trkpt>
      <trkpt lat="37.8375315573" lon="-2.9912409000">
        <ele>1522.39</ele>
        <time>2017-10-08T08:55:28Z</time>
      </trkpt>
      <trkpt lat="37.8375475667" lon="-2.9911947995">
        <ele>1522.39</ele>
        <time>2017-10-08T08:55:31Z</time>
      </trkpt>
      <trkpt lat="37.8375625703" lon="-2.9911241401">
        <ele>1522.87</ele>
        <time>2017-10-08T08:55:35Z</time>
      </trkpt>
      <trkpt lat="37.8375966009" lon="-2.9910031892">
        <ele>1523.83</ele>
        <time>2017-10-08T08:55:42Z</time>
      </trkpt>
      <trkpt lat="37.8376817610" lon="-2.9908556677">
        <ele>1525.27</ele>
        <time>2017-10-08T08:55:53Z</time>
      </trkpt>
      <trkpt lat="37.8378297854" lon="-2.9907563422">
        <ele>1526.23</ele>
        <time>2017-10-08T08:56:05Z</time>
      </trkpt>
      <trkpt lat="37.8378941584" lon="-2.9906950705">
        <ele>1527.19</ele>
        <time>2017-10-08T08:56:13Z</time>
      </trkpt>
      <trkpt lat="37.8379905503" lon="-2.9906130955">
        <ele>1528.15</ele>
        <time>2017-10-08T08:56:22Z</time>
      </trkpt>
      <trkpt lat="37.8380815778" lon="-2.9905424360">
        <ele>1529.11</ele>
        <time>2017-10-08T08:56:31Z</time>
      </trkpt>
      <trkpt lat="37.8381742816" lon="-2.9903929029">
        <ele>1530.08</ele>
        <time>2017-10-08T08:56:41Z</time>
      </trkpt>
      <trkpt lat="37.8382161912" lon="-2.9903425276">
        <ele>1530.56</ele>
        <time>2017-10-08T08:56:45Z</time>
      </trkpt>
      <trkpt lat="37.8382572625" lon="-2.9901627358">
        <ele>1531.52</ele>
        <time>2017-10-08T08:56:55Z</time>
      </trkpt>
      <trkpt lat="37.8382327873" lon="-2.9899634980">
        <ele>1532.96</ele>
        <time>2017-10-08T08:57:05Z</time>
      </trkpt>
      <trkpt lat="37.8381834179" lon="-2.9897392821">
        <ele>1533.92</ele>
        <time>2017-10-08T08:57:17Z</time>
      </trkpt>
      <trkpt lat="37.8381814063" lon="-2.9897184949">
        <ele>1533.92</ele>
        <time>2017-10-08T08:57:18Z</time>
      </trkpt>
      <trkpt lat="37.8381593619" lon="-2.9896424711">
        <ele>1534.40</ele>
        <time>2017-10-08T08:57:22Z</time>
      </trkpt>
      <trkpt lat="37.8380683344" lon="-2.9893734958">
        <ele>1535.84</ele>
        <time>2017-10-08T08:57:34Z</time>
      </trkpt>
      <trkpt lat="37.8379785642" lon="-2.9891033471">
        <ele>1536.32</ele>
        <time>2017-10-08T08:57:46Z</time>
      </trkpt>
      <trkpt lat="37.8378996067" lon="-2.9888240620">
        <ele>1537.77</ele>
        <time>2017-10-08T08:57:58Z</time>
      </trkpt>
      <trkpt lat="37.8379194718" lon="-2.9886572622">
        <ele>1539.21</ele>
        <time>2017-10-08T08:58:06Z</time>
      </trkpt>
      <trkpt lat="37.8379345592" lon="-2.9886249918">
        <ele>1539.21</ele>
        <time>2017-10-08T08:58:08Z</time>
      </trkpt>
      <trkpt lat="37.8379806597" lon="-2.9885612894">
        <ele>1540.17</ele>
        <time>2017-10-08T08:58:13Z</time>
      </trkpt>
      <trkpt lat="37.8380270954" lon="-2.9885548353">
        <ele>1540.17</ele>
        <time>2017-10-08T08:58:16Z</time>
      </trkpt>
      <trkpt lat="37.8380890377" lon="-2.9885400832">
        <ele>1540.65</ele>
        <time>2017-10-08T08:58:21Z</time>
      </trkpt>
      <trkpt lat="37.8381666541" lon="-2.9885548353">
        <ele>1541.13</ele>
        <time>2017-10-08T08:58:26Z</time>
      </trkpt>
      <trkpt lat="37.8382300213" lon="-2.9886473715">
        <ele>1541.61</ele>
        <time>2017-10-08T08:58:32Z</time>
      </trkpt>
      <trkpt lat="37.8382673208" lon="-2.9887552466">
        <ele>1542.09</ele>
        <time>2017-10-08T08:58:39Z</time>
      </trkpt>
      <trkpt lat="37.8382424265" lon="-2.9889933765">
        <ele>1542.57</ele>
        <time>2017-10-08T08:58:52Z</time>
      </trkpt>
      <trkpt lat="37.8382588550" lon="-2.9892782774">
        <ele>1543.05</ele>
        <time>2017-10-08T08:59:02Z</time>
      </trkpt>
      <trkpt lat="37.8383263294" lon="-2.9894518666">
        <ele>1543.05</ele>
        <time>2017-10-08T08:59:12Z</time>
      </trkpt>
      <trkpt lat="37.8383384831" lon="-2.9894750845">
        <ele>1543.05</ele>
        <time>2017-10-08T08:59:14Z</time>
      </trkpt>
      <trkpt lat="37.8383701667" lon="-2.9895436484">
        <ele>1543.53</ele>
        <time>2017-10-08T08:59:19Z</time>
      </trkpt>
      <trkpt lat="37.8384281695" lon="-2.9896552116">
        <ele>1543.53</ele>
        <time>2017-10-08T08:59:26Z</time>
      </trkpt>
      <trkpt lat="37.8384753596" lon="-2.9897104483">
        <ele>1544.01</ele>
        <time>2017-10-08T08:59:30Z</time>
      </trkpt>
      <trkpt lat="37.8385122400" lon="-2.9897718877">
        <ele>1544.50</ele>
        <time>2017-10-08T08:59:34Z</time>
      </trkpt>
      <trkpt lat="37.8385409061" lon="-2.9898361769">
        <ele>1544.50</ele>
        <time>2017-10-08T08:59:38Z</time>
      </trkpt>
      <trkpt lat="37.8386306763" lon="-2.9900291283">
        <ele>1545.46</ele>
        <time>2017-10-08T08:59:49Z</time>
      </trkpt>
      <trkpt lat="37.8386595100" lon="-2.9902319703">
        <ele>1546.42</ele>
        <time>2017-10-08T08:59:59Z</time>
      </trkpt>
      <trkpt lat="37.8386452608" lon="-2.9903624766">
        <ele>1550.74</ele>
        <time>2017-10-08T09:00:05Z</time>
      </trkpt>
      <trkpt lat="37.8386449255" lon="-2.9903780669">
        <ele>1547.38</ele>
        <time>2017-10-08T09:00:06Z</time>
      </trkpt>
      <trkpt lat="37.8386056982" lon="-2.9905627202">
        <ele>1547.86</ele>
        <time>2017-10-08T09:00:15Z</time>
      </trkpt>
      <trkpt lat="37.8385994118" lon="-2.9905975889">
        <ele>1548.34</ele>
        <time>2017-10-08T09:00:17Z</time>
      </trkpt>
      <trkpt lat="37.8385766968" lon="-2.9906609561">
        <ele>1548.82</ele>
        <time>2017-10-08T09:00:21Z</time>
      </trkpt>
      <trkpt lat="37.8385235555" lon="-2.9907533247">
        <ele>1549.30</ele>
        <time>2017-10-08T09:00:27Z</time>
      </trkpt>
      <trkpt lat="37.8383852541" lon="-2.9908798914">
        <ele>1549.78</ele>
        <time>2017-10-08T09:00:38Z</time>
      </trkpt>
      <trkpt lat="37.8383016028" lon="-2.9910036083">
        <ele>1551.22</ele>
        <time>2017-10-08T09:00:47Z</time>
      </trkpt>
      <trkpt lat="37.8382404987" lon="-2.9911762755">
        <ele>1552.19</ele>
        <time>2017-10-08T09:00:56Z</time>
      </trkpt>
      <trkpt lat="37.8382358048" lon="-2.9911973141">
        <ele>1552.19</ele>
        <time>2017-10-08T09:00:57Z</time>
      </trkpt>
      <trkpt lat="37.8382296860" lon="-2.9913367052">
        <ele>1552.67</ele>
        <time>2017-10-08T09:01:02Z</time>
      </trkpt>
      <trkpt lat="37.8383368067" lon="-2.9915014934">
        <ele>1553.63</ele>
        <time>2017-10-08T09:01:13Z</time>
      </trkpt>
      <trkpt lat="37.8384266607" lon="-2.9914988112">
        <ele>1554.11</ele>
        <time>2017-10-08T09:01:20Z</time>
      </trkpt>
      <trkpt lat="37.8384866752" lon="-2.9914426524">
        <ele>1555.55</ele>
        <time>2017-10-08T09:01:25Z</time>
      </trkpt>
      <trkpt lat="37.8385731764" lon="-2.9912150837">
        <ele>1556.03</ele>
        <time>2017-10-08T09:01:38Z</time>
      </trkpt>
      <trkpt lat="37.8386166785" lon="-2.9910853319">
        <ele>1556.99</ele>
        <time>2017-10-08T09:01:45Z</time>
      </trkpt>
      <trkpt lat="37.8386452608" lon="-2.9910001718">
        <ele>1557.47</ele>
        <time>2017-10-08T09:01:50Z</time>
      </trkpt>
      <trkpt lat="37.8387085441" lon="-2.9908949789">
        <ele>1558.92</ele>
        <time>2017-10-08T09:01:56Z</time>
      </trkpt>
      <trkpt lat="37.8387284931" lon="-2.9908569250">
        <ele>1558.43</ele>
        <time>2017-10-08T09:01:58Z</time>
      </trkpt>
      <trkpt lat="37.8388270643" lon="-2.9906708468">
        <ele>1559.40</ele>
        <time>2017-10-08T09:02:09Z</time>
      </trkpt>
      <trkpt lat="37.8388873301" lon="-2.9906009417">
        <ele>1560.36</ele>
        <time>2017-10-08T09:02:13Z</time>
      </trkpt>
      <trkpt lat="37.8390329238" lon="-2.9904672503">
        <ele>1561.32</ele>
        <time>2017-10-08T09:02:23Z</time>
      </trkpt>
      <trkpt lat="37.8391835466" lon="-2.9904272687">
        <ele>1562.28</ele>
        <time>2017-10-08T09:02:32Z</time>
      </trkpt>
      <trkpt lat="37.8393946029" lon="-2.9904161207">
        <ele>1563.72</ele>
        <time>2017-10-08T09:02:44Z</time>
      </trkpt>
      <trkpt lat="37.8395980317" lon="-2.9904669989">
        <ele>1565.64</ele>
        <time>2017-10-08T09:02:56Z</time>
      </trkpt>
      <trkpt lat="37.8396512568" lon="-2.9904827569">
        <ele>1565.64</ele>
        <time>2017-10-08T09:02:59Z</time>
      </trkpt>
      <trkpt lat="37.8397171386" lon="-2.9905080702">
        <ele>1566.61</ele>
        <time>2017-10-08T09:03:03Z</time>
      </trkpt>
      <trkpt lat="37.8397774044" lon="-2.9905235767">
        <ele>1566.61</ele>
        <time>2017-10-08T09:03:06Z</time>
      </trkpt>
      <trkpt lat="37.8399749659" lon="-2.9905153625">
        <ele>1567.09</ele>
        <time>2017-10-08T09:03:16Z</time>
      </trkpt>
      <trkpt lat="37.8401884530" lon="-2.9904624727">
        <ele>1566.12</ele>
        <time>2017-10-08T09:03:26Z</time>
      </trkpt>
      <trkpt lat="37.8403373156" lon="-2.9904286098">
        <ele>1565.16</ele>
        <time>2017-10-08T09:03:33Z</time>
      </trkpt>
      <trkpt lat="37.8405566700" lon="-2.9903625604">
        <ele>1564.20</ele>
        <time>2017-10-08T09:03:39Z</time>
      </trkpt>
      <trkpt lat="37.8405960649" lon="-2.9903355706">
        <ele>1563.72</ele>
        <time>2017-10-08T09:03:40Z</time>
      </trkpt>
      <trkpt lat="37.8408779483" lon="-2.9902027175">
        <ele>1561.32</ele>
        <time>2017-10-08T09:03:48Z</time>
      </trkpt>
      <trkpt lat="37.8411016613" lon="-2.9901377577">
        <ele>1559.40</ele>
        <time>2017-10-08T09:03:53Z</time>
      </trkpt>
      <trkpt lat="37.8415437229" lon="-2.9900418688">
        <ele>1556.51</ele>
        <time>2017-10-08T09:04:02Z</time>
      </trkpt>
      <trkpt lat="37.8418038134" lon="-2.9899607319">
        <ele>1554.11</ele>
        <time>2017-10-08T09:04:06Z</time>
      </trkpt>
      <trkpt lat="37.8418805916" lon="-2.9899432976">
        <ele>1553.63</ele>
        <time>2017-10-08T09:04:07Z</time>
      </trkpt>
      <trkpt lat="37.8425442707" lon="-2.9898175690">
        <ele>1550.26</ele>
        <time>2017-10-08T09:04:15Z</time>
      </trkpt>
      <trkpt lat="37.8429015074" lon="-2.9897878133">
        <ele>1547.86</ele>
        <time>2017-10-08T09:04:20Z</time>
      </trkpt>
      <trkpt lat="37.8430371266" lon="-2.9897617456">
        <ele>1546.90</ele>
        <time>2017-10-08T09:04:22Z</time>
      </trkpt>
      <trkpt lat="37.8430994041" lon="-2.9897362646">
        <ele>1546.42</ele>
        <time>2017-10-08T09:04:23Z</time>
      </trkpt>
      <trkpt lat="37.8431632742" lon="-2.9897053353">
        <ele>1545.94</ele>
        <time>2017-10-08T09:04:24Z</time>
      </trkpt>
      <trkpt lat="37.8432246298" lon="-2.9896692932">
        <ele>1545.94</ele>
        <time>2017-10-08T09:04:25Z</time>
      </trkpt>
      <trkpt lat="37.8432828840" lon="-2.9896368552">
        <ele>1545.46</ele>
        <time>2017-10-08T09:04:26Z</time>
      </trkpt>
      <trkpt lat="37.8433401324" lon="-2.9896122962">
        <ele>1544.98</ele>
        <time>2017-10-08T09:04:27Z</time>
      </trkpt>
      <trkpt lat="37.8436432220" lon="-2.9895204306">
        <ele>1542.57</ele>
        <time>2017-10-08T09:04:32Z</time>
      </trkpt>
      <trkpt lat="37.8437616583" lon="-2.9895008169">
        <ele>1542.09</ele>
        <time>2017-10-08T09:04:34Z</time>
      </trkpt>
      <trkpt lat="37.8438210860" lon="-2.9895181675">
        <ele>1541.61</ele>
        <time>2017-10-08T09:04:35Z</time>
      </trkpt>
      <trkpt lat="37.8438731376" lon="-2.9895332549">
        <ele>1541.13</ele>
        <time>2017-10-08T09:04:36Z</time>
      </trkpt>
      <trkpt lat="37.8439205792" lon="-2.9895538744">
        <ele>1540.65</ele>
        <time>2017-10-08T09:04:37Z</time>
      </trkpt>
      <trkpt lat="37.8439715412" lon="-2.9895960353">
        <ele>1540.65</ele>
        <time>2017-10-08T09:04:38Z</time>
      </trkpt>
      <trkpt lat="37.8440240957" lon="-2.9896598216">
        <ele>1540.17</ele>
        <time>2017-10-08T09:04:39Z</time>
      </trkpt>
      <trkpt lat="37.8440687712" lon="-2.9897214286">
        <ele>1539.69</ele>
        <time>2017-10-08T09:04:40Z</time>
      </trkpt>
      <trkpt lat="37.8441110998" lon="-2.9897846282">
        <ele>1539.21</ele>
        <time>2017-10-08T09:04:41Z</time>
      </trkpt>
      <trkpt lat="37.8441996127" lon="-2.9899242707">
        <ele>1538.25</ele>
        <time>2017-10-08T09:04:43Z</time>
      </trkpt>
      <trkpt lat="37.8442406002" lon="-2.9900005460">
        <ele>1537.77</ele>
        <time>2017-10-08T09:04:44Z</time>
      </trkpt>
      <trkpt lat="37.8443219885" lon="-2.9901470616">
        <ele>1536.80</ele>
        <time>2017-10-08T09:04:46Z</time>
      </trkpt>
      <trkpt lat="37.8444493096" lon="-2.9904322978">
        <ele>1534.88</ele>
        <time>2017-10-08T09:04:50Z</time>
      </trkpt>
      <trkpt lat="37.8444839269" lon="-2.9904906359">
        <ele>1534.88</ele>
        <time>2017-10-08T09:04:51Z</time>
      </trkpt>
      <trkpt lat="37.8445166163" lon="-2.9905395024">
        <ele>1534.40</ele>
        <time>2017-10-08T09:04:52Z</time>
      </trkpt>
      <trkpt lat="37.8445551731" lon="-2.9905842617">
        <ele>1533.92</ele>
        <time>2017-10-08T09:04:53Z</time>
      </trkpt>
      <trkpt lat="37.8446114156" lon="-2.9906134307">
        <ele>1533.44</ele>
        <time>2017-10-08T09:04:54Z</time>
      </trkpt>
      <trkpt lat="37.8446733579" lon="-2.9906282667">
        <ele>1532.96</ele>
        <time>2017-10-08T09:04:55Z</time>
      </trkpt>
      <trkpt lat="37.8447323665" lon="-2.9906265903">
        <ele>1532.48</ele>
        <time>2017-10-08T09:04:56Z</time>
      </trkpt>
      <trkpt lat="37.8447900340" lon="-2.9906121735">
        <ele>1532.00</ele>
        <time>2017-10-08T09:04:57Z</time>
      </trkpt>
      <trkpt lat="37.8448497970" lon="-2.9905859381">
        <ele>1531.52</ele>
        <time>2017-10-08T09:04:58Z</time>
      </trkpt>
      <trkpt lat="37.8449157625" lon="-2.9905602057">
        <ele>1531.04</ele>
        <time>2017-10-08T09:04:59Z</time>
      </trkpt>
      <trkpt lat="37.8453229554" lon="-2.9904192220">
        <ele>1529.11</ele>
        <time>2017-10-08T09:05:05Z</time>
      </trkpt>
      <trkpt lat="37.8453807067" lon="-2.9903795756">
        <ele>1528.15</ele>
        <time>2017-10-08T09:05:06Z</time>
      </trkpt>
      <trkpt lat="37.8454317525" lon="-2.9903297871">
        <ele>1527.67</ele>
        <time>2017-10-08T09:05:07Z</time>
      </trkpt>
      <trkpt lat="37.8454745840" lon="-2.9902738798">
        <ele>1527.19</ele>
        <time>2017-10-08T09:05:08Z</time>
      </trkpt>
      <trkpt lat="37.8455138952" lon="-2.9902176373">
        <ele>1526.71</ele>
        <time>2017-10-08T09:05:09Z</time>
      </trkpt>
      <trkpt lat="37.8455933556" lon="-2.9901163839">
        <ele>1526.23</ele>
        <time>2017-10-08T09:05:11Z</time>
      </trkpt>
      <trkpt lat="37.8456481732" lon="-2.9900808446">
        <ele>1525.75</ele>
        <time>2017-10-08T09:05:12Z</time>
      </trkpt>
      <trkpt lat="37.8457079362" lon="-2.9900572076">
        <ele>1525.27</ele>
        <time>2017-10-08T09:05:13Z</time>
      </trkpt>
      <trkpt lat="37.8457631730" lon="-2.9900485743">
        <ele>1524.79</ele>
        <time>2017-10-08T09:05:14Z</time>
      </trkpt>
      <trkpt lat="37.8458637558" lon="-2.9900764860">
        <ele>1524.31</ele>
        <time>2017-10-08T09:05:16Z</time>
      </trkpt>
      <trkpt lat="37.8459129576" lon="-2.9901140369">
        <ele>1523.83</ele>
        <time>2017-10-08T09:05:17Z</time>
      </trkpt>
      <trkpt lat="37.8459639195" lon="-2.9901621491">
        <ele>1522.87</ele>
        <time>2017-10-08T09:05:18Z</time>
      </trkpt>
      <trkpt lat="37.8460162226" lon="-2.9902174696">
        <ele>1522.39</ele>
        <time>2017-10-08T09:05:19Z</time>
      </trkpt>
      <trkpt lat="37.8460712079" lon="-2.9902747180">
        <ele>1522.39</ele>
        <time>2017-10-08T09:05:20Z</time>
      </trkpt>
      <trkpt lat="37.8461263608" lon="-2.9903256800">
        <ele>1521.90</ele>
        <time>2017-10-08T09:05:21Z</time>
      </trkpt>
      <trkpt lat="37.8461829387" lon="-2.9903684277">
        <ele>1521.90</ele>
        <time>2017-10-08T09:05:22Z</time>
      </trkpt>
      <trkpt lat="37.8462433722" lon="-2.9904029611">
        <ele>1521.42</ele>
        <time>2017-10-08T09:05:23Z</time>
      </trkpt>
      <trkpt lat="37.8463053145" lon="-2.9904293641">
        <ele>1520.94</ele>
        <time>2017-10-08T09:05:24Z</time>
      </trkpt>
      <trkpt lat="37.8463710286" lon="-2.9904458765">
        <ele>1521.42</ele>
        <time>2017-10-08T09:05:25Z</time>
      </trkpt>
      <trkpt lat="37.8464354016" lon="-2.9904542584">
        <ele>1519.98</ele>
        <time>2017-10-08T09:05:26Z</time>
      </trkpt>
      <trkpt lat="37.8464996070" lon="-2.9904597905">
        <ele>1519.50</ele>
        <time>2017-10-08T09:05:27Z</time>
      </trkpt>
      <trkpt lat="37.8465627227" lon="-2.9904609639">
        <ele>1519.50</ele>
        <time>2017-10-08T09:05:28Z</time>
      </trkpt>
      <trkpt lat="37.8466234077" lon="-2.9904498998">
        <ele>1518.54</ele>
        <time>2017-10-08T09:05:29Z</time>
      </trkpt>
      <trkpt lat="37.8466842603" lon="-2.9904284421">
        <ele>1518.54</ele>
        <time>2017-10-08T09:05:30Z</time>
      </trkpt>
      <trkpt lat="37.8467442747" lon="-2.9903913941">
        <ele>1517.58</ele>
        <time>2017-10-08T09:05:31Z</time>
      </trkpt>
      <trkpt lat="37.8467993438" lon="-2.9903395940">
        <ele>1517.58</ele>
        <time>2017-10-08T09:05:32Z</time>
      </trkpt>
      <trkpt lat="37.8468546644" lon="-2.9902837705">
        <ele>1517.10</ele>
        <time>2017-10-08T09:05:33Z</time>
      </trkpt>
      <trkpt lat="37.8470131662" lon="-2.9901277833">
        <ele>1516.62</ele>
        <time>2017-10-08T09:05:36Z</time>
      </trkpt>
      <trkpt lat="37.8474578261" lon="-2.9894908424">
        <ele>1513.25</ele>
        <time>2017-10-08T09:05:45Z</time>
      </trkpt>
      <trkpt lat="37.8474955447" lon="-2.9894037545">
        <ele>1513.25</ele>
        <time>2017-10-08T09:05:46Z</time>
      </trkpt>
      <trkpt lat="37.8475377895" lon="-2.9893205222">
        <ele>1512.77</ele>
        <time>2017-10-08T09:05:47Z</time>
      </trkpt>
      <trkpt lat="37.8476634342" lon="-2.9891046882">
        <ele>1511.33</ele>
        <time>2017-10-08T09:05:50Z</time>
      </trkpt>
      <trkpt lat="37.8477120493" lon="-2.9890495352">
        <ele>1510.85</ele>
        <time>2017-10-08T09:05:51Z</time>
      </trkpt>
      <trkpt lat="37.8477648553" lon="-2.9889982380">
        <ele>1510.85</ele>
        <time>2017-10-08T09:05:52Z</time>
      </trkpt>
      <trkpt lat="37.8478218522" lon="-2.9889552388">
        <ele>1510.37</ele>
        <time>2017-10-08T09:05:53Z</time>
      </trkpt>
      <trkpt lat="37.8478813637" lon="-2.9889148381">
        <ele>1509.89</ele>
        <time>2017-10-08T09:05:54Z</time>
      </trkpt>
      <trkpt lat="37.8479424678" lon="-2.9888781253">
        <ele>1509.41</ele>
        <time>2017-10-08T09:05:55Z</time>
      </trkpt>
      <trkpt lat="37.8480001353" lon="-2.9888471123">
        <ele>1508.93</ele>
        <time>2017-10-08T09:05:56Z</time>
      </trkpt>
      <trkpt lat="37.8480552882" lon="-2.9888098128">
        <ele>1508.93</ele>
        <time>2017-10-08T09:05:57Z</time>
      </trkpt>
      <trkpt lat="37.8481158894" lon="-2.9887641314">
        <ele>1508.93</ele>
        <time>2017-10-08T09:05:58Z</time>
      </trkpt>
      <trkpt lat="37.8481753170" lon="-2.9887069669">
        <ele>1507.97</ele>
        <time>2017-10-08T09:05:59Z</time>
      </trkpt>
      <trkpt lat="37.8482282907" lon="-2.9886451922">
        <ele>1507.97</ele>
        <time>2017-10-08T09:06:00Z</time>
      </trkpt>
      <trkpt lat="37.8482782468" lon="-2.9885866027">
        <ele>1507.48</ele>
        <time>2017-10-08T09:06:01Z</time>
      </trkpt>
      <trkpt lat="37.8486814164" lon="-2.9881185573">
        <ele>1504.12</ele>
        <time>2017-10-08T09:06:09Z</time>
      </trkpt>
      <trkpt lat="37.8487171233" lon="-2.9880442098">
        <ele>1504.12</ele>
        <time>2017-10-08T09:06:10Z</time>
      </trkpt>
      <trkpt lat="37.8487509862" lon="-2.9879650846">
        <ele>1503.16</ele>
        <time>2017-10-08T09:06:11Z</time>
      </trkpt>
      <trkpt lat="37.8487914708" lon="-2.9878857080">
        <ele>1502.68</ele>
        <time>2017-10-08T09:06:12Z</time>
      </trkpt>
      <trkpt lat="37.8488356434" lon="-2.9878054932">
        <ele>1502.20</ele>
        <time>2017-10-08T09:06:13Z</time>
      </trkpt>
      <trkpt lat="37.8489274252" lon="-2.9876392800">
        <ele>1501.24</ele>
        <time>2017-10-08T09:06:15Z</time>
      </trkpt>
      <trkpt lat="37.8490606975" lon="-2.9874438141">
        <ele>1500.27</ele>
        <time>2017-10-08T09:06:18Z</time>
      </trkpt>
      <trkpt lat="37.8490967397" lon="-2.9873717297">
        <ele>1499.79</ele>
        <time>2017-10-08T09:06:19Z</time>
      </trkpt>
      <trkpt lat="37.8492990788" lon="-2.9869183525">
        <ele>1496.91</ele>
        <time>2017-10-08T09:06:25Z</time>
      </trkpt>
      <trkpt lat="37.8493228834" lon="-2.9868632834">
        <ele>1496.43</ele>
        <time>2017-10-08T09:06:26Z</time>
      </trkpt>
      <trkpt lat="37.8493442573" lon="-2.9868119024">
        <ele>1495.95</ele>
        <time>2017-10-08T09:06:27Z</time>
      </trkpt>
      <trkpt lat="37.8493564110" lon="-2.9867629521">
        <ele>1495.95</ele>
        <time>2017-10-08T09:06:28Z</time>
      </trkpt>
      <trkpt lat="37.8493625298" lon="-2.9867113195">
        <ele>1495.95</ele>
        <time>2017-10-08T09:06:29Z</time>
      </trkpt>
      <trkpt lat="37.8493590094" lon="-2.9866563343">
        <ele>1495.95</ele>
        <time>2017-10-08T09:06:30Z</time>
      </trkpt>
      <trkpt lat="37.8493461851" lon="-2.9866083059">
        <ele>1495.47</ele>
        <time>2017-10-08T09:06:31Z</time>
      </trkpt>
      <trkpt lat="37.8493205365" lon="-2.9865667317">
        <ele>1495.47</ele>
        <time>2017-10-08T09:06:32Z</time>
      </trkpt>
      <trkpt lat="37.8492989112" lon="-2.9865298513">
        <ele>1494.99</ele>
        <time>2017-10-08T09:06:33Z</time>
      </trkpt>
      <trkpt lat="37.8492673114" lon="-2.9865065496">
        <ele>1494.99</ele>
        <time>2017-10-08T09:06:34Z</time>
      </trkpt>
      <trkpt lat="37.8491813131" lon="-2.9865057953">
        <ele>1493.55</ele>
        <time>2017-10-08T09:06:36Z</time>
      </trkpt>
      <trkpt lat="37.8491377272" lon="-2.9865379818">
        <ele>1493.55</ele>
        <time>2017-10-08T09:06:37Z</time>
      </trkpt>
      <trkpt lat="37.8490988351" lon="-2.9865811486">
        <ele>1493.06</ele>
        <time>2017-10-08T09:06:38Z</time>
      </trkpt>
      <trkpt lat="37.8490658104" lon="-2.9866309371">
        <ele>1493.06</ele>
        <time>2017-10-08T09:06:39Z</time>
      </trkpt>
      <trkpt lat="37.8490346298" lon="-2.9866790492">
        <ele>1492.58</ele>
        <time>2017-10-08T09:06:40Z</time>
      </trkpt>
      <trkpt lat="37.8490029462" lon="-2.9867269937">
        <ele>1492.58</ele>
        <time>2017-10-08T09:06:41Z</time>
      </trkpt>
      <trkpt lat="37.8489734419" lon="-2.9867825657">
        <ele>1492.10</ele>
        <time>2017-10-08T09:06:42Z</time>
      </trkpt>
      <trkpt lat="37.8487432748" lon="-2.9872056842">
        <ele>1489.70</ele>
        <time>2017-10-08T09:06:49Z</time>
      </trkpt>
      <trkpt lat="37.8487174585" lon="-2.9872675426">
        <ele>1489.22</ele>
        <time>2017-10-08T09:06:50Z</time>
      </trkpt>
      <trkpt lat="37.8486937378" lon="-2.9873360228">
        <ele>1489.22</ele>
        <time>2017-10-08T09:06:51Z</time>
      </trkpt>
      <trkpt lat="37.8485576995" lon="-2.9877163097">
        <ele>1487.30</ele>
        <time>2017-10-08T09:06:56Z</time>
      </trkpt>
      <trkpt lat="37.8485209029" lon="-2.9877917469">
        <ele>1487.30</ele>
        <time>2017-10-08T09:06:57Z</time>
      </trkpt>
      <trkpt lat="37.8484808374" lon="-2.9878570419">
        <ele>1486.82</ele>
        <time>2017-10-08T09:06:58Z</time>
      </trkpt>
      <trkpt lat="37.8484324738" lon="-2.9879160505">
        <ele>1486.34</ele>
        <time>2017-10-08T09:06:59Z</time>
      </trkpt>
      <trkpt lat="37.8483812604" lon="-2.9879712034">
        <ele>1485.85</ele>
        <time>2017-10-08T09:07:00Z</time>
      </trkpt>
      <trkpt lat="37.8483292926" lon="-2.9880194832">
        <ele>1485.37</ele>
        <time>2017-10-08T09:07:01Z</time>
      </trkpt>
      <trkpt lat="37.8482757322" lon="-2.9880668409">
        <ele>1485.37</ele>
        <time>2017-10-08T09:07:02Z</time>
      </trkpt>
      <trkpt lat="37.8477532044" lon="-2.9885085672">
        <ele>1481.53</ele>
        <time>2017-10-08T09:07:11Z</time>
      </trkpt>
      <trkpt lat="37.8476416413" lon="-2.9885833338">
        <ele>1481.05</ele>
        <time>2017-10-08T09:07:13Z</time>
      </trkpt>
      <trkpt lat="37.8475434892" lon="-2.9886668175">
        <ele>1480.09</ele>
        <time>2017-10-08T09:07:15Z</time>
      </trkpt>
      <trkpt lat="37.8472842369" lon="-2.9890282452">
        <ele>1478.16</ele>
        <time>2017-10-08T09:07:21Z</time>
      </trkpt>
      <trkpt lat="37.8472019266" lon="-2.9891277384">
        <ele>1477.68</ele>
        <time>2017-10-08T09:07:23Z</time>
      </trkpt>
      <trkpt lat="37.8471573349" lon="-2.9891641159">
        <ele>1477.20</ele>
        <time>2017-10-08T09:07:24Z</time>
      </trkpt>
      <trkpt lat="37.8471069597" lon="-2.9891896807">
        <ele>1476.72</ele>
        <time>2017-10-08T09:07:25Z</time>
      </trkpt>
      <trkpt lat="37.8470533993" lon="-2.9892042652">
        <ele>1477.20</ele>
        <time>2017-10-08T09:07:26Z</time>
      </trkpt>
      <trkpt lat="37.8469971567" lon="-2.9892027564">
        <ele>1476.24</ele>
        <time>2017-10-08T09:07:27Z</time>
      </trkpt>
      <trkpt lat="37.8469406627" lon="-2.9891847353">
        <ele>1475.28</ele>
        <time>2017-10-08T09:07:28Z</time>
      </trkpt>
      <trkpt lat="37.8468844201" lon="-2.9891525488">
        <ele>1475.28</ele>
        <time>2017-10-08T09:07:29Z</time>
      </trkpt>
      <trkpt lat="37.8468327038" lon="-2.9891151655">
        <ele>1474.80</ele>
        <time>2017-10-08T09:07:30Z</time>
      </trkpt>
      <trkpt lat="37.8467881121" lon="-2.9890673049">
        <ele>1474.32</ele>
        <time>2017-10-08T09:07:31Z</time>
      </trkpt>
      <trkpt lat="37.8467481304" lon="-2.9890102241">
        <ele>1473.84</ele>
        <time>2017-10-08T09:07:32Z</time>
      </trkpt>
      <trkpt lat="37.8467058856" lon="-2.9889331944">
        <ele>1473.36</ele>
        <time>2017-10-08T09:07:33Z</time>
      </trkpt>
      <trkpt lat="37.8466624673" lon="-2.9888468608">
        <ele>1472.88</ele>
        <time>2017-10-08T09:07:34Z</time>
      </trkpt>
      <trkpt lat="37.8464785684" lon="-2.9883640632">
        <ele>1469.99</ele>
        <time>2017-10-08T09:07:39Z</time>
      </trkpt>
      <trkpt lat="37.8464517463" lon="-2.9882609658">
        <ele>1469.99</ele>
        <time>2017-10-08T09:07:40Z</time>
      </trkpt>
      <trkpt lat="37.8463769797" lon="-2.9879991990">
        <ele>1468.55</ele>
        <time>2017-10-08T09:07:43Z</time>
      </trkpt>
      <trkpt lat="37.8463483136" lon="-2.9879423697">
        <ele>1468.07</ele>
        <time>2017-10-08T09:07:44Z</time>
      </trkpt>
      <trkpt lat="37.8463116847" lon="-2.9878955986">
        <ele>1467.59</ele>
        <time>2017-10-08T09:07:45Z</time>
      </trkpt>
      <trkpt lat="37.8462691884" lon="-2.9878524318">
        <ele>1467.59</ele>
        <time>2017-10-08T09:07:46Z</time>
      </trkpt>
      <trkpt lat="37.8461646661" lon="-2.9877874721">
        <ele>1467.11</ele>
        <time>2017-10-08T09:07:48Z</time>
      </trkpt>
      <trkpt lat="37.8461047355" lon="-2.9877901543">
        <ele>1466.63</ele>
        <time>2017-10-08T09:07:49Z</time>
      </trkpt>
      <trkpt lat="37.8460441343" lon="-2.9878064990">
        <ele>1466.63</ele>
        <time>2017-10-08T09:07:50Z</time>
      </trkpt>
      <trkpt lat="37.8459855448" lon="-2.9878306389">
        <ele>1466.15</ele>
        <time>2017-10-08T09:07:51Z</time>
      </trkpt>
      <trkpt lat="37.8459280450" lon="-2.9878608137">
        <ele>1465.67</ele>
        <time>2017-10-08T09:07:52Z</time>
      </trkpt>
      <trkpt lat="37.8458696231" lon="-2.9878967721">
        <ele>1465.19</ele>
        <time>2017-10-08T09:07:53Z</time>
      </trkpt>
      <trkpt lat="37.8458124585" lon="-2.9879408609">
        <ele>1465.19</ele>
        <time>2017-10-08T09:07:54Z</time>
      </trkpt>
      <trkpt lat="37.8454673756" lon="-2.9882196430">
        <ele>1463.26</ele>
        <time>2017-10-08T09:08:00Z</time>
      </trkpt>
      <trkpt lat="37.8454136476" lon="-2.9882701021">
        <ele>1462.78</ele>
        <time>2017-10-08T09:08:01Z</time>
      </trkpt>
      <trkpt lat="37.8453618474" lon="-2.9883257579">
        <ele>1462.78</ele>
        <time>2017-10-08T09:08:02Z</time>
      </trkpt>
      <trkpt lat="37.8453088738" lon="-2.9883812461">
        <ele>1462.30</ele>
        <time>2017-10-08T09:08:03Z</time>
      </trkpt>
      <trkpt lat="37.8452558164" lon="-2.9884390812">
        <ele>1461.82</ele>
        <time>2017-10-08T09:08:04Z</time>
      </trkpt>
      <trkpt lat="37.8452012502" lon="-2.9885032866">
        <ele>1461.34</ele>
        <time>2017-10-08T09:08:05Z</time>
      </trkpt>
      <trkpt lat="37.8451506235" lon="-2.9885686655">
        <ele>1461.34</ele>
        <time>2017-10-08T09:08:06Z</time>
      </trkpt>
      <trkpt lat="37.8450300917" lon="-2.9887306876">
        <ele>1460.38</ele>
        <time>2017-10-08T09:08:09Z</time>
      </trkpt>
      <trkpt lat="37.8449867573" lon="-2.9887690768">
        <ele>1459.90</ele>
        <time>2017-10-08T09:08:10Z</time>
      </trkpt>
      <trkpt lat="37.8449363820" lon="-2.9887952283">
        <ele>1459.42</ele>
        <time>2017-10-08T09:08:11Z</time>
      </trkpt>
      <trkpt lat="37.8448824864" lon="-2.9888015147">
        <ele>1459.42</ele>
        <time>2017-10-08T09:08:12Z</time>
      </trkpt>
      <trkpt lat="37.8448300157" lon="-2.9887844156">
        <ele>1458.94</ele>
        <time>2017-10-08T09:08:13Z</time>
      </trkpt>
      <trkpt lat="37.8447806463" lon="-2.9887496307">
        <ele>1458.46</ele>
        <time>2017-10-08T09:08:14Z</time>
      </trkpt>
      <trkpt lat="37.8447363060" lon="-2.9887051228">
        <ele>1457.98</ele>
        <time>2017-10-08T09:08:15Z</time>
      </trkpt>
      <trkpt lat="37.8446935583" lon="-2.9886582680">
        <ele>1457.98</ele>
        <time>2017-10-08T09:08:16Z</time>
      </trkpt>
      <trkpt lat="37.8443306219" lon="-2.9881892167">
        <ele>1455.09</ele>
        <time>2017-10-08T09:08:24Z</time>
      </trkpt>
      <trkpt lat="37.8442861978" lon="-2.9881259333">
        <ele>1454.61</ele>
        <time>2017-10-08T09:08:25Z</time>
      </trkpt>
      <trkpt lat="37.8442442045" lon="-2.9880577046">
        <ele>1454.13</ele>
        <time>2017-10-08T09:08:26Z</time>
      </trkpt>
      <trkpt lat="37.8442079946" lon="-2.9879852012">
        <ele>1453.65</ele>
        <time>2017-10-08T09:08:27Z</time>
      </trkpt>
      <trkpt lat="37.8440760635" lon="-2.9876971152">
        <ele>1452.69</ele>
        <time>2017-10-08T09:08:31Z</time>
      </trkpt>
      <trkpt lat="37.8440267779" lon="-2.9876474105">
        <ele>1452.21</ele>
        <time>2017-10-08T09:08:32Z</time>
      </trkpt>
      <trkpt lat="37.8439693619" lon="-2.9876128770">
        <ele>1452.21</ele>
        <time>2017-10-08T09:08:33Z</time>
      </trkpt>
      <trkpt lat="37.8438548651" lon="-2.9875613283">
        <ele>1451.73</ele>
        <time>2017-10-08T09:08:35Z</time>
      </trkpt>
      <trkpt lat="37.8437130433" lon="-2.9875283036">
        <ele>1450.77</ele>
        <time>2017-10-08T09:08:38Z</time>
      </trkpt>
      <trkpt lat="37.8436725587" lon="-2.9875283875">
        <ele>1450.77</ele>
        <time>2017-10-08T09:08:39Z</time>
      </trkpt>
      <trkpt lat="37.8434589040" lon="-2.9875518568">
        <ele>1449.32</ele>
        <time>2017-10-08T09:08:46Z</time>
      </trkpt>
      <trkpt lat="37.8433916811" lon="-2.9875551257">
        <ele>1449.32</ele>
        <time>2017-10-08T09:08:53Z</time>
      </trkpt>
      <trkpt lat="37.8433739953" lon="-2.9875301477">
        <ele>1449.32</ele>
        <time>2017-10-08T09:09:07Z</time>
      </trkpt>
      <trkpt lat="37.8433679603" lon="-2.9875203408">
        <ele>1448.84</ele>
        <time>2017-10-08T09:09:18Z</time>
      </trkpt>
      <trkpt lat="37.8433442395" lon="-2.9875316564">
        <ele>1448.84</ele>
        <time>2017-10-08T09:09:30Z</time>
      </trkpt>
      <trkpt lat="37.8433114663" lon="-2.9875315726">
        <ele>1448.84</ele>
        <time>2017-10-08T09:09:32Z</time>
      </trkpt>
      <trkpt lat="37.8432920203" lon="-2.9875365179">
        <ele>1448.84</ele>
        <time>2017-10-08T09:09:33Z</time>
      </trkpt>
      <trkpt lat="37.8432696406" lon="-2.9875399545">
        <ele>1448.36</ele>
        <time>2017-10-08T09:09:34Z</time>
      </trkpt>
      <trkpt lat="37.8432439081" lon="-2.9875443969">
        <ele>1448.36</ele>
        <time>2017-10-08T09:09:35Z</time>
      </trkpt>
      <trkpt lat="37.8432143200" lon="-2.9875466600">
        <ele>1447.88</ele>
        <time>2017-10-08T09:09:36Z</time>
      </trkpt>
      <trkpt lat="37.8431828041" lon="-2.9875476658">
        <ele>1447.88</ele>
        <time>2017-10-08T09:09:37Z</time>
      </trkpt>
      <trkpt lat="37.8429502901" lon="-2.9876003042">
        <ele>1446.92</ele>
        <time>2017-10-08T09:09:44Z</time>
      </trkpt>
      <trkpt lat="37.8428450972" lon="-2.9875676148">
        <ele>1445.96</ele>
        <time>2017-10-08T09:09:47Z</time>
      </trkpt>
      <trkpt lat="37.8428119887" lon="-2.9875377752">
        <ele>1445.96</ele>
        <time>2017-10-08T09:09:48Z</time>
      </trkpt>
      <trkpt lat="37.8426445182" lon="-2.9873998929">
        <ele>1445.48</ele>
        <time>2017-10-08T09:09:53Z</time>
      </trkpt>
      <trkpt lat="37.8426051233" lon="-2.9873817042">
        <ele>1445.00</ele>
        <time>2017-10-08T09:09:54Z</time>
      </trkpt>
      <trkpt lat="37.8425182868" lon="-2.9873519484">
        <ele>1445.00</ele>
        <time>2017-10-08T09:09:56Z</time>
      </trkpt>
      <trkpt lat="37.8424285166" lon="-2.9873331729">
        <ele>1445.00</ele>
        <time>2017-10-08T09:09:58Z</time>
      </trkpt>
      <trkpt lat="37.8422961663" lon="-2.9873311613">
        <ele>1444.52</ele>
        <time>2017-10-08T09:10:01Z</time>
      </trkpt>
      <trkpt lat="37.8422524966" lon="-2.9873268865">
        <ele>1444.04</ele>
        <time>2017-10-08T09:10:02Z</time>
      </trkpt>
      <trkpt lat="37.8421136923" lon="-2.9872879107">
        <ele>1444.52</ele>
        <time>2017-10-08T09:10:05Z</time>
      </trkpt>
      <trkpt lat="37.8418844473" lon="-2.9871797841">
        <ele>1444.04</ele>
        <time>2017-10-08T09:10:10Z</time>
      </trkpt>
      <trkpt lat="37.8417633288" lon="-2.9870816320">
        <ele>1444.04</ele>
        <time>2017-10-08T09:10:13Z</time>
      </trkpt>
      <trkpt lat="37.8413266316" lon="-2.9868192784">
        <ele>1442.60</ele>
        <time>2017-10-08T09:10:25Z</time>
      </trkpt>
      <trkpt lat="37.8411758412" lon="-2.9866238125">
        <ele>1442.11</ele>
        <time>2017-10-08T09:10:32Z</time>
      </trkpt>
      <trkpt lat="37.8411393799" lon="-2.9865430947">
        <ele>1441.63</ele>
        <time>2017-10-08T09:10:41Z</time>
      </trkpt>
      <trkpt lat="37.8411348537" lon="-2.9865052924">
        <ele>1441.63</ele>
        <time>2017-10-08T09:10:58Z</time>
      </trkpt>
      <trkpt lat="37.8411335964" lon="-2.9865093995">
        <ele>1441.63</ele>
        <time>2017-10-08T09:11:14Z</time>
      </trkpt>
      <trkpt lat="37.8411373682" lon="-2.9864954855">
        <ele>1441.63</ele>
        <time>2017-10-08T09:11:35Z</time>
      </trkpt>
      <trkpt lat="37.8411301598" lon="-2.9864899535">
        <ele>1441.63</ele>
        <time>2017-10-08T09:11:53Z</time>
      </trkpt>
      <trkpt lat="37.8411269747" lon="-2.9864879418">
        <ele>1442.11</ele>
        <time>2017-10-08T09:12:10Z</time>
      </trkpt>
      <trkpt lat="37.8411211073" lon="-2.9864793085">
        <ele>1441.63</ele>
        <time>2017-10-08T09:12:32Z</time>
      </trkpt>
      <trkpt lat="37.8411194310" lon="-2.9864876904">
        <ele>1442.11</ele>
        <time>2017-10-08T09:12:56Z</time>
      </trkpt>
      <trkpt lat="37.8411211912" lon="-2.9864897858">
        <ele>1442.11</ele>
        <time>2017-10-08T09:13:16Z</time>
      </trkpt>
      <trkpt lat="37.8411145695" lon="-2.9864722677">
        <ele>1442.11</ele>
        <time>2017-10-08T09:13:37Z</time>
      </trkpt>
      <trkpt lat="37.8411225323" lon="-2.9864463676">
        <ele>1442.11</ele>
        <time>2017-10-08T09:14:03Z</time>
      </trkpt>
      <trkpt lat="37.8411255497" lon="-2.9864551686">
        <ele>1442.11</ele>
        <time>2017-10-08T09:14:27Z</time>
      </trkpt>
      <trkpt lat="37.8411272261" lon="-2.9864681605">
        <ele>1442.11</ele>
        <time>2017-10-08T09:14:40Z</time>
      </trkpt>
      <trkpt lat="37.8411415592" lon="-2.9864634667">
        <ele>1442.11</ele>
        <time>2017-10-08T09:15:05Z</time>
      </trkpt>
      <trkpt lat="37.8411420621" lon="-2.9864727706">
        <ele>1442.11</ele>
        <time>2017-10-08T09:15:25Z</time>
      </trkpt>
      <trkpt lat="37.8411376197" lon="-2.9864822421">
        <ele>1442.60</ele>
        <time>2017-10-08T09:15:35Z</time>
      </trkpt>
      <trkpt lat="37.8411386255" lon="-2.9864711780">
        <ele>1442.60</ele>
        <time>2017-10-08T09:15:53Z</time>
      </trkpt>
      <trkpt lat="37.8411436547" lon="-2.9864646401">
        <ele>1442.60</ele>
        <time>2017-10-08T09:16:10Z</time>
      </trkpt>
      <trkpt lat="37.8411475103" lon="-2.9864697531">
        <ele>1442.60</ele>
        <time>2017-10-08T09:16:26Z</time>
      </trkpt>
      <trkpt lat="37.8411528748" lon="-2.9864777997">
        <ele>1442.60</ele>
        <time>2017-10-08T09:16:42Z</time>
      </trkpt>
      <trkpt lat="37.8411552217" lon="-2.9864788894">
        <ele>1442.60</ele>
        <time>2017-10-08T09:16:54Z</time>
      </trkpt>
      <trkpt lat="37.8411437385" lon="-2.9864785541">
        <ele>1442.60</ele>
        <time>2017-10-08T09:17:14Z</time>
      </trkpt>
      <trkpt lat="37.8411367815" lon="-2.9864752013">
        <ele>1443.08</ele>
        <time>2017-10-08T09:17:36Z</time>
      </trkpt>
      <trkpt lat="37.8411367815" lon="-2.9864784703">
        <ele>1443.08</ele>
        <time>2017-10-08T09:17:53Z</time>
      </trkpt>
      <trkpt lat="37.8411350213" lon="-2.9864787217">
        <ele>1443.08</ele>
        <time>2017-10-08T09:18:09Z</time>
      </trkpt>
      <trkpt lat="37.8411344346" lon="-2.9864790570">
        <ele>1443.56</ele>
        <time>2017-10-08T09:18:28Z</time>
      </trkpt>
      <trkpt lat="37.8411695547" lon="-2.9864652269">
        <ele>1443.08</ele>
        <time>2017-10-08T09:18:47Z</time>
      </trkpt>
      <trkpt lat="37.8411780205" lon="-2.9864762072">
        <ele>1443.56</ele>
        <time>2017-10-08T09:19:05Z</time>
      </trkpt>
      <trkpt lat="37.8411819600" lon="-2.9864937253">
        <ele>1444.52</ele>
        <time>2017-10-08T09:19:27Z</time>
      </trkpt>
      <trkpt lat="37.8411744162" lon="-2.9864800628">
        <ele>1443.56</ele>
        <time>2017-10-08T09:19:44Z</time>
      </trkpt>
      <trkpt lat="37.8411781881" lon="-2.9864674062">
        <ele>1444.04</ele>
        <time>2017-10-08T09:20:04Z</time>
      </trkpt>
      <trkpt lat="37.8411835525" lon="-2.9864616226">
        <ele>1444.04</ele>
        <time>2017-10-08T09:20:19Z</time>
      </trkpt>
      <trkpt lat="37.8411857318" lon="-2.9864533246">
        <ele>1444.04</ele>
        <time>2017-10-08T09:20:38Z</time>
      </trkpt>
      <trkpt lat="37.8411768470" lon="-2.9864493012">
        <ele>1443.56</ele>
        <time>2017-10-08T09:20:51Z</time>
      </trkpt>
      <trkpt lat="37.8411609214" lon="-2.9864566773">
        <ele>1444.04</ele>
        <time>2017-10-08T09:21:09Z</time>
      </trkpt>
      <trkpt lat="37.8411667887" lon="-2.9864601977">
        <ele>1444.52</ele>
        <time>2017-10-08T09:21:24Z</time>
      </trkpt>
      <trkpt lat="37.8411180060" lon="-2.9864483792">
        <ele>1444.52</ele>
        <time>2017-10-08T09:21:37Z</time>
      </trkpt>
      <trkpt lat="37.8411125578" lon="-2.9864839185">
        <ele>1444.52</ele>
        <time>2017-10-08T09:21:50Z</time>
      </trkpt>
      <trkpt lat="37.8411170840" lon="-2.9864954017">
        <ele>1444.52</ele>
        <time>2017-10-08T09:21:55Z</time>
      </trkpt>
      <trkpt lat="37.8411243763" lon="-2.9864876904">
        <ele>1444.52</ele>
        <time>2017-10-08T09:22:02Z</time>
      </trkpt>
      <trkpt lat="37.8411196824" lon="-2.9864914622">
        <ele>1444.52</ele>
        <time>2017-10-08T09:22:12Z</time>
      </trkpt>
      <trkpt lat="37.8411104623" lon="-2.9864689987">
        <ele>1444.52</ele>
        <time>2017-10-08T09:22:28Z</time>
      </trkpt>
      <trkpt lat="37.8411154076" lon="-2.9864763748">
        <ele>1445.00</ele>
        <time>2017-10-08T09:22:43Z</time>
      </trkpt>
      <trkpt lat="37.8411142342" lon="-2.9864814878">
        <ele>1445.48</ele>
        <time>2017-10-08T09:23:02Z</time>
      </trkpt>
      <trkpt lat="37.8411141504" lon="-2.9864871036">
        <ele>1445.00</ele>
        <time>2017-10-08T09:23:15Z</time>
      </trkpt>
      <trkpt lat="37.8410820477" lon="-2.9864306096">
        <ele>1445.00</ele>
        <time>2017-10-08T09:23:26Z</time>
      </trkpt>
      <trkpt lat="37.8410456702" lon="-2.9863765463">
        <ele>1444.52</ele>
        <time>2017-10-08T09:23:29Z</time>
      </trkpt>
      <trkpt lat="37.8410362825" lon="-2.9863519035">
        <ele>1444.52</ele>
        <time>2017-10-08T09:23:30Z</time>
      </trkpt>
      <trkpt lat="37.8410208598" lon="-2.9863303620">
        <ele>1444.52</ele>
        <time>2017-10-08T09:23:31Z</time>
      </trkpt>
      <trkpt lat="37.8408619389" lon="-2.9860977642">
        <ele>1444.04</ele>
        <time>2017-10-08T09:23:40Z</time>
      </trkpt>
      <trkpt lat="37.8407279961" lon="-2.9859323893">
        <ele>1443.08</ele>
        <time>2017-10-08T09:23:48Z</time>
      </trkpt>
      <trkpt lat="37.8406510502" lon="-2.9858022183">
        <ele>1442.11</ele>
        <time>2017-10-08T09:23:53Z</time>
      </trkpt>
      <trkpt lat="37.8406411596" lon="-2.9857568722">
        <ele>1442.11</ele>
        <time>2017-10-08T09:23:54Z</time>
      </trkpt>
      <trkpt lat="37.8405234776" lon="-2.9853696283">
        <ele>1441.63</ele>
        <time>2017-10-08T09:24:01Z</time>
      </trkpt>
      <trkpt lat="37.8404926322" lon="-2.9853195045">
        <ele>1441.15</ele>
        <time>2017-10-08T09:24:02Z</time>
      </trkpt>
      <trkpt lat="37.8404625412" lon="-2.9852679558">
        <ele>1441.15</ele>
        <time>2017-10-08T09:24:03Z</time>
      </trkpt>
      <trkpt lat="37.8402843419" lon="-2.9849035107">
        <ele>1440.19</ele>
        <time>2017-10-08T09:24:10Z</time>
      </trkpt>
      <trkpt lat="37.8402657341" lon="-2.9848534707">
        <ele>1440.19</ele>
        <time>2017-10-08T09:24:11Z</time>
      </trkpt>
      <trkpt lat="37.8401804902" lon="-2.9846105631">
        <ele>1440.19</ele>
        <time>2017-10-08T09:24:16Z</time>
      </trkpt>
      <trkpt lat="37.8401913028" lon="-2.9845642112">
        <ele>1440.19</ele>
        <time>2017-10-08T09:24:17Z</time>
      </trkpt>
      <trkpt lat="37.8404086456" lon="-2.9843040369">
        <ele>1439.71</ele>
        <time>2017-10-08T09:24:25Z</time>
      </trkpt>
      <trkpt lat="37.8404762875" lon="-2.9842041247">
        <ele>1439.23</ele>
        <time>2017-10-08T09:24:28Z</time>
      </trkpt>
      <trkpt lat="37.8405626211" lon="-2.9838787392">
        <ele>1439.23</ele>
        <time>2017-10-08T09:24:36Z</time>
      </trkpt>
      <trkpt lat="37.8405746911" lon="-2.9838643223">
        <ele>1439.71</ele>
        <time>2017-10-08T09:24:48Z</time>
      </trkpt>
      <trkpt lat="37.8405745234" lon="-2.9838641547">
        <ele>1443.08</ele>
        <time>2017-10-08T09:24:51Z</time>
      </trkpt>
      <trkpt lat="37.8405767027" lon="-2.9838612210">
        <ele>1443.08</ele>
        <time>2017-10-08T09:24:52Z</time>
      </trkpt>
      <trkpt lat="37.8405850008" lon="-2.9838483129">
        <ele>1439.71</ele>
        <time>2017-10-08T09:24:53Z</time>
      </trkpt>
      <trkpt lat="37.8406066261" lon="-2.9838233348">
        <ele>1439.23</ele>
        <time>2017-10-08T09:24:55Z</time>
      </trkpt>
      <trkpt lat="37.8407477774" lon="-2.9836069979">
        <ele>1438.75</ele>
        <time>2017-10-08T09:25:04Z</time>
      </trkpt>
      <trkpt lat="37.8409439977" lon="-2.9832889047">
        <ele>1437.79</ele>
        <time>2017-10-08T09:25:14Z</time>
      </trkpt>
      <trkpt lat="37.8411485162" lon="-2.9828788619">
        <ele>1437.31</ele>
        <time>2017-10-08T09:25:24Z</time>
      </trkpt>
      <trkpt lat="37.8414518572" lon="-2.9827666283">
        <ele>1436.83</ele>
        <time>2017-10-08T09:25:32Z</time>
      </trkpt>
      <trkpt lat="37.8418072499" lon="-2.9828091245">
        <ele>1436.35</ele>
        <time>2017-10-08T09:25:41Z</time>
      </trkpt>
      <trkpt lat="37.8418893926" lon="-2.9828151595">
        <ele>1432.02</ele>
        <time>2017-10-08T09:25:47Z</time>
      </trkpt>
      <trkpt lat="37.8418868780" lon="-2.9828108009">
        <ele>1440.19</ele>
        <time>2017-10-08T09:25:48Z</time>
      </trkpt>
      <trkpt lat="37.8418843634" lon="-2.9828071129">
        <ele>1433.94</ele>
        <time>2017-10-08T09:25:49Z</time>
      </trkpt>
      <trkpt lat="37.8418852016" lon="-2.9828070290">
        <ele>1438.27</ele>
        <time>2017-10-08T09:25:50Z</time>
      </trkpt>
      <trkpt lat="37.8418962657" lon="-2.9828085378">
        <ele>1436.35</ele>
        <time>2017-10-08T09:25:53Z</time>
      </trkpt>
      <trkpt lat="37.8418923263" lon="-2.9828100465">
        <ele>1436.35</ele>
        <time>2017-10-08T09:26:07Z</time>
      </trkpt>
      <trkpt lat="37.8419051506" lon="-2.9828122258">
        <ele>1436.35</ele>
        <time>2017-10-08T09:26:20Z</time>
      </trkpt>
      <trkpt lat="37.8419152927" lon="-2.9828248825">
        <ele>1436.35</ele>
        <time>2017-10-08T09:26:36Z</time>
      </trkpt>
      <trkpt lat="37.8419155441" lon="-2.9828201886">
        <ele>1436.35</ele>
        <time>2017-10-08T09:27:01Z</time>
      </trkpt>
      <trkpt lat="37.8419162147" lon="-2.9828198534">
        <ele>1436.35</ele>
        <time>2017-10-08T09:27:23Z</time>
      </trkpt>
      <trkpt lat="37.8419199027" lon="-2.9828110524">
        <ele>1436.35</ele>
        <time>2017-10-08T09:27:49Z</time>
      </trkpt>
      <trkpt lat="37.8419140354" lon="-2.9828151595">
        <ele>1436.83</ele>
        <time>2017-10-08T09:28:11Z</time>
      </trkpt>
      <trkpt lat="37.8419055697" lon="-2.9828066938">
        <ele>1436.35</ele>
        <time>2017-10-08T09:28:30Z</time>
      </trkpt>
      <trkpt lat="37.8419116884" lon="-2.9828092083">
        <ele>1436.83</ele>
        <time>2017-10-08T09:28:50Z</time>
      </trkpt>
      <trkpt lat="37.8419178072" lon="-2.9828136507">
        <ele>1436.83</ele>
        <time>2017-10-08T09:29:09Z</time>
      </trkpt>
      <trkpt lat="37.8419168852" lon="-2.9828118905">
        <ele>1436.83</ele>
        <time>2017-10-08T09:29:24Z</time>
      </trkpt>
      <trkpt lat="37.8419161309" lon="-2.9828119744">
        <ele>1436.35</ele>
        <time>2017-10-08T09:29:37Z</time>
      </trkpt>
      <trkpt lat="37.8419145383" lon="-2.9828113876">
        <ele>1436.83</ele>
        <time>2017-10-08T09:29:49Z</time>
      </trkpt>
      <trkpt lat="37.8419191483" lon="-2.9828155786">
        <ele>1436.83</ele>
        <time>2017-10-08T09:30:03Z</time>
      </trkpt>
      <trkpt lat="37.8419157118" lon="-2.9828098789">
        <ele>1436.35</ele>
        <time>2017-10-08T09:30:15Z</time>
      </trkpt>
      <trkpt lat="37.8419211600" lon="-2.9828107171">
        <ele>1436.35</ele>
        <time>2017-10-08T09:30:24Z</time>
      </trkpt>
      <trkpt lat="37.8419212438" lon="-2.9828128126">
        <ele>1436.35</ele>
        <time>2017-10-08T09:30:41Z</time>
      </trkpt>
      <trkpt lat="37.8419208247" lon="-2.9828092922">
        <ele>1436.83</ele>
        <time>2017-10-08T09:30:50Z</time>
      </trkpt>
      <trkpt lat="37.8419311345" lon="-2.9827952944">
        <ele>1436.35</ele>
        <time>2017-10-08T09:31:00Z</time>
      </trkpt>
      <trkpt lat="37.8419414442" lon="-2.9827844817">
        <ele>1436.35</ele>
        <time>2017-10-08T09:31:01Z</time>
      </trkpt>
      <trkpt lat="37.8419570345" lon="-2.9827727471">
        <ele>1436.35</ele>
        <time>2017-10-08T09:31:02Z</time>
      </trkpt>
      <trkpt lat="37.8419774864" lon="-2.9827635270">
        <ele>1436.35</ele>
        <time>2017-10-08T09:31:03Z</time>
      </trkpt>
      <trkpt lat="37.8419990279" lon="-2.9827546421">
        <ele>1436.35</ele>
        <time>2017-10-08T09:31:04Z</time>
      </trkpt>
      <trkpt lat="37.8422040492" lon="-2.9826258123">
        <ele>1435.39</ele>
        <time>2017-10-08T09:31:12Z</time>
      </trkpt>
      <trkpt lat="37.8424892854" lon="-2.9825873394">
        <ele>1435.39</ele>
        <time>2017-10-08T09:31:21Z</time>
      </trkpt>
      <trkpt lat="37.8425991721" lon="-2.9825118184">
        <ele>1434.42</ele>
        <time>2017-10-08T09:31:24Z</time>
      </trkpt>
      <trkpt lat="37.8426336218" lon="-2.9824774526">
        <ele>1433.94</ele>
        <time>2017-10-08T09:31:25Z</time>
      </trkpt>
      <trkpt lat="37.8426631261" lon="-2.9824419133">
        <ele>1433.46</ele>
        <time>2017-10-08T09:31:26Z</time>
      </trkpt>
      <trkpt lat="37.8428341169" lon="-2.9822002631">
        <ele>1432.98</ele>
        <time>2017-10-08T09:31:35Z</time>
      </trkpt>
      <trkpt lat="37.8428347036" lon="-2.9821980000">
        <ele>1432.98</ele>
        <time>2017-10-08T09:31:51Z</time>
      </trkpt>
      <trkpt lat="37.8428313509" lon="-2.9821987543">
        <ele>1432.98</ele>
        <time>2017-10-08T09:32:08Z</time>
      </trkpt>
      <trkpt lat="37.8428523056" lon="-2.9821614549">
        <ele>1432.98</ele>
        <time>2017-10-08T09:32:18Z</time>
      </trkpt>
      <trkpt lat="37.8428593464" lon="-2.9821460322">
        <ele>1432.98</ele>
        <time>2017-10-08T09:32:19Z</time>
      </trkpt>
      <trkpt lat="37.8428652138" lon="-2.9821279272">
        <ele>1432.98</ele>
        <time>2017-10-08T09:32:20Z</time>
      </trkpt>
      <trkpt lat="37.8428748529" lon="-2.9821058828">
        <ele>1432.98</ele>
        <time>2017-10-08T09:32:21Z</time>
      </trkpt>
      <trkpt lat="37.8430641163" lon="-2.9818431102">
        <ele>1432.50</ele>
        <time>2017-10-08T09:32:29Z</time>
      </trkpt>
      <trkpt lat="37.8432528768" lon="-2.9817181360">
        <ele>1432.02</ele>
        <time>2017-10-08T09:32:34Z</time>
      </trkpt>
      <trkpt lat="37.8434374463" lon="-2.9815410264">
        <ele>1431.54</ele>
        <time>2017-10-08T09:32:39Z</time>
      </trkpt>
      <trkpt lat="37.8434759192" lon="-2.9814983625">
        <ele>1431.54</ele>
        <time>2017-10-08T09:32:40Z</time>
      </trkpt>
      <trkpt lat="37.8435579780" lon="-2.9814182315">
        <ele>1431.54</ele>
        <time>2017-10-08T09:32:42Z</time>
      </trkpt>
      <trkpt lat="37.8438260313" lon="-2.9812016431">
        <ele>1431.54</ele>
        <time>2017-10-08T09:32:48Z</time>
      </trkpt>
      <trkpt lat="37.8438963555" lon="-2.9811136331">
        <ele>1431.54</ele>
        <time>2017-10-08T09:32:50Z</time>
      </trkpt>
      <trkpt lat="37.8439497482" lon="-2.9810139723">
        <ele>1432.02</ele>
        <time>2017-10-08T09:32:52Z</time>
      </trkpt>
      <trkpt lat="37.8439663444" lon="-2.9809558857">
        <ele>1432.02</ele>
        <time>2017-10-08T09:32:53Z</time>
      </trkpt>
      <trkpt lat="37.8439730499" lon="-2.9808950331">
        <ele>1432.02</ele>
        <time>2017-10-08T09:32:54Z</time>
      </trkpt>
      <trkpt lat="37.8439689428" lon="-2.9808315821">
        <ele>1431.54</ele>
        <time>2017-10-08T09:32:55Z</time>
      </trkpt>
      <trkpt lat="37.8439628240" lon="-2.9807662871">
        <ele>1432.02</ele>
        <time>2017-10-08T09:32:56Z</time>
      </trkpt>
      <trkpt lat="37.8439613990" lon="-2.9807010759">
        <ele>1431.54</ele>
        <time>2017-10-08T09:32:57Z</time>
      </trkpt>
      <trkpt lat="37.8439653385" lon="-2.9806433246">
        <ele>1431.06</ele>
        <time>2017-10-08T09:32:58Z</time>
      </trkpt>
      <trkpt lat="37.8439658415" lon="-2.9805896804">
        <ele>1431.06</ele>
        <time>2017-10-08T09:32:59Z</time>
      </trkpt>
      <trkpt lat="37.8439547773" lon="-2.9805372935">
        <ele>1431.06</ele>
        <time>2017-10-08T09:33:00Z</time>
      </trkpt>
      <trkpt lat="37.8439374268" lon="-2.9804870859">
        <ele>1430.58</ele>
        <time>2017-10-08T09:33:01Z</time>
      </trkpt>
      <trkpt lat="37.8439131193" lon="-2.9804387223">
        <ele>1430.58</ele>
        <time>2017-10-08T09:33:02Z</time>
      </trkpt>
      <trkpt lat="37.8438913263" lon="-2.9803859163">
        <ele>1430.58</ele>
        <time>2017-10-08T09:33:03Z</time>
      </trkpt>
      <trkpt lat="37.8438731376" lon="-2.9803270753">
        <ele>1430.10</ele>
        <time>2017-10-08T09:33:04Z</time>
      </trkpt>
      <trkpt lat="37.8438164759" lon="-2.9801440146">
        <ele>1429.62</ele>
        <time>2017-10-08T09:33:07Z</time>
      </trkpt>
      <trkpt lat="37.8438049927" lon="-2.9800770432">
        <ele>1429.14</ele>
        <time>2017-10-08T09:33:08Z</time>
      </trkpt>
      <trkpt lat="37.8438012209" lon="-2.9800061323">
        <ele>1428.66</ele>
        <time>2017-10-08T09:33:09Z</time>
      </trkpt>
      <trkpt lat="37.8438069206" lon="-2.9799380712">
        <ele>1428.66</ele>
        <time>2017-10-08T09:33:10Z</time>
      </trkpt>
      <trkpt lat="37.8438201640" lon="-2.9798765481">
        <ele>1428.66</ele>
        <time>2017-10-08T09:33:11Z</time>
      </trkpt>
      <trkpt lat="37.8438546136" lon="-2.9798301123">
        <ele>1428.66</ele>
        <time>2017-10-08T09:33:12Z</time>
      </trkpt>
      <trkpt lat="37.8438982833" lon="-2.9797899630">
        <ele>1428.66</ele>
        <time>2017-10-08T09:33:13Z</time>
      </trkpt>
      <trkpt lat="37.8439426236" lon="-2.9797505680">
        <ele>1428.18</ele>
        <time>2017-10-08T09:33:14Z</time>
      </trkpt>
      <trkpt lat="37.8439863771" lon="-2.9797109216">
        <ele>1428.18</ele>
        <time>2017-10-08T09:33:15Z</time>
      </trkpt>
      <trkpt lat="37.8443351481" lon="-2.9794210754">
        <ele>1427.21</ele>
        <time>2017-10-08T09:33:22Z</time>
      </trkpt>
      <trkpt lat="37.8444139380" lon="-2.9793334007">
        <ele>1427.21</ele>
        <time>2017-10-08T09:33:24Z</time>
      </trkpt>
      <trkpt lat="37.8444375750" lon="-2.9792780802">
        <ele>1427.21</ele>
        <time>2017-10-08T09:33:25Z</time>
      </trkpt>
      <trkpt lat="37.8444450349" lon="-2.9792128690">
        <ele>1427.21</ele>
        <time>2017-10-08T09:33:26Z</time>
      </trkpt>
      <trkpt lat="37.8444403410" lon="-2.9791470710">
        <ele>1427.21</ele>
        <time>2017-10-08T09:33:27Z</time>
      </trkpt>
      <trkpt lat="37.8444231581" lon="-2.9790832847">
        <ele>1427.21</ele>
        <time>2017-10-08T09:33:28Z</time>
      </trkpt>
      <trkpt lat="37.8443931509" lon="-2.9790229350">
        <ele>1426.73</ele>
        <time>2017-10-08T09:33:29Z</time>
      </trkpt>
      <trkpt lat="37.8443511575" lon="-2.9789694585">
        <ele>1426.73</ele>
        <time>2017-10-08T09:33:30Z</time>
      </trkpt>
      <trkpt lat="37.8443026263" lon="-2.9789238609">
        <ele>1426.25</ele>
        <time>2017-10-08T09:33:31Z</time>
      </trkpt>
      <trkpt lat="37.8442489821" lon="-2.9788848013">
        <ele>1426.25</ele>
        <time>2017-10-08T09:33:32Z</time>
      </trkpt>
      <trkpt lat="37.8441957571" lon="-2.9788517766">
        <ele>1426.25</ele>
        <time>2017-10-08T09:33:33Z</time>
      </trkpt>
      <trkpt lat="37.8441467229" lon="-2.9788232781">
        <ele>1425.77</ele>
        <time>2017-10-08T09:33:34Z</time>
      </trkpt>
      <trkpt lat="37.8439334035" lon="-2.9787131399">
        <ele>1425.29</ele>
        <time>2017-10-08T09:33:38Z</time>
      </trkpt>
      <trkpt lat="37.8438202478" lon="-2.9786408879">
        <ele>1424.81</ele>
        <time>2017-10-08T09:33:40Z</time>
      </trkpt>
      <trkpt lat="37.8437018115" lon="-2.9785863217">
        <ele>1424.81</ele>
        <time>2017-10-08T09:33:42Z</time>
      </trkpt>
      <trkpt lat="37.8434773441" lon="-2.9784953780">
        <ele>1423.37</ele>
        <time>2017-10-08T09:33:46Z</time>
      </trkpt>
      <trkpt lat="37.8434309084" lon="-2.9784645326">
        <ele>1423.37</ele>
        <time>2017-10-08T09:33:47Z</time>
      </trkpt>
      <trkpt lat="37.8432255518" lon="-2.9783311766">
        <ele>1421.45</ele>
        <time>2017-10-08T09:33:51Z</time>
      </trkpt>
      <trkpt lat="37.8431844804" lon="-2.9782919493">
        <ele>1421.45</ele>
        <time>2017-10-08T09:33:52Z</time>
      </trkpt>
      <trkpt lat="37.8431426547" lon="-2.9782579187">
        <ele>1420.49</ele>
        <time>2017-10-08T09:33:53Z</time>
      </trkpt>
      <trkpt lat="37.8430425748" lon="-2.9782091361">
        <ele>1420.00</ele>
        <time>2017-10-08T09:33:55Z</time>
      </trkpt>
      <trkpt lat="37.8429428302" lon="-2.9781672265">
        <ele>1419.04</ele>
        <time>2017-10-08T09:33:57Z</time>
      </trkpt>
      <trkpt lat="37.8428914491" lon="-2.9781375546">
        <ele>1418.56</ele>
        <time>2017-10-08T09:33:58Z</time>
      </trkpt>
      <trkpt lat="37.8427469451" lon="-2.9780493770">
        <ele>1417.12</ele>
        <time>2017-10-08T09:34:01Z</time>
      </trkpt>
      <trkpt lat="37.8424648102" lon="-2.9777737800">
        <ele>1414.72</ele>
        <time>2017-10-08T09:34:08Z</time>
      </trkpt>
      <trkpt lat="37.8421789035" lon="-2.9774192255">
        <ele>1411.83</ele>
        <time>2017-10-08T09:34:15Z</time>
      </trkpt>
      <trkpt lat="37.8421373293" lon="-2.9773913976">
        <ele>1411.35</ele>
        <time>2017-10-08T09:34:16Z</time>
      </trkpt>
      <trkpt lat="37.8420919832" lon="-2.9773810040">
        <ele>1410.87</ele>
        <time>2017-10-08T09:34:17Z</time>
      </trkpt>
      <trkpt lat="37.8418337367" lon="-2.9773702752">
        <ele>1407.99</ele>
        <time>2017-10-08T09:34:22Z</time>
      </trkpt>
      <trkpt lat="37.8417359199" lon="-2.9773711134">
        <ele>1407.51</ele>
        <time>2017-10-08T09:34:24Z</time>
      </trkpt>
      <trkpt lat="37.8416830301" lon="-2.9773599654">
        <ele>1407.03</ele>
        <time>2017-10-08T09:34:25Z</time>
      </trkpt>
      <trkpt lat="37.8416291345" lon="-2.9773468059">
        <ele>1406.55</ele>
        <time>2017-10-08T09:34:26Z</time>
      </trkpt>
      <trkpt lat="37.8415716346" lon="-2.9773284495">
        <ele>1406.07</ele>
        <time>2017-10-08T09:34:27Z</time>
      </trkpt>
      <trkpt lat="37.8415117040" lon="-2.9773079976">
        <ele>1405.58</ele>
        <time>2017-10-08T09:34:28Z</time>
      </trkpt>
      <trkpt lat="37.8414502647" lon="-2.9772970174">
        <ele>1405.10</ele>
        <time>2017-10-08T09:34:29Z</time>
      </trkpt>
      <trkpt lat="37.8413889930" lon="-2.9772897251">
        <ele>1404.62</ele>
        <time>2017-10-08T09:34:30Z</time>
      </trkpt>
      <trkpt lat="37.8410533816" lon="-2.9772545211">
        <ele>1401.26</ele>
        <time>2017-10-08T09:34:37Z</time>
      </trkpt>
      <trkpt lat="37.8409479372" lon="-2.9772483185">
        <ele>1400.78</ele>
        <time>2017-10-08T09:34:39Z</time>
      </trkpt>
      <trkpt lat="37.8408983164" lon="-2.9772495758">
        <ele>1400.30</ele>
        <time>2017-10-08T09:34:40Z</time>
      </trkpt>
      <trkpt lat="37.8407301754" lon="-2.9772641603">
        <ele>1398.37</ele>
        <time>2017-10-08T09:34:43Z</time>
      </trkpt>
      <trkpt lat="37.8403041232" lon="-2.9772994481">
        <ele>1395.49</ele>
        <time>2017-10-08T09:34:50Z</time>
      </trkpt>
      <trkpt lat="37.8402472101" lon="-2.9772749729">
        <ele>1395.01</ele>
        <time>2017-10-08T09:34:51Z</time>
      </trkpt>
      <trkpt lat="37.8401935659" lon="-2.9772346560">
        <ele>1394.53</ele>
        <time>2017-10-08T09:34:52Z</time>
      </trkpt>
      <trkpt lat="37.8401446994" lon="-2.9771848675">
        <ele>1394.05</ele>
        <time>2017-10-08T09:34:53Z</time>
      </trkpt>
      <trkpt lat="37.8400952462" lon="-2.9771297984">
        <ele>1393.57</ele>
        <time>2017-10-08T09:34:54Z</time>
      </trkpt>
      <trkpt lat="37.8397100978" lon="-2.9767144751">
        <ele>1390.20</ele>
        <time>2017-10-08T09:35:01Z</time>
      </trkpt>
      <trkpt lat="37.8396510892" lon="-2.9766538739">
        <ele>1389.72</ele>
        <time>2017-10-08T09:35:02Z</time>
      </trkpt>
      <trkpt lat="37.8394970298" lon="-2.9764966294">
        <ele>1388.28</ele>
        <time>2017-10-08T09:35:05Z</time>
      </trkpt>
      <trkpt lat="37.8393904958" lon="-2.9764318373">
        <ele>1386.84</ele>
        <time>2017-10-08T09:35:07Z</time>
      </trkpt>
      <trkpt lat="37.8393421322" lon="-2.9764153250">
        <ele>1386.36</ele>
        <time>2017-10-08T09:35:08Z</time>
      </trkpt>
      <trkpt lat="37.8392982949" lon="-2.9764034227">
        <ele>1386.36</ele>
        <time>2017-10-08T09:35:09Z</time>
      </trkpt>
      <trkpt lat="37.8392568044" lon="-2.9763935320">
        <ele>1385.88</ele>
        <time>2017-10-08T09:35:10Z</time>
      </trkpt>
      <trkpt lat="37.8392147273" lon="-2.9763883352">
        <ele>1385.40</ele>
        <time>2017-10-08T09:35:11Z</time>
      </trkpt>
      <trkpt lat="37.8391702194" lon="-2.9763911851">
        <ele>1384.92</ele>
        <time>2017-10-08T09:35:12Z</time>
      </trkpt>
      <trkpt lat="37.8391227778" lon="-2.9764048476">
        <ele>1384.92</ele>
        <time>2017-10-08T09:35:13Z</time>
      </trkpt>
      <trkpt lat="37.8390734922" lon="-2.9764282331">
        <ele>1384.44</ele>
        <time>2017-10-08T09:35:14Z</time>
      </trkpt>
      <trkpt lat="37.8390220273" lon="-2.9764560610">
        <ele>1383.96</ele>
        <time>2017-10-08T09:35:15Z</time>
      </trkpt>
      <trkpt lat="37.8389154933" lon="-2.9765073583">
        <ele>1383.47</ele>
        <time>2017-10-08T09:35:17Z</time>
      </trkpt>
      <trkpt lat="37.8386708256" lon="-2.9765781853">
        <ele>1381.07</ele>
        <time>2017-10-08T09:35:21Z</time>
      </trkpt>
      <trkpt lat="37.8386080451" lon="-2.9765781853">
        <ele>1381.07</ele>
        <time>2017-10-08T09:35:22Z</time>
      </trkpt>
      <trkpt lat="37.8382191248" lon="-2.9765395448">
        <ele>1377.71</ele>
        <time>2017-10-08T09:35:28Z</time>
      </trkpt>
      <trkpt lat="37.8381684981" lon="-2.9765492678">
        <ele>1378.19</ele>
        <time>2017-10-08T09:35:29Z</time>
      </trkpt>
      <trkpt lat="37.8381232359" lon="-2.9765736591">
        <ele>1377.23</ele>
        <time>2017-10-08T09:35:30Z</time>
      </trkpt>
      <trkpt lat="37.8380818292" lon="-2.9766149819">
        <ele>1376.75</ele>
        <time>2017-10-08T09:35:31Z</time>
      </trkpt>
      <trkpt lat="37.8380431887" lon="-2.9766673688">
        <ele>1376.26</ele>
        <time>2017-10-08T09:35:32Z</time>
      </trkpt>
      <trkpt lat="37.8379734512" lon="-2.9767780099">
        <ele>1375.30</ele>
        <time>2017-10-08T09:35:34Z</time>
      </trkpt>
      <trkpt lat="37.8379120957" lon="-2.9769049119">
        <ele>1373.38</ele>
        <time>2017-10-08T09:35:36Z</time>
      </trkpt>
      <trkpt lat="37.8378868662" lon="-2.9769650102">
        <ele>1373.38</ele>
        <time>2017-10-08T09:35:37Z</time>
      </trkpt>
      <trkpt lat="37.8378566075" lon="-2.9770154692">
        <ele>1372.90</ele>
        <time>2017-10-08T09:35:38Z</time>
      </trkpt>
      <trkpt lat="37.8378164582" lon="-2.9770509247">
        <ele>1372.42</ele>
        <time>2017-10-08T09:35:39Z</time>
      </trkpt>
      <trkpt lat="37.8377686813" lon="-2.9770709574">
        <ele>1371.94</ele>
        <time>2017-10-08T09:35:40Z</time>
      </trkpt>
      <trkpt lat="37.8377145343" lon="-2.9770723823">
        <ele>1371.94</ele>
        <time>2017-10-08T09:35:41Z</time>
      </trkpt>
      <trkpt lat="37.8376637399" lon="-2.9770510923">
        <ele>1371.46</ele>
        <time>2017-10-08T09:35:42Z</time>
      </trkpt>
      <trkpt lat="37.8376202378" lon="-2.9770163912">
        <ele>1370.98</ele>
        <time>2017-10-08T09:35:43Z</time>
      </trkpt>
      <trkpt lat="37.8375826869" lon="-2.9769712966">
        <ele>1370.98</ele>
        <time>2017-10-08T09:35:44Z</time>
      </trkpt>
      <trkpt lat="37.8375566192" lon="-2.9769142997">
        <ele>1370.98</ele>
        <time>2017-10-08T09:35:45Z</time>
      </trkpt>
      <trkpt lat="37.8375446331" lon="-2.9768531118">
        <ele>1370.50</ele>
        <time>2017-10-08T09:35:46Z</time>
      </trkpt>
      <trkpt lat="37.8375458065" lon="-2.9767851345">
        <ele>1370.50</ele>
        <time>2017-10-08T09:35:47Z</time>
      </trkpt>
      <trkpt lat="37.8375544399" lon="-2.9767212644">
        <ele>1370.02</ele>
        <time>2017-10-08T09:35:48Z</time>
      </trkpt>
      <trkpt lat="37.8375698626" lon="-2.9766669497">
        <ele>1370.02</ele>
        <time>2017-10-08T09:35:49Z</time>
      </trkpt>
      <trkpt lat="37.8376305476" lon="-2.9765001498">
        <ele>1369.54</ele>
        <time>2017-10-08T09:35:52Z</time>
      </trkpt>
      <trkpt lat="37.8376401868" lon="-2.9764336813">
        <ele>1369.54</ele>
        <time>2017-10-08T09:35:53Z</time>
      </trkpt>
      <trkpt lat="37.8376404382" lon="-2.9763558973">
        <ele>1369.05</ele>
        <time>2017-10-08T09:35:54Z</time>
      </trkpt>
      <trkpt lat="37.8376246803" lon="-2.9762090463">
        <ele>1368.09</ele>
        <time>2017-10-08T09:35:56Z</time>
      </trkpt>
      <trkpt lat="37.8376118559" lon="-2.9761530552">
        <ele>1367.61</ele>
        <time>2017-10-08T09:35:57Z</time>
      </trkpt>
      <trkpt lat="37.8375991993" lon="-2.9760927055">
        <ele>1367.13</ele>
        <time>2017-10-08T09:35:58Z</time>
      </trkpt>
      <trkpt lat="37.8375957627" lon="-2.9760288354">
        <ele>1367.13</ele>
        <time>2017-10-08T09:35:59Z</time>
      </trkpt>
      <trkpt lat="37.8376055695" lon="-2.9759691563">
        <ele>1366.17</ele>
        <time>2017-10-08T09:36:00Z</time>
      </trkpt>
      <trkpt lat="37.8376236744" lon="-2.9759176914">
        <ele>1366.17</ele>
        <time>2017-10-08T09:36:01Z</time>
      </trkpt>
      <trkpt lat="37.8376458026" lon="-2.9758709203">
        <ele>1366.17</ele>
        <time>2017-10-08T09:36:02Z</time>
      </trkpt>
      <trkpt lat="37.8376751393" lon="-2.9758371413">
        <ele>1365.69</ele>
        <time>2017-10-08T09:36:03Z</time>
      </trkpt>
      <trkpt lat="37.8377082478" lon="-2.9758168571">
        <ele>1365.69</ele>
        <time>2017-10-08T09:36:04Z</time>
      </trkpt>
      <trkpt lat="37.8377499059" lon="-2.9758016020">
        <ele>1365.21</ele>
        <time>2017-10-08T09:36:05Z</time>
      </trkpt>
      <trkpt lat="37.8378024604" lon="-2.9757912084">
        <ele>1365.21</ele>
        <time>2017-10-08T09:36:06Z</time>
      </trkpt>
      <trkpt lat="37.8378606308" lon="-2.9757852573">
        <ele>1364.73</ele>
        <time>2017-10-08T09:36:07Z</time>
      </trkpt>
      <trkpt lat="37.8382356372" lon="-2.9757872690">
        <ele>1363.29</ele>
        <time>2017-10-08T09:36:14Z</time>
      </trkpt>
      <trkpt lat="37.8382897843" lon="-2.9757802282">
        <ele>1363.29</ele>
        <time>2017-10-08T09:36:15Z</time>
      </trkpt>
      <trkpt lat="37.8383435123" lon="-2.9757596925">
        <ele>1363.29</ele>
        <time>2017-10-08T09:36:16Z</time>
      </trkpt>
      <trkpt lat="37.8383913729" lon="-2.9757311940">
        <ele>1362.81</ele>
        <time>2017-10-08T09:36:17Z</time>
      </trkpt>
      <trkpt lat="37.8384322766" lon="-2.9757063836">
        <ele>1362.81</ele>
        <time>2017-10-08T09:36:18Z</time>
      </trkpt>
      <trkpt lat="37.8384717554" lon="-2.9756850097">
        <ele>1362.81</ele>
        <time>2017-10-08T09:36:19Z</time>
      </trkpt>
      <trkpt lat="37.8385067917" lon="-2.9756565951">
        <ele>1362.81</ele>
        <time>2017-10-08T09:36:20Z</time>
      </trkpt>
      <trkpt lat="37.8386735916" lon="-2.9755148571">
        <ele>1364.25</ele>
        <time>2017-10-08T09:36:28Z</time>
      </trkpt>
      <trkpt lat="37.8386884276" lon="-2.9754970036">
        <ele>1364.25</ele>
        <time>2017-10-08T09:36:29Z</time>
      </trkpt>
      <trkpt lat="37.8388337698" lon="-2.9753046390">
        <ele>1365.21</ele>
        <time>2017-10-08T09:36:38Z</time>
      </trkpt>
      <trkpt lat="37.8389523737" lon="-2.9751237575">
        <ele>1366.65</ele>
        <time>2017-10-08T09:36:46Z</time>
      </trkpt>
      <trkpt lat="37.8389591631" lon="-2.9750997014">
        <ele>1366.65</ele>
        <time>2017-10-08T09:36:47Z</time>
      </trkpt>
      <trkpt lat="37.8390037548" lon="-2.9748921655">
        <ele>1367.61</ele>
        <time>2017-10-08T09:36:56Z</time>
      </trkpt>
      <trkpt lat="37.8390135616" lon="-2.9746546224">
        <ele>1368.57</ele>
        <time>2017-10-08T09:37:06Z</time>
      </trkpt>
      <trkpt lat="37.8389998991" lon="-2.9745898303">
        <ele>1369.05</ele>
        <time>2017-10-08T09:37:09Z</time>
      </trkpt>
      <trkpt lat="37.8390195128" lon="-2.9744141456">
        <ele>1370.02</ele>
        <time>2017-10-08T09:37:17Z</time>
      </trkpt>
      <trkpt lat="37.8390311636" lon="-2.9743201844">
        <ele>1370.50</ele>
        <time>2017-10-08T09:37:23Z</time>
      </trkpt>
      <trkpt lat="37.8390287329" lon="-2.9742944520">
        <ele>1370.50</ele>
        <time>2017-10-08T09:37:31Z</time>
      </trkpt>
      <trkpt lat="37.8389971331" lon="-2.9742620979">
        <ele>1370.50</ele>
        <time>2017-10-08T09:37:39Z</time>
      </trkpt>
      <trkpt lat="37.8389901761" lon="-2.9742512852">
        <ele>1370.02</ele>
        <time>2017-10-08T09:37:49Z</time>
      </trkpt>
      <trkpt lat="37.8390641883" lon="-2.9743199330">
        <ele>1370.02</ele>
        <time>2017-10-08T09:40:46Z</time>
      </trkpt>
      <trkpt lat="37.8390511964" lon="-2.9743127245">
        <ele>1370.02</ele>
        <time>2017-10-08T09:40:47Z</time>
      </trkpt>
      <trkpt lat="37.8391148988" lon="-2.9742436577">
        <ele>1370.98</ele>
        <time>2017-10-08T09:41:01Z</time>
      </trkpt>
      <trkpt lat="37.8391827084" lon="-2.9742594156">
        <ele>1370.98</ele>
        <time>2017-10-08T09:41:15Z</time>
      </trkpt>
      <trkpt lat="37.8391105402" lon="-2.9742482677">
        <ele>1371.46</ele>
        <time>2017-10-08T09:41:31Z</time>
      </trkpt>
      <trkpt lat="37.8390605003" lon="-2.9742522072">
        <ele>1371.46</ele>
        <time>2017-10-08T09:41:42Z</time>
      </trkpt>
      <trkpt lat="37.8390304931" lon="-2.9742986429">
        <ele>1371.46</ele>
        <time>2017-10-08T09:41:53Z</time>
      </trkpt>
      <trkpt lat="37.8390482627" lon="-2.9743182566">
        <ele>1370.98</ele>
        <time>2017-10-08T09:42:01Z</time>
      </trkpt>
      <trkpt lat="37.8390222788" lon="-2.9743570648">
        <ele>1370.02</ele>
        <time>2017-10-08T09:42:13Z</time>
      </trkpt>
      <trkpt lat="37.8390361089" lon="-2.9744113795">
        <ele>1370.98</ele>
        <time>2017-10-08T09:42:27Z</time>
      </trkpt>
      <trkpt lat="37.8390277270" lon="-2.9744252097">
        <ele>1371.46</ele>
        <time>2017-10-08T09:42:44Z</time>
      </trkpt>
      <trkpt lat="37.8390279785" lon="-2.9744381178">
        <ele>1370.50</ele>
        <time>2017-10-08T09:42:57Z</time>
      </trkpt>
      <trkpt lat="37.8390351031" lon="-2.9743972141">
        <ele>1370.98</ele>
        <time>2017-10-08T09:43:07Z</time>
      </trkpt>
      <trkpt lat="37.8390318342" lon="-2.9743941966">
        <ele>1370.98</ele>
        <time>2017-10-08T09:43:17Z</time>
      </trkpt>
      <trkpt lat="37.8390325047" lon="-2.9743857309">
        <ele>1370.98</ele>
        <time>2017-10-08T09:43:38Z</time>
      </trkpt>
      <trkpt lat="37.8390302416" lon="-2.9743935261">
        <ele>1370.98</ele>
        <time>2017-10-08T09:44:06Z</time>
      </trkpt>
      <trkpt lat="37.8390283138" lon="-2.9743919335">
        <ele>1370.98</ele>
        <time>2017-10-08T09:44:28Z</time>
      </trkpt>
      <trkpt lat="37.8390289005" lon="-2.9743859824">
        <ele>1370.98</ele>
        <time>2017-10-08T09:44:52Z</time>
      </trkpt>
      <trkpt lat="37.8390304931" lon="-2.9743900057">
        <ele>1370.98</ele>
        <time>2017-10-08T09:45:13Z</time>
      </trkpt>
      <trkpt lat="37.8390353546" lon="-2.9743751697">
        <ele>1370.98</ele>
        <time>2017-10-08T09:45:32Z</time>
      </trkpt>
      <trkpt lat="37.8390377853" lon="-2.9743890837">
        <ele>1370.50</ele>
        <time>2017-10-08T09:45:51Z</time>
      </trkpt>
      <trkpt lat="37.8390360251" lon="-2.9743901733">
        <ele>1370.50</ele>
        <time>2017-10-08T09:46:11Z</time>
      </trkpt>
      <trkpt lat="37.8390358575" lon="-2.9744053446">
        <ele>1370.50</ele>
        <time>2017-10-08T09:46:34Z</time>
      </trkpt>
      <trkpt lat="37.8390361089" lon="-2.9744071048">
        <ele>1370.50</ele>
        <time>2017-10-08T09:46:39Z</time>
      </trkpt>
      <trkpt lat="37.8390078619" lon="-2.9744262993">
        <ele>1370.50</ele>
        <time>2017-10-08T09:46:49Z</time>
      </trkpt>
      <trkpt lat="37.8390055150" lon="-2.9744267184">
        <ele>1370.50</ele>
        <time>2017-10-08T09:47:08Z</time>
      </trkpt>
      <trkpt lat="37.8390071914" lon="-2.9744285624">
        <ele>1370.50</ele>
        <time>2017-10-08T09:47:12Z</time>
      </trkpt>
      <trkpt lat="37.8389481828" lon="-2.9745680373">
        <ele>1369.05</ele>
        <time>2017-10-08T09:47:18Z</time>
      </trkpt>
      <trkpt lat="37.8389517870" lon="-2.9746918380">
        <ele>1368.57</ele>
        <time>2017-10-08T09:47:21Z</time>
      </trkpt>
      <trkpt lat="37.8389389627" lon="-2.9750188161">
        <ele>1367.13</ele>
        <time>2017-10-08T09:47:30Z</time>
      </trkpt>
      <trkpt lat="37.8389364481" lon="-2.9751337320">
        <ele>1366.17</ele>
        <time>2017-10-08T09:47:36Z</time>
      </trkpt>
      <trkpt lat="37.8388477676" lon="-2.9752988555">
        <ele>1362.81</ele>
        <time>2017-10-08T09:47:43Z</time>
      </trkpt>
      <trkpt lat="37.8388299979" lon="-2.9753201455">
        <ele>1366.65</ele>
        <time>2017-10-08T09:47:44Z</time>
      </trkpt>
      <trkpt lat="37.8387734201" lon="-2.9754036292">
        <ele>1364.25</ele>
        <time>2017-10-08T09:47:47Z</time>
      </trkpt>
      <trkpt lat="37.8385997470" lon="-2.9755980894">
        <ele>1363.29</ele>
        <time>2017-10-08T09:47:54Z</time>
      </trkpt>
      <trkpt lat="37.8384821489" lon="-2.9758046195">
        <ele>1362.33</ele>
        <time>2017-10-08T09:48:02Z</time>
      </trkpt>
      <trkpt lat="37.8385380562" lon="-2.9759621993">
        <ele>1361.84</ele>
        <time>2017-10-08T09:48:07Z</time>
      </trkpt>
      <trkpt lat="37.8386463504" lon="-2.9760467727">
        <ele>1361.36</ele>
        <time>2017-10-08T09:48:12Z</time>
      </trkpt>
      <trkpt lat="37.8388088755" lon="-2.9759878479">
        <ele>1361.36</ele>
        <time>2017-10-08T09:48:18Z</time>
      </trkpt>
      <trkpt lat="37.8389884997" lon="-2.9759024363">
        <ele>1360.40</ele>
        <time>2017-10-08T09:48:25Z</time>
      </trkpt>
      <trkpt lat="37.8390351031" lon="-2.9758762009">
        <ele>1358.00</ele>
        <time>2017-10-08T09:48:29Z</time>
      </trkpt>
      <trkpt lat="37.8390386235" lon="-2.9758730996">
        <ele>1360.40</ele>
        <time>2017-10-08T09:48:30Z</time>
      </trkpt>
      <trkpt lat="37.8390515316" lon="-2.9758608621">
        <ele>1362.33</ele>
        <time>2017-10-08T09:48:34Z</time>
      </trkpt>
      <trkpt lat="37.8390501067" lon="-2.9758768715">
        <ele>1363.77</ele>
        <time>2017-10-08T09:48:35Z</time>
      </trkpt>
      <trkpt lat="37.8390351031" lon="-2.9758829065">
        <ele>1360.40</ele>
        <time>2017-10-08T09:48:36Z</time>
      </trkpt>
      <trkpt lat="37.8390226979" lon="-2.9758722614">
        <ele>1360.40</ele>
        <time>2017-10-08T09:48:37Z</time>
      </trkpt>
      <trkpt lat="37.8390252125" lon="-2.9758953117">
        <ele>1359.92</ele>
        <time>2017-10-08T09:48:52Z</time>
      </trkpt>
      <trkpt lat="37.8390480112" lon="-2.9759192839">
        <ele>1359.92</ele>
        <time>2017-10-08T09:49:08Z</time>
      </trkpt>
      <trkpt lat="37.8390406352" lon="-2.9759069625">
        <ele>1359.92</ele>
        <time>2017-10-08T09:49:27Z</time>
      </trkpt>
      <trkpt lat="37.8390572313" lon="-2.9759140871">
        <ele>1360.40</ele>
        <time>2017-10-08T09:49:47Z</time>
      </trkpt>
      <trkpt lat="37.8390540462" lon="-2.9759086389">
        <ele>1360.40</ele>
        <time>2017-10-08T09:50:05Z</time>
      </trkpt>
      <trkpt lat="37.8390547168" lon="-2.9759067111">
        <ele>1359.92</ele>
        <time>2017-10-08T09:50:24Z</time>
      </trkpt>
      <trkpt lat="37.8390354384" lon="-2.9758783802">
        <ele>1359.92</ele>
        <time>2017-10-08T09:50:44Z</time>
      </trkpt>
      <trkpt lat="37.8390310798" lon="-2.9758559167">
        <ele>1359.92</ele>
        <time>2017-10-08T09:51:10Z</time>
      </trkpt>
      <trkpt lat="37.8390323371" lon="-2.9758551624">
        <ele>1359.92</ele>
        <time>2017-10-08T09:51:29Z</time>
      </trkpt>
      <trkpt lat="37.8390397970" lon="-2.9758687411">
        <ele>1359.92</ele>
        <time>2017-10-08T09:51:45Z</time>
      </trkpt>
      <trkpt lat="37.8390377015" lon="-2.9758679029">
        <ele>1359.92</ele>
        <time>2017-10-08T09:52:06Z</time>
      </trkpt>
      <trkpt lat="37.8390408866" lon="-2.9758824036">
        <ele>1359.92</ele>
        <time>2017-10-08T09:52:23Z</time>
      </trkpt>
      <trkpt lat="37.8390439879" lon="-2.9758876842">
        <ele>1359.92</ele>
        <time>2017-10-08T09:52:39Z</time>
      </trkpt>
      <trkpt lat="37.8390430659" lon="-2.9758899473">
        <ele>1360.40</ele>
        <time>2017-10-08T09:52:49Z</time>
      </trkpt>
      <trkpt lat="37.8390774317" lon="-2.9758529831">
        <ele>1360.40</ele>
        <time>2017-10-08T09:53:02Z</time>
      </trkpt>
      <trkpt lat="37.8391024098" lon="-2.9758231435">
        <ele>1359.92</ele>
        <time>2017-10-08T09:53:04Z</time>
      </trkpt>
      <trkpt lat="37.8392581455" lon="-2.9757922143">
        <ele>1359.92</ele>
        <time>2017-10-08T09:53:13Z</time>
      </trkpt>
      <trkpt lat="37.8393080179" lon="-2.9758225568">
        <ele>1359.44</ele>
        <time>2017-10-08T09:53:17Z</time>
      </trkpt>
      <trkpt lat="37.8395622410" lon="-2.9758935515">
        <ele>1358.48</ele>
        <time>2017-10-08T09:53:27Z</time>
      </trkpt>
      <trkpt lat="37.8398191463" lon="-2.9758786317">
        <ele>1358.00</ele>
        <time>2017-10-08T09:53:35Z</time>
      </trkpt>
      <trkpt lat="37.8398488183" lon="-2.9758440144">
        <ele>1358.00</ele>
        <time>2017-10-08T09:53:36Z</time>
      </trkpt>
      <trkpt lat="37.8398667555" lon="-2.9758053739">
        <ele>1357.52</ele>
        <time>2017-10-08T09:53:37Z</time>
      </trkpt>
      <trkpt lat="37.8399214894" lon="-2.9755754583">
        <ele>1357.52</ele>
        <time>2017-10-08T09:53:43Z</time>
      </trkpt>
      <trkpt lat="37.8399524186" lon="-2.9754756298">
        <ele>1357.52</ele>
        <time>2017-10-08T09:53:46Z</time>
      </trkpt>
      <trkpt lat="37.8399682604" lon="-2.9754478857">
        <ele>1357.52</ele>
        <time>2017-10-08T09:53:47Z</time>
      </trkpt>
      <trkpt lat="37.8399837669" lon="-2.9754231591">
        <ele>1357.52</ele>
        <time>2017-10-08T09:53:48Z</time>
      </trkpt>
      <trkpt lat="37.8400016204" lon="-2.9754064791">
        <ele>1357.52</ele>
        <time>2017-10-08T09:53:49Z</time>
      </trkpt>
      <trkpt lat="37.8400190547" lon="-2.9753929004">
        <ele>1357.52</ele>
        <time>2017-10-08T09:53:50Z</time>
      </trkpt>
      <trkpt lat="37.8400392551" lon="-2.9753832612">
        <ele>1357.52</ele>
        <time>2017-10-08T09:53:51Z</time>
      </trkpt>
      <trkpt lat="37.8400633950" lon="-2.9753778130">
        <ele>1358.00</ele>
        <time>2017-10-08T09:53:52Z</time>
      </trkpt>
      <trkpt lat="37.8402686678" lon="-2.9753819201">
        <ele>1359.44</ele>
        <time>2017-10-08T09:54:02Z</time>
      </trkpt>
      <trkpt lat="37.8403492179" lon="-2.9753873684">
        <ele>1359.44</ele>
        <time>2017-10-08T09:54:10Z</time>
      </trkpt>
      <trkpt lat="37.8403876908" lon="-2.9753908049">
        <ele>1360.40</ele>
        <time>2017-10-08T09:54:16Z</time>
      </trkpt>
      <trkpt lat="37.8403980006" lon="-2.9753979295">
        <ele>1360.88</ele>
        <time>2017-10-08T09:54:34Z</time>
      </trkpt>
      <trkpt lat="37.8403831646" lon="-2.9754155315">
        <ele>1360.88</ele>
        <time>2017-10-08T09:54:52Z</time>
      </trkpt>
      <trkpt lat="37.8403665684" lon="-2.9754421860">
        <ele>1360.88</ele>
        <time>2017-10-08T09:55:14Z</time>
      </trkpt>
      <trkpt lat="37.8403920494" lon="-2.9754521605">
        <ele>1360.88</ele>
        <time>2017-10-08T09:55:33Z</time>
      </trkpt>
      <trkpt lat="37.8404277563" lon="-2.9754784796">
        <ele>1361.36</ele>
        <time>2017-10-08T09:55:43Z</time>
      </trkpt>
      <trkpt lat="37.8404104896" lon="-2.9754898790">
        <ele>1361.84</ele>
        <time>2017-10-08T09:55:56Z</time>
      </trkpt>
      <trkpt lat="37.8404060472" lon="-2.9755025357">
        <ele>1361.84</ele>
        <time>2017-10-08T09:56:22Z</time>
      </trkpt>
      <trkpt lat="37.8403968271" lon="-2.9755145218">
        <ele>1361.84</ele>
        <time>2017-10-08T09:56:45Z</time>
      </trkpt>
      <trkpt lat="37.8403890319" lon="-2.9755146056">
        <ele>1361.84</ele>
        <time>2017-10-08T09:57:02Z</time>
      </trkpt>
      <trkpt lat="37.8403851762" lon="-2.9755158629">
        <ele>1357.04</ele>
        <time>2017-10-08T09:57:03Z</time>
      </trkpt>
      <trkpt lat="37.8403828293" lon="-2.9755162820">
        <ele>1360.40</ele>
        <time>2017-10-08T09:57:04Z</time>
      </trkpt>
      <trkpt lat="37.8403784707" lon="-2.9755152762">
        <ele>1364.73</ele>
        <time>2017-10-08T09:57:07Z</time>
      </trkpt>
      <trkpt lat="37.8403770458" lon="-2.9755149409">
        <ele>1363.29</ele>
        <time>2017-10-08T09:57:08Z</time>
      </trkpt>
      <trkpt lat="37.8403740283" lon="-2.9755142704">
        <ele>1358.96</ele>
        <time>2017-10-08T09:57:10Z</time>
      </trkpt>
      <trkpt lat="37.8403726034" lon="-2.9755139351">
        <ele>1368.09</ele>
        <time>2017-10-08T09:57:11Z</time>
      </trkpt>
      <trkpt lat="37.8403710946" lon="-2.9755135998">
        <ele>1363.77</ele>
        <time>2017-10-08T09:57:12Z</time>
      </trkpt>
      <trkpt lat="37.8403695859" lon="-2.9755132645">
        <ele>1369.54</ele>
        <time>2017-10-08T09:57:13Z</time>
      </trkpt>
      <trkpt lat="37.8403681610" lon="-2.9755129293">
        <ele>1364.25</ele>
        <time>2017-10-08T09:57:14Z</time>
      </trkpt>
      <trkpt lat="37.8403892834" lon="-2.9755144380">
        <ele>1362.33</ele>
        <time>2017-10-08T09:57:16Z</time>
      </trkpt>
      <trkpt lat="37.8404184524" lon="-2.9755069781">
        <ele>1362.81</ele>
        <time>2017-10-08T09:57:36Z</time>
      </trkpt>
      <trkpt lat="37.8404472861" lon="-2.9755188804">
        <ele>1362.81</ele>
        <time>2017-10-08T09:57:38Z</time>
      </trkpt>
      <trkpt lat="37.8404614516" lon="-2.9755277652">
        <ele>1363.29</ele>
        <time>2017-10-08T09:57:39Z</time>
      </trkpt>
      <trkpt lat="37.8404763713" lon="-2.9755391646">
        <ele>1362.81</ele>
        <time>2017-10-08T09:57:40Z</time>
      </trkpt>
      <trkpt lat="37.8406321071" lon="-2.9756149370">
        <ele>1364.25</ele>
        <time>2017-10-08T09:57:51Z</time>
      </trkpt>
      <trkpt lat="37.8408002481" lon="-2.9756263364">
        <ele>1365.69</ele>
        <time>2017-10-08T09:58:02Z</time>
      </trkpt>
      <trkpt lat="37.8409144096" lon="-2.9756408371">
        <ele>1366.65</ele>
        <time>2017-10-08T09:58:11Z</time>
      </trkpt>
      <trkpt lat="37.8409704007" lon="-2.9756178707">
        <ele>1367.13</ele>
        <time>2017-10-08T09:58:14Z</time>
      </trkpt>
      <trkpt lat="37.8409911878" lon="-2.9756032024">
        <ele>1367.13</ele>
        <time>2017-10-08T09:58:15Z</time>
      </trkpt>
      <trkpt lat="37.8410062753" lon="-2.9755908810">
        <ele>1366.65</ele>
        <time>2017-10-08T09:58:16Z</time>
      </trkpt>
      <trkpt lat="37.8410969675" lon="-2.9755376559">
        <ele>1367.61</ele>
        <time>2017-10-08T09:58:22Z</time>
      </trkpt>
      <trkpt lat="37.8411131445" lon="-2.9755323753">
        <ele>1367.61</ele>
        <time>2017-10-08T09:58:23Z</time>
      </trkpt>
      <trkpt lat="37.8412522003" lon="-2.9754803237">
        <ele>1368.57</ele>
        <time>2017-10-08T09:58:32Z</time>
      </trkpt>
      <trkpt lat="37.8414079361" lon="-2.9754825030">
        <ele>1370.50</ele>
        <time>2017-10-08T09:58:42Z</time>
      </trkpt>
      <trkpt lat="37.8415029030" lon="-2.9754674993">
        <ele>1370.50</ele>
        <time>2017-10-08T09:58:48Z</time>
      </trkpt>
      <trkpt lat="37.8415302280" lon="-2.9754837602">
        <ele>1370.50</ele>
        <time>2017-10-08T09:58:50Z</time>
      </trkpt>
      <trkpt lat="37.8415978700" lon="-2.9754431918">
        <ele>1370.98</ele>
        <time>2017-10-08T09:58:55Z</time>
      </trkpt>
      <trkpt lat="37.8417571262" lon="-2.9754549265">
        <ele>1372.42</ele>
        <time>2017-10-08T09:59:07Z</time>
      </trkpt>
      <trkpt lat="37.8419009596" lon="-2.9754358158">
        <ele>1373.86</ele>
        <time>2017-10-08T09:59:17Z</time>
      </trkpt>
      <trkpt lat="37.8420457989" lon="-2.9754087422">
        <ele>1374.82</ele>
        <time>2017-10-08T09:59:26Z</time>
      </trkpt>
      <trkpt lat="37.8421874531" lon="-2.9753935710">
        <ele>1375.78</ele>
        <time>2017-10-08T09:59:35Z</time>
      </trkpt>
      <trkpt lat="37.8422141913" lon="-2.9753899667">
        <ele>1376.26</ele>
        <time>2017-10-08T09:59:37Z</time>
      </trkpt>
      <trkpt lat="37.8422744572" lon="-2.9753720295">
        <ele>1376.75</ele>
        <time>2017-10-08T09:59:42Z</time>
      </trkpt>
      <trkpt lat="37.8423991799" lon="-2.9753793217">
        <ele>1377.71</ele>
        <time>2017-10-08T09:59:52Z</time>
      </trkpt>
      <trkpt lat="37.8424370661" lon="-2.9753828421">
        <ele>1377.71</ele>
        <time>2017-10-08T09:59:54Z</time>
      </trkpt>
      <trkpt lat="37.8425882757" lon="-2.9754681699">
        <ele>1379.15</ele>
        <time>2017-10-08T10:00:05Z</time>
      </trkpt>
      <trkpt lat="37.8426192887" lon="-2.9755027033">
        <ele>1379.15</ele>
        <time>2017-10-08T10:00:08Z</time>
      </trkpt>
      <trkpt lat="37.8426790517" lon="-2.9755503964">
        <ele>1379.63</ele>
        <time>2017-10-08T10:00:13Z</time>
      </trkpt>
      <trkpt lat="37.8428150062" lon="-2.9757022765">
        <ele>1381.07</ele>
        <time>2017-10-08T10:00:24Z</time>
      </trkpt>
      <trkpt lat="37.8429023456" lon="-2.9757988360">
        <ele>1382.03</ele>
        <time>2017-10-08T10:00:35Z</time>
      </trkpt>
      <trkpt lat="37.8428839892" lon="-2.9758013505">
        <ele>1382.03</ele>
        <time>2017-10-08T10:00:47Z</time>
      </trkpt>
      <trkpt lat="37.8428926226" lon="-2.9757946450">
        <ele>1382.03</ele>
        <time>2017-10-08T10:00:59Z</time>
      </trkpt>
      <trkpt lat="37.8429110628" lon="-2.9757870175">
        <ele>1381.55</ele>
        <time>2017-10-08T10:01:07Z</time>
      </trkpt>
      <trkpt lat="37.8429225460" lon="-2.9757771268">
        <ele>1382.03</ele>
        <time>2017-10-08T10:01:18Z</time>
      </trkpt>
      <trkpt lat="37.8430836461" lon="-2.9757433478">
        <ele>1382.03</ele>
        <time>2017-10-08T10:01:28Z</time>
      </trkpt>
      <trkpt lat="37.8433329239" lon="-2.9756230675">
        <ele>1381.07</ele>
        <time>2017-10-08T10:01:40Z</time>
      </trkpt>
      <trkpt lat="37.8435674496" lon="-2.9755369015">
        <ele>1380.59</ele>
        <time>2017-10-08T10:01:48Z</time>
      </trkpt>
      <trkpt lat="37.8438238520" lon="-2.9753820878">
        <ele>1379.63</ele>
        <time>2017-10-08T10:01:56Z</time>
      </trkpt>
      <trkpt lat="37.8439344093" lon="-2.9753039684">
        <ele>1379.15</ele>
        <time>2017-10-08T10:01:59Z</time>
      </trkpt>
      <trkpt lat="37.8439768218" lon="-2.9752780683">
        <ele>1378.67</ele>
        <time>2017-10-08T10:02:00Z</time>
      </trkpt>
      <trkpt lat="37.8440644126" lon="-2.9752236698">
        <ele>1378.67</ele>
        <time>2017-10-08T10:02:02Z</time>
      </trkpt>
      <trkpt lat="37.8443403449" lon="-2.9750308022">
        <ele>1377.71</ele>
        <time>2017-10-08T10:02:08Z</time>
      </trkpt>
      <trkpt lat="37.8443923965" lon="-2.9750060756">
        <ele>1377.23</ele>
        <time>2017-10-08T10:02:09Z</time>
      </trkpt>
      <trkpt lat="37.8444465436" lon="-2.9749908205">
        <ele>1377.23</ele>
        <time>2017-10-08T10:02:10Z</time>
      </trkpt>
      <trkpt lat="37.8445025347" lon="-2.9749840312">
        <ele>1377.23</ele>
        <time>2017-10-08T10:02:11Z</time>
      </trkpt>
      <trkpt lat="37.8445573524" lon="-2.9749809299">
        <ele>1376.75</ele>
        <time>2017-10-08T10:02:12Z</time>
      </trkpt>
      <trkpt lat="37.8449117392" lon="-2.9749594722">
        <ele>1375.30</ele>
        <time>2017-10-08T10:02:18Z</time>
      </trkpt>
      <trkpt lat="37.8451021761" lon="-2.9749929160">
        <ele>1374.82</ele>
        <time>2017-10-08T10:02:21Z</time>
      </trkpt>
      <trkpt lat="37.8452883381" lon="-2.9750774894">
        <ele>1374.34</ele>
        <time>2017-10-08T10:02:24Z</time>
      </trkpt>
      <trkpt lat="37.8453953750" lon="-2.9751513340">
        <ele>1373.86</ele>
        <time>2017-10-08T10:02:26Z</time>
      </trkpt>
      <trkpt lat="37.8455443215" lon="-2.9752644897">
        <ele>1373.38</ele>
        <time>2017-10-08T10:02:31Z</time>
      </trkpt>
      <trkpt lat="37.8455660306" lon="-2.9752669204">
        <ele>1373.38</ele>
        <time>2017-10-08T10:02:32Z</time>
      </trkpt>
      <trkpt lat="37.8455824591" lon="-2.9752696864">
        <ele>1372.90</ele>
        <time>2017-10-08T10:02:33Z</time>
      </trkpt>
      <trkpt lat="37.8455993067" lon="-2.9752745479">
        <ele>1372.90</ele>
        <time>2017-10-08T10:02:34Z</time>
      </trkpt>
      <trkpt lat="37.8456242010" lon="-2.9752790742">
        <ele>1372.42</ele>
        <time>2017-10-08T10:02:35Z</time>
      </trkpt>
      <trkpt lat="37.8456492629" lon="-2.9752833489">
        <ele>1372.42</ele>
        <time>2017-10-08T10:02:36Z</time>
      </trkpt>
      <trkpt lat="37.8456722293" lon="-2.9752916470">
        <ele>1372.42</ele>
        <time>2017-10-08T10:02:37Z</time>
      </trkpt>
      <trkpt lat="37.8456918430" lon="-2.9753015377">
        <ele>1372.42</ele>
        <time>2017-10-08T10:02:38Z</time>
      </trkpt>
      <trkpt lat="37.8457077686" lon="-2.9753051419">
        <ele>1372.42</ele>
        <time>2017-10-08T10:02:39Z</time>
      </trkpt>
      <trkpt lat="37.8457252868" lon="-2.9753063992">
        <ele>1371.94</ele>
        <time>2017-10-08T10:02:40Z</time>
      </trkpt>
      <trkpt lat="37.8457457386" lon="-2.9753043875">
        <ele>1371.94</ele>
        <time>2017-10-08T10:02:41Z</time>
      </trkpt>
      <trkpt lat="37.8459028155" lon="-2.9752297048">
        <ele>1370.50</ele>
        <time>2017-10-08T10:02:46Z</time>
      </trkpt>
      <trkpt lat="37.8459486645" lon="-2.9752115998">
        <ele>1370.02</ele>
        <time>2017-10-08T10:02:47Z</time>
      </trkpt>
      <trkpt lat="37.8460002132" lon="-2.9751969315">
        <ele>1370.02</ele>
        <time>2017-10-08T10:02:48Z</time>
      </trkpt>
      <trkpt lat="37.8465629742" lon="-2.9751805030">
        <ele>1368.09</ele>
        <time>2017-10-08T10:02:57Z</time>
      </trkpt>
      <trkpt lat="37.8467826638" lon="-2.9752237536">
        <ele>1366.65</ele>
        <time>2017-10-08T10:03:00Z</time>
      </trkpt>
      <trkpt lat="37.8468606155" lon="-2.9752561077">
        <ele>1365.69</ele>
        <time>2017-10-08T10:03:01Z</time>
      </trkpt>
      <trkpt lat="37.8469429258" lon="-2.9752949160">
        <ele>1365.69</ele>
        <time>2017-10-08T10:03:02Z</time>
      </trkpt>
      <trkpt lat="37.8473867476" lon="-2.9755132645">
        <ele>1362.81</ele>
        <time>2017-10-08T10:03:08Z</time>
      </trkpt>
      <trkpt lat="37.8474418167" lon="-2.9755109176">
        <ele>1362.81</ele>
        <time>2017-10-08T10:03:09Z</time>
      </trkpt>
      <trkpt lat="37.8474963829" lon="-2.9754973389">
        <ele>1363.29</ele>
        <time>2017-10-08T10:03:10Z</time>
      </trkpt>
      <trkpt lat="37.8475480154" lon="-2.9754739534">
        <ele>1363.29</ele>
        <time>2017-10-08T10:03:11Z</time>
      </trkpt>
      <trkpt lat="37.8475941159" lon="-2.9754409287">
        <ele>1362.81</ele>
        <time>2017-10-08T10:03:12Z</time>
      </trkpt>
      <trkpt lat="37.8476345167" lon="-2.9753978457">
        <ele>1362.81</ele>
        <time>2017-10-08T10:03:13Z</time>
      </trkpt>
      <trkpt lat="37.8476706427" lon="-2.9753424414">
        <ele>1362.33</ele>
        <time>2017-10-08T10:03:14Z</time>
      </trkpt>
      <trkpt lat="37.8477003984" lon="-2.9752869532">
        <ele>1362.33</ele>
        <time>2017-10-08T10:03:15Z</time>
      </trkpt>
      <trkpt lat="37.8477241192" lon="-2.9752395954">
        <ele>1361.84</ele>
        <time>2017-10-08T10:03:16Z</time>
      </trkpt>
      <trkpt lat="37.8478090279" lon="-2.9750582948">
        <ele>1359.92</ele>
        <time>2017-10-08T10:03:23Z</time>
      </trkpt>
      <trkpt lat="37.8478170745" lon="-2.9750545230">
        <ele>1359.92</ele>
        <time>2017-10-08T10:03:40Z</time>
      </trkpt>
      <trkpt lat="37.8478172421" lon="-2.9750570375">
        <ele>1359.92</ele>
        <time>2017-10-08T10:03:59Z</time>
      </trkpt>
      <trkpt lat="37.8478162363" lon="-2.9750558641">
        <ele>1359.44</ele>
        <time>2017-10-08T10:04:14Z</time>
      </trkpt>
      <trkpt lat="37.8478148952" lon="-2.9750541039">
        <ele>1359.44</ele>
        <time>2017-10-08T10:04:31Z</time>
      </trkpt>
      <trkpt lat="37.8478350118" lon="-2.9750271980">
        <ele>1359.44</ele>
        <time>2017-10-08T10:04:49Z</time>
      </trkpt>
      <trkpt lat="37.8479954414" lon="-2.9747293890">
        <ele>1357.04</ele>
        <time>2017-10-08T10:04:56Z</time>
      </trkpt>
      <trkpt lat="37.8480733093" lon="-2.9746284708">
        <ele>1356.08</ele>
        <time>2017-10-08T10:04:58Z</time>
      </trkpt>
      <trkpt lat="37.8482933342" lon="-2.9743427318">
        <ele>1355.12</ele>
        <time>2017-10-08T10:05:06Z</time>
      </trkpt>
      <trkpt lat="37.8482987825" lon="-2.9743357748">
        <ele>1355.12</ele>
        <time>2017-10-08T10:05:16Z</time>
      </trkpt>
      <trkpt lat="37.8482951783" lon="-2.9742545541">
        <ele>1354.63</ele>
        <time>2017-10-08T10:05:26Z</time>
      </trkpt>
      <trkpt lat="37.8483563662" lon="-2.9739426635">
        <ele>1352.71</ele>
        <time>2017-10-08T10:05:34Z</time>
      </trkpt>
      <trkpt lat="37.8483861219" lon="-2.9737991653">
        <ele>1352.23</ele>
        <time>2017-10-08T10:05:37Z</time>
      </trkpt>
      <trkpt lat="37.8483818471" lon="-2.9737518076">
        <ele>1352.23</ele>
        <time>2017-10-08T10:05:38Z</time>
      </trkpt>
      <trkpt lat="37.8483858705" lon="-2.9736808129">
        <ele>1351.75</ele>
        <time>2017-10-08T10:05:39Z</time>
      </trkpt>
      <trkpt lat="37.8483771533" lon="-2.9736016877">
        <ele>1351.27</ele>
        <time>2017-10-08T10:05:40Z</time>
      </trkpt>
      <trkpt lat="37.8483499959" lon="-2.9735234007">
        <ele>1350.31</ele>
        <time>2017-10-08T10:05:41Z</time>
      </trkpt>
      <trkpt lat="37.8483127803" lon="-2.9734489694">
        <ele>1349.83</ele>
        <time>2017-10-08T10:05:42Z</time>
      </trkpt>
      <trkpt lat="37.8482777439" lon="-2.9733760469">
        <ele>1349.35</ele>
        <time>2017-10-08T10:05:43Z</time>
      </trkpt>
      <trkpt lat="37.8482520115" lon="-2.9733023699">
        <ele>1348.39</ele>
        <time>2017-10-08T10:05:44Z</time>
      </trkpt>
      <trkpt lat="37.8482395224" lon="-2.9732353147">
        <ele>1348.39</ele>
        <time>2017-10-08T10:05:45Z</time>
      </trkpt>
      <trkpt lat="37.8482437972" lon="-2.9731675051">
        <ele>1347.91</ele>
        <time>2017-10-08T10:05:46Z</time>
      </trkpt>
      <trkpt lat="37.8482595552" lon="-2.9730932415">
        <ele>1346.94</ele>
        <time>2017-10-08T10:05:47Z</time>
      </trkpt>
      <trkpt lat="37.8482857905" lon="-2.9730142001">
        <ele>1346.46</ele>
        <time>2017-10-08T10:05:48Z</time>
      </trkpt>
      <trkpt lat="37.8483173903" lon="-2.9729401879">
        <ele>1345.98</ele>
        <time>2017-10-08T10:05:49Z</time>
      </trkpt>
      <trkpt lat="37.8483578749" lon="-2.9728811793">
        <ele>1345.50</ele>
        <time>2017-10-08T10:05:50Z</time>
      </trkpt>
      <trkpt lat="37.8484045621" lon="-2.9728423711">
        <ele>1345.02</ele>
        <time>2017-10-08T10:05:51Z</time>
      </trkpt>
      <trkpt lat="37.8484592121" lon="-2.9728205781">
        <ele>1344.54</ele>
        <time>2017-10-08T10:05:52Z</time>
      </trkpt>
      <trkpt lat="37.8485202324" lon="-2.9728085082">
        <ele>1344.54</ele>
        <time>2017-10-08T10:05:53Z</time>
      </trkpt>
      <trkpt lat="37.8485845216" lon="-2.9728144594">
        <ele>1344.54</ele>
        <time>2017-10-08T10:05:54Z</time>
      </trkpt>
      <trkpt lat="37.8486544266" lon="-2.9728213325">
        <ele>1343.58</ele>
        <time>2017-10-08T10:05:55Z</time>
      </trkpt>
      <trkpt lat="37.8489664849" lon="-2.9728643317">
        <ele>1341.66</ele>
        <time>2017-10-08T10:06:00Z</time>
      </trkpt>
      <trkpt lat="37.8493974824" lon="-2.9728401080">
        <ele>1338.29</ele>
        <time>2017-10-08T10:06:06Z</time>
      </trkpt>
      <trkpt lat="37.8495585825" lon="-2.9728287086">
        <ele>1337.33</ele>
        <time>2017-10-08T10:06:08Z</time>
      </trkpt>
      <trkpt lat="37.8498625103" lon="-2.9728283733">
        <ele>1334.45</ele>
        <time>2017-10-08T10:06:12Z</time>
      </trkpt>
      <trkpt lat="37.8499133047" lon="-2.9728163034">
        <ele>1333.97</ele>
        <time>2017-10-08T10:06:13Z</time>
      </trkpt>
      <trkpt lat="37.8499566391" lon="-2.9727930017">
        <ele>1333.49</ele>
        <time>2017-10-08T10:06:14Z</time>
      </trkpt>
      <trkpt lat="37.8499920107" lon="-2.9727577139">
        <ele>1333.49</ele>
        <time>2017-10-08T10:06:15Z</time>
      </trkpt>
      <trkpt lat="37.8500158992" lon="-2.9727089312">
        <ele>1333.97</ele>
        <time>2017-10-08T10:06:16Z</time>
      </trkpt>
      <trkpt lat="37.8500205930" lon="-2.9726523533">
        <ele>1333.49</ele>
        <time>2017-10-08T10:06:17Z</time>
      </trkpt>
      <trkpt lat="37.8500140551" lon="-2.9725889023">
        <ele>1333.01</ele>
        <time>2017-10-08T10:06:18Z</time>
      </trkpt>
      <trkpt lat="37.8499977104" lon="-2.9725189973">
        <ele>1332.52</ele>
        <time>2017-10-08T10:06:19Z</time>
      </trkpt>
      <trkpt lat="37.8499706369" lon="-2.9724516068">
        <ele>1332.04</ele>
        <time>2017-10-08T10:06:20Z</time>
      </trkpt>
      <trkpt lat="37.8499347623" lon="-2.9723879881">
        <ele>1331.56</ele>
        <time>2017-10-08T10:06:21Z</time>
      </trkpt>
      <trkpt lat="37.8498962056" lon="-2.9723247048">
        <ele>1331.56</ele>
        <time>2017-10-08T10:06:22Z</time>
      </trkpt>
      <trkpt lat="37.8497280646" lon="-2.9720173404">
        <ele>1329.64</ele>
        <time>2017-10-08T10:06:27Z</time>
      </trkpt>
      <trkpt lat="37.8497399669" lon="-2.9719442502">
        <ele>1329.16</ele>
        <time>2017-10-08T10:06:28Z</time>
      </trkpt>
      <trkpt lat="37.8497636877" lon="-2.9718873370">
        <ele>1328.20</ele>
        <time>2017-10-08T10:06:29Z</time>
      </trkpt>
      <trkpt lat="37.8497993946" lon="-2.9718483612">
        <ele>1328.20</ele>
        <time>2017-10-08T10:06:30Z</time>
      </trkpt>
      <trkpt lat="37.8498378675" lon="-2.9718280770">
        <ele>1328.20</ele>
        <time>2017-10-08T10:06:31Z</time>
      </trkpt>
      <trkpt lat="37.8498739097" lon="-2.9718215391">
        <ele>1327.72</ele>
        <time>2017-10-08T10:06:32Z</time>
      </trkpt>
      <trkpt lat="37.8499069344" lon="-2.9718267359">
        <ele>1327.24</ele>
        <time>2017-10-08T10:06:33Z</time>
      </trkpt>
      <trkpt lat="37.8499394562" lon="-2.9718383867">
        <ele>1326.76</ele>
        <time>2017-10-08T10:06:34Z</time>
      </trkpt>
      <trkpt lat="37.8499692958" lon="-2.9718579166">
        <ele>1326.76</ele>
        <time>2017-10-08T10:06:35Z</time>
      </trkpt>
      <trkpt lat="37.8500098642" lon="-2.9718838166">
        <ele>1326.28</ele>
        <time>2017-10-08T10:06:36Z</time>
      </trkpt>
      <trkpt lat="37.8500599880" lon="-2.9719201103">
        <ele>1325.80</ele>
        <time>2017-10-08T10:06:37Z</time>
      </trkpt>
      <trkpt lat="37.8501154762" lon="-2.9719525483">
        <ele>1325.31</ele>
        <time>2017-10-08T10:06:38Z</time>
      </trkpt>
      <trkpt lat="37.8503020573" lon="-2.9720202740">
        <ele>1323.87</ele>
        <time>2017-10-08T10:06:41Z</time>
      </trkpt>
      <trkpt lat="37.8508598730" lon="-2.9721503612">
        <ele>1320.99</ele>
        <time>2017-10-08T10:06:47Z</time>
      </trkpt>
      <trkpt lat="37.8509524092" lon="-2.9721567314">
        <ele>1320.51</ele>
        <time>2017-10-08T10:06:48Z</time>
      </trkpt>
      <trkpt lat="37.8510392457" lon="-2.9721541330">
        <ele>1320.03</ele>
        <time>2017-10-08T10:06:49Z</time>
      </trkpt>
      <trkpt lat="37.8514452651" lon="-2.9720725771">
        <ele>1317.14</ele>
        <time>2017-10-08T10:06:54Z</time>
      </trkpt>
      <trkpt lat="37.8517779429" lon="-2.9720459227">
        <ele>1313.78</ele>
        <time>2017-10-08T10:06:58Z</time>
      </trkpt>
      <trkpt lat="37.8520629276" lon="-2.9719968885">
        <ele>1311.38</ele>
        <time>2017-10-08T10:07:03Z</time>
      </trkpt>
      <trkpt lat="37.8523143847" lon="-2.9719364550">
        <ele>1309.93</ele>
        <time>2017-10-08T10:07:13Z</time>
      </trkpt>
      <trkpt lat="37.8523545340" lon="-2.9719339404">
        <ele>1309.93</ele>
        <time>2017-10-08T10:07:15Z</time>
      </trkpt>
      <trkpt lat="37.8523752373" lon="-2.9719295818">
        <ele>1309.93</ele>
        <time>2017-10-08T10:07:16Z</time>
      </trkpt>
      <trkpt lat="37.8524004668" lon="-2.9719293304">
        <ele>1309.93</ele>
        <time>2017-10-08T10:07:17Z</time>
      </trkpt>
      <trkpt lat="37.8524231818" lon="-2.9719331022">
        <ele>1309.93</ele>
        <time>2017-10-08T10:07:18Z</time>
      </trkpt>
      <trkpt lat="37.8524428792" lon="-2.9719378799">
        <ele>1309.93</ele>
        <time>2017-10-08T10:07:19Z</time>
      </trkpt>
      <trkpt lat="37.8526070807" lon="-2.9719341081">
        <ele>1309.45</ele>
        <time>2017-10-08T10:07:26Z</time>
      </trkpt>
      <trkpt lat="37.8528536763" lon="-2.9720160831">
        <ele>1308.49</ele>
        <time>2017-10-08T10:07:35Z</time>
      </trkpt>
      <trkpt lat="37.8528717812" lon="-2.9720340203">
        <ele>1308.49</ele>
        <time>2017-10-08T10:07:36Z</time>
      </trkpt>
      <trkpt lat="37.8528884612" lon="-2.9720477667">
        <ele>1308.49</ele>
        <time>2017-10-08T10:07:37Z</time>
      </trkpt>
      <trkpt lat="37.8529010341" lon="-2.9720554780">
        <ele>1308.49</ele>
        <time>2017-10-08T10:07:38Z</time>
      </trkpt>
      <trkpt lat="37.8529201448" lon="-2.9720613454">
        <ele>1308.49</ele>
        <time>2017-10-08T10:07:39Z</time>
      </trkpt>
      <trkpt lat="37.8531415109" lon="-2.9721484333">
        <ele>1306.57</ele>
        <time>2017-10-08T10:07:48Z</time>
      </trkpt>
      <trkpt lat="37.8535386454" lon="-2.9721596651">
        <ele>1304.65</ele>
        <time>2017-10-08T10:07:57Z</time>
      </trkpt>
      <trkpt lat="37.8539511189" lon="-2.9721268918">
        <ele>1302.24</ele>
        <time>2017-10-08T10:08:06Z</time>
      </trkpt>
      <trkpt lat="37.8543500975" lon="-2.9720891733">
        <ele>1299.84</ele>
        <time>2017-10-08T10:08:15Z</time>
      </trkpt>
      <trkpt lat="37.8543981258" lon="-2.9720942862">
        <ele>1299.84</ele>
        <time>2017-10-08T10:08:16Z</time>
      </trkpt>
      <trkpt lat="37.8544501774" lon="-2.9720978905">
        <ele>1299.84</ele>
        <time>2017-10-08T10:08:17Z</time>
      </trkpt>
      <trkpt lat="37.8545042407" lon="-2.9721082840">
        <ele>1299.36</ele>
        <time>2017-10-08T10:08:18Z</time>
      </trkpt>
      <trkpt lat="37.8545592260" lon="-2.9721212760">
        <ele>1298.88</ele>
        <time>2017-10-08T10:08:19Z</time>
      </trkpt>
      <trkpt lat="37.8547317255" lon="-2.9721702263">
        <ele>1298.40</ele>
        <time>2017-10-08T10:08:22Z</time>
      </trkpt>
      <trkpt lat="37.8547951765" lon="-2.9721897561">
        <ele>1297.92</ele>
        <time>2017-10-08T10:08:23Z</time>
      </trkpt>
      <trkpt lat="37.8552544210" lon="-2.9723442346">
        <ele>1294.55</ele>
        <time>2017-10-08T10:08:31Z</time>
      </trkpt>
      <trkpt lat="37.8554069716" lon="-2.9724028241">
        <ele>1293.59</ele>
        <time>2017-10-08T10:08:37Z</time>
      </trkpt>
      <trkpt lat="37.8554331232" lon="-2.9724226054">
        <ele>1293.11</ele>
        <time>2017-10-08T10:08:42Z</time>
      </trkpt>
      <trkpt lat="37.8554372303" lon="-2.9724575579">
        <ele>1293.11</ele>
        <time>2017-10-08T10:08:51Z</time>
      </trkpt>
      <trkpt lat="37.8554355539" lon="-2.9724117089">
        <ele>1293.11</ele>
        <time>2017-10-08T10:09:01Z</time>
      </trkpt>
      <trkpt lat="37.8554114141" lon="-2.9724239465">
        <ele>1293.11</ele>
        <time>2017-10-08T10:09:25Z</time>
      </trkpt>
      <trkpt lat="37.8553818259" lon="-2.9724531155">
        <ele>1293.11</ele>
        <time>2017-10-08T10:09:57Z</time>
      </trkpt>
      <trkpt lat="37.8553871904" lon="-2.9724555463">
        <ele>1293.11</ele>
        <time>2017-10-08T10:10:17Z</time>
      </trkpt>
      <trkpt lat="37.8554003499" lon="-2.9724493437">
        <ele>1293.11</ele>
        <time>2017-10-08T10:10:32Z</time>
      </trkpt>
      <trkpt lat="37.8554123361" lon="-2.9724340048">
        <ele>1292.63</ele>
        <time>2017-10-08T10:10:50Z</time>
      </trkpt>
      <trkpt lat="37.8554218914" lon="-2.9724289756">
        <ele>1292.63</ele>
        <time>2017-10-08T10:11:11Z</time>
      </trkpt>
      <trkpt lat="37.8554907069" lon="-2.9724879842">
        <ele>1292.63</ele>
        <time>2017-10-08T10:11:22Z</time>
      </trkpt>
      <trkpt lat="37.8555219714" lon="-2.9727169778">
        <ele>1291.67</ele>
        <time>2017-10-08T10:11:29Z</time>
      </trkpt>
      <trkpt lat="37.8554972447" lon="-2.9727509245">
        <ele>1291.67</ele>
        <time>2017-10-08T10:11:30Z</time>
      </trkpt>
      <trkpt lat="37.8554736916" lon="-2.9727848712">
        <ele>1291.67</ele>
        <time>2017-10-08T10:11:31Z</time>
      </trkpt>
      <trkpt lat="37.8554463666" lon="-2.9728149623">
        <ele>1291.67</ele>
        <time>2017-10-08T10:11:32Z</time>
      </trkpt>
      <trkpt lat="37.8554136772" lon="-2.9728439637">
        <ele>1291.67</ele>
        <time>2017-10-08T10:11:33Z</time>
      </trkpt>
      <trkpt lat="37.8553422634" lon="-2.9729097616">
        <ele>1291.67</ele>
        <time>2017-10-08T10:11:35Z</time>
      </trkpt>
      <trkpt lat="37.8553040419" lon="-2.9729458876">
        <ele>1291.19</ele>
        <time>2017-10-08T10:11:36Z</time>
      </trkpt>
      <trkpt lat="37.8552634735" lon="-2.9729794152">
        <ele>1290.71</ele>
        <time>2017-10-08T10:11:37Z</time>
      </trkpt>
      <trkpt lat="37.8552184626" lon="-2.9730059020">
        <ele>1290.71</ele>
        <time>2017-10-08T10:11:38Z</time>
      </trkpt>
      <trkpt lat="37.8551812470" lon="-2.9730398487">
        <ele>1290.71</ele>
        <time>2017-10-08T10:11:39Z</time>
      </trkpt>
      <trkpt lat="37.8551547602" lon="-2.9730781540">
        <ele>1290.71</ele>
        <time>2017-10-08T10:11:40Z</time>
      </trkpt>
      <trkpt lat="37.8551367391" lon="-2.9731157888">
        <ele>1290.23</ele>
        <time>2017-10-08T10:11:41Z</time>
      </trkpt>
      <trkpt lat="37.8551257588" lon="-2.9731534235">
        <ele>1290.23</ele>
        <time>2017-10-08T10:11:42Z</time>
      </trkpt>
      <trkpt lat="37.8551289439" lon="-2.9731989373">
        <ele>1289.75</ele>
        <time>2017-10-08T10:11:43Z</time>
      </trkpt>
      <trkpt lat="37.8551647346" lon="-2.9732646514">
        <ele>1289.75</ele>
        <time>2017-10-08T10:11:44Z</time>
      </trkpt>
      <trkpt lat="37.8551816661" lon="-2.9733201396">
        <ele>1290.23</ele>
        <time>2017-10-08T10:11:45Z</time>
      </trkpt>
      <trkpt lat="37.8551920597" lon="-2.9733743705">
        <ele>1290.23</ele>
        <time>2017-10-08T10:11:46Z</time>
      </trkpt>
      <trkpt lat="37.8552473802" lon="-2.9735581018">
        <ele>1289.75</ele>
        <time>2017-10-08T10:11:49Z</time>
      </trkpt>
      <trkpt lat="37.8552338853" lon="-2.9736829922">
        <ele>1289.27</ele>
        <time>2017-10-08T10:11:51Z</time>
      </trkpt>
      <trkpt lat="37.8552389983" lon="-2.9737521429">
        <ele>1288.78</ele>
        <time>2017-10-08T10:11:52Z</time>
      </trkpt>
      <trkpt lat="37.8552519903" lon="-2.9738226347">
        <ele>1288.78</ele>
        <time>2017-10-08T10:11:53Z</time>
      </trkpt>
      <trkpt lat="37.8552703466" lon="-2.9738802183">
        <ele>1288.30</ele>
        <time>2017-10-08T10:11:54Z</time>
      </trkpt>
      <trkpt lat="37.8552972525" lon="-2.9739310965">
        <ele>1287.82</ele>
        <time>2017-10-08T10:11:55Z</time>
      </trkpt>
      <trkpt lat="37.8553315345" lon="-2.9739773646">
        <ele>1287.82</ele>
        <time>2017-10-08T10:11:56Z</time>
      </trkpt>
      <trkpt lat="37.8553581052" lon="-2.9740284104">
        <ele>1287.82</ele>
        <time>2017-10-08T10:11:57Z</time>
      </trkpt>
      <trkpt lat="37.8553805687" lon="-2.9740823898">
        <ele>1288.30</ele>
        <time>2017-10-08T10:11:58Z</time>
      </trkpt>
      <trkpt lat="37.8553923033" lon="-2.9741420690">
        <ele>1287.82</ele>
        <time>2017-10-08T10:11:59Z</time>
      </trkpt>
      <trkpt lat="37.8553878609" lon="-2.9742014129">
        <ele>1287.82</ele>
        <time>2017-10-08T10:12:00Z</time>
      </trkpt>
      <trkpt lat="37.8553732764" lon="-2.9742560629">
        <ele>1287.34</ele>
        <time>2017-10-08T10:12:01Z</time>
      </trkpt>
      <trkpt lat="37.8553491365" lon="-2.9743026663">
        <ele>1287.34</ele>
        <time>2017-10-08T10:12:02Z</time>
      </trkpt>
      <trkpt lat="37.8553115856" lon="-2.9743363615">
        <ele>1286.86</ele>
        <time>2017-10-08T10:12:03Z</time>
      </trkpt>
      <trkpt lat="37.8552623000" lon="-2.9743632674">
        <ele>1286.38</ele>
        <time>2017-10-08T10:12:04Z</time>
      </trkpt>
      <trkpt lat="37.8552067280" lon="-2.9743816238">
        <ele>1285.90</ele>
        <time>2017-10-08T10:12:05Z</time>
      </trkpt>
      <trkpt lat="37.8551514074" lon="-2.9743955377">
        <ele>1285.42</ele>
        <time>2017-10-08T10:12:06Z</time>
      </trkpt>
      <trkpt lat="37.8549694363" lon="-2.9744635150">
        <ele>1283.98</ele>
        <time>2017-10-08T10:12:09Z</time>
      </trkpt>
      <trkpt lat="37.8548602201" lon="-2.9745386168">
        <ele>1283.50</ele>
        <time>2017-10-08T10:12:11Z</time>
      </trkpt>
      <trkpt lat="37.8548033908" lon="-2.9745539557">
        <ele>1282.54</ele>
        <time>2017-10-08T10:12:12Z</time>
      </trkpt>
      <trkpt lat="37.8547423705" lon="-2.9745660257">
        <ele>1282.54</ele>
        <time>2017-10-08T10:12:13Z</time>
      </trkpt>
      <trkpt lat="37.8546771593" lon="-2.9745696299">
        <ele>1282.06</ele>
        <time>2017-10-08T10:12:14Z</time>
      </trkpt>
      <trkpt lat="37.8546106908" lon="-2.9745687917">
        <ele>1281.57</ele>
        <time>2017-10-08T10:12:15Z</time>
      </trkpt>
      <trkpt lat="37.8542754147" lon="-2.9745552130">
        <ele>1278.21</ele>
        <time>2017-10-08T10:12:20Z</time>
      </trkpt>
      <trkpt lat="37.8541972116" lon="-2.9745475855">
        <ele>1277.73</ele>
        <time>2017-10-08T10:12:22Z</time>
      </trkpt>
      <trkpt lat="37.8539234586" lon="-2.9744343460">
        <ele>1275.81</ele>
        <time>2017-10-08T10:12:30Z</time>
      </trkpt>
      <trkpt lat="37.8538780287" lon="-2.9744050931">
        <ele>1275.33</ele>
        <time>2017-10-08T10:12:31Z</time>
      </trkpt>
      <trkpt lat="37.8538286593" lon="-2.9743788578">
        <ele>1274.85</ele>
        <time>2017-10-08T10:12:32Z</time>
      </trkpt>
      <trkpt lat="37.8537265677" lon="-2.9743394628">
        <ele>1273.88</ele>
        <time>2017-10-08T10:12:34Z</time>
      </trkpt>
      <trkpt lat="37.8536751866" lon="-2.9743325897">
        <ele>1273.40</ele>
        <time>2017-10-08T10:12:35Z</time>
      </trkpt>
      <trkpt lat="37.8535738494" lon="-2.9743309133">
        <ele>1272.44</ele>
        <time>2017-10-08T10:12:37Z</time>
      </trkpt>
      <trkpt lat="37.8530360665" lon="-2.9744067695">
        <ele>1269.56</ele>
        <time>2017-10-08T10:12:45Z</time>
      </trkpt>
      <trkpt lat="37.8526475653" lon="-2.9744547978">
        <ele>1266.19</ele>
        <time>2017-10-08T10:12:50Z</time>
      </trkpt>
      <trkpt lat="37.8525048215" lon="-2.9744490143">
        <ele>1265.23</ele>
        <time>2017-10-08T10:12:52Z</time>
      </trkpt>
      <trkpt lat="37.8522713017" lon="-2.9744314961">
        <ele>1263.79</ele>
        <time>2017-10-08T10:12:56Z</time>
      </trkpt>
      <trkpt lat="37.8522219323" lon="-2.9744435661">
        <ele>1263.31</ele>
        <time>2017-10-08T10:12:57Z</time>
      </trkpt>
      <trkpt lat="37.8521756642" lon="-2.9744710587">
        <ele>1262.83</ele>
        <time>2017-10-08T10:12:58Z</time>
      </trkpt>
      <trkpt lat="37.8521322459" lon="-2.9745179135">
        <ele>1262.35</ele>
        <time>2017-10-08T10:12:59Z</time>
      </trkpt>
      <trkpt lat="37.8521017358" lon="-2.9745853040">
        <ele>1261.87</ele>
        <time>2017-10-08T10:13:00Z</time>
      </trkpt>
      <trkpt lat="37.8520872351" lon="-2.9746673629">
        <ele>1261.87</ele>
        <time>2017-10-08T10:13:01Z</time>
      </trkpt>
      <trkpt lat="37.8520841338" lon="-2.9747528583">
        <ele>1261.39</ele>
        <time>2017-10-08T10:13:02Z</time>
      </trkpt>
      <trkpt lat="37.8520887438" lon="-2.9748366773">
        <ele>1261.39</ele>
        <time>2017-10-08T10:13:03Z</time>
      </trkpt>
      <trkpt lat="37.8520957008" lon="-2.9749174789">
        <ele>1261.87</ele>
        <time>2017-10-08T10:13:04Z</time>
      </trkpt>
      <trkpt lat="37.8521236125" lon="-2.9750558641">
        <ele>1261.87</ele>
        <time>2017-10-08T10:13:06Z</time>
      </trkpt>
      <trkpt lat="37.8521592356" lon="-2.9750973545">
        <ele>1261.87</ele>
        <time>2017-10-08T10:13:07Z</time>
      </trkpt>
      <trkpt lat="37.8522028215" lon="-2.9751238413">
        <ele>1261.39</ele>
        <time>2017-10-08T10:13:08Z</time>
      </trkpt>
      <trkpt lat="37.8522516042" lon="-2.9751375038">
        <ele>1261.39</ele>
        <time>2017-10-08T10:13:09Z</time>
      </trkpt>
      <trkpt lat="37.8523029853" lon="-2.9751408566">
        <ele>1260.91</ele>
        <time>2017-10-08T10:13:10Z</time>
      </trkpt>
      <trkpt lat="37.8523552883" lon="-2.9751376715">
        <ele>1260.91</ele>
        <time>2017-10-08T10:13:11Z</time>
      </trkpt>
      <trkpt lat="37.8524091002" lon="-2.9751323909">
        <ele>1260.91</ele>
        <time>2017-10-08T10:13:12Z</time>
      </trkpt>
      <trkpt lat="37.8525660932" lon="-2.9751216620">
        <ele>1259.94</ele>
        <time>2017-10-08T10:13:15Z</time>
      </trkpt>
      <trkpt lat="37.8526254371" lon="-2.9751105141">
        <ele>1259.46</ele>
        <time>2017-10-08T10:13:16Z</time>
      </trkpt>
      <trkpt lat="37.8526905645" lon="-2.9751028027">
        <ele>1259.46</ele>
        <time>2017-10-08T10:13:17Z</time>
      </trkpt>
      <trkpt lat="37.8528064862" lon="-2.9751017131">
        <ele>1258.98</ele>
        <time>2017-10-08T10:13:19Z</time>
      </trkpt>
      <trkpt lat="37.8528583702" lon="-2.9751046468">
        <ele>1258.98</ele>
        <time>2017-10-08T10:13:20Z</time>
      </trkpt>
      <trkpt lat="37.8529548459" lon="-2.9751017969">
        <ele>1258.50</ele>
        <time>2017-10-08T10:13:22Z</time>
      </trkpt>
      <trkpt lat="37.8532835841" lon="-2.9751619790">
        <ele>1257.54</ele>
        <time>2017-10-08T10:13:30Z</time>
      </trkpt>
      <trkpt lat="37.8533125017" lon="-2.9751558602">
        <ele>1257.54</ele>
        <time>2017-10-08T10:13:40Z</time>
      </trkpt>
      <trkpt lat="37.8533208836" lon="-2.9751889687">
        <ele>1257.06</ele>
        <time>2017-10-08T10:14:02Z</time>
      </trkpt>
      <trkpt lat="37.8533213865" lon="-2.9751939978">
        <ele>1257.06</ele>
        <time>2017-10-08T10:14:18Z</time>
      </trkpt>
      <trkpt lat="37.8533356357" lon="-2.9752002005">
        <ele>1257.06</ele>
        <time>2017-10-08T10:14:33Z</time>
      </trkpt>
      <trkpt lat="37.8533487115" lon="-2.9752057325">
        <ele>1257.06</ele>
        <time>2017-10-08T10:14:35Z</time>
      </trkpt>
      <trkpt lat="37.8533653077" lon="-2.9752123542">
        <ele>1256.58</ele>
        <time>2017-10-08T10:14:36Z</time>
      </trkpt>
      <trkpt lat="37.8533882741" lon="-2.9752192274">
        <ele>1256.58</ele>
        <time>2017-10-08T10:14:37Z</time>
      </trkpt>
      <trkpt lat="37.8535689041" lon="-2.9752756376">
        <ele>1256.58</ele>
        <time>2017-10-08T10:14:43Z</time>
      </trkpt>
      <trkpt lat="37.8536046948" lon="-2.9752873722">
        <ele>1257.06</ele>
        <time>2017-10-08T10:14:44Z</time>
      </trkpt>
      <trkpt lat="37.8536349535" lon="-2.9752994422">
        <ele>1256.58</ele>
        <time>2017-10-08T10:14:45Z</time>
      </trkpt>
      <trkpt lat="37.8536620270" lon="-2.9753090814">
        <ele>1256.58</ele>
        <time>2017-10-08T10:14:46Z</time>
      </trkpt>
      <trkpt lat="37.8536858317" lon="-2.9753192235">
        <ele>1256.58</ele>
        <time>2017-10-08T10:14:47Z</time>
      </trkpt>
      <trkpt lat="37.8537125699" lon="-2.9753348976">
        <ele>1256.58</ele>
        <time>2017-10-08T10:14:48Z</time>
      </trkpt>
      <trkpt lat="37.8539525438" lon="-2.9754598718">
        <ele>1255.62</ele>
        <time>2017-10-08T10:14:55Z</time>
      </trkpt>
      <trkpt lat="37.8541739099" lon="-2.9755771346">
        <ele>1254.18</ele>
        <time>2017-10-08T10:15:03Z</time>
      </trkpt>
      <trkpt lat="37.8541998938" lon="-2.9755892046">
        <ele>1253.70</ele>
        <time>2017-10-08T10:15:04Z</time>
      </trkpt>
      <trkpt lat="37.8542268835" lon="-2.9756022803">
        <ele>1253.70</ele>
        <time>2017-10-08T10:15:05Z</time>
      </trkpt>
      <trkpt lat="37.8542603273" lon="-2.9756214749">
        <ele>1253.70</ele>
        <time>2017-10-08T10:15:06Z</time>
      </trkpt>
      <trkpt lat="37.8542990517" lon="-2.9756390769">
        <ele>1253.22</ele>
        <time>2017-10-08T10:15:07Z</time>
      </trkpt>
      <trkpt lat="37.8543340042" lon="-2.9756545834">
        <ele>1253.22</ele>
        <time>2017-10-08T10:15:08Z</time>
      </trkpt>
      <trkpt lat="37.8543727286" lon="-2.9756745324">
        <ele>1252.74</ele>
        <time>2017-10-08T10:15:09Z</time>
      </trkpt>
      <trkpt lat="37.8545629978" lon="-2.9757889453">
        <ele>1251.77</ele>
        <time>2017-10-08T10:15:13Z</time>
      </trkpt>
      <trkpt lat="37.8547501657" lon="-2.9759197868">
        <ele>1251.29</ele>
        <time>2017-10-08T10:15:16Z</time>
      </trkpt>
      <trkpt lat="37.8548253514" lon="-2.9759501293">
        <ele>1251.29</ele>
        <time>2017-10-08T10:15:17Z</time>
      </trkpt>
      <trkpt lat="37.8548937477" lon="-2.9759702459">
        <ele>1250.81</ele>
        <time>2017-10-08T10:15:18Z</time>
      </trkpt>
      <trkpt lat="37.8549500741" lon="-2.9759741016">
        <ele>1250.81</ele>
        <time>2017-10-08T10:15:19Z</time>
      </trkpt>
      <trkpt lat="37.8550115973" lon="-2.9759680666">
        <ele>1250.81</ele>
        <time>2017-10-08T10:15:20Z</time>
      </trkpt>
      <trkpt lat="37.8550699353" lon="-2.9759473633">
        <ele>1250.33</ele>
        <time>2017-10-08T10:15:21Z</time>
      </trkpt>
      <trkpt lat="37.8551302850" lon="-2.9759129137">
        <ele>1250.33</ele>
        <time>2017-10-08T10:15:22Z</time>
      </trkpt>
      <trkpt lat="37.8551783971" lon="-2.9758628737">
        <ele>1250.33</ele>
        <time>2017-10-08T10:15:23Z</time>
      </trkpt>
      <trkpt lat="37.8552172892" lon="-2.9758076370">
        <ele>1250.81</ele>
        <time>2017-10-08T10:15:24Z</time>
      </trkpt>
      <trkpt lat="37.8552566003" lon="-2.9757524002">
        <ele>1250.33</ele>
        <time>2017-10-08T10:15:25Z</time>
      </trkpt>
      <trkpt lat="37.8553892020" lon="-2.9755910486">
        <ele>1250.33</ele>
        <time>2017-10-08T10:15:29Z</time>
      </trkpt>
      <trkpt lat="37.8554253280" lon="-2.9755643941">
        <ele>1250.33</ele>
        <time>2017-10-08T10:15:30Z</time>
      </trkpt>
      <trkpt lat="37.8554541618" lon="-2.9755351413">
        <ele>1250.81</ele>
        <time>2017-10-08T10:15:31Z</time>
      </trkpt>
      <trkpt lat="37.8556376416" lon="-2.9753390886">
        <ele>1250.33</ele>
        <time>2017-10-08T10:15:39Z</time>
      </trkpt>
      <trkpt lat="37.8559160884" lon="-2.9752163775">
        <ele>1250.33</ele>
        <time>2017-10-08T10:15:47Z</time>
      </trkpt>
      <trkpt lat="37.8560052719" lon="-2.9751748871">
        <ele>1250.33</ele>
        <time>2017-10-08T10:15:49Z</time>
      </trkpt>
      <trkpt lat="37.8560473491" lon="-2.9751546867">
        <ele>1250.33</ele>
        <time>2017-10-08T10:15:50Z</time>
      </trkpt>
      <trkpt lat="37.8563287295" lon="-2.9748656787">
        <ele>1249.85</ele>
        <time>2017-10-08T10:15:59Z</time>
      </trkpt>
      <trkpt lat="37.8564433940" lon="-2.9744692985">
        <ele>1249.85</ele>
        <time>2017-10-08T10:16:08Z</time>
      </trkpt>
      <trkpt lat="37.8564881533" lon="-2.9743236210">
        <ele>1249.85</ele>
        <time>2017-10-08T10:16:11Z</time>
      </trkpt>
      <trkpt lat="37.8565073479" lon="-2.9742779396">
        <ele>1249.85</ele>
        <time>2017-10-08T10:16:12Z</time>
      </trkpt>
      <trkpt lat="37.8565941844" lon="-2.9739893507">
        <ele>1249.85</ele>
        <time>2017-10-08T10:16:18Z</time>
      </trkpt>
      <trkpt lat="37.8566131275" lon="-2.9739378020">
        <ele>1249.85</ele>
        <time>2017-10-08T10:16:19Z</time>
      </trkpt>
      <trkpt lat="37.8567904886" lon="-2.9734834190">
        <ele>1250.33</ele>
        <time>2017-10-08T10:16:30Z</time>
      </trkpt>
      <trkpt lat="37.8568205796" lon="-2.9731385037">
        <ele>1251.29</ele>
        <time>2017-10-08T10:16:39Z</time>
      </trkpt>
      <trkpt lat="37.8569695260" lon="-2.9728562851">
        <ele>1251.29</ele>
        <time>2017-10-08T10:16:47Z</time>
      </trkpt>
      <trkpt lat="37.8570841067" lon="-2.9727689456">
        <ele>1250.81</ele>
        <time>2017-10-08T10:16:50Z</time>
      </trkpt>
      <trkpt lat="37.8571214061" lon="-2.9727304727">
        <ele>1250.33</ele>
        <time>2017-10-08T10:16:51Z</time>
      </trkpt>
      <trkpt lat="37.8571628127" lon="-2.9726916645">
        <ele>1249.85</ele>
        <time>2017-10-08T10:16:52Z</time>
      </trkpt>
      <trkpt lat="37.8571990225" lon="-2.9726433847">
        <ele>1249.85</ele>
        <time>2017-10-08T10:16:53Z</time>
      </trkpt>
      <trkpt lat="37.8572200611" lon="-2.9725806043">
        <ele>1249.37</ele>
        <time>2017-10-08T10:16:54Z</time>
      </trkpt>
      <trkpt lat="37.8572245035" lon="-2.9725059215">
        <ele>1249.37</ele>
        <time>2017-10-08T10:16:55Z</time>
      </trkpt>
      <trkpt lat="37.8572196420" lon="-2.9724245332">
        <ele>1248.89</ele>
        <time>2017-10-08T10:16:56Z</time>
      </trkpt>
      <trkpt lat="37.8572188038" lon="-2.9723397084">
        <ele>1248.89</ele>
        <time>2017-10-08T10:16:57Z</time>
      </trkpt>
      <trkpt lat="37.8572297841" lon="-2.9722516984">
        <ele>1248.41</ele>
        <time>2017-10-08T10:16:58Z</time>
      </trkpt>
      <trkpt lat="37.8572499845" lon="-2.9721638560">
        <ele>1247.45</ele>
        <time>2017-10-08T10:16:59Z</time>
      </trkpt>
      <trkpt lat="37.8572761361" lon="-2.9720755108">
        <ele>1247.45</ele>
        <time>2017-10-08T10:17:00Z</time>
      </trkpt>
      <trkpt lat="37.8573092446" lon="-2.9719891772">
        <ele>1246.49</ele>
        <time>2017-10-08T10:17:01Z</time>
      </trkpt>
      <trkpt lat="37.8573444486" lon="-2.9719066992">
        <ele>1246.49</ele>
        <time>2017-10-08T10:17:02Z</time>
      </trkpt>
      <trkpt lat="37.8574571013" lon="-2.9715735186">
        <ele>1246.01</ele>
        <time>2017-10-08T10:17:06Z</time>
      </trkpt>
      <trkpt lat="37.8574669920" lon="-2.9714872688">
        <ele>1246.01</ele>
        <time>2017-10-08T10:17:07Z</time>
      </trkpt>
      <trkpt lat="37.8574705124" lon="-2.9714001808">
        <ele>1245.53</ele>
        <time>2017-10-08T10:17:08Z</time>
      </trkpt>
      <trkpt lat="37.8574682493" lon="-2.9713146016">
        <ele>1245.53</ele>
        <time>2017-10-08T10:17:09Z</time>
      </trkpt>
      <trkpt lat="37.8574669082" lon="-2.9712305311">
        <ele>1245.04</ele>
        <time>2017-10-08T10:17:10Z</time>
      </trkpt>
      <trkpt lat="37.8574735299" lon="-2.9711469635">
        <ele>1244.56</ele>
        <time>2017-10-08T10:17:11Z</time>
      </trkpt>
      <trkpt lat="37.8574922215" lon="-2.9710717779">
        <ele>1245.04</ele>
        <time>2017-10-08T10:17:12Z</time>
      </trkpt>
      <trkpt lat="37.8575211391" lon="-2.9710045550">
        <ele>1245.04</ele>
        <time>2017-10-08T10:17:13Z</time>
      </trkpt>
      <trkpt lat="37.8575596120" lon="-2.9709478095">
        <ele>1245.04</ele>
        <time>2017-10-08T10:17:14Z</time>
      </trkpt>
      <trkpt lat="37.8576060478" lon="-2.9709052294">
        <ele>1245.04</ele>
        <time>2017-10-08T10:17:15Z</time>
      </trkpt>
      <trkpt lat="37.8576574288" lon="-2.9708708636">
        <ele>1245.04</ele>
        <time>2017-10-08T10:17:16Z</time>
      </trkpt>
      <trkpt lat="37.8577081393" lon="-2.9708401021">
        <ele>1245.04</ele>
        <time>2017-10-08T10:17:17Z</time>
      </trkpt>
      <trkpt lat="37.8578464407" lon="-2.9707520921">
        <ele>1245.04</ele>
        <time>2017-10-08T10:17:20Z</time>
      </trkpt>
      <trkpt lat="37.8580090497" lon="-2.9706199095">
        <ele>1245.04</ele>
        <time>2017-10-08T10:17:24Z</time>
      </trkpt>
      <trkpt lat="37.8580819722" lon="-2.9705418739">
        <ele>1244.56</ele>
        <time>2017-10-08T10:17:26Z</time>
      </trkpt>
      <trkpt lat="37.8581210319" lon="-2.9705087654">
        <ele>1244.56</ele>
        <time>2017-10-08T10:17:27Z</time>
      </trkpt>
      <trkpt lat="37.8581617679" lon="-2.9704816919">
        <ele>1244.56</ele>
        <time>2017-10-08T10:17:28Z</time>
      </trkpt>
      <trkpt lat="37.8582020011" lon="-2.9704550374">
        <ele>1244.56</ele>
        <time>2017-10-08T10:17:29Z</time>
      </trkpt>
      <trkpt lat="37.8582457546" lon="-2.9704285506">
        <ele>1244.56</ele>
        <time>2017-10-08T10:17:30Z</time>
      </trkpt>
      <trkpt lat="37.8582962137" lon="-2.9703982081">
        <ele>1244.08</ele>
        <time>2017-10-08T10:17:31Z</time>
      </trkpt>
      <trkpt lat="37.8583465889" lon="-2.9703655187">
        <ele>1244.08</ele>
        <time>2017-10-08T10:17:32Z</time>
      </trkpt>
      <trkpt lat="37.8584455792" lon="-2.9702996369">
        <ele>1243.60</ele>
        <time>2017-10-08T10:17:34Z</time>
      </trkpt>
      <trkpt lat="37.8585376963" lon="-2.9702070169">
        <ele>1242.64</ele>
        <time>2017-10-08T10:17:36Z</time>
      </trkpt>
      <trkpt lat="37.8586263768" lon="-2.9700851440">
        <ele>1242.16</ele>
        <time>2017-10-08T10:17:38Z</time>
      </trkpt>
      <trkpt lat="37.8586772550" lon="-2.9700351879">
        <ele>1241.68</ele>
        <time>2017-10-08T10:17:39Z</time>
      </trkpt>
      <trkpt lat="37.8587215953" lon="-2.9700002354">
        <ele>1241.20</ele>
        <time>2017-10-08T10:17:40Z</time>
      </trkpt>
      <trkpt lat="37.8587542847" lon="-2.9699742515">
        <ele>1240.72</ele>
        <time>2017-10-08T10:17:41Z</time>
      </trkpt>
      <trkpt lat="37.8587803524" lon="-2.9699494410">
        <ele>1240.72</ele>
        <time>2017-10-08T10:17:42Z</time>
      </trkpt>
      <trkpt lat="37.8588074259" lon="-2.9699269775">
        <ele>1240.24</ele>
        <time>2017-10-08T10:17:43Z</time>
      </trkpt>
      <trkpt lat="37.8588438872" lon="-2.9699033406">
        <ele>1240.24</ele>
        <time>2017-10-08T10:17:44Z</time>
      </trkpt>
      <trkpt lat="37.8589545283" lon="-2.9698223714">
        <ele>1239.76</ele>
        <time>2017-10-08T10:17:47Z</time>
      </trkpt>
      <trkpt lat="37.8589914087" lon="-2.9697858263">
        <ele>1239.28</ele>
        <time>2017-10-08T10:17:48Z</time>
      </trkpt>
      <trkpt lat="37.8592975996" lon="-2.9694258235">
        <ele>1236.87</ele>
        <time>2017-10-08T10:17:55Z</time>
      </trkpt>
      <trkpt lat="37.8594014514" lon="-2.9693261627">
        <ele>1235.91</ele>
        <time>2017-10-08T10:17:57Z</time>
      </trkpt>
      <trkpt lat="37.8595686704" lon="-2.9692062177">
        <ele>1234.95</ele>
        <time>2017-10-08T10:18:00Z</time>
      </trkpt>
      <trkpt lat="37.8596339654" lon="-2.9691830836">
        <ele>1234.47</ele>
        <time>2017-10-08T10:18:01Z</time>
      </trkpt>
      <trkpt lat="37.8597695846" lon="-2.9691569321">
        <ele>1233.03</ele>
        <time>2017-10-08T10:18:03Z</time>
      </trkpt>
      <trkpt lat="37.8598389030" lon="-2.9691589437">
        <ele>1233.03</ele>
        <time>2017-10-08T10:18:04Z</time>
      </trkpt>
      <trkpt lat="37.8599076346" lon="-2.9691631347">
        <ele>1232.55</ele>
        <time>2017-10-08T10:18:05Z</time>
      </trkpt>
      <trkpt lat="37.8599787969" lon="-2.9691614583">
        <ele>1232.55</ele>
        <time>2017-10-08T10:18:06Z</time>
      </trkpt>
      <trkpt lat="37.8600553237" lon="-2.9691456165">
        <ele>1232.07</ele>
        <time>2017-10-08T10:18:07Z</time>
      </trkpt>
      <trkpt lat="37.8601314314" lon="-2.9691194650">
        <ele>1231.59</ele>
        <time>2017-10-08T10:18:08Z</time>
      </trkpt>
      <trkpt lat="37.8602114785" lon="-2.9690909665">
        <ele>1231.11</ele>
        <time>2017-10-08T10:18:09Z</time>
      </trkpt>
      <trkpt lat="37.8602962196" lon="-2.9690673295">
        <ele>1230.62</ele>
        <time>2017-10-08T10:18:10Z</time>
      </trkpt>
      <trkpt lat="37.8603821341" lon="-2.9690463748">
        <ele>1230.14</ele>
        <time>2017-10-08T10:18:11Z</time>
      </trkpt>
      <trkpt lat="37.8604558948" lon="-2.9690186307">
        <ele>1229.66</ele>
        <time>2017-10-08T10:18:12Z</time>
      </trkpt>
      <trkpt lat="37.8605188429" lon="-2.9689877015">
        <ele>1228.70</ele>
        <time>2017-10-08T10:18:13Z</time>
      </trkpt>
      <trkpt lat="37.8606498521" lon="-2.9689265136">
        <ele>1227.26</ele>
        <time>2017-10-08T10:18:15Z</time>
      </trkpt>
      <trkpt lat="37.8607174940" lon="-2.9688781500">
        <ele>1226.78</ele>
        <time>2017-10-08T10:18:16Z</time>
      </trkpt>
      <trkpt lat="37.8609546181" lon="-2.9686403554">
        <ele>1225.34</ele>
        <time>2017-10-08T10:18:20Z</time>
      </trkpt>
      <trkpt lat="37.8610006347" lon="-2.9685724620">
        <ele>1225.34</ele>
        <time>2017-10-08T10:18:21Z</time>
      </trkpt>
      <trkpt lat="37.8610394429" lon="-2.9684966058">
        <ele>1224.38</ele>
        <time>2017-10-08T10:18:22Z</time>
      </trkpt>
      <trkpt lat="37.8610746469" lon="-2.9684181511">
        <ele>1223.90</ele>
        <time>2017-10-08T10:18:23Z</time>
      </trkpt>
      <trkpt lat="37.8611142933" lon="-2.9683509283">
        <ele>1223.42</ele>
        <time>2017-10-08T10:18:24Z</time>
      </trkpt>
      <trkpt lat="37.8611607291" lon="-2.9682951048">
        <ele>1223.42</ele>
        <time>2017-10-08T10:18:25Z</time>
      </trkpt>
      <trkpt lat="37.8612107690" lon="-2.9682472441">
        <ele>1222.93</ele>
        <time>2017-10-08T10:18:26Z</time>
      </trkpt>
      <trkpt lat="37.8612654191" lon="-2.9681984615">
        <ele>1222.45</ele>
        <time>2017-10-08T10:18:27Z</time>
      </trkpt>
      <trkpt lat="37.8613254335" lon="-2.9681535345">
        <ele>1221.97</ele>
        <time>2017-10-08T10:18:28Z</time>
      </trkpt>
      <trkpt lat="37.8613853641" lon="-2.9681155644">
        <ele>1221.49</ele>
        <time>2017-10-08T10:18:29Z</time>
      </trkpt>
      <trkpt lat="37.8614402656" lon="-2.9680752475">
        <ele>1221.01</ele>
        <time>2017-10-08T10:18:30Z</time>
      </trkpt>
      <trkpt lat="37.8614917304" lon="-2.9680278059">
        <ele>1221.01</ele>
        <time>2017-10-08T10:18:31Z</time>
      </trkpt>
      <trkpt lat="37.8615400940" lon="-2.9679708090">
        <ele>1220.53</ele>
        <time>2017-10-08T10:18:32Z</time>
      </trkpt>
      <trkpt lat="37.8615837637" lon="-2.9679088667">
        <ele>1220.05</ele>
        <time>2017-10-08T10:18:33Z</time>
      </trkpt>
      <trkpt lat="37.8616216499" lon="-2.9678415600">
        <ele>1219.09</ele>
        <time>2017-10-08T10:18:34Z</time>
      </trkpt>
      <trkpt lat="37.8616534173" lon="-2.9677657876">
        <ele>1219.09</ele>
        <time>2017-10-08T10:18:35Z</time>
      </trkpt>
      <trkpt lat="37.8616803233" lon="-2.9676890094">
        <ele>1219.09</ele>
        <time>2017-10-08T10:18:36Z</time>
      </trkpt>
      <trkpt lat="37.8617374040" lon="-2.9675538931">
        <ele>1218.13</ele>
        <time>2017-10-08T10:18:38Z</time>
      </trkpt>
      <trkpt lat="37.8617764637" lon="-2.9674957227">
        <ele>1217.17</ele>
        <time>2017-10-08T10:18:39Z</time>
      </trkpt>
      <trkpt lat="37.8618261684" lon="-2.9674487840">
        <ele>1216.69</ele>
        <time>2017-10-08T10:18:40Z</time>
      </trkpt>
      <trkpt lat="37.8618875239" lon="-2.9674140830">
        <ele>1216.21</ele>
        <time>2017-10-08T10:18:41Z</time>
      </trkpt>
      <trkpt lat="37.8619529866" lon="-2.9673860874">
        <ele>1215.72</ele>
        <time>2017-10-08T10:18:42Z</time>
      </trkpt>
      <trkpt lat="37.8620214667" lon="-2.9673636239">
        <ele>1215.72</ele>
        <time>2017-10-08T10:18:43Z</time>
      </trkpt>
      <trkpt lat="37.8620955627" lon="-2.9673481174">
        <ele>1215.72</ele>
        <time>2017-10-08T10:18:44Z</time>
      </trkpt>
      <trkpt lat="37.8624470998" lon="-2.9672955628">
        <ele>1212.36</ele>
        <time>2017-10-08T10:18:49Z</time>
      </trkpt>
      <trkpt lat="37.8630164824" lon="-2.9671868496">
        <ele>1209.48</ele>
        <time>2017-10-08T10:18:56Z</time>
      </trkpt>
      <trkpt lat="37.8630897403" lon="-2.9671531543">
        <ele>1209.48</ele>
        <time>2017-10-08T10:18:57Z</time>
      </trkpt>
      <trkpt lat="37.8633264452" lon="-2.9670399148">
        <ele>1208.03</ele>
        <time>2017-10-08T10:19:00Z</time>
      </trkpt>
      <trkpt lat="37.8634085879" lon="-2.9670172837">
        <ele>1207.07</ele>
        <time>2017-10-08T10:19:01Z</time>
      </trkpt>
      <trkpt lat="37.8635673411" lon="-2.9669862706">
        <ele>1206.59</ele>
        <time>2017-10-08T10:19:03Z</time>
      </trkpt>
      <trkpt lat="37.8639744502" lon="-2.9668631405">
        <ele>1203.23</ele>
        <time>2017-10-08T10:19:09Z</time>
      </trkpt>
      <trkpt lat="37.8640332911" lon="-2.9668432754">
        <ele>1203.23</ele>
        <time>2017-10-08T10:19:10Z</time>
      </trkpt>
      <trkpt lat="37.8644049447" lon="-2.9666884616">
        <ele>1200.34</ele>
        <time>2017-10-08T10:19:17Z</time>
      </trkpt>
      <trkpt lat="37.8644543141" lon="-2.9666559398">
        <ele>1200.34</ele>
        <time>2017-10-08T10:19:18Z</time>
      </trkpt>
      <trkpt lat="37.8646336868" lon="-2.9665742163">
        <ele>1198.90</ele>
        <time>2017-10-08T10:19:21Z</time>
      </trkpt>
      <trkpt lat="37.8648649435" lon="-2.9665177222">
        <ele>1197.46</ele>
        <time>2017-10-08T10:19:25Z</time>
      </trkpt>
      <trkpt lat="37.8649171628" lon="-2.9665195663">
        <ele>1196.98</ele>
        <time>2017-10-08T10:19:26Z</time>
      </trkpt>
      <trkpt lat="37.8649708908" lon="-2.9665316362">
        <ele>1196.98</ele>
        <time>2017-10-08T10:19:27Z</time>
      </trkpt>
      <trkpt lat="37.8650234453" lon="-2.9665533453">
        <ele>1196.50</ele>
        <time>2017-10-08T10:19:28Z</time>
      </trkpt>
      <trkpt lat="37.8650696296" lon="-2.9665752221">
        <ele>1196.50</ele>
        <time>2017-10-08T10:19:29Z</time>
      </trkpt>
      <trkpt lat="37.8651106171" lon="-2.9665978532">
        <ele>1196.02</ele>
        <time>2017-10-08T10:19:30Z</time>
      </trkpt>
      <trkpt lat="37.8651905805" lon="-2.9666451272">
        <ele>1194.58</ele>
        <time>2017-10-08T10:19:35Z</time>
      </trkpt>
      <trkpt lat="37.8651825339" lon="-2.9666566104">
        <ele>1194.58</ele>
        <time>2017-10-08T10:19:36Z</time>
      </trkpt>
      <trkpt lat="37.8651864734" lon="-2.9666699376">
        <ele>1194.58</ele>
        <time>2017-10-08T10:19:37Z</time>
      </trkpt>
      <trkpt lat="37.8653726354" lon="-2.9668160342">
        <ele>1193.13</ele>
        <time>2017-10-08T10:19:43Z</time>
      </trkpt>
      <trkpt lat="37.8654049058" lon="-2.9668447841">
        <ele>1193.13</ele>
        <time>2017-10-08T10:19:44Z</time>
      </trkpt>
      <trkpt lat="37.8654289618" lon="-2.9668601230">
        <ele>1192.65</ele>
        <time>2017-10-08T10:19:45Z</time>
      </trkpt>
      <trkpt lat="37.8655189835" lon="-2.9668820836">
        <ele>1192.17</ele>
        <time>2017-10-08T10:19:51Z</time>
      </trkpt>
      <trkpt lat="37.8655505832" lon="-2.9668752104">
        <ele>1192.17</ele>
        <time>2017-10-08T10:19:52Z</time>
      </trkpt>
      <trkpt lat="37.8655869607" lon="-2.9668585304">
        <ele>1192.17</ele>
        <time>2017-10-08T10:19:53Z</time>
      </trkpt>
      <trkpt lat="37.8658263478" lon="-2.9667022917">
        <ele>1191.21</ele>
        <time>2017-10-08T10:19:59Z</time>
      </trkpt>
      <trkpt lat="37.8658695146" lon="-2.9666776489">
        <ele>1190.73</ele>
        <time>2017-10-08T10:20:00Z</time>
      </trkpt>
      <trkpt lat="37.8660444450" lon="-2.9665723722">
        <ele>1190.25</ele>
        <time>2017-10-08T10:20:04Z</time>
      </trkpt>
      <trkpt lat="37.8663028590" lon="-2.9665004555">
        <ele>1189.77</ele>
        <time>2017-10-08T10:20:10Z</time>
      </trkpt>
      <trkpt lat="37.8663486242" lon="-2.9665010422">
        <ele>1190.25</ele>
        <time>2017-10-08T10:20:11Z</time>
      </trkpt>
      <trkpt lat="37.8663928807" lon="-2.9665074125">
        <ele>1189.77</ele>
        <time>2017-10-08T10:20:12Z</time>
      </trkpt>
      <trkpt lat="37.8664726764" lon="-2.9665374197">
        <ele>1189.77</ele>
        <time>2017-10-08T10:20:14Z</time>
      </trkpt>
      <trkpt lat="37.8665055335" lon="-2.9665564466">
        <ele>1189.77</ele>
        <time>2017-10-08T10:20:15Z</time>
      </trkpt>
      <trkpt lat="37.8665411565" lon="-2.9665671755">
        <ele>1189.77</ele>
        <time>2017-10-08T10:20:16Z</time>
      </trkpt>
      <trkpt lat="37.8665751033" lon="-2.9665834364">
        <ele>1189.77</ele>
        <time>2017-10-08T10:20:17Z</time>
      </trkpt>
      <trkpt lat="37.8666072898" lon="-2.9665995296">
        <ele>1189.77</ele>
        <time>2017-10-08T10:20:18Z</time>
      </trkpt>
      <trkpt lat="37.8666464332" lon="-2.9666071571">
        <ele>1189.77</ele>
        <time>2017-10-08T10:20:19Z</time>
      </trkpt>
      <trkpt lat="37.8666876722" lon="-2.9666105099">
        <ele>1189.77</ele>
        <time>2017-10-08T10:20:20Z</time>
      </trkpt>
      <trkpt lat="37.8669941984" lon="-2.9665376712">
        <ele>1188.81</ele>
        <time>2017-10-08T10:20:28Z</time>
      </trkpt>
      <trkpt lat="37.8672296461" lon="-2.9661380220">
        <ele>1189.77</ele>
        <time>2017-10-08T10:20:38Z</time>
      </trkpt>
      <trkpt lat="37.8673075140" lon="-2.9660101980">
        <ele>1189.77</ele>
        <time>2017-10-08T10:20:41Z</time>
      </trkpt>
      <trkpt lat="37.8673376888" lon="-2.9659728147">
        <ele>1189.77</ele>
        <time>2017-10-08T10:20:42Z</time>
      </trkpt>
      <trkpt lat="37.8674061690" lon="-2.9659056757">
        <ele>1189.77</ele>
        <time>2017-10-08T10:20:44Z</time>
      </trkpt>
      <trkpt lat="37.8674436361" lon="-2.9658764228">
        <ele>1190.73</ele>
        <time>2017-10-08T10:20:45Z</time>
      </trkpt>
      <trkpt lat="37.8674811870" lon="-2.9658511933">
        <ele>1189.77</ele>
        <time>2017-10-08T10:20:46Z</time>
      </trkpt>
      <trkpt lat="37.8675180674" lon="-2.9658303224">
        <ele>1190.25</ele>
        <time>2017-10-08T10:20:47Z</time>
      </trkpt>
      <trkpt lat="37.8675565403" lon="-2.9658118822">
        <ele>1190.25</ele>
        <time>2017-10-08T10:20:48Z</time>
      </trkpt>
      <trkpt lat="37.8680188023" lon="-2.9656185955">
        <ele>1190.25</ele>
        <time>2017-10-08T10:21:00Z</time>
      </trkpt>
      <trkpt lat="37.8682291880" lon="-2.9653823934">
        <ele>1189.77</ele>
        <time>2017-10-08T10:21:07Z</time>
      </trkpt>
      <trkpt lat="37.8682575189" lon="-2.9653445911">
        <ele>1190.25</ele>
        <time>2017-10-08T10:21:08Z</time>
      </trkpt>
      <trkpt lat="37.8683185391" lon="-2.9652602691">
        <ele>1189.77</ele>
        <time>2017-10-08T10:21:10Z</time>
      </trkpt>
      <trkpt lat="37.8683763742" lon="-2.9651710857">
        <ele>1189.77</ele>
        <time>2017-10-08T10:21:12Z</time>
      </trkpt>
      <trkpt lat="37.8684088122" lon="-2.9651298467">
        <ele>1189.77</ele>
        <time>2017-10-08T10:21:13Z</time>
      </trkpt>
      <trkpt lat="37.8687729221" lon="-2.9647623841">
        <ele>1189.77</ele>
        <time>2017-10-08T10:21:24Z</time>
      </trkpt>
      <trkpt lat="37.8690773528" lon="-2.9646197241">
        <ele>1189.77</ele>
        <time>2017-10-08T10:21:33Z</time>
      </trkpt>
      <trkpt lat="37.8694223519" lon="-2.9643924907">
        <ele>1188.33</ele>
        <time>2017-10-08T10:21:43Z</time>
      </trkpt>
      <trkpt lat="37.8694481682" lon="-2.9643508326">
        <ele>1188.33</ele>
        <time>2017-10-08T10:21:44Z</time>
      </trkpt>
      <trkpt lat="37.8694658540" lon="-2.9643059894">
        <ele>1188.33</ele>
        <time>2017-10-08T10:21:45Z</time>
      </trkpt>
      <trkpt lat="37.8695452306" lon="-2.9639086872">
        <ele>1186.88</ele>
        <time>2017-10-08T10:21:55Z</time>
      </trkpt>
      <trkpt lat="37.8696036525" lon="-2.9634250514">
        <ele>1185.92</ele>
        <time>2017-10-08T10:22:06Z</time>
      </trkpt>
      <trkpt lat="37.8697803430" lon="-2.9629927967">
        <ele>1185.44</ele>
        <time>2017-10-08T10:22:16Z</time>
      </trkpt>
      <trkpt lat="37.8698775731" lon="-2.9628882743">
        <ele>1184.48</ele>
        <time>2017-10-08T10:22:19Z</time>
      </trkpt>
      <trkpt lat="37.8700044751" lon="-2.9628098197">
        <ele>1184.48</ele>
        <time>2017-10-08T10:22:22Z</time>
      </trkpt>
      <trkpt lat="37.8700506594" lon="-2.9627858475">
        <ele>1184.00</ele>
        <time>2017-10-08T10:22:23Z</time>
      </trkpt>
      <trkpt lat="37.8701519966" lon="-2.9627229832">
        <ele>1183.04</ele>
        <time>2017-10-08T10:22:25Z</time>
      </trkpt>
      <trkpt lat="37.8701993544" lon="-2.9626846779">
        <ele>1182.56</ele>
        <time>2017-10-08T10:22:26Z</time>
      </trkpt>
      <trkpt lat="37.8702441137" lon="-2.9626438580">
        <ele>1182.08</ele>
        <time>2017-10-08T10:22:27Z</time>
      </trkpt>
      <trkpt lat="37.8702861909" lon="-2.9625976738">
        <ele>1182.08</ele>
        <time>2017-10-08T10:22:28Z</time>
      </trkpt>
      <trkpt lat="37.8703225683" lon="-2.9625477176">
        <ele>1182.08</ele>
        <time>2017-10-08T10:22:29Z</time>
      </trkpt>
      <trkpt lat="37.8704154398" lon="-2.9624131881">
        <ele>1182.08</ele>
        <time>2017-10-08T10:22:32Z</time>
      </trkpt>
      <trkpt lat="37.8704501409" lon="-2.9623760562">
        <ele>1182.08</ele>
        <time>2017-10-08T10:22:33Z</time>
      </trkpt>
      <trkpt lat="37.8704876080" lon="-2.9623431154">
        <ele>1181.60</ele>
        <time>2017-10-08T10:22:34Z</time>
      </trkpt>
      <trkpt lat="37.8705622908" lon="-2.9622702766">
        <ele>1181.60</ele>
        <time>2017-10-08T10:22:36Z</time>
      </trkpt>
      <trkpt lat="37.8705969080" lon="-2.9622304626">
        <ele>1181.12</ele>
        <time>2017-10-08T10:22:37Z</time>
      </trkpt>
      <trkpt lat="37.8706374764" lon="-2.9621973541">
        <ele>1180.64</ele>
        <time>2017-10-08T10:22:38Z</time>
      </trkpt>
      <trkpt lat="37.8706821520" lon="-2.9621629883">
        <ele>1180.64</ele>
        <time>2017-10-08T10:22:39Z</time>
      </trkpt>
      <trkpt lat="37.8707269114" lon="-2.9621263593">
        <ele>1180.16</ele>
        <time>2017-10-08T10:22:40Z</time>
      </trkpt>
      <trkpt lat="37.8710251395" lon="-2.9619061667">
        <ele>1178.23</ele>
        <time>2017-10-08T10:22:48Z</time>
      </trkpt>
      <trkpt lat="37.8710678034" lon="-2.9619382694">
        <ele>1177.75</ele>
        <time>2017-10-08T10:22:54Z</time>
      </trkpt>
      <trkpt lat="37.8710901830" lon="-2.9619309772">
        <ele>1177.75</ele>
        <time>2017-10-08T10:23:05Z</time>
      </trkpt>
      <trkpt lat="37.8712238744" lon="-2.9618845414">
        <ele>1176.79</ele>
        <time>2017-10-08T10:23:13Z</time>
      </trkpt>
      <trkpt lat="37.8713975474" lon="-2.9618486669">
        <ele>1175.83</ele>
        <time>2017-10-08T10:23:20Z</time>
      </trkpt>
      <trkpt lat="37.8718091827" lon="-2.9618427157">
        <ele>1173.91</ele>
        <time>2017-10-08T10:23:31Z</time>
      </trkpt>
      <trkpt lat="37.8718879726" lon="-2.9618319869">
        <ele>1173.43</ele>
        <time>2017-10-08T10:23:33Z</time>
      </trkpt>
      <trkpt lat="37.8719301336" lon="-2.9618163966">
        <ele>1173.43</ele>
        <time>2017-10-08T10:23:34Z</time>
      </trkpt>
      <trkpt lat="37.8719721269" lon="-2.9617926758">
        <ele>1172.95</ele>
        <time>2017-10-08T10:23:35Z</time>
      </trkpt>
      <trkpt lat="37.8720133658" lon="-2.9617617466">
        <ele>1172.95</ele>
        <time>2017-10-08T10:23:36Z</time>
      </trkpt>
      <trkpt lat="37.8720524255" lon="-2.9617221002">
        <ele>1172.47</ele>
        <time>2017-10-08T10:23:37Z</time>
      </trkpt>
      <trkpt lat="37.8720884677" lon="-2.9616777599">
        <ele>1172.47</ele>
        <time>2017-10-08T10:23:38Z</time>
      </trkpt>
      <trkpt lat="37.8721215762" lon="-2.9616301507">
        <ele>1171.98</ele>
        <time>2017-10-08T10:23:39Z</time>
      </trkpt>
      <trkpt lat="37.8721546009" lon="-2.9615795240">
        <ele>1171.50</ele>
        <time>2017-10-08T10:23:40Z</time>
      </trkpt>
      <trkpt lat="37.8721881285" lon="-2.9615283944">
        <ele>1171.50</ele>
        <time>2017-10-08T10:23:41Z</time>
      </trkpt>
      <trkpt lat="37.8722220752" lon="-2.9614750016">
        <ele>1171.50</ele>
        <time>2017-10-08T10:23:42Z</time>
      </trkpt>
      <trkpt lat="37.8723559342" lon="-2.9612748418">
        <ele>1170.06</ele>
        <time>2017-10-08T10:23:46Z</time>
      </trkpt>
      <trkpt lat="37.8723911382" lon="-2.9612342734">
        <ele>1170.06</ele>
        <time>2017-10-08T10:23:47Z</time>
      </trkpt>
      <trkpt lat="37.8724258393" lon="-2.9611977283">
        <ele>1169.58</ele>
        <time>2017-10-08T10:23:48Z</time>
      </trkpt>
      <trkpt lat="37.8724612109" lon="-2.9611693136">
        <ele>1169.58</ele>
        <time>2017-10-08T10:23:49Z</time>
      </trkpt>
      <trkpt lat="37.8724960797" lon="-2.9611460119">
        <ele>1169.58</ele>
        <time>2017-10-08T10:23:50Z</time>
      </trkpt>
      <trkpt lat="37.8728693258" lon="-2.9609008413">
        <ele>1167.18</ele>
        <time>2017-10-08T10:23:59Z</time>
      </trkpt>
      <trkpt lat="37.8732496127" lon="-2.9605194647">
        <ele>1164.77</ele>
        <time>2017-10-08T10:24:08Z</time>
      </trkpt>
      <trkpt lat="37.8732871637" lon="-2.9604747891">
        <ele>1164.77</ele>
        <time>2017-10-08T10:24:09Z</time>
      </trkpt>
      <trkpt lat="37.8733191825" lon="-2.9604347236">
        <ele>1164.29</ele>
        <time>2017-10-08T10:24:10Z</time>
      </trkpt>
      <trkpt lat="37.8734375350" lon="-2.9602649901">
        <ele>1163.81</ele>
        <time>2017-10-08T10:24:14Z</time>
      </trkpt>
      <trkpt lat="37.8737980407" lon="-2.9597189091">
        <ele>1160.93</ele>
        <time>2017-10-08T10:24:24Z</time>
      </trkpt>
      <trkpt lat="37.8740909882" lon="-2.9593397956">
        <ele>1159.01</ele>
        <time>2017-10-08T10:24:31Z</time>
      </trkpt>
      <trkpt lat="37.8741375916" lon="-2.9593087826">
        <ele>1158.53</ele>
        <time>2017-10-08T10:24:32Z</time>
      </trkpt>
      <trkpt lat="37.8741853684" lon="-2.9592865705">
        <ele>1158.53</ele>
        <time>2017-10-08T10:24:33Z</time>
      </trkpt>
      <trkpt lat="37.8742819279" lon="-2.9592478462">
        <ele>1158.05</ele>
        <time>2017-10-08T10:24:35Z</time>
      </trkpt>
      <trkpt lat="37.8744219057" lon="-2.9592071101">
        <ele>1157.56</ele>
        <time>2017-10-08T10:24:38Z</time>
      </trkpt>
      <trkpt lat="37.8744703531" lon="-2.9591923580">
        <ele>1157.56</ele>
        <time>2017-10-08T10:24:39Z</time>
      </trkpt>
      <trkpt lat="37.8745179623" lon="-2.9591828864">
        <ele>1157.56</ele>
        <time>2017-10-08T10:24:40Z</time>
      </trkpt>
      <trkpt lat="37.8745637275" lon="-2.9591738340">
        <ele>1157.56</ele>
        <time>2017-10-08T10:24:41Z</time>
      </trkpt>
      <trkpt lat="37.8746077325" lon="-2.9591605905">
        <ele>1157.08</ele>
        <time>2017-10-08T10:24:42Z</time>
      </trkpt>
      <trkpt lat="37.8747353051" lon="-2.9591253866">
        <ele>1158.05</ele>
        <time>2017-10-08T10:24:45Z</time>
      </trkpt>
      <trkpt lat="37.8747752868" lon="-2.9591145739">
        <ele>1157.08</ele>
        <time>2017-10-08T10:24:46Z</time>
      </trkpt>
      <trkpt lat="37.8750699945" lon="-2.9590755142">
        <ele>1157.08</ele>
        <time>2017-10-08T10:24:54Z</time>
      </trkpt>
      <trkpt lat="37.8754496109" lon="-2.9589991551">
        <ele>1157.56</ele>
        <time>2017-10-08T10:25:04Z</time>
      </trkpt>
      <trkpt lat="37.8758158162" lon="-2.9589050263">
        <ele>1157.56</ele>
        <time>2017-10-08T10:25:14Z</time>
      </trkpt>
      <trkpt lat="37.8761779144" lon="-2.9587043636">
        <ele>1158.05</ele>
        <time>2017-10-08T10:25:25Z</time>
      </trkpt>
      <trkpt lat="37.8764691018" lon="-2.9585233144">
        <ele>1158.05</ele>
        <time>2017-10-08T10:25:34Z</time>
      </trkpt>
      <trkpt lat="37.8767089080" lon="-2.9583653156">
        <ele>1158.05</ele>
        <time>2017-10-08T10:25:43Z</time>
      </trkpt>
      <trkpt lat="37.8770266660" lon="-2.9581750464">
        <ele>1158.05</ele>
        <time>2017-10-08T10:25:55Z</time>
      </trkpt>
      <trkpt lat="37.8772305977" lon="-2.9580943286">
        <ele>1158.05</ele>
        <time>2017-10-08T10:26:05Z</time>
      </trkpt>
      <trkpt lat="37.8772331122" lon="-2.9580924846">
        <ele>1158.05</ele>
        <time>2017-10-08T10:26:20Z</time>
      </trkpt>
      <trkpt lat="37.8772445116" lon="-2.9580852762">
        <ele>1158.05</ele>
        <time>2017-10-08T10:26:22Z</time>
      </trkpt>
      <trkpt lat="37.8772587609" lon="-2.9580807500">
        <ele>1158.05</ele>
        <time>2017-10-08T10:26:23Z</time>
      </trkpt>
      <trkpt lat="37.8772756923" lon="-2.9580815043">
        <ele>1158.05</ele>
        <time>2017-10-08T10:26:24Z</time>
      </trkpt>
      <trkpt lat="37.8772967309" lon="-2.9580851924">
        <ele>1158.53</ele>
        <time>2017-10-08T10:26:25Z</time>
      </trkpt>
      <trkpt lat="37.8773192782" lon="-2.9580812529">
        <ele>1158.05</ele>
        <time>2017-10-08T10:26:26Z</time>
      </trkpt>
      <trkpt lat="37.8773450106" lon="-2.9580752179">
        <ele>1158.05</ele>
        <time>2017-10-08T10:26:27Z</time>
      </trkpt>
      <trkpt lat="37.8773729224" lon="-2.9580720328">
        <ele>1158.05</ele>
        <time>2017-10-08T10:26:28Z</time>
      </trkpt>
      <trkpt lat="37.8773995768" lon="-2.9580762237">
        <ele>1158.05</ele>
        <time>2017-10-08T10:26:29Z</time>
      </trkpt>
      <trkpt lat="37.8774248064" lon="-2.9580846895">
        <ele>1158.53</ele>
        <time>2017-10-08T10:26:30Z</time>
      </trkpt>
      <trkpt lat="37.8774489462" lon="-2.9580843542">
        <ele>1158.53</ele>
        <time>2017-10-08T10:26:31Z</time>
      </trkpt>
      <trkpt lat="37.8774682246" lon="-2.9580769781">
        <ele>1158.05</ele>
        <time>2017-10-08T10:26:32Z</time>
      </trkpt>
      <trkpt lat="37.8774874192" lon="-2.9580611363">
        <ele>1158.05</ele>
        <time>2017-10-08T10:26:33Z</time>
      </trkpt>
      <trkpt lat="37.8775093798" lon="-2.9580437019">
        <ele>1158.05</ele>
        <time>2017-10-08T10:26:34Z</time>
      </trkpt>
      <trkpt lat="37.8775335196" lon="-2.9580302909">
        <ele>1158.05</ele>
        <time>2017-10-08T10:26:35Z</time>
      </trkpt>
      <trkpt lat="37.8775606770" lon="-2.9580166284">
        <ele>1158.05</ele>
        <time>2017-10-08T10:26:36Z</time>
      </trkpt>
      <trkpt lat="37.8778384533" lon="-2.9578334000">
        <ele>1157.08</ele>
        <time>2017-10-08T10:26:45Z</time>
      </trkpt>
      <trkpt lat="37.8782079276" lon="-2.9577656742">
        <ele>1153.72</ele>
        <time>2017-10-08T10:26:55Z</time>
      </trkpt>
      <trkpt lat="37.8783348296" lon="-2.9577435460">
        <ele>1153.24</ele>
        <time>2017-10-08T10:26:58Z</time>
      </trkpt>
      <trkpt lat="37.8783825226" lon="-2.9577308893">
        <ele>1152.28</ele>
        <time>2017-10-08T10:26:59Z</time>
      </trkpt>
      <trkpt lat="37.8785212431" lon="-2.9576774966">
        <ele>1151.80</ele>
        <time>2017-10-08T10:27:02Z</time>
      </trkpt>
      <trkpt lat="37.8789401706" lon="-2.9574712180">
        <ele>1148.91</ele>
        <time>2017-10-08T10:27:10Z</time>
      </trkpt>
      <trkpt lat="37.8793504648" lon="-2.9573490936">
        <ele>1145.55</ele>
        <time>2017-10-08T10:27:16Z</time>
      </trkpt>
      <trkpt lat="37.8797654528" lon="-2.9572089482">
        <ele>1142.18</ele>
        <time>2017-10-08T10:27:22Z</time>
      </trkpt>
      <trkpt lat="37.8801727295" lon="-2.9570700601">
        <ele>1139.30</ele>
        <time>2017-10-08T10:27:28Z</time>
      </trkpt>
      <trkpt lat="37.8802371863" lon="-2.9570480995">
        <ele>1138.82</ele>
        <time>2017-10-08T10:27:29Z</time>
      </trkpt>
      <trkpt lat="37.8806206584" lon="-2.9568520468">
        <ele>1135.45</ele>
        <time>2017-10-08T10:27:35Z</time>
      </trkpt>
      <trkpt lat="37.8810561821" lon="-2.9566580895">
        <ele>1132.57</ele>
        <time>2017-10-08T10:27:42Z</time>
      </trkpt>
      <trkpt lat="37.8812210541" lon="-2.9565898608">
        <ele>1130.65</ele>
        <time>2017-10-08T10:27:45Z</time>
      </trkpt>
      <trkpt lat="37.8813782986" lon="-2.9565169383">
        <ele>1129.69</ele>
        <time>2017-10-08T10:27:48Z</time>
      </trkpt>
      <trkpt lat="37.8814274166" lon="-2.9564978275">
        <ele>1129.21</ele>
        <time>2017-10-08T10:27:49Z</time>
      </trkpt>
      <trkpt lat="37.8814739361" lon="-2.9564796388">
        <ele>1129.21</ele>
        <time>2017-10-08T10:27:50Z</time>
      </trkpt>
      <trkpt lat="37.8816320188" lon="-2.9564461950">
        <ele>1128.24</ele>
        <time>2017-10-08T10:27:53Z</time>
      </trkpt>
      <trkpt lat="37.8817766067" lon="-2.9564008489">
        <ele>1126.80</ele>
        <time>2017-10-08T10:27:56Z</time>
      </trkpt>
      <trkpt lat="37.8818289936" lon="-2.9563788045">
        <ele>1126.80</ele>
        <time>2017-10-08T10:27:57Z</time>
      </trkpt>
      <trkpt lat="37.8818828892" lon="-2.9563501384">
        <ele>1125.84</ele>
        <time>2017-10-08T10:27:58Z</time>
      </trkpt>
      <trkpt lat="37.8821665328" lon="-2.9561585281">
        <ele>1124.40</ele>
        <time>2017-10-08T10:28:03Z</time>
      </trkpt>
      <trkpt lat="37.8827548586" lon="-2.9557281174">
        <ele>1121.52</ele>
        <time>2017-10-08T10:28:12Z</time>
      </trkpt>
      <trkpt lat="37.8832317889" lon="-2.9554764088">
        <ele>1118.15</ele>
        <time>2017-10-08T10:28:19Z</time>
      </trkpt>
      <trkpt lat="37.8833519015" lon="-2.9553738143">
        <ele>1117.19</ele>
        <time>2017-10-08T10:28:21Z</time>
      </trkpt>
      <trkpt lat="37.8836637922" lon="-2.9551025759">
        <ele>1115.75</ele>
        <time>2017-10-08T10:28:26Z</time>
      </trkpt>
      <trkpt lat="37.8841745015" lon="-2.9548297450">
        <ele>1112.38</ele>
        <time>2017-10-08T10:28:33Z</time>
      </trkpt>
      <trkpt lat="37.8846865520" lon="-2.9546020087">
        <ele>1109.50</ele>
        <time>2017-10-08T10:28:40Z</time>
      </trkpt>
      <trkpt lat="37.8852568567" lon="-2.9543016013">
        <ele>1105.65</ele>
        <time>2017-10-08T10:28:48Z</time>
      </trkpt>
      <trkpt lat="37.8853190504" lon="-2.9542385694">
        <ele>1105.17</ele>
        <time>2017-10-08T10:28:49Z</time>
      </trkpt>
      <trkpt lat="37.8854376543" lon="-2.9541140143">
        <ele>1104.21</ele>
        <time>2017-10-08T10:28:51Z</time>
      </trkpt>
      <trkpt lat="37.8855025303" lon="-2.9540626332">
        <ele>1104.21</ele>
        <time>2017-10-08T10:28:52Z</time>
      </trkpt>
      <trkpt lat="37.8855710942" lon="-2.9540175386">
        <ele>1103.73</ele>
        <time>2017-10-08T10:28:53Z</time>
      </trkpt>
      <trkpt lat="37.8857078031" lon="-2.9539370723">
        <ele>1102.77</ele>
        <time>2017-10-08T10:28:55Z</time>
      </trkpt>
      <trkpt lat="37.8858294245" lon="-2.9538875353">
        <ele>1101.81</ele>
        <time>2017-10-08T10:28:57Z</time>
      </trkpt>
      <trkpt lat="37.8860507905" lon="-2.9538520798">
        <ele>1100.37</ele>
        <time>2017-10-08T10:29:03Z</time>
      </trkpt>
      <trkpt lat="37.8861763515" lon="-2.9539333843">
        <ele>1099.40</ele>
        <time>2017-10-08T10:29:07Z</time>
      </trkpt>
      <trkpt lat="37.8862216976" lon="-2.9540197179">
        <ele>1098.92</ele>
        <time>2017-10-08T10:29:09Z</time>
      </trkpt>
      <trkpt lat="37.8862812929" lon="-2.9541180376">
        <ele>1098.44</ele>
        <time>2017-10-08T10:29:11Z</time>
      </trkpt>
      <trkpt lat="37.8863166645" lon="-2.9541601986">
        <ele>1097.96</ele>
        <time>2017-10-08T10:29:12Z</time>
      </trkpt>
      <trkpt lat="37.8863569815" lon="-2.9541922174">
        <ele>1097.96</ele>
        <time>2017-10-08T10:29:13Z</time>
      </trkpt>
      <trkpt lat="37.8863991424" lon="-2.9542107414">
        <ele>1097.96</ele>
        <time>2017-10-08T10:29:14Z</time>
      </trkpt>
      <trkpt lat="37.8864452429" lon="-2.9542234819">
        <ele>1097.96</ele>
        <time>2017-10-08T10:29:15Z</time>
      </trkpt>
      <trkpt lat="37.8864924330" lon="-2.9542301036">
        <ele>1097.48</ele>
        <time>2017-10-08T10:29:16Z</time>
      </trkpt>
      <trkpt lat="37.8866021521" lon="-2.9541957378">
        <ele>1097.48</ele>
        <time>2017-10-08T10:29:19Z</time>
      </trkpt>
      <trkpt lat="37.8866187483" lon="-2.9541679937">
        <ele>1097.48</ele>
        <time>2017-10-08T10:29:20Z</time>
      </trkpt>
      <trkpt lat="37.8866622504" lon="-2.9538360704">
        <ele>1097.48</ele>
        <time>2017-10-08T10:29:28Z</time>
      </trkpt>
      <trkpt lat="37.8868666012" lon="-2.9533711262">
        <ele>1097.96</ele>
        <time>2017-10-08T10:29:38Z</time>
      </trkpt>
      <trkpt lat="37.8869448882" lon="-2.9530541226">
        <ele>1098.44</ele>
        <time>2017-10-08T10:29:46Z</time>
      </trkpt>
      <trkpt lat="37.8869867977" lon="-2.9527460877">
        <ele>1098.92</ele>
        <time>2017-10-08T10:29:54Z</time>
      </trkpt>
      <trkpt lat="37.8870203253" lon="-2.9523405712">
        <ele>1098.92</ele>
        <time>2017-10-08T10:30:03Z</time>
      </trkpt>
      <trkpt lat="37.8870189842" lon="-2.9519187100">
        <ele>1098.44</ele>
        <time>2017-10-08T10:30:13Z</time>
      </trkpt>
      <trkpt lat="37.8869512584" lon="-2.9515614733">
        <ele>1098.92</ele>
        <time>2017-10-08T10:30:22Z</time>
      </trkpt>
      <trkpt lat="37.8869375959" lon="-2.9511939269">
        <ele>1099.40</ele>
        <time>2017-10-08T10:30:32Z</time>
      </trkpt>
      <trkpt lat="37.8869355004" lon="-2.9508496821">
        <ele>1099.89</ele>
        <time>2017-10-08T10:30:42Z</time>
      </trkpt>
      <trkpt lat="37.8870296292" lon="-2.9505601712">
        <ele>1100.37</ele>
        <time>2017-10-08T10:30:51Z</time>
      </trkpt>
      <trkpt lat="37.8872115165" lon="-2.9503476899">
        <ele>1101.81</ele>
        <time>2017-10-08T10:31:00Z</time>
      </trkpt>
      <trkpt lat="37.8873607982" lon="-2.9501838237">
        <ele>1102.77</ele>
        <time>2017-10-08T10:31:08Z</time>
      </trkpt>
      <trkpt lat="37.8874231596" lon="-2.9501314368">
        <ele>1102.77</ele>
        <time>2017-10-08T10:31:17Z</time>
      </trkpt>
      <trkpt lat="37.8875214793" lon="-2.9499728512">
        <ele>1103.73</ele>
        <time>2017-10-08T10:31:25Z</time>
      </trkpt>
      <trkpt lat="37.8877396602" lon="-2.9496958293">
        <ele>1102.29</ele>
        <time>2017-10-08T10:31:36Z</time>
      </trkpt>
      <trkpt lat="37.8877518978" lon="-2.9496751260">
        <ele>1105.65</ele>
        <time>2017-10-08T10:31:37Z</time>
      </trkpt>
      <trkpt lat="37.8878595214" lon="-2.9495371599">
        <ele>1105.17</ele>
        <time>2017-10-08T10:31:45Z</time>
      </trkpt>
      <trkpt lat="37.8879681509" lon="-2.9493270256">
        <ele>1106.13</ele>
        <time>2017-10-08T10:31:53Z</time>
      </trkpt>
      <trkpt lat="37.8881280776" lon="-2.9490371794">
        <ele>1107.10</ele>
        <time>2017-10-08T10:32:04Z</time>
      </trkpt>
      <trkpt lat="37.8883242980" lon="-2.9487817828">
        <ele>1108.54</ele>
        <time>2017-10-08T10:32:14Z</time>
      </trkpt>
      <trkpt lat="37.8885318339" lon="-2.9485140648">
        <ele>1109.02</ele>
        <time>2017-10-08T10:32:26Z</time>
      </trkpt>
      <trkpt lat="37.8887122124" lon="-2.9483569041">
        <ele>1110.46</ele>
        <time>2017-10-08T10:32:36Z</time>
      </trkpt>
      <trkpt lat="37.8889160603" lon="-2.9482371267">
        <ele>1110.94</ele>
        <time>2017-10-08T10:32:45Z</time>
      </trkpt>
      <trkpt lat="37.8890959360" lon="-2.9481067881">
        <ele>1111.90</ele>
        <time>2017-10-08T10:32:54Z</time>
      </trkpt>
      <trkpt lat="37.8891287930" lon="-2.9480694048">
        <ele>1111.90</ele>
        <time>2017-10-08T10:32:56Z</time>
      </trkpt>
      <trkpt lat="37.8891437966" lon="-2.9480478633">
        <ele>1111.90</ele>
        <time>2017-10-08T10:32:57Z</time>
      </trkpt>
      <trkpt lat="37.8893418610" lon="-2.9478847515">
        <ele>1113.34</ele>
        <time>2017-10-08T10:33:07Z</time>
      </trkpt>
      <trkpt lat="37.8895451222" lon="-2.9477890301">
        <ele>1113.82</ele>
        <time>2017-10-08T10:33:15Z</time>
      </trkpt>
      <trkpt lat="37.8895611316" lon="-2.9477852583">
        <ele>1113.82</ele>
        <time>2017-10-08T10:33:16Z</time>
      </trkpt>
      <trkpt lat="37.8895830084" lon="-2.9477808997">
        <ele>1113.82</ele>
        <time>2017-10-08T10:33:17Z</time>
      </trkpt>
      <trkpt lat="37.8896065615" lon="-2.9477715120">
        <ele>1113.82</ele>
        <time>2017-10-08T10:33:18Z</time>
      </trkpt>
      <trkpt lat="37.8896287736" lon="-2.9477577657">
        <ele>1113.82</ele>
        <time>2017-10-08T10:33:19Z</time>
      </trkpt>
      <trkpt lat="37.8896467108" lon="-2.9477426782">
        <ele>1114.31</ele>
        <time>2017-10-08T10:33:20Z</time>
      </trkpt>
      <trkpt lat="37.8896619659" lon="-2.9477242380">
        <ele>1114.31</ele>
        <time>2017-10-08T10:33:21Z</time>
      </trkpt>
      <trkpt lat="37.8896780591" lon="-2.9477040377">
        <ele>1114.31</ele>
        <time>2017-10-08T10:33:22Z</time>
      </trkpt>
      <trkpt lat="37.8896953259" lon="-2.9476802330">
        <ele>1114.31</ele>
        <time>2017-10-08T10:33:23Z</time>
      </trkpt>
      <trkpt lat="37.8898796439" lon="-2.9473986849">
        <ele>1115.75</ele>
        <time>2017-10-08T10:33:34Z</time>
      </trkpt>
      <trkpt lat="37.8900269140" lon="-2.9472817574">
        <ele>1116.23</ele>
        <time>2017-10-08T10:33:42Z</time>
      </trkpt>
      <trkpt lat="37.8902052809" lon="-2.9471888021">
        <ele>1117.19</ele>
        <time>2017-10-08T10:33:53Z</time>
      </trkpt>
      <trkpt lat="37.8903852403" lon="-2.9470106028">
        <ele>1118.15</ele>
        <time>2017-10-08T10:34:03Z</time>
      </trkpt>
      <trkpt lat="37.8905424010" lon="-2.9467376880">
        <ele>1117.19</ele>
        <time>2017-10-08T10:34:14Z</time>
      </trkpt>
      <trkpt lat="37.8905977216" lon="-2.9465274699">
        <ele>1120.07</ele>
        <time>2017-10-08T10:34:21Z</time>
      </trkpt>
      <trkpt lat="37.8906506952" lon="-2.9463502765">
        <ele>1119.59</ele>
        <time>2017-10-08T10:34:28Z</time>
      </trkpt>
      <trkpt lat="37.8906473424" lon="-2.9463263880">
        <ele>1120.55</ele>
        <time>2017-10-08T10:34:29Z</time>
      </trkpt>
      <trkpt lat="37.8906437382" lon="-2.9463021643">
        <ele>1120.55</ele>
        <time>2017-10-08T10:34:30Z</time>
      </trkpt>
      <trkpt lat="37.8906404693" lon="-2.9462799523">
        <ele>1120.07</ele>
        <time>2017-10-08T10:34:31Z</time>
      </trkpt>
      <trkpt lat="37.8906408884" lon="-2.9462572373">
        <ele>1120.55</ele>
        <time>2017-10-08T10:34:32Z</time>
      </trkpt>
      <trkpt lat="37.8906429000" lon="-2.9462395515">
        <ele>1120.55</ele>
        <time>2017-10-08T10:34:33Z</time>
      </trkpt>
      <trkpt lat="37.8906866536" lon="-2.9460208677">
        <ele>1121.03</ele>
        <time>2017-10-08T10:34:42Z</time>
      </trkpt>
      <trkpt lat="37.8907016572" lon="-2.9457527306">
        <ele>1122.00</ele>
        <time>2017-10-08T10:34:52Z</time>
      </trkpt>
      <trkpt lat="37.8907068539" lon="-2.9455135949">
        <ele>1122.96</ele>
        <time>2017-10-08T10:35:01Z</time>
      </trkpt>
      <trkpt lat="37.8906730749" lon="-2.9454330448">
        <ele>1123.44</ele>
        <time>2017-10-08T10:35:05Z</time>
      </trkpt>
      <trkpt lat="37.8906686325" lon="-2.9454073124">
        <ele>1123.44</ele>
        <time>2017-10-08T10:35:06Z</time>
      </trkpt>
      <trkpt lat="37.8906592447" lon="-2.9453857709">
        <ele>1123.44</ele>
        <time>2017-10-08T10:35:07Z</time>
      </trkpt>
      <trkpt lat="37.8906459175" lon="-2.9453649838">
        <ele>1123.92</ele>
        <time>2017-10-08T10:35:08Z</time>
      </trkpt>
      <trkpt lat="37.8906325903" lon="-2.9453407601">
        <ele>1123.92</ele>
        <time>2017-10-08T10:35:09Z</time>
      </trkpt>
      <trkpt lat="37.8906234540" lon="-2.9453151952">
        <ele>1123.92</ele>
        <time>2017-10-08T10:35:10Z</time>
      </trkpt>
      <trkpt lat="37.8906145692" lon="-2.9452650715">
        <ele>1123.92</ele>
        <time>2017-10-08T10:35:12Z</time>
      </trkpt>
      <trkpt lat="37.8906160779" lon="-2.9452385008">
        <ele>1123.92</ele>
        <time>2017-10-08T10:35:13Z</time>
      </trkpt>
      <trkpt lat="37.8906153236" lon="-2.9452117626">
        <ele>1124.40</ele>
        <time>2017-10-08T10:35:14Z</time>
      </trkpt>
      <trkpt lat="37.8906105459" lon="-2.9451877065">
        <ele>1124.40</ele>
        <time>2017-10-08T10:35:15Z</time>
      </trkpt>
      <trkpt lat="37.8906051815" lon="-2.9451655783">
        <ele>1124.88</ele>
        <time>2017-10-08T10:35:16Z</time>
      </trkpt>
      <trkpt lat="37.8906048462" lon="-2.9451445397">
        <ele>1124.40</ele>
        <time>2017-10-08T10:35:17Z</time>
      </trkpt>
      <trkpt lat="37.8906026669" lon="-2.9451234173">
        <ele>1124.88</ele>
        <time>2017-10-08T10:35:18Z</time>
      </trkpt>
      <trkpt lat="37.8906013258" lon="-2.9450978525">
        <ele>1124.88</ele>
        <time>2017-10-08T10:35:19Z</time>
      </trkpt>
      <trkpt lat="37.8905993141" lon="-2.9450755566">
        <ele>1124.88</ele>
        <time>2017-10-08T10:35:20Z</time>
      </trkpt>
      <trkpt lat="37.8906040080" lon="-2.9449765664">
        <ele>1125.36</ele>
        <time>2017-10-08T10:35:24Z</time>
      </trkpt>
      <trkpt lat="37.8906017449" lon="-2.9449541029">
        <ele>1125.36</ele>
        <time>2017-10-08T10:35:25Z</time>
      </trkpt>
      <trkpt lat="37.8905977216" lon="-2.9449289571">
        <ele>1125.36</ele>
        <time>2017-10-08T10:35:26Z</time>
      </trkpt>
      <trkpt lat="37.8905965481" lon="-2.9449071642">
        <ele>1125.36</ele>
        <time>2017-10-08T10:35:27Z</time>
      </trkpt>
      <trkpt lat="37.8905999847" lon="-2.9448839463">
        <ele>1125.36</ele>
        <time>2017-10-08T10:35:28Z</time>
      </trkpt>
      <trkpt lat="37.8906057682" lon="-2.9448559508">
        <ele>1125.36</ele>
        <time>2017-10-08T10:35:29Z</time>
      </trkpt>
      <trkpt lat="37.8906157427" lon="-2.9448272008">
        <ele>1125.84</ele>
        <time>2017-10-08T10:35:30Z</time>
      </trkpt>
      <trkpt lat="37.8906265553" lon="-2.9447982833">
        <ele>1125.36</ele>
        <time>2017-10-08T10:35:31Z</time>
      </trkpt>
      <trkpt lat="37.8906421456" lon="-2.9447710421">
        <ele>1125.84</ele>
        <time>2017-10-08T10:35:32Z</time>
      </trkpt>
      <trkpt lat="37.8906548023" lon="-2.9447489139">
        <ele>1125.84</ele>
        <time>2017-10-08T10:35:33Z</time>
      </trkpt>
      <trkpt lat="37.8906693868" lon="-2.9447245225">
        <ele>1125.84</ele>
        <time>2017-10-08T10:35:34Z</time>
      </trkpt>
      <trkpt lat="37.8908676188" lon="-2.9444592353">
        <ele>1125.84</ele>
        <time>2017-10-08T10:35:45Z</time>
      </trkpt>
      <trkpt lat="37.8910886496" lon="-2.9442879930">
        <ele>1125.36</ele>
        <time>2017-10-08T10:35:54Z</time>
      </trkpt>
      <trkpt lat="37.8913748916" lon="-2.9442403838">
        <ele>1124.40</ele>
        <time>2017-10-08T10:36:02Z</time>
      </trkpt>
      <trkpt lat="37.8915006202" lon="-2.9444581456">
        <ele>1124.40</ele>
        <time>2017-10-08T10:36:08Z</time>
      </trkpt>
      <trkpt lat="37.8914525080" lon="-2.9447372630">
        <ele>1122.96</ele>
        <time>2017-10-08T10:36:15Z</time>
      </trkpt>
      <trkpt lat="37.8914599679" lon="-2.9447929189">
        <ele>1122.96</ele>
        <time>2017-10-08T10:36:16Z</time>
      </trkpt>
      <trkpt lat="37.8914737981" lon="-2.9448453058">
        <ele>1122.48</ele>
        <time>2017-10-08T10:36:17Z</time>
      </trkpt>
      <trkpt lat="37.8915086668" lon="-2.9449457210">
        <ele>1122.00</ele>
        <time>2017-10-08T10:36:19Z</time>
      </trkpt>
      <trkpt lat="37.8915343992" lon="-2.9449939169">
        <ele>1122.00</ele>
        <time>2017-10-08T10:36:20Z</time>
      </trkpt>
      <trkpt lat="37.8915868700" lon="-2.9450955894">
        <ele>1121.52</ele>
        <time>2017-10-08T10:36:22Z</time>
      </trkpt>
      <trkpt lat="37.8916195594" lon="-2.9451475572">
        <ele>1121.52</ele>
        <time>2017-10-08T10:36:23Z</time>
      </trkpt>
      <trkpt lat="37.8916533384" lon="-2.9452030454">
        <ele>1121.03</ele>
        <time>2017-10-08T10:36:24Z</time>
      </trkpt>
      <trkpt lat="37.8917992674" lon="-2.9455425125">
        <ele>1120.07</ele>
        <time>2017-10-08T10:36:29Z</time>
      </trkpt>
      <trkpt lat="37.8918948211" lon="-2.9457448516">
        <ele>1119.11</ele>
        <time>2017-10-08T10:36:32Z</time>
      </trkpt>
      <trkpt lat="37.8919228166" lon="-2.9458202887">
        <ele>1118.63</ele>
        <time>2017-10-08T10:36:33Z</time>
      </trkpt>
      <trkpt lat="37.8919453640" lon="-2.9459025990">
        <ele>1118.63</ele>
        <time>2017-10-08T10:36:34Z</time>
      </trkpt>
      <trkpt lat="37.8919607028" lon="-2.9459922854">
        <ele>1118.15</ele>
        <time>2017-10-08T10:36:35Z</time>
      </trkpt>
      <trkpt lat="37.8919690009" lon="-2.9460821394">
        <ele>1117.19</ele>
        <time>2017-10-08T10:36:36Z</time>
      </trkpt>
      <trkpt lat="37.8919721022" lon="-2.9461710714">
        <ele>1116.71</ele>
        <time>2017-10-08T10:36:37Z</time>
      </trkpt>
      <trkpt lat="37.8919741977" lon="-2.9462626018">
        <ele>1116.23</ele>
        <time>2017-10-08T10:36:38Z</time>
      </trkpt>
      <trkpt lat="37.8920123354" lon="-2.9468803480">
        <ele>1113.34</ele>
        <time>2017-10-08T10:36:45Z</time>
      </trkpt>
      <trkpt lat="37.8920276742" lon="-2.9469291307">
        <ele>1112.86</ele>
        <time>2017-10-08T10:36:46Z</time>
      </trkpt>
      <trkpt lat="37.8920467850" lon="-2.9469678551">
        <ele>1111.42</ele>
        <time>2017-10-08T10:36:47Z</time>
      </trkpt>
      <trkpt lat="37.8920711763" lon="-2.9470012151">
        <ele>1110.94</ele>
        <time>2017-10-08T10:36:48Z</time>
      </trkpt>
      <trkpt lat="37.8921013512" lon="-2.9470285401">
        <ele>1110.46</ele>
        <time>2017-10-08T10:36:49Z</time>
      </trkpt>
      <trkpt lat="37.8921341244" lon="-2.9470463097">
        <ele>1110.46</ele>
        <time>2017-10-08T10:36:50Z</time>
      </trkpt>
      <trkpt lat="37.8921664786" lon="-2.9470574576">
        <ele>1110.46</ele>
        <time>2017-10-08T10:36:51Z</time>
      </trkpt>
      <trkpt lat="37.8922012635" lon="-2.9470624030">
        <ele>1109.98</ele>
        <time>2017-10-08T10:36:52Z</time>
      </trkpt>
      <trkpt lat="37.8922367189" lon="-2.9470545240">
        <ele>1109.98</ele>
        <time>2017-10-08T10:36:53Z</time>
      </trkpt>
      <trkpt lat="37.8922688216" lon="-2.9470410291">
        <ele>1109.50</ele>
        <time>2017-10-08T10:36:54Z</time>
      </trkpt>
      <trkpt lat="37.8923022654" lon="-2.9470320605">
        <ele>1109.02</ele>
        <time>2017-10-08T10:36:55Z</time>
      </trkpt>
      <trkpt lat="37.8923468571" lon="-2.9470257740">
        <ele>1109.02</ele>
        <time>2017-10-08T10:36:56Z</time>
      </trkpt>
      <trkpt lat="37.8928449098" lon="-2.9468725529">
        <ele>1106.13</ele>
        <time>2017-10-08T10:37:03Z</time>
      </trkpt>
      <trkpt lat="37.8929860611" lon="-2.9468444735">
        <ele>1105.17</ele>
        <time>2017-10-08T10:37:05Z</time>
      </trkpt>
      <trkpt lat="37.8930967022" lon="-2.9468276259">
        <ele>1104.21</ele>
        <time>2017-10-08T10:37:07Z</time>
      </trkpt>
      <trkpt lat="37.8932347521" lon="-2.9467598163">
        <ele>1102.77</ele>
        <time>2017-10-08T10:37:10Z</time>
      </trkpt>
      <trkpt lat="37.8932771645" lon="-2.9467157274">
        <ele>1102.29</ele>
        <time>2017-10-08T10:37:11Z</time>
      </trkpt>
      <trkpt lat="37.8933151346" lon="-2.9466627538">
        <ele>1101.81</ele>
        <time>2017-10-08T10:37:12Z</time>
      </trkpt>
      <trkpt lat="37.8936043940" lon="-2.9461811297">
        <ele>1098.44</ele>
        <time>2017-10-08T10:37:19Z</time>
      </trkpt>
      <trkpt lat="37.8936515003" lon="-2.9461176787">
        <ele>1098.44</ele>
        <time>2017-10-08T10:37:20Z</time>
      </trkpt>
      <trkpt lat="37.8937075753" lon="-2.9460551497">
        <ele>1097.48</ele>
        <time>2017-10-08T10:37:21Z</time>
      </trkpt>
      <trkpt lat="37.8937697690" lon="-2.9460002482">
        <ele>1097.00</ele>
        <time>2017-10-08T10:37:22Z</time>
      </trkpt>
      <trkpt lat="37.8938440327" lon="-2.9459552374">
        <ele>1096.04</ele>
        <time>2017-10-08T10:37:23Z</time>
      </trkpt>
      <trkpt lat="37.8939233255" lon="-2.9459225480">
        <ele>1095.56</ele>
        <time>2017-10-08T10:37:24Z</time>
      </trkpt>
      <trkpt lat="37.8939971700" lon="-2.9458995815">
        <ele>1095.08</ele>
        <time>2017-10-08T10:37:25Z</time>
      </trkpt>
      <trkpt lat="37.8943298478" lon="-2.9457819834">
        <ele>1093.16</ele>
        <time>2017-10-08T10:37:30Z</time>
      </trkpt>
      <trkpt lat="37.8947310895" lon="-2.9456722643">
        <ele>1088.83</ele>
        <time>2017-10-08T10:37:36Z</time>
      </trkpt>
      <trkpt lat="37.8948020842" lon="-2.9456595238">
        <ele>1088.83</ele>
        <time>2017-10-08T10:37:37Z</time>
      </trkpt>
      <trkpt lat="37.8950652760" lon="-2.9456446040">
        <ele>1086.43</ele>
        <time>2017-10-08T10:37:41Z</time>
      </trkpt>
      <trkpt lat="37.8951231111" lon="-2.9456595238">
        <ele>1085.95</ele>
        <time>2017-10-08T10:37:42Z</time>
      </trkpt>
      <trkpt lat="37.8953324910" lon="-2.9457620345">
        <ele>1084.50</ele>
        <time>2017-10-08T10:37:46Z</time>
      </trkpt>
      <trkpt lat="37.8953769151" lon="-2.9458143376">
        <ele>1084.02</ele>
        <time>2017-10-08T10:37:47Z</time>
      </trkpt>
      <trkpt lat="37.8956287075" lon="-2.9462184291">
        <ele>1080.66</ele>
        <time>2017-10-08T10:37:54Z</time>
      </trkpt>
      <trkpt lat="37.8956681024" lon="-2.9462566506">
        <ele>1080.18</ele>
        <time>2017-10-08T10:37:55Z</time>
      </trkpt>
      <trkpt lat="37.8958274424" lon="-2.9463942815">
        <ele>1078.26</ele>
        <time>2017-10-08T10:38:00Z</time>
      </trkpt>
      <trkpt lat="37.8959163744" lon="-2.9464706406">
        <ele>1077.29</ele>
        <time>2017-10-08T10:38:03Z</time>
      </trkpt>
      <trkpt lat="37.8961261734" lon="-2.9465510231">
        <ele>1074.89</ele>
        <time>2017-10-08T10:38:08Z</time>
      </trkpt>
      <trkpt lat="37.8961838409" lon="-2.9465586506">
        <ele>1074.89</ele>
        <time>2017-10-08T10:38:09Z</time>
      </trkpt>
      <trkpt lat="37.8962426819" lon="-2.9465576448">
        <ele>1074.41</ele>
        <time>2017-10-08T10:38:10Z</time>
      </trkpt>
      <trkpt lat="37.8964133374" lon="-2.9464655276">
        <ele>1073.45</ele>
        <time>2017-10-08T10:38:15Z</time>
      </trkpt>
      <trkpt lat="37.8964208812" lon="-2.9464352690">
        <ele>1073.45</ele>
        <time>2017-10-08T10:38:16Z</time>
      </trkpt>
      <trkpt lat="37.8964452725" lon="-2.9460175149">
        <ele>1070.57</ele>
        <time>2017-10-08T10:38:24Z</time>
      </trkpt>
      <trkpt lat="37.8964534029" lon="-2.9459565785">
        <ele>1070.08</ele>
        <time>2017-10-08T10:38:25Z</time>
      </trkpt>
      <trkpt lat="37.8964616172" lon="-2.9458945524">
        <ele>1069.12</ele>
        <time>2017-10-08T10:38:26Z</time>
      </trkpt>
      <trkpt lat="37.8964627068" lon="-2.9458303470">
        <ele>1069.12</ele>
        <time>2017-10-08T10:38:27Z</time>
      </trkpt>
      <trkpt lat="37.8964544926" lon="-2.9457580950">
        <ele>1069.12</ele>
        <time>2017-10-08T10:38:28Z</time>
      </trkpt>
      <trkpt lat="37.8964442667" lon="-2.9456821550">
        <ele>1069.12</ele>
        <time>2017-10-08T10:38:29Z</time>
      </trkpt>
      <trkpt lat="37.8964239825" lon="-2.9455227312">
        <ele>1068.16</ele>
        <time>2017-10-08T10:38:31Z</time>
      </trkpt>
      <trkpt lat="37.8964237310" lon="-2.9454359785">
        <ele>1067.68</ele>
        <time>2017-10-08T10:38:32Z</time>
      </trkpt>
      <trkpt lat="37.8964316938" lon="-2.9453433584">
        <ele>1067.20</ele>
        <time>2017-10-08T10:38:33Z</time>
      </trkpt>
      <trkpt lat="37.8964383155" lon="-2.9452506546">
        <ele>1066.72</ele>
        <time>2017-10-08T10:38:34Z</time>
      </trkpt>
      <trkpt lat="37.8964297660" lon="-2.9451634828">
        <ele>1066.24</ele>
        <time>2017-10-08T10:38:35Z</time>
      </trkpt>
      <trkpt lat="37.8964117449" lon="-2.9450872913">
        <ele>1065.28</ele>
        <time>2017-10-08T10:38:36Z</time>
      </trkpt>
      <trkpt lat="37.8963844199" lon="-2.9450138658">
        <ele>1064.80</ele>
        <time>2017-10-08T10:38:37Z</time>
      </trkpt>
      <trkpt lat="37.8963422589" lon="-2.9449461401">
        <ele>1064.32</ele>
        <time>2017-10-08T10:38:38Z</time>
      </trkpt>
      <trkpt lat="37.8962944821" lon="-2.9448945075">
        <ele>1064.32</ele>
        <time>2017-10-08T10:38:39Z</time>
      </trkpt>
      <trkpt lat="37.8962483816" lon="-2.9448417854">
        <ele>1063.84</ele>
        <time>2017-10-08T10:38:40Z</time>
      </trkpt>
      <trkpt lat="37.8962185420" lon="-2.9447987024">
        <ele>1063.84</ele>
        <time>2017-10-08T10:38:41Z</time>
      </trkpt>
      <trkpt lat="37.8961948212" lon="-2.9447415378">
        <ele>1063.36</ele>
        <time>2017-10-08T10:38:42Z</time>
      </trkpt>
      <trkpt lat="37.8961819131" lon="-2.9446880613">
        <ele>1063.36</ele>
        <time>2017-10-08T10:38:43Z</time>
      </trkpt>
      <trkpt lat="37.8961777221" lon="-2.9446378537">
        <ele>1063.84</ele>
        <time>2017-10-08T10:38:44Z</time>
      </trkpt>
      <trkpt lat="37.8961768001" lon="-2.9445896577">
        <ele>1063.84</ele>
        <time>2017-10-08T10:38:45Z</time>
      </trkpt>
      <trkpt lat="37.8961756267" lon="-2.9445396177">
        <ele>1063.36</ele>
        <time>2017-10-08T10:38:46Z</time>
      </trkpt>
      <trkpt lat="37.8961793147" lon="-2.9444853868">
        <ele>1063.84</ele>
        <time>2017-10-08T10:38:47Z</time>
      </trkpt>
      <trkpt lat="37.8961928934" lon="-2.9444355983">
        <ele>1061.91</ele>
        <time>2017-10-08T10:38:48Z</time>
      </trkpt>
      <trkpt lat="37.8963518143" lon="-2.9440724105">
        <ele>1063.36</ele>
        <time>2017-10-08T10:38:58Z</time>
      </trkpt>
      <trkpt lat="37.8964715078" lon="-2.9438224621">
        <ele>1060.47</ele>
        <time>2017-10-08T10:39:05Z</time>
      </trkpt>
      <trkpt lat="37.8964729328" lon="-2.9438004177">
        <ele>1060.47</ele>
        <time>2017-10-08T10:39:06Z</time>
      </trkpt>
      <trkpt lat="37.8964741901" lon="-2.9437788762">
        <ele>1060.47</ele>
        <time>2017-10-08T10:39:07Z</time>
      </trkpt>
      <trkpt lat="37.8964913730" lon="-2.9437287524">
        <ele>1060.47</ele>
        <time>2017-10-08T10:39:17Z</time>
      </trkpt>
      <trkpt lat="37.8964898642" lon="-2.9437281657">
        <ele>1060.47</ele>
        <time>2017-10-08T10:39:34Z</time>
      </trkpt>
      <trkpt lat="37.8964919597" lon="-2.9437256511">
        <ele>1059.99</ele>
        <time>2017-10-08T10:39:43Z</time>
      </trkpt>
      <trkpt lat="37.8965060413" lon="-2.9437150899">
        <ele>1059.99</ele>
        <time>2017-10-08T10:39:44Z</time>
      </trkpt>
      <trkpt lat="37.8965281695" lon="-2.9437005892">
        <ele>1059.99</ele>
        <time>2017-10-08T10:39:45Z</time>
      </trkpt>
      <trkpt lat="37.8965557460" lon="-2.9436844122">
        <ele>1059.99</ele>
        <time>2017-10-08T10:39:46Z</time>
      </trkpt>
      <trkpt lat="37.8965902794" lon="-2.9436663073">
        <ele>1059.51</ele>
        <time>2017-10-08T10:39:47Z</time>
      </trkpt>
      <trkpt lat="37.8967813868" lon="-2.9435720947">
        <ele>1058.07</ele>
        <time>2017-10-08T10:39:52Z</time>
      </trkpt>
      <trkpt lat="37.8968134057" lon="-2.9435330350">
        <ele>1057.59</ele>
        <time>2017-10-08T10:39:53Z</time>
      </trkpt>
      <trkpt lat="37.8968400601" lon="-2.9434792232">
        <ele>1057.11</ele>
        <time>2017-10-08T10:39:54Z</time>
      </trkpt>
      <trkpt lat="37.8968760185" lon="-2.9433400836">
        <ele>1056.63</ele>
        <time>2017-10-08T10:39:56Z</time>
      </trkpt>
      <trkpt lat="37.8968813829" lon="-2.9432598688">
        <ele>1056.15</ele>
        <time>2017-10-08T10:39:57Z</time>
      </trkpt>
      <trkpt lat="37.8968653735" lon="-2.9431804083">
        <ele>1056.15</ele>
        <time>2017-10-08T10:39:58Z</time>
      </trkpt>
      <trkpt lat="37.8968301695" lon="-2.9431089107">
        <ele>1055.67</ele>
        <time>2017-10-08T10:39:59Z</time>
      </trkpt>
      <trkpt lat="37.8967885952" lon="-2.9430412687">
        <ele>1055.67</ele>
        <time>2017-10-08T10:40:00Z</time>
      </trkpt>
      <trkpt lat="37.8967532236" lon="-2.9429669213">
        <ele>1055.18</ele>
        <time>2017-10-08T10:40:01Z</time>
      </trkpt>
      <trkpt lat="37.8967290837" lon="-2.9428862035">
        <ele>1055.18</ele>
        <time>2017-10-08T10:40:02Z</time>
      </trkpt>
      <trkpt lat="37.8967113141" lon="-2.9428025521">
        <ele>1054.70</ele>
        <time>2017-10-08T10:40:03Z</time>
      </trkpt>
      <trkpt lat="37.8967004176" lon="-2.9427152127">
        <ele>1054.22</ele>
        <time>2017-10-08T10:40:04Z</time>
      </trkpt>
      <trkpt lat="37.8966942988" lon="-2.9426237661">
        <ele>1053.26</ele>
        <time>2017-10-08T10:40:05Z</time>
      </trkpt>
      <trkpt lat="37.8966845758" lon="-2.9424327426">
        <ele>1051.82</ele>
        <time>2017-10-08T10:40:07Z</time>
      </trkpt>
      <trkpt lat="37.8966658004" lon="-2.9421631806">
        <ele>1052.30</ele>
        <time>2017-10-08T10:40:10Z</time>
      </trkpt>
      <trkpt lat="37.8966341168" lon="-2.9419339355">
        <ele>1050.86</ele>
        <time>2017-10-08T10:40:13Z</time>
      </trkpt>
      <trkpt lat="37.8966182750" lon="-2.9418631922">
        <ele>1050.86</ele>
        <time>2017-10-08T10:40:14Z</time>
      </trkpt>
      <trkpt lat="37.8965818975" lon="-2.9417261481">
        <ele>1050.38</ele>
        <time>2017-10-08T10:40:16Z</time>
      </trkpt>
      <trkpt lat="37.8965577576" lon="-2.9416570812">
        <ele>1049.90</ele>
        <time>2017-10-08T10:40:17Z</time>
      </trkpt>
      <trkpt lat="37.8964987490" lon="-2.9415150080">
        <ele>1049.42</ele>
        <time>2017-10-08T10:40:19Z</time>
      </trkpt>
      <trkpt lat="37.8964621201" lon="-2.9414443485">
        <ele>1048.94</ele>
        <time>2017-10-08T10:40:20Z</time>
      </trkpt>
      <trkpt lat="37.8964205459" lon="-2.9413767066">
        <ele>1048.94</ele>
        <time>2017-10-08T10:40:21Z</time>
      </trkpt>
      <trkpt lat="37.8962182906" lon="-2.9410581943">
        <ele>1047.01</ele>
        <time>2017-10-08T10:40:26Z</time>
      </trkpt>
      <trkpt lat="37.8961245809" lon="-2.9409517441">
        <ele>1046.05</ele>
        <time>2017-10-08T10:40:28Z</time>
      </trkpt>
      <trkpt lat="37.8960669972" lon="-2.9409172107">
        <ele>1045.09</ele>
        <time>2017-10-08T10:40:29Z</time>
      </trkpt>
      <trkpt lat="37.8960007802" lon="-2.9409039672">
        <ele>1045.09</ele>
        <time>2017-10-08T10:40:30Z</time>
      </trkpt>
      <trkpt lat="37.8958542645" lon="-2.9408826772">
        <ele>1044.13</ele>
        <time>2017-10-08T10:40:32Z</time>
      </trkpt>
      <trkpt lat="37.8957886342" lon="-2.9408535082">
        <ele>1043.65</ele>
        <time>2017-10-08T10:40:33Z</time>
      </trkpt>
      <trkpt lat="37.8957170527" lon="-2.9408162087">
        <ele>1043.17</ele>
        <time>2017-10-08T10:40:34Z</time>
      </trkpt>
      <trkpt lat="37.8956435435" lon="-2.9407686833">
        <ele>1042.69</ele>
        <time>2017-10-08T10:40:35Z</time>
      </trkpt>
      <trkpt lat="37.8955815174" lon="-2.9407087527">
        <ele>1042.21</ele>
        <time>2017-10-08T10:40:36Z</time>
      </trkpt>
      <trkpt lat="37.8955302201" lon="-2.9406342376">
        <ele>1041.73</ele>
        <time>2017-10-08T10:40:37Z</time>
      </trkpt>
      <trkpt lat="37.8952289745" lon="-2.9400660284">
        <ele>1038.84</ele>
        <time>2017-10-08T10:40:44Z</time>
      </trkpt>
      <trkpt lat="37.8951756656" lon="-2.9398983903">
        <ele>1037.88</ele>
        <time>2017-10-08T10:40:46Z</time>
      </trkpt>
      <trkpt lat="37.8951532859" lon="-2.9398139846">
        <ele>1037.88</ele>
        <time>2017-10-08T10:40:47Z</time>
      </trkpt>
      <trkpt lat="37.8951130528" lon="-2.9395658802">
        <ele>1035.96</ele>
        <time>2017-10-08T10:40:50Z</time>
      </trkpt>
      <trkpt lat="37.8951419704" lon="-2.9394217953">
        <ele>1035.00</ele>
        <time>2017-10-08T10:40:52Z</time>
      </trkpt>
      <trkpt lat="37.8951877356" lon="-2.9392876010">
        <ele>1034.04</ele>
        <time>2017-10-08T10:40:54Z</time>
      </trkpt>
      <trkpt lat="37.8954795096" lon="-2.9387960862">
        <ele>1030.67</ele>
        <time>2017-10-08T10:41:00Z</time>
      </trkpt>
      <trkpt lat="37.8958209045" lon="-2.9384763166">
        <ele>1028.27</ele>
        <time>2017-10-08T10:41:05Z</time>
      </trkpt>
      <trkpt lat="37.8958918154" lon="-2.9384367540">
        <ele>1028.27</ele>
        <time>2017-10-08T10:41:06Z</time>
      </trkpt>
      <trkpt lat="37.8961726092" lon="-2.9383181501">
        <ele>1027.79</ele>
        <time>2017-10-08T10:41:10Z</time>
      </trkpt>
      <trkpt lat="37.8964580130" lon="-2.9382487480">
        <ele>1026.83</ele>
        <time>2017-10-08T10:41:14Z</time>
      </trkpt>
      <trkpt lat="37.8965279181" lon="-2.9382382706">
        <ele>1026.83</ele>
        <time>2017-10-08T10:41:15Z</time>
      </trkpt>
      <trkpt lat="37.8965916205" lon="-2.9382291343">
        <ele>1026.83</ele>
        <time>2017-10-08T10:41:16Z</time>
      </trkpt>
      <trkpt lat="37.8966498747" lon="-2.9382275417">
        <ele>1026.83</ele>
        <time>2017-10-08T10:41:17Z</time>
      </trkpt>
      <trkpt lat="37.8967066202" lon="-2.9382354207">
        <ele>1026.83</ele>
        <time>2017-10-08T10:41:18Z</time>
      </trkpt>
      <trkpt lat="37.8967592586" lon="-2.9382533580">
        <ele>1026.83</ele>
        <time>2017-10-08T10:41:19Z</time>
      </trkpt>
      <trkpt lat="37.8968092147" lon="-2.9382781684">
        <ele>1026.34</ele>
        <time>2017-10-08T10:41:20Z</time>
      </trkpt>
      <trkpt lat="37.8969952092" lon="-2.9383867141">
        <ele>1026.34</ele>
        <time>2017-10-08T10:41:24Z</time>
      </trkpt>
      <trkpt lat="37.8972321656" lon="-2.9384944215">
        <ele>1026.34</ele>
        <time>2017-10-08T10:41:31Z</time>
      </trkpt>
      <trkpt lat="37.8974564653" lon="-2.9385915678">
        <ele>1025.38</ele>
        <time>2017-10-08T10:41:37Z</time>
      </trkpt>
      <trkpt lat="37.8975041583" lon="-2.9385944176">
        <ele>1024.90</ele>
        <time>2017-10-08T10:41:38Z</time>
      </trkpt>
      <trkpt lat="37.8976722993" lon="-2.9386007041">
        <ele>1024.42</ele>
        <time>2017-10-08T10:41:41Z</time>
      </trkpt>
      <trkpt lat="37.8977313079" lon="-2.9386212397">
        <ele>1024.42</ele>
        <time>2017-10-08T10:41:42Z</time>
      </trkpt>
      <trkpt lat="37.8977886401" lon="-2.9386477266">
        <ele>1023.94</ele>
        <time>2017-10-08T10:41:43Z</time>
      </trkpt>
      <trkpt lat="37.8978447989" lon="-2.9386862833">
        <ele>1023.46</ele>
        <time>2017-10-08T10:41:44Z</time>
      </trkpt>
      <trkpt lat="37.8978981916" lon="-2.9387329705">
        <ele>1022.98</ele>
        <time>2017-10-08T10:41:45Z</time>
      </trkpt>
      <trkpt lat="37.8979496565" lon="-2.9387853574">
        <ele>1022.98</ele>
        <time>2017-10-08T10:41:46Z</time>
      </trkpt>
      <trkpt lat="37.8979991097" lon="-2.9388411809">
        <ele>1022.50</ele>
        <time>2017-10-08T10:41:47Z</time>
      </trkpt>
      <trkpt lat="37.8980464675" lon="-2.9388992675">
        <ele>1022.02</ele>
        <time>2017-10-08T10:41:48Z</time>
      </trkpt>
      <trkpt lat="37.8983773850" lon="-2.9393252358">
        <ele>1019.13</ele>
        <time>2017-10-08T10:41:55Z</time>
      </trkpt>
      <trkpt lat="37.8984289337" lon="-2.9393823165">
        <ele>1019.13</ele>
        <time>2017-10-08T10:41:56Z</time>
      </trkpt>
      <trkpt lat="37.8984828293" lon="-2.9394333623">
        <ele>1019.13</ele>
        <time>2017-10-08T10:41:57Z</time>
      </trkpt>
      <trkpt lat="37.8985461127" lon="-2.9394731764">
        <ele>1018.65</ele>
        <time>2017-10-08T10:41:58Z</time>
      </trkpt>
      <trkpt lat="37.8986206278" lon="-2.9395005014">
        <ele>1018.65</ele>
        <time>2017-10-08T10:41:59Z</time>
      </trkpt>
      <trkpt lat="37.8986979928" lon="-2.9395215400">
        <ele>1017.69</ele>
        <time>2017-10-08T10:42:00Z</time>
      </trkpt>
      <trkpt lat="37.8989417385" lon="-2.9395632818">
        <ele>1017.21</ele>
        <time>2017-10-08T10:42:03Z</time>
      </trkpt>
      <trkpt lat="37.8990290780" lon="-2.9395579174">
        <ele>1016.73</ele>
        <time>2017-10-08T10:42:04Z</time>
      </trkpt>
      <trkpt lat="37.8991184290" lon="-2.9395407345">
        <ele>1016.25</ele>
        <time>2017-10-08T10:42:05Z</time>
      </trkpt>
      <trkpt lat="37.8992824629" lon="-2.9395073745">
        <ele>1014.81</ele>
        <time>2017-10-08T10:42:07Z</time>
      </trkpt>
      <trkpt lat="37.8997334931" lon="-2.9394244775">
        <ele>1012.41</ele>
        <time>2017-10-08T10:42:13Z</time>
      </trkpt>
      <trkpt lat="37.9001378361" lon="-2.9392881878">
        <ele>1011.44</ele>
        <time>2017-10-08T10:42:19Z</time>
      </trkpt>
      <trkpt lat="37.9001974314" lon="-2.9392722622">
        <ele>1010.96</ele>
        <time>2017-10-08T10:42:20Z</time>
      </trkpt>
      <trkpt lat="37.9003615491" lon="-2.9392225575">
        <ele>1010.00</ele>
        <time>2017-10-08T10:42:23Z</time>
      </trkpt>
      <trkpt lat="37.9004232399" lon="-2.9392063804">
        <ele>1010.00</ele>
        <time>2017-10-08T10:42:24Z</time>
      </trkpt>
      <trkpt lat="37.9006597772" lon="-2.9391415045">
        <ele>1008.56</ele>
        <time>2017-10-08T10:42:28Z</time>
      </trkpt>
      <trkpt lat="37.9007042013" lon="-2.9391203821">
        <ele>1008.08</ele>
        <time>2017-10-08T10:42:29Z</time>
      </trkpt>
      <trkpt lat="37.9009238910" lon="-2.9389343038">
        <ele>1007.12</ele>
        <time>2017-10-08T10:42:37Z</time>
      </trkpt>
      <trkpt lat="37.9009696562" lon="-2.9387951642">
        <ele>1006.64</ele>
        <time>2017-10-08T10:42:40Z</time>
      </trkpt>
      <trkpt lat="37.9009729251" lon="-2.9387400951">
        <ele>1006.16</ele>
        <time>2017-10-08T10:42:41Z</time>
      </trkpt>
      <trkpt lat="37.9009695724" lon="-2.9386911448">
        <ele>1006.16</ele>
        <time>2017-10-08T10:42:42Z</time>
      </trkpt>
      <trkpt lat="37.9010222945" lon="-2.9384287912">
        <ele>1005.68</ele>
        <time>2017-10-08T10:42:49Z</time>
      </trkpt>
      <trkpt lat="37.9010855779" lon="-2.9383473191">
        <ele>1006.16</ele>
        <time>2017-10-08T10:42:55Z</time>
      </trkpt>
      <trkpt lat="37.9010967258" lon="-2.9383356683">
        <ele>1006.16</ele>
        <time>2017-10-08T10:42:56Z</time>
      </trkpt>
      <trkpt lat="37.9011169262" lon="-2.9383157194">
        <ele>1006.16</ele>
        <time>2017-10-08T10:42:57Z</time>
      </trkpt>
      <trkpt lat="37.9013304971" lon="-2.9381108657">
        <ele>1006.64</ele>
        <time>2017-10-08T10:43:03Z</time>
      </trkpt>
      <trkpt lat="37.9015741590" lon="-2.9378602467">
        <ele>1006.64</ele>
        <time>2017-10-08T10:43:11Z</time>
      </trkpt>
      <trkpt lat="37.9017145559" lon="-2.9377055168">
        <ele>1006.64</ele>
        <time>2017-10-08T10:43:17Z</time>
      </trkpt>
      <trkpt lat="37.9017459042" lon="-2.9376843106">
        <ele>1006.64</ele>
        <time>2017-10-08T10:43:18Z</time>
      </trkpt>
      <trkpt lat="37.9020216689" lon="-2.9374705721">
        <ele>1006.64</ele>
        <time>2017-10-08T10:43:27Z</time>
      </trkpt>
      <trkpt lat="37.9023605492" lon="-2.9371622857">
        <ele>1006.64</ele>
        <time>2017-10-08T10:43:37Z</time>
      </trkpt>
      <trkpt lat="37.9025887884" lon="-2.9369177856">
        <ele>1006.16</ele>
        <time>2017-10-08T10:43:45Z</time>
      </trkpt>
      <trkpt lat="37.9026131798" lon="-2.9368903767">
        <ele>1006.16</ele>
        <time>2017-10-08T10:43:46Z</time>
      </trkpt>
      <trkpt lat="37.9026388284" lon="-2.9368560109">
        <ele>1006.16</ele>
        <time>2017-10-08T10:43:47Z</time>
      </trkpt>
      <trkpt lat="37.9027817398" lon="-2.9366931506">
        <ele>1006.16</ele>
        <time>2017-10-08T10:43:52Z</time>
      </trkpt>
      <trkpt lat="37.9028172791" lon="-2.9366772249">
        <ele>1005.68</ele>
        <time>2017-10-08T10:43:53Z</time>
      </trkpt>
      <trkpt lat="37.9028466996" lon="-2.9366519116">
        <ele>1005.68</ele>
        <time>2017-10-08T10:43:54Z</time>
      </trkpt>
      <trkpt lat="37.9030461051" lon="-2.9363494925">
        <ele>1005.20</ele>
        <time>2017-10-08T10:44:02Z</time>
      </trkpt>
      <trkpt lat="37.9030754417" lon="-2.9363099299">
        <ele>1004.72</ele>
        <time>2017-10-08T10:44:03Z</time>
      </trkpt>
      <trkpt lat="37.9031711631" lon="-2.9361804295">
        <ele>1004.23</ele>
        <time>2017-10-08T10:44:06Z</time>
      </trkpt>
      <trkpt lat="37.9032987356" lon="-2.9359954409">
        <ele>1004.23</ele>
        <time>2017-10-08T10:44:10Z</time>
      </trkpt>
      <trkpt lat="37.9033346102" lon="-2.9359653499">
        <ele>1004.23</ele>
        <time>2017-10-08T10:44:11Z</time>
      </trkpt>
      <trkpt lat="37.9033642821" lon="-2.9359319899">
        <ele>1004.72</ele>
        <time>2017-10-08T10:44:12Z</time>
      </trkpt>
      <trkpt lat="37.9034217820" lon="-2.9358630069">
        <ele>1004.23</ele>
        <time>2017-10-08T10:44:14Z</time>
      </trkpt>
      <trkpt lat="37.9034619313" lon="-2.9358295631">
        <ele>1004.23</ele>
        <time>2017-10-08T10:44:15Z</time>
      </trkpt>
      <trkpt lat="37.9035014100" lon="-2.9357951134">
        <ele>1003.75</ele>
        <time>2017-10-08T10:44:16Z</time>
      </trkpt>
      <trkpt lat="37.9035395477" lon="-2.9357580654">
        <ele>1003.75</ele>
        <time>2017-10-08T10:44:17Z</time>
      </trkpt>
      <trkpt lat="37.9035807867" lon="-2.9357217718">
        <ele>1003.27</ele>
        <time>2017-10-08T10:44:18Z</time>
      </trkpt>
      <trkpt lat="37.9037386179" lon="-2.9355654493">
        <ele>1002.79</ele>
        <time>2017-10-08T10:44:22Z</time>
      </trkpt>
      <trkpt lat="37.9038571380" lon="-2.9354413133">
        <ele>1002.79</ele>
        <time>2017-10-08T10:44:25Z</time>
      </trkpt>
      <trkpt lat="37.9040267039" lon="-2.9352890979">
        <ele>1001.83</ele>
        <time>2017-10-08T10:44:29Z</time>
      </trkpt>
      <trkpt lat="37.9043716192" lon="-2.9350987449">
        <ele>1001.35</ele>
        <time>2017-10-08T10:44:36Z</time>
      </trkpt>
      <trkpt lat="37.9044201504" lon="-2.9350924585">
        <ele>1001.35</ele>
        <time>2017-10-08T10:44:37Z</time>
      </trkpt>
      <trkpt lat="37.9044702742" lon="-2.9350900277">
        <ele>1001.35</ele>
        <time>2017-10-08T10:44:38Z</time>
      </trkpt>
      <trkpt lat="37.9045171291" lon="-2.9350917041">
        <ele>1001.35</ele>
        <time>2017-10-08T10:44:39Z</time>
      </trkpt>
      <trkpt lat="37.9045636486" lon="-2.9351053666">
        <ele>1000.87</ele>
        <time>2017-10-08T10:44:40Z</time>
      </trkpt>
      <trkpt lat="37.9046086594" lon="-2.9351303447">
        <ele>1000.87</ele>
        <time>2017-10-08T10:44:41Z</time>
      </trkpt>
      <trkpt lat="37.9046522453" lon="-2.9351572506">
        <ele>1000.87</ele>
        <time>2017-10-08T10:44:42Z</time>
      </trkpt>
      <trkpt lat="37.9046972562" lon="-2.9351868387">
        <ele>1000.87</ele>
        <time>2017-10-08T10:44:43Z</time>
      </trkpt>
      <trkpt lat="37.9047439434" lon="-2.9352156725">
        <ele>1000.39</ele>
        <time>2017-10-08T10:44:44Z</time>
      </trkpt>
      <trkpt lat="37.9047870263" lon="-2.9352475237">
        <ele>1000.39</ele>
        <time>2017-10-08T10:44:45Z</time>
      </trkpt>
      <trkpt lat="37.9051038623" lon="-2.9354659561">
        <ele>999.91</ele>
        <time>2017-10-08T10:44:53Z</time>
      </trkpt>
      <trkpt lat="37.9054246377" lon="-2.9355299938">
        <ele>999.43</ele>
        <time>2017-10-08T10:45:00Z</time>
      </trkpt>
      <trkpt lat="37.9058102053" lon="-2.9355725739">
        <ele>1000.39</ele>
        <time>2017-10-08T10:45:09Z</time>
      </trkpt>
      <trkpt lat="37.9060387798" lon="-2.9355964623">
        <ele>1001.35</ele>
        <time>2017-10-08T10:45:18Z</time>
      </trkpt>
      <trkpt lat="37.9063552804" lon="-2.9353959672">
        <ele>1002.31</ele>
        <time>2017-10-08T10:45:29Z</time>
      </trkpt>
      <trkpt lat="37.9066239204" lon="-2.9351105634">
        <ele>1002.79</ele>
        <time>2017-10-08T10:45:39Z</time>
      </trkpt>
      <trkpt lat="37.9068142734" lon="-2.9349075537">
        <ele>1003.27</ele>
        <time>2017-10-08T10:45:48Z</time>
      </trkpt>
      <trkpt lat="37.9071301036" lon="-2.9346269276">
        <ele>1003.75</ele>
        <time>2017-10-08T10:45:59Z</time>
      </trkpt>
      <trkpt lat="37.9074286669" lon="-2.9343940783">
        <ele>1003.75</ele>
        <time>2017-10-08T10:46:09Z</time>
      </trkpt>
      <trkpt lat="37.9077076167" lon="-2.9343160428">
        <ele>1003.27</ele>
        <time>2017-10-08T10:46:17Z</time>
      </trkpt>
      <trkpt lat="37.9077517055" lon="-2.9343005363">
        <ele>1003.27</ele>
        <time>2017-10-08T10:46:18Z</time>
      </trkpt>
      <trkpt lat="37.9080038331" lon="-2.9342027195">
        <ele>1002.79</ele>
        <time>2017-10-08T10:46:24Z</time>
      </trkpt>
      <trkpt lat="37.9080471676" lon="-2.9341920745">
        <ele>1003.27</ele>
        <time>2017-10-08T10:46:25Z</time>
      </trkpt>
      <trkpt lat="37.9081407934" lon="-2.9341827706">
        <ele>1003.27</ele>
        <time>2017-10-08T10:46:27Z</time>
      </trkpt>
      <trkpt lat="37.9081862234" lon="-2.9341875482">
        <ele>1002.79</ele>
        <time>2017-10-08T10:46:28Z</time>
      </trkpt>
      <trkpt lat="37.9082295578" lon="-2.9341981933">
        <ele>1002.79</ele>
        <time>2017-10-08T10:46:29Z</time>
      </trkpt>
      <trkpt lat="37.9083207529" lon="-2.9342259374">
        <ele>1002.79</ele>
        <time>2017-10-08T10:46:31Z</time>
      </trkpt>
      <trkpt lat="37.9083728045" lon="-2.9342368338">
        <ele>1002.31</ele>
        <time>2017-10-08T10:46:32Z</time>
      </trkpt>
      <trkpt lat="37.9084233474" lon="-2.9342547711">
        <ele>1002.31</ele>
        <time>2017-10-08T10:46:33Z</time>
      </trkpt>
      <trkpt lat="37.9086167179" lon="-2.9343473911">
        <ele>1002.31</ele>
        <time>2017-10-08T10:46:37Z</time>
      </trkpt>
      <trkpt lat="37.9086613096" lon="-2.9343760572">
        <ele>1002.31</ele>
        <time>2017-10-08T10:46:38Z</time>
      </trkpt>
      <trkpt lat="37.9087961745" lon="-2.9344400112">
        <ele>1002.31</ele>
        <time>2017-10-08T10:46:41Z</time>
      </trkpt>
      <trkpt lat="37.9088395927" lon="-2.9344613850">
        <ele>1001.83</ele>
        <time>2017-10-08T10:46:42Z</time>
      </trkpt>
      <trkpt lat="37.9088815860" lon="-2.9344827589">
        <ele>1001.83</ele>
        <time>2017-10-08T10:46:43Z</time>
      </trkpt>
      <trkpt lat="37.9090620484" lon="-2.9345424380">
        <ele>1001.83</ele>
        <time>2017-10-08T10:46:47Z</time>
      </trkpt>
      <trkpt lat="37.9091093224" lon="-2.9345360678">
        <ele>1002.31</ele>
        <time>2017-10-08T10:46:48Z</time>
      </trkpt>
      <trkpt lat="37.9091580212" lon="-2.9345309548">
        <ele>1001.83</ele>
        <time>2017-10-08T10:46:49Z</time>
      </trkpt>
      <trkpt lat="37.9092047922" lon="-2.9345304519">
        <ele>1001.83</ele>
        <time>2017-10-08T10:46:50Z</time>
      </trkpt>
      <trkpt lat="37.9092481267" lon="-2.9345323797">
        <ele>1001.83</ele>
        <time>2017-10-08T10:46:51Z</time>
      </trkpt>
      <trkpt lat="37.9092891142" lon="-2.9345236626">
        <ele>1001.35</ele>
        <time>2017-10-08T10:46:52Z</time>
      </trkpt>
      <trkpt lat="37.9093285091" lon="-2.9345108382">
        <ele>1001.35</ele>
        <time>2017-10-08T10:46:53Z</time>
      </trkpt>
      <trkpt lat="37.9094051197" lon="-2.9344804958">
        <ele>1001.35</ele>
        <time>2017-10-08T10:46:55Z</time>
      </trkpt>
      <trkpt lat="37.9094850831" lon="-2.9344457109">
        <ele>1000.87</ele>
        <time>2017-10-08T10:46:57Z</time>
      </trkpt>
      <trkpt lat="37.9095280822" lon="-2.9344314616">
        <ele>1001.35</ele>
        <time>2017-10-08T10:46:58Z</time>
      </trkpt>
      <trkpt lat="37.9095686506" lon="-2.9344120156">
        <ele>1000.87</ele>
        <time>2017-10-08T10:46:59Z</time>
      </trkpt>
      <trkpt lat="37.9096883442" lon="-2.9343504086">
        <ele>1002.31</ele>
        <time>2017-10-08T10:47:02Z</time>
      </trkpt>
      <trkpt lat="37.9097308405" lon="-2.9343234189">
        <ele>1001.35</ele>
        <time>2017-10-08T10:47:03Z</time>
      </trkpt>
      <trkpt lat="37.9098523781" lon="-2.9342212435">
        <ele>1000.87</ele>
        <time>2017-10-08T10:47:06Z</time>
      </trkpt>
      <trkpt lat="37.9098955449" lon="-2.9341870453">
        <ele>1000.87</ele>
        <time>2017-10-08T10:47:07Z</time>
      </trkpt>
      <trkpt lat="37.9099405557" lon="-2.9341500811">
        <ele>1000.87</ele>
        <time>2017-10-08T10:47:08Z</time>
      </trkpt>
      <trkpt lat="37.9103831202" lon="-2.9337698780">
        <ele>1000.87</ele>
        <time>2017-10-08T10:47:18Z</time>
      </trkpt>
      <trkpt lat="37.9104299750" lon="-2.9337373562">
        <ele>1000.87</ele>
        <time>2017-10-08T10:47:19Z</time>
      </trkpt>
      <trkpt lat="37.9107748065" lon="-2.9335436504">
        <ele>1000.39</ele>
        <time>2017-10-08T10:47:26Z</time>
      </trkpt>
      <trkpt lat="37.9113217257" lon="-2.9332201090">
        <ele>999.91</ele>
        <time>2017-10-08T10:47:36Z</time>
      </trkpt>
      <trkpt lat="37.9113793932" lon="-2.9331824742">
        <ele>999.91</ele>
        <time>2017-10-08T10:47:37Z</time>
      </trkpt>
      <trkpt lat="37.9114311095" lon="-2.9331389721">
        <ele>999.91</ele>
        <time>2017-10-08T10:47:38Z</time>
      </trkpt>
      <trkpt lat="37.9114780482" lon="-2.9330903571">
        <ele>999.91</ele>
        <time>2017-10-08T10:47:39Z</time>
      </trkpt>
      <trkpt lat="37.9115187842" lon="-2.9330434185">
        <ele>998.95</ele>
        <time>2017-10-08T10:47:40Z</time>
      </trkpt>
      <trkpt lat="37.9115571734" lon="-2.9329980724">
        <ele>998.95</ele>
        <time>2017-10-08T10:47:41Z</time>
      </trkpt>
      <trkpt lat="37.9115983285" lon="-2.9329544026">
        <ele>998.95</ele>
        <time>2017-10-08T10:47:42Z</time>
      </trkpt>
      <trkpt lat="37.9116419144" lon="-2.9329147562">
        <ele>998.47</ele>
        <time>2017-10-08T10:47:43Z</time>
      </trkpt>
      <trkpt lat="37.9116864223" lon="-2.9328778759">
        <ele>998.47</ele>
        <time>2017-10-08T10:47:44Z</time>
      </trkpt>
      <trkpt lat="37.9118616879" lon="-2.9327182006">
        <ele>997.99</ele>
        <time>2017-10-08T10:47:48Z</time>
      </trkpt>
      <trkpt lat="37.9119402263" lon="-2.9326253291">
        <ele>994.14</ele>
        <time>2017-10-08T10:47:50Z</time>
      </trkpt>
      <trkpt lat="37.9119798727" lon="-2.9325789772">
        <ele>999.43</ele>
        <time>2017-10-08T10:47:51Z</time>
      </trkpt>
      <trkpt lat="37.9120194353" lon="-2.9325315356">
        <ele>995.10</ele>
        <time>2017-10-08T10:47:52Z</time>
      </trkpt>
      <trkpt lat="37.9120548069" lon="-2.9324852675">
        <ele>995.58</ele>
        <time>2017-10-08T10:47:53Z</time>
      </trkpt>
      <trkpt lat="37.9120907653" lon="-2.9324387480">
        <ele>1000.39</ele>
        <time>2017-10-08T10:47:54Z</time>
      </trkpt>
      <trkpt lat="37.9121258017" lon="-2.9323903844">
        <ele>997.02</ele>
        <time>2017-10-08T10:47:55Z</time>
      </trkpt>
      <trkpt lat="37.9122888297" lon="-2.9321267735">
        <ele>996.06</ele>
        <time>2017-10-08T10:48:00Z</time>
      </trkpt>
      <trkpt lat="37.9123284761" lon="-2.9320822656">
        <ele>994.14</ele>
        <time>2017-10-08T10:48:01Z</time>
      </trkpt>
      <trkpt lat="37.9123734869" lon="-2.9320411943">
        <ele>997.51</ele>
        <time>2017-10-08T10:48:02Z</time>
      </trkpt>
      <trkpt lat="37.9124227725" lon="-2.9320045654">
        <ele>996.06</ele>
        <time>2017-10-08T10:48:03Z</time>
      </trkpt>
      <trkpt lat="37.9124727286" lon="-2.9319777433">
        <ele>995.58</ele>
        <time>2017-10-08T10:48:04Z</time>
      </trkpt>
      <trkpt lat="37.9125191644" lon="-2.9319634940">
        <ele>995.10</ele>
        <time>2017-10-08T10:48:05Z</time>
      </trkpt>
      <trkpt lat="37.9125633370" lon="-2.9319572914">
        <ele>995.10</ele>
        <time>2017-10-08T10:48:06Z</time>
      </trkpt>
      <trkpt lat="37.9126177356" lon="-2.9319554474">
        <ele>995.10</ele>
        <time>2017-10-08T10:48:07Z</time>
      </trkpt>
      <trkpt lat="37.9126828630" lon="-2.9319614824">
        <ele>994.62</ele>
        <time>2017-10-08T10:48:08Z</time>
      </trkpt>
      <trkpt lat="37.9127449729" lon="-2.9319822695">
        <ele>994.62</ele>
        <time>2017-10-08T10:48:09Z</time>
      </trkpt>
      <trkpt lat="37.9127966054" lon="-2.9320154618">
        <ele>994.62</ele>
        <time>2017-10-08T10:48:10Z</time>
      </trkpt>
      <trkpt lat="37.9128486570" lon="-2.9320473969">
        <ele>994.62</ele>
        <time>2017-10-08T10:48:11Z</time>
      </trkpt>
      <trkpt lat="37.9129024688" lon="-2.9320748057">
        <ele>994.62</ele>
        <time>2017-10-08T10:48:12Z</time>
      </trkpt>
      <trkpt lat="37.9129577056" lon="-2.9321019631">
        <ele>994.14</ele>
        <time>2017-10-08T10:48:13Z</time>
      </trkpt>
      <trkpt lat="37.9130706098" lon="-2.9321833514">
        <ele>993.66</ele>
        <time>2017-10-08T10:48:15Z</time>
      </trkpt>
      <trkpt lat="37.9131851904" lon="-2.9322796594">
        <ele>993.18</ele>
        <time>2017-10-08T10:48:17Z</time>
      </trkpt>
      <trkpt lat="37.9132510722" lon="-2.9323093314">
        <ele>992.70</ele>
        <time>2017-10-08T10:48:18Z</time>
      </trkpt>
      <trkpt lat="37.9133177921" lon="-2.9323196411">
        <ele>992.70</ele>
        <time>2017-10-08T10:48:19Z</time>
      </trkpt>
      <trkpt lat="37.9133885354" lon="-2.9323041346">
        <ele>992.22</ele>
        <time>2017-10-08T10:48:20Z</time>
      </trkpt>
      <trkpt lat="37.9134514835" lon="-2.9322654102">
        <ele>992.22</ele>
        <time>2017-10-08T10:48:21Z</time>
      </trkpt>
      <trkpt lat="37.9135047924" lon="-2.9322166275">
        <ele>991.74</ele>
        <time>2017-10-08T10:48:22Z</time>
      </trkpt>
      <trkpt lat="37.9135509767" lon="-2.9321639054">
        <ele>991.74</ele>
        <time>2017-10-08T10:48:23Z</time>
      </trkpt>
      <trkpt lat="37.9135871865" lon="-2.9321049806">
        <ele>991.74</ele>
        <time>2017-10-08T10:48:24Z</time>
      </trkpt>
      <trkpt lat="37.9136225581" lon="-2.9320463073">
        <ele>991.74</ele>
        <time>2017-10-08T10:48:25Z</time>
      </trkpt>
      <trkpt lat="37.9136557505" lon="-2.9319922440">
        <ele>991.74</ele>
        <time>2017-10-08T10:48:26Z</time>
      </trkpt>
      <trkpt lat="37.9137370549" lon="-2.9318413697">
        <ele>992.22</ele>
        <time>2017-10-08T10:48:29Z</time>
      </trkpt>
      <trkpt lat="37.9137553275" lon="-2.9317936767">
        <ele>992.22</ele>
        <time>2017-10-08T10:48:30Z</time>
      </trkpt>
      <trkpt lat="37.9137684032" lon="-2.9317477439">
        <ele>992.70</ele>
        <time>2017-10-08T10:48:31Z</time>
      </trkpt>
      <trkpt lat="37.9137764499" lon="-2.9316997994">
        <ele>992.70</ele>
        <time>2017-10-08T10:48:32Z</time>
      </trkpt>
      <trkpt lat="37.9137790482" lon="-2.9316493403">
        <ele>992.70</ele>
        <time>2017-10-08T10:48:33Z</time>
      </trkpt>
      <trkpt lat="37.9137749411" lon="-2.9316005576">
        <ele>992.70</ele>
        <time>2017-10-08T10:48:34Z</time>
      </trkpt>
      <trkpt lat="37.9137667269" lon="-2.9315515235">
        <ele>992.70</ele>
        <time>2017-10-08T10:48:35Z</time>
      </trkpt>
      <trkpt lat="37.9137574229" lon="-2.9315024056">
        <ele>992.70</ele>
        <time>2017-10-08T10:48:36Z</time>
      </trkpt>
      <trkpt lat="37.9137499630" lon="-2.9314523656">
        <ele>992.70</ele>
        <time>2017-10-08T10:48:37Z</time>
      </trkpt>
      <trkpt lat="37.9137326125" lon="-2.9312456679">
        <ele>992.70</ele>
        <time>2017-10-08T10:48:41Z</time>
      </trkpt>
      <trkpt lat="37.9137493763" lon="-2.9311921913">
        <ele>992.70</ele>
        <time>2017-10-08T10:48:42Z</time>
      </trkpt>
      <trkpt lat="37.9138083011" lon="-2.9310918599">
        <ele>993.18</ele>
        <time>2017-10-08T10:48:44Z</time>
      </trkpt>
      <trkpt lat="37.9138430860" lon="-2.9310518783">
        <ele>993.18</ele>
        <time>2017-10-08T10:48:45Z</time>
      </trkpt>
      <trkpt lat="37.9138773680" lon="-2.9310120642">
        <ele>993.18</ele>
        <time>2017-10-08T10:48:46Z</time>
      </trkpt>
      <trkpt lat="37.9149404448" lon="-2.9303374048">
        <ele>1005.20</ele>
        <time>2017-10-08T10:49:12Z</time>
      </trkpt>
      <trkpt lat="37.9149708711" lon="-2.9303179588">
        <ele>1005.20</ele>
        <time>2017-10-08T10:49:13Z</time>
      </trkpt>
      <trkpt lat="37.9149792530" lon="-2.9303106666">
        <ele>1005.20</ele>
        <time>2017-10-08T10:49:14Z</time>
      </trkpt>
      <trkpt lat="37.9153419379" lon="-2.9301133566">
        <ele>1003.75</ele>
        <time>2017-10-08T10:49:24Z</time>
      </trkpt>
      <trkpt lat="37.9155633878" lon="-2.9302844312">
        <ele>1001.83</ele>
        <time>2017-10-08T10:49:32Z</time>
      </trkpt>
      <trkpt lat="37.9156125057" lon="-2.9303657357">
        <ele>1000.87</ele>
        <time>2017-10-08T10:49:34Z</time>
      </trkpt>
      <trkpt lat="37.9156388249" lon="-2.9304118361">
        <ele>1000.39</ele>
        <time>2017-10-08T10:49:35Z</time>
      </trkpt>
      <trkpt lat="37.9156678263" lon="-2.9304538295">
        <ele>999.91</ele>
        <time>2017-10-08T10:49:36Z</time>
      </trkpt>
      <trkpt lat="37.9156946484" lon="-2.9304949846">
        <ele>999.91</ele>
        <time>2017-10-08T10:49:37Z</time>
      </trkpt>
      <trkpt lat="37.9157230631" lon="-2.9305384029">
        <ele>995.58</ele>
        <time>2017-10-08T10:49:38Z</time>
      </trkpt>
      <trkpt lat="37.9157549981" lon="-2.9305788036">
        <ele>1003.75</ele>
        <time>2017-10-08T10:49:39Z</time>
      </trkpt>
      <trkpt lat="37.9157897830" lon="-2.9306212999">
        <ele>998.95</ele>
        <time>2017-10-08T10:49:40Z</time>
      </trkpt>
      <trkpt lat="37.9158269987" lon="-2.9306632094">
        <ele>997.99</ele>
        <time>2017-10-08T10:49:41Z</time>
      </trkpt>
      <trkpt lat="37.9158723447" lon="-2.9306961503">
        <ele>997.51</ele>
        <time>2017-10-08T10:49:42Z</time>
      </trkpt>
      <trkpt lat="37.9159267433" lon="-2.9307176918">
        <ele>997.02</ele>
        <time>2017-10-08T10:49:43Z</time>
      </trkpt>
      <trkpt lat="37.9159897752" lon="-2.9307267442">
        <ele>996.06</ele>
        <time>2017-10-08T10:49:44Z</time>
      </trkpt>
      <trkpt lat="37.9160617758" lon="-2.9307200387">
        <ele>995.58</ele>
        <time>2017-10-08T10:49:45Z</time>
      </trkpt>
      <trkpt lat="37.9161328543" lon="-2.9307054542">
        <ele>995.10</ele>
        <time>2017-10-08T10:49:46Z</time>
      </trkpt>
      <trkpt lat="37.9162051901" lon="-2.9306772072">
        <ele>994.14</ele>
        <time>2017-10-08T10:49:47Z</time>
      </trkpt>
      <trkpt lat="37.9162793700" lon="-2.9306432605">
        <ele>993.18</ele>
        <time>2017-10-08T10:49:48Z</time>
      </trkpt>
      <trkpt lat="37.9166660272" lon="-2.9304332100">
        <ele>989.33</ele>
        <time>2017-10-08T10:49:53Z</time>
      </trkpt>
      <trkpt lat="37.9167380277" lon="-2.9303729441">
        <ele>988.37</ele>
        <time>2017-10-08T10:49:54Z</time>
      </trkpt>
      <trkpt lat="37.9167979583" lon="-2.9302947409">
        <ele>987.41</ele>
        <time>2017-10-08T10:49:55Z</time>
      </trkpt>
      <trkpt lat="37.9168469924" lon="-2.9302011989">
        <ele>986.45</ele>
        <time>2017-10-08T10:49:56Z</time>
      </trkpt>
      <trkpt lat="37.9168884829" lon="-2.9300976824">
        <ele>985.97</ele>
        <time>2017-10-08T10:49:57Z</time>
      </trkpt>
      <trkpt lat="37.9169241898" lon="-2.9299890529">
        <ele>985.01</ele>
        <time>2017-10-08T10:49:58Z</time>
      </trkpt>
      <trkpt lat="37.9169982020" lon="-2.9297722131">
        <ele>983.09</ele>
        <time>2017-10-08T10:50:00Z</time>
      </trkpt>
      <trkpt lat="37.9170355853" lon="-2.9296717141">
        <ele>983.09</ele>
        <time>2017-10-08T10:50:01Z</time>
      </trkpt>
      <trkpt lat="37.9171539377" lon="-2.9294524435">
        <ele>982.12</ele>
        <time>2017-10-08T10:50:04Z</time>
      </trkpt>
      <trkpt lat="37.9172034748" lon="-2.9293951113">
        <ele>982.12</ele>
        <time>2017-10-08T10:50:05Z</time>
      </trkpt>
      <trkpt lat="37.9172547720" lon="-2.9293469992">
        <ele>981.64</ele>
        <time>2017-10-08T10:50:06Z</time>
      </trkpt>
      <trkpt lat="37.9173060693" lon="-2.9292998090">
        <ele>981.64</ele>
        <time>2017-10-08T10:50:07Z</time>
      </trkpt>
      <trkpt lat="37.9173535109" lon="-2.9292511102">
        <ele>981.64</ele>
        <time>2017-10-08T10:50:08Z</time>
      </trkpt>
      <trkpt lat="37.9176043812" lon="-2.9289611802">
        <ele>980.68</ele>
        <time>2017-10-08T10:50:14Z</time>
      </trkpt>
      <trkpt lat="37.9178223107" lon="-2.9286507983">
        <ele>979.24</ele>
        <time>2017-10-08T10:50:20Z</time>
      </trkpt>
      <trkpt lat="37.9178969096" lon="-2.9285572562">
        <ele>978.76</ele>
        <time>2017-10-08T10:50:22Z</time>
      </trkpt>
      <trkpt lat="37.9179350473" lon="-2.9285065457">
        <ele>978.76</ele>
        <time>2017-10-08T10:50:23Z</time>
      </trkpt>
      <trkpt lat="37.9179762024" lon="-2.9284569249">
        <ele>978.76</ele>
        <time>2017-10-08T10:50:24Z</time>
      </trkpt>
      <trkpt lat="37.9180202913" lon="-2.9284127522">
        <ele>978.28</ele>
        <time>2017-10-08T10:50:25Z</time>
      </trkpt>
      <trkpt lat="37.9180642962" lon="-2.9283715971">
        <ele>978.28</ele>
        <time>2017-10-08T10:50:26Z</time>
      </trkpt>
      <trkpt lat="37.9181538988" lon="-2.9282992613">
        <ele>977.80</ele>
        <time>2017-10-08T10:50:28Z</time>
      </trkpt>
      <trkpt lat="37.9183520470" lon="-2.9281995166">
        <ele>977.32</ele>
        <time>2017-10-08T10:50:32Z</time>
      </trkpt>
      <trkpt lat="37.9185563140" lon="-2.9281600378">
        <ele>976.84</ele>
        <time>2017-10-08T10:50:36Z</time>
      </trkpt>
      <trkpt lat="37.9189386126" lon="-2.9280749615">
        <ele>976.84</ele>
        <time>2017-10-08T10:50:45Z</time>
      </trkpt>
      <trkpt lat="37.9192183167" lon="-2.9280177131">
        <ele>977.80</ele>
        <time>2017-10-08T10:50:52Z</time>
      </trkpt>
      <trkpt lat="37.9195312969" lon="-2.9279669188">
        <ele>978.28</ele>
        <time>2017-10-08T10:51:01Z</time>
      </trkpt>
      <trkpt lat="37.9198198859" lon="-2.9279306252">
        <ele>979.24</ele>
        <time>2017-10-08T10:51:10Z</time>
      </trkpt>
      <trkpt lat="37.9201366380" lon="-2.9279041383">
        <ele>980.20</ele>
        <time>2017-10-08T10:51:20Z</time>
      </trkpt>
      <trkpt lat="37.9205262288" lon="-2.9278608877">
        <ele>981.16</ele>
        <time>2017-10-08T10:51:32Z</time>
      </trkpt>
      <trkpt lat="37.9208570626" lon="-2.9278216604">
        <ele>982.60</ele>
        <time>2017-10-08T10:51:43Z</time>
      </trkpt>
      <trkpt lat="37.9210646823" lon="-2.9277074989">
        <ele>983.57</ele>
        <time>2017-10-08T10:51:52Z</time>
      </trkpt>
      <trkpt lat="37.9212726373" lon="-2.9276490770">
        <ele>985.01</ele>
        <time>2017-10-08T10:52:01Z</time>
      </trkpt>
      <trkpt lat="37.9213156365" lon="-2.9276412819">
        <ele>985.01</ele>
        <time>2017-10-08T10:52:03Z</time>
      </trkpt>
      <trkpt lat="37.9213326517" lon="-2.9276397731">
        <ele>985.01</ele>
        <time>2017-10-08T10:52:04Z</time>
      </trkpt>
      <trkpt lat="37.9213478230" lon="-2.9276287928">
        <ele>985.49</ele>
        <time>2017-10-08T10:52:05Z</time>
      </trkpt>
      <trkpt lat="37.9213629104" lon="-2.9276186507">
        <ele>985.49</ele>
        <time>2017-10-08T10:52:06Z</time>
      </trkpt>
      <trkpt lat="37.9213814344" lon="-2.9276094306">
        <ele>985.97</ele>
        <time>2017-10-08T10:52:07Z</time>
      </trkpt>
      <trkpt lat="37.9214028921" lon="-2.9276014678">
        <ele>985.97</ele>
        <time>2017-10-08T10:52:08Z</time>
      </trkpt>
      <trkpt lat="37.9215745535" lon="-2.9274879768">
        <ele>986.45</ele>
        <time>2017-10-08T10:52:17Z</time>
      </trkpt>
      <trkpt lat="37.9217584524" lon="-2.9273263738">
        <ele>987.89</ele>
        <time>2017-10-08T10:52:27Z</time>
      </trkpt>
      <trkpt lat="37.9218902998" lon="-2.9271894973">
        <ele>988.85</ele>
        <time>2017-10-08T10:52:35Z</time>
      </trkpt>
      <trkpt lat="37.9218988493" lon="-2.9271749966">
        <ele>989.33</ele>
        <time>2017-10-08T10:52:36Z</time>
      </trkpt>
      <trkpt lat="37.9220736958" lon="-2.9269838054">
        <ele>990.30</ele>
        <time>2017-10-08T10:52:47Z</time>
      </trkpt>
      <trkpt lat="37.9221365601" lon="-2.9269217793">
        <ele>990.78</ele>
        <time>2017-10-08T10:52:50Z</time>
      </trkpt>
      <trkpt lat="37.9221573472" lon="-2.9268882517">
        <ele>990.78</ele>
        <time>2017-10-08T10:52:51Z</time>
      </trkpt>
      <trkpt lat="37.9221802298" lon="-2.9268560652">
        <ele>990.78</ele>
        <time>2017-10-08T10:52:52Z</time>
      </trkpt>
      <trkpt lat="37.9223492090" lon="-2.9266688135">
        <ele>992.22</ele>
        <time>2017-10-08T10:53:01Z</time>
      </trkpt>
      <trkpt lat="37.9223632067" lon="-2.9266419914">
        <ele>992.22</ele>
        <time>2017-10-08T10:53:02Z</time>
      </trkpt>
      <trkpt lat="37.9223761987" lon="-2.9266158398">
        <ele>992.22</ele>
        <time>2017-10-08T10:53:03Z</time>
      </trkpt>
      <trkpt lat="37.9223899450" lon="-2.9265901074">
        <ele>992.22</ele>
        <time>2017-10-08T10:53:04Z</time>
      </trkpt>
      <trkpt lat="37.9224053677" lon="-2.9265663028">
        <ele>992.22</ele>
        <time>2017-10-08T10:53:05Z</time>
      </trkpt>
      <trkpt lat="37.9225243907" lon="-2.9264803044">
        <ele>992.22</ele>
        <time>2017-10-08T10:53:09Z</time>
      </trkpt>
      <trkpt lat="37.9225662164" lon="-2.9264652170">
        <ele>991.26</ele>
        <time>2017-10-08T10:53:10Z</time>
      </trkpt>
      <trkpt lat="37.9226500355" lon="-2.9264454357">
        <ele>990.78</ele>
        <time>2017-10-08T10:53:12Z</time>
      </trkpt>
      <trkpt lat="37.9227461759" lon="-2.9264337849">
        <ele>990.30</ele>
        <time>2017-10-08T10:53:14Z</time>
      </trkpt>
      <trkpt lat="37.9227963835" lon="-2.9264396522">
        <ele>989.33</ele>
        <time>2017-10-08T10:53:15Z</time>
      </trkpt>
      <trkpt lat="37.9230470024" lon="-2.9264701623">
        <ele>987.41</ele>
        <time>2017-10-08T10:53:20Z</time>
      </trkpt>
      <trkpt lat="37.9231339227" lon="-2.9264894407">
        <ele>986.93</ele>
        <time>2017-10-08T10:53:22Z</time>
      </trkpt>
      <trkpt lat="37.9231719766" lon="-2.9264981579">
        <ele>986.45</ele>
        <time>2017-10-08T10:53:23Z</time>
      </trkpt>
      <trkpt lat="37.9231991339" lon="-2.9265051149">
        <ele>986.45</ele>
        <time>2017-10-08T10:53:24Z</time>
      </trkpt>
      <trkpt lat="37.9232226033" lon="-2.9265126586">
        <ele>986.45</ele>
        <time>2017-10-08T10:53:25Z</time>
      </trkpt>
      <trkpt lat="37.9232438095" lon="-2.9265197832">
        <ele>986.45</ele>
        <time>2017-10-08T10:53:26Z</time>
      </trkpt>
      <trkpt lat="37.9232644290" lon="-2.9265269917">
        <ele>986.45</ele>
        <time>2017-10-08T10:53:27Z</time>
      </trkpt>
      <trkpt lat="37.9232781753" lon="-2.9265325237">
        <ele>986.45</ele>
        <time>2017-10-08T10:53:28Z</time>
      </trkpt>
      <trkpt lat="37.9232909996" lon="-2.9265582561">
        <ele>986.45</ele>
        <time>2017-10-08T10:53:37Z</time>
      </trkpt>
      <trkpt lat="37.9233123735" lon="-2.9265522212">
        <ele>986.45</ele>
        <time>2017-10-08T10:53:50Z</time>
      </trkpt>
      <trkpt lat="37.9233127926" lon="-2.9265453480">
        <ele>986.45</ele>
        <time>2017-10-08T10:54:05Z</time>
      </trkpt>
      <trkpt lat="37.9233129602" lon="-2.9265442584">
        <ele>986.45</ele>
        <time>2017-10-08T10:54:12Z</time>
      </trkpt>
      <trkpt lat="37.9233515169" lon="-2.9265656322">
        <ele>986.45</ele>
        <time>2017-10-08T10:54:15Z</time>
      </trkpt>
      <trkpt lat="37.9233749025" lon="-2.9265696555">
        <ele>986.45</ele>
        <time>2017-10-08T10:54:16Z</time>
      </trkpt>
      <trkpt lat="37.9234949313" lon="-2.9265972320">
        <ele>986.93</ele>
        <time>2017-10-08T10:54:25Z</time>
      </trkpt>
      <trkpt lat="37.9235056601" lon="-2.9266070388">
        <ele>987.41</ele>
        <time>2017-10-08T10:54:39Z</time>
      </trkpt>
      <trkpt lat="37.9235246032" lon="-2.9266105592">
        <ele>986.93</ele>
        <time>2017-10-08T10:54:50Z</time>
      </trkpt>
      <trkpt lat="37.9235177301" lon="-2.9266062845">
        <ele>986.93</ele>
        <time>2017-10-08T10:55:05Z</time>
      </trkpt>
      <trkpt lat="37.9236393515" lon="-2.9266509600">
        <ele>987.89</ele>
        <time>2017-10-08T10:55:13Z</time>
      </trkpt>
      <trkpt lat="37.9237460531" lon="-2.9267178476">
        <ele>988.37</ele>
        <time>2017-10-08T10:55:21Z</time>
      </trkpt>
      <trkpt lat="37.9237560276" lon="-2.9267350305">
        <ele>988.37</ele>
        <time>2017-10-08T10:55:22Z</time>
      </trkpt>
      <trkpt lat="37.9237704445" lon="-2.9267460946">
        <ele>988.37</ele>
        <time>2017-10-08T10:55:23Z</time>
      </trkpt>
      <trkpt lat="37.9237890523" lon="-2.9267455079">
        <ele>988.85</ele>
        <time>2017-10-08T10:55:24Z</time>
      </trkpt>
      <trkpt lat="37.9238075763" lon="-2.9267450050">
        <ele>988.85</ele>
        <time>2017-10-08T10:55:25Z</time>
      </trkpt>
      <trkpt lat="37.9238240886" lon="-2.9267471004">
        <ele>988.85</ele>
        <time>2017-10-08T10:55:26Z</time>
      </trkpt>
      <trkpt lat="37.9238404334" lon="-2.9267544765">
        <ele>989.33</ele>
        <time>2017-10-08T10:55:27Z</time>
      </trkpt>
      <trkpt lat="37.9238504078" lon="-2.9267722461">
        <ele>989.33</ele>
        <time>2017-10-08T10:55:28Z</time>
      </trkpt>
      <trkpt lat="37.9238528386" lon="-2.9267950449">
        <ele>989.33</ele>
        <time>2017-10-08T10:55:29Z</time>
      </trkpt>
      <trkpt lat="37.9238619749" lon="-2.9268128145">
        <ele>989.33</ele>
        <time>2017-10-08T10:55:30Z</time>
      </trkpt>
      <trkpt lat="37.9238784872" lon="-2.9268173408">
        <ele>989.33</ele>
        <time>2017-10-08T10:55:31Z</time>
      </trkpt>
      <trkpt lat="37.9238971788" lon="-2.9268142395">
        <ele>989.33</ele>
        <time>2017-10-08T10:55:32Z</time>
      </trkpt>
      <trkpt lat="37.9239142779" lon="-2.9268135689">
        <ele>989.81</ele>
        <time>2017-10-08T10:55:33Z</time>
      </trkpt>
      <trkpt lat="37.9239281919" lon="-2.9268225376">
        <ele>989.81</ele>
        <time>2017-10-08T10:55:34Z</time>
      </trkpt>
      <trkpt lat="37.9239342269" lon="-2.9268434085">
        <ele>989.81</ele>
        <time>2017-10-08T10:55:35Z</time>
      </trkpt>
      <trkpt lat="37.9239340592" lon="-2.9268677998">
        <ele>989.81</ele>
        <time>2017-10-08T10:55:36Z</time>
      </trkpt>
      <trkpt lat="37.9239447881" lon="-2.9269055184">
        <ele>989.81</ele>
        <time>2017-10-08T10:55:38Z</time>
      </trkpt>
      <trkpt lat="37.9239608813" lon="-2.9269138165">
        <ele>990.30</ele>
        <time>2017-10-08T10:55:39Z</time>
      </trkpt>
      <trkpt lat="37.9240239132" lon="-2.9269408062">
        <ele>990.30</ele>
        <time>2017-10-08T10:55:43Z</time>
      </trkpt>
      <trkpt lat="37.9240307864" lon="-2.9269615095">
        <ele>990.78</ele>
        <time>2017-10-08T10:55:44Z</time>
      </trkpt>
      <trkpt lat="37.9240364861" lon="-2.9269836377">
        <ele>990.78</ele>
        <time>2017-10-08T10:55:45Z</time>
      </trkpt>
      <trkpt lat="37.9240468796" lon="-2.9270022456">
        <ele>990.78</ele>
        <time>2017-10-08T10:55:46Z</time>
      </trkpt>
      <trkpt lat="37.9240576923" lon="-2.9270229489">
        <ele>990.78</ele>
        <time>2017-10-08T10:55:47Z</time>
      </trkpt>
      <trkpt lat="37.9240704328" lon="-2.9270464182">
        <ele>991.26</ele>
        <time>2017-10-08T10:55:48Z</time>
      </trkpt>
      <trkpt lat="37.9240811616" lon="-2.9270712286">
        <ele>991.26</ele>
        <time>2017-10-08T10:55:49Z</time>
      </trkpt>
      <trkpt lat="37.9240887892" lon="-2.9270959552">
        <ele>991.26</ele>
        <time>2017-10-08T10:55:50Z</time>
      </trkpt>
      <trkpt lat="37.9241004400" lon="-2.9271205142">
        <ele>991.26</ele>
        <time>2017-10-08T10:55:51Z</time>
      </trkpt>
      <trkpt lat="37.9241069779" lon="-2.9271488450">
        <ele>991.74</ele>
        <time>2017-10-08T10:55:52Z</time>
      </trkpt>
      <trkpt lat="37.9241111688" lon="-2.9271750804">
        <ele>991.74</ele>
        <time>2017-10-08T10:55:53Z</time>
      </trkpt>
      <trkpt lat="37.9241301958" lon="-2.9274271242">
        <ele>992.70</ele>
        <time>2017-10-08T10:56:04Z</time>
      </trkpt>
      <trkpt lat="37.9241294414" lon="-2.9274488334">
        <ele>993.18</ele>
        <time>2017-10-08T10:56:05Z</time>
      </trkpt>
      <trkpt lat="37.9241211433" lon="-2.9274707939">
        <ele>993.18</ele>
        <time>2017-10-08T10:56:06Z</time>
      </trkpt>
      <trkpt lat="37.9241146892" lon="-2.9274940956">
        <ele>993.66</ele>
        <time>2017-10-08T10:56:07Z</time>
      </trkpt>
      <trkpt lat="37.9241114203" lon="-2.9275191575">
        <ele>993.18</ele>
        <time>2017-10-08T10:56:08Z</time>
      </trkpt>
      <trkpt lat="37.9241111688" lon="-2.9275426269">
        <ele>993.66</ele>
        <time>2017-10-08T10:56:09Z</time>
      </trkpt>
      <trkpt lat="37.9240623862" lon="-2.9278064054">
        <ele>995.10</ele>
        <time>2017-10-08T10:56:19Z</time>
      </trkpt>
      <trkpt lat="37.9240159504" lon="-2.9280623887">
        <ele>997.02</ele>
        <time>2017-10-08T10:56:29Z</time>
      </trkpt>
      <trkpt lat="37.9239732027" lon="-2.9283217248">
        <ele>998.47</ele>
        <time>2017-10-08T10:56:40Z</time>
      </trkpt>
      <trkpt lat="37.9239693470" lon="-2.9283413384">
        <ele>998.47</ele>
        <time>2017-10-08T10:56:41Z</time>
      </trkpt>
      <trkpt lat="37.9239678383" lon="-2.9283664841">
        <ele>998.47</ele>
        <time>2017-10-08T10:56:42Z</time>
      </trkpt>
      <trkpt lat="37.9239625577" lon="-2.9283942282">
        <ele>998.47</ele>
        <time>2017-10-08T10:56:43Z</time>
      </trkpt>
      <trkpt lat="37.9239566904" lon="-2.9284218047">
        <ele>998.47</ele>
        <time>2017-10-08T10:56:44Z</time>
      </trkpt>
      <trkpt lat="37.9239531700" lon="-2.9284520634">
        <ele>998.47</ele>
        <time>2017-10-08T10:56:45Z</time>
      </trkpt>
      <trkpt lat="37.9239504877" lon="-2.9284783825">
        <ele>998.95</ele>
        <time>2017-10-08T10:56:46Z</time>
      </trkpt>
      <trkpt lat="37.9239043873" lon="-2.9287678935">
        <ele>999.91</ele>
        <time>2017-10-08T10:56:57Z</time>
      </trkpt>
      <trkpt lat="37.9238685127" lon="-2.9288287461">
        <ele>1000.39</ele>
        <time>2017-10-08T10:57:00Z</time>
      </trkpt>
      <trkpt lat="37.9238439538" lon="-2.9288424086">
        <ele>1000.87</ele>
        <time>2017-10-08T10:57:01Z</time>
      </trkpt>
      <trkpt lat="37.9236370046" lon="-2.9289203603">
        <ele>1001.83</ele>
        <time>2017-10-08T10:57:12Z</time>
      </trkpt>
      <trkpt lat="37.9235049896" lon="-2.9289916903">
        <ele>1001.35</ele>
        <time>2017-10-08T10:57:21Z</time>
      </trkpt>
      <trkpt lat="37.9234734736" lon="-2.9290124774">
        <ele>1001.35</ele>
        <time>2017-10-08T10:57:23Z</time>
      </trkpt>
      <trkpt lat="37.9234556202" lon="-2.9290091246">
        <ele>1000.87</ele>
        <time>2017-10-08T10:57:24Z</time>
      </trkpt>
      <trkpt lat="37.9234368447" lon="-2.9290106334">
        <ele>1000.87</ele>
        <time>2017-10-08T10:57:25Z</time>
      </trkpt>
      <trkpt lat="37.9234157223" lon="-2.9290189315">
        <ele>1000.87</ele>
        <time>2017-10-08T10:57:26Z</time>
      </trkpt>
      <trkpt lat="37.9233960249" lon="-2.9290313367">
        <ele>1000.87</ele>
        <time>2017-10-08T10:57:27Z</time>
      </trkpt>
      <trkpt lat="37.9231988825" lon="-2.9291534610">
        <ele>998.95</ele>
        <time>2017-10-08T10:57:36Z</time>
      </trkpt>
      <trkpt lat="37.9228128958" lon="-2.9293377791">
        <ele>995.58</ele>
        <time>2017-10-08T10:57:43Z</time>
      </trkpt>
      <trkpt lat="37.9227462597" lon="-2.9293790180">
        <ele>995.58</ele>
        <time>2017-10-08T10:57:44Z</time>
      </trkpt>
      <trkpt lat="37.9226829764" lon="-2.9294230230">
        <ele>995.10</ele>
        <time>2017-10-08T10:57:45Z</time>
      </trkpt>
      <trkpt lat="37.9221520666" lon="-2.9299774021">
        <ele>993.66</ele>
        <time>2017-10-08T10:57:55Z</time>
      </trkpt>
      <trkpt lat="37.9220559262" lon="-2.9301118478">
        <ele>992.70</ele>
        <time>2017-10-08T10:57:57Z</time>
      </trkpt>
      <trkpt lat="37.9219622165" lon="-2.9302417673">
        <ele>991.74</ele>
        <time>2017-10-08T10:57:59Z</time>
      </trkpt>
      <trkpt lat="37.9219250847" lon="-2.9303120915">
        <ele>991.26</ele>
        <time>2017-10-08T10:58:00Z</time>
      </trkpt>
      <trkpt lat="37.9218498152" lon="-2.9304581881">
        <ele>990.30</ele>
        <time>2017-10-08T10:58:02Z</time>
      </trkpt>
      <trkpt lat="37.9217955843" lon="-2.9305154365">
        <ele>989.33</ele>
        <time>2017-10-08T10:58:03Z</time>
      </trkpt>
      <trkpt lat="37.9217350669" lon="-2.9305544961">
        <ele>988.85</ele>
        <time>2017-10-08T10:58:04Z</time>
      </trkpt>
      <trkpt lat="37.9216732085" lon="-2.9305757023">
        <ele>988.85</ele>
        <time>2017-10-08T10:58:05Z</time>
      </trkpt>
      <trkpt lat="37.9216151219" lon="-2.9305864312">
        <ele>988.85</ele>
        <time>2017-10-08T10:58:06Z</time>
      </trkpt>
      <trkpt lat="37.9215582088" lon="-2.9305873532">
        <ele>988.85</ele>
        <time>2017-10-08T10:58:07Z</time>
      </trkpt>
      <trkpt lat="37.9215039779" lon="-2.9305767920">
        <ele>988.37</ele>
        <time>2017-10-08T10:58:08Z</time>
      </trkpt>
      <trkpt lat="37.9214536864" lon="-2.9305615369">
        <ele>988.37</ele>
        <time>2017-10-08T10:58:09Z</time>
      </trkpt>
      <trkpt lat="37.9213132896" lon="-2.9305226449">
        <ele>987.41</ele>
        <time>2017-10-08T10:58:12Z</time>
      </trkpt>
      <trkpt lat="37.9212663509" lon="-2.9305187892">
        <ele>987.41</ele>
        <time>2017-10-08T10:58:13Z</time>
      </trkpt>
      <trkpt lat="37.9210995510" lon="-2.9305176158">
        <ele>986.45</ele>
        <time>2017-10-08T10:58:17Z</time>
      </trkpt>
      <trkpt lat="37.9209082760" lon="-2.9304964095">
        <ele>985.01</ele>
        <time>2017-10-08T10:58:21Z</time>
      </trkpt>
      <trkpt lat="37.9204365425" lon="-2.9303910490">
        <ele>983.57</ele>
        <time>2017-10-08T10:58:30Z</time>
      </trkpt>
      <trkpt lat="37.9203305952" lon="-2.9303552583">
        <ele>983.09</ele>
        <time>2017-10-08T10:58:32Z</time>
      </trkpt>
      <trkpt lat="37.9202772863" lon="-2.9303349741">
        <ele>983.09</ele>
        <time>2017-10-08T10:58:33Z</time>
      </trkpt>
      <trkpt lat="37.9197615478" lon="-2.9301613010">
        <ele>981.16</ele>
        <time>2017-10-08T10:58:43Z</time>
      </trkpt>
      <trkpt lat="37.9196547624" lon="-2.9300717823">
        <ele>980.68</ele>
        <time>2017-10-08T10:58:50Z</time>
      </trkpt>
      <trkpt lat="37.9196229111" lon="-2.9300202336">
        <ele>980.68</ele>
        <time>2017-10-08T10:58:54Z</time>
      </trkpt>
      <trkpt lat="37.9196075723" lon="-2.9300049786">
        <ele>980.68</ele>
        <time>2017-10-08T10:58:55Z</time>
      </trkpt>
      <trkpt lat="37.9195858631" lon="-2.9300026316">
        <ele>980.20</ele>
        <time>2017-10-08T10:58:56Z</time>
      </trkpt>
      <trkpt lat="37.9195630644" lon="-2.9300113488">
        <ele>980.20</ele>
        <time>2017-10-08T10:58:57Z</time>
      </trkpt>
      <trkpt lat="37.9195407685" lon="-2.9300188087">
        <ele>979.72</ele>
        <time>2017-10-08T10:58:58Z</time>
      </trkpt>
      <trkpt lat="37.9195195623" lon="-2.9300233349">
        <ele>979.72</ele>
        <time>2017-10-08T10:58:59Z</time>
      </trkpt>
      <trkpt lat="37.9194960929" lon="-2.9300216585">
        <ele>979.24</ele>
        <time>2017-10-08T10:59:00Z</time>
      </trkpt>
      <trkpt lat="37.9194753896" lon="-2.9300110135">
        <ele>978.76</ele>
        <time>2017-10-08T10:59:01Z</time>
      </trkpt>
      <trkpt lat="37.9194624815" lon="-2.9299918190">
        <ele>978.76</ele>
        <time>2017-10-08T10:59:02Z</time>
      </trkpt>
      <trkpt lat="37.9194544349" lon="-2.9299696907">
        <ele>978.28</ele>
        <time>2017-10-08T10:59:03Z</time>
      </trkpt>
      <trkpt lat="37.9194474779" lon="-2.9299478140">
        <ele>978.28</ele>
        <time>2017-10-08T10:59:04Z</time>
      </trkpt>
      <trkpt lat="37.9194418620" lon="-2.9299240094">
        <ele>978.28</ele>
        <time>2017-10-08T10:59:05Z</time>
      </trkpt>
      <trkpt lat="37.9194395151" lon="-2.9298969358">
        <ele>977.80</ele>
        <time>2017-10-08T10:59:06Z</time>
      </trkpt>
      <trkpt lat="37.9194370843" lon="-2.9298715387">
        <ele>977.32</ele>
        <time>2017-10-08T10:59:07Z</time>
      </trkpt>
      <trkpt lat="37.9194322228" lon="-2.9298475664">
        <ele>977.32</ele>
        <time>2017-10-08T10:59:08Z</time>
      </trkpt>
      <trkpt lat="37.9194318876" lon="-2.9298286233">
        <ele>977.80</ele>
        <time>2017-10-08T10:59:09Z</time>
      </trkpt>
      <trkpt lat="37.9194400180" lon="-2.9298128653">
        <ele>977.32</ele>
        <time>2017-10-08T10:59:10Z</time>
      </trkpt>
      <trkpt lat="37.9194465559" lon="-2.9297955986">
        <ele>976.84</ele>
        <time>2017-10-08T10:59:11Z</time>
      </trkpt>
      <trkpt lat="37.9194396827" lon="-2.9297803435">
        <ele>977.32</ele>
        <time>2017-10-08T10:59:12Z</time>
      </trkpt>
      <trkpt lat="37.9194270261" lon="-2.9297743924">
        <ele>976.84</ele>
        <time>2017-10-08T10:59:13Z</time>
      </trkpt>
      <trkpt lat="37.9194149561" lon="-2.9297788348">
        <ele>976.84</ele>
        <time>2017-10-08T10:59:14Z</time>
      </trkpt>
      <trkpt lat="37.9194103461" lon="-2.9297951795">
        <ele>976.84</ele>
        <time>2017-10-08T10:59:15Z</time>
      </trkpt>
      <trkpt lat="37.9194233380" lon="-2.9298310541">
        <ele>977.32</ele>
        <time>2017-10-08T10:59:17Z</time>
      </trkpt>
      <trkpt lat="37.9194439575" lon="-2.9299575370">
        <ele>978.28</ele>
        <time>2017-10-08T10:59:27Z</time>
      </trkpt>
      <trkpt lat="37.9194561951" lon="-2.9299952555">
        <ele>978.28</ele>
        <time>2017-10-08T10:59:44Z</time>
      </trkpt>
      <trkpt lat="37.9194728751" lon="-2.9300074931">
        <ele>978.28</ele>
        <time>2017-10-08T10:59:46Z</time>
      </trkpt>
      <trkpt lat="37.9195449594" lon="-2.9300009552">
        <ele>979.72</ele>
        <time>2017-10-08T10:59:51Z</time>
      </trkpt>
      <trkpt lat="37.9196100030" lon="-2.9300431162">
        <ele>980.20</ele>
        <time>2017-10-08T10:59:55Z</time>
      </trkpt>
      <trkpt lat="37.9197262600" lon="-2.9301613010">
        <ele>981.16</ele>
        <time>2017-10-08T11:00:05Z</time>
      </trkpt>
      <trkpt lat="37.9197483044" lon="-2.9301818367">
        <ele>981.16</ele>
        <time>2017-10-08T11:00:07Z</time>
      </trkpt>
      <trkpt lat="37.9198493902" lon="-2.9302154481">
        <ele>981.16</ele>
        <time>2017-10-08T11:00:15Z</time>
      </trkpt>
      <trkpt lat="37.9200109094" lon="-2.9302827548">
        <ele>982.12</ele>
        <time>2017-10-08T11:00:25Z</time>
      </trkpt>
      <trkpt lat="37.9202231392" lon="-2.9303671606">
        <ele>982.60</ele>
        <time>2017-10-08T11:00:36Z</time>
      </trkpt>
      <trkpt lat="37.9204586707" lon="-2.9304175358">
        <ele>984.05</ele>
        <time>2017-10-08T11:00:47Z</time>
      </trkpt>
      <trkpt lat="37.9206895921" lon="-2.9304767959">
        <ele>984.05</ele>
        <time>2017-10-08T11:00:59Z</time>
      </trkpt>
      <trkpt lat="37.9207827151" lon="-2.9304980021">
        <ele>984.53</ele>
        <time>2017-10-08T11:01:04Z</time>
      </trkpt>
      <trkpt lat="37.9209782649" lon="-2.9305270873">
        <ele>985.49</ele>
        <time>2017-10-08T11:01:15Z</time>
      </trkpt>
      <trkpt lat="37.9210190848" lon="-2.9305249080">
        <ele>985.97</ele>
        <time>2017-10-08T11:01:17Z</time>
      </trkpt>
      <trkpt lat="37.9212976154" lon="-2.9305529036">
        <ele>987.41</ele>
        <time>2017-10-08T11:01:30Z</time>
      </trkpt>
      <trkpt lat="37.9215162154" lon="-2.9305965733">
        <ele>988.37</ele>
        <time>2017-10-08T11:01:40Z</time>
      </trkpt>
      <trkpt lat="37.9217801616" lon="-2.9305281769">
        <ele>989.33</ele>
        <time>2017-10-08T11:01:50Z</time>
      </trkpt>
      <trkpt lat="37.9218359012" lon="-2.9304034542">
        <ele>989.81</ele>
        <time>2017-10-08T11:01:55Z</time>
      </trkpt>
      <trkpt lat="37.9219870269" lon="-2.9300993588">
        <ele>992.22</ele>
        <time>2017-10-08T11:02:07Z</time>
      </trkpt>
      <trkpt lat="37.9221270047" lon="-2.9299214948">
        <ele>993.66</ele>
        <time>2017-10-08T11:02:15Z</time>
      </trkpt>
      <trkpt lat="37.9223172739" lon="-2.9297390208">
        <ele>994.62</ele>
        <time>2017-10-08T11:02:24Z</time>
      </trkpt>
      <trkpt lat="37.9224489536" lon="-2.9295979533">
        <ele>995.10</ele>
        <time>2017-10-08T11:02:33Z</time>
      </trkpt>
      <trkpt lat="37.9224764463" lon="-2.9295678623">
        <ele>995.10</ele>
        <time>2017-10-08T11:02:35Z</time>
      </trkpt>
      <trkpt lat="37.9226304218" lon="-2.9293886572">
        <ele>995.58</ele>
        <time>2017-10-08T11:02:46Z</time>
      </trkpt>
      <trkpt lat="37.9228683002" lon="-2.9292589054">
        <ele>996.06</ele>
        <time>2017-10-08T11:02:57Z</time>
      </trkpt>
      <trkpt lat="37.9229561426" lon="-2.9292326700">
        <ele>997.02</ele>
        <time>2017-10-08T11:03:02Z</time>
      </trkpt>
      <trkpt lat="37.9230293166" lon="-2.9291850608">
        <ele>997.51</ele>
        <time>2017-10-08T11:03:07Z</time>
      </trkpt>
      <trkpt lat="37.9231236130" lon="-2.9291438218">
        <ele>998.47</ele>
        <time>2017-10-08T11:03:14Z</time>
      </trkpt>
      <trkpt lat="37.9231335875" lon="-2.9291475099">
        <ele>998.95</ele>
        <time>2017-10-08T11:03:15Z</time>
      </trkpt>
      <trkpt lat="37.9232867248" lon="-2.9291045107">
        <ele>1000.39</ele>
        <time>2017-10-08T11:03:23Z</time>
      </trkpt>
      <trkpt lat="37.9233460687" lon="-2.9290703125">
        <ele>1000.87</ele>
        <time>2017-10-08T11:03:25Z</time>
      </trkpt>
      <trkpt lat="37.9235099349" lon="-2.9289816320">
        <ele>1001.35</ele>
        <time>2017-10-08T11:03:32Z</time>
      </trkpt>
      <trkpt lat="37.9236376751" lon="-2.9289660417">
        <ele>1002.31</ele>
        <time>2017-10-08T11:03:38Z</time>
      </trkpt>
      <trkpt lat="37.9238029663" lon="-2.9288648721">
        <ele>1001.83</ele>
        <time>2017-10-08T11:03:45Z</time>
      </trkpt>
      <trkpt lat="37.9238344822" lon="-2.9288229626">
        <ele>1001.35</ele>
        <time>2017-10-08T11:03:46Z</time>
      </trkpt>
      <trkpt lat="37.9238608852" lon="-2.9287738446">
        <ele>1000.87</ele>
        <time>2017-10-08T11:03:47Z</time>
      </trkpt>
      <trkpt lat="37.9238779843" lon="-2.9287142493">
        <ele>1000.39</ele>
        <time>2017-10-08T11:03:48Z</time>
      </trkpt>
      <trkpt lat="37.9238897189" lon="-2.9286483675">
        <ele>999.91</ele>
        <time>2017-10-08T11:03:49Z</time>
      </trkpt>
      <trkpt lat="37.9238983523" lon="-2.9285796359">
        <ele>999.91</ele>
        <time>2017-10-08T11:03:50Z</time>
      </trkpt>
      <trkpt lat="37.9240105860" lon="-2.9280038830">
        <ele>997.02</ele>
        <time>2017-10-08T11:03:57Z</time>
      </trkpt>
      <trkpt lat="37.9240808263" lon="-2.9275275394">
        <ele>994.62</ele>
        <time>2017-10-08T11:04:02Z</time>
      </trkpt>
      <trkpt lat="37.9241068102" lon="-2.9274677765">
        <ele>994.14</ele>
        <time>2017-10-08T11:04:03Z</time>
      </trkpt>
      <trkpt lat="37.9241351411" lon="-2.9274271242">
        <ele>993.66</ele>
        <time>2017-10-08T11:04:04Z</time>
      </trkpt>
      <trkpt lat="37.9241866060" lon="-2.9273760784">
        <ele>994.62</ele>
        <time>2017-10-08T11:04:10Z</time>
      </trkpt>
      <trkpt lat="37.9241867736" lon="-2.9273746535">
        <ele>993.18</ele>
        <time>2017-10-08T11:04:12Z</time>
      </trkpt>
      <trkpt lat="37.9242674075" lon="-2.9273092747">
        <ele>999.91</ele>
        <time>2017-10-08T12:57:46Z</time>
      </trkpt>
      <trkpt lat="37.9242837522" lon="-2.9272880685">
        <ele>999.91</ele>
        <time>2017-10-08T12:57:47Z</time>
      </trkpt>
      <trkpt lat="37.9242881108" lon="-2.9273354262">
        <ele>999.91</ele>
        <time>2017-10-08T12:57:59Z</time>
      </trkpt>
      <trkpt lat="37.9241864383" lon="-2.9273655172">
        <ele>997.99</ele>
        <time>2017-10-08T12:58:06Z</time>
      </trkpt>
      <trkpt lat="37.9241197184" lon="-2.9274920002">
        <ele>996.54</ele>
        <time>2017-10-08T12:58:14Z</time>
      </trkpt>
      <trkpt lat="37.9241192993" lon="-2.9275547806">
        <ele>997.02</ele>
        <time>2017-10-08T12:58:18Z</time>
      </trkpt>
      <trkpt lat="37.9240845982" lon="-2.9276691098">
        <ele>997.51</ele>
        <time>2017-10-08T12:58:27Z</time>
      </trkpt>
      <trkpt lat="37.9240706842" lon="-2.9277606402">
        <ele>997.51</ele>
        <time>2017-10-08T12:58:34Z</time>
      </trkpt>
      <trkpt lat="37.9240502324" lon="-2.9278176371">
        <ele>997.99</ele>
        <time>2017-10-08T12:58:38Z</time>
      </trkpt>
      <trkpt lat="37.9240430240" lon="-2.9280229937">
        <ele>998.95</ele>
        <time>2017-10-08T12:58:50Z</time>
      </trkpt>
      <trkpt lat="37.9240196384" lon="-2.9281399213">
        <ele>999.91</ele>
        <time>2017-10-08T12:58:56Z</time>
      </trkpt>
      <trkpt lat="37.9239808302" lon="-2.9282918014">
        <ele>1000.87</ele>
        <time>2017-10-08T12:59:04Z</time>
      </trkpt>
      <trkpt lat="37.9239670001" lon="-2.9283924680">
        <ele>1001.35</ele>
        <time>2017-10-08T12:59:09Z</time>
      </trkpt>
      <trkpt lat="37.9239359032" lon="-2.9286059551">
        <ele>1004.72</ele>
        <time>2017-10-08T12:59:18Z</time>
      </trkpt>
      <trkpt lat="37.9239298683" lon="-2.9286285862">
        <ele>1000.39</ele>
        <time>2017-10-08T12:59:19Z</time>
      </trkpt>
      <trkpt lat="37.9239221569" lon="-2.9286495410">
        <ele>1004.23</ele>
        <time>2017-10-08T12:59:20Z</time>
      </trkpt>
      <trkpt lat="37.9238221608" lon="-2.9288524669">
        <ele>1003.27</ele>
        <time>2017-10-08T12:59:29Z</time>
      </trkpt>
      <trkpt lat="37.9236398544" lon="-2.9289305862">
        <ele>1006.16</ele>
        <time>2017-10-08T12:59:40Z</time>
      </trkpt>
      <trkpt lat="37.9236135352" lon="-2.9289504513">
        <ele>1004.72</ele>
        <time>2017-10-08T12:59:50Z</time>
      </trkpt>
      <trkpt lat="37.9236256052" lon="-2.9289355315">
        <ele>1004.72</ele>
        <time>2017-10-08T13:00:13Z</time>
      </trkpt>
      <trkpt lat="37.9236207437" lon="-2.9289381299">
        <ele>1005.20</ele>
        <time>2017-10-08T13:00:30Z</time>
      </trkpt>
      <trkpt lat="37.9236155469" lon="-2.9289455060">
        <ele>1004.72</ele>
        <time>2017-10-08T13:00:48Z</time>
      </trkpt>
      <trkpt lat="37.9236100148" lon="-2.9289516248">
        <ele>1004.72</ele>
        <time>2017-10-08T13:01:07Z</time>
      </trkpt>
      <trkpt lat="37.9236104339" lon="-2.9289514571">
        <ele>1004.72</ele>
        <time>2017-10-08T13:01:08Z</time>
      </trkpt>
      <trkpt lat="37.9236406926" lon="-2.9289066978">
        <ele>1004.72</ele>
        <time>2017-10-08T13:01:16Z</time>
      </trkpt>
      <trkpt lat="37.9236490745" lon="-2.9289100505">
        <ele>1004.72</ele>
        <time>2017-10-08T13:01:34Z</time>
      </trkpt>
      <trkpt lat="37.9235053249" lon="-2.9287846573">
        <ele>1004.72</ele>
        <time>2017-10-08T13:03:22Z</time>
      </trkpt>
      <trkpt lat="37.9235063307" lon="-2.9287851602">
        <ele>1004.72</ele>
        <time>2017-10-08T13:03:23Z</time>
      </trkpt>
      <trkpt lat="37.9236683529" lon="-2.9289747588">
        <ele>1006.16</ele>
        <time>2017-10-08T13:03:35Z</time>
      </trkpt>
      <trkpt lat="37.9236681852" lon="-2.9289806262">
        <ele>1006.64</ele>
        <time>2017-10-08T13:03:36Z</time>
      </trkpt>
      <trkpt lat="37.9236287065" lon="-2.9290362820">
        <ele>1008.08</ele>
        <time>2017-10-08T13:03:50Z</time>
      </trkpt>
      <trkpt lat="37.9236213304" lon="-2.9290496930">
        <ele>1008.08</ele>
        <time>2017-10-08T13:04:04Z</time>
      </trkpt>
      <trkpt lat="37.9235955980" lon="-2.9290739167">
        <ele>1008.08</ele>
        <time>2017-10-08T13:04:16Z</time>
      </trkpt>
      <trkpt lat="37.9236016329" lon="-2.9290662054">
        <ele>1010.00</ele>
        <time>2017-10-08T13:04:31Z</time>
      </trkpt>
      <trkpt lat="37.9235975258" lon="-2.9290560633">
        <ele>1006.64</ele>
        <time>2017-10-08T13:04:40Z</time>
      </trkpt>
      <trkpt lat="37.9236000404" lon="-2.9290554766">
        <ele>1010.00</ele>
        <time>2017-10-08T13:04:41Z</time>
      </trkpt>
      <trkpt lat="37.9236051533" lon="-2.9290359467">
        <ele>1006.64</ele>
        <time>2017-10-08T13:04:55Z</time>
      </trkpt>
      <trkpt lat="37.9236054048" lon="-2.9290370364">
        <ele>1011.44</ele>
        <time>2017-10-08T13:04:56Z</time>
      </trkpt>
      <trkpt lat="37.9236074165" lon="-2.9290389642">
        <ele>1007.12</ele>
        <time>2017-10-08T13:04:58Z</time>
      </trkpt>
      <trkpt lat="37.9236121103" lon="-2.9290408920">
        <ele>1009.04</ele>
        <time>2017-10-08T13:05:15Z</time>
      </trkpt>
      <trkpt lat="37.9236150440" lon="-2.9290412273">
        <ele>1010.96</ele>
        <time>2017-10-08T13:05:18Z</time>
      </trkpt>
      <trkpt lat="37.9236160498" lon="-2.9290418141">
        <ele>1007.60</ele>
        <time>2017-10-08T13:05:19Z</time>
      </trkpt>
      <trkpt lat="37.9236178938" lon="-2.9290410597">
        <ele>1011.44</ele>
        <time>2017-10-08T13:05:20Z</time>
      </trkpt>
      <trkpt lat="37.9236265272" lon="-2.9290385451">
        <ele>1008.56</ele>
        <time>2017-10-08T13:05:25Z</time>
      </trkpt>
      <trkpt lat="37.9236374237" lon="-2.9290381260">
        <ele>1009.04</ele>
        <time>2017-10-08T13:05:41Z</time>
      </trkpt>
      <trkpt lat="37.9236385971" lon="-2.9290302470">
        <ele>1009.04</ele>
        <time>2017-10-08T13:05:58Z</time>
      </trkpt>
      <trkpt lat="37.9236367531" lon="-2.9290306661">
        <ele>1009.04</ele>
        <time>2017-10-08T13:06:01Z</time>
      </trkpt>
      <trkpt lat="37.9236648325" lon="-2.9290232901">
        <ele>1008.56</ele>
        <time>2017-10-08T13:06:07Z</time>
      </trkpt>
      <trkpt lat="37.9236846138" lon="-2.9290118068">
        <ele>1008.08</ele>
        <time>2017-10-08T13:06:10Z</time>
      </trkpt>
      <trkpt lat="37.9237125255" lon="-2.9290102981">
        <ele>1008.08</ele>
        <time>2017-10-08T13:06:12Z</time>
      </trkpt>
      <trkpt lat="37.9238064867" lon="-2.9289847333">
        <ele>1007.60</ele>
        <time>2017-10-08T13:06:19Z</time>
      </trkpt>
      <trkpt lat="37.9237983562" lon="-2.9289771896">
        <ele>1008.08</ele>
        <time>2017-10-08T13:06:24Z</time>
      </trkpt>
      <trkpt lat="37.9237090889" lon="-2.9289395548">
        <ele>1008.56</ele>
        <time>2017-10-08T13:06:32Z</time>
      </trkpt>
      <trkpt lat="37.9236660060" lon="-2.9289266467">
        <ele>1008.56</ele>
        <time>2017-10-08T13:06:40Z</time>
      </trkpt>
      <trkpt lat="37.9236736335" lon="-2.9289483558">
        <ele>1009.04</ele>
        <time>2017-10-08T13:06:54Z</time>
      </trkpt>
      <trkpt lat="37.9236642458" lon="-2.9289657064">
        <ele>1009.04</ele>
        <time>2017-10-08T13:07:10Z</time>
      </trkpt>
      <trkpt lat="37.9236679338" lon="-2.9289657064">
        <ele>1009.04</ele>
        <time>2017-10-08T13:07:28Z</time>
      </trkpt>
      <trkpt lat="37.9236705322" lon="-2.9289861582">
        <ele>1009.04</ele>
        <time>2017-10-08T13:07:46Z</time>
      </trkpt>
      <trkpt lat="37.9236810096" lon="-2.9289842304">
        <ele>1009.04</ele>
        <time>2017-10-08T13:08:07Z</time>
      </trkpt>
      <trkpt lat="37.9236795008" lon="-2.9289674666">
        <ele>1010.00</ele>
        <time>2017-10-08T13:08:17Z</time>
      </trkpt>
      <trkpt lat="37.9236729629" lon="-2.9289729986">
        <ele>1009.04</ele>
        <time>2017-10-08T13:08:35Z</time>
      </trkpt>
      <trkpt lat="37.9237017129" lon="-2.9291164968">
        <ele>1009.04</ele>
        <time>2017-10-08T13:08:43Z</time>
      </trkpt>
      <trkpt lat="37.9236454703" lon="-2.9291510303">
        <ele>1009.52</ele>
        <time>2017-10-08T13:08:46Z</time>
      </trkpt>
      <trkpt lat="37.9234551173" lon="-2.9292498529">
        <ele>1010.48</ele>
        <time>2017-10-08T13:08:57Z</time>
      </trkpt>
      <trkpt lat="37.9233162291" lon="-2.9293115437">
        <ele>1011.93</ele>
        <time>2017-10-08T13:09:05Z</time>
      </trkpt>
      <trkpt lat="37.9231921770" lon="-2.9293757491">
        <ele>1012.89</ele>
        <time>2017-10-08T13:09:13Z</time>
      </trkpt>
      <trkpt lat="37.9230832960" lon="-2.9294484202">
        <ele>1014.81</ele>
        <time>2017-10-08T13:09:20Z</time>
      </trkpt>
      <trkpt lat="37.9230507743" lon="-2.9295052495">
        <ele>1014.33</ele>
        <time>2017-10-08T13:09:23Z</time>
      </trkpt>
      <trkpt lat="37.9228738323" lon="-2.9296875559">
        <ele>1015.77</ele>
        <time>2017-10-08T13:09:35Z</time>
      </trkpt>
      <trkpt lat="37.9227577429" lon="-2.9299142864">
        <ele>1017.69</ele>
        <time>2017-10-08T13:09:46Z</time>
      </trkpt>
      <trkpt lat="37.9226838145" lon="-2.9302290268">
        <ele>1019.62</ele>
        <time>2017-10-08T13:09:58Z</time>
      </trkpt>
      <trkpt lat="37.9226403963" lon="-2.9305271711">
        <ele>1021.06</ele>
        <time>2017-10-08T13:10:09Z</time>
      </trkpt>
      <trkpt lat="37.9225928709" lon="-2.9307898600">
        <ele>1022.50</ele>
        <time>2017-10-08T13:10:20Z</time>
      </trkpt>
      <trkpt lat="37.9225430824" lon="-2.9310815502">
        <ele>1023.94</ele>
        <time>2017-10-08T13:10:32Z</time>
      </trkpt>
      <trkpt lat="37.9225103930" lon="-2.9313417245">
        <ele>1025.38</ele>
        <time>2017-10-08T13:10:43Z</time>
      </trkpt>
      <trkpt lat="37.9224564135" lon="-2.9314628430">
        <ele>1025.86</ele>
        <time>2017-10-08T13:10:48Z</time>
      </trkpt>
      <trkpt lat="37.9223991651" lon="-2.9315454047">
        <ele>1026.34</ele>
        <time>2017-10-08T13:10:52Z</time>
      </trkpt>
      <trkpt lat="37.9222422559" lon="-2.9317671061">
        <ele>1028.27</ele>
        <time>2017-10-08T13:11:04Z</time>
      </trkpt>
      <trkpt lat="37.9221019428" lon="-2.9320062418">
        <ele>1029.71</ele>
        <time>2017-10-08T13:11:15Z</time>
      </trkpt>
      <trkpt lat="37.9220279306" lon="-2.9322755523">
        <ele>1031.63</ele>
        <time>2017-10-08T13:11:26Z</time>
      </trkpt>
      <trkpt lat="37.9219543375" lon="-2.9324844293">
        <ele>1033.07</ele>
        <time>2017-10-08T13:11:35Z</time>
      </trkpt>
      <trkpt lat="37.9217995238" lon="-2.9326793924">
        <ele>1034.04</ele>
        <time>2017-10-08T13:11:45Z</time>
      </trkpt>
      <trkpt lat="37.9215477314" lon="-2.9328145925">
        <ele>1035.96</ele>
        <time>2017-10-08T13:11:57Z</time>
      </trkpt>
      <trkpt lat="37.9212996271" lon="-2.9328130838">
        <ele>1037.40</ele>
        <time>2017-10-08T13:12:10Z</time>
      </trkpt>
      <trkpt lat="37.9211073462" lon="-2.9327037837">
        <ele>1038.36</ele>
        <time>2017-10-08T13:12:20Z</time>
      </trkpt>
      <trkpt lat="37.9210337531" lon="-2.9324903805">
        <ele>1040.28</ele>
        <time>2017-10-08T13:12:29Z</time>
      </trkpt>
      <trkpt lat="37.9209897481" lon="-2.9322418571">
        <ele>1041.25</ele>
        <time>2017-10-08T13:12:39Z</time>
      </trkpt>
      <trkpt lat="37.9208216071" lon="-2.9321290366">
        <ele>1042.21</ele>
        <time>2017-10-08T13:12:48Z</time>
      </trkpt>
      <trkpt lat="37.9205687251" lon="-2.9321475606">
        <ele>1044.13</ele>
        <time>2017-10-08T13:12:59Z</time>
      </trkpt>
      <trkpt lat="37.9203254823" lon="-2.9322275240">
        <ele>1045.57</ele>
        <time>2017-10-08T13:13:10Z</time>
      </trkpt>
      <trkpt lat="37.9201680701" lon="-2.9324156139">
        <ele>1047.49</ele>
        <time>2017-10-08T13:13:21Z</time>
      </trkpt>
      <trkpt lat="37.9202441778" lon="-2.9326443560">
        <ele>1048.45</ele>
        <time>2017-10-08T13:13:30Z</time>
      </trkpt>
      <trkpt lat="37.9204615206" lon="-2.9327843338">
        <ele>1049.90</ele>
        <time>2017-10-08T13:13:42Z</time>
      </trkpt>
      <trkpt lat="37.9205112252" lon="-2.9328112397">
        <ele>1049.42</ele>
        <time>2017-10-08T13:13:46Z</time>
      </trkpt>
      <trkpt lat="37.9206294939" lon="-2.9328420013">
        <ele>1050.38</ele>
        <time>2017-10-08T13:13:57Z</time>
      </trkpt>
      <trkpt lat="37.9206547234" lon="-2.9328553285">
        <ele>1050.38</ele>
        <time>2017-10-08T13:14:06Z</time>
      </trkpt>
      <trkpt lat="37.9206532147" lon="-2.9328346252">
        <ele>1050.38</ele>
        <time>2017-10-08T13:14:28Z</time>
      </trkpt>
      <trkpt lat="37.9206595011" lon="-2.9328331165">
        <ele>1050.38</ele>
        <time>2017-10-08T13:15:00Z</time>
      </trkpt>
      <trkpt lat="37.9206600040" lon="-2.9328379780">
        <ele>1050.86</ele>
        <time>2017-10-08T13:15:25Z</time>
      </trkpt>
      <trkpt lat="37.9206619319" lon="-2.9328567535">
        <ele>1050.86</ele>
        <time>2017-10-08T13:15:50Z</time>
      </trkpt>
      <trkpt lat="37.9206786118" lon="-2.9328586813">
        <ele>1050.38</ele>
        <time>2017-10-08T13:16:17Z</time>
      </trkpt>
      <trkpt lat="37.9206832219" lon="-2.9328753613">
        <ele>1050.86</ele>
        <time>2017-10-08T13:16:31Z</time>
      </trkpt>
      <trkpt lat="37.9206856526" lon="-2.9328752775">
        <ele>1050.38</ele>
        <time>2017-10-08T13:16:52Z</time>
      </trkpt>
      <trkpt lat="37.9206854012" lon="-2.9328648839">
        <ele>1050.38</ele>
        <time>2017-10-08T13:17:12Z</time>
      </trkpt>
      <trkpt lat="37.9206712358" lon="-2.9328635428">
        <ele>1050.38</ele>
        <time>2017-10-08T13:17:31Z</time>
      </trkpt>
      <trkpt lat="37.9206659552" lon="-2.9328590166">
        <ele>1050.38</ele>
        <time>2017-10-08T13:17:57Z</time>
      </trkpt>
      <trkpt lat="37.9206689727" lon="-2.9328751937">
        <ele>1050.38</ele>
        <time>2017-10-08T13:18:21Z</time>
      </trkpt>
      <trkpt lat="37.9206560645" lon="-2.9328923766">
        <ele>1050.38</ele>
        <time>2017-10-08T13:18:43Z</time>
      </trkpt>
      <trkpt lat="37.9206435755" lon="-2.9328812286">
        <ele>1050.38</ele>
        <time>2017-10-08T13:19:09Z</time>
      </trkpt>
      <trkpt lat="37.9206427373" lon="-2.9328824021">
        <ele>1050.86</ele>
        <time>2017-10-08T13:19:23Z</time>
      </trkpt>
      <trkpt lat="37.9206430726" lon="-2.9328840785">
        <ele>1050.86</ele>
        <time>2017-10-08T13:19:29Z</time>
      </trkpt>
      <trkpt lat="37.9206651170" lon="-2.9329374712">
        <ele>1050.86</ele>
        <time>2017-10-08T13:19:34Z</time>
      </trkpt>
      <trkpt lat="37.9206775222" lon="-2.9329651315">
        <ele>1050.86</ele>
        <time>2017-10-08T13:19:36Z</time>
      </trkpt>
      <trkpt lat="37.9207372013" lon="-2.9330324382">
        <ele>1050.86</ele>
        <time>2017-10-08T13:19:42Z</time>
      </trkpt>
      <trkpt lat="37.9207805358" lon="-2.9330859985">
        <ele>1051.34</ele>
        <time>2017-10-08T13:19:46Z</time>
      </trkpt>
      <trkpt lat="37.9208527878" lon="-2.9331590887">
        <ele>1051.34</ele>
        <time>2017-10-08T13:19:52Z</time>
      </trkpt>
      <trkpt lat="37.9209739063" lon="-2.9332560673">
        <ele>1051.82</ele>
        <time>2017-10-08T13:20:00Z</time>
      </trkpt>
      <trkpt lat="37.9210599046" lon="-2.9333263915">
        <ele>1051.82</ele>
        <time>2017-10-08T13:20:07Z</time>
      </trkpt>
      <trkpt lat="37.9211107828" lon="-2.9333458375">
        <ele>1051.82</ele>
        <time>2017-10-08T13:20:10Z</time>
      </trkpt>
      <trkpt lat="37.9213575460" lon="-2.9333848134">
        <ele>1052.78</ele>
        <time>2017-10-08T13:20:22Z</time>
      </trkpt>
      <trkpt lat="37.9213795066" lon="-2.9333806224">
        <ele>1048.45</ele>
        <time>2017-10-08T13:20:23Z</time>
      </trkpt>
      <trkpt lat="37.9213987850" lon="-2.9333771020">
        <ele>1055.67</ele>
        <time>2017-10-08T13:20:24Z</time>
      </trkpt>
      <trkpt lat="37.9214161355" lon="-2.9333722405">
        <ele>1052.30</ele>
        <time>2017-10-08T13:20:25Z</time>
      </trkpt>
      <trkpt lat="37.9215833545" lon="-2.9333519563">
        <ele>1053.26</ele>
        <time>2017-10-08T13:20:34Z</time>
      </trkpt>
      <trkpt lat="37.9216510803" lon="-2.9333693907">
        <ele>1050.38</ele>
        <time>2017-10-08T13:20:38Z</time>
      </trkpt>
      <trkpt lat="37.9216659162" lon="-2.9333745036">
        <ele>1055.67</ele>
        <time>2017-10-08T13:20:39Z</time>
      </trkpt>
      <trkpt lat="37.9217328038" lon="-2.9333812930">
        <ele>1052.30</ele>
        <time>2017-10-08T13:20:48Z</time>
      </trkpt>
      <trkpt lat="37.9217216559" lon="-2.9333789460">
        <ele>1053.26</ele>
        <time>2017-10-08T13:21:04Z</time>
      </trkpt>
      <trkpt lat="37.9217622243" lon="-2.9333836399">
        <ele>1053.26</ele>
        <time>2017-10-08T13:21:13Z</time>
      </trkpt>
      <trkpt lat="37.9217764735" lon="-2.9333879985">
        <ele>1053.26</ele>
        <time>2017-10-08T13:21:14Z</time>
      </trkpt>
      <trkpt lat="37.9218222387" lon="-2.9333639424">
        <ele>1053.26</ele>
        <time>2017-10-08T13:21:18Z</time>
      </trkpt>
      <trkpt lat="37.9218435287" lon="-2.9333657864">
        <ele>1053.26</ele>
        <time>2017-10-08T13:21:20Z</time>
      </trkpt>
      <trkpt lat="37.9218941554" lon="-2.9333475139">
        <ele>1053.74</ele>
        <time>2017-10-08T13:21:24Z</time>
      </trkpt>
      <trkpt lat="37.9219667427" lon="-2.9332805425">
        <ele>1054.22</ele>
        <time>2017-10-08T13:21:34Z</time>
      </trkpt>
      <trkpt lat="37.9219899606" lon="-2.9333123099">
        <ele>1054.22</ele>
        <time>2017-10-08T13:21:51Z</time>
      </trkpt>
      <trkpt lat="37.9219891224" lon="-2.9333159141">
        <ele>1054.22</ele>
        <time>2017-10-08T13:22:16Z</time>
      </trkpt>
      <trkpt lat="37.9219868593" lon="-2.9333137348">
        <ele>1054.22</ele>
        <time>2017-10-08T13:22:31Z</time>
      </trkpt>
      <trkpt lat="37.9220050480" lon="-2.9332719930">
        <ele>1054.22</ele>
        <time>2017-10-08T13:22:48Z</time>
      </trkpt>
      <trkpt lat="37.9220135137" lon="-2.9332514573">
        <ele>1054.22</ele>
        <time>2017-10-08T13:23:09Z</time>
      </trkpt>
      <trkpt lat="37.9220169503" lon="-2.9332458414">
        <ele>1053.74</ele>
        <time>2017-10-08T13:23:27Z</time>
      </trkpt>
      <trkpt lat="37.9220234882" lon="-2.9332482722">
        <ele>1053.74</ele>
        <time>2017-10-08T13:23:46Z</time>
      </trkpt>
      <trkpt lat="37.9220282659" lon="-2.9332446679">
        <ele>1053.74</ele>
        <time>2017-10-08T13:23:56Z</time>
      </trkpt>
      <trkpt lat="37.9220311157" lon="-2.9332468472">
        <ele>1053.74</ele>
        <time>2017-10-08T13:24:04Z</time>
      </trkpt>
      <trkpt lat="37.9220327083" lon="-2.9332490265">
        <ele>1053.74</ele>
        <time>2017-10-08T13:24:11Z</time>
      </trkpt>
      <trkpt lat="37.9218906350" lon="-2.9333543871">
        <ele>1053.26</ele>
        <time>2017-10-08T13:24:20Z</time>
      </trkpt>
      <trkpt lat="37.9215758946" lon="-2.9333692230">
        <ele>1052.78</ele>
        <time>2017-10-08T13:24:30Z</time>
      </trkpt>
      <trkpt lat="37.9214199912" lon="-2.9333936144">
        <ele>1052.30</ele>
        <time>2017-10-08T13:24:34Z</time>
      </trkpt>
      <trkpt lat="37.9213769082" lon="-2.9334013257">
        <ele>1052.30</ele>
        <time>2017-10-08T13:24:35Z</time>
      </trkpt>
      <trkpt lat="37.9212925863" lon="-2.9333969671">
        <ele>1052.30</ele>
        <time>2017-10-08T13:24:37Z</time>
      </trkpt>
      <trkpt lat="37.9212496709" lon="-2.9333854839">
        <ele>1051.82</ele>
        <time>2017-10-08T13:24:38Z</time>
      </trkpt>
      <trkpt lat="37.9210856371" lon="-2.9333130643">
        <ele>1050.38</ele>
        <time>2017-10-08T13:24:42Z</time>
      </trkpt>
      <trkpt lat="37.9210484214" lon="-2.9332856555">
        <ele>1051.34</ele>
        <time>2017-10-08T13:24:43Z</time>
      </trkpt>
      <trkpt lat="37.9209722299" lon="-2.9332241323">
        <ele>1051.34</ele>
        <time>2017-10-08T13:24:45Z</time>
      </trkpt>
      <trkpt lat="37.9206315055" lon="-2.9329212103">
        <ele>1051.34</ele>
        <time>2017-10-08T13:24:55Z</time>
      </trkpt>
      <trkpt lat="37.9202830698" lon="-2.9327308573">
        <ele>1048.94</ele>
        <time>2017-10-08T13:25:05Z</time>
      </trkpt>
      <trkpt lat="37.9201380629" lon="-2.9324733652">
        <ele>1047.97</ele>
        <time>2017-10-08T13:25:13Z</time>
      </trkpt>
      <trkpt lat="37.9201430921" lon="-2.9324175417">
        <ele>1046.53</ele>
        <time>2017-10-08T13:25:14Z</time>
      </trkpt>
      <trkpt lat="37.9201536532" lon="-2.9323623050">
        <ele>1048.45</ele>
        <time>2017-10-08T13:25:15Z</time>
      </trkpt>
      <trkpt lat="37.9201747756" lon="-2.9323039670">
        <ele>1047.01</ele>
        <time>2017-10-08T13:25:16Z</time>
      </trkpt>
      <trkpt lat="37.9202060401" lon="-2.9322499037">
        <ele>1046.53</ele>
        <time>2017-10-08T13:25:17Z</time>
      </trkpt>
      <trkpt lat="37.9202482849" lon="-2.9322074074">
        <ele>1046.53</ele>
        <time>2017-10-08T13:25:18Z</time>
      </trkpt>
      <trkpt lat="37.9203006718" lon="-2.9321765620">
        <ele>1046.05</ele>
        <time>2017-10-08T13:25:19Z</time>
      </trkpt>
      <trkpt lat="37.9203566629" lon="-2.9321525898">
        <ele>1045.57</ele>
        <time>2017-10-08T13:25:20Z</time>
      </trkpt>
      <trkpt lat="37.9237938300" lon="-2.9287373833">
        <ele>1009.04</ele>
        <time>2017-10-08T13:26:46Z</time>
      </trkpt>
      <trkpt lat="37.9237421975" lon="-2.9287987389">
        <ele>1009.04</ele>
        <time>2017-10-08T13:26:47Z</time>
      </trkpt>
      <trkpt lat="37.9237629846" lon="-2.9289065301">
        <ele>1008.56</ele>
        <time>2017-10-08T13:27:08Z</time>
      </trkpt>
      <trkpt lat="37.9237483162" lon="-2.9289279878">
        <ele>1009.52</ele>
        <time>2017-10-08T13:27:12Z</time>
      </trkpt>
      <trkpt lat="37.9238763917" lon="-2.9287849925">
        <ele>1008.08</ele>
        <time>2017-10-08T13:27:19Z</time>
      </trkpt>
      <trkpt lat="37.9239004478" lon="-2.9287337791">
        <ele>1007.60</ele>
        <time>2017-10-08T13:27:20Z</time>
      </trkpt>
      <trkpt lat="37.9239187203" lon="-2.9286776204">
        <ele>1007.60</ele>
        <time>2017-10-08T13:27:21Z</time>
      </trkpt>
      <trkpt lat="37.9239690118" lon="-2.9284865968">
        <ele>1007.12</ele>
        <time>2017-10-08T13:27:24Z</time>
      </trkpt>
      <trkpt lat="37.9240002763" lon="-2.9281906318">
        <ele>1005.68</ele>
        <time>2017-10-08T13:27:28Z</time>
      </trkpt>
      <trkpt lat="37.9240058921" lon="-2.9280965030">
        <ele>1005.68</ele>
        <time>2017-10-08T13:27:29Z</time>
      </trkpt>
      <trkpt lat="37.9240199737" lon="-2.9279965907">
        <ele>1004.72</ele>
        <time>2017-10-08T13:27:30Z</time>
      </trkpt>
      <trkpt lat="37.9240970872" lon="-2.9274640046">
        <ele>1002.31</ele>
        <time>2017-10-08T13:27:35Z</time>
      </trkpt>
      <trkpt lat="37.9240985122" lon="-2.9273530282">
        <ele>1001.83</ele>
        <time>2017-10-08T13:27:36Z</time>
      </trkpt>
      <trkpt lat="37.9240840953" lon="-2.9272397049">
        <ele>1000.87</ele>
        <time>2017-10-08T13:27:37Z</time>
      </trkpt>
      <trkpt lat="37.9240534175" lon="-2.9271263815">
        <ele>1000.39</ele>
        <time>2017-10-08T13:27:38Z</time>
      </trkpt>
      <trkpt lat="37.9240053054" lon="-2.9270204343">
        <ele>999.91</ele>
        <time>2017-10-08T13:27:39Z</time>
      </trkpt>
      <trkpt lat="37.9239442013" lon="-2.9269272275">
        <ele>999.91</ele>
        <time>2017-10-08T13:27:40Z</time>
      </trkpt>
      <trkpt lat="37.9238715302" lon="-2.9268488567">
        <ele>999.43</ele>
        <time>2017-10-08T13:27:41Z</time>
      </trkpt>
      <trkpt lat="37.9237888008" lon="-2.9267890938">
        <ele>998.47</ele>
        <time>2017-10-08T13:27:42Z</time>
      </trkpt>
      <trkpt lat="37.9237060715" lon="-2.9267433286">
        <ele>997.51</ele>
        <time>2017-10-08T13:27:43Z</time>
      </trkpt>
      <trkpt lat="37.9234173149" lon="-2.9266338609">
        <ele>994.62</ele>
        <time>2017-10-08T13:27:48Z</time>
      </trkpt>
      <trkpt lat="37.9231148120" lon="-2.9265127424">
        <ele>994.14</ele>
        <time>2017-10-08T13:27:57Z</time>
      </trkpt>
      <trkpt lat="37.9230707232" lon="-2.9264874291">
        <ele>994.14</ele>
        <time>2017-10-08T13:28:04Z</time>
      </trkpt>
      <trkpt lat="37.9230599944" lon="-2.9264788795">
        <ele>994.14</ele>
        <time>2017-10-08T13:28:22Z</time>
      </trkpt>
      <trkpt lat="37.9230576474" lon="-2.9264581762">
        <ele>994.14</ele>
        <time>2017-10-08T13:28:39Z</time>
      </trkpt>
      <trkpt lat="37.9230195098" lon="-2.9264616128">
        <ele>994.62</ele>
        <time>2017-10-08T13:28:47Z</time>
      </trkpt>
      <trkpt lat="37.9229717329" lon="-2.9264563322">
        <ele>994.62</ele>
        <time>2017-10-08T13:28:57Z</time>
      </trkpt>
      <trkpt lat="37.9229236208" lon="-2.9264418315">
        <ele>995.10</ele>
        <time>2017-10-08T13:29:08Z</time>
      </trkpt>
      <trkpt lat="37.9229092039" lon="-2.9264407419">
        <ele>995.10</ele>
        <time>2017-10-08T13:29:09Z</time>
      </trkpt>
      <trkpt lat="37.9228898417" lon="-2.9264422506">
        <ele>995.58</ele>
        <time>2017-10-08T13:29:10Z</time>
      </trkpt>
      <trkpt lat="37.9228713177" lon="-2.9264430050">
        <ele>995.58</ele>
        <time>2017-10-08T13:29:11Z</time>
      </trkpt>
      <trkpt lat="37.9228559788" lon="-2.9264399875">
        <ele>995.58</ele>
        <time>2017-10-08T13:29:12Z</time>
      </trkpt>
      <trkpt lat="37.9228407238" lon="-2.9264328629">
        <ele>995.58</ele>
        <time>2017-10-08T13:29:13Z</time>
      </trkpt>
      <trkpt lat="37.9228228703" lon="-2.9264262412">
        <ele>995.58</ele>
        <time>2017-10-08T13:29:14Z</time>
      </trkpt>
      <trkpt lat="37.9228045139" lon="-2.9264245648">
        <ele>996.06</ele>
        <time>2017-10-08T13:29:15Z</time>
      </trkpt>
      <trkpt lat="37.9227868281" lon="-2.9264244810">
        <ele>996.06</ele>
        <time>2017-10-08T13:29:16Z</time>
      </trkpt>
      <trkpt lat="37.9227719922" lon="-2.9264258221">
        <ele>996.54</ele>
        <time>2017-10-08T13:29:17Z</time>
      </trkpt>
      <trkpt lat="37.9227590840" lon="-2.9264262412">
        <ele>996.54</ele>
        <time>2017-10-08T13:29:18Z</time>
      </trkpt>
      <trkpt lat="37.9227449186" lon="-2.9264308512">
        <ele>996.54</ele>
        <time>2017-10-08T13:29:19Z</time>
      </trkpt>
      <trkpt lat="37.9227292445" lon="-2.9264305159">
        <ele>996.54</ele>
        <time>2017-10-08T13:29:20Z</time>
      </trkpt>
      <trkpt lat="37.9227135703" lon="-2.9264309350">
        <ele>996.54</ele>
        <time>2017-10-08T13:29:21Z</time>
      </trkpt>
      <trkpt lat="37.9226986505" lon="-2.9264357127">
        <ele>997.02</ele>
        <time>2017-10-08T13:29:22Z</time>
      </trkpt>
      <trkpt lat="37.9226840660" lon="-2.9264417477">
        <ele>997.02</ele>
        <time>2017-10-08T13:29:23Z</time>
      </trkpt>
      <trkpt lat="37.9226696491" lon="-2.9264467768">
        <ele>997.51</ele>
        <time>2017-10-08T13:29:24Z</time>
      </trkpt>
      <trkpt lat="37.9226561543" lon="-2.9264514707">
        <ele>997.51</ele>
        <time>2017-10-08T13:29:25Z</time>
      </trkpt>
      <trkpt lat="37.9226417374" lon="-2.9264580924">
        <ele>997.51</ele>
        <time>2017-10-08T13:29:26Z</time>
      </trkpt>
      <trkpt lat="37.9226278234" lon="-2.9264640436">
        <ele>997.51</ele>
        <time>2017-10-08T13:29:27Z</time>
      </trkpt>
      <trkpt lat="37.9226124845" lon="-2.9264673963">
        <ele>997.51</ele>
        <time>2017-10-08T13:29:28Z</time>
      </trkpt>
      <trkpt lat="37.9225989059" lon="-2.9264741018">
        <ele>997.99</ele>
        <time>2017-10-08T13:29:29Z</time>
      </trkpt>
      <trkpt lat="37.9225851595" lon="-2.9264848307">
        <ele>997.99</ele>
        <time>2017-10-08T13:29:30Z</time>
      </trkpt>
      <trkpt lat="37.9224454332" lon="-2.9265594296">
        <ele>998.95</ele>
        <time>2017-10-08T13:29:40Z</time>
      </trkpt>
      <trkpt lat="37.9224305134" lon="-2.9265568312">
        <ele>998.95</ele>
        <time>2017-10-08T13:29:41Z</time>
      </trkpt>
      <trkpt lat="37.9224170186" lon="-2.9265633691">
        <ele>998.95</ele>
        <time>2017-10-08T13:29:42Z</time>
      </trkpt>
      <trkpt lat="37.9224070441" lon="-2.9265754391">
        <ele>999.43</ele>
        <time>2017-10-08T13:29:43Z</time>
      </trkpt>
      <trkpt lat="37.9223993327" lon="-2.9265945498">
        <ele>999.43</ele>
        <time>2017-10-08T13:29:44Z</time>
      </trkpt>
      <trkpt lat="37.9223900288" lon="-2.9266151693">
        <ele>999.43</ele>
        <time>2017-10-08T13:29:45Z</time>
      </trkpt>
      <trkpt lat="37.9223754443" lon="-2.9266289156">
        <ele>999.43</ele>
        <time>2017-10-08T13:29:46Z</time>
      </trkpt>
      <trkpt lat="37.9223579261" lon="-2.9266340286">
        <ele>999.43</ele>
        <time>2017-10-08T13:29:47Z</time>
      </trkpt>
      <trkpt lat="37.9223412462" lon="-2.9266286641">
        <ele>999.43</ele>
        <time>2017-10-08T13:29:48Z</time>
      </trkpt>
      <trkpt lat="37.9223259911" lon="-2.9266231321">
        <ele>999.43</ele>
        <time>2017-10-08T13:29:49Z</time>
      </trkpt>
      <trkpt lat="37.9223118257" lon="-2.9266226292">
        <ele>999.91</ele>
        <time>2017-10-08T13:29:50Z</time>
      </trkpt>
      <trkpt lat="37.9222989175" lon="-2.9266305082">
        <ele>999.91</ele>
        <time>2017-10-08T13:29:51Z</time>
      </trkpt>
      <trkpt lat="37.9222861771" lon="-2.9266394768">
        <ele>999.91</ele>
        <time>2017-10-08T13:29:52Z</time>
      </trkpt>
      <trkpt lat="37.9222714249" lon="-2.9266478587">
        <ele>999.91</ele>
        <time>2017-10-08T13:29:53Z</time>
      </trkpt>
      <trkpt lat="37.9222547449" lon="-2.9266586713">
        <ele>999.91</ele>
        <time>2017-10-08T13:29:54Z</time>
      </trkpt>
      <trkpt lat="37.9222376458" lon="-2.9266654607">
        <ele>999.91</ele>
        <time>2017-10-08T13:29:55Z</time>
      </trkpt>
      <trkpt lat="37.9221943952" lon="-2.9266721662">
        <ele>1000.39</ele>
        <time>2017-10-08T13:29:58Z</time>
      </trkpt>
      <trkpt lat="37.9221825767" lon="-2.9266797937">
        <ele>1000.39</ele>
        <time>2017-10-08T13:29:59Z</time>
      </trkpt>
      <trkpt lat="37.9221694171" lon="-2.9266861640">
        <ele>1000.39</ele>
        <time>2017-10-08T13:30:00Z</time>
      </trkpt>
      <trkpt lat="37.9221555870" lon="-2.9266828950">
        <ele>1000.39</ele>
        <time>2017-10-08T13:30:01Z</time>
      </trkpt>
      <trkpt lat="37.9221394937" lon="-2.9266828950">
        <ele>1000.87</ele>
        <time>2017-10-08T13:30:02Z</time>
      </trkpt>
      <trkpt lat="37.9221285973" lon="-2.9266928695">
        <ele>1000.87</ele>
        <time>2017-10-08T13:30:03Z</time>
      </trkpt>
      <trkpt lat="37.9221200477" lon="-2.9267070349">
        <ele>1000.87</ele>
        <time>2017-10-08T13:30:04Z</time>
      </trkpt>
      <trkpt lat="37.9221103247" lon="-2.9267250560">
        <ele>1000.87</ele>
        <time>2017-10-08T13:30:05Z</time>
      </trkpt>
      <trkpt lat="37.9220972490" lon="-2.9267406464">
        <ele>1000.87</ele>
        <time>2017-10-08T13:30:06Z</time>
      </trkpt>
      <trkpt lat="37.9220798984" lon="-2.9267515428">
        <ele>1000.87</ele>
        <time>2017-10-08T13:30:07Z</time>
      </trkpt>
      <trkpt lat="37.9220639728" lon="-2.9267523810">
        <ele>1001.35</ele>
        <time>2017-10-08T13:30:08Z</time>
      </trkpt>
      <trkpt lat="37.9220487177" lon="-2.9267481063">
        <ele>1001.35</ele>
        <time>2017-10-08T13:30:09Z</time>
      </trkpt>
      <trkpt lat="37.9220364802" lon="-2.9267536383">
        <ele>1001.35</ele>
        <time>2017-10-08T13:30:10Z</time>
      </trkpt>
      <trkpt lat="37.9220301937" lon="-2.9267683066">
        <ele>1001.35</ele>
        <time>2017-10-08T13:30:11Z</time>
      </trkpt>
      <trkpt lat="37.9220280144" lon="-2.9267838970">
        <ele>1001.35</ele>
        <time>2017-10-08T13:30:12Z</time>
      </trkpt>
      <trkpt lat="37.9220212251" lon="-2.9267981462">
        <ele>1001.83</ele>
        <time>2017-10-08T13:30:13Z</time>
      </trkpt>
      <trkpt lat="37.9220063891" lon="-2.9268103838">
        <ele>1001.83</ele>
        <time>2017-10-08T13:30:14Z</time>
      </trkpt>
      <trkpt lat="37.9219888709" lon="-2.9268128145">
        <ele>1001.83</ele>
        <time>2017-10-08T13:30:15Z</time>
      </trkpt>
      <trkpt lat="37.9219698440" lon="-2.9268099647">
        <ele>1001.83</ele>
        <time>2017-10-08T13:30:16Z</time>
      </trkpt>
      <trkpt lat="37.9219507333" lon="-2.9268154968">
        <ele>1001.83</ele>
        <time>2017-10-08T13:30:17Z</time>
      </trkpt>
      <trkpt lat="37.9219386633" lon="-2.9268366192">
        <ele>1001.83</ele>
        <time>2017-10-08T13:30:18Z</time>
      </trkpt>
      <trkpt lat="37.9219316225" lon="-2.9268637765">
        <ele>1002.31</ele>
        <time>2017-10-08T13:30:19Z</time>
      </trkpt>
      <trkpt lat="37.9219233245" lon="-2.9268869106">
        <ele>1002.31</ele>
        <time>2017-10-08T13:30:20Z</time>
      </trkpt>
      <trkpt lat="37.9219119251" lon="-2.9269035906">
        <ele>1002.31</ele>
        <time>2017-10-08T13:30:21Z</time>
      </trkpt>
      <trkpt lat="37.9218985140" lon="-2.9269081168">
        <ele>1002.79</ele>
        <time>2017-10-08T13:30:22Z</time>
      </trkpt>
      <trkpt lat="37.9218834266" lon="-2.9269030876">
        <ele>1002.79</ele>
        <time>2017-10-08T13:30:23Z</time>
      </trkpt>
      <trkpt lat="37.9218675848" lon="-2.9269081168">
        <ele>1002.79</ele>
        <time>2017-10-08T13:30:24Z</time>
      </trkpt>
      <trkpt lat="37.9218575265" lon="-2.9269227851">
        <ele>1002.79</ele>
        <time>2017-10-08T13:30:25Z</time>
      </trkpt>
      <trkpt lat="37.9218499828" lon="-2.9269420635">
        <ele>1002.79</ele>
        <time>2017-10-08T13:30:26Z</time>
      </trkpt>
      <trkpt lat="37.9218418524" lon="-2.9269594979">
        <ele>1002.79</ele>
        <time>2017-10-08T13:30:27Z</time>
      </trkpt>
      <trkpt lat="37.9218316264" lon="-2.9269739147">
        <ele>1003.27</ele>
        <time>2017-10-08T13:30:28Z</time>
      </trkpt>
      <trkpt lat="37.9218168743" lon="-2.9269794468">
        <ele>1003.27</ele>
        <time>2017-10-08T13:30:29Z</time>
      </trkpt>
      <trkpt lat="37.9217998590" lon="-2.9269813746">
        <ele>1003.75</ele>
        <time>2017-10-08T13:30:30Z</time>
      </trkpt>
      <trkpt lat="37.9217858613" lon="-2.9269834701">
        <ele>1003.75</ele>
        <time>2017-10-08T13:30:31Z</time>
      </trkpt>
      <trkpt lat="37.9217737075" lon="-2.9269909300">
        <ele>1003.75</ele>
        <time>2017-10-08T13:30:32Z</time>
      </trkpt>
      <trkpt lat="37.9217623081" lon="-2.9270007368">
        <ele>1003.75</ele>
        <time>2017-10-08T13:30:33Z</time>
      </trkpt>
      <trkpt lat="37.9217513278" lon="-2.9270150699">
        <ele>1004.23</ele>
        <time>2017-10-08T13:30:34Z</time>
      </trkpt>
      <trkpt lat="37.9217359889" lon="-2.9270264693">
        <ele>1004.23</ele>
        <time>2017-10-08T13:30:35Z</time>
      </trkpt>
      <trkpt lat="37.9217186384" lon="-2.9270357732">
        <ele>1004.23</ele>
        <time>2017-10-08T13:30:36Z</time>
      </trkpt>
      <trkpt lat="37.9217024613" lon="-2.9270452447">
        <ele>1004.23</ele>
        <time>2017-10-08T13:30:37Z</time>
      </trkpt>
      <trkpt lat="37.9216867033" lon="-2.9270577338">
        <ele>1004.72</ele>
        <time>2017-10-08T13:30:38Z</time>
      </trkpt>
      <trkpt lat="37.9215102643" lon="-2.9271048401">
        <ele>1006.16</ele>
        <time>2017-10-08T13:30:48Z</time>
      </trkpt>
      <trkpt lat="37.9213567078" lon="-2.9271235317">
        <ele>1007.12</ele>
        <time>2017-10-08T13:30:57Z</time>
      </trkpt>
      <trkpt lat="37.9213202465" lon="-2.9271213524">
        <ele>1006.64</ele>
        <time>2017-10-08T13:30:59Z</time>
      </trkpt>
      <trkpt lat="37.9213049915" lon="-2.9271255434">
        <ele>1006.64</ele>
        <time>2017-10-08T13:31:00Z</time>
      </trkpt>
      <trkpt lat="37.9212899040" lon="-2.9271261301">
        <ele>1010.48</ele>
        <time>2017-10-08T13:31:01Z</time>
      </trkpt>
      <trkpt lat="37.9212744813" lon="-2.9271262977">
        <ele>1008.56</ele>
        <time>2017-10-08T13:31:02Z</time>
      </trkpt>
      <trkpt lat="37.9212574661" lon="-2.9271331709">
        <ele>1008.08</ele>
        <time>2017-10-08T13:31:03Z</time>
      </trkpt>
      <trkpt lat="37.9212406185" lon="-2.9271407146">
        <ele>1008.08</ele>
        <time>2017-10-08T13:31:04Z</time>
      </trkpt>
      <trkpt lat="37.9212251958" lon="-2.9271485936">
        <ele>1008.08</ele>
        <time>2017-10-08T13:31:05Z</time>
      </trkpt>
      <trkpt lat="37.9212094378" lon="-2.9271509405">
        <ele>1008.56</ele>
        <time>2017-10-08T13:31:06Z</time>
      </trkpt>
      <trkpt lat="37.9211911652" lon="-2.9271542933">
        <ele>1008.56</ele>
        <time>2017-10-08T13:31:07Z</time>
      </trkpt>
      <trkpt lat="37.9211727250" lon="-2.9271552153">
        <ele>1008.56</ele>
        <time>2017-10-08T13:31:08Z</time>
      </trkpt>
      <trkpt lat="37.9210222699" lon="-2.9271500185">
        <ele>1009.52</ele>
        <time>2017-10-08T13:31:17Z</time>
      </trkpt>
      <trkpt lat="37.9208340961" lon="-2.9271256272">
        <ele>1010.00</ele>
        <time>2017-10-08T13:31:28Z</time>
      </trkpt>
      <trkpt lat="37.9207296576" lon="-2.9271307401">
        <ele>1010.00</ele>
        <time>2017-10-08T13:31:35Z</time>
      </trkpt>
      <trkpt lat="37.9207221977" lon="-2.9270805325">
        <ele>1010.48</ele>
        <time>2017-10-08T13:31:38Z</time>
      </trkpt>
      <trkpt lat="37.9207579046" lon="-2.9271493480">
        <ele>1010.00</ele>
        <time>2017-10-08T13:31:45Z</time>
      </trkpt>
      <trkpt lat="37.9205735866" lon="-2.9271772597">
        <ele>1011.44</ele>
        <time>2017-10-08T13:31:56Z</time>
      </trkpt>
      <trkpt lat="37.9205103032" lon="-2.9271533713">
        <ele>1011.93</ele>
        <time>2017-10-08T13:32:00Z</time>
      </trkpt>
      <trkpt lat="37.9204655439" lon="-2.9271656927">
        <ele>1011.93</ele>
        <time>2017-10-08T13:32:03Z</time>
      </trkpt>
      <trkpt lat="37.9204248916" lon="-2.9271599930">
        <ele>1012.41</ele>
        <time>2017-10-08T13:32:06Z</time>
      </trkpt>
      <trkpt lat="37.9203730077" lon="-2.9271671176">
        <ele>1012.89</ele>
        <time>2017-10-08T13:32:10Z</time>
      </trkpt>
      <trkpt lat="37.9202932958" lon="-2.9271693807">
        <ele>1013.85</ele>
        <time>2017-10-08T13:32:16Z</time>
      </trkpt>
      <trkpt lat="37.9202755261" lon="-2.9271447379">
        <ele>1013.37</ele>
        <time>2017-10-08T13:32:18Z</time>
      </trkpt>
      <trkpt lat="37.9201848339" lon="-2.9271594062">
        <ele>1014.81</ele>
        <time>2017-10-08T13:32:25Z</time>
      </trkpt>
      <trkpt lat="37.9201151803" lon="-2.9271666985">
        <ele>1015.29</ele>
        <time>2017-10-08T13:32:31Z</time>
      </trkpt>
      <trkpt lat="37.9200936388" lon="-2.9271505214">
        <ele>1015.77</ele>
        <time>2017-10-08T13:32:33Z</time>
      </trkpt>
      <trkpt lat="37.9200184532" lon="-2.9271237832">
        <ele>1016.25</ele>
        <time>2017-10-08T13:32:39Z</time>
      </trkpt>
      <trkpt lat="37.9199056327" lon="-2.9271183349">
        <ele>1017.69</ele>
        <time>2017-10-08T13:32:47Z</time>
      </trkpt>
      <trkpt lat="37.9198544193" lon="-2.9271047562">
        <ele>1018.17</ele>
        <time>2017-10-08T13:32:50Z</time>
      </trkpt>
      <trkpt lat="37.9197573569" lon="-2.9270776827">
        <ele>1018.65</ele>
        <time>2017-10-08T13:32:56Z</time>
      </trkpt>
      <trkpt lat="37.9196335562" lon="-2.9270940274">
        <ele>1020.10</ele>
        <time>2017-10-08T13:33:04Z</time>
      </trkpt>
      <trkpt lat="37.9195163772" lon="-2.9270998109">
        <ele>1021.54</ele>
        <time>2017-10-08T13:33:11Z</time>
      </trkpt>
      <trkpt lat="37.9193373397" lon="-2.9270926863">
        <ele>1023.46</ele>
        <time>2017-10-08T13:33:22Z</time>
      </trkpt>
      <trkpt lat="37.9191990383" lon="-2.9270963743">
        <ele>1026.83</ele>
        <time>2017-10-08T13:33:32Z</time>
      </trkpt>
      <trkpt lat="37.9191876389" lon="-2.9270977993">
        <ele>1025.38</ele>
        <time>2017-10-08T13:33:33Z</time>
      </trkpt>
      <trkpt lat="37.9191142973" lon="-2.9271039180">
        <ele>1029.23</ele>
        <time>2017-10-08T13:33:39Z</time>
      </trkpt>
      <trkpt lat="37.9191025626" lon="-2.9271062650">
        <ele>1026.83</ele>
        <time>2017-10-08T13:33:40Z</time>
      </trkpt>
      <trkpt lat="37.9190185759" lon="-2.9270968772">
        <ele>1026.34</ele>
        <time>2017-10-08T13:33:46Z</time>
      </trkpt>
      <trkpt lat="37.9189938493" lon="-2.9270912614">
        <ele>1027.31</ele>
        <time>2017-10-08T13:33:48Z</time>
      </trkpt>
      <trkpt lat="37.9189713858" lon="-2.9271014035">
        <ele>1029.71</ele>
        <time>2017-10-08T13:33:50Z</time>
      </trkpt>
      <trkpt lat="37.9189490899" lon="-2.9271060973">
        <ele>1027.31</ele>
        <time>2017-10-08T13:33:52Z</time>
      </trkpt>
      <trkpt lat="37.9189257044" lon="-2.9271168262">
        <ele>1029.71</ele>
        <time>2017-10-08T13:33:54Z</time>
      </trkpt>
      <trkpt lat="37.9189003073" lon="-2.9271217715">
        <ele>1028.75</ele>
        <time>2017-10-08T13:33:56Z</time>
      </trkpt>
      <trkpt lat="37.9188402928" lon="-2.9271120485">
        <ele>1029.23</ele>
        <time>2017-10-08T13:34:01Z</time>
      </trkpt>
      <trkpt lat="37.9187354352" lon="-2.9271026608">
        <ele>1030.19</ele>
        <time>2017-10-08T13:34:08Z</time>
      </trkpt>
      <trkpt lat="37.9186693020" lon="-2.9270858131">
        <ele>1030.67</ele>
        <time>2017-10-08T13:34:13Z</time>
      </trkpt>
      <trkpt lat="37.9186019953" lon="-2.9270454124">
        <ele>1031.63</ele>
        <time>2017-10-08T13:34:24Z</time>
      </trkpt>
      <trkpt lat="37.9186039232" lon="-2.9270422272">
        <ele>1031.63</ele>
        <time>2017-10-08T13:34:45Z</time>
      </trkpt>
      <trkpt lat="37.9186001513" lon="-2.9270441551">
        <ele>1032.11</ele>
        <time>2017-10-08T13:35:05Z</time>
      </trkpt>
      <trkpt lat="37.9185966309" lon="-2.9270466696">
        <ele>1032.11</ele>
        <time>2017-10-08T13:35:27Z</time>
      </trkpt>
      <trkpt lat="37.9185983073" lon="-2.9270397127">
        <ele>1031.63</ele>
        <time>2017-10-08T13:35:40Z</time>
      </trkpt>
      <trkpt lat="37.9185765982" lon="-2.9270131420">
        <ele>1032.11</ele>
        <time>2017-10-08T13:35:44Z</time>
      </trkpt>
      <trkpt lat="37.9185562301" lon="-2.9270010721">
        <ele>1032.11</ele>
        <time>2017-10-08T13:35:46Z</time>
      </trkpt>
      <trkpt lat="37.9185013287" lon="-2.9268856533">
        <ele>1033.07</ele>
        <time>2017-10-08T13:35:54Z</time>
      </trkpt>
      <trkpt lat="37.9185362812" lon="-2.9267586675">
        <ele>1034.04</ele>
        <time>2017-10-08T13:36:04Z</time>
      </trkpt>
      <trkpt lat="37.9185532965" lon="-2.9267328512">
        <ele>1034.04</ele>
        <time>2017-10-08T13:36:06Z</time>
      </trkpt>
      <trkpt lat="37.9185791127" lon="-2.9267110582">
        <ele>1034.04</ele>
        <time>2017-10-08T13:36:08Z</time>
      </trkpt>
      <trkpt lat="37.9186280631" lon="-2.9266559053">
        <ele>1035.00</ele>
        <time>2017-10-08T13:36:14Z</time>
      </trkpt>
      <trkpt lat="37.9186834674" lon="-2.9266754352">
        <ele>1035.00</ele>
        <time>2017-10-08T13:36:18Z</time>
      </trkpt>
      <trkpt lat="37.9187578149" lon="-2.9266687296">
        <ele>1035.96</ele>
        <time>2017-10-08T13:36:25Z</time>
      </trkpt>
      <trkpt lat="37.9187677894" lon="-2.9266807158">
        <ele>1035.96</ele>
        <time>2017-10-08T13:36:26Z</time>
      </trkpt>
      <trkpt lat="37.9187685438" lon="-2.9266525526">
        <ele>1035.96</ele>
        <time>2017-10-08T13:36:31Z</time>
      </trkpt>
      <trkpt lat="37.9187793564" lon="-2.9266774468">
        <ele>1035.96</ele>
        <time>2017-10-08T13:36:37Z</time>
      </trkpt>
      <trkpt lat="37.9188584816" lon="-2.9267171770">
        <ele>1036.44</ele>
        <time>2017-10-08T13:36:43Z</time>
      </trkpt>
      <trkpt lat="37.9189968668" lon="-2.9267401434">
        <ele>1036.92</ele>
        <time>2017-10-08T13:36:53Z</time>
      </trkpt>
      <trkpt lat="37.9190454818" lon="-2.9267334379">
        <ele>1036.92</ele>
        <time>2017-10-08T13:36:56Z</time>
      </trkpt>
      <trkpt lat="37.9190764111" lon="-2.9267502856">
        <ele>1037.40</ele>
        <time>2017-10-08T13:36:58Z</time>
      </trkpt>
      <trkpt lat="37.9191948473" lon="-2.9267191887">
        <ele>1038.36</ele>
        <time>2017-10-08T13:37:07Z</time>
      </trkpt>
      <trkpt lat="37.9193027224" lon="-2.9266676400">
        <ele>1038.84</ele>
        <time>2017-10-08T13:37:15Z</time>
      </trkpt>
      <trkpt lat="37.9193722922" lon="-2.9265871737">
        <ele>1039.80</ele>
        <time>2017-10-08T13:37:22Z</time>
      </trkpt>
      <trkpt lat="37.9194726236" lon="-2.9265062883">
        <ele>1040.28</ele>
        <time>2017-10-08T13:37:31Z</time>
      </trkpt>
      <trkpt lat="37.9195190594" lon="-2.9264730122">
        <ele>1040.76</ele>
        <time>2017-10-08T13:37:35Z</time>
      </trkpt>
      <trkpt lat="37.9196269345" lon="-2.9263583478">
        <ele>1041.73</ele>
        <time>2017-10-08T13:37:45Z</time>
      </trkpt>
      <trkpt lat="37.9197150283" lon="-2.9262666497">
        <ele>1042.69</ele>
        <time>2017-10-08T13:37:53Z</time>
      </trkpt>
      <trkpt lat="37.9197322112" lon="-2.9262284283">
        <ele>1042.69</ele>
        <time>2017-10-08T13:37:55Z</time>
      </trkpt>
      <trkpt lat="37.9198006913" lon="-2.9261156917">
        <ele>1043.65</ele>
        <time>2017-10-08T13:38:03Z</time>
      </trkpt>
      <trkpt lat="37.9198477976" lon="-2.9260197189">
        <ele>1044.13</ele>
        <time>2017-10-08T13:38:10Z</time>
      </trkpt>
      <trkpt lat="37.9198856000" lon="-2.9259131011">
        <ele>1045.09</ele>
        <time>2017-10-08T13:38:17Z</time>
      </trkpt>
      <trkpt lat="37.9198907129" lon="-2.9258700181">
        <ele>1045.09</ele>
        <time>2017-10-08T13:38:19Z</time>
      </trkpt>
      <trkpt lat="37.9198775534" lon="-2.9257557727">
        <ele>1046.05</ele>
        <time>2017-10-08T13:38:26Z</time>
      </trkpt>
      <trkpt lat="37.9198954068" lon="-2.9257243406">
        <ele>1046.05</ele>
        <time>2017-10-08T13:38:28Z</time>
      </trkpt>
      <trkpt lat="37.9198590294" lon="-2.9256043956">
        <ele>1047.01</ele>
        <time>2017-10-08T13:38:35Z</time>
      </trkpt>
      <trkpt lat="37.9198503960" lon="-2.9255705327">
        <ele>1047.01</ele>
        <time>2017-10-08T13:38:37Z</time>
      </trkpt>
      <trkpt lat="37.9198345542" lon="-2.9255011305">
        <ele>1047.49</ele>
        <time>2017-10-08T13:38:41Z</time>
      </trkpt>
      <trkpt lat="37.9198318720" lon="-2.9254641663">
        <ele>1047.97</ele>
        <time>2017-10-08T13:38:43Z</time>
      </trkpt>
      <trkpt lat="37.9198449478" lon="-2.9254357517">
        <ele>1048.45</ele>
        <time>2017-10-08T13:38:45Z</time>
      </trkpt>
      <trkpt lat="37.9198112525" lon="-2.9253275413">
        <ele>1048.94</ele>
        <time>2017-10-08T13:38:53Z</time>
      </trkpt>
      <trkpt lat="37.9198009428" lon="-2.9251853004">
        <ele>1049.90</ele>
        <time>2017-10-08T13:39:03Z</time>
      </trkpt>
      <trkpt lat="37.9197823349" lon="-2.9250644334">
        <ele>1050.86</ele>
        <time>2017-10-08T13:39:10Z</time>
      </trkpt>
      <trkpt lat="37.9197885375" lon="-2.9250481725">
        <ele>1050.86</ele>
        <time>2017-10-08T13:39:11Z</time>
      </trkpt>
      <trkpt lat="37.9198047146" lon="-2.9249734059">
        <ele>1050.86</ele>
        <time>2017-10-08T13:39:15Z</time>
      </trkpt>
      <trkpt lat="37.9198130965" lon="-2.9248829652">
        <ele>1051.34</ele>
        <time>2017-10-08T13:39:21Z</time>
      </trkpt>
      <trkpt lat="37.9198604543" lon="-2.9247665405">
        <ele>1052.30</ele>
        <time>2017-10-08T13:39:29Z</time>
      </trkpt>
      <trkpt lat="37.9199175350" lon="-2.9246231262">
        <ele>1053.26</ele>
        <time>2017-10-08T13:39:39Z</time>
      </trkpt>
      <trkpt lat="37.9199297726" lon="-2.9246129841">
        <ele>1053.26</ele>
        <time>2017-10-08T13:39:40Z</time>
      </trkpt>
      <trkpt lat="37.9199591931" lon="-2.9246160854">
        <ele>1053.26</ele>
        <time>2017-10-08T13:39:42Z</time>
      </trkpt>
      <trkpt lat="37.9199687485" lon="-2.9245741758">
        <ele>1053.74</ele>
        <time>2017-10-08T13:39:46Z</time>
      </trkpt>
      <trkpt lat="37.9200176150" lon="-2.9245019238">
        <ele>1054.22</ele>
        <time>2017-10-08T13:39:53Z</time>
      </trkpt>
      <trkpt lat="37.9200771265" lon="-2.9244245589">
        <ele>1054.70</ele>
        <time>2017-10-08T13:40:00Z</time>
      </trkpt>
      <trkpt lat="37.9200933035" lon="-2.9243485350">
        <ele>1055.18</ele>
        <time>2017-10-08T13:40:05Z</time>
      </trkpt>
      <trkpt lat="37.9201135878" lon="-2.9243209586">
        <ele>1055.67</ele>
        <time>2017-10-08T13:40:07Z</time>
      </trkpt>
      <trkpt lat="37.9201293457" lon="-2.9242173582">
        <ele>1056.15</ele>
        <time>2017-10-08T13:40:13Z</time>
      </trkpt>
      <trkpt lat="37.9201710876" lon="-2.9240418412">
        <ele>1057.11</ele>
        <time>2017-10-08T13:40:24Z</time>
      </trkpt>
      <trkpt lat="37.9201833252" lon="-2.9240322858">
        <ele>1057.11</ele>
        <time>2017-10-08T13:40:25Z</time>
      </trkpt>
      <trkpt lat="37.9201865941" lon="-2.9239661526">
        <ele>1057.59</ele>
        <time>2017-10-08T13:40:29Z</time>
      </trkpt>
      <trkpt lat="37.9202388972" lon="-2.9238017835">
        <ele>1058.07</ele>
        <time>2017-10-08T13:40:38Z</time>
      </trkpt>
      <trkpt lat="37.9202984087" lon="-2.9236161243">
        <ele>1059.03</ele>
        <time>2017-10-08T13:40:50Z</time>
      </trkpt>
      <trkpt lat="37.9203054495" lon="-2.9236001987">
        <ele>1059.51</ele>
        <time>2017-10-08T13:40:51Z</time>
      </trkpt>
      <trkpt lat="37.9203503765" lon="-2.9235466383">
        <ele>1059.51</ele>
        <time>2017-10-08T13:40:55Z</time>
      </trkpt>
      <trkpt lat="37.9204460140" lon="-2.9234874621">
        <ele>1060.47</ele>
        <time>2017-10-08T13:41:04Z</time>
      </trkpt>
      <trkpt lat="37.9204995744" lon="-2.9234315548">
        <ele>1060.95</ele>
        <time>2017-10-08T13:41:09Z</time>
      </trkpt>
      <trkpt lat="37.9205558170" lon="-2.9234241787">
        <ele>1061.43</ele>
        <time>2017-10-08T13:41:13Z</time>
      </trkpt>
      <trkpt lat="37.9206985608" lon="-2.9233681038">
        <ele>1061.91</ele>
        <time>2017-10-08T13:41:23Z</time>
      </trkpt>
      <trkpt lat="37.9208007362" lon="-2.9233303852">
        <ele>1062.87</ele>
        <time>2017-10-08T13:41:32Z</time>
      </trkpt>
      <trkpt lat="37.9208828788" lon="-2.9232906550">
        <ele>1063.36</ele>
        <time>2017-10-08T13:41:38Z</time>
      </trkpt>
      <trkpt lat="37.9209552985" lon="-2.9232671857">
        <ele>1066.72</ele>
        <time>2017-10-08T13:41:44Z</time>
      </trkpt>
      <trkpt lat="37.9209689610" lon="-2.9232603963">
        <ele>1064.80</ele>
        <time>2017-10-08T13:41:45Z</time>
      </trkpt>
      <trkpt lat="37.9210277181" lon="-2.9232374299">
        <ele>1063.36</ele>
        <time>2017-10-08T13:41:49Z</time>
      </trkpt>
      <trkpt lat="37.9211334977" lon="-2.9232064169">
        <ele>1065.76</ele>
        <time>2017-10-08T13:41:56Z</time>
      </trkpt>
      <trkpt lat="37.9211744014" lon="-2.9231521022">
        <ele>1066.24</ele>
        <time>2017-10-08T13:42:00Z</time>
      </trkpt>
      <trkpt lat="37.9213276226" lon="-2.9231017269">
        <ele>1067.68</ele>
        <time>2017-10-08T13:42:10Z</time>
      </trkpt>
      <trkpt lat="37.9214268643" lon="-2.9229847156">
        <ele>1068.16</ele>
        <time>2017-10-08T13:42:18Z</time>
      </trkpt>
      <trkpt lat="37.9214347433" lon="-2.9229640961">
        <ele>1068.16</ele>
        <time>2017-10-08T13:42:19Z</time>
      </trkpt>
      <trkpt lat="37.9214582127" lon="-2.9229100328">
        <ele>1068.64</ele>
        <time>2017-10-08T13:42:22Z</time>
      </trkpt>
      <trkpt lat="37.9216160439" lon="-2.9227724019">
        <ele>1069.60</ele>
        <time>2017-10-08T13:42:34Z</time>
      </trkpt>
      <trkpt lat="37.9216792434" lon="-2.9226807039">
        <ele>1070.08</ele>
        <time>2017-10-08T13:42:40Z</time>
      </trkpt>
      <trkpt lat="37.9217790719" lon="-2.9225811269">
        <ele>1071.05</ele>
        <time>2017-10-08T13:42:49Z</time>
      </trkpt>
      <trkpt lat="37.9218443669" lon="-2.9225149099">
        <ele>1071.53</ele>
        <time>2017-10-08T13:42:56Z</time>
      </trkpt>
      <trkpt lat="37.9218620528" lon="-2.9224854894">
        <ele>1071.53</ele>
        <time>2017-10-08T13:42:58Z</time>
      </trkpt>
      <trkpt lat="37.9219527449" lon="-2.9223921150">
        <ele>1072.97</ele>
        <time>2017-10-08T13:43:05Z</time>
      </trkpt>
      <trkpt lat="37.9220556747" lon="-2.9222755227">
        <ele>1073.93</ele>
        <time>2017-10-08T13:43:14Z</time>
      </trkpt>
      <trkpt lat="37.9221586883" lon="-2.9222042765">
        <ele>1074.41</ele>
        <time>2017-10-08T13:43:21Z</time>
      </trkpt>
      <trkpt lat="37.9221940599" lon="-2.9221430887">
        <ele>1074.89</ele>
        <time>2017-10-08T13:43:25Z</time>
      </trkpt>
      <trkpt lat="37.9222226422" lon="-2.9221372213">
        <ele>1075.37</ele>
        <time>2017-10-08T13:43:27Z</time>
      </trkpt>
      <trkpt lat="37.9223034438" lon="-2.9220347106">
        <ele>1075.85</ele>
        <time>2017-10-08T13:43:34Z</time>
      </trkpt>
      <trkpt lat="37.9223465268" lon="-2.9219932202">
        <ele>1076.33</ele>
        <time>2017-10-08T13:43:37Z</time>
      </trkpt>
      <trkpt lat="37.9223663080" lon="-2.9219325352">
        <ele>1076.81</ele>
        <time>2017-10-08T13:43:40Z</time>
      </trkpt>
      <trkpt lat="37.9224524740" lon="-2.9218771309">
        <ele>1077.29</ele>
        <time>2017-10-08T13:43:46Z</time>
      </trkpt>
      <trkpt lat="37.9224665556" lon="-2.9218409210">
        <ele>1077.78</ele>
        <time>2017-10-08T13:43:48Z</time>
      </trkpt>
      <trkpt lat="37.9225192778" lon="-2.9218024481">
        <ele>1078.26</ele>
        <time>2017-10-08T13:43:52Z</time>
      </trkpt>
      <trkpt lat="37.9226885922" lon="-2.9216198064">
        <ele>1079.22</ele>
        <time>2017-10-08T13:44:04Z</time>
      </trkpt>
      <trkpt lat="37.9227842297" lon="-2.9215564393">
        <ele>1079.22</ele>
        <time>2017-10-08T13:44:09Z</time>
      </trkpt>
      <trkpt lat="37.9228197690" lon="-2.9215581156">
        <ele>1079.70</ele>
        <time>2017-10-08T13:44:11Z</time>
      </trkpt>
      <trkpt lat="37.9228943679" lon="-2.9215065669">
        <ele>1079.70</ele>
        <time>2017-10-08T13:44:15Z</time>
      </trkpt>
      <trkpt lat="37.9230990540" lon="-2.9214499891">
        <ele>1080.18</ele>
        <time>2017-10-08T13:44:25Z</time>
      </trkpt>
      <trkpt lat="37.9231372755" lon="-2.9214340635">
        <ele>1080.66</ele>
        <time>2017-10-08T13:44:27Z</time>
      </trkpt>
      <trkpt lat="37.9233414587" lon="-2.9213484004">
        <ele>1081.14</ele>
        <time>2017-10-08T13:44:37Z</time>
      </trkpt>
      <trkpt lat="37.9235792533" lon="-2.9211676028">
        <ele>1081.62</ele>
        <time>2017-10-08T13:44:49Z</time>
      </trkpt>
      <trkpt lat="37.9236463923" lon="-2.9211010505">
        <ele>1082.10</ele>
        <time>2017-10-08T13:44:53Z</time>
      </trkpt>
      <trkpt lat="37.9238013737" lon="-2.9209870566">
        <ele>1082.58</ele>
        <time>2017-10-08T13:45:02Z</time>
      </trkpt>
      <trkpt lat="37.9238712788" lon="-2.9209425487">
        <ele>1083.06</ele>
        <time>2017-10-08T13:45:06Z</time>
      </trkpt>
      <trkpt lat="37.9240518250" lon="-2.9207810294">
        <ele>1083.54</ele>
        <time>2017-10-08T13:45:18Z</time>
      </trkpt>
      <trkpt lat="37.9242201336" lon="-2.9206506908">
        <ele>1084.50</ele>
        <time>2017-10-08T13:45:28Z</time>
      </trkpt>
      <trkpt lat="37.9243631288" lon="-2.9205263872">
        <ele>1084.99</ele>
        <time>2017-10-08T13:45:38Z</time>
      </trkpt>
      <trkpt lat="37.9245026037" lon="-2.9204486031">
        <ele>1085.95</ele>
        <time>2017-10-08T13:45:46Z</time>
      </trkpt>
      <trkpt lat="37.9247564916" lon="-2.9203320947">
        <ele>1086.91</ele>
        <time>2017-10-08T13:45:59Z</time>
      </trkpt>
      <trkpt lat="37.9249562323" lon="-2.9202417377">
        <ele>1087.39</ele>
        <time>2017-10-08T13:46:09Z</time>
      </trkpt>
      <trkpt lat="37.9251367785" lon="-2.9201631993">
        <ele>1088.35</ele>
        <time>2017-10-08T13:46:17Z</time>
      </trkpt>
      <trkpt lat="37.9252268001" lon="-2.9201347008">
        <ele>1088.35</ele>
        <time>2017-10-08T13:46:21Z</time>
      </trkpt>
      <trkpt lat="37.9253625032" lon="-2.9201523028">
        <ele>1088.35</ele>
        <time>2017-10-08T13:46:30Z</time>
      </trkpt>
      <trkpt lat="37.9253586475" lon="-2.9201484472">
        <ele>1088.35</ele>
        <time>2017-10-08T13:46:42Z</time>
      </trkpt>
      <trkpt lat="37.9253563005" lon="-2.9201580025">
        <ele>1088.35</ele>
        <time>2017-10-08T13:47:02Z</time>
      </trkpt>
      <trkpt lat="37.9253485892" lon="-2.9201431666">
        <ele>1088.35</ele>
        <time>2017-10-08T13:47:25Z</time>
      </trkpt>
      <trkpt lat="37.9253537860" lon="-2.9201549850">
        <ele>1088.35</ele>
        <time>2017-10-08T13:47:47Z</time>
      </trkpt>
      <trkpt lat="37.9253447335" lon="-2.9201312643">
        <ele>1088.35</ele>
        <time>2017-10-08T13:48:03Z</time>
      </trkpt>
      <trkpt lat="37.9253390338" lon="-2.9201320186">
        <ele>1088.35</ele>
        <time>2017-10-08T13:48:17Z</time>
      </trkpt>
      <trkpt lat="37.9253441468" lon="-2.9201378860">
        <ele>1088.35</ele>
        <time>2017-10-08T13:48:39Z</time>
      </trkpt>
      <trkpt lat="37.9253434762" lon="-2.9201361258">
        <ele>1088.35</ele>
        <time>2017-10-08T13:48:41Z</time>
      </trkpt>
      <trkpt lat="37.9253210966" lon="-2.9200754408">
        <ele>1088.35</ele>
        <time>2017-10-08T13:48:47Z</time>
      </trkpt>
      <trkpt lat="37.9254371859" lon="-2.9199823178">
        <ele>1088.83</ele>
        <time>2017-10-08T13:48:56Z</time>
      </trkpt>
      <trkpt lat="37.9254842922" lon="-2.9199218843">
        <ele>1089.31</ele>
        <time>2017-10-08T13:49:01Z</time>
      </trkpt>
      <trkpt lat="37.9255192447" lon="-2.9198053759">
        <ele>1089.31</ele>
        <time>2017-10-08T13:49:08Z</time>
      </trkpt>
      <trkpt lat="37.9255101923" lon="-2.9197249934">
        <ele>1090.27</ele>
        <time>2017-10-08T13:49:13Z</time>
      </trkpt>
      <trkpt lat="37.9253972042" lon="-2.9196662363">
        <ele>1090.27</ele>
        <time>2017-10-08T13:49:22Z</time>
      </trkpt>
      <trkpt lat="37.9253751598" lon="-2.9196736962">
        <ele>1089.79</ele>
        <time>2017-10-08T13:49:24Z</time>
      </trkpt>
      <trkpt lat="37.9253530316" lon="-2.9196880292">
        <ele>1091.23</ele>
        <time>2017-10-08T13:49:27Z</time>
      </trkpt>
      <trkpt lat="37.9253067635" lon="-2.9197076429">
        <ele>1091.23</ele>
        <time>2017-10-08T13:49:31Z</time>
      </trkpt>
      <trkpt lat="37.9252596572" lon="-2.9197458643">
        <ele>1091.23</ele>
        <time>2017-10-08T13:49:35Z</time>
      </trkpt>
      <trkpt lat="37.9251718149" lon="-2.9197916295">
        <ele>1093.64</ele>
        <time>2017-10-08T13:49:44Z</time>
      </trkpt>
      <trkpt lat="37.9251694679" lon="-2.9198157694">
        <ele>1092.68</ele>
        <time>2017-10-08T13:49:52Z</time>
      </trkpt>
      <trkpt lat="37.9251688812" lon="-2.9198244866">
        <ele>1092.68</ele>
        <time>2017-10-08T13:50:04Z</time>
      </trkpt>
      <trkpt lat="37.9251684621" lon="-2.9198224749">
        <ele>1092.68</ele>
        <time>2017-10-08T13:50:23Z</time>
      </trkpt>
      <trkpt lat="37.9251665343" lon="-2.9198290966">
        <ele>1092.68</ele>
        <time>2017-10-08T13:50:42Z</time>
      </trkpt>
      <trkpt lat="37.9251634330" lon="-2.9198270012">
        <ele>1092.68</ele>
        <time>2017-10-08T13:50:57Z</time>
      </trkpt>
      <trkpt lat="37.9251797777" lon="-2.9198278394">
        <ele>1092.68</ele>
        <time>2017-10-08T13:51:16Z</time>
      </trkpt>
      <trkpt lat="37.9251817055" lon="-2.9198387358">
        <ele>1092.68</ele>
        <time>2017-10-08T13:51:40Z</time>
      </trkpt>
      <trkpt lat="37.9251553863" lon="-2.9198390711">
        <ele>1092.68</ele>
        <time>2017-10-08T13:51:52Z</time>
      </trkpt>
      <trkpt lat="37.9251533747" lon="-2.9198478721">
        <ele>1092.68</ele>
        <time>2017-10-08T13:51:57Z</time>
      </trkpt>
      <trkpt lat="37.9250796139" lon="-2.9198945593">
        <ele>1092.68</ele>
        <time>2017-10-08T13:52:05Z</time>
      </trkpt>
      <trkpt lat="37.9250128102" lon="-2.9199099820">
        <ele>1093.16</ele>
        <time>2017-10-08T13:52:11Z</time>
      </trkpt>
      <trkpt lat="37.9249377083" lon="-2.9199446831">
        <ele>1094.12</ele>
        <time>2017-10-08T13:52:17Z</time>
      </trkpt>
      <trkpt lat="37.9248229600" lon="-2.9199692421">
        <ele>1094.60</ele>
        <time>2017-10-08T13:52:26Z</time>
      </trkpt>
      <trkpt lat="37.9247763567" lon="-2.9199584294">
        <ele>1094.60</ele>
        <time>2017-10-08T13:52:29Z</time>
      </trkpt>
      <trkpt lat="37.9246264044" lon="-2.9200023506">
        <ele>1095.56</ele>
        <time>2017-10-08T13:52:39Z</time>
      </trkpt>
      <trkpt lat="37.9245342873" lon="-2.9200116545">
        <ele>1096.04</ele>
        <time>2017-10-08T13:52:45Z</time>
      </trkpt>
      <trkpt lat="37.9244599398" lon="-2.9200293403">
        <ele>1097.00</ele>
        <time>2017-10-08T13:52:50Z</time>
      </trkpt>
      <trkpt lat="37.9243235663" lon="-2.9200145882">
        <ele>1097.96</ele>
        <time>2017-10-08T13:52:59Z</time>
      </trkpt>
      <trkpt lat="37.9243128374" lon="-2.9200222157">
        <ele>1097.96</ele>
        <time>2017-10-08T13:53:00Z</time>
      </trkpt>
      <trkpt lat="37.9241224006" lon="-2.9200725909">
        <ele>1099.40</ele>
        <time>2017-10-08T13:53:12Z</time>
      </trkpt>
      <trkpt lat="37.9241087381" lon="-2.9200797994">
        <ele>1099.40</ele>
        <time>2017-10-08T13:53:13Z</time>
      </trkpt>
      <trkpt lat="37.9239490628" lon="-2.9200974852">
        <ele>1100.85</ele>
        <time>2017-10-08T13:53:23Z</time>
      </trkpt>
      <trkpt lat="37.9238853604" lon="-2.9201276600">
        <ele>1101.33</ele>
        <time>2017-10-08T13:53:28Z</time>
      </trkpt>
      <trkpt lat="37.9238403495" lon="-2.9201049451">
        <ele>1101.81</ele>
        <time>2017-10-08T13:53:31Z</time>
      </trkpt>
      <trkpt lat="37.9237240087" lon="-2.9201410711">
        <ele>1103.25</ele>
        <time>2017-10-08T13:53:40Z</time>
      </trkpt>
      <trkpt lat="37.9236789979" lon="-2.9201475251">
        <ele>1103.73</ele>
        <time>2017-10-08T13:53:44Z</time>
      </trkpt>
      <trkpt lat="37.9236039799" lon="-2.9201424122">
        <ele>1104.69</ele>
        <time>2017-10-08T13:53:51Z</time>
      </trkpt>
      <trkpt lat="37.9234499205" lon="-2.9201835673">
        <ele>1105.65</ele>
        <time>2017-10-08T13:54:00Z</time>
      </trkpt>
      <trkpt lat="37.9234164767" lon="-2.9201944638">
        <ele>1106.13</ele>
        <time>2017-10-08T13:54:02Z</time>
      </trkpt>
      <trkpt lat="37.9233490862" lon="-2.9202369601">
        <ele>1106.61</ele>
        <time>2017-10-08T13:54:06Z</time>
      </trkpt>
      <trkpt lat="37.9232720565" lon="-2.9202652909">
        <ele>1107.10</ele>
        <time>2017-10-08T13:54:11Z</time>
      </trkpt>
      <trkpt lat="37.9231941048" lon="-2.9202692304">
        <ele>1108.06</ele>
        <time>2017-10-08T13:54:16Z</time>
      </trkpt>
      <trkpt lat="37.9231144767" lon="-2.9203149118">
        <ele>1109.02</ele>
        <time>2017-10-08T13:54:22Z</time>
      </trkpt>
      <trkpt lat="37.9229734931" lon="-2.9203636106">
        <ele>1110.46</ele>
        <time>2017-10-08T13:54:32Z</time>
      </trkpt>
      <trkpt lat="37.9228940327" lon="-2.9203741718">
        <ele>1110.94</ele>
        <time>2017-10-08T13:54:37Z</time>
      </trkpt>
      <trkpt lat="37.9226854909" lon="-2.9203869961">
        <ele>1112.38</ele>
        <time>2017-10-08T13:54:50Z</time>
      </trkpt>
      <trkpt lat="37.9225808848" lon="-2.9203879181">
        <ele>1116.71</ele>
        <time>2017-10-08T13:54:57Z</time>
      </trkpt>
      <trkpt lat="37.9225666355" lon="-2.9203875829">
        <ele>1112.38</ele>
        <time>2017-10-08T13:54:58Z</time>
      </trkpt>
      <trkpt lat="37.9225524701" lon="-2.9203874152">
        <ele>1115.75</ele>
        <time>2017-10-08T13:54:59Z</time>
      </trkpt>
      <trkpt lat="37.9225372151" lon="-2.9203852359">
        <ele>1112.38</ele>
        <time>2017-10-08T13:55:00Z</time>
      </trkpt>
      <trkpt lat="37.9225217924" lon="-2.9203806259">
        <ele>1115.27</ele>
        <time>2017-10-08T13:55:01Z</time>
      </trkpt>
      <trkpt lat="37.9224922042" lon="-2.9203804582">
        <ele>1110.46</ele>
        <time>2017-10-08T13:55:03Z</time>
      </trkpt>
      <trkpt lat="37.9224782903" lon="-2.9203781951">
        <ele>1114.79</ele>
        <time>2017-10-08T13:55:04Z</time>
      </trkpt>
      <trkpt lat="37.9224668909" lon="-2.9203765187">
        <ele>1114.31</ele>
        <time>2017-10-08T13:55:05Z</time>
      </trkpt>
      <trkpt lat="37.9224414099" lon="-2.9203834757">
        <ele>1115.75</ele>
        <time>2017-10-08T13:55:07Z</time>
      </trkpt>
      <trkpt lat="37.9224111512" lon="-2.9203861579">
        <ele>1111.90</ele>
        <time>2017-10-08T13:55:09Z</time>
      </trkpt>
      <trkpt lat="37.9223960638" lon="-2.9203830566">
        <ele>1115.75</ele>
        <time>2017-10-08T13:55:10Z</time>
      </trkpt>
      <trkpt lat="37.9223432578" lon="-2.9203765187">
        <ele>1116.23</ele>
        <time>2017-10-08T13:55:14Z</time>
      </trkpt>
      <trkpt lat="37.9222898651" lon="-2.9203615990">
        <ele>1115.75</ele>
        <time>2017-10-08T13:55:18Z</time>
      </trkpt>
      <trkpt lat="37.9222045373" lon="-2.9203294124">
        <ele>1117.19</ele>
        <time>2017-10-08T13:55:24Z</time>
      </trkpt>
      <trkpt lat="37.9221422598" lon="-2.9202873353">
        <ele>1117.67</ele>
        <time>2017-10-08T13:55:30Z</time>
      </trkpt>
      <trkpt lat="37.9219439439" lon="-2.9202141613">
        <ele>1119.59</ele>
        <time>2017-10-08T13:55:43Z</time>
      </trkpt>
      <trkpt lat="37.9218173772" lon="-2.9201916140">
        <ele>1120.55</ele>
        <time>2017-10-08T13:55:50Z</time>
      </trkpt>
      <trkpt lat="37.9216489010" lon="-2.9201825615">
        <ele>1122.00</ele>
        <time>2017-10-08T13:56:00Z</time>
      </trkpt>
      <trkpt lat="37.9215020500" lon="-2.9203431588">
        <ele>1123.92</ele>
        <time>2017-10-08T13:56:13Z</time>
      </trkpt>
      <trkpt lat="37.9214744736" lon="-2.9204408918">
        <ele>1124.88</ele>
        <time>2017-10-08T13:56:19Z</time>
      </trkpt>
      <trkpt lat="37.9214071669" lon="-2.9206141457">
        <ele>1126.32</ele>
        <time>2017-10-08T13:56:30Z</time>
      </trkpt>
      <trkpt lat="37.9213381000" lon="-2.9207428917">
        <ele>1127.28</ele>
        <time>2017-10-08T13:56:39Z</time>
      </trkpt>
      <trkpt lat="37.9211643431" lon="-2.9209129605">
        <ele>1128.24</ele>
        <time>2017-10-08T13:56:53Z</time>
      </trkpt>
      <trkpt lat="37.9210470803" lon="-2.9210039880">
        <ele>1129.21</ele>
        <time>2017-10-08T13:57:02Z</time>
      </trkpt>
      <trkpt lat="37.9209573101" lon="-2.9210571293">
        <ele>1129.69</ele>
        <time>2017-10-08T13:57:10Z</time>
      </trkpt>
      <trkpt lat="37.9209348466" lon="-2.9210495017">
        <ele>1130.17</ele>
        <time>2017-10-08T13:57:12Z</time>
      </trkpt>
      <trkpt lat="37.9208377842" lon="-2.9211304709">
        <ele>1131.13</ele>
        <time>2017-10-08T13:57:22Z</time>
      </trkpt>
      <trkpt lat="37.9208195116" lon="-2.9211389367">
        <ele>1131.61</ele>
        <time>2017-10-08T13:57:24Z</time>
      </trkpt>
      <trkpt lat="37.9207633529" lon="-2.9212100990">
        <ele>1132.09</ele>
        <time>2017-10-08T13:57:30Z</time>
      </trkpt>
      <trkpt lat="37.9206551425" lon="-2.9212627374">
        <ele>1133.05</ele>
        <time>2017-10-08T13:57:39Z</time>
      </trkpt>
      <trkpt lat="37.9205525480" lon="-2.9212803394">
        <ele>1134.01</ele>
        <time>2017-10-08T13:57:48Z</time>
      </trkpt>
      <trkpt lat="37.9204348661" lon="-2.9212665930">
        <ele>1134.97</ele>
        <time>2017-10-08T13:57:56Z</time>
      </trkpt>
      <trkpt lat="37.9203630332" lon="-2.9212231748">
        <ele>1135.94</ele>
        <time>2017-10-08T13:58:03Z</time>
      </trkpt>
      <trkpt lat="37.9203120712" lon="-2.9212256894">
        <ele>1136.42</ele>
        <time>2017-10-08T13:58:07Z</time>
      </trkpt>
      <trkpt lat="37.9202292580" lon="-2.9211408645">
        <ele>1137.38</ele>
        <time>2017-10-08T13:58:16Z</time>
      </trkpt>
      <trkpt lat="37.9201573413" lon="-2.9210923333">
        <ele>1138.34</ele>
        <time>2017-10-08T13:58:23Z</time>
      </trkpt>
      <trkpt lat="37.9200942256" lon="-2.9210025631">
        <ele>1138.82</ele>
        <time>2017-10-08T13:58:30Z</time>
      </trkpt>
      <trkpt lat="37.9200885259" lon="-2.9209711310">
        <ele>1139.30</ele>
        <time>2017-10-08T13:58:32Z</time>
      </trkpt>
      <trkpt lat="37.9200510588" lon="-2.9209097754">
        <ele>1139.78</ele>
        <time>2017-10-08T13:58:37Z</time>
      </trkpt>
      <trkpt lat="37.9199763760" lon="-2.9208391998">
        <ele>1140.74</ele>
        <time>2017-10-08T13:58:44Z</time>
      </trkpt>
      <trkpt lat="37.9199587740" lon="-2.9207663611">
        <ele>1142.18</ele>
        <time>2017-10-08T13:58:49Z</time>
      </trkpt>
      <trkpt lat="37.9198489711" lon="-2.9206760041">
        <ele>1142.66</ele>
        <time>2017-10-08T13:58:58Z</time>
      </trkpt>
      <trkpt lat="37.9197835084" lon="-2.9205820430">
        <ele>1143.63</ele>
        <time>2017-10-08T13:59:05Z</time>
      </trkpt>
      <trkpt lat="37.9197404254" lon="-2.9205522034">
        <ele>1144.11</ele>
        <time>2017-10-08T13:59:09Z</time>
      </trkpt>
      <trkpt lat="37.9196939897" lon="-2.9205641896">
        <ele>1144.59</ele>
        <time>2017-10-08T13:59:13Z</time>
      </trkpt>
      <trkpt lat="37.9196093325" lon="-2.9204962123">
        <ele>1144.59</ele>
        <time>2017-10-08T13:59:21Z</time>
      </trkpt>
      <trkpt lat="37.9194553569" lon="-2.9205244593">
        <ele>1145.07</ele>
        <time>2017-10-08T13:59:32Z</time>
      </trkpt>
      <trkpt lat="37.9194418620" lon="-2.9205331765">
        <ele>1145.07</ele>
        <time>2017-10-08T13:59:33Z</time>
      </trkpt>
      <trkpt lat="37.9192618188" lon="-2.9206816200">
        <ele>1145.07</ele>
        <time>2017-10-08T13:59:46Z</time>
      </trkpt>
      <trkpt lat="37.9191068374" lon="-2.9210164770">
        <ele>1145.55</ele>
        <time>2017-10-08T13:59:58Z</time>
      </trkpt>
      <trkpt lat="37.9189451504" lon="-2.9213067424">
        <ele>1146.51</ele>
        <time>2017-10-08T14:00:09Z</time>
      </trkpt>
      <trkpt lat="37.9188316595" lon="-2.9215282761">
        <ele>1147.47</ele>
        <time>2017-10-08T14:00:19Z</time>
      </trkpt>
      <trkpt lat="37.9187329207" lon="-2.9217058048">
        <ele>1148.91</ele>
        <time>2017-10-08T14:00:29Z</time>
      </trkpt>
      <trkpt lat="37.9186790250" lon="-2.9218317848">
        <ele>1149.87</ele>
        <time>2017-10-08T14:00:36Z</time>
      </trkpt>
      <trkpt lat="37.9186049290" lon="-2.9219981655">
        <ele>1151.80</ele>
        <time>2017-10-08T14:00:45Z</time>
      </trkpt>
      <trkpt lat="37.9184991494" lon="-2.9221630376">
        <ele>1153.24</ele>
        <time>2017-10-08T14:00:55Z</time>
      </trkpt>
      <trkpt lat="37.9183723312" lon="-2.9222853296">
        <ele>1154.68</ele>
        <time>2017-10-08T14:01:04Z</time>
      </trkpt>
      <trkpt lat="37.9183618538" lon="-2.9222984891">
        <ele>1154.68</ele>
        <time>2017-10-08T14:01:05Z</time>
      </trkpt>
      <trkpt lat="37.9182586726" lon="-2.9223832302">
        <ele>1156.12</ele>
        <time>2017-10-08T14:01:12Z</time>
      </trkpt>
      <trkpt lat="37.9181588441" lon="-2.9224445857">
        <ele>1156.60</ele>
        <time>2017-10-08T14:01:19Z</time>
      </trkpt>
      <trkpt lat="37.9180354625" lon="-2.9225041810">
        <ele>1157.56</ele>
        <time>2017-10-08T14:01:28Z</time>
      </trkpt>
      <trkpt lat="37.9178491328" lon="-2.9225812107">
        <ele>1158.53</ele>
        <time>2017-10-08T14:01:40Z</time>
      </trkpt>
      <trkpt lat="37.9177332949" lon="-2.9226479307">
        <ele>1158.53</ele>
        <time>2017-10-08T14:01:47Z</time>
      </trkpt>
      <trkpt lat="37.9175866116" lon="-2.9227197636">
        <ele>1159.49</ele>
        <time>2017-10-08T14:01:56Z</time>
      </trkpt>
      <trkpt lat="37.9175064806" lon="-2.9227583203">
        <ele>1159.97</ele>
        <time>2017-10-08T14:02:01Z</time>
      </trkpt>
      <trkpt lat="37.9173978511" lon="-2.9227905069">
        <ele>1160.45</ele>
        <time>2017-10-08T14:02:08Z</time>
      </trkpt>
      <trkpt lat="37.9172937479" lon="-2.9227958713">
        <ele>1160.93</ele>
        <time>2017-10-08T14:02:14Z</time>
      </trkpt>
      <trkpt lat="37.9172365833" lon="-2.9227677919">
        <ele>1161.41</ele>
        <time>2017-10-08T14:02:18Z</time>
      </trkpt>
      <trkpt lat="37.9171152133" lon="-2.9226283170">
        <ele>1162.85</ele>
        <time>2017-10-08T14:02:30Z</time>
      </trkpt>
      <trkpt lat="37.9171158001" lon="-2.9225104675">
        <ele>1163.81</ele>
        <time>2017-10-08T14:02:38Z</time>
      </trkpt>
      <trkpt lat="37.9172064085" lon="-2.9223264847">
        <ele>1165.26</ele>
        <time>2017-10-08T14:02:50Z</time>
      </trkpt>
      <trkpt lat="37.9172853660" lon="-2.9222015105">
        <ele>1165.74</ele>
        <time>2017-10-08T14:02:59Z</time>
      </trkpt>
      <trkpt lat="37.9173198994" lon="-2.9221328627">
        <ele>1166.70</ele>
        <time>2017-10-08T14:03:04Z</time>
      </trkpt>
      <trkpt lat="37.9173516668" lon="-2.9219592735">
        <ele>1167.66</ele>
        <time>2017-10-08T14:03:13Z</time>
      </trkpt>
      <trkpt lat="37.9173525888" lon="-2.9219380673">
        <ele>1167.66</ele>
        <time>2017-10-08T14:03:14Z</time>
      </trkpt>
      <trkpt lat="37.9173696879" lon="-2.9218625464">
        <ele>1168.62</ele>
        <time>2017-10-08T14:03:18Z</time>
      </trkpt>
      <trkpt lat="37.9173881281" lon="-2.9217488039">
        <ele>1169.58</ele>
        <time>2017-10-08T14:03:24Z</time>
      </trkpt>
      <trkpt lat="37.9174936563" lon="-2.9215817526">
        <ele>1171.50</ele>
        <time>2017-10-08T14:03:35Z</time>
      </trkpt>
      <trkpt lat="37.9175227415" lon="-2.9215714429">
        <ele>1171.98</ele>
        <time>2017-10-08T14:03:37Z</time>
      </trkpt>
      <trkpt lat="37.9175498150" lon="-2.9215261806">
        <ele>1172.47</ele>
        <time>2017-10-08T14:03:40Z</time>
      </trkpt>
      <trkpt lat="37.9176267609" lon="-2.9214051459">
        <ele>1173.91</ele>
        <time>2017-10-08T14:03:48Z</time>
      </trkpt>
      <trkpt lat="37.9176713526" lon="-2.9212844465">
        <ele>1174.87</ele>
        <time>2017-10-08T14:03:55Z</time>
      </trkpt>
      <trkpt lat="37.9176920559" lon="-2.9212561995">
        <ele>1174.87</ele>
        <time>2017-10-08T14:03:57Z</time>
      </trkpt>
      <trkpt lat="37.9176677484" lon="-2.9211805947">
        <ele>1175.83</ele>
        <time>2017-10-08T14:04:01Z</time>
      </trkpt>
      <trkpt lat="37.9176814109" lon="-2.9209073447">
        <ele>1177.75</ele>
        <time>2017-10-08T14:04:15Z</time>
      </trkpt>
      <trkpt lat="37.9176243301" lon="-2.9207190871">
        <ele>1178.23</ele>
        <time>2017-10-08T14:04:25Z</time>
      </trkpt>
      <trkpt lat="37.9175939877" lon="-2.9206732381">
        <ele>1178.71</ele>
        <time>2017-10-08T14:04:28Z</time>
      </trkpt>
      <trkpt lat="37.9175297823" lon="-2.9206514452">
        <ele>1179.19</ele>
        <time>2017-10-08T14:04:33Z</time>
      </trkpt>
      <trkpt lat="37.9174591228" lon="-2.9205778521">
        <ele>1179.67</ele>
        <time>2017-10-08T14:04:41Z</time>
      </trkpt>
      <trkpt lat="37.9174007848" lon="-2.9205466714">
        <ele>1180.16</ele>
        <time>2017-10-08T14:04:45Z</time>
      </trkpt>
      <trkpt lat="37.9172582924" lon="-2.9205037560">
        <ele>1180.64</ele>
        <time>2017-10-08T14:04:54Z</time>
      </trkpt>
      <trkpt lat="37.9170716275" lon="-2.9204592481">
        <ele>1184.00</ele>
        <time>2017-10-08T14:05:05Z</time>
      </trkpt>
      <trkpt lat="37.9170541093" lon="-2.9204554763">
        <ele>1181.60</ele>
        <time>2017-10-08T14:05:06Z</time>
      </trkpt>
      <trkpt lat="37.9168593138" lon="-2.9203402251">
        <ele>1183.04</ele>
        <time>2017-10-08T14:05:18Z</time>
      </trkpt>
      <trkpt lat="37.9167309869" lon="-2.9201134108">
        <ele>1184.00</ele>
        <time>2017-10-08T14:05:29Z</time>
      </trkpt>
      <trkpt lat="37.9167004768" lon="-2.9200233053">
        <ele>1184.48</ele>
        <time>2017-10-08T14:05:34Z</time>
      </trkpt>
      <trkpt lat="37.9166823719" lon="-2.9199564178">
        <ele>1184.96</ele>
        <time>2017-10-08T14:05:38Z</time>
      </trkpt>
      <trkpt lat="37.9166012350" lon="-2.9198352154">
        <ele>1185.92</ele>
        <time>2017-10-08T14:05:45Z</time>
      </trkpt>
      <trkpt lat="37.9165005684" lon="-2.9197305255">
        <ele>1186.88</ele>
        <time>2017-10-08T14:05:53Z</time>
      </trkpt>
      <trkpt lat="37.9162704013" lon="-2.9196511488">
        <ele>1187.85</ele>
        <time>2017-10-08T14:06:06Z</time>
      </trkpt>
      <trkpt lat="37.9161180183" lon="-2.9196180403">
        <ele>1188.81</ele>
        <time>2017-10-08T14:06:15Z</time>
      </trkpt>
      <trkpt lat="37.9158852529" lon="-2.9195270967">
        <ele>1189.77</ele>
        <time>2017-10-08T14:06:28Z</time>
      </trkpt>
      <trkpt lat="37.9157007672" lon="-2.9193613026">
        <ele>1191.21</ele>
        <time>2017-10-08T14:06:40Z</time>
      </trkpt>
      <trkpt lat="37.9155985080" lon="-2.9191466421">
        <ele>1192.65</ele>
        <time>2017-10-08T14:06:52Z</time>
      </trkpt>
      <trkpt lat="37.9155679140" lon="-2.9189723823">
        <ele>1193.61</ele>
        <time>2017-10-08T14:07:01Z</time>
      </trkpt>
      <trkpt lat="37.9155737814" lon="-2.9188302252">
        <ele>1194.58</ele>
        <time>2017-10-08T14:07:08Z</time>
      </trkpt>
      <trkpt lat="37.9155716859" lon="-2.9187643435">
        <ele>1195.06</ele>
        <time>2017-10-08T14:07:12Z</time>
      </trkpt>
      <trkpt lat="37.9155313689" lon="-2.9185906705">
        <ele>1196.50</ele>
        <time>2017-10-08T14:07:22Z</time>
      </trkpt>
      <trkpt lat="37.9155175388" lon="-2.9185594060">
        <ele>1196.50</ele>
        <time>2017-10-08T14:07:24Z</time>
      </trkpt>
      <trkpt lat="37.9154458735" lon="-2.9184900876">
        <ele>1197.46</ele>
        <time>2017-10-08T14:07:30Z</time>
      </trkpt>
      <trkpt lat="37.9153939895" lon="-2.9184428975">
        <ele>1197.94</ele>
        <time>2017-10-08T14:07:35Z</time>
      </trkpt>
      <trkpt lat="37.9153223243" lon="-2.9183350224">
        <ele>1198.90</ele>
        <time>2017-10-08T14:07:43Z</time>
      </trkpt>
      <trkpt lat="37.9152336437" lon="-2.9182420671">
        <ele>1200.34</ele>
        <time>2017-10-08T14:07:51Z</time>
      </trkpt>
      <trkpt lat="37.9152172990" lon="-2.9182124790">
        <ele>1200.34</ele>
        <time>2017-10-08T14:07:53Z</time>
      </trkpt>
      <trkpt lat="37.9151722044" lon="-2.9181724135">
        <ele>1200.82</ele>
        <time>2017-10-08T14:07:57Z</time>
      </trkpt>
      <trkpt lat="37.9150619823" lon="-2.9179813061">
        <ele>1202.27</ele>
        <time>2017-10-08T14:08:09Z</time>
      </trkpt>
      <trkpt lat="37.9150541034" lon="-2.9179672245">
        <ele>1202.27</ele>
        <time>2017-10-08T14:08:10Z</time>
      </trkpt>
      <trkpt lat="37.9150503315" lon="-2.9179182742">
        <ele>1202.75</ele>
        <time>2017-10-08T14:08:13Z</time>
      </trkpt>
      <trkpt lat="37.9150275327" lon="-2.9178202897">
        <ele>1203.71</ele>
        <time>2017-10-08T14:08:19Z</time>
      </trkpt>
      <trkpt lat="37.9150357470" lon="-2.9176629614">
        <ele>1205.15</ele>
        <time>2017-10-08T14:08:29Z</time>
      </trkpt>
      <trkpt lat="37.9150728788" lon="-2.9175416753">
        <ele>1206.59</ele>
        <time>2017-10-08T14:08:36Z</time>
      </trkpt>
      <trkpt lat="37.9150878824" lon="-2.9174559284">
        <ele>1207.55</ele>
        <time>2017-10-08T14:08:41Z</time>
      </trkpt>
      <trkpt lat="37.9151054006" lon="-2.9173559323">
        <ele>1208.03</ele>
        <time>2017-10-08T14:08:47Z</time>
      </trkpt>
      <trkpt lat="37.9151016288" lon="-2.9172996897">
        <ele>1209.48</ele>
        <time>2017-10-08T14:08:50Z</time>
      </trkpt>
      <trkpt lat="37.9151043110" lon="-2.9172492307">
        <ele>1209.48</ele>
        <time>2017-10-08T14:08:53Z</time>
      </trkpt>
      <trkpt lat="37.9150981922" lon="-2.9171784036">
        <ele>1209.96</ele>
        <time>2017-10-08T14:08:57Z</time>
      </trkpt>
      <trkpt lat="37.9150475655" lon="-2.9170658346">
        <ele>1210.92</ele>
        <time>2017-10-08T14:09:04Z</time>
      </trkpt>
      <trkpt lat="37.9149969388" lon="-2.9169945046">
        <ele>1211.88</ele>
        <time>2017-10-08T14:09:09Z</time>
      </trkpt>
      <trkpt lat="37.9149186518" lon="-2.9168828577">
        <ele>1212.84</ele>
        <time>2017-10-08T14:09:17Z</time>
      </trkpt>
      <trkpt lat="37.9148804303" lon="-2.9168095160">
        <ele>1213.32</ele>
        <time>2017-10-08T14:09:21Z</time>
      </trkpt>
      <trkpt lat="37.9148793407" lon="-2.9167728033">
        <ele>1213.32</ele>
        <time>2017-10-08T14:09:23Z</time>
      </trkpt>
      <trkpt lat="37.9148463998" lon="-2.9167609010">
        <ele>1213.80</ele>
        <time>2017-10-08T14:09:26Z</time>
      </trkpt>
      <trkpt lat="37.9147993773" lon="-2.9166788422">
        <ele>1214.28</ele>
        <time>2017-10-08T14:09:33Z</time>
      </trkpt>
      <trkpt lat="37.9147792608" lon="-2.9165898263">
        <ele>1214.76</ele>
        <time>2017-10-08T14:09:39Z</time>
      </trkpt>
      <trkpt lat="37.9147365969" lon="-2.9165021516">
        <ele>1215.72</ele>
        <time>2017-10-08T14:09:46Z</time>
      </trkpt>
      <trkpt lat="37.9147180729" lon="-2.9164832085">
        <ele>1216.21</ele>
        <time>2017-10-08T14:09:48Z</time>
      </trkpt>
      <trkpt lat="37.9146820307" lon="-2.9164111242">
        <ele>1214.76</ele>
        <time>2017-10-08T14:09:53Z</time>
      </trkpt>
      <trkpt lat="37.9146734811" lon="-2.9163802788">
        <ele>1219.57</ele>
        <time>2017-10-08T14:09:55Z</time>
      </trkpt>
      <trkpt lat="37.9146159813" lon="-2.9161641933">
        <ele>1216.69</ele>
        <time>2017-10-08T14:10:08Z</time>
      </trkpt>
      <trkpt lat="37.9145897459" lon="-2.9160827212">
        <ele>1218.61</ele>
        <time>2017-10-08T14:10:13Z</time>
      </trkpt>
      <trkpt lat="37.9145955294" lon="-2.9160547256">
        <ele>1218.61</ele>
        <time>2017-10-08T14:10:15Z</time>
      </trkpt>
      <trkpt lat="37.9145273846" lon="-2.9159406479">
        <ele>1219.57</ele>
        <time>2017-10-08T14:10:22Z</time>
      </trkpt>
      <trkpt lat="37.9145133868" lon="-2.9158797953">
        <ele>1219.57</ele>
        <time>2017-10-08T14:10:25Z</time>
      </trkpt>
      <trkpt lat="37.9144106247" lon="-2.9157772847">
        <ele>1220.53</ele>
        <time>2017-10-08T14:10:34Z</time>
      </trkpt>
      <trkpt lat="37.9143109638" lon="-2.9157134984">
        <ele>1221.49</ele>
        <time>2017-10-08T14:10:42Z</time>
      </trkpt>
      <trkpt lat="37.9142937809" lon="-2.9156807251">
        <ele>1221.97</ele>
        <time>2017-10-08T14:10:44Z</time>
      </trkpt>
      <trkpt lat="37.9142101295" lon="-2.9155960679">
        <ele>1222.93</ele>
        <time>2017-10-08T14:10:51Z</time>
      </trkpt>
      <trkpt lat="37.9141297471" lon="-2.9155171104">
        <ele>1223.42</ele>
        <time>2017-10-08T14:10:57Z</time>
      </trkpt>
      <trkpt lat="37.9140082933" lon="-2.9153835028">
        <ele>1223.42</ele>
        <time>2017-10-08T14:11:06Z</time>
      </trkpt>
      <trkpt lat="37.9139217082" lon="-2.9152578581">
        <ele>1224.38</ele>
        <time>2017-10-08T14:11:13Z</time>
      </trkpt>
      <trkpt lat="37.9138478637" lon="-2.9151296988">
        <ele>1225.34</ele>
        <time>2017-10-08T14:11:21Z</time>
      </trkpt>
      <trkpt lat="37.9137299303" lon="-2.9150578659">
        <ele>1225.82</ele>
        <time>2017-10-08T14:11:29Z</time>
      </trkpt>
      <trkpt lat="37.9136903677" lon="-2.9150514957">
        <ele>1225.82</ele>
        <time>2017-10-08T14:11:37Z</time>
      </trkpt>
      <trkpt lat="37.9136844166" lon="-2.9150533397">
        <ele>1225.82</ele>
        <time>2017-10-08T14:11:53Z</time>
      </trkpt>
      <trkpt lat="37.9136526491" lon="-2.9150502384">
        <ele>1226.78</ele>
        <time>2017-10-08T14:12:07Z</time>
      </trkpt>
      <trkpt lat="37.9135581013" lon="-2.9149696045">
        <ele>1226.78</ele>
        <time>2017-10-08T14:12:14Z</time>
      </trkpt>
      <trkpt lat="37.9133575223" lon="-2.9149080813">
        <ele>1228.70</ele>
        <time>2017-10-08T14:12:25Z</time>
      </trkpt>
      <trkpt lat="37.9130970128" lon="-2.9148856178">
        <ele>1229.66</ele>
        <time>2017-10-08T14:12:36Z</time>
      </trkpt>
      <trkpt lat="37.9128071666" lon="-2.9148844443">
        <ele>1231.59</ele>
        <time>2017-10-08T14:12:47Z</time>
      </trkpt>
      <trkpt lat="37.9125375208" lon="-2.9148560297">
        <ele>1232.55</ele>
        <time>2017-10-08T14:12:58Z</time>
      </trkpt>
      <trkpt lat="37.9123340081" lon="-2.9148049839">
        <ele>1233.51</ele>
        <time>2017-10-08T14:13:09Z</time>
      </trkpt>
      <trkpt lat="37.9123236984" lon="-2.9148007091">
        <ele>1233.99</ele>
        <time>2017-10-08T14:13:19Z</time>
      </trkpt>
      <trkpt lat="37.9123121314" lon="-2.9147920758">
        <ele>1233.99</ele>
        <time>2017-10-08T14:13:38Z</time>
      </trkpt>
      <trkpt lat="37.9123058449" lon="-2.9147931654">
        <ele>1233.99</ele>
        <time>2017-10-08T14:13:47Z</time>
      </trkpt>
      <trkpt lat="37.9121517017" lon="-2.9146910738">
        <ele>1234.47</ele>
        <time>2017-10-08T14:13:56Z</time>
      </trkpt>
      <trkpt lat="37.9119708203" lon="-2.9145189933">
        <ele>1234.95</ele>
        <time>2017-10-08T14:14:08Z</time>
      </trkpt>
      <trkpt lat="37.9119171761" lon="-2.9144378565">
        <ele>1234.95</ele>
        <time>2017-10-08T14:14:13Z</time>
      </trkpt>
      <trkpt lat="37.9117393959" lon="-2.9143351782">
        <ele>1234.95</ele>
        <time>2017-10-08T14:14:23Z</time>
      </trkpt>
      <trkpt lat="37.9115637951" lon="-2.9143012315">
        <ele>1235.91</ele>
        <time>2017-10-08T14:14:32Z</time>
      </trkpt>
      <trkpt lat="37.9113420099" lon="-2.9141165782">
        <ele>1237.83</ele>
        <time>2017-10-08T14:14:45Z</time>
      </trkpt>
      <trkpt lat="37.9111918062" lon="-2.9138741735">
        <ele>1238.80</ele>
        <time>2017-10-08T14:14:57Z</time>
      </trkpt>
      <trkpt lat="37.9110094998" lon="-2.9137775302">
        <ele>1240.24</ele>
        <time>2017-10-08T14:15:07Z</time>
      </trkpt>
      <trkpt lat="37.9108580388" lon="-2.9138016701">
        <ele>1240.72</ele>
        <time>2017-10-08T14:15:15Z</time>
      </trkpt>
      <trkpt lat="37.9108233377" lon="-2.9138230439">
        <ele>1241.20</ele>
        <time>2017-10-08T14:15:17Z</time>
      </trkpt>
      <trkpt lat="37.9107568692" lon="-2.9140626825">
        <ele>1241.68</ele>
        <time>2017-10-08T14:15:27Z</time>
      </trkpt>
      <trkpt lat="37.9107582103" lon="-2.9142425582">
        <ele>1242.16</ele>
        <time>2017-10-08T14:15:33Z</time>
      </trkpt>
      <trkpt lat="37.9107686877" lon="-2.9144392814">
        <ele>1242.16</ele>
        <time>2017-10-08T14:15:40Z</time>
      </trkpt>
      <trkpt lat="37.9107918218" lon="-2.9146795068">
        <ele>1242.64</ele>
        <time>2017-10-08T14:15:48Z</time>
      </trkpt>
      <trkpt lat="37.9108929913" lon="-2.9149799980">
        <ele>1243.60</ele>
        <time>2017-10-08T14:16:00Z</time>
      </trkpt>
      <trkpt lat="37.9109357391" lon="-2.9151208978">
        <ele>1244.56</ele>
        <time>2017-10-08T14:16:06Z</time>
      </trkpt>
      <trkpt lat="37.9110328853" lon="-2.9153145198">
        <ele>1245.53</ele>
        <time>2017-10-08T14:16:15Z</time>
      </trkpt>
      <trkpt lat="37.9111283552" lon="-2.9155476205">
        <ele>1246.97</ele>
        <time>2017-10-08T14:16:26Z</time>
      </trkpt>
      <trkpt lat="37.9111633077" lon="-2.9156046174">
        <ele>1246.97</ele>
        <time>2017-10-08T14:16:29Z</time>
      </trkpt>
      <trkpt lat="37.9111771379" lon="-2.9158146679">
        <ele>1247.93</ele>
        <time>2017-10-08T14:16:37Z</time>
      </trkpt>
      <trkpt lat="37.9111296125" lon="-2.9158668872">
        <ele>1248.41</ele>
        <time>2017-10-08T14:16:40Z</time>
      </trkpt>
      <trkpt lat="37.9110009503" lon="-2.9159570765">
        <ele>1249.85</ele>
        <time>2017-10-08T14:16:48Z</time>
      </trkpt>
      <trkpt lat="37.9109848570" lon="-2.9159533884">
        <ele>1249.85</ele>
        <time>2017-10-08T14:16:49Z</time>
      </trkpt>
      <trkpt lat="37.9108685162" lon="-2.9159581661">
        <ele>1250.33</ele>
        <time>2017-10-08T14:16:55Z</time>
      </trkpt>
      <trkpt lat="37.9107757285" lon="-2.9159789532">
        <ele>1251.29</ele>
        <time>2017-10-08T14:17:00Z</time>
      </trkpt>
      <trkpt lat="37.9107067455" lon="-2.9160280712">
        <ele>1251.29</ele>
        <time>2017-10-08T14:17:05Z</time>
      </trkpt>
      <trkpt lat="37.9106669314" lon="-2.9160721600">
        <ele>1251.77</ele>
        <time>2017-10-08T14:17:08Z</time>
      </trkpt>
      <trkpt lat="37.9106023908" lon="-2.9161869921">
        <ele>1252.25</ele>
        <time>2017-10-08T14:17:16Z</time>
      </trkpt>
      <trkpt lat="37.9105615709" lon="-2.9163495172">
        <ele>1253.22</ele>
        <time>2017-10-08T14:17:24Z</time>
      </trkpt>
      <trkpt lat="37.9103289731" lon="-2.9166547023">
        <ele>1253.70</ele>
        <time>2017-10-08T14:17:36Z</time>
      </trkpt>
      <trkpt lat="37.9101140611" lon="-2.9167784192">
        <ele>1254.66</ele>
        <time>2017-10-08T14:17:46Z</time>
      </trkpt>
      <trkpt lat="37.9098118935" lon="-2.9168466479">
        <ele>1255.14</ele>
        <time>2017-10-08T14:17:57Z</time>
      </trkpt>
      <trkpt lat="37.9096165951" lon="-2.9171095882">
        <ele>1255.14</ele>
        <time>2017-10-08T14:18:06Z</time>
      </trkpt>
      <trkpt lat="37.9094555788" lon="-2.9175357241">
        <ele>1255.62</ele>
        <time>2017-10-08T14:18:17Z</time>
      </trkpt>
      <trkpt lat="37.9092879407" lon="-2.9177588504">
        <ele>1257.06</ele>
        <time>2017-10-08T14:18:25Z</time>
      </trkpt>
      <trkpt lat="37.9090042971" lon="-2.9178670608">
        <ele>1258.02</ele>
        <time>2017-10-08T14:18:36Z</time>
      </trkpt>
      <trkpt lat="37.9089641478" lon="-2.9178825673">
        <ele>1258.50</ele>
        <time>2017-10-08T14:18:38Z</time>
      </trkpt>
      <trkpt lat="37.9088108428" lon="-2.9179562442">
        <ele>1258.98</ele>
        <time>2017-10-08T14:18:46Z</time>
      </trkpt>
      <trkpt lat="37.9084921628" lon="-2.9179920349">
        <ele>1260.91</ele>
        <time>2017-10-08T14:19:01Z</time>
      </trkpt>
      <trkpt lat="37.9083049949" lon="-2.9179100599">
        <ele>1261.87</ele>
        <time>2017-10-08T14:19:12Z</time>
      </trkpt>
      <trkpt lat="37.9082211759" lon="-2.9178668931">
        <ele>1262.83</ele>
        <time>2017-10-08T14:19:21Z</time>
      </trkpt>
      <trkpt lat="37.9082390293" lon="-2.9178652167">
        <ele>1261.87</ele>
        <time>2017-10-08T14:19:41Z</time>
      </trkpt>
      <trkpt lat="37.9082352575" lon="-2.9178510513">
        <ele>1262.83</ele>
        <time>2017-10-08T14:20:02Z</time>
      </trkpt>
      <trkpt lat="37.9082215112" lon="-2.9178461898">
        <ele>1263.31</ele>
        <time>2017-10-08T14:20:20Z</time>
      </trkpt>
      <trkpt lat="37.9082169011" lon="-2.9178368021">
        <ele>1263.79</ele>
        <time>2017-10-08T14:20:23Z</time>
      </trkpt>
      <trkpt lat="37.9080383666" lon="-2.9177673161">
        <ele>1264.75</ele>
        <time>2017-10-08T14:20:33Z</time>
      </trkpt>
      <trkpt lat="37.9079244565" lon="-2.9177117441">
        <ele>1265.23</ele>
        <time>2017-10-08T14:20:41Z</time>
      </trkpt>
      <trkpt lat="37.9078594968" lon="-2.9176768754">
        <ele>1265.71</ele>
        <time>2017-10-08T14:20:45Z</time>
      </trkpt>
      <trkpt lat="37.9076867457" lon="-2.9176219739">
        <ele>1266.67</ele>
        <time>2017-10-08T14:20:55Z</time>
      </trkpt>
      <trkpt lat="37.9075359553" lon="-2.9176228959">
        <ele>1267.64</ele>
        <time>2017-10-08T14:21:04Z</time>
      </trkpt>
      <trkpt lat="37.9075194430" lon="-2.9176176991">
        <ele>1267.64</ele>
        <time>2017-10-08T14:21:05Z</time>
      </trkpt>
      <trkpt lat="37.9073387291" lon="-2.9176428448">
        <ele>1269.56</ele>
        <time>2017-10-08T14:21:15Z</time>
      </trkpt>
      <trkpt lat="37.9072318599" lon="-2.9176319484">
        <ele>1270.52</ele>
        <time>2017-10-08T14:21:21Z</time>
      </trkpt>
      <trkpt lat="37.9071663972" lon="-2.9176158551">
        <ele>1271.00</ele>
        <time>2017-10-08T14:21:25Z</time>
      </trkpt>
      <trkpt lat="37.9070157744" lon="-2.9174933117">
        <ele>1272.44</ele>
        <time>2017-10-08T14:21:36Z</time>
      </trkpt>
      <trkpt lat="37.9070038721" lon="-2.9174801521">
        <ele>1272.44</ele>
        <time>2017-10-08T14:21:37Z</time>
      </trkpt>
      <trkpt lat="37.9069420975" lon="-2.9172983486">
        <ele>1273.40</ele>
        <time>2017-10-08T14:21:48Z</time>
      </trkpt>
      <trkpt lat="37.9068846814" lon="-2.9171749670">
        <ele>1274.36</ele>
        <time>2017-10-08T14:21:55Z</time>
      </trkpt>
      <trkpt lat="37.9067991860" lon="-2.9168916587">
        <ele>1275.81</ele>
        <time>2017-10-08T14:22:10Z</time>
      </trkpt>
      <trkpt lat="37.9067867808" lon="-2.9167137109">
        <ele>1276.77</ele>
        <time>2017-10-08T14:22:20Z</time>
      </trkpt>
      <trkpt lat="37.9067851044" lon="-2.9166502599">
        <ele>1277.73</ele>
        <time>2017-10-08T14:22:31Z</time>
      </trkpt>
      <trkpt lat="37.9067791533" lon="-2.9166553728">
        <ele>1277.25</ele>
        <time>2017-10-08T14:22:53Z</time>
      </trkpt>
      <trkpt lat="37.9067892116" lon="-2.9165890720">
        <ele>1277.25</ele>
        <time>2017-10-08T14:23:05Z</time>
      </trkpt>
      <trkpt lat="37.9068125132" lon="-2.9164454900">
        <ele>1277.73</ele>
        <time>2017-10-08T14:23:11Z</time>
      </trkpt>
      <trkpt lat="37.9068614636" lon="-2.9161952063">
        <ele>1278.69</ele>
        <time>2017-10-08T14:23:22Z</time>
      </trkpt>
      <trkpt lat="37.9069396667" lon="-2.9159559030">
        <ele>1279.65</ele>
        <time>2017-10-08T14:23:32Z</time>
      </trkpt>
      <trkpt lat="37.9071059637" lon="-2.9156990815">
        <ele>1280.61</ele>
        <time>2017-10-08T14:23:45Z</time>
      </trkpt>
      <trkpt lat="37.9072808102" lon="-2.9154498037">
        <ele>1282.06</ele>
        <time>2017-10-08T14:23:59Z</time>
      </trkpt>
      <trkpt lat="37.9074268229" lon="-2.9152891226">
        <ele>1283.02</ele>
        <time>2017-10-08T14:24:09Z</time>
      </trkpt>
      <trkpt lat="37.9074491188" lon="-2.9152642284">
        <ele>1283.50</ele>
        <time>2017-10-08T14:24:11Z</time>
      </trkpt>
      <trkpt lat="37.9075230472" lon="-2.9150328040">
        <ele>1283.98</ele>
        <time>2017-10-08T14:24:22Z</time>
      </trkpt>
      <trkpt lat="37.9074857477" lon="-2.9148194846">
        <ele>1284.94</ele>
        <time>2017-10-08T14:24:32Z</time>
      </trkpt>
      <trkpt lat="37.9074056167" lon="-2.9146418720">
        <ele>1286.38</ele>
        <time>2017-10-08T14:24:41Z</time>
      </trkpt>
      <trkpt lat="37.9073987436" lon="-2.9146221746">
        <ele>1286.38</ele>
        <time>2017-10-08T14:24:42Z</time>
      </trkpt>
      <trkpt lat="37.9073979892" lon="-2.9145077616">
        <ele>1286.86</ele>
        <time>2017-10-08T14:24:47Z</time>
      </trkpt>
      <trkpt lat="37.9074963927" lon="-2.9142395407">
        <ele>1287.82</ele>
        <time>2017-10-08T14:24:59Z</time>
      </trkpt>
      <trkpt lat="37.9075527191" lon="-2.9139919393">
        <ele>1288.78</ele>
        <time>2017-10-08T14:25:08Z</time>
      </trkpt>
      <trkpt lat="37.9074980691" lon="-2.9137323517">
        <ele>1290.23</ele>
        <time>2017-10-08T14:25:19Z</time>
      </trkpt>
      <trkpt lat="37.9074872565" lon="-2.9137134925">
        <ele>1290.23</ele>
        <time>2017-10-08T14:25:20Z</time>
      </trkpt>
      <trkpt lat="37.9073602706" lon="-2.9135933798">
        <ele>1290.71</ele>
        <time>2017-10-08T14:25:29Z</time>
      </trkpt>
      <trkpt lat="37.9071374796" lon="-2.9134602752">
        <ele>1292.15</ele>
        <time>2017-10-08T14:25:40Z</time>
      </trkpt>
      <trkpt lat="37.9069124255" lon="-2.9132301919">
        <ele>1293.59</ele>
        <time>2017-10-08T14:25:52Z</time>
      </trkpt>
      <trkpt lat="37.9068375751" lon="-2.9131653160">
        <ele>1294.07</ele>
        <time>2017-10-08T14:26:00Z</time>
      </trkpt>
      <trkpt lat="37.9068348929" lon="-2.9131367337">
        <ele>1294.07</ele>
        <time>2017-10-08T14:26:09Z</time>
      </trkpt>
      <trkpt lat="37.9068381619" lon="-2.9131453671">
        <ele>1294.07</ele>
        <time>2017-10-08T14:26:42Z</time>
      </trkpt>
      <trkpt lat="37.9068438616" lon="-2.9131384101">
        <ele>1294.07</ele>
        <time>2017-10-08T14:27:19Z</time>
      </trkpt>
      <trkpt lat="37.9068323784" lon="-2.9131435230">
        <ele>1294.55</ele>
        <time>2017-10-08T14:27:49Z</time>
      </trkpt>
      <trkpt lat="37.9068418499" lon="-2.9131559283">
        <ele>1294.55</ele>
        <time>2017-10-08T14:28:14Z</time>
      </trkpt>
      <trkpt lat="37.9068415985" lon="-2.9131514020">
        <ele>1294.55</ele>
        <time>2017-10-08T14:28:26Z</time>
      </trkpt>
      <trkpt lat="37.9068470467" lon="-2.9131594487">
        <ele>1294.55</ele>
        <time>2017-10-08T14:28:48Z</time>
      </trkpt>
      <trkpt lat="37.9068541713" lon="-2.9131571017">
        <ele>1294.55</ele>
        <time>2017-10-08T14:29:00Z</time>
      </trkpt>
      <trkpt lat="37.9068612121" lon="-2.9131582752">
        <ele>1294.55</ele>
        <time>2017-10-08T14:29:19Z</time>
      </trkpt>
      <trkpt lat="37.9068591166" lon="-2.9131559283">
        <ele>1294.55</ele>
        <time>2017-10-08T14:29:35Z</time>
      </trkpt>
      <trkpt lat="37.9068662412" lon="-2.9131500609">
        <ele>1294.55</ele>
        <time>2017-10-08T14:29:45Z</time>
      </trkpt>
      <trkpt lat="37.9068492260" lon="-2.9130033776">
        <ele>1295.03</ele>
        <time>2017-10-08T14:29:55Z</time>
      </trkpt>
      <trkpt lat="37.9068572726" lon="-2.9128503241">
        <ele>1295.03</ele>
        <time>2017-10-08T14:30:03Z</time>
      </trkpt>
      <trkpt lat="37.9068752099" lon="-2.9127564467">
        <ele>1295.51</ele>
        <time>2017-10-08T14:30:08Z</time>
      </trkpt>
      <trkpt lat="37.9069160298" lon="-2.9125626571">
        <ele>1295.99</ele>
        <time>2017-10-08T14:30:17Z</time>
      </trkpt>
      <trkpt lat="37.9069726914" lon="-2.9124085139">
        <ele>1296.48</ele>
        <time>2017-10-08T14:30:25Z</time>
      </trkpt>
      <trkpt lat="37.9070598632" lon="-2.9122470785">
        <ele>1297.44</ele>
        <time>2017-10-08T14:30:34Z</time>
      </trkpt>
      <trkpt lat="37.9071041197" lon="-2.9121592361">
        <ele>1297.44</ele>
        <time>2017-10-08T14:30:38Z</time>
      </trkpt>
      <trkpt lat="37.9071406648" lon="-2.9118696414">
        <ele>1298.40</ele>
        <time>2017-10-08T14:30:48Z</time>
      </trkpt>
      <trkpt lat="37.9070628807" lon="-2.9116578307">
        <ele>1298.88</ele>
        <time>2017-10-08T14:30:57Z</time>
      </trkpt>
      <trkpt lat="37.9070260841" lon="-2.9116248898">
        <ele>1298.88</ele>
        <time>2017-10-08T14:30:59Z</time>
      </trkpt>
      <trkpt lat="37.9069764633" lon="-2.9115463514">
        <ele>1299.84</ele>
        <time>2017-10-08T14:31:03Z</time>
      </trkpt>
      <trkpt lat="37.9068726953" lon="-2.9114206228">
        <ele>1300.80</ele>
        <time>2017-10-08T14:31:11Z</time>
      </trkpt>
      <trkpt lat="37.9068294447" lon="-2.9113062937">
        <ele>1301.28</ele>
        <time>2017-10-08T14:31:18Z</time>
      </trkpt>
      <trkpt lat="37.9068177938" lon="-2.9112527333">
        <ele>1301.28</ele>
        <time>2017-10-08T14:31:21Z</time>
      </trkpt>
      <trkpt lat="37.9068310373" lon="-2.9111574311">
        <ele>1301.76</ele>
        <time>2017-10-08T14:31:26Z</time>
      </trkpt>
      <trkpt lat="37.9068250861" lon="-2.9110398330">
        <ele>1302.24</ele>
        <time>2017-10-08T14:31:32Z</time>
      </trkpt>
      <trkpt lat="37.9068218172" lon="-2.9109695088">
        <ele>1302.72</ele>
        <time>2017-10-08T14:31:36Z</time>
      </trkpt>
      <trkpt lat="37.9068164527" lon="-2.9108908866">
        <ele>1303.20</ele>
        <time>2017-10-08T14:31:40Z</time>
      </trkpt>
      <trkpt lat="37.9068050534" lon="-2.9107700195">
        <ele>1304.17</ele>
        <time>2017-10-08T14:31:46Z</time>
      </trkpt>
      <trkpt lat="37.9067982640" lon="-2.9106804170">
        <ele>1304.65</ele>
        <time>2017-10-08T14:31:51Z</time>
      </trkpt>
      <trkpt lat="37.9068833403" lon="-2.9104686901">
        <ele>1305.61</ele>
        <time>2017-10-08T14:32:04Z</time>
      </trkpt>
      <trkpt lat="37.9070276767" lon="-2.9102899041">
        <ele>1307.05</ele>
        <time>2017-10-08T14:32:16Z</time>
      </trkpt>
      <trkpt lat="37.9071156029" lon="-2.9101860523">
        <ele>1308.49</ele>
        <time>2017-10-08T14:32:24Z</time>
      </trkpt>
      <trkpt lat="37.9071648046" lon="-2.9101360962">
        <ele>1308.97</ele>
        <time>2017-10-08T14:32:28Z</time>
      </trkpt>
      <trkpt lat="37.9071954824" lon="-2.9100887384">
        <ele>1308.97</ele>
        <time>2017-10-08T14:32:32Z</time>
      </trkpt>
      <trkpt lat="37.9072400741" lon="-2.9100474995">
        <ele>1309.45</ele>
        <time>2017-10-08T14:32:36Z</time>
      </trkpt>
      <trkpt lat="37.9072607774" lon="-2.9100031592">
        <ele>1309.93</ele>
        <time>2017-10-08T14:32:39Z</time>
      </trkpt>
      <trkpt lat="37.9073376395" lon="-2.9099403787">
        <ele>1310.41</ele>
        <time>2017-10-08T14:32:45Z</time>
      </trkpt>
      <trkpt lat="37.9074402340" lon="-2.9098516144">
        <ele>1311.38</ele>
        <time>2017-10-08T14:32:52Z</time>
      </trkpt>
      <trkpt lat="37.9074864183" lon="-2.9097167496">
        <ele>1312.34</ele>
        <time>2017-10-08T14:33:00Z</time>
      </trkpt>
      <trkpt lat="37.9074693192" lon="-2.9095450882">
        <ele>1313.30</ele>
        <time>2017-10-08T14:33:10Z</time>
      </trkpt>
      <trkpt lat="37.9074626137" lon="-2.9095169250">
        <ele>1313.78</ele>
        <time>2017-10-08T14:33:12Z</time>
      </trkpt>
      <trkpt lat="37.9074502923" lon="-2.9094370455">
        <ele>1314.26</ele>
        <time>2017-10-08T14:33:17Z</time>
      </trkpt>
      <trkpt lat="37.9073369689" lon="-2.9093616083">
        <ele>1314.74</ele>
        <time>2017-10-08T14:33:25Z</time>
      </trkpt>
      <trkpt lat="37.9071633797" lon="-2.9093009233">
        <ele>1316.66</ele>
        <time>2017-10-08T14:33:37Z</time>
      </trkpt>
      <trkpt lat="37.9071487952" lon="-2.9092992470">
        <ele>1317.14</ele>
        <time>2017-10-08T14:33:38Z</time>
      </trkpt>
      <trkpt lat="37.9069941491" lon="-2.9092269111">
        <ele>1317.62</ele>
        <time>2017-10-08T14:33:49Z</time>
      </trkpt>
      <trkpt lat="37.9068325460" lon="-2.9091744404">
        <ele>1318.59</ele>
        <time>2017-10-08T14:33:59Z</time>
      </trkpt>
      <trkpt lat="37.9066196457" lon="-2.9091290105">
        <ele>1320.03</ele>
        <time>2017-10-08T14:34:11Z</time>
      </trkpt>
      <trkpt lat="37.9065011255" lon="-2.9090919625">
        <ele>1320.51</ele>
        <time>2017-10-08T14:34:18Z</time>
      </trkpt>
      <trkpt lat="37.9063999560" lon="-2.9090415873">
        <ele>1321.95</ele>
        <time>2017-10-08T14:34:26Z</time>
      </trkpt>
      <trkpt lat="37.9063415341" lon="-2.9089815728">
        <ele>1322.91</ele>
        <time>2017-10-08T14:34:37Z</time>
      </trkpt>
      <trkpt lat="37.9062615708" lon="-2.9088811576">
        <ele>1323.39</ele>
        <time>2017-10-08T14:34:50Z</time>
      </trkpt>
      <trkpt lat="37.9061834514" lon="-2.9087299481">
        <ele>1324.35</ele>
        <time>2017-10-08T14:35:03Z</time>
      </trkpt>
      <trkpt lat="37.9060504306" lon="-2.9086208995">
        <ele>1325.31</ele>
        <time>2017-10-08T14:35:17Z</time>
      </trkpt>
      <trkpt lat="37.9059361015" lon="-2.9085846897">
        <ele>1326.76</ele>
        <time>2017-10-08T14:35:28Z</time>
      </trkpt>
      <trkpt lat="37.9059051722" lon="-2.9085811693">
        <ele>1326.76</ele>
        <time>2017-10-08T14:35:31Z</time>
      </trkpt>
      <trkpt lat="37.9057809524" lon="-2.9086431954">
        <ele>1327.24</ele>
        <time>2017-10-08T14:35:43Z</time>
      </trkpt>
      <trkpt lat="37.9056853987" lon="-2.9087229911">
        <ele>1327.72</ele>
        <time>2017-10-08T14:35:53Z</time>
      </trkpt>
      <trkpt lat="37.9055930302" lon="-2.9087968357">
        <ele>1329.16</ele>
        <time>2017-10-08T14:36:06Z</time>
      </trkpt>
      <trkpt lat="37.9056137335" lon="-2.9087620508">
        <ele>1329.64</ele>
        <time>2017-10-08T14:36:23Z</time>
      </trkpt>
      <trkpt lat="37.9056094587" lon="-2.9087716062">
        <ele>1329.64</ele>
        <time>2017-10-08T14:36:31Z</time>
      </trkpt>
      <trkpt lat="37.9054667987" lon="-2.9088407569">
        <ele>1330.60</ele>
        <time>2017-10-08T14:36:41Z</time>
      </trkpt>
      <trkpt lat="37.9053307604" lon="-2.9089104943">
        <ele>1332.04</ele>
        <time>2017-10-08T14:36:50Z</time>
      </trkpt>
      <trkpt lat="37.9053114820" lon="-2.9089136794">
        <ele>1332.04</ele>
        <time>2017-10-08T14:36:51Z</time>
      </trkpt>
      <trkpt lat="37.9052416608" lon="-2.9089494701">
        <ele>1332.52</ele>
        <time>2017-10-08T14:36:56Z</time>
      </trkpt>
      <trkpt lat="37.9051260743" lon="-2.9089921340">
        <ele>1333.01</ele>
        <time>2017-10-08T14:37:03Z</time>
      </trkpt>
      <trkpt lat="37.9050761182" lon="-2.9090307746">
        <ele>1333.49</ele>
        <time>2017-10-08T14:37:07Z</time>
      </trkpt>
      <trkpt lat="37.9050399922" lon="-2.9090661462">
        <ele>1333.49</ele>
        <time>2017-10-08T14:37:10Z</time>
      </trkpt>
      <trkpt lat="37.9049028642" lon="-2.9091919586">
        <ele>1333.97</ele>
        <time>2017-10-08T14:37:20Z</time>
      </trkpt>
      <trkpt lat="37.9047947377" lon="-2.9093000013">
        <ele>1334.45</ele>
        <time>2017-10-08T14:37:28Z</time>
      </trkpt>
      <trkpt lat="37.9046341404" lon="-2.9094942100">
        <ele>1334.93</ele>
        <time>2017-10-08T14:37:37Z</time>
      </trkpt>
      <trkpt lat="37.9044374172" lon="-2.9096028395">
        <ele>1334.93</ele>
        <time>2017-10-08T14:37:45Z</time>
      </trkpt>
      <trkpt lat="37.9042039812" lon="-2.9095596727">
        <ele>1335.41</ele>
        <time>2017-10-08T14:37:54Z</time>
      </trkpt>
      <trkpt lat="37.9040774982" lon="-2.9094230477">
        <ele>1335.89</ele>
        <time>2017-10-08T14:38:01Z</time>
      </trkpt>
      <trkpt lat="37.9039856326" lon="-2.9092701618">
        <ele>1336.85</ele>
        <time>2017-10-08T14:38:09Z</time>
      </trkpt>
      <trkpt lat="37.9039157275" lon="-2.9092122428">
        <ele>1337.33</ele>
        <time>2017-10-08T14:38:12Z</time>
      </trkpt>
      <trkpt lat="37.9038460739" lon="-2.9090706725">
        <ele>1338.29</ele>
        <time>2017-10-08T14:38:18Z</time>
      </trkpt>
      <trkpt lat="37.9038142227" lon="-2.9088106658">
        <ele>1339.73</ele>
        <time>2017-10-08T14:38:29Z</time>
      </trkpt>
      <trkpt lat="37.9038920067" lon="-2.9086320475">
        <ele>1341.18</ele>
        <time>2017-10-08T14:38:39Z</time>
      </trkpt>
      <trkpt lat="37.9039521050" lon="-2.9086007830">
        <ele>1341.66</ele>
        <time>2017-10-08T14:38:44Z</time>
      </trkpt>
      <trkpt lat="37.9040117841" lon="-2.9085993581">
        <ele>1342.14</ele>
        <time>2017-10-08T14:38:48Z</time>
      </trkpt>
      <trkpt lat="37.9040536098" lon="-2.9085990228">
        <ele>1342.14</ele>
        <time>2017-10-08T14:38:51Z</time>
      </trkpt>
      <trkpt lat="37.9041984491" lon="-2.9086419381">
        <ele>1343.10</ele>
        <time>2017-10-08T14:39:00Z</time>
      </trkpt>
      <trkpt lat="37.9042711202" lon="-2.9086813331">
        <ele>1343.58</ele>
        <time>2017-10-08T14:39:05Z</time>
      </trkpt>
      <trkpt lat="37.9043722898" lon="-2.9087997694">
        <ele>1344.54</ele>
        <time>2017-10-08T14:39:15Z</time>
      </trkpt>
      <trkpt lat="37.9045124352" lon="-2.9088523239">
        <ele>1345.98</ele>
        <time>2017-10-08T14:39:25Z</time>
      </trkpt>
      <trkpt lat="37.9045457952" lon="-2.9088536650">
        <ele>1345.98</ele>
        <time>2017-10-08T14:39:28Z</time>
      </trkpt>
      <trkpt lat="37.9045716114" lon="-2.9088444449">
        <ele>1346.46</ele>
        <time>2017-10-08T14:39:30Z</time>
      </trkpt>
      <trkpt lat="37.9046472162" lon="-2.9088504799">
        <ele>1346.94</ele>
        <time>2017-10-08T14:39:35Z</time>
      </trkpt>
      <trkpt lat="37.9047109187" lon="-2.9088058881">
        <ele>1346.94</ele>
        <time>2017-10-08T14:39:41Z</time>
      </trkpt>
      <trkpt lat="37.9047603719" lon="-2.9087940697">
        <ele>1347.43</ele>
        <time>2017-10-08T14:39:45Z</time>
      </trkpt>
      <trkpt lat="37.9048410058" lon="-2.9087402578">
        <ele>1351.27</ele>
        <time>2017-10-08T14:39:51Z</time>
      </trkpt>
      <trkpt lat="37.9048550874" lon="-2.9087362345">
        <ele>1346.94</ele>
        <time>2017-10-08T14:39:52Z</time>
      </trkpt>
      <trkpt lat="37.9048864357" lon="-2.9087065626">
        <ele>1350.79</ele>
        <time>2017-10-08T14:39:55Z</time>
      </trkpt>
      <trkpt lat="37.9049272556" lon="-2.9086871166">
        <ele>1346.94</ele>
        <time>2017-10-08T14:39:58Z</time>
      </trkpt>
      <trkpt lat="37.9049635492" lon="-2.9086495657">
        <ele>1348.87</ele>
        <time>2017-10-08T14:40:02Z</time>
      </trkpt>
      <trkpt lat="37.9050005134" lon="-2.9086227436">
        <ele>1352.23</ele>
        <time>2017-10-08T14:40:05Z</time>
      </trkpt>
      <trkpt lat="37.9050453566" lon="-2.9085898865">
        <ele>1349.83</ele>
        <time>2017-10-08T14:40:09Z</time>
      </trkpt>
      <trkpt lat="37.9051550757" lon="-2.9085302912">
        <ele>1351.27</ele>
        <time>2017-10-08T14:40:18Z</time>
      </trkpt>
      <trkpt lat="37.9051771201" lon="-2.9085131921">
        <ele>1351.27</ele>
        <time>2017-10-08T14:40:20Z</time>
      </trkpt>
      <trkpt lat="37.9052837379" lon="-2.9084293731">
        <ele>1351.75</ele>
        <time>2017-10-08T14:40:29Z</time>
      </trkpt>
      <trkpt lat="37.9054502863" lon="-2.9083207436">
        <ele>1352.71</ele>
        <time>2017-10-08T14:40:40Z</time>
      </trkpt>
      <trkpt lat="37.9056161642" lon="-2.9081893153">
        <ele>1354.15</ele>
        <time>2017-10-08T14:40:52Z</time>
      </trkpt>
      <trkpt lat="37.9057477601" lon="-2.9080646764">
        <ele>1355.60</ele>
        <time>2017-10-08T14:41:01Z</time>
      </trkpt>
      <trkpt lat="37.9058917612" lon="-2.9079267103">
        <ele>1357.52</ele>
        <time>2017-10-08T14:41:10Z</time>
      </trkpt>
      <trkpt lat="37.9059385322" lon="-2.9078783467">
        <ele>1358.00</ele>
        <time>2017-10-08T14:41:13Z</time>
      </trkpt>
      <trkpt lat="37.9060536996" lon="-2.9077947792">
        <ele>1358.96</ele>
        <time>2017-10-08T14:41:20Z</time>
      </trkpt>
      <trkpt lat="37.9061429668" lon="-2.9077514447">
        <ele>1359.44</ele>
        <time>2017-10-08T14:41:26Z</time>
      </trkpt>
      <trkpt lat="37.9062239360" lon="-2.9076910112">
        <ele>1360.40</ele>
        <time>2017-10-08T14:41:32Z</time>
      </trkpt>
      <trkpt lat="37.9063950107" lon="-2.9076388758">
        <ele>1361.84</ele>
        <time>2017-10-08T14:41:43Z</time>
      </trkpt>
      <trkpt lat="37.9064338189" lon="-2.9076370317">
        <ele>1362.33</ele>
        <time>2017-10-08T14:41:46Z</time>
      </trkpt>
      <trkpt lat="37.9065043945" lon="-2.9076465871">
        <ele>1362.81</ele>
        <time>2017-10-08T14:41:51Z</time>
      </trkpt>
      <trkpt lat="37.9066475574" lon="-2.9077564739">
        <ele>1366.17</ele>
        <time>2017-10-08T14:42:02Z</time>
      </trkpt>
      <trkpt lat="37.9067760520" lon="-2.9078537878">
        <ele>1365.69</ele>
        <time>2017-10-08T14:42:12Z</time>
      </trkpt>
      <trkpt lat="37.9069866054" lon="-2.9079503473">
        <ele>1368.09</ele>
        <time>2017-10-08T14:42:25Z</time>
      </trkpt>
      <trkpt lat="37.9071940575" lon="-2.9080228508">
        <ele>1369.54</ele>
        <time>2017-10-08T14:42:37Z</time>
      </trkpt>
      <trkpt lat="37.9073954746" lon="-2.9080338310">
        <ele>1371.46</ele>
        <time>2017-10-08T14:42:48Z</time>
      </trkpt>
      <trkpt lat="37.9075858276" lon="-2.9079873953">
        <ele>1372.90</ele>
        <time>2017-10-08T14:42:59Z</time>
      </trkpt>
      <trkpt lat="37.9077983927" lon="-2.9079190828">
        <ele>1374.82</ele>
        <time>2017-10-08T14:43:11Z</time>
      </trkpt>
      <trkpt lat="37.9080099519" lon="-2.9078586493">
        <ele>1376.26</ele>
        <time>2017-10-08T14:43:22Z</time>
      </trkpt>
      <trkpt lat="37.9080614168" lon="-2.9078400414">
        <ele>1376.75</ele>
        <time>2017-10-08T14:43:25Z</time>
      </trkpt>
      <trkpt lat="37.9082312342" lon="-2.9078449868">
        <ele>1378.19</ele>
        <time>2017-10-08T14:43:35Z</time>
      </trkpt>
      <trkpt lat="37.9083420429" lon="-2.9078546260">
        <ele>1379.15</ele>
        <time>2017-10-08T14:43:42Z</time>
      </trkpt>
      <trkpt lat="37.9085100163" lon="-2.9079517722">
        <ele>1380.59</ele>
        <time>2017-10-08T14:43:52Z</time>
      </trkpt>
      <trkpt lat="37.9085793346" lon="-2.9080774169">
        <ele>1381.07</ele>
        <time>2017-10-08T14:43:59Z</time>
      </trkpt>
      <trkpt lat="37.9086261895" lon="-2.9081944283">
        <ele>1382.03</ele>
        <time>2017-10-08T14:44:05Z</time>
      </trkpt>
      <trkpt lat="37.9086240102" lon="-2.9084047303">
        <ele>1382.99</ele>
        <time>2017-10-08T14:44:15Z</time>
      </trkpt>
      <trkpt lat="37.9086135328" lon="-2.9086408485">
        <ele>1384.92</ele>
        <time>2017-10-08T14:44:25Z</time>
      </trkpt>
      <trkpt lat="37.9087563604" lon="-2.9087618832">
        <ele>1385.40</ele>
        <time>2017-10-08T14:44:35Z</time>
      </trkpt>
      <trkpt lat="37.9088441189" lon="-2.9087963328">
        <ele>1386.36</ele>
        <time>2017-10-08T14:44:41Z</time>
      </trkpt>
      <trkpt lat="37.9089601245" lon="-2.9088192992">
        <ele>1388.28</ele>
        <time>2017-10-08T14:44:51Z</time>
      </trkpt>
      <trkpt lat="37.9089833423" lon="-2.9088234063">
        <ele>1389.24</ele>
        <time>2017-10-08T14:45:02Z</time>
      </trkpt>
      <trkpt lat="37.9089933168" lon="-2.9088353086">
        <ele>1388.28</ele>
        <time>2017-10-08T14:45:25Z</time>
      </trkpt>
      <trkpt lat="37.9090161156" lon="-2.9088637233">
        <ele>1387.80</ele>
        <time>2017-10-08T14:45:49Z</time>
      </trkpt>
      <trkpt lat="37.9090146068" lon="-2.9088620469">
        <ele>1388.28</ele>
        <time>2017-10-08T14:46:20Z</time>
      </trkpt>
      <trkpt lat="37.9090156127" lon="-2.9088560957">
        <ele>1388.76</ele>
        <time>2017-10-08T14:46:43Z</time>
      </trkpt>
      <trkpt lat="37.9090185463" lon="-2.9088533297">
        <ele>1388.76</ele>
        <time>2017-10-08T14:47:02Z</time>
      </trkpt>
      <trkpt lat="37.9090022016" lon="-2.9088460375">
        <ele>1388.76</ele>
        <time>2017-10-08T14:47:24Z</time>
      </trkpt>
      <trkpt lat="37.9089997709" lon="-2.9088499770">
        <ele>1388.76</ele>
        <time>2017-10-08T14:47:41Z</time>
      </trkpt>
      <trkpt lat="37.9090059735" lon="-2.9088471271">
        <ele>1388.76</ele>
        <time>2017-10-08T14:48:01Z</time>
      </trkpt>
      <trkpt lat="37.9090087395" lon="-2.9088360630">
        <ele>1388.76</ele>
        <time>2017-10-08T14:48:10Z</time>
      </trkpt>
      <trkpt lat="37.9090177920" lon="-2.9088104144">
        <ele>1389.24</ele>
        <time>2017-10-08T14:48:20Z</time>
      </trkpt>
      <trkpt lat="37.9090331309" lon="-2.9087544233">
        <ele>1389.24</ele>
        <time>2017-10-08T14:48:23Z</time>
      </trkpt>
      <trkpt lat="37.9090505652" lon="-2.9087251704">
        <ele>1389.24</ele>
        <time>2017-10-08T14:48:25Z</time>
      </trkpt>
      <trkpt lat="37.9091048799" lon="-2.9085686803">
        <ele>1390.20</ele>
        <time>2017-10-08T14:48:33Z</time>
      </trkpt>
      <trkpt lat="37.9091783892" lon="-2.9083909839">
        <ele>1391.65</ele>
        <time>2017-10-08T14:48:43Z</time>
      </trkpt>
      <trkpt lat="37.9091940634" lon="-2.9082670994">
        <ele>1392.13</ele>
        <time>2017-10-08T14:48:50Z</time>
      </trkpt>
      <trkpt lat="37.9092288483" lon="-2.9081978649">
        <ele>1392.61</ele>
        <time>2017-10-08T14:48:54Z</time>
      </trkpt>
      <trkpt lat="37.9091995955" lon="-2.9079531971">
        <ele>1394.05</ele>
        <time>2017-10-08T14:49:07Z</time>
      </trkpt>
      <trkpt lat="37.9091916326" lon="-2.9079355113">
        <ele>1394.53</ele>
        <time>2017-10-08T14:49:08Z</time>
      </trkpt>
      <trkpt lat="37.9091088194" lon="-2.9077056795">
        <ele>1395.49</ele>
        <time>2017-10-08T14:49:20Z</time>
      </trkpt>
      <trkpt lat="37.9091051314" lon="-2.9076845571">
        <ele>1395.49</ele>
        <time>2017-10-08T14:49:21Z</time>
      </trkpt>
      <trkpt lat="37.9090643115" lon="-2.9076249618">
        <ele>1395.97</ele>
        <time>2017-10-08T14:49:25Z</time>
      </trkpt>
      <trkpt lat="37.9090263415" lon="-2.9075161647">
        <ele>1396.45</ele>
        <time>2017-10-08T14:49:31Z</time>
      </trkpt>
      <trkpt lat="37.9090203065" lon="-2.9074707348">
        <ele>1396.45</ele>
        <time>2017-10-08T14:49:33Z</time>
      </trkpt>
      <trkpt lat="37.9089704342" lon="-2.9074002430">
        <ele>1396.93</ele>
        <time>2017-10-08T14:49:38Z</time>
      </trkpt>
      <trkpt lat="37.9089192208" lon="-2.9072688986">
        <ele>1397.89</ele>
        <time>2017-10-08T14:49:46Z</time>
      </trkpt>
      <trkpt lat="37.9088991042" lon="-2.9072142486">
        <ele>1398.37</ele>
        <time>2017-10-08T14:49:49Z</time>
      </trkpt>
      <trkpt lat="37.9088560212" lon="-2.9070727620">
        <ele>1398.86</ele>
        <time>2017-10-08T14:49:58Z</time>
      </trkpt>
      <trkpt lat="37.9088293668" lon="-2.9069544934">
        <ele>1399.82</ele>
        <time>2017-10-08T14:50:05Z</time>
      </trkpt>
      <trkpt lat="37.9087448772" lon="-2.9067610390">
        <ele>1400.78</ele>
        <time>2017-10-08T14:50:13Z</time>
      </trkpt>
      <trkpt lat="37.9087299574" lon="-2.9067036230">
        <ele>1401.26</ele>
        <time>2017-10-08T14:50:16Z</time>
      </trkpt>
      <trkpt lat="37.9086706974" lon="-2.9065406788">
        <ele>1402.22</ele>
        <time>2017-10-08T14:50:26Z</time>
      </trkpt>
      <trkpt lat="37.9086545203" lon="-2.9065097496">
        <ele>1402.70</ele>
        <time>2017-10-08T14:50:28Z</time>
      </trkpt>
      <trkpt lat="37.9086632375" lon="-2.9063507449">
        <ele>1404.14</ele>
        <time>2017-10-08T14:50:38Z</time>
      </trkpt>
      <trkpt lat="37.9086434562" lon="-2.9061735515">
        <ele>1405.10</ele>
        <time>2017-10-08T14:50:45Z</time>
      </trkpt>
      <trkpt lat="37.9086142033" lon="-2.9060219228">
        <ele>1406.07</ele>
        <time>2017-10-08T14:50:50Z</time>
      </trkpt>
      <trkpt lat="37.9085970204" lon="-2.9057430569">
        <ele>1407.03</ele>
        <time>2017-10-08T14:51:01Z</time>
      </trkpt>
      <trkpt lat="37.9086453840" lon="-2.9055200983">
        <ele>1408.47</ele>
        <time>2017-10-08T14:51:12Z</time>
      </trkpt>
      <trkpt lat="37.9086742178" lon="-2.9054677952">
        <ele>1408.95</ele>
        <time>2017-10-08T14:51:15Z</time>
      </trkpt>
      <trkpt lat="37.9087922350" lon="-2.9053109698">
        <ele>1410.39</ele>
        <time>2017-10-08T14:51:25Z</time>
      </trkpt>
      <trkpt lat="37.9089255910" lon="-2.9051843192">
        <ele>1411.35</ele>
        <time>2017-10-08T14:51:33Z</time>
      </trkpt>
      <trkpt lat="37.9090032913" lon="-2.9050554056">
        <ele>1411.83</ele>
        <time>2017-10-08T14:51:41Z</time>
      </trkpt>
      <trkpt lat="37.9090575222" lon="-2.9050021805">
        <ele>1412.31</ele>
        <time>2017-10-08T14:51:45Z</time>
      </trkpt>
      <trkpt lat="37.9091704264" lon="-2.9049074650">
        <ele>1413.28</ele>
        <time>2017-10-08T14:51:54Z</time>
      </trkpt>
      <trkpt lat="37.9092985019" lon="-2.9048303515">
        <ele>1414.24</ele>
        <time>2017-10-08T14:52:04Z</time>
      </trkpt>
      <trkpt lat="37.9094153456" lon="-2.9047632124">
        <ele>1415.20</ele>
        <time>2017-10-08T14:52:11Z</time>
      </trkpt>
      <trkpt lat="37.9094984941" lon="-2.9047001805">
        <ele>1416.16</ele>
        <time>2017-10-08T14:52:16Z</time>
      </trkpt>
      <trkpt lat="37.9095606040" lon="-2.9046790581">
        <ele>1416.16</ele>
        <time>2017-10-08T14:52:19Z</time>
      </trkpt>
      <trkpt lat="37.9097076226" lon="-2.9045629688">
        <ele>1417.12</ele>
        <time>2017-10-08T14:52:28Z</time>
      </trkpt>
      <trkpt lat="37.9097551480" lon="-2.9045232385">
        <ele>1417.60</ele>
        <time>2017-10-08T14:52:31Z</time>
      </trkpt>
      <trkpt lat="37.9098377936" lon="-2.9044646490">
        <ele>1418.08</ele>
        <time>2017-10-08T14:52:37Z</time>
      </trkpt>
      <trkpt lat="37.9098537192" lon="-2.9044384975">
        <ele>1418.08</ele>
        <time>2017-10-08T14:52:39Z</time>
      </trkpt>
      <trkpt lat="37.9099117219" lon="-2.9043790698">
        <ele>1418.56</ele>
        <time>2017-10-08T14:52:44Z</time>
      </trkpt>
      <trkpt lat="37.9099491052" lon="-2.9043445364">
        <ele>1419.04</ele>
        <time>2017-10-08T14:52:47Z</time>
      </trkpt>
      <trkpt lat="37.9099984746" lon="-2.9042610526">
        <ele>1419.52</ele>
        <time>2017-10-08T14:52:52Z</time>
      </trkpt>
      <trkpt lat="37.9101382010" lon="-2.9041427001">
        <ele>1420.97</ele>
        <time>2017-10-08T14:53:02Z</time>
      </trkpt>
      <trkpt lat="37.9102112073" lon="-2.9040898103">
        <ele>1421.45</ele>
        <time>2017-10-08T14:53:08Z</time>
      </trkpt>
      <trkpt lat="37.9102284741" lon="-2.9040533490">
        <ele>1421.45</ele>
        <time>2017-10-08T14:53:11Z</time>
      </trkpt>
      <trkpt lat="37.9103173222" lon="-2.9039689433">
        <ele>1422.41</ele>
        <time>2017-10-08T14:53:19Z</time>
      </trkpt>
      <trkpt lat="37.9103697091" lon="-2.9039031453">
        <ele>1422.89</ele>
        <time>2017-10-08T14:53:24Z</time>
      </trkpt>
      <trkpt lat="37.9104345851" lon="-2.9038324021">
        <ele>1422.89</ele>
        <time>2017-10-08T14:53:29Z</time>
      </trkpt>
      <trkpt lat="37.9105768260" lon="-2.9037541151">
        <ele>1423.85</ele>
        <time>2017-10-08T14:53:38Z</time>
      </trkpt>
      <trkpt lat="37.9107311368" lon="-2.9037763271">
        <ele>1424.81</ele>
        <time>2017-10-08T14:53:47Z</time>
      </trkpt>
      <trkpt lat="37.9108881298" lon="-2.9037646763">
        <ele>1425.77</ele>
        <time>2017-10-08T14:53:56Z</time>
      </trkpt>
      <trkpt lat="37.9109035525" lon="-2.9037602339">
        <ele>1425.77</ele>
        <time>2017-10-08T14:53:57Z</time>
      </trkpt>
      <trkpt lat="37.9109955020" lon="-2.9037454817">
        <ele>1426.25</ele>
        <time>2017-10-08T14:54:02Z</time>
      </trkpt>
      <trkpt lat="37.9110249225" lon="-2.9037172347">
        <ele>1426.73</ele>
        <time>2017-10-08T14:54:04Z</time>
      </trkpt>
      <trkpt lat="37.9112032894" lon="-2.9035720602">
        <ele>1428.18</ele>
        <time>2017-10-08T14:54:16Z</time>
      </trkpt>
      <trkpt lat="37.9112956580" lon="-2.9033754207">
        <ele>1429.14</ele>
        <time>2017-10-08T14:54:27Z</time>
      </trkpt>
      <trkpt lat="37.9113112483" lon="-2.9033092037">
        <ele>1429.62</ele>
        <time>2017-10-08T14:54:30Z</time>
      </trkpt>
      <trkpt lat="37.9112845939" lon="-2.9031062778">
        <ele>1431.06</ele>
        <time>2017-10-08T14:54:39Z</time>
      </trkpt>
      <trkpt lat="37.9111380782" lon="-2.9029369634">
        <ele>1432.50</ele>
        <time>2017-10-08T14:54:50Z</time>
      </trkpt>
      <trkpt lat="37.9110250063" lon="-2.9028147552">
        <ele>1434.42</ele>
        <time>2017-10-08T14:54:59Z</time>
      </trkpt>
      <trkpt lat="37.9109133594" lon="-2.9026378132">
        <ele>1435.87</ele>
        <time>2017-10-08T14:55:11Z</time>
      </trkpt>
      <trkpt lat="37.9108673427" lon="-2.9025742784">
        <ele>1436.35</ele>
        <time>2017-10-08T14:55:16Z</time>
      </trkpt>
      <trkpt lat="37.9106926639" lon="-2.9024857655">
        <ele>1438.27</ele>
        <time>2017-10-08T14:55:28Z</time>
      </trkpt>
      <trkpt lat="37.9106241837" lon="-2.9024633858">
        <ele>1438.75</ele>
        <time>2017-10-08T14:55:33Z</time>
      </trkpt>
      <trkpt lat="37.9104438890" lon="-2.9023924749">
        <ele>1441.63</ele>
        <time>2017-10-08T14:55:45Z</time>
      </trkpt>
      <trkpt lat="37.9103420489" lon="-2.9023026209">
        <ele>1441.15</ele>
        <time>2017-10-08T14:55:53Z</time>
      </trkpt>
      <trkpt lat="37.9103100300" lon="-2.9022370744">
        <ele>1441.63</ele>
        <time>2017-10-08T14:55:56Z</time>
      </trkpt>
      <trkpt lat="37.9102407116" lon="-2.9020172171">
        <ele>1442.60</ele>
        <time>2017-10-08T14:56:05Z</time>
      </trkpt>
      <trkpt lat="37.9101999756" lon="-2.9019072466">
        <ele>1444.04</ele>
        <time>2017-10-08T14:56:10Z</time>
      </trkpt>
      <trkpt lat="37.9101588205" lon="-2.9018297978">
        <ele>1444.52</ele>
        <time>2017-10-08T14:56:14Z</time>
      </trkpt>
      <trkpt lat="37.9100281466" lon="-2.9016963579">
        <ele>1445.00</ele>
        <time>2017-10-08T14:56:24Z</time>
      </trkpt>
      <trkpt lat="37.9098828882" lon="-2.9017071705">
        <ele>1445.00</ele>
        <time>2017-10-08T14:56:34Z</time>
      </trkpt>
      <trkpt lat="37.9098339379" lon="-2.9017267004">
        <ele>1445.00</ele>
        <time>2017-10-08T14:56:37Z</time>
      </trkpt>
      <trkpt lat="37.9096114822" lon="-2.9018892255">
        <ele>1444.04</ele>
        <time>2017-10-08T14:56:48Z</time>
      </trkpt>
      <trkpt lat="37.9094409943" lon="-2.9019577056">
        <ele>1445.00</ele>
        <time>2017-10-08T14:56:56Z</time>
      </trkpt>
      <trkpt lat="37.9092235677" lon="-2.9020375013">
        <ele>1444.04</ele>
        <time>2017-10-08T14:57:05Z</time>
      </trkpt>
      <trkpt lat="37.9090110026" lon="-2.9021183867">
        <ele>1443.56</ele>
        <time>2017-10-08T14:57:14Z</time>
      </trkpt>
      <trkpt lat="37.9087254312" lon="-2.9021220747">
        <ele>1443.56</ele>
        <time>2017-10-08T14:57:25Z</time>
      </trkpt>
      <trkpt lat="37.9085012991" lon="-2.9020585399">
        <ele>1442.60</ele>
        <time>2017-10-08T14:57:34Z</time>
      </trkpt>
      <trkpt lat="37.9082809389" lon="-2.9019712005">
        <ele>1442.60</ele>
        <time>2017-10-08T14:57:45Z</time>
      </trkpt>
      <trkpt lat="37.9080179147" lon="-2.9018368386">
        <ele>1441.15</ele>
        <time>2017-10-08T14:57:53Z</time>
      </trkpt>
      <trkpt lat="37.9078980535" lon="-2.9017624073">
        <ele>1440.19</ele>
        <time>2017-10-08T14:57:56Z</time>
      </trkpt>
      <trkpt lat="37.9078561440" lon="-2.9017393570">
        <ele>1439.71</ele>
        <time>2017-10-08T14:57:57Z</time>
      </trkpt>
      <trkpt lat="37.9078134801" lon="-2.9017157201">
        <ele>1439.71</ele>
        <time>2017-10-08T14:57:58Z</time>
      </trkpt>
      <trkpt lat="37.9077206086" lon="-2.9016522691">
        <ele>1439.23</ele>
        <time>2017-10-08T14:58:00Z</time>
      </trkpt>
      <trkpt lat="37.9076780286" lon="-2.9016134609">
        <ele>1438.75</ele>
        <time>2017-10-08T14:58:01Z</time>
      </trkpt>
      <trkpt lat="37.9076399747" lon="-2.9015663546">
        <ele>1438.75</ele>
        <time>2017-10-08T14:58:02Z</time>
      </trkpt>
      <trkpt lat="37.9075764399" lon="-2.9014645983">
        <ele>1437.79</ele>
        <time>2017-10-08T14:58:04Z</time>
      </trkpt>
      <trkpt lat="37.9075520486" lon="-2.9014039133">
        <ele>1437.79</ele>
        <time>2017-10-08T14:58:05Z</time>
      </trkpt>
      <trkpt lat="37.9075315967" lon="-2.9013353493">
        <ele>1437.79</ele>
        <time>2017-10-08T14:58:06Z</time>
      </trkpt>
      <trkpt lat="37.9075166769" lon="-2.9012682941">
        <ele>1437.31</ele>
        <time>2017-10-08T14:58:07Z</time>
      </trkpt>
      <trkpt lat="37.9075044394" lon="-2.9012025800">
        <ele>1437.31</ele>
        <time>2017-10-08T14:58:08Z</time>
      </trkpt>
      <trkpt lat="37.9074806347" lon="-2.9008861631">
        <ele>1437.31</ele>
        <time>2017-10-08T14:58:13Z</time>
      </trkpt>
      <trkpt lat="37.9074886814" lon="-2.9008262325">
        <ele>1437.31</ele>
        <time>2017-10-08T14:58:14Z</time>
      </trkpt>
      <trkpt lat="37.9075080436" lon="-2.9007110652">
        <ele>1436.83</ele>
        <time>2017-10-08T14:58:16Z</time>
      </trkpt>
      <trkpt lat="37.9075228795" lon="-2.9006514698">
        <ele>1436.83</ele>
        <time>2017-10-08T14:58:17Z</time>
      </trkpt>
      <trkpt lat="37.9076507874" lon="-2.9003309458">
        <ele>1436.35</ele>
        <time>2017-10-08T14:58:23Z</time>
      </trkpt>
      <trkpt lat="37.9077854007" lon="-2.8999858629">
        <ele>1436.35</ele>
        <time>2017-10-08T14:58:31Z</time>
      </trkpt>
      <trkpt lat="37.9079374485" lon="-2.8997426201">
        <ele>1437.79</ele>
        <time>2017-10-08T14:58:40Z</time>
      </trkpt>
      <trkpt lat="37.9080613330" lon="-2.8995501716">
        <ele>1438.75</ele>
        <time>2017-10-08T14:58:49Z</time>
      </trkpt>
      <trkpt lat="37.9082741495" lon="-2.8993765824">
        <ele>1438.75</ele>
        <time>2017-10-08T14:58:58Z</time>
      </trkpt>
      <trkpt lat="37.9086411931" lon="-2.8990304936">
        <ele>1437.79</ele>
        <time>2017-10-08T14:59:10Z</time>
      </trkpt>
      <trkpt lat="37.9089188017" lon="-2.8986896854">
        <ele>1437.79</ele>
        <time>2017-10-08T14:59:20Z</time>
      </trkpt>
      <trkpt lat="37.9089996032" lon="-2.8984696604">
        <ele>1437.31</ele>
        <time>2017-10-08T14:59:25Z</time>
      </trkpt>
      <trkpt lat="37.9089999385" lon="-2.8983564209">
        <ele>1436.35</ele>
        <time>2017-10-08T14:59:27Z</time>
      </trkpt>
      <trkpt lat="37.9089840967" lon="-2.8982520662">
        <ele>1435.87</ele>
        <time>2017-10-08T14:59:29Z</time>
      </trkpt>
      <trkpt lat="37.9089673329" lon="-2.8982034512">
        <ele>1435.87</ele>
        <time>2017-10-08T14:59:30Z</time>
      </trkpt>
      <trkpt lat="37.9089447856" lon="-2.8981642239">
        <ele>1435.39</ele>
        <time>2017-10-08T14:59:31Z</time>
      </trkpt>
      <trkpt lat="37.9086247645" lon="-2.8978615534">
        <ele>1433.46</ele>
        <time>2017-10-08T14:59:41Z</time>
      </trkpt>
      <trkpt lat="37.9084663466" lon="-2.8977276105">
        <ele>1432.98</ele>
        <time>2017-10-08T14:59:45Z</time>
      </trkpt>
      <trkpt lat="37.9083785042" lon="-2.8976597171">
        <ele>1432.50</ele>
        <time>2017-10-08T14:59:47Z</time>
      </trkpt>
      <trkpt lat="37.9080925137" lon="-2.8974041529">
        <ele>1430.58</ele>
        <time>2017-10-08T14:59:55Z</time>
      </trkpt>
      <trkpt lat="37.9078843910" lon="-2.8972915839">
        <ele>1429.62</ele>
        <time>2017-10-08T15:00:05Z</time>
      </trkpt>
      <trkpt lat="37.9076267313" lon="-2.8971863911">
        <ele>1428.66</ele>
        <time>2017-10-08T15:00:15Z</time>
      </trkpt>
      <trkpt lat="37.9073871765" lon="-2.8971407097">
        <ele>1426.73</ele>
        <time>2017-10-08T15:00:24Z</time>
      </trkpt>
      <trkpt lat="37.9072866775" lon="-2.8971277177">
        <ele>1426.25</ele>
        <time>2017-10-08T15:00:28Z</time>
      </trkpt>
      <trkpt lat="37.9072681535" lon="-2.8971274663">
        <ele>1426.25</ele>
        <time>2017-10-08T15:00:29Z</time>
      </trkpt>
      <trkpt lat="37.9069773853" lon="-2.8970806953">
        <ele>1424.81</ele>
        <time>2017-10-08T15:00:38Z</time>
      </trkpt>
      <trkpt lat="37.9066406842" lon="-2.8970193397">
        <ele>1423.37</ele>
        <time>2017-10-08T15:00:46Z</time>
      </trkpt>
      <trkpt lat="37.9065329768" lon="-2.8969798610">
        <ele>1422.89</ele>
        <time>2017-10-08T15:00:48Z</time>
      </trkpt>
      <trkpt lat="37.9062127881" lon="-2.8968113009">
        <ele>1422.41</ele>
        <time>2017-10-08T15:00:56Z</time>
      </trkpt>
      <trkpt lat="37.9061812721" lon="-2.8967792820">
        <ele>1420.97</ele>
        <time>2017-10-08T15:01:05Z</time>
      </trkpt>
      <trkpt lat="37.9061029851" lon="-2.8967253026">
        <ele>1420.97</ele>
        <time>2017-10-08T15:01:11Z</time>
      </trkpt>
      <trkpt lat="37.9059728980" lon="-2.8965415712">
        <ele>1419.52</ele>
        <time>2017-10-08T15:01:20Z</time>
      </trkpt>
      <trkpt lat="37.9057978839" lon="-2.8963213786">
        <ele>1418.56</ele>
        <time>2017-10-08T15:01:28Z</time>
      </trkpt>
      <trkpt lat="37.9055812117" lon="-2.8960292693">
        <ele>1416.64</ele>
        <time>2017-10-08T15:01:38Z</time>
      </trkpt>
      <trkpt lat="37.9053188581" lon="-2.8956269380">
        <ele>1413.76</ele>
        <time>2017-10-08T15:01:49Z</time>
      </trkpt>
      <trkpt lat="37.9051065445" lon="-2.8954183962">
        <ele>1411.83</ele>
        <time>2017-10-08T15:01:57Z</time>
      </trkpt>
      <trkpt lat="37.9048121721" lon="-2.8952909913">
        <ele>1409.91</ele>
        <time>2017-10-08T15:02:06Z</time>
      </trkpt>
      <trkpt lat="37.9045738745" lon="-2.8951399494">
        <ele>1407.99</ele>
        <time>2017-10-08T15:02:14Z</time>
      </trkpt>
      <trkpt lat="37.9043349903" lon="-2.8949324973">
        <ele>1406.07</ele>
        <time>2017-10-08T15:02:22Z</time>
      </trkpt>
      <trkpt lat="37.9042916559" lon="-2.8949011490">
        <ele>1405.58</ele>
        <time>2017-10-08T15:02:24Z</time>
      </trkpt>
      <trkpt lat="37.9042779095" lon="-2.8948813677">
        <ele>1405.58</ele>
        <time>2017-10-08T15:02:25Z</time>
      </trkpt>
      <trkpt lat="37.9042701982" lon="-2.8948715609">
        <ele>1405.58</ele>
        <time>2017-10-08T15:02:26Z</time>
      </trkpt>
      <trkpt lat="37.9042605590" lon="-2.8948630951">
        <ele>1405.58</ele>
        <time>2017-10-08T15:02:27Z</time>
      </trkpt>
      <trkpt lat="37.9042375088" lon="-2.8948602453">
        <ele>1405.10</ele>
        <time>2017-10-08T15:02:28Z</time>
      </trkpt>
      <trkpt lat="37.9042041488" lon="-2.8948653582">
        <ele>1404.62</ele>
        <time>2017-10-08T15:02:29Z</time>
      </trkpt>
      <trkpt lat="37.9041654244" lon="-2.8948727343">
        <ele>1404.62</ele>
        <time>2017-10-08T15:02:30Z</time>
      </trkpt>
      <trkpt lat="37.9041236825" lon="-2.8948770091">
        <ele>1404.14</ele>
        <time>2017-10-08T15:02:31Z</time>
      </trkpt>
      <trkpt lat="37.9040732235" lon="-2.8948666155">
        <ele>1404.14</ele>
        <time>2017-10-08T15:02:32Z</time>
      </trkpt>
      <trkpt lat="37.9040218424" lon="-2.8948532883">
        <ele>1403.66</ele>
        <time>2017-10-08T15:02:33Z</time>
      </trkpt>
      <trkpt lat="37.9039681144" lon="-2.8948386200">
        <ele>1403.18</ele>
        <time>2017-10-08T15:02:34Z</time>
      </trkpt>
      <trkpt lat="37.9039134644" lon="-2.8948221914">
        <ele>1402.70</ele>
        <time>2017-10-08T15:02:35Z</time>
      </trkpt>
      <trkpt lat="37.9038578924" lon="-2.8947990574">
        <ele>1402.70</ele>
        <time>2017-10-08T15:02:36Z</time>
      </trkpt>
      <trkpt lat="37.9038075171" lon="-2.8947796114">
        <ele>1402.22</ele>
        <time>2017-10-08T15:02:37Z</time>
      </trkpt>
      <trkpt lat="37.9037639312" lon="-2.8947624285">
        <ele>1401.26</ele>
        <time>2017-10-08T15:02:38Z</time>
      </trkpt>
      <trkpt lat="37.9037173279" lon="-2.8947417252">
        <ele>1401.26</ele>
        <time>2017-10-08T15:02:39Z</time>
      </trkpt>
      <trkpt lat="37.9034128971" lon="-2.8946030047">
        <ele>1399.82</ele>
        <time>2017-10-08T15:02:45Z</time>
      </trkpt>
      <trkpt lat="37.9033676349" lon="-2.8945730813">
        <ele>1399.82</ele>
        <time>2017-10-08T15:02:46Z</time>
      </trkpt>
      <trkpt lat="37.9030651320" lon="-2.8943735920">
        <ele>1398.37</ele>
        <time>2017-10-08T15:02:55Z</time>
      </trkpt>
      <trkpt lat="37.9029528983" lon="-2.8943512961">
        <ele>1397.89</ele>
        <time>2017-10-08T15:02:58Z</time>
      </trkpt>
      <trkpt lat="37.9027524870" lon="-2.8943183552">
        <ele>1396.93</ele>
        <time>2017-10-08T15:03:03Z</time>
      </trkpt>
      <trkpt lat="37.9025248345" lon="-2.8942717519">
        <ele>1396.45</ele>
        <time>2017-10-08T15:03:08Z</time>
      </trkpt>
      <trkpt lat="37.9024794884" lon="-2.8942504618">
        <ele>1395.97</ele>
        <time>2017-10-08T15:03:09Z</time>
      </trkpt>
      <trkpt lat="37.9024344776" lon="-2.8942252323">
        <ele>1395.97</ele>
        <time>2017-10-08T15:03:10Z</time>
      </trkpt>
      <trkpt lat="37.9023906402" lon="-2.8941948898">
        <ele>1395.49</ele>
        <time>2017-10-08T15:03:11Z</time>
      </trkpt>
      <trkpt lat="37.9023478925" lon="-2.8941642120">
        <ele>1395.49</ele>
        <time>2017-10-08T15:03:12Z</time>
      </trkpt>
      <trkpt lat="37.9022743832" lon="-2.8941060416">
        <ele>1395.01</ele>
        <time>2017-10-08T15:03:14Z</time>
      </trkpt>
      <trkpt lat="37.9022421967" lon="-2.8940779623">
        <ele>1395.01</ele>
        <time>2017-10-08T15:03:15Z</time>
      </trkpt>
      <trkpt lat="37.9022155423" lon="-2.8940612823">
        <ele>1394.53</ele>
        <time>2017-10-08T15:03:16Z</time>
      </trkpt>
      <trkpt lat="37.9019456450" lon="-2.8940402437">
        <ele>1393.09</ele>
        <time>2017-10-08T15:03:24Z</time>
      </trkpt>
      <trkpt lat="37.9017024022" lon="-2.8941835742">
        <ele>1392.13</ele>
        <time>2017-10-08T15:03:31Z</time>
      </trkpt>
      <trkpt lat="37.9012588318" lon="-2.8944815509">
        <ele>1389.72</ele>
        <time>2017-10-08T15:03:41Z</time>
      </trkpt>
      <trkpt lat="37.9008690733" lon="-2.8945719078">
        <ele>1387.80</ele>
        <time>2017-10-08T15:03:50Z</time>
      </trkpt>
      <trkpt lat="37.9008277506" lon="-2.8945758473">
        <ele>1387.80</ele>
        <time>2017-10-08T15:03:51Z</time>
      </trkpt>
      <trkpt lat="37.9007864278" lon="-2.8945807088">
        <ele>1387.32</ele>
        <time>2017-10-08T15:03:52Z</time>
      </trkpt>
      <trkpt lat="37.9006567597" lon="-2.8945913538">
        <ele>1386.84</ele>
        <time>2017-10-08T15:03:55Z</time>
      </trkpt>
      <trkpt lat="37.9006082285" lon="-2.8946030885">
        <ele>1386.36</ele>
        <time>2017-10-08T15:03:56Z</time>
      </trkpt>
      <trkpt lat="37.9005591944" lon="-2.8946253005">
        <ele>1386.36</ele>
        <time>2017-10-08T15:03:57Z</time>
      </trkpt>
      <trkpt lat="37.9003000259" lon="-2.8947553877">
        <ele>1384.92</ele>
        <time>2017-10-08T15:04:02Z</time>
      </trkpt>
      <trkpt lat="37.9001540132" lon="-2.8947867360">
        <ele>1383.96</ele>
        <time>2017-10-08T15:04:05Z</time>
      </trkpt>
      <trkpt lat="37.9000440426" lon="-2.8947817069">
        <ele>1383.47</ele>
        <time>2017-10-08T15:04:07Z</time>
      </trkpt>
      <trkpt lat="37.8996549547" lon="-2.8947500233">
        <ele>1381.55</ele>
        <time>2017-10-08T15:04:14Z</time>
      </trkpt>
      <trkpt lat="37.8996166494" lon="-2.8947278950">
        <ele>1381.07</ele>
        <time>2017-10-08T15:04:15Z</time>
      </trkpt>
      <trkpt lat="37.8995795175" lon="-2.8946964629">
        <ele>1381.07</ele>
        <time>2017-10-08T15:04:16Z</time>
      </trkpt>
      <trkpt lat="37.8995383624" lon="-2.8946528770">
        <ele>1380.59</ele>
        <time>2017-10-08T15:04:17Z</time>
      </trkpt>
      <trkpt lat="37.8994962014" lon="-2.8945974726">
        <ele>1380.59</ele>
        <time>2017-10-08T15:04:18Z</time>
      </trkpt>
      <trkpt lat="37.8994572256" lon="-2.8945350274">
        <ele>1380.59</ele>
        <time>2017-10-08T15:04:19Z</time>
      </trkpt>
      <trkpt lat="37.8994215187" lon="-2.8944677208">
        <ele>1380.11</ele>
        <time>2017-10-08T15:04:20Z</time>
      </trkpt>
      <trkpt lat="37.8993869014" lon="-2.8944014199">
        <ele>1379.63</ele>
        <time>2017-10-08T15:04:21Z</time>
      </trkpt>
      <trkpt lat="37.8993226960" lon="-2.8942915332">
        <ele>1379.15</ele>
        <time>2017-10-08T15:04:23Z</time>
      </trkpt>
      <trkpt lat="37.8992978856" lon="-2.8942497913">
        <ele>1379.15</ele>
        <time>2017-10-08T15:04:24Z</time>
      </trkpt>
      <trkpt lat="37.8992693871" lon="-2.8942146711">
        <ele>1379.15</ele>
        <time>2017-10-08T15:04:25Z</time>
      </trkpt>
      <trkpt lat="37.8992365301" lon="-2.8941778746">
        <ele>1378.67</ele>
        <time>2017-10-08T15:04:26Z</time>
      </trkpt>
      <trkpt lat="37.8991967998" lon="-2.8941447660">
        <ele>1378.67</ele>
        <time>2017-10-08T15:04:27Z</time>
      </trkpt>
      <trkpt lat="37.8991511185" lon="-2.8941103164">
        <ele>1378.67</ele>
        <time>2017-10-08T15:04:28Z</time>
      </trkpt>
      <trkpt lat="37.8991081193" lon="-2.8940773755">
        <ele>1378.19</ele>
        <time>2017-10-08T15:04:29Z</time>
      </trkpt>
      <trkpt lat="37.8990678024" lon="-2.8940513916">
        <ele>1378.19</ele>
        <time>2017-10-08T15:04:30Z</time>
      </trkpt>
      <trkpt lat="37.8990249708" lon="-2.8940336220">
        <ele>1377.71</ele>
        <time>2017-10-08T15:04:31Z</time>
      </trkpt>
      <trkpt lat="37.8989334404" lon="-2.8939917125">
        <ele>1377.23</ele>
        <time>2017-10-08T15:04:33Z</time>
      </trkpt>
      <trkpt lat="37.8988828976" lon="-2.8939771280">
        <ele>1377.23</ele>
        <time>2017-10-08T15:04:34Z</time>
      </trkpt>
      <trkpt lat="37.8988300078" lon="-2.8939694166">
        <ele>1376.75</ele>
        <time>2017-10-08T15:04:35Z</time>
      </trkpt>
      <trkpt lat="37.8987774532" lon="-2.8939704224">
        <ele>1376.75</ele>
        <time>2017-10-08T15:04:36Z</time>
      </trkpt>
      <trkpt lat="37.8987209592" lon="-2.8939731885">
        <ele>1376.26</ele>
        <time>2017-10-08T15:04:37Z</time>
      </trkpt>
      <trkpt lat="37.8986611962" lon="-2.8939777985">
        <ele>1375.78</ele>
        <time>2017-10-08T15:04:38Z</time>
      </trkpt>
      <trkpt lat="37.8985994216" lon="-2.8939865157">
        <ele>1375.78</ele>
        <time>2017-10-08T15:04:39Z</time>
      </trkpt>
      <trkpt lat="37.8984156903" lon="-2.8940199595">
        <ele>1374.82</ele>
        <time>2017-10-08T15:04:42Z</time>
      </trkpt>
      <trkpt lat="37.8983566817" lon="-2.8940273356">
        <ele>1374.34</ele>
        <time>2017-10-08T15:04:43Z</time>
      </trkpt>
      <trkpt lat="37.8981680050" lon="-2.8940630425">
        <ele>1373.86</ele>
        <time>2017-10-08T15:04:46Z</time>
      </trkpt>
      <trkpt lat="37.8978990298" lon="-2.8941684030">
        <ele>1372.90</ele>
        <time>2017-10-08T15:04:50Z</time>
      </trkpt>
      <trkpt lat="37.8978291247" lon="-2.8941939678">
        <ele>1372.42</ele>
        <time>2017-10-08T15:04:51Z</time>
      </trkpt>
      <trkpt lat="37.8977642488" lon="-2.8942171857">
        <ele>1372.42</ele>
        <time>2017-10-08T15:04:52Z</time>
      </trkpt>
      <trkpt lat="37.8977055755" lon="-2.8942362126">
        <ele>1372.42</ele>
        <time>2017-10-08T15:04:53Z</time>
      </trkpt>
      <trkpt lat="37.8976513445" lon="-2.8942455165">
        <ele>1371.94</ele>
        <time>2017-10-08T15:04:54Z</time>
      </trkpt>
      <trkpt lat="37.8976023942" lon="-2.8942454327">
        <ele>1371.46</ele>
        <time>2017-10-08T15:04:55Z</time>
      </trkpt>
      <trkpt lat="37.8974447306" lon="-2.8942531440">
        <ele>1370.98</ele>
        <time>2017-10-08T15:04:58Z</time>
      </trkpt>
      <trkpt lat="37.8969674651" lon="-2.8941677324">
        <ele>1368.09</ele>
        <time>2017-10-08T15:05:06Z</time>
      </trkpt>
      <trkpt lat="37.8968289122" lon="-2.8941162676">
        <ele>1367.61</ele>
        <time>2017-10-08T15:05:08Z</time>
      </trkpt>
      <trkpt lat="37.8965414129" lon="-2.8941137530">
        <ele>1366.65</ele>
        <time>2017-10-08T15:05:13Z</time>
      </trkpt>
      <trkpt lat="37.8964953125" lon="-2.8941078018">
        <ele>1366.65</ele>
        <time>2017-10-08T15:05:14Z</time>
      </trkpt>
      <trkpt lat="37.8963229805" lon="-2.8940337058">
        <ele>1366.65</ele>
        <time>2017-10-08T15:05:18Z</time>
      </trkpt>
      <trkpt lat="37.8962825797" lon="-2.8939971607">
        <ele>1365.69</ele>
        <time>2017-10-08T15:05:19Z</time>
      </trkpt>
      <trkpt lat="37.8962506447" lon="-2.8939571790">
        <ele>1365.69</ele>
        <time>2017-10-08T15:05:20Z</time>
      </trkpt>
      <trkpt lat="37.8962319531" lon="-2.8939132579">
        <ele>1365.69</ele>
        <time>2017-10-08T15:05:21Z</time>
      </trkpt>
      <trkpt lat="37.8962183744" lon="-2.8938591108">
        <ele>1365.69</ele>
        <time>2017-10-08T15:05:22Z</time>
      </trkpt>
      <trkpt lat="37.8962146863" lon="-2.8938067239">
        <ele>1365.69</ele>
        <time>2017-10-08T15:05:23Z</time>
      </trkpt>
      <trkpt lat="37.8962203860" lon="-2.8937537502">
        <ele>1365.69</ele>
        <time>2017-10-08T15:05:24Z</time>
      </trkpt>
      <trkpt lat="37.8962204698" lon="-2.8936952446">
        <ele>1365.69</ele>
        <time>2017-10-08T15:05:25Z</time>
      </trkpt>
      <trkpt lat="37.8962219786" lon="-2.8936392535">
        <ele>1365.69</ele>
        <time>2017-10-08T15:05:26Z</time>
      </trkpt>
      <trkpt lat="37.8962197155" lon="-2.8935794905">
        <ele>1365.69</ele>
        <time>2017-10-08T15:05:27Z</time>
      </trkpt>
      <trkpt lat="37.8961975034" lon="-2.8935017902">
        <ele>1365.69</ele>
        <time>2017-10-08T15:05:28Z</time>
      </trkpt>
      <trkpt lat="37.8961845115" lon="-2.8934478946">
        <ele>1365.69</ele>
        <time>2017-10-08T15:05:29Z</time>
      </trkpt>
      <trkpt lat="37.8961767163" lon="-2.8934085835">
        <ele>1366.17</ele>
        <time>2017-10-08T15:05:30Z</time>
      </trkpt>
      <trkpt lat="37.8961576056" lon="-2.8933680151">
        <ele>1366.17</ele>
        <time>2017-10-08T15:05:31Z</time>
      </trkpt>
      <trkpt lat="37.8961445298" lon="-2.8933380079">
        <ele>1366.17</ele>
        <time>2017-10-08T15:05:32Z</time>
      </trkpt>
      <trkpt lat="37.8961312026" lon="-2.8933142871">
        <ele>1366.17</ele>
        <time>2017-10-08T15:05:33Z</time>
      </trkpt>
      <trkpt lat="37.8960937355" lon="-2.8931793384">
        <ele>1366.65</ele>
        <time>2017-10-08T15:05:39Z</time>
      </trkpt>
      <trkpt lat="37.8960861918" lon="-2.8931672685">
        <ele>1367.13</ele>
        <time>2017-10-08T15:05:40Z</time>
      </trkpt>
      <trkpt lat="37.8960790671" lon="-2.8931500856">
        <ele>1366.65</ele>
        <time>2017-10-08T15:05:41Z</time>
      </trkpt>
      <trkpt lat="37.8960513230" lon="-2.8930557892">
        <ele>1367.61</ele>
        <time>2017-10-08T15:05:48Z</time>
      </trkpt>
      <trkpt lat="37.8960172087" lon="-2.8930063359">
        <ele>1367.61</ele>
        <time>2017-10-08T15:05:51Z</time>
      </trkpt>
      <trkpt lat="37.8960065637" lon="-2.8929901589">
        <ele>1367.61</ele>
        <time>2017-10-08T15:05:52Z</time>
      </trkpt>
      <trkpt lat="37.8959913924" lon="-2.8929656837">
        <ele>1368.09</ele>
        <time>2017-10-08T15:05:53Z</time>
      </trkpt>
      <trkpt lat="37.8959825914" lon="-2.8929491714">
        <ele>1368.09</ele>
        <time>2017-10-08T15:05:54Z</time>
      </trkpt>
      <trkpt lat="37.8959686775" lon="-2.8929301444">
        <ele>1368.09</ele>
        <time>2017-10-08T15:05:55Z</time>
      </trkpt>
      <trkpt lat="37.8959513269" lon="-2.8929072618">
        <ele>1368.09</ele>
        <time>2017-10-08T15:05:56Z</time>
      </trkpt>
      <trkpt lat="37.8959358204" lon="-2.8928818647">
        <ele>1368.09</ele>
        <time>2017-10-08T15:05:57Z</time>
      </trkpt>
      <trkpt lat="37.8959238343" lon="-2.8928577248">
        <ele>1368.57</ele>
        <time>2017-10-08T15:05:58Z</time>
      </trkpt>
      <trkpt lat="37.8959108423" lon="-2.8928315733">
        <ele>1368.57</ele>
        <time>2017-10-08T15:05:59Z</time>
      </trkpt>
      <trkpt lat="37.8958984371" lon="-2.8928085230">
        <ele>1368.57</ele>
        <time>2017-10-08T15:06:00Z</time>
      </trkpt>
      <trkpt lat="37.8958838526" lon="-2.8927860595">
        <ele>1368.57</ele>
        <time>2017-10-08T15:06:01Z</time>
      </trkpt>
      <trkpt lat="37.8958739620" lon="-2.8927615844">
        <ele>1368.57</ele>
        <time>2017-10-08T15:06:02Z</time>
      </trkpt>
      <trkpt lat="37.8958602156" lon="-2.8927386180">
        <ele>1369.05</ele>
        <time>2017-10-08T15:06:03Z</time>
      </trkpt>
      <trkpt lat="37.8958473075" lon="-2.8927185014">
        <ele>1369.05</ele>
        <time>2017-10-08T15:06:04Z</time>
      </trkpt>
      <trkpt lat="37.8958343994" lon="-2.8926975466">
        <ele>1369.54</ele>
        <time>2017-10-08T15:06:05Z</time>
      </trkpt>
      <trkpt lat="37.8958157916" lon="-2.8926756699">
        <ele>1369.54</ele>
        <time>2017-10-08T15:06:06Z</time>
      </trkpt>
      <trkpt lat="37.8956630733" lon="-2.8924234584">
        <ele>1370.50</ele>
        <time>2017-10-08T15:06:18Z</time>
      </trkpt>
      <trkpt lat="37.8955671843" lon="-2.8922893479">
        <ele>1371.46</ele>
        <time>2017-10-08T15:06:26Z</time>
      </trkpt>
      <trkpt lat="37.8953970317" lon="-2.8920310177">
        <ele>1371.94</ele>
        <time>2017-10-08T15:06:39Z</time>
      </trkpt>
      <trkpt lat="37.8952919226" lon="-2.8918744437">
        <ele>1373.38</ele>
        <time>2017-10-08T15:06:49Z</time>
      </trkpt>
      <trkpt lat="37.8951787669" lon="-2.8917147685">
        <ele>1373.86</ele>
        <time>2017-10-08T15:06:59Z</time>
      </trkpt>
      <trkpt lat="37.8951776773" lon="-2.8916983400">
        <ele>1374.34</ele>
        <time>2017-10-08T15:07:00Z</time>
      </trkpt>
      <trkpt lat="37.8951740731" lon="-2.8916773852">
        <ele>1374.34</ele>
        <time>2017-10-08T15:07:01Z</time>
      </trkpt>
      <trkpt lat="37.8951573931" lon="-2.8916588612">
        <ele>1374.34</ele>
        <time>2017-10-08T15:07:03Z</time>
      </trkpt>
      <trkpt lat="37.8951475024" lon="-2.8916503116">
        <ele>1374.82</ele>
        <time>2017-10-08T15:07:04Z</time>
      </trkpt>
      <trkpt lat="37.8951367736" lon="-2.8916440252">
        <ele>1374.82</ele>
        <time>2017-10-08T15:07:05Z</time>
      </trkpt>
      <trkpt lat="37.8951247875" lon="-2.8916389961">
        <ele>1374.82</ele>
        <time>2017-10-08T15:07:06Z</time>
      </trkpt>
      <trkpt lat="37.8951119632" lon="-2.8916358948">
        <ele>1374.82</ele>
        <time>2017-10-08T15:07:07Z</time>
      </trkpt>
      <trkpt lat="37.8951034136" lon="-2.8916305304">
        <ele>1375.30</ele>
        <time>2017-10-08T15:07:08Z</time>
      </trkpt>
      <trkpt lat="37.8950936068" lon="-2.8916247468">
        <ele>1375.30</ele>
        <time>2017-10-08T15:07:09Z</time>
      </trkpt>
      <trkpt lat="37.8950786032" lon="-2.8916104976">
        <ele>1375.30</ele>
        <time>2017-10-08T15:07:10Z</time>
      </trkpt>
      <trkpt lat="37.8948658705" lon="-2.8914571088">
        <ele>1376.26</ele>
        <time>2017-10-08T15:07:21Z</time>
      </trkpt>
      <trkpt lat="37.8947315924" lon="-2.8912795801">
        <ele>1377.71</ele>
        <time>2017-10-08T15:07:32Z</time>
      </trkpt>
      <trkpt lat="37.8946375474" lon="-2.8910652548">
        <ele>1378.67</ele>
        <time>2017-10-08T15:07:40Z</time>
      </trkpt>
      <trkpt lat="37.8945947997" lon="-2.8909287136">
        <ele>1379.15</ele>
        <time>2017-10-08T15:07:47Z</time>
      </trkpt>
      <trkpt lat="37.8945884295" lon="-2.8909067530">
        <ele>1379.15</ele>
        <time>2017-10-08T15:07:48Z</time>
      </trkpt>
      <trkpt lat="37.8945828136" lon="-2.8908836190">
        <ele>1379.15</ele>
        <time>2017-10-08T15:07:49Z</time>
      </trkpt>
      <trkpt lat="37.8945789579" lon="-2.8908611555">
        <ele>1379.15</ele>
        <time>2017-10-08T15:07:50Z</time>
      </trkpt>
      <trkpt lat="37.8945771977" lon="-2.8908350877">
        <ele>1379.15</ele>
        <time>2017-10-08T15:07:51Z</time>
      </trkpt>
      <trkpt lat="37.8945734259" lon="-2.8908113670">
        <ele>1379.15</ele>
        <time>2017-10-08T15:07:52Z</time>
      </trkpt>
      <trkpt lat="37.8945339471" lon="-2.8905429784">
        <ele>1379.63</ele>
        <time>2017-10-08T15:08:03Z</time>
      </trkpt>
      <trkpt lat="37.8944864217" lon="-2.8902876657">
        <ele>1379.63</ele>
        <time>2017-10-08T15:08:16Z</time>
      </trkpt>
      <trkpt lat="37.8944010939" lon="-2.8900125716">
        <ele>1378.67</ele>
        <time>2017-10-08T15:08:25Z</time>
      </trkpt>
      <trkpt lat="37.8941973299" lon="-2.8897653893">
        <ele>1377.23</ele>
        <time>2017-10-08T15:08:34Z</time>
      </trkpt>
      <trkpt lat="37.8941270057" lon="-2.8895334620">
        <ele>1376.26</ele>
        <time>2017-10-08T15:08:43Z</time>
      </trkpt>
      <trkpt lat="37.8941327054" lon="-2.8895001020">
        <ele>1375.78</ele>
        <time>2017-10-08T15:08:52Z</time>
      </trkpt>
      <trkpt lat="37.8941309452" lon="-2.8895101603">
        <ele>1375.78</ele>
        <time>2017-10-08T15:09:03Z</time>
      </trkpt>
      <trkpt lat="37.8941196296" lon="-2.8895184584">
        <ele>1375.78</ele>
        <time>2017-10-08T15:09:37Z</time>
      </trkpt>
      <trkpt lat="37.8941169474" lon="-2.8895194642">
        <ele>1375.30</ele>
        <time>2017-10-08T15:10:04Z</time>
      </trkpt>
      <trkpt lat="37.8941452783" lon="-2.8895144351">
        <ele>1376.26</ele>
        <time>2017-10-08T15:10:18Z</time>
      </trkpt>
      <trkpt lat="37.8941582702" lon="-2.8895181231">
        <ele>1375.78</ele>
        <time>2017-10-08T15:10:44Z</time>
      </trkpt>
      <trkpt lat="37.8941645566" lon="-2.8894999344">
        <ele>1375.78</ele>
        <time>2017-10-08T15:11:11Z</time>
      </trkpt>
      <trkpt lat="37.8941669036" lon="-2.8895130940">
        <ele>1376.26</ele>
        <time>2017-10-08T15:11:40Z</time>
      </trkpt>
      <trkpt lat="37.8941551689" lon="-2.8895071428">
        <ele>1376.26</ele>
        <time>2017-10-08T15:12:09Z</time>
      </trkpt>
      <trkpt lat="37.8941587731" lon="-2.8894959111">
        <ele>1376.26</ele>
        <time>2017-10-08T15:12:33Z</time>
      </trkpt>
      <trkpt lat="37.8941556718" lon="-2.8895051312">
        <ele>1375.78</ele>
        <time>2017-10-08T15:12:47Z</time>
      </trkpt>
      <trkpt lat="37.8941549174" lon="-2.8895067237">
        <ele>1375.78</ele>
        <time>2017-10-08T15:12:54Z</time>
      </trkpt>
      <trkpt lat="37.8941944800" lon="-2.8894535825">
        <ele>1376.26</ele>
        <time>2017-10-08T15:12:58Z</time>
      </trkpt>
      <trkpt lat="37.8943067975" lon="-2.8892281931">
        <ele>1373.86</ele>
        <time>2017-10-08T15:13:04Z</time>
      </trkpt>
      <trkpt lat="37.8943269979" lon="-2.8891789075">
        <ele>1373.86</ele>
        <time>2017-10-08T15:13:05Z</time>
      </trkpt>
      <trkpt lat="37.8943910357" lon="-2.8890474793">
        <ele>1372.90</ele>
        <time>2017-10-08T15:13:08Z</time>
      </trkpt>
      <trkpt lat="37.8945820592" lon="-2.8888370097">
        <ele>1371.94</ele>
        <time>2017-10-08T15:13:14Z</time>
      </trkpt>
      <trkpt lat="37.8946154192" lon="-2.8887961898">
        <ele>1371.94</ele>
        <time>2017-10-08T15:13:15Z</time>
      </trkpt>
      <trkpt lat="37.8946497012" lon="-2.8887574654">
        <ele>1371.46</ele>
        <time>2017-10-08T15:13:16Z</time>
      </trkpt>
      <trkpt lat="37.8946901020" lon="-2.8887214232">
        <ele>1371.46</ele>
        <time>2017-10-08T15:13:17Z</time>
      </trkpt>
      <trkpt lat="37.8947296645" lon="-2.8886773344">
        <ele>1370.98</ele>
        <time>2017-10-08T15:13:18Z</time>
      </trkpt>
      <trkpt lat="37.8947652876" lon="-2.8886236902">
        <ele>1370.50</ele>
        <time>2017-10-08T15:13:19Z</time>
      </trkpt>
      <trkpt lat="37.8947941214" lon="-2.8885667771">
        <ele>1370.50</ele>
        <time>2017-10-08T15:13:20Z</time>
      </trkpt>
      <trkpt lat="37.8948533814" lon="-2.8883760050">
        <ele>1369.05</ele>
        <time>2017-10-08T15:13:23Z</time>
      </trkpt>
      <trkpt lat="37.8948685527" lon="-2.8883052617">
        <ele>1369.05</ele>
        <time>2017-10-08T15:13:24Z</time>
      </trkpt>
      <trkpt lat="37.8948939499" lon="-2.8882382065">
        <ele>1368.57</ele>
        <time>2017-10-08T15:13:25Z</time>
      </trkpt>
      <trkpt lat="37.8949298244" lon="-2.8881759290">
        <ele>1368.09</ele>
        <time>2017-10-08T15:13:26Z</time>
      </trkpt>
      <trkpt lat="37.8949708119" lon="-2.8881175909">
        <ele>1367.13</ele>
        <time>2017-10-08T15:13:27Z</time>
      </trkpt>
      <trkpt lat="37.8950129729" lon="-2.8880641144">
        <ele>1367.13</ele>
        <time>2017-10-08T15:13:28Z</time>
      </trkpt>
      <trkpt lat="37.8950558044" lon="-2.8880142421">
        <ele>1366.65</ele>
        <time>2017-10-08T15:13:29Z</time>
      </trkpt>
      <trkpt lat="37.8950926010" lon="-2.8879647050">
        <ele>1366.65</ele>
        <time>2017-10-08T15:13:30Z</time>
      </trkpt>
      <trkpt lat="37.8951158188" lon="-2.8879133239">
        <ele>1366.17</ele>
        <time>2017-10-08T15:13:31Z</time>
      </trkpt>
      <trkpt lat="37.8951302357" lon="-2.8878570814">
        <ele>1365.69</ele>
        <time>2017-10-08T15:13:32Z</time>
      </trkpt>
      <trkpt lat="37.8951353487" lon="-2.8877964802">
        <ele>1365.21</ele>
        <time>2017-10-08T15:13:33Z</time>
      </trkpt>
      <trkpt lat="37.8951267153" lon="-2.8877337836">
        <ele>1364.73</ele>
        <time>2017-10-08T15:13:34Z</time>
      </trkpt>
      <trkpt lat="37.8951011505" lon="-2.8876728471">
        <ele>1364.25</ele>
        <time>2017-10-08T15:13:35Z</time>
      </trkpt>
      <trkpt lat="37.8950645216" lon="-2.8876231425">
        <ele>1364.25</ele>
        <time>2017-10-08T15:13:36Z</time>
      </trkpt>
      <trkpt lat="37.8950165771" lon="-2.8875867650">
        <ele>1363.77</ele>
        <time>2017-10-08T15:13:37Z</time>
      </trkpt>
      <trkpt lat="37.8949605022" lon="-2.8875546623">
        <ele>1363.77</ele>
        <time>2017-10-08T15:13:38Z</time>
      </trkpt>
      <trkpt lat="37.8947271500" lon="-2.8874167800">
        <ele>1361.84</ele>
        <time>2017-10-08T15:13:44Z</time>
      </trkpt>
      <trkpt lat="37.8945998289" lon="-2.8873907123">
        <ele>1360.88</ele>
        <time>2017-10-08T15:13:47Z</time>
      </trkpt>
      <trkpt lat="37.8944888525" lon="-2.8873668239">
        <ele>1359.92</ele>
        <time>2017-10-08T15:13:49Z</time>
      </trkpt>
      <trkpt lat="37.8944263235" lon="-2.8873583581">
        <ele>1358.96</ele>
        <time>2017-10-08T15:13:50Z</time>
      </trkpt>
      <trkpt lat="37.8943590168" lon="-2.8873368166">
        <ele>1358.96</ele>
        <time>2017-10-08T15:13:51Z</time>
      </trkpt>
      <trkpt lat="37.8942933865" lon="-2.8873162810">
        <ele>1358.48</ele>
        <time>2017-10-08T15:13:52Z</time>
      </trkpt>
      <trkpt lat="37.8942269180" lon="-2.8873021156">
        <ele>1358.48</ele>
        <time>2017-10-08T15:13:53Z</time>
      </trkpt>
      <trkpt lat="37.8941597790" lon="-2.8872919735">
        <ele>1358.00</ele>
        <time>2017-10-08T15:13:54Z</time>
      </trkpt>
      <trkpt lat="37.8940306138" lon="-2.8872795682">
        <ele>1357.04</ele>
        <time>2017-10-08T15:13:56Z</time>
      </trkpt>
      <trkpt lat="37.8939630557" lon="-2.8872844297">
        <ele>1356.56</ele>
        <time>2017-10-08T15:13:57Z</time>
      </trkpt>
      <trkpt lat="37.8937643208" lon="-2.8873303626">
        <ele>1355.12</ele>
        <time>2017-10-08T15:14:00Z</time>
      </trkpt>
      <trkpt lat="37.8936348204" lon="-2.8873804864">
        <ele>1354.63</ele>
        <time>2017-10-08T15:14:02Z</time>
      </trkpt>
      <trkpt lat="37.8935745545" lon="-2.8874063864">
        <ele>1354.15</ele>
        <time>2017-10-08T15:14:03Z</time>
      </trkpt>
      <trkpt lat="37.8935137857" lon="-2.8874239046">
        <ele>1354.15</ele>
        <time>2017-10-08T15:14:04Z</time>
      </trkpt>
      <trkpt lat="37.8934585489" lon="-2.8874250781">
        <ele>1353.67</ele>
        <time>2017-10-08T15:14:05Z</time>
      </trkpt>
      <trkpt lat="37.8934059944" lon="-2.8874148522">
        <ele>1353.67</ele>
        <time>2017-10-08T15:14:06Z</time>
      </trkpt>
      <trkpt lat="37.8933495004" lon="-2.8873942327">
        <ele>1353.19</ele>
        <time>2017-10-08T15:14:07Z</time>
      </trkpt>
      <trkpt lat="37.8932930902" lon="-2.8873565979">
        <ele>1352.71</ele>
        <time>2017-10-08T15:14:08Z</time>
      </trkpt>
      <trkpt lat="37.8932372667" lon="-2.8873036243">
        <ele>1352.23</ele>
        <time>2017-10-08T15:14:09Z</time>
      </trkpt>
      <trkpt lat="37.8931815270" lon="-2.8872363176">
        <ele>1351.75</ele>
        <time>2017-10-08T15:14:10Z</time>
      </trkpt>
      <trkpt lat="37.8931310680" lon="-2.8871680051">
        <ele>1351.27</ele>
        <time>2017-10-08T15:14:11Z</time>
      </trkpt>
      <trkpt lat="37.8930795193" lon="-2.8871038835">
        <ele>1350.79</ele>
        <time>2017-10-08T15:14:12Z</time>
      </trkpt>
      <trkpt lat="37.8930256236" lon="-2.8870514967">
        <ele>1350.31</ele>
        <time>2017-10-08T15:14:13Z</time>
      </trkpt>
      <trkpt lat="37.8929735720" lon="-2.8870041389">
        <ele>1349.83</ele>
        <time>2017-10-08T15:14:14Z</time>
      </trkpt>
      <trkpt lat="37.8929171618" lon="-2.8869562782">
        <ele>1348.87</ele>
        <time>2017-10-08T15:14:15Z</time>
      </trkpt>
      <trkpt lat="37.8928627633" lon="-2.8869085852">
        <ele>1348.87</ele>
        <time>2017-10-08T15:14:16Z</time>
      </trkpt>
      <trkpt lat="37.8928145673" lon="-2.8868598025">
        <ele>1348.39</ele>
        <time>2017-10-08T15:14:17Z</time>
      </trkpt>
      <trkpt lat="37.8927698918" lon="-2.8868088406">
        <ele>1347.91</ele>
        <time>2017-10-08T15:14:18Z</time>
      </trkpt>
      <trkpt lat="37.8927301615" lon="-2.8867522627">
        <ele>1347.43</ele>
        <time>2017-10-08T15:14:19Z</time>
      </trkpt>
      <trkpt lat="37.8926966339" lon="-2.8866853751">
        <ele>1346.94</ele>
        <time>2017-10-08T15:14:20Z</time>
      </trkpt>
      <trkpt lat="37.8926691413" lon="-2.8866080102">
        <ele>1346.94</ele>
        <time>2017-10-08T15:14:21Z</time>
      </trkpt>
      <trkpt lat="37.8926455043" lon="-2.8865273762">
        <ele>1346.46</ele>
        <time>2017-10-08T15:14:22Z</time>
      </trkpt>
      <trkpt lat="37.8925814666" lon="-2.8863244504">
        <ele>1345.02</ele>
        <time>2017-10-08T15:14:25Z</time>
      </trkpt>
      <trkpt lat="37.8925517946" lon="-2.8862702195">
        <ele>1345.02</ele>
        <time>2017-10-08T15:14:26Z</time>
      </trkpt>
      <trkpt lat="37.8923835699" lon="-2.8860600851">
        <ele>1343.10</ele>
        <time>2017-10-08T15:14:30Z</time>
      </trkpt>
      <trkpt lat="37.8922518902" lon="-2.8859022539">
        <ele>1342.14</ele>
        <time>2017-10-08T15:14:33Z</time>
      </trkpt>
      <trkpt lat="37.8922078852" lon="-2.8858652897">
        <ele>1341.66</ele>
        <time>2017-10-08T15:14:34Z</time>
      </trkpt>
      <trkpt lat="37.8921693284" lon="-2.8858296666">
        <ele>1341.66</ele>
        <time>2017-10-08T15:14:35Z</time>
      </trkpt>
      <trkpt lat="37.8921330348" lon="-2.8857924510">
        <ele>1341.18</ele>
        <time>2017-10-08T15:14:36Z</time>
      </trkpt>
      <trkpt lat="37.8920939751" lon="-2.8857523017">
        <ele>1340.70</ele>
        <time>2017-10-08T15:14:37Z</time>
      </trkpt>
      <trkpt lat="37.8920539934" lon="-2.8857103921">
        <ele>1340.22</ele>
        <time>2017-10-08T15:14:38Z</time>
      </trkpt>
      <trkpt lat="37.8920140956" lon="-2.8856709134">
        <ele>1339.73</ele>
        <time>2017-10-08T15:14:39Z</time>
      </trkpt>
      <trkpt lat="37.8919799812" lon="-2.8856339492">
        <ele>1339.25</ele>
        <time>2017-10-08T15:14:40Z</time>
      </trkpt>
      <trkpt lat="37.8917498980" lon="-2.8853814024">
        <ele>1337.33</ele>
        <time>2017-10-08T15:14:48Z</time>
      </trkpt>
      <trkpt lat="37.8914629854" lon="-2.8850010317">
        <ele>1334.93</ele>
        <time>2017-10-08T15:14:56Z</time>
      </trkpt>
      <trkpt lat="37.8913134523" lon="-2.8847441263">
        <ele>1333.01</ele>
        <time>2017-10-08T15:15:01Z</time>
      </trkpt>
      <trkpt lat="37.8912923299" lon="-2.8846952599">
        <ele>1333.01</ele>
        <time>2017-10-08T15:15:02Z</time>
      </trkpt>
      <trkpt lat="37.8912356682" lon="-2.8846059088">
        <ele>1332.52</ele>
        <time>2017-10-08T15:15:04Z</time>
      </trkpt>
      <trkpt lat="37.8910941817" lon="-2.8844208363">
        <ele>1331.08</ele>
        <time>2017-10-08T15:15:08Z</time>
      </trkpt>
      <trkpt lat="37.8907403816" lon="-2.8841504361">
        <ele>1328.20</ele>
        <time>2017-10-08T15:15:17Z</time>
      </trkpt>
      <trkpt lat="37.8906970471" lon="-2.8841199260">
        <ele>1327.72</ele>
        <time>2017-10-08T15:15:18Z</time>
      </trkpt>
      <trkpt lat="37.8906529583" lon="-2.8840882424">
        <ele>1327.24</ele>
        <time>2017-10-08T15:15:19Z</time>
      </trkpt>
      <trkpt lat="37.8906138148" lon="-2.8840548825">
        <ele>1327.24</ele>
        <time>2017-10-08T15:15:20Z</time>
      </trkpt>
      <trkpt lat="37.8905781917" lon="-2.8840191755">
        <ele>1326.76</ele>
        <time>2017-10-08T15:15:21Z</time>
      </trkpt>
      <trkpt lat="37.8905430716" lon="-2.8839830495">
        <ele>1326.28</ele>
        <time>2017-10-08T15:15:22Z</time>
      </trkpt>
      <trkpt lat="37.8904162534" lon="-2.8838745039">
        <ele>1325.80</ele>
        <time>2017-10-08T15:15:25Z</time>
      </trkpt>
      <trkpt lat="37.8903225437" lon="-2.8838212788">
        <ele>1324.83</ele>
        <time>2017-10-08T15:15:27Z</time>
      </trkpt>
      <trkpt lat="37.8902705759" lon="-2.8838049341">
        <ele>1324.35</ele>
        <time>2017-10-08T15:15:28Z</time>
      </trkpt>
      <trkpt lat="37.8900114074" lon="-2.8837597556">
        <ele>1322.43</ele>
        <time>2017-10-08T15:15:33Z</time>
      </trkpt>
      <trkpt lat="37.8899030294" lon="-2.8837334365">
        <ele>1321.47</ele>
        <time>2017-10-08T15:15:35Z</time>
      </trkpt>
      <trkpt lat="37.8898430150" lon="-2.8837056085">
        <ele>1320.99</ele>
        <time>2017-10-08T15:15:36Z</time>
      </trkpt>
      <trkpt lat="37.8897824138" lon="-2.8836735897">
        <ele>1320.51</ele>
        <time>2017-10-08T15:15:37Z</time>
      </trkpt>
      <trkpt lat="37.8897239920" lon="-2.8836358711">
        <ele>1320.03</ele>
        <time>2017-10-08T15:15:38Z</time>
      </trkpt>
      <trkpt lat="37.8896685876" lon="-2.8835989907">
        <ele>1320.03</ele>
        <time>2017-10-08T15:15:39Z</time>
      </trkpt>
      <trkpt lat="37.8896129318" lon="-2.8835656308">
        <ele>1319.55</ele>
        <time>2017-10-08T15:15:40Z</time>
      </trkpt>
      <trkpt lat="37.8893908113" lon="-2.8834077157">
        <ele>1318.10</ele>
        <time>2017-10-08T15:15:44Z</time>
      </trkpt>
      <trkpt lat="37.8892069124" lon="-2.8832474537">
        <ele>1316.66</ele>
        <time>2017-10-08T15:15:48Z</time>
      </trkpt>
      <trkpt lat="37.8891733848" lon="-2.8832037002">
        <ele>1316.18</ele>
        <time>2017-10-08T15:15:49Z</time>
      </trkpt>
      <trkpt lat="37.8891432099" lon="-2.8831571806">
        <ele>1315.70</ele>
        <time>2017-10-08T15:15:50Z</time>
      </trkpt>
      <trkpt lat="37.8891075868" lon="-2.8831166122">
        <ele>1315.22</ele>
        <time>2017-10-08T15:15:51Z</time>
      </trkpt>
      <trkpt lat="37.8890669346" lon="-2.8830802348">
        <ele>1315.22</ele>
        <time>2017-10-08T15:15:52Z</time>
      </trkpt>
      <trkpt lat="37.8888547886" lon="-2.8828792367">
        <ele>1313.30</ele>
        <time>2017-10-08T15:15:57Z</time>
      </trkpt>
      <trkpt lat="37.8886778466" lon="-2.8827687632">
        <ele>1311.86</ele>
        <time>2017-10-08T15:16:04Z</time>
      </trkpt>
      <trkpt lat="37.8885017429" lon="-2.8826318029">
        <ele>1310.41</ele>
        <time>2017-10-08T15:16:12Z</time>
      </trkpt>
      <trkpt lat="37.8882764373" lon="-2.8825026378">
        <ele>1309.45</ele>
        <time>2017-10-08T15:16:21Z</time>
      </trkpt>
      <trkpt lat="37.8879853338" lon="-2.8822997957">
        <ele>1308.49</ele>
        <time>2017-10-08T15:16:31Z</time>
      </trkpt>
      <trkpt lat="37.8879511356" lon="-2.8823106922">
        <ele>1308.49</ele>
        <time>2017-10-08T15:16:32Z</time>
      </trkpt>
      <trkpt lat="37.8879290912" lon="-2.8823321499">
        <ele>1308.49</ele>
        <time>2017-10-08T15:16:33Z</time>
      </trkpt>
      <trkpt lat="37.8879153449" lon="-2.8823585529">
        <ele>1308.49</ele>
        <time>2017-10-08T15:16:34Z</time>
      </trkpt>
      <trkpt lat="37.8879092261" lon="-2.8823884763">
        <ele>1308.01</ele>
        <time>2017-10-08T15:16:35Z</time>
      </trkpt>
      <trkpt lat="37.8879106510" lon="-2.8824195731">
        <ele>1308.01</ele>
        <time>2017-10-08T15:16:36Z</time>
      </trkpt>
      <trkpt lat="37.8879208770" lon="-2.8824516758">
        <ele>1308.01</ele>
        <time>2017-10-08T15:16:37Z</time>
      </trkpt>
      <trkpt lat="37.8879408259" lon="-2.8824863769">
        <ele>1307.53</ele>
        <time>2017-10-08T15:16:38Z</time>
      </trkpt>
      <trkpt lat="37.8879643790" lon="-2.8825258557">
        <ele>1307.05</ele>
        <time>2017-10-08T15:16:39Z</time>
      </trkpt>
      <trkpt lat="37.8881678917" lon="-2.8828119300">
        <ele>1304.17</ele>
        <time>2017-10-08T15:16:46Z</time>
      </trkpt>
      <trkpt lat="37.8883373737" lon="-2.8830748703">
        <ele>1301.28</ele>
        <time>2017-10-08T15:16:54Z</time>
      </trkpt>
      <trkpt lat="37.8883958794" lon="-2.8831596952">
        <ele>1300.80</ele>
        <time>2017-10-08T15:16:56Z</time>
      </trkpt>
      <trkpt lat="37.8884246293" lon="-2.8832021076">
        <ele>1300.32</ele>
        <time>2017-10-08T15:16:57Z</time>
      </trkpt>
      <trkpt lat="37.8886125516" lon="-2.8834611084">
        <ele>1298.40</ele>
        <time>2017-10-08T15:17:05Z</time>
      </trkpt>
      <trkpt lat="37.8886464145" lon="-2.8835093882">
        <ele>1298.40</ele>
        <time>2017-10-08T15:17:13Z</time>
      </trkpt>
      <trkpt lat="37.8886508569" lon="-2.8835163452">
        <ele>1296.96</ele>
        <time>2017-10-08T15:17:20Z</time>
      </trkpt>
      <trkpt lat="37.8878898639" lon="-2.8822879773">
        <ele>1308.49</ele>
        <time>2017-10-08T15:35:39Z</time>
      </trkpt>
      <trkpt lat="37.8879112378" lon="-2.8822911624">
        <ele>1308.49</ele>
        <time>2017-10-08T15:35:40Z</time>
      </trkpt>
      <trkpt lat="37.8879025206" lon="-2.8823100217">
        <ele>1307.53</ele>
        <time>2017-10-08T15:35:45Z</time>
      </trkpt>
      <trkpt lat="37.8878666461" lon="-2.8822143003">
        <ele>1307.53</ele>
        <time>2017-10-08T15:35:55Z</time>
      </trkpt>
      <trkpt lat="37.8877571784" lon="-2.8820893262">
        <ele>1307.05</ele>
        <time>2017-10-08T15:36:05Z</time>
      </trkpt>
      <trkpt lat="37.8875331301" lon="-2.8818435688">
        <ele>1305.13</ele>
        <time>2017-10-08T15:36:13Z</time>
      </trkpt>
      <trkpt lat="37.8871935792" lon="-2.8814224619">
        <ele>1302.24</ele>
        <time>2017-10-08T15:36:21Z</time>
      </trkpt>
      <trkpt lat="37.8869800922" lon="-2.8811561689">
        <ele>1299.84</ele>
        <time>2017-10-08T15:36:26Z</time>
      </trkpt>
      <trkpt lat="37.8868056647" lon="-2.8809127584">
        <ele>1297.92</ele>
        <time>2017-10-08T15:36:30Z</time>
      </trkpt>
      <trkpt lat="37.8867689520" lon="-2.8808380757">
        <ele>1297.44</ele>
        <time>2017-10-08T15:36:31Z</time>
      </trkpt>
      <trkpt lat="37.8865748271" lon="-2.8803937510">
        <ele>1294.55</ele>
        <time>2017-10-08T15:36:37Z</time>
      </trkpt>
      <trkpt lat="37.8865508549" lon="-2.8803367540">
        <ele>1294.07</ele>
        <time>2017-10-08T15:36:38Z</time>
      </trkpt>
      <trkpt lat="37.8864946123" lon="-2.8802344110">
        <ele>1293.11</ele>
        <time>2017-10-08T15:36:40Z</time>
      </trkpt>
      <trkpt lat="37.8864592407" lon="-2.8801869694">
        <ele>1292.63</ele>
        <time>2017-10-08T15:36:41Z</time>
      </trkpt>
      <trkpt lat="37.8861857392" lon="-2.8798008990">
        <ele>1289.75</ele>
        <time>2017-10-08T15:36:48Z</time>
      </trkpt>
      <trkpt lat="37.8861683886" lon="-2.8797282279">
        <ele>1289.27</ele>
        <time>2017-10-08T15:36:49Z</time>
      </trkpt>
      <trkpt lat="37.8861605935" lon="-2.8796527907">
        <ele>1288.78</ele>
        <time>2017-10-08T15:36:50Z</time>
      </trkpt>
      <trkpt lat="37.8861604258" lon="-2.8795802873">
        <ele>1288.30</ele>
        <time>2017-10-08T15:36:51Z</time>
      </trkpt>
      <trkpt lat="37.8861690592" lon="-2.8795071132">
        <ele>1287.82</ele>
        <time>2017-10-08T15:36:52Z</time>
      </trkpt>
      <trkpt lat="37.8861905169" lon="-2.8794343583">
        <ele>1287.34</ele>
        <time>2017-10-08T15:36:53Z</time>
      </trkpt>
      <trkpt lat="37.8862143215" lon="-2.8793620225">
        <ele>1287.34</ele>
        <time>2017-10-08T15:36:54Z</time>
      </trkpt>
      <trkpt lat="37.8862429876" lon="-2.8792953026">
        <ele>1286.86</ele>
        <time>2017-10-08T15:36:55Z</time>
      </trkpt>
      <trkpt lat="37.8862742521" lon="-2.8792316839">
        <ele>1286.38</ele>
        <time>2017-10-08T15:36:56Z</time>
      </trkpt>
      <trkpt lat="37.8863839712" lon="-2.8789845016">
        <ele>1285.42</ele>
        <time>2017-10-08T15:37:00Z</time>
      </trkpt>
      <trkpt lat="37.8864091169" lon="-2.8789259121">
        <ele>1284.94</ele>
        <time>2017-10-08T15:37:01Z</time>
      </trkpt>
      <trkpt lat="37.8865474183" lon="-2.8786277678">
        <ele>1283.98</ele>
        <time>2017-10-08T15:37:06Z</time>
      </trkpt>
      <trkpt lat="37.8865699656" lon="-2.8785695974">
        <ele>1283.50</ele>
        <time>2017-10-08T15:37:07Z</time>
      </trkpt>
      <trkpt lat="37.8866988793" lon="-2.8783069085">
        <ele>1282.54</ele>
        <time>2017-10-08T15:37:12Z</time>
      </trkpt>
      <trkpt lat="37.8867230192" lon="-2.8782579582">
        <ele>1282.06</ele>
        <time>2017-10-08T15:37:13Z</time>
      </trkpt>
      <trkpt lat="37.8867479973" lon="-2.8782059066">
        <ele>1282.06</ele>
        <time>2017-10-08T15:37:14Z</time>
      </trkpt>
      <trkpt lat="37.8868285473" lon="-2.8780383524">
        <ele>1281.57</ele>
        <time>2017-10-08T15:37:17Z</time>
      </trkpt>
      <trkpt lat="37.8868480772" lon="-2.8779789247">
        <ele>1281.09</ele>
        <time>2017-10-08T15:37:18Z</time>
      </trkpt>
      <trkpt lat="37.8868595604" lon="-2.8779166471">
        <ele>1281.09</ele>
        <time>2017-10-08T15:37:19Z</time>
      </trkpt>
      <trkpt lat="37.8868638352" lon="-2.8778520226">
        <ele>1280.61</ele>
        <time>2017-10-08T15:37:20Z</time>
      </trkpt>
      <trkpt lat="37.8868572135" lon="-2.8777857218">
        <ele>1280.13</ele>
        <time>2017-10-08T15:37:21Z</time>
      </trkpt>
      <trkpt lat="37.8868427128" lon="-2.8777209297">
        <ele>1280.13</ele>
        <time>2017-10-08T15:37:22Z</time>
      </trkpt>
      <trkpt lat="37.8868206684" lon="-2.8776624240">
        <ele>1280.61</ele>
        <time>2017-10-08T15:37:23Z</time>
      </trkpt>
      <trkpt lat="37.8867981210" lon="-2.8776097856">
        <ele>1280.13</ele>
        <time>2017-10-08T15:37:24Z</time>
      </trkpt>
      <trkpt lat="37.8867738973" lon="-2.8775596619">
        <ele>1280.13</ele>
        <time>2017-10-08T15:37:25Z</time>
      </trkpt>
      <trkpt lat="37.8867451474" lon="-2.8775151540">
        <ele>1279.65</ele>
        <time>2017-10-08T15:37:26Z</time>
      </trkpt>
      <trkpt lat="37.8865376953" lon="-2.8772501182">
        <ele>1279.65</ele>
        <time>2017-10-08T15:37:34Z</time>
      </trkpt>
      <trkpt lat="37.8864764236" lon="-2.8771776985">
        <ele>1279.65</ele>
        <time>2017-10-08T15:37:41Z</time>
      </trkpt>
      <trkpt lat="37.8864910081" lon="-2.8772041015">
        <ele>1279.65</ele>
        <time>2017-10-08T15:37:48Z</time>
      </trkpt>
      <trkpt lat="37.8865004797" lon="-2.8772139922">
        <ele>1279.65</ele>
        <time>2017-10-08T15:37:49Z</time>
      </trkpt>
      <trkpt lat="37.8865117114" lon="-2.8772244696">
        <ele>1279.65</ele>
        <time>2017-10-08T15:37:50Z</time>
      </trkpt>
      <trkpt lat="37.8865266312" lon="-2.8772338573">
        <ele>1279.17</ele>
        <time>2017-10-08T15:37:51Z</time>
      </trkpt>
      <trkpt lat="37.8865438979" lon="-2.8772492800">
        <ele>1279.17</ele>
        <time>2017-10-08T15:37:52Z</time>
      </trkpt>
      <trkpt lat="37.8865692113" lon="-2.8772764374">
        <ele>1279.17</ele>
        <time>2017-10-08T15:37:53Z</time>
      </trkpt>
      <trkpt lat="37.8865928482" lon="-2.8773101326">
        <ele>1279.17</ele>
        <time>2017-10-08T15:37:54Z</time>
      </trkpt>
      <trkpt lat="37.8866174072" lon="-2.8773435764">
        <ele>1279.17</ele>
        <time>2017-10-08T15:37:55Z</time>
      </trkpt>
      <trkpt lat="37.8866475821" lon="-2.8773761820">
        <ele>1279.17</ele>
        <time>2017-10-08T15:37:56Z</time>
      </trkpt>
      <trkpt lat="37.8866780084" lon="-2.8774175886">
        <ele>1279.17</ele>
        <time>2017-10-08T15:37:57Z</time>
      </trkpt>
      <trkpt lat="37.8867101111" lon="-2.8774641920">
        <ele>1279.65</ele>
        <time>2017-10-08T15:37:58Z</time>
      </trkpt>
      <trkpt lat="37.8868176509" lon="-2.8776574787">
        <ele>1280.61</ele>
        <time>2017-10-08T15:38:02Z</time>
      </trkpt>
      <trkpt lat="37.8868338279" lon="-2.8777111229">
        <ele>1280.61</ele>
        <time>2017-10-08T15:38:03Z</time>
      </trkpt>
      <trkpt lat="37.8868431319" lon="-2.8777636774">
        <ele>1280.61</ele>
        <time>2017-10-08T15:38:04Z</time>
      </trkpt>
      <trkpt lat="37.8868655115" lon="-2.8779238556">
        <ele>1280.13</ele>
        <time>2017-10-08T15:38:11Z</time>
      </trkpt>
      <trkpt lat="37.8868581355" lon="-2.8779472411">
        <ele>1280.61</ele>
        <time>2017-10-08T15:38:25Z</time>
      </trkpt>
      <trkpt lat="37.8868565429" lon="-2.8779506776">
        <ele>1276.29</ele>
        <time>2017-10-08T15:38:27Z</time>
      </trkpt>
      <trkpt lat="37.8868565429" lon="-2.8779506776">
        <ele>1280.61</ele>
        <time>2017-10-08T15:38:28Z</time>
      </trkpt>
      <trkpt lat="37.8868580516" lon="-2.8779513482">
        <ele>1280.61</ele>
        <time>2017-10-08T15:38:44Z</time>
      </trkpt>
      <trkpt lat="37.8868453950" lon="-2.8779393621">
        <ele>1280.13</ele>
        <time>2017-10-08T15:38:51Z</time>
      </trkpt>
      <trkpt lat="37.8868453111" lon="-2.8779162280">
        <ele>1280.61</ele>
        <time>2017-10-08T15:38:52Z</time>
      </trkpt>
      <trkpt lat="37.8868478257" lon="-2.8778873943">
        <ele>1280.61</ele>
        <time>2017-10-08T15:38:53Z</time>
      </trkpt>
      <trkpt lat="37.8867877275" lon="-2.8775822930">
        <ele>1279.65</ele>
        <time>2017-10-08T15:39:02Z</time>
      </trkpt>
      <trkpt lat="37.8866230231" lon="-2.8773179278">
        <ele>1279.65</ele>
        <time>2017-10-08T15:39:11Z</time>
      </trkpt>
      <trkpt lat="37.8864246234" lon="-2.8770443425">
        <ele>1279.17</ele>
        <time>2017-10-08T15:39:20Z</time>
      </trkpt>
      <trkpt lat="37.8862883337" lon="-2.8768469486">
        <ele>1279.65</ele>
        <time>2017-10-08T15:39:27Z</time>
      </trkpt>
      <trkpt lat="37.8861584142" lon="-2.8766297735">
        <ele>1280.61</ele>
        <time>2017-10-08T15:39:35Z</time>
      </trkpt>
      <trkpt lat="37.8860911913" lon="-2.8765622992">
        <ele>1281.57</ele>
        <time>2017-10-08T15:39:40Z</time>
      </trkpt>
      <trkpt lat="37.8859560750" lon="-2.8764642309">
        <ele>1282.54</ele>
        <time>2017-10-08T15:39:49Z</time>
      </trkpt>
      <trkpt lat="37.8857637104" lon="-2.8764186334">
        <ele>1283.50</ele>
        <time>2017-10-08T15:39:58Z</time>
      </trkpt>
      <trkpt lat="37.8856405802" lon="-2.8764281888">
        <ele>1283.98</ele>
        <time>2017-10-08T15:40:04Z</time>
      </trkpt>
      <trkpt lat="37.8855689988" lon="-2.8764586151">
        <ele>1283.98</ele>
        <time>2017-10-08T15:40:07Z</time>
      </trkpt>
      <trkpt lat="37.8855391592" lon="-2.8764648177">
        <ele>1283.98</ele>
        <time>2017-10-08T15:40:08Z</time>
      </trkpt>
      <trkpt lat="37.8855146002" lon="-2.8764770553">
        <ele>1283.98</ele>
        <time>2017-10-08T15:40:09Z</time>
      </trkpt>
      <trkpt lat="37.8854896221" lon="-2.8764916398">
        <ele>1284.46</ele>
        <time>2017-10-08T15:40:10Z</time>
      </trkpt>
      <trkpt lat="37.8854653146" lon="-2.8765058052">
        <ele>1284.46</ele>
        <time>2017-10-08T15:40:11Z</time>
      </trkpt>
      <trkpt lat="37.8853265941" lon="-2.8765832540">
        <ele>1284.46</ele>
        <time>2017-10-08T15:40:17Z</time>
      </trkpt>
      <trkpt lat="37.8853033762" lon="-2.8765975032">
        <ele>1284.46</ele>
        <time>2017-10-08T15:40:18Z</time>
      </trkpt>
      <trkpt lat="37.8852776438" lon="-2.8766125906">
        <ele>1284.46</ele>
        <time>2017-10-08T15:40:19Z</time>
      </trkpt>
      <trkpt lat="37.8852519952" lon="-2.8766279295">
        <ele>1284.46</ele>
        <time>2017-10-08T15:40:20Z</time>
      </trkpt>
      <trkpt lat="37.8852265142" lon="-2.8766398318">
        <ele>1284.46</ele>
        <time>2017-10-08T15:40:21Z</time>
      </trkpt>
      <trkpt lat="37.8851927351" lon="-2.8766460344">
        <ele>1284.46</ele>
        <time>2017-10-08T15:40:22Z</time>
      </trkpt>
      <trkpt lat="37.8851616383" lon="-2.8766553383">
        <ele>1284.46</ele>
        <time>2017-10-08T15:40:23Z</time>
      </trkpt>
      <trkpt lat="37.8851337265" lon="-2.8766660672">
        <ele>1284.46</ele>
        <time>2017-10-08T15:40:24Z</time>
      </trkpt>
      <trkpt lat="37.8851084970" lon="-2.8766794782">
        <ele>1284.94</ele>
        <time>2017-10-08T15:40:25Z</time>
      </trkpt>
      <trkpt lat="37.8850794956" lon="-2.8766932245">
        <ele>1284.94</ele>
        <time>2017-10-08T15:40:26Z</time>
      </trkpt>
      <trkpt lat="37.8849835228" lon="-2.8767852578">
        <ele>1284.94</ele>
        <time>2017-10-08T15:40:31Z</time>
      </trkpt>
      <trkpt lat="37.8849621490" lon="-2.8768001776">
        <ele>1284.94</ele>
        <time>2017-10-08T15:40:32Z</time>
      </trkpt>
      <trkpt lat="37.8849415295" lon="-2.8768159356">
        <ele>1284.94</ele>
        <time>2017-10-08T15:40:33Z</time>
      </trkpt>
      <trkpt lat="37.8849178087" lon="-2.8768296819">
        <ele>1284.94</ele>
        <time>2017-10-08T15:40:34Z</time>
      </trkpt>
      <trkpt lat="37.8848957643" lon="-2.8768433444">
        <ele>1284.94</ele>
        <time>2017-10-08T15:40:35Z</time>
      </trkpt>
      <trkpt lat="37.8848783299" lon="-2.8768611141">
        <ele>1284.94</ele>
        <time>2017-10-08T15:40:36Z</time>
      </trkpt>
      <trkpt lat="37.8848635778" lon="-2.8768795542">
        <ele>1284.94</ele>
        <time>2017-10-08T15:40:37Z</time>
      </trkpt>
      <trkpt lat="37.8848522622" lon="-2.8769005928">
        <ele>1284.94</ele>
        <time>2017-10-08T15:40:38Z</time>
      </trkpt>
      <trkpt lat="37.8848273680" lon="-2.8769199550">
        <ele>1284.94</ele>
        <time>2017-10-08T15:40:39Z</time>
      </trkpt>
      <trkpt lat="37.8847996239" lon="-2.8769416641">
        <ele>1284.94</ele>
        <time>2017-10-08T15:40:40Z</time>
      </trkpt>
      <trkpt lat="37.8847668506" lon="-2.8769611940">
        <ele>1284.94</ele>
        <time>2017-10-08T15:40:41Z</time>
      </trkpt>
      <trkpt lat="37.8847430460" lon="-2.8769818135">
        <ele>1284.94</ele>
        <time>2017-10-08T15:40:42Z</time>
      </trkpt>
      <trkpt lat="37.8844977915" lon="-2.8771657124">
        <ele>1285.90</ele>
        <time>2017-10-08T15:40:52Z</time>
      </trkpt>
      <trkpt lat="37.8842532076" lon="-2.8773025051">
        <ele>1285.90</ele>
        <time>2017-10-08T15:41:01Z</time>
      </trkpt>
      <trkpt lat="37.8840294108" lon="-2.8774930257">
        <ele>1286.86</ele>
        <time>2017-10-08T15:41:11Z</time>
      </trkpt>
      <trkpt lat="37.8837694880" lon="-2.8777497634">
        <ele>1287.34</ele>
        <time>2017-10-08T15:41:23Z</time>
      </trkpt>
      <trkpt lat="37.8837113176" lon="-2.8777903318">
        <ele>1287.34</ele>
        <time>2017-10-08T15:41:26Z</time>
      </trkpt>
      <trkpt lat="37.8836968169" lon="-2.8777998872">
        <ele>1287.82</ele>
        <time>2017-10-08T15:41:27Z</time>
      </trkpt>
      <trkpt lat="37.8836819809" lon="-2.8778112866">
        <ele>1287.82</ele>
        <time>2017-10-08T15:41:28Z</time>
      </trkpt>
      <trkpt lat="37.8836610261" lon="-2.8778159805">
        <ele>1287.82</ele>
        <time>2017-10-08T15:41:29Z</time>
      </trkpt>
      <trkpt lat="37.8836433403" lon="-2.8778237756">
        <ele>1287.82</ele>
        <time>2017-10-08T15:41:30Z</time>
      </trkpt>
      <trkpt lat="37.8836285882" lon="-2.8778350912">
        <ele>1287.82</ele>
        <time>2017-10-08T15:41:31Z</time>
      </trkpt>
      <trkpt lat="37.8836113214" lon="-2.8778410424">
        <ele>1288.30</ele>
        <time>2017-10-08T15:41:32Z</time>
      </trkpt>
      <trkpt lat="37.8835958987" lon="-2.8778448980">
        <ele>1287.82</ele>
        <time>2017-10-08T15:41:33Z</time>
      </trkpt>
      <trkpt lat="37.8835470323" lon="-2.8778660204">
        <ele>1288.30</ele>
        <time>2017-10-08T15:41:36Z</time>
      </trkpt>
      <trkpt lat="37.8835330345" lon="-2.8778792638">
        <ele>1288.30</ele>
        <time>2017-10-08T15:41:37Z</time>
      </trkpt>
      <trkpt lat="37.8835140076" lon="-2.8778879810">
        <ele>1289.27</ele>
        <time>2017-10-08T15:41:38Z</time>
      </trkpt>
      <trkpt lat="37.8834459465" lon="-2.8779023979">
        <ele>1285.90</ele>
        <time>2017-10-08T15:41:41Z</time>
      </trkpt>
      <trkpt lat="37.8834233154" lon="-2.8779096063">
        <ele>1290.71</ele>
        <time>2017-10-08T15:41:42Z</time>
      </trkpt>
      <trkpt lat="37.8832486365" lon="-2.8779556230">
        <ele>1289.75</ele>
        <time>2017-10-08T15:41:51Z</time>
      </trkpt>
      <trkpt lat="37.8830593731" lon="-2.8779977839">
        <ele>1290.71</ele>
        <time>2017-10-08T15:42:00Z</time>
      </trkpt>
      <trkpt lat="37.8828652482" lon="-2.8780117817">
        <ele>1292.15</ele>
        <time>2017-10-08T15:42:09Z</time>
      </trkpt>
      <trkpt lat="37.8828486521" lon="-2.8780163918">
        <ele>1292.15</ele>
        <time>2017-10-08T15:42:10Z</time>
      </trkpt>
      <trkpt lat="37.8828285355" lon="-2.8780168109">
        <ele>1292.15</ele>
        <time>2017-10-08T15:42:11Z</time>
      </trkpt>
      <trkpt lat="37.8828068264" lon="-2.8780159727">
        <ele>1292.15</ele>
        <time>2017-10-08T15:42:12Z</time>
      </trkpt>
      <trkpt lat="37.8827845305" lon="-2.8780164756">
        <ele>1292.15</ele>
        <time>2017-10-08T15:42:13Z</time>
      </trkpt>
      <trkpt lat="37.8827626538" lon="-2.8780191578">
        <ele>1292.63</ele>
        <time>2017-10-08T15:42:14Z</time>
      </trkpt>
      <trkpt lat="37.8827416152" lon="-2.8780224267">
        <ele>1292.63</ele>
        <time>2017-10-08T15:42:15Z</time>
      </trkpt>
      <trkpt lat="37.8827209119" lon="-2.8780246060">
        <ele>1292.63</ele>
        <time>2017-10-08T15:42:16Z</time>
      </trkpt>
      <trkpt lat="37.8827025555" lon="-2.8780293837">
        <ele>1292.63</ele>
        <time>2017-10-08T15:42:17Z</time>
      </trkpt>
      <trkpt lat="37.8825028148" lon="-2.8781116102">
        <ele>1293.59</ele>
        <time>2017-10-08T15:42:28Z</time>
      </trkpt>
      <trkpt lat="37.8824137151" lon="-2.8782525100">
        <ele>1295.51</ele>
        <time>2017-10-08T15:42:37Z</time>
      </trkpt>
      <trkpt lat="37.8823177423" lon="-2.8784245905">
        <ele>1296.96</ele>
        <time>2017-10-08T15:42:48Z</time>
      </trkpt>
      <trkpt lat="37.8823096119" lon="-2.8784415219">
        <ele>1297.44</ele>
        <time>2017-10-08T15:42:49Z</time>
      </trkpt>
      <trkpt lat="37.8823027387" lon="-2.8784591239">
        <ele>1297.44</ele>
        <time>2017-10-08T15:42:50Z</time>
      </trkpt>
      <trkpt lat="37.8822927643" lon="-2.8784762230">
        <ele>1297.92</ele>
        <time>2017-10-08T15:42:51Z</time>
      </trkpt>
      <trkpt lat="37.8822803590" lon="-2.8784929030">
        <ele>1297.92</ele>
        <time>2017-10-08T15:42:52Z</time>
      </trkpt>
      <trkpt lat="37.8822686244" lon="-2.8785155341">
        <ele>1297.92</ele>
        <time>2017-10-08T15:42:53Z</time>
      </trkpt>
      <trkpt lat="37.8822603263" lon="-2.8785415180">
        <ele>1297.92</ele>
        <time>2017-10-08T15:42:54Z</time>
      </trkpt>
      <trkpt lat="37.8822481725" lon="-2.8785651550">
        <ele>1298.40</ele>
        <time>2017-10-08T15:42:55Z</time>
      </trkpt>
      <trkpt lat="37.8822338395" lon="-2.8785873670">
        <ele>1298.40</ele>
        <time>2017-10-08T15:42:56Z</time>
      </trkpt>
      <trkpt lat="37.8821103740" lon="-2.8786698449">
        <ele>1299.36</ele>
        <time>2017-10-08T15:43:03Z</time>
      </trkpt>
      <trkpt lat="37.8820915148" lon="-2.8786699288">
        <ele>1299.36</ele>
        <time>2017-10-08T15:43:04Z</time>
      </trkpt>
      <trkpt lat="37.8820736613" lon="-2.8786714375">
        <ele>1299.36</ele>
        <time>2017-10-08T15:43:05Z</time>
      </trkpt>
      <trkpt lat="37.8820533771" lon="-2.8786711022">
        <ele>1299.84</ele>
        <time>2017-10-08T15:43:06Z</time>
      </trkpt>
      <trkpt lat="37.8820340987" lon="-2.8786676656">
        <ele>1299.84</ele>
        <time>2017-10-08T15:43:07Z</time>
      </trkpt>
      <trkpt lat="37.8819031734" lon="-2.8785457928">
        <ele>1300.32</ele>
        <time>2017-10-08T15:43:15Z</time>
      </trkpt>
      <trkpt lat="37.8818319272" lon="-2.8782218322">
        <ele>1300.80</ele>
        <time>2017-10-08T15:43:26Z</time>
      </trkpt>
      <trkpt lat="37.8818050213" lon="-2.8779593948">
        <ele>1301.76</ele>
        <time>2017-10-08T15:43:34Z</time>
      </trkpt>
      <trkpt lat="37.8817700688" lon="-2.8774621803">
        <ele>1300.32</ele>
        <time>2017-10-08T15:43:45Z</time>
      </trkpt>
      <trkpt lat="37.8817588370" lon="-2.8773114737">
        <ele>1300.32</ele>
        <time>2017-10-08T15:43:48Z</time>
      </trkpt>
      <trkpt lat="37.8817631956" lon="-2.8772604279">
        <ele>1299.84</ele>
        <time>2017-10-08T15:43:49Z</time>
      </trkpt>
      <trkpt lat="37.8817719966" lon="-2.8772114776">
        <ele>1299.84</ele>
        <time>2017-10-08T15:43:50Z</time>
      </trkpt>
      <trkpt lat="37.8817841504" lon="-2.8771651257">
        <ele>1299.84</ele>
        <time>2017-10-08T15:43:51Z</time>
      </trkpt>
      <trkpt lat="37.8818016686" lon="-2.8771228809">
        <ele>1299.84</ele>
        <time>2017-10-08T15:43:52Z</time>
      </trkpt>
      <trkpt lat="37.8818175104" lon="-2.8770797141">
        <ele>1299.84</ele>
        <time>2017-10-08T15:43:53Z</time>
      </trkpt>
      <trkpt lat="37.8818291612" lon="-2.8770372178">
        <ele>1299.84</ele>
        <time>2017-10-08T15:43:54Z</time>
      </trkpt>
      <trkpt lat="37.8818400577" lon="-2.8769995831">
        <ele>1299.84</ele>
        <time>2017-10-08T15:43:55Z</time>
      </trkpt>
      <trkpt lat="37.8818508703" lon="-2.8769653011">
        <ele>1300.32</ele>
        <time>2017-10-08T15:43:56Z</time>
      </trkpt>
      <trkpt lat="37.8818620183" lon="-2.8769320250">
        <ele>1300.32</ele>
        <time>2017-10-08T15:43:57Z</time>
      </trkpt>
      <trkpt lat="37.8818745073" lon="-2.8768990003">
        <ele>1300.80</ele>
        <time>2017-10-08T15:43:58Z</time>
      </trkpt>
      <trkpt lat="37.8820089530" lon="-2.8765220661">
        <ele>1301.28</ele>
        <time>2017-10-08T15:44:09Z</time>
      </trkpt>
      <trkpt lat="37.8820035048" lon="-2.8763312940">
        <ele>1302.24</ele>
        <time>2017-10-08T15:44:18Z</time>
      </trkpt>
      <trkpt lat="37.8820015769" lon="-2.8763190564">
        <ele>1302.24</ele>
        <time>2017-10-08T15:44:19Z</time>
      </trkpt>
      <trkpt lat="37.8819962125" lon="-2.8763061482">
        <ele>1302.72</ele>
        <time>2017-10-08T15:44:20Z</time>
      </trkpt>
      <trkpt lat="37.8819981404" lon="-2.8762889653">
        <ele>1302.72</ele>
        <time>2017-10-08T15:44:21Z</time>
      </trkpt>
      <trkpt lat="37.8820019960" lon="-2.8762706090">
        <ele>1302.72</ele>
        <time>2017-10-08T15:44:22Z</time>
      </trkpt>
      <trkpt lat="37.8820054326" lon="-2.8762514144">
        <ele>1302.72</ele>
        <time>2017-10-08T15:44:23Z</time>
      </trkpt>
      <trkpt lat="37.8820056841" lon="-2.8762311302">
        <ele>1302.72</ele>
        <time>2017-10-08T15:44:24Z</time>
      </trkpt>
      <trkpt lat="37.8820038401" lon="-2.8762092534">
        <ele>1303.20</ele>
        <time>2017-10-08T15:44:25Z</time>
      </trkpt>
      <trkpt lat="37.8820344340" lon="-2.8760150447">
        <ele>1303.69</ele>
        <time>2017-10-08T15:44:34Z</time>
      </trkpt>
      <trkpt lat="37.8820586577" lon="-2.8758238535">
        <ele>1304.65</ele>
        <time>2017-10-08T15:44:43Z</time>
      </trkpt>
      <trkpt lat="37.8820639383" lon="-2.8757557087">
        <ele>1305.13</ele>
        <time>2017-10-08T15:44:46Z</time>
      </trkpt>
      <trkpt lat="37.8820735775" lon="-2.8757342510">
        <ele>1305.13</ele>
        <time>2017-10-08T15:44:47Z</time>
      </trkpt>
      <trkpt lat="37.8820793610" lon="-2.8757114522">
        <ele>1304.65</ele>
        <time>2017-10-08T15:44:48Z</time>
      </trkpt>
      <trkpt lat="37.8820807859" lon="-2.8756909166">
        <ele>1305.13</ele>
        <time>2017-10-08T15:44:49Z</time>
      </trkpt>
      <trkpt lat="37.8820808697" lon="-2.8756696265">
        <ele>1305.13</ele>
        <time>2017-10-08T15:44:50Z</time>
      </trkpt>
      <trkpt lat="37.8821442369" lon="-2.8754048422">
        <ele>1305.61</ele>
        <time>2017-10-08T15:45:01Z</time>
      </trkpt>
      <trkpt lat="37.8823338356" lon="-2.8752112202">
        <ele>1307.05</ele>
        <time>2017-10-08T15:45:13Z</time>
      </trkpt>
      <trkpt lat="37.8825091850" lon="-2.8750559874">
        <ele>1307.05</ele>
        <time>2017-10-08T15:45:24Z</time>
      </trkpt>
      <trkpt lat="37.8826509230" lon="-2.8748456016">
        <ele>1307.53</ele>
        <time>2017-10-08T15:45:33Z</time>
      </trkpt>
      <trkpt lat="37.8828428686" lon="-2.8745288495">
        <ele>1308.97</ele>
        <time>2017-10-08T15:45:45Z</time>
      </trkpt>
      <trkpt lat="37.8828858677" lon="-2.8745005187">
        <ele>1308.97</ele>
        <time>2017-10-08T15:45:47Z</time>
      </trkpt>
      <trkpt lat="37.8829103429" lon="-2.8744943999">
        <ele>1308.97</ele>
        <time>2017-10-08T15:45:48Z</time>
      </trkpt>
      <trkpt lat="37.8831549268" lon="-2.8743498120">
        <ele>1309.45</ele>
        <time>2017-10-08T15:45:59Z</time>
      </trkpt>
      <trkpt lat="37.8833864350" lon="-2.8741242550">
        <ele>1310.41</ele>
        <time>2017-10-08T15:46:11Z</time>
      </trkpt>
      <trkpt lat="37.8835699148" lon="-2.8739275318">
        <ele>1312.34</ele>
        <time>2017-10-08T15:46:22Z</time>
      </trkpt>
      <trkpt lat="37.8836840764" lon="-2.8737219237">
        <ele>1313.78</ele>
        <time>2017-10-08T15:46:33Z</time>
      </trkpt>
      <trkpt lat="37.8836925421" lon="-2.8737006336">
        <ele>1313.78</ele>
        <time>2017-10-08T15:46:34Z</time>
      </trkpt>
      <trkpt lat="37.8837029357" lon="-2.8736832831">
        <ele>1313.78</ele>
        <time>2017-10-08T15:46:35Z</time>
      </trkpt>
      <trkpt lat="37.8837120719" lon="-2.8736629989">
        <ele>1313.78</ele>
        <time>2017-10-08T15:46:36Z</time>
      </trkpt>
      <trkpt lat="37.8837198671" lon="-2.8736376017">
        <ele>1314.26</ele>
        <time>2017-10-08T15:46:37Z</time>
      </trkpt>
      <trkpt lat="37.8837283328" lon="-2.8736135457">
        <ele>1314.26</ele>
        <time>2017-10-08T15:46:38Z</time>
      </trkpt>
      <trkpt lat="37.8837490361" lon="-2.8733609989">
        <ele>1315.70</ele>
        <time>2017-10-08T15:46:49Z</time>
      </trkpt>
      <trkpt lat="37.8836567514" lon="-2.8731532115">
        <ele>1316.66</ele>
        <time>2017-10-08T15:46:59Z</time>
      </trkpt>
      <trkpt lat="37.8836721741" lon="-2.8729046881">
        <ele>1318.59</ele>
        <time>2017-10-08T15:47:10Z</time>
      </trkpt>
      <trkpt lat="37.8838128224" lon="-2.8727866709">
        <ele>1320.03</ele>
        <time>2017-10-08T15:47:20Z</time>
      </trkpt>
      <trkpt lat="37.8839961346" lon="-2.8726973198">
        <ele>1321.95</ele>
        <time>2017-10-08T15:47:31Z</time>
      </trkpt>
      <trkpt lat="37.8840824682" lon="-2.8726563323">
        <ele>1319.55</ele>
        <time>2017-10-08T15:47:37Z</time>
      </trkpt>
      <trkpt lat="37.8840988968" lon="-2.8726533148">
        <ele>1323.87</ele>
        <time>2017-10-08T15:47:38Z</time>
      </trkpt>
      <trkpt lat="37.8841457516" lon="-2.8726292588">
        <ele>1322.43</ele>
        <time>2017-10-08T15:47:41Z</time>
      </trkpt>
      <trkpt lat="37.8843416367" lon="-2.8725535702">
        <ele>1323.87</ele>
        <time>2017-10-08T15:47:53Z</time>
      </trkpt>
      <trkpt lat="37.8845198359" lon="-2.8724723496">
        <ele>1324.83</ele>
        <time>2017-10-08T15:48:04Z</time>
      </trkpt>
      <trkpt lat="37.8847167268" lon="-2.8722940665">
        <ele>1326.76</ele>
        <time>2017-10-08T15:48:17Z</time>
      </trkpt>
      <trkpt lat="37.8848370910" lon="-2.8722232394">
        <ele>1328.20</ele>
        <time>2017-10-08T15:48:24Z</time>
      </trkpt>
      <trkpt lat="37.8848510049" lon="-2.8722113371">
        <ele>1328.20</ele>
        <time>2017-10-08T15:48:25Z</time>
      </trkpt>
      <trkpt lat="37.8848644160" lon="-2.8721983451">
        <ele>1328.20</ele>
        <time>2017-10-08T15:48:26Z</time>
      </trkpt>
      <trkpt lat="37.8848781623" lon="-2.8721844312">
        <ele>1328.20</ele>
        <time>2017-10-08T15:48:27Z</time>
      </trkpt>
      <trkpt lat="37.8848944232" lon="-2.8721770551">
        <ele>1328.20</ele>
        <time>2017-10-08T15:48:28Z</time>
      </trkpt>
      <trkpt lat="37.8849118575" lon="-2.8721698467">
        <ele>1328.68</ele>
        <time>2017-10-08T15:48:29Z</time>
      </trkpt>
      <trkpt lat="37.8850464709" lon="-2.8721126821">
        <ele>1329.64</ele>
        <time>2017-10-08T15:48:38Z</time>
      </trkpt>
      <trkpt lat="37.8850582894" lon="-2.8720975108">
        <ele>1329.64</ele>
        <time>2017-10-08T15:48:39Z</time>
      </trkpt>
      <trkpt lat="37.8851877060" lon="-2.8720113449">
        <ele>1330.60</ele>
        <time>2017-10-08T15:48:48Z</time>
      </trkpt>
      <trkpt lat="37.8852002788" lon="-2.8719981853">
        <ele>1330.60</ele>
        <time>2017-10-08T15:48:49Z</time>
      </trkpt>
      <trkpt lat="37.8852944076" lon="-2.8718007915">
        <ele>1331.56</ele>
        <time>2017-10-08T15:49:00Z</time>
      </trkpt>
      <trkpt lat="37.8853655700" lon="-2.8715501726">
        <ele>1333.01</ele>
        <time>2017-10-08T15:49:12Z</time>
      </trkpt>
      <trkpt lat="37.8853801545" lon="-2.8714837041">
        <ele>1333.49</ele>
        <time>2017-10-08T15:49:15Z</time>
      </trkpt>
      <trkpt lat="37.8853782266" lon="-2.8713898268">
        <ele>1333.97</ele>
        <time>2017-10-08T15:49:19Z</time>
      </trkpt>
      <trkpt lat="37.8853412624" lon="-2.8713058401">
        <ele>1333.97</ele>
        <time>2017-10-08T15:49:31Z</time>
      </trkpt>
      <trkpt lat="37.8853267618" lon="-2.8712949436">
        <ele>1334.45</ele>
        <time>2017-10-08T15:49:57Z</time>
      </trkpt>
      <trkpt lat="37.8853181284" lon="-2.8713041637">
        <ele>1334.45</ele>
        <time>2017-10-08T15:50:24Z</time>
      </trkpt>
      <trkpt lat="37.8853213973" lon="-2.8712894116">
        <ele>1334.45</ele>
        <time>2017-10-08T15:50:50Z</time>
      </trkpt>
      <trkpt lat="37.8853249177" lon="-2.8712712228">
        <ele>1334.45</ele>
        <time>2017-10-08T15:51:04Z</time>
      </trkpt>
      <trkpt lat="37.8853247501" lon="-2.8712620866">
        <ele>1334.45</ele>
        <time>2017-10-08T15:51:17Z</time>
      </trkpt>
      <trkpt lat="37.8851955011" lon="-2.8710805345">
        <ele>1335.41</ele>
        <time>2017-10-08T15:51:28Z</time>
      </trkpt>
      <trkpt lat="37.8850816749" lon="-2.8709749226">
        <ele>1337.33</ele>
        <time>2017-10-08T15:51:39Z</time>
      </trkpt>
      <trkpt lat="37.8849328961" lon="-2.8708265629">
        <ele>1337.81</ele>
        <time>2017-10-08T15:51:51Z</time>
      </trkpt>
      <trkpt lat="37.8847693652" lon="-2.8706944641">
        <ele>1338.77</ele>
        <time>2017-10-08T15:52:03Z</time>
      </trkpt>
      <trkpt lat="37.8846004698" lon="-2.8705900256">
        <ele>1340.22</ele>
        <time>2017-10-08T15:52:14Z</time>
      </trkpt>
      <trkpt lat="37.8844586480" lon="-2.8704249859">
        <ele>1341.66</ele>
        <time>2017-10-08T15:52:24Z</time>
      </trkpt>
      <trkpt lat="37.8844359331" lon="-2.8701994289">
        <ele>1342.62</ele>
        <time>2017-10-08T15:52:33Z</time>
      </trkpt>
      <trkpt lat="37.8844630066" lon="-2.8700897936">
        <ele>1343.10</ele>
        <time>2017-10-08T15:52:38Z</time>
      </trkpt>
      <trkpt lat="37.8846545331" lon="-2.8699877858">
        <ele>1345.50</ele>
        <time>2017-10-08T15:52:50Z</time>
      </trkpt>
      <trkpt lat="37.8846920002" lon="-2.8699928988">
        <ele>1345.50</ele>
        <time>2017-10-08T15:52:52Z</time>
      </trkpt>
      <trkpt lat="37.8847559541" lon="-2.8700302821">
        <ele>1346.46</ele>
        <time>2017-10-08T15:52:56Z</time>
      </trkpt>
      <trkpt lat="37.8849841934" lon="-2.8700938169">
        <ele>1347.43</ele>
        <time>2017-10-08T15:53:08Z</time>
      </trkpt>
      <trkpt lat="37.8851560224" lon="-2.8701658174">
        <ele>1349.35</ele>
        <time>2017-10-08T15:53:18Z</time>
      </trkpt>
      <trkpt lat="37.8853315394" lon="-2.8702597786">
        <ele>1350.31</ele>
        <time>2017-10-08T15:53:30Z</time>
      </trkpt>
      <trkpt lat="37.8855462000" lon="-2.8703439329">
        <ele>1351.75</ele>
        <time>2017-10-08T15:53:43Z</time>
      </trkpt>
      <trkpt lat="37.8856274206" lon="-2.8703788016">
        <ele>1352.71</ele>
        <time>2017-10-08T15:53:48Z</time>
      </trkpt>
      <trkpt lat="37.8857617825" lon="-2.8703890275">
        <ele>1353.67</ele>
        <time>2017-10-08T15:53:58Z</time>
      </trkpt>
      <trkpt lat="37.8859443404" lon="-2.8703813162">
        <ele>1354.63</ele>
        <time>2017-10-08T15:54:10Z</time>
      </trkpt>
      <trkpt lat="37.8859600145" lon="-2.8703729343">
        <ele>1354.63</ele>
        <time>2017-10-08T15:54:11Z</time>
      </trkpt>
      <trkpt lat="37.8861465957" lon="-2.8703362215">
        <ele>1356.08</ele>
        <time>2017-10-08T15:54:22Z</time>
      </trkpt>
      <trkpt lat="37.8863444086" lon="-2.8702401649">
        <ele>1357.04</ele>
        <time>2017-10-08T15:54:35Z</time>
      </trkpt>
      <trkpt lat="37.8864469193" lon="-2.8702215571">
        <ele>1358.00</ele>
        <time>2017-10-08T15:54:43Z</time>
      </trkpt>
      <trkpt lat="37.8865366895" lon="-2.8701705951">
        <ele>1358.96</ele>
        <time>2017-10-08T15:54:50Z</time>
      </trkpt>
      <trkpt lat="37.8866560478" lon="-2.8700874466">
        <ele>1360.40</ele>
        <time>2017-10-08T15:54:59Z</time>
      </trkpt>
      <trkpt lat="37.8867437225" lon="-2.8700242471">
        <ele>1361.36</ele>
        <time>2017-10-08T15:55:09Z</time>
      </trkpt>
      <trkpt lat="37.8867889009" lon="-2.8699825052">
        <ele>1361.36</ele>
        <time>2017-10-08T15:55:27Z</time>
      </trkpt>
      <trkpt lat="37.8869298846" lon="-2.8699385840">
        <ele>1362.81</ele>
        <time>2017-10-08T15:55:35Z</time>
      </trkpt>
      <trkpt lat="37.8870892245" lon="-2.8698577825">
        <ele>1363.77</ele>
        <time>2017-10-08T15:55:44Z</time>
      </trkpt>
      <trkpt lat="37.8872861154" lon="-2.8698105086">
        <ele>1365.21</ele>
        <time>2017-10-08T15:55:54Z</time>
      </trkpt>
      <trkpt lat="37.8875071462" lon="-2.8697468899">
        <ele>1367.13</ele>
        <time>2017-10-08T15:56:05Z</time>
      </trkpt>
      <trkpt lat="37.8877125029" lon="-2.8696960956">
        <ele>1368.57</ele>
        <time>2017-10-08T15:56:16Z</time>
      </trkpt>
      <trkpt lat="37.8877575975" lon="-2.8696913179">
        <ele>1364.73</ele>
        <time>2017-10-08T15:56:18Z</time>
      </trkpt>
      <trkpt lat="37.8877764568" lon="-2.8696890548">
        <ele>1370.98</ele>
        <time>2017-10-08T15:56:19Z</time>
      </trkpt>
      <trkpt lat="37.8878140915" lon="-2.8696723748">
        <ele>1369.05</ele>
        <time>2017-10-08T15:56:21Z</time>
      </trkpt>
      <trkpt lat="37.8879914526" lon="-2.8696317226">
        <ele>1370.98</ele>
        <time>2017-10-08T15:56:31Z</time>
      </trkpt>
      <trkpt lat="37.8881023452" lon="-2.8695132863">
        <ele>1371.46</ele>
        <time>2017-10-08T15:56:40Z</time>
      </trkpt>
      <trkpt lat="37.8881544806" lon="-2.8693396132">
        <ele>1372.42</ele>
        <time>2017-10-08T15:56:51Z</time>
      </trkpt>
      <trkpt lat="37.8881632816" lon="-2.8692909982">
        <ele>1373.38</ele>
        <time>2017-10-08T15:56:54Z</time>
      </trkpt>
      <trkpt lat="37.8882316779" lon="-2.8690656088">
        <ele>1374.82</ele>
        <time>2017-10-08T15:57:06Z</time>
      </trkpt>
      <trkpt lat="37.8882447537" lon="-2.8690334223">
        <ele>1374.82</ele>
        <time>2017-10-08T15:57:08Z</time>
      </trkpt>
      <trkpt lat="37.8882937040" lon="-2.8689777665">
        <ele>1375.78</ele>
        <time>2017-10-08T15:57:12Z</time>
      </trkpt>
      <trkpt lat="37.8884688020" lon="-2.8689198475">
        <ele>1377.23</ele>
        <time>2017-10-08T15:57:23Z</time>
      </trkpt>
      <trkpt lat="37.8884853981" lon="-2.8689178359">
        <ele>1377.23</ele>
        <time>2017-10-08T15:57:24Z</time>
      </trkpt>
      <trkpt lat="37.8886008170" lon="-2.8689016588">
        <ele>1378.19</ele>
        <time>2017-10-08T15:57:31Z</time>
      </trkpt>
      <trkpt lat="37.8887639288" lon="-2.8688936960">
        <ele>1379.63</ele>
        <time>2017-10-08T15:57:41Z</time>
      </trkpt>
      <trkpt lat="37.8888405394" lon="-2.8688649461">
        <ele>1380.11</ele>
        <time>2017-10-08T15:57:46Z</time>
      </trkpt>
      <trkpt lat="37.8888980392" lon="-2.8688375372">
        <ele>1380.59</ele>
        <time>2017-10-08T15:57:50Z</time>
      </trkpt>
      <trkpt lat="37.8890250251" lon="-2.8687607590">
        <ele>1381.55</ele>
        <time>2017-10-08T15:57:59Z</time>
      </trkpt>
      <trkpt lat="37.8890780825" lon="-2.8687154967">
        <ele>1382.03</ele>
        <time>2017-10-08T15:58:03Z</time>
      </trkpt>
      <trkpt lat="37.8891553637" lon="-2.8686415683">
        <ele>1382.51</ele>
        <time>2017-10-08T15:58:09Z</time>
      </trkpt>
      <trkpt lat="37.8892292082" lon="-2.8685989045">
        <ele>1382.99</ele>
        <time>2017-10-08T15:58:14Z</time>
      </trkpt>
      <trkpt lat="37.8893836029" lon="-2.8684792947">
        <ele>1384.44</ele>
        <time>2017-10-08T15:58:26Z</time>
      </trkpt>
      <trkpt lat="37.8894742951" lon="-2.8684077971">
        <ele>1384.92</ele>
        <time>2017-10-08T15:58:33Z</time>
      </trkpt>
      <trkpt lat="37.8896734491" lon="-2.8683072980">
        <ele>1386.36</ele>
        <time>2017-10-08T15:58:45Z</time>
      </trkpt>
      <trkpt lat="37.8898516484" lon="-2.8682073858">
        <ele>1387.32</ele>
        <time>2017-10-08T15:58:55Z</time>
      </trkpt>
      <trkpt lat="37.8900158498" lon="-2.8681060486">
        <ele>1388.76</ele>
        <time>2017-10-08T15:59:05Z</time>
      </trkpt>
      <trkpt lat="37.8900462762" lon="-2.8680793941">
        <ele>1389.24</ele>
        <time>2017-10-08T15:59:07Z</time>
      </trkpt>
      <trkpt lat="37.8901809733" lon="-2.8679475468">
        <ele>1390.20</ele>
        <time>2017-10-08T15:59:16Z</time>
      </trkpt>
      <trkpt lat="37.8902181052" lon="-2.8679228202">
        <ele>1390.20</ele>
        <time>2017-10-08T15:59:18Z</time>
      </trkpt>
      <trkpt lat="37.8904710710" lon="-2.8678223211">
        <ele>1392.13</ele>
        <time>2017-10-08T15:59:30Z</time>
      </trkpt>
      <trkpt lat="37.8907092009" lon="-2.8677599598">
        <ele>1393.57</ele>
        <time>2017-10-08T15:59:42Z</time>
      </trkpt>
      <trkpt lat="37.8909349255" lon="-2.8677249234">
        <ele>1395.01</ele>
        <time>2017-10-08T15:59:53Z</time>
      </trkpt>
      <trkpt lat="37.8910630848" lon="-2.8677339759">
        <ele>1395.01</ele>
        <time>2017-10-08T16:00:03Z</time>
      </trkpt>
      <trkpt lat="37.8910655156" lon="-2.8677403461">
        <ele>1395.49</ele>
        <time>2017-10-08T16:00:17Z</time>
      </trkpt>
      <trkpt lat="37.8911732230" lon="-2.8678067308">
        <ele>1396.45</ele>
        <time>2017-10-08T16:00:31Z</time>
      </trkpt>
      <trkpt lat="37.8911946807" lon="-2.8678234108">
        <ele>1396.45</ele>
        <time>2017-10-08T16:00:51Z</time>
      </trkpt>
      <trkpt lat="37.8911849577" lon="-2.8678271826">
        <ele>1397.41</ele>
        <time>2017-10-08T16:01:12Z</time>
      </trkpt>
      <trkpt lat="37.8911780845" lon="-2.8678266797">
        <ele>1395.97</ele>
        <time>2017-10-08T16:01:27Z</time>
      </trkpt>
      <trkpt lat="37.8911794256" lon="-2.8678188846">
        <ele>1396.45</ele>
        <time>2017-10-08T16:01:44Z</time>
      </trkpt>
      <trkpt lat="37.8911824431" lon="-2.8678108379">
        <ele>1395.97</ele>
        <time>2017-10-08T16:02:01Z</time>
      </trkpt>
      <trkpt lat="37.8911787551" lon="-2.8678101674">
        <ele>1396.93</ele>
        <time>2017-10-08T16:02:18Z</time>
      </trkpt>
      <trkpt lat="37.8911815211" lon="-2.8678171244">
        <ele>1396.45</ele>
        <time>2017-10-08T16:02:40Z</time>
      </trkpt>
      <trkpt lat="37.8911855444" lon="-2.8678088263">
        <ele>1396.45</ele>
        <time>2017-10-08T16:02:58Z</time>
      </trkpt>
      <trkpt lat="37.8912933357" lon="-2.8679192998">
        <ele>1396.93</ele>
        <time>2017-10-08T16:03:12Z</time>
      </trkpt>
      <trkpt lat="37.8913081717" lon="-2.8679628018">
        <ele>1396.93</ele>
        <time>2017-10-08T16:03:15Z</time>
      </trkpt>
      <trkpt lat="37.8914686013" lon="-2.8681319486">
        <ele>1397.89</ele>
        <time>2017-10-08T16:03:33Z</time>
      </trkpt>
      <trkpt lat="37.8915980179" lon="-2.8681829944">
        <ele>1398.86</ele>
        <time>2017-10-08T16:03:45Z</time>
      </trkpt>
      <trkpt lat="37.8916561883" lon="-2.8681993391">
        <ele>1399.34</ele>
        <time>2017-10-08T16:03:54Z</time>
      </trkpt>
      <trkpt lat="37.8916664142" lon="-2.8682041168">
        <ele>1399.34</ele>
        <time>2017-10-08T16:03:55Z</time>
      </trkpt>
      <trkpt lat="37.8917294461" lon="-2.8682171926">
        <ele>1399.34</ele>
        <time>2017-10-08T16:04:00Z</time>
      </trkpt>
      <trkpt lat="37.8917737864" lon="-2.8681883588">
        <ele>1399.34</ele>
        <time>2017-10-08T16:04:04Z</time>
      </trkpt>
      <trkpt lat="37.8918412607" lon="-2.8681733552">
        <ele>1399.34</ele>
        <time>2017-10-08T16:04:09Z</time>
      </trkpt>
      <trkpt lat="37.8919093218" lon="-2.8681551665">
        <ele>1399.34</ele>
        <time>2017-10-08T16:04:13Z</time>
      </trkpt>
      <trkpt lat="37.8921685740" lon="-2.8680375684">
        <ele>1399.82</ele>
        <time>2017-10-08T16:04:25Z</time>
      </trkpt>
      <trkpt lat="37.8924172651" lon="-2.8680559248">
        <ele>1400.30</ele>
        <time>2017-10-08T16:04:35Z</time>
      </trkpt>
      <trkpt lat="37.8926306684" lon="-2.8681978304">
        <ele>1400.30</ele>
        <time>2017-10-08T16:04:44Z</time>
      </trkpt>
      <trkpt lat="37.8929107077" lon="-2.8683123272">
        <ele>1400.78</ele>
        <time>2017-10-08T16:04:54Z</time>
      </trkpt>
      <trkpt lat="37.8932204191" lon="-2.8683844954">
        <ele>1401.26</ele>
        <time>2017-10-08T16:05:04Z</time>
      </trkpt>
      <trkpt lat="37.8934525978" lon="-2.8683106508">
        <ele>1400.78</ele>
        <time>2017-10-08T16:05:12Z</time>
      </trkpt>
      <trkpt lat="37.8936529253" lon="-2.8680965770">
        <ele>1399.82</ele>
        <time>2017-10-08T16:05:22Z</time>
      </trkpt>
      <trkpt lat="37.8937305417" lon="-2.8676867019">
        <ele>1399.82</ele>
        <time>2017-10-08T16:05:33Z</time>
      </trkpt>
      <trkpt lat="37.8938340582" lon="-2.8672619909">
        <ele>1399.82</ele>
        <time>2017-10-08T16:05:43Z</time>
      </trkpt>
      <trkpt lat="37.8940100782" lon="-2.8669671994">
        <ele>1398.37</ele>
        <time>2017-10-08T16:05:50Z</time>
      </trkpt>
      <trkpt lat="37.8942552488" lon="-2.8665099666">
        <ele>1395.49</ele>
        <time>2017-10-08T16:05:59Z</time>
      </trkpt>
      <trkpt lat="37.8944938816" lon="-2.8661352117">
        <ele>1393.09</ele>
        <time>2017-10-08T16:06:08Z</time>
      </trkpt>
      <trkpt lat="37.8945888486" lon="-2.8659498878">
        <ele>1391.17</ele>
        <time>2017-10-08T16:06:16Z</time>
      </trkpt>
      <trkpt lat="37.8946263995" lon="-2.8658488858">
        <ele>1390.68</ele>
        <time>2017-10-08T16:06:19Z</time>
      </trkpt>
      <trkpt lat="37.8947354481" lon="-2.8656568564">
        <ele>1389.72</ele>
        <time>2017-10-08T16:06:24Z</time>
      </trkpt>
      <trkpt lat="37.8947544750" lon="-2.8656095825">
        <ele>1389.24</ele>
        <time>2017-10-08T16:06:25Z</time>
      </trkpt>
      <trkpt lat="37.8947719093" lon="-2.8655701876">
        <ele>1389.24</ele>
        <time>2017-10-08T16:06:26Z</time>
      </trkpt>
      <trkpt lat="37.8947890922" lon="-2.8655412700">
        <ele>1388.76</ele>
        <time>2017-10-08T16:06:27Z</time>
      </trkpt>
      <trkpt lat="37.8948008269" lon="-2.8655226622">
        <ele>1388.76</ele>
        <time>2017-10-08T16:06:34Z</time>
      </trkpt>
      <trkpt lat="37.8948032577" lon="-2.8655121848">
        <ele>1388.76</ele>
        <time>2017-10-08T16:06:46Z</time>
      </trkpt>
      <trkpt lat="37.8948258050" lon="-2.8655157052">
        <ele>1388.76</ele>
        <time>2017-10-08T16:07:05Z</time>
      </trkpt>
      <trkpt lat="37.8948213626" lon="-2.8655094188">
        <ele>1388.76</ele>
        <time>2017-10-08T16:07:16Z</time>
      </trkpt>
      <trkpt lat="37.8948102985" lon="-2.8654957563">
        <ele>1388.76</ele>
        <time>2017-10-08T16:07:35Z</time>
      </trkpt>
      <trkpt lat="37.8948046826" lon="-2.8654989414">
        <ele>1388.76</ele>
        <time>2017-10-08T16:07:48Z</time>
      </trkpt>
      <trkpt lat="37.8947792854" lon="-2.8655299544">
        <ele>1388.76</ele>
        <time>2017-10-08T16:07:59Z</time>
      </trkpt>
      <trkpt lat="37.8947710712" lon="-2.8655392583">
        <ele>1388.76</ele>
        <time>2017-10-08T16:08:00Z</time>
      </trkpt>
      <trkpt lat="37.8947480209" lon="-2.8655652422">
        <ele>1389.24</ele>
        <time>2017-10-08T16:08:03Z</time>
      </trkpt>
      <trkpt lat="37.8947307542" lon="-2.8655898850">
        <ele>1389.24</ele>
        <time>2017-10-08T16:08:06Z</time>
      </trkpt>
      <trkpt lat="37.8947098833" lon="-2.8656286094">
        <ele>1389.72</ele>
        <time>2017-10-08T16:08:16Z</time>
      </trkpt>
      <trkpt lat="37.8947045188" lon="-2.8656214010">
        <ele>1389.72</ele>
        <time>2017-10-08T16:08:29Z</time>
      </trkpt>
      <trkpt lat="37.8947065305" lon="-2.8656115104">
        <ele>1389.72</ele>
        <time>2017-10-08T16:08:46Z</time>
      </trkpt>
      <trkpt lat="37.8947212826" lon="-2.8655906394">
        <ele>1389.24</ele>
        <time>2017-10-08T16:08:48Z</time>
      </trkpt>
      <trkpt lat="37.8948691394" lon="-2.8653362487">
        <ele>1388.28</ele>
        <time>2017-10-08T16:08:56Z</time>
      </trkpt>
      <trkpt lat="37.8948956262" lon="-2.8652915731">
        <ele>1387.80</ele>
        <time>2017-10-08T16:08:57Z</time>
      </trkpt>
      <trkpt lat="37.8949267231" lon="-2.8652468976">
        <ele>1387.80</ele>
        <time>2017-10-08T16:08:58Z</time>
      </trkpt>
      <trkpt lat="37.8949916828" lon="-2.8651607316">
        <ele>1387.32</ele>
        <time>2017-10-08T16:09:00Z</time>
      </trkpt>
      <trkpt lat="37.8950287309" lon="-2.8651226778">
        <ele>1386.84</ele>
        <time>2017-10-08T16:09:01Z</time>
      </trkpt>
      <trkpt lat="37.8950664494" lon="-2.8650866356">
        <ele>1386.84</ele>
        <time>2017-10-08T16:09:02Z</time>
      </trkpt>
      <trkpt lat="37.8951058444" lon="-2.8650549520">
        <ele>1386.84</ele>
        <time>2017-10-08T16:09:03Z</time>
      </trkpt>
      <trkpt lat="37.8951438144" lon="-2.8650242742">
        <ele>1386.36</ele>
        <time>2017-10-08T16:09:04Z</time>
      </trkpt>
      <trkpt lat="37.8951817844" lon="-2.8649912495">
        <ele>1385.88</ele>
        <time>2017-10-08T16:09:05Z</time>
      </trkpt>
      <trkpt lat="37.8952156473" lon="-2.8649550397">
        <ele>1385.88</ele>
        <time>2017-10-08T16:09:06Z</time>
      </trkpt>
      <trkpt lat="37.8952450678" lon="-2.8649154771">
        <ele>1385.40</ele>
        <time>2017-10-08T16:09:07Z</time>
      </trkpt>
      <trkpt lat="37.8953029029" lon="-2.8648243658">
        <ele>1385.40</ele>
        <time>2017-10-08T16:09:09Z</time>
      </trkpt>
      <trkpt lat="37.8953482490" lon="-2.8647179157">
        <ele>1384.92</ele>
        <time>2017-10-08T16:09:11Z</time>
      </trkpt>
      <trkpt lat="37.8953641746" lon="-2.8646630142">
        <ele>1384.92</ele>
        <time>2017-10-08T16:09:12Z</time>
      </trkpt>
      <trkpt lat="37.8953816928" lon="-2.8646076936">
        <ele>1384.92</ele>
        <time>2017-10-08T16:09:13Z</time>
      </trkpt>
      <trkpt lat="37.8955829423" lon="-2.8641553223">
        <ele>1384.44</ele>
        <time>2017-10-08T16:09:22Z</time>
      </trkpt>
      <trkpt lat="37.8955965210" lon="-2.8641043603">
        <ele>1383.96</ele>
        <time>2017-10-08T16:09:23Z</time>
      </trkpt>
      <trkpt lat="37.8956262767" lon="-2.8640032746">
        <ele>1383.96</ele>
        <time>2017-10-08T16:09:25Z</time>
      </trkpt>
      <trkpt lat="37.8956410289" lon="-2.8639529832">
        <ele>1383.96</ele>
        <time>2017-10-08T16:09:26Z</time>
      </trkpt>
      <trkpt lat="37.8956504166" lon="-2.8639016859">
        <ele>1383.96</ele>
        <time>2017-10-08T16:09:27Z</time>
      </trkpt>
      <trkpt lat="37.8956594691" lon="-2.8638505563">
        <ele>1383.47</ele>
        <time>2017-10-08T16:09:28Z</time>
      </trkpt>
      <trkpt lat="37.8956684377" lon="-2.8637978341">
        <ele>1383.47</ele>
        <time>2017-10-08T16:09:29Z</time>
      </trkpt>
      <trkpt lat="37.8956759814" lon="-2.8637454472">
        <ele>1383.47</ele>
        <time>2017-10-08T16:09:30Z</time>
      </trkpt>
      <trkpt lat="37.8956826031" lon="-2.8636986762">
        <ele>1383.47</ele>
        <time>2017-10-08T16:09:31Z</time>
      </trkpt>
      <trkpt lat="37.8956812620" lon="-2.8636514861">
        <ele>1383.47</ele>
        <time>2017-10-08T16:09:32Z</time>
      </trkpt>
      <trkpt lat="37.8956779093" lon="-2.8636068106">
        <ele>1383.47</ele>
        <time>2017-10-08T16:09:33Z</time>
      </trkpt>
      <trkpt lat="37.8956763167" lon="-2.8634420224">
        <ele>1383.96</ele>
        <time>2017-10-08T16:09:41Z</time>
      </trkpt>
      <trkpt lat="37.8956682701" lon="-2.8634499013">
        <ele>1383.47</ele>
        <time>2017-10-08T16:09:58Z</time>
      </trkpt>
      <trkpt lat="37.8956749756" lon="-2.8634512424">
        <ele>1382.99</ele>
        <time>2017-10-08T16:10:25Z</time>
      </trkpt>
      <trkpt lat="37.8956718743" lon="-2.8634519968">
        <ele>1383.47</ele>
        <time>2017-10-08T16:10:48Z</time>
      </trkpt>
      <trkpt lat="37.8956593852" lon="-2.8634585347">
        <ele>1382.99</ele>
        <time>2017-10-08T16:11:11Z</time>
      </trkpt>
      <trkpt lat="37.8956541047" lon="-2.8634332214">
        <ele>1382.99</ele>
        <time>2017-10-08T16:11:23Z</time>
      </trkpt>
      <trkpt lat="37.8955981135" lon="-2.8631543554">
        <ele>1382.99</ele>
        <time>2017-10-08T16:11:32Z</time>
      </trkpt>
      <trkpt lat="37.8955282923" lon="-2.8629180696">
        <ele>1382.99</ele>
        <time>2017-10-08T16:11:38Z</time>
      </trkpt>
      <trkpt lat="37.8953286353" lon="-2.8625401296">
        <ele>1382.51</ele>
        <time>2017-10-08T16:11:47Z</time>
      </trkpt>
      <trkpt lat="37.8952381108" lon="-2.8622407280">
        <ele>1382.99</ele>
        <time>2017-10-08T16:11:55Z</time>
      </trkpt>
      <trkpt lat="37.8952195030" lon="-2.8621133231">
        <ele>1382.99</ele>
        <time>2017-10-08T16:12:00Z</time>
      </trkpt>
      <trkpt lat="37.8952095285" lon="-2.8620817233">
        <ele>1382.99</ele>
        <time>2017-10-08T16:12:01Z</time>
      </trkpt>
      <trkpt lat="37.8952011466" lon="-2.8620451782">
        <ele>1383.47</ele>
        <time>2017-10-08T16:12:02Z</time>
      </trkpt>
      <trkpt lat="37.8951443173" lon="-2.8617410827">
        <ele>1384.44</ele>
        <time>2017-10-08T16:12:10Z</time>
      </trkpt>
      <trkpt lat="37.8951225244" lon="-2.8616453614">
        <ele>1384.92</ele>
        <time>2017-10-08T16:12:13Z</time>
      </trkpt>
      <trkpt lat="37.8951183334" lon="-2.8616117500">
        <ele>1384.92</ele>
        <time>2017-10-08T16:12:14Z</time>
      </trkpt>
      <trkpt lat="37.8950975463" lon="-2.8615721874">
        <ele>1384.92</ele>
        <time>2017-10-08T16:12:15Z</time>
      </trkpt>
      <trkpt lat="37.8949836362" lon="-2.8612846043">
        <ele>1385.88</ele>
        <time>2017-10-08T16:12:24Z</time>
      </trkpt>
      <trkpt lat="37.8948218655" lon="-2.8610289562">
        <ele>1386.84</ele>
        <time>2017-10-08T16:12:33Z</time>
      </trkpt>
      <trkpt lat="37.8947986476" lon="-2.8607415408">
        <ele>1387.80</ele>
        <time>2017-10-08T16:12:43Z</time>
      </trkpt>
      <trkpt lat="37.8948458377" lon="-2.8604725655">
        <ele>1389.24</ele>
        <time>2017-10-08T16:12:53Z</time>
      </trkpt>
      <trkpt lat="37.8948066104" lon="-2.8601660393">
        <ele>1390.68</ele>
        <time>2017-10-08T16:13:05Z</time>
      </trkpt>
      <trkpt lat="37.8946844861" lon="-2.8600314260">
        <ele>1391.17</ele>
        <time>2017-10-08T16:13:13Z</time>
      </trkpt>
      <trkpt lat="37.8946711589" lon="-2.8600180149">
        <ele>1391.17</ele>
        <time>2017-10-08T16:13:14Z</time>
      </trkpt>
      <trkpt lat="37.8946557362" lon="-2.8600091301">
        <ele>1391.17</ele>
        <time>2017-10-08T16:13:15Z</time>
      </trkpt>
      <trkpt lat="37.8946389724" lon="-2.8599971440">
        <ele>1391.17</ele>
        <time>2017-10-08T16:13:16Z</time>
      </trkpt>
      <trkpt lat="37.8946236335" lon="-2.8599820565">
        <ele>1391.17</ele>
        <time>2017-10-08T16:13:17Z</time>
      </trkpt>
      <trkpt lat="37.8946106415" lon="-2.8599679749">
        <ele>1391.17</ele>
        <time>2017-10-08T16:13:18Z</time>
      </trkpt>
      <trkpt lat="37.8946010023" lon="-2.8599515464">
        <ele>1391.65</ele>
        <time>2017-10-08T16:13:19Z</time>
      </trkpt>
      <trkpt lat="37.8944927081" lon="-2.8598323558">
        <ele>1392.13</ele>
        <time>2017-10-08T16:13:27Z</time>
      </trkpt>
      <trkpt lat="37.8944398183" lon="-2.8597801365">
        <ele>1392.61</ele>
        <time>2017-10-08T16:13:31Z</time>
      </trkpt>
      <trkpt lat="37.8942529019" lon="-2.8597212955">
        <ele>1394.53</ele>
        <time>2017-10-08T16:13:42Z</time>
      </trkpt>
      <trkpt lat="37.8940438572" lon="-2.8596715070">
        <ele>1394.53</ele>
        <time>2017-10-08T16:13:53Z</time>
      </trkpt>
      <trkpt lat="37.8938399255" lon="-2.8596030269">
        <ele>1395.97</ele>
        <time>2017-10-08T16:14:04Z</time>
      </trkpt>
      <trkpt lat="37.8936578706" lon="-2.8594630491">
        <ele>1396.45</ele>
        <time>2017-10-08T16:14:15Z</time>
      </trkpt>
      <trkpt lat="37.8935165517" lon="-2.8593281005">
        <ele>1397.89</ele>
        <time>2017-10-08T16:14:25Z</time>
      </trkpt>
      <trkpt lat="37.8933367599" lon="-2.8592258412">
        <ele>1398.86</ele>
        <time>2017-10-08T16:14:38Z</time>
      </trkpt>
      <trkpt lat="37.8931360133" lon="-2.8592184652">
        <ele>1400.30</ele>
        <time>2017-10-08T16:14:49Z</time>
      </trkpt>
      <trkpt lat="37.8929481748" lon="-2.8592036292">
        <ele>1401.26</ele>
        <time>2017-10-08T16:14:59Z</time>
      </trkpt>
      <trkpt lat="37.8927298263" lon="-2.8591138590">
        <ele>1402.70</ele>
        <time>2017-10-08T16:15:11Z</time>
      </trkpt>
      <trkpt lat="37.8926246334" lon="-2.8590581194">
        <ele>1406.55</ele>
        <time>2017-10-08T16:15:18Z</time>
      </trkpt>
      <trkpt lat="37.8925925307" lon="-2.8590423614">
        <ele>1403.66</ele>
        <time>2017-10-08T16:15:20Z</time>
      </trkpt>
      <trkpt lat="37.8923992440" lon="-2.8590395115">
        <ele>1404.62</ele>
        <time>2017-10-08T16:15:31Z</time>
      </trkpt>
      <trkpt lat="37.8923347872" lon="-2.8590661660">
        <ele>1405.10</ele>
        <time>2017-10-08T16:15:35Z</time>
      </trkpt>
      <trkpt lat="37.8922514711" lon="-2.8590962570">
        <ele>1405.58</ele>
        <time>2017-10-08T16:15:40Z</time>
      </trkpt>
      <trkpt lat="37.8921306878" lon="-2.8591188882">
        <ele>1406.55</ele>
        <time>2017-10-08T16:15:50Z</time>
      </trkpt>
      <trkpt lat="37.8921274189" lon="-2.8591172956">
        <ele>1406.55</ele>
        <time>2017-10-08T16:16:02Z</time>
      </trkpt>
      <trkpt lat="37.8921263292" lon="-2.8591144457">
        <ele>1407.03</ele>
        <time>2017-10-08T16:16:31Z</time>
      </trkpt>
      <trkpt lat="37.8921251558" lon="-2.8591122665">
        <ele>1406.55</ele>
        <time>2017-10-08T16:16:35Z</time>
      </trkpt>
      <trkpt lat="37.8920544125" lon="-2.8590571135">
        <ele>1406.55</ele>
        <time>2017-10-08T16:16:40Z</time>
      </trkpt>
      <trkpt lat="37.8919423465" lon="-2.8589450475">
        <ele>1407.51</ele>
        <time>2017-10-08T16:16:49Z</time>
      </trkpt>
      <trkpt lat="37.8918667417" lon="-2.8587986995">
        <ele>1408.47</ele>
        <time>2017-10-08T16:16:59Z</time>
      </trkpt>
      <trkpt lat="37.8918524925" lon="-2.8587276209">
        <ele>1408.95</ele>
        <time>2017-10-08T16:17:02Z</time>
      </trkpt>
      <trkpt lat="37.8917934839" lon="-2.8585845418">
        <ele>1409.91</ele>
        <time>2017-10-08T16:17:10Z</time>
      </trkpt>
      <trkpt lat="37.8917715233" lon="-2.8584826179">
        <ele>1410.39</ele>
        <time>2017-10-08T16:17:18Z</time>
      </trkpt>
      <trkpt lat="37.8917710204" lon="-2.8584723081">
        <ele>1410.39</ele>
        <time>2017-10-08T16:17:20Z</time>
      </trkpt>
      <trkpt lat="37.8917688411" lon="-2.8583584819">
        <ele>1410.87</ele>
        <time>2017-10-08T16:17:30Z</time>
      </trkpt>
      <trkpt lat="37.8917824198" lon="-2.8583185002">
        <ele>1410.87</ele>
        <time>2017-10-08T16:17:49Z</time>
      </trkpt>
      <trkpt lat="37.8918213956" lon="-2.8581788577">
        <ele>1411.83</ele>
        <time>2017-10-08T16:17:54Z</time>
      </trkpt>
      <trkpt lat="37.8919057176" lon="-2.8580591641">
        <ele>1412.31</ele>
        <time>2017-10-08T16:18:01Z</time>
      </trkpt>
      <trkpt lat="37.8919228166" lon="-2.8580468427">
        <ele>1412.31</ele>
        <time>2017-10-08T16:18:02Z</time>
      </trkpt>
      <trkpt lat="37.8919946495" lon="-2.8580127284">
        <ele>1412.79</ele>
        <time>2017-10-08T16:18:06Z</time>
      </trkpt>
      <trkpt lat="37.8922032751" lon="-2.8579246346">
        <ele>1414.24</ele>
        <time>2017-10-08T16:18:18Z</time>
      </trkpt>
      <trkpt lat="37.8923899401" lon="-2.8578373790">
        <ele>1414.72</ele>
        <time>2017-10-08T16:18:29Z</time>
      </trkpt>
      <trkpt lat="37.8925556503" lon="-2.8577300068">
        <ele>1415.20</ele>
        <time>2017-10-08T16:18:38Z</time>
      </trkpt>
      <trkpt lat="37.8926025890" lon="-2.8576544020">
        <ele>1415.20</ele>
        <time>2017-10-08T16:18:42Z</time>
      </trkpt>
      <trkpt lat="37.8927113861" lon="-2.8574052919">
        <ele>1417.12</ele>
        <time>2017-10-08T16:18:55Z</time>
      </trkpt>
      <trkpt lat="37.8927332629" lon="-2.8573671542">
        <ele>1417.12</ele>
        <time>2017-10-08T16:18:57Z</time>
      </trkpt>
      <trkpt lat="37.8928706422" lon="-2.8571602050">
        <ele>1418.56</ele>
        <time>2017-10-08T16:19:09Z</time>
      </trkpt>
      <trkpt lat="37.8929966222" lon="-2.8569889627">
        <ele>1420.49</ele>
        <time>2017-10-08T16:19:19Z</time>
      </trkpt>
      <trkpt lat="37.8931192495" lon="-2.8568254318">
        <ele>1421.45</ele>
        <time>2017-10-08T16:19:28Z</time>
      </trkpt>
      <trkpt lat="37.8932960238" lon="-2.8567278665">
        <ele>1422.89</ele>
        <time>2017-10-08T16:19:37Z</time>
      </trkpt>
      <trkpt lat="37.8935358301" lon="-2.8566831071">
        <ele>1424.33</ele>
        <time>2017-10-08T16:19:48Z</time>
      </trkpt>
      <trkpt lat="37.8936855309" lon="-2.8565971926">
        <ele>1425.77</ele>
        <time>2017-10-08T16:19:58Z</time>
      </trkpt>
      <trkpt lat="37.8936944995" lon="-2.8565841168">
        <ele>1425.77</ele>
        <time>2017-10-08T16:19:59Z</time>
      </trkpt>
      <trkpt lat="37.8938630596" lon="-2.8564533591">
        <ele>1426.73</ele>
        <time>2017-10-08T16:20:10Z</time>
      </trkpt>
      <trkpt lat="37.8939193860" lon="-2.8563756589">
        <ele>1427.21</ele>
        <time>2017-10-08T16:20:15Z</time>
      </trkpt>
      <trkpt lat="37.8940508142" lon="-2.8562050033">
        <ele>1428.66</ele>
        <time>2017-10-08T16:20:25Z</time>
      </trkpt>
      <trkpt lat="37.8941664007" lon="-2.8560542129">
        <ele>1429.62</ele>
        <time>2017-10-08T16:20:33Z</time>
      </trkpt>
      <trkpt lat="37.8942714259" lon="-2.8558786120">
        <ele>1431.06</ele>
        <time>2017-10-08T16:20:42Z</time>
      </trkpt>
      <trkpt lat="37.8943580948" lon="-2.8557653725">
        <ele>1432.02</ele>
        <time>2017-10-08T16:20:49Z</time>
      </trkpt>
      <trkpt lat="37.8944454342" lon="-2.8556512110">
        <ele>1432.50</ele>
        <time>2017-10-08T16:20:55Z</time>
      </trkpt>
      <trkpt lat="37.8945812210" lon="-2.8555797972">
        <ele>1433.46</ele>
        <time>2017-10-08T16:21:01Z</time>
      </trkpt>
      <trkpt lat="37.8946993221" lon="-2.8555020131">
        <ele>1434.91</ele>
        <time>2017-10-08T16:21:08Z</time>
      </trkpt>
      <trkpt lat="37.8948000725" lon="-2.8554979898">
        <ele>1435.87</ele>
        <time>2017-10-08T16:21:13Z</time>
      </trkpt>
      <trkpt lat="37.8949087858" lon="-2.8555026837">
        <ele>1436.35</ele>
        <time>2017-10-08T16:21:18Z</time>
      </trkpt>
      <trkpt lat="37.8949430678" lon="-2.8555087186">
        <ele>1436.83</ele>
        <time>2017-10-08T16:21:20Z</time>
      </trkpt>
      <trkpt lat="37.8950196784" lon="-2.8555011749">
        <ele>1437.31</ele>
        <time>2017-10-08T16:21:25Z</time>
      </trkpt>
      <trkpt lat="37.8951841313" lon="-2.8554226365">
        <ele>1438.27</ele>
        <time>2017-10-08T16:21:35Z</time>
      </trkpt>
      <trkpt lat="37.8952621669" lon="-2.8553680703">
        <ele>1438.75</ele>
        <time>2017-10-08T16:21:44Z</time>
      </trkpt>
      <trkpt lat="37.8952685371" lon="-2.8553706687">
        <ele>1438.75</ele>
        <time>2017-10-08T16:22:03Z</time>
      </trkpt>
      <trkpt lat="37.8952874802" lon="-2.8553666454">
        <ele>1438.75</ele>
        <time>2017-10-08T16:22:22Z</time>
      </trkpt>
      <trkpt lat="37.8953762446" lon="-2.8553632088">
        <ele>1439.23</ele>
        <time>2017-10-08T16:22:32Z</time>
      </trkpt>
      <trkpt lat="37.8954217583" lon="-2.8553707525">
        <ele>1439.71</ele>
        <time>2017-10-08T16:22:36Z</time>
      </trkpt>
      <trkpt lat="37.8955116123" lon="-2.8554160148">
        <ele>1440.19</ele>
        <time>2017-10-08T16:22:42Z</time>
      </trkpt>
      <trkpt lat="37.8957261890" lon="-2.8555458505">
        <ele>1440.67</ele>
        <time>2017-10-08T16:22:55Z</time>
      </trkpt>
      <trkpt lat="37.8958514147" lon="-2.8556365427">
        <ele>1441.15</ele>
        <time>2017-10-08T16:23:03Z</time>
      </trkpt>
      <trkpt lat="37.8959713597" lon="-2.8556481097">
        <ele>1442.11</ele>
        <time>2017-10-08T16:23:11Z</time>
      </trkpt>
      <trkpt lat="37.8961224016" lon="-2.8555352055">
        <ele>1443.56</ele>
        <time>2017-10-08T16:23:22Z</time>
      </trkpt>
      <trkpt lat="37.8961638920" lon="-2.8554896917">
        <ele>1443.56</ele>
        <time>2017-10-08T16:23:25Z</time>
      </trkpt>
      <trkpt lat="37.8961951565" lon="-2.8553644661">
        <ele>1444.52</ele>
        <time>2017-10-08T16:23:31Z</time>
      </trkpt>
      <trkpt lat="37.8962126747" lon="-2.8552603628">
        <ele>1445.00</ele>
        <time>2017-10-08T16:23:36Z</time>
      </trkpt>
      <trkpt lat="37.8961586952" lon="-2.8550718538">
        <ele>1445.96</ele>
        <time>2017-10-08T16:23:46Z</time>
      </trkpt>
      <trkpt lat="37.8960752953" lon="-2.8548800759">
        <ele>1446.92</ele>
        <time>2017-10-08T16:23:57Z</time>
      </trkpt>
      <trkpt lat="37.8960149456" lon="-2.8547913115">
        <ele>1447.88</ele>
        <time>2017-10-08T16:24:04Z</time>
      </trkpt>
      <trkpt lat="37.8959695995" lon="-2.8545945045">
        <ele>1449.32</ele>
        <time>2017-10-08T16:24:14Z</time>
      </trkpt>
      <trkpt lat="37.8959960863" lon="-2.8545042314">
        <ele>1449.81</ele>
        <time>2017-10-08T16:24:19Z</time>
      </trkpt>
      <trkpt lat="37.8960970882" lon="-2.8542656824">
        <ele>1451.73</ele>
        <time>2017-10-08T16:24:33Z</time>
      </trkpt>
      <trkpt lat="37.8962480463" lon="-2.8541211784">
        <ele>1452.69</ele>
        <time>2017-10-08T16:24:45Z</time>
      </trkpt>
      <trkpt lat="37.8964280058" lon="-2.8540687077">
        <ele>1453.65</ele>
        <time>2017-10-08T16:24:56Z</time>
      </trkpt>
      <trkpt lat="37.8965936322" lon="-2.8541671112">
        <ele>1455.09</ele>
        <time>2017-10-08T16:25:06Z</time>
      </trkpt>
      <trkpt lat="37.8966411576" lon="-2.8542363457">
        <ele>1455.09</ele>
        <time>2017-10-08T16:25:10Z</time>
      </trkpt>
      <trkpt lat="37.8967844881" lon="-2.8544492461">
        <ele>1456.53</ele>
        <time>2017-10-08T16:25:23Z</time>
      </trkpt>
      <trkpt lat="37.8968093824" lon="-2.8544844501">
        <ele>1456.53</ele>
        <time>2017-10-08T16:25:25Z</time>
      </trkpt>
      <trkpt lat="37.8968926147" lon="-2.8545996174">
        <ele>1457.02</ele>
        <time>2017-10-08T16:25:34Z</time>
      </trkpt>
      <trkpt lat="37.8969054390" lon="-2.8546034731">
        <ele>1457.02</ele>
        <time>2017-10-08T16:25:35Z</time>
      </trkpt>
      <trkpt lat="37.8970050998" lon="-2.8546978533">
        <ele>1458.46</ele>
        <time>2017-10-08T16:25:43Z</time>
      </trkpt>
      <trkpt lat="37.8970508650" lon="-2.8547562752">
        <ele>1457.98</ele>
        <time>2017-10-08T16:25:49Z</time>
      </trkpt>
      <trkpt lat="37.8970579058" lon="-2.8547606338">
        <ele>1457.98</ele>
        <time>2017-10-08T16:26:00Z</time>
      </trkpt>
      <trkpt lat="37.8971407190" lon="-2.8548444528">
        <ele>1458.46</ele>
        <time>2017-10-08T16:26:06Z</time>
      </trkpt>
      <trkpt lat="37.8973881528" lon="-2.8550151084">
        <ele>1459.90</ele>
        <time>2017-10-08T16:26:16Z</time>
      </trkpt>
      <trkpt lat="37.8975767456" lon="-2.8552954830">
        <ele>1460.86</ele>
        <time>2017-10-08T16:26:28Z</time>
      </trkpt>
      <trkpt lat="37.8976860456" lon="-2.8554160986">
        <ele>1461.82</ele>
        <time>2017-10-08T16:26:35Z</time>
      </trkpt>
      <trkpt lat="37.8977225069" lon="-2.8554251511">
        <ele>1462.30</ele>
        <time>2017-10-08T16:26:37Z</time>
      </trkpt>
      <trkpt lat="37.8978955094" lon="-2.8553201258">
        <ele>1463.74</ele>
        <time>2017-10-08T16:26:48Z</time>
      </trkpt>
      <trkpt lat="37.8979784064" lon="-2.8551567625">
        <ele>1465.19</ele>
        <time>2017-10-08T16:26:58Z</time>
      </trkpt>
      <trkpt lat="37.8980169632" lon="-2.8549633920">
        <ele>1466.15</ele>
        <time>2017-10-08T16:27:07Z</time>
      </trkpt>
      <trkpt lat="37.8980229981" lon="-2.8547784034">
        <ele>1467.11</ele>
        <time>2017-10-08T16:27:16Z</time>
      </trkpt>
      <trkpt lat="37.8980941605" lon="-2.8546069935">
        <ele>1468.07</ele>
        <time>2017-10-08T16:27:26Z</time>
      </trkpt>
      <trkpt lat="37.8981045540" lon="-2.8545986954">
        <ele>1468.07</ele>
        <time>2017-10-08T16:27:35Z</time>
      </trkpt>
      <trkpt lat="37.8980960045" lon="-2.8546019644">
        <ele>1468.07</ele>
        <time>2017-10-08T16:28:00Z</time>
      </trkpt>
      <trkpt lat="37.8980982676" lon="-2.8546004556">
        <ele>1468.07</ele>
        <time>2017-10-08T16:28:23Z</time>
      </trkpt>
      <trkpt lat="37.8980990220" lon="-2.8546101786">
        <ele>1468.55</ele>
        <time>2017-10-08T16:28:39Z</time>
      </trkpt>
      <trkpt lat="37.8981602099" lon="-2.8545374237">
        <ele>1468.55</ele>
        <time>2017-10-08T16:28:48Z</time>
      </trkpt>
      <trkpt lat="37.8981983475" lon="-2.8544986993">
        <ele>1469.03</ele>
        <time>2017-10-08T16:28:50Z</time>
      </trkpt>
      <trkpt lat="37.8983521555" lon="-2.8543803468">
        <ele>1470.47</ele>
        <time>2017-10-08T16:28:58Z</time>
      </trkpt>
      <trkpt lat="37.8984654788" lon="-2.8543678578">
        <ele>1470.95</ele>
        <time>2017-10-08T16:29:03Z</time>
      </trkpt>
      <trkpt lat="37.8986420017" lon="-2.8542884812">
        <ele>1472.40</ele>
        <time>2017-10-08T16:29:12Z</time>
      </trkpt>
      <trkpt lat="37.8986786306" lon="-2.8542495053">
        <ele>1472.88</ele>
        <time>2017-10-08T16:29:15Z</time>
      </trkpt>
      <trkpt lat="37.8987212945" lon="-2.8541019000">
        <ele>1473.84</ele>
        <time>2017-10-08T16:29:23Z</time>
      </trkpt>
      <trkpt lat="37.8987893555" lon="-2.8539537080">
        <ele>1474.80</ele>
        <time>2017-10-08T16:29:32Z</time>
      </trkpt>
      <trkpt lat="37.8988992423" lon="-2.8538697213">
        <ele>1475.28</ele>
        <time>2017-10-08T16:29:41Z</time>
      </trkpt>
      <trkpt lat="37.8990355320" lon="-2.8537737485">
        <ele>1476.24</ele>
        <time>2017-10-08T16:29:49Z</time>
      </trkpt>
      <trkpt lat="37.8991044313" lon="-2.8537100460">
        <ele>1476.72</ele>
        <time>2017-10-08T16:29:55Z</time>
      </trkpt>
      <trkpt lat="37.8991757613" lon="-2.8536027577">
        <ele>1477.68</ele>
        <time>2017-10-08T16:30:06Z</time>
      </trkpt>
      <trkpt lat="37.8991761804" lon="-2.8535938729">
        <ele>1478.16</ele>
        <time>2017-10-08T16:30:20Z</time>
      </trkpt>
      <trkpt lat="37.8991866577" lon="-2.8535776120">
        <ele>1478.16</ele>
        <time>2017-10-08T16:30:28Z</time>
      </trkpt>
      <trkpt lat="37.8992201854" lon="-2.8534919489">
        <ele>1478.16</ele>
        <time>2017-10-08T16:30:34Z</time>
      </trkpt>
      <trkpt lat="37.8992447443" lon="-2.8532558307">
        <ele>1480.09</ele>
        <time>2017-10-08T16:30:45Z</time>
      </trkpt>
      <trkpt lat="37.8992590774" lon="-2.8530146834">
        <ele>1481.05</ele>
        <time>2017-10-08T16:30:57Z</time>
      </trkpt>
      <trkpt lat="37.8992411401" lon="-2.8528093267">
        <ele>1482.01</ele>
        <time>2017-10-08T16:31:05Z</time>
      </trkpt>
      <trkpt lat="37.8992878273" lon="-2.8525634017">
        <ele>1482.97</ele>
        <time>2017-10-08T16:31:16Z</time>
      </trkpt>
      <trkpt lat="37.8993799444" lon="-2.8523393534">
        <ele>1483.45</ele>
        <time>2017-10-08T16:31:27Z</time>
      </trkpt>
      <trkpt lat="37.8993930202" lon="-2.8523196559">
        <ele>1483.45</ele>
        <time>2017-10-08T16:31:28Z</time>
      </trkpt>
      <trkpt lat="37.8994278889" lon="-2.8519468289">
        <ele>1483.45</ele>
        <time>2017-10-08T16:31:40Z</time>
      </trkpt>
      <trkpt lat="37.8993982170" lon="-2.8517443221">
        <ele>1483.45</ele>
        <time>2017-10-08T16:31:46Z</time>
      </trkpt>
      <trkpt lat="37.8993685450" lon="-2.8513585031">
        <ele>1483.93</ele>
        <time>2017-10-08T16:32:01Z</time>
      </trkpt>
      <trkpt lat="37.8994257934" lon="-2.8512591776">
        <ele>1484.41</ele>
        <time>2017-10-08T16:32:11Z</time>
      </trkpt>
      <trkpt lat="37.8994117957" lon="-2.8512611054">
        <ele>1484.41</ele>
        <time>2017-10-08T16:32:19Z</time>
      </trkpt>
      <trkpt lat="37.8993961215" lon="-2.8512710799">
        <ele>1483.93</ele>
        <time>2017-10-08T16:32:30Z</time>
      </trkpt>
      <trkpt lat="37.8993449081" lon="-2.8513467684">
        <ele>1483.93</ele>
        <time>2017-10-08T16:32:40Z</time>
      </trkpt>
      <trkpt lat="37.8993433155" lon="-2.8513986524">
        <ele>1483.45</ele>
        <time>2017-10-08T16:32:48Z</time>
      </trkpt>
      <trkpt lat="37.8993294016" lon="-2.8514146619">
        <ele>1483.45</ele>
        <time>2017-10-08T16:32:50Z</time>
      </trkpt>
      <trkpt lat="37.8992927726" lon="-2.8514186013">
        <ele>1483.45</ele>
        <time>2017-10-08T16:32:54Z</time>
      </trkpt>
      <trkpt lat="37.8992247116" lon="-2.8514121473">
        <ele>1484.41</ele>
        <time>2017-10-08T16:33:02Z</time>
      </trkpt>
      <trkpt lat="37.8991352767" lon="-2.8515161667">
        <ele>1485.85</ele>
        <time>2017-10-08T16:33:13Z</time>
      </trkpt>
      <trkpt lat="37.8990087099" lon="-2.8516837209">
        <ele>1487.30</ele>
        <time>2017-10-08T16:33:28Z</time>
      </trkpt>
      <trkpt lat="37.8989791218" lon="-2.8516998980">
        <ele>1487.78</ele>
        <time>2017-10-08T16:33:41Z</time>
      </trkpt>
      <trkpt lat="37.8989184368" lon="-2.8517860640">
        <ele>1488.74</ele>
        <time>2017-10-08T16:33:52Z</time>
      </trkpt>
      <trkpt lat="37.8989193588" lon="-2.8517907578">
        <ele>1489.22</ele>
        <time>2017-10-08T16:34:02Z</time>
      </trkpt>
      <trkpt lat="37.8989114799" lon="-2.8518030792">
        <ele>1488.26</ele>
        <time>2017-10-08T16:34:26Z</time>
      </trkpt>
      <trkpt lat="37.8988372162" lon="-2.8521568794">
        <ele>1483.93</ele>
        <time>2017-10-09T07:16:19Z</time>
      </trkpt>
      <trkpt lat="37.8988300078" lon="-2.8521712124">
        <ele>1485.37</ele>
        <time>2017-10-09T07:16:22Z</time>
      </trkpt>
      <trkpt lat="37.8988271579" lon="-2.8521800973">
        <ele>1477.68</ele>
        <time>2017-10-09T07:16:26Z</time>
      </trkpt>
      <trkpt lat="37.8988275770" lon="-2.8521806002">
        <ele>1488.26</ele>
        <time>2017-10-09T07:16:27Z</time>
      </trkpt>
      <trkpt lat="37.8988254815" lon="-2.8521768283">
        <ele>1487.78</ele>
        <time>2017-10-09T07:16:28Z</time>
      </trkpt>
      <trkpt lat="37.8988346178" lon="-2.8521548677">
        <ele>1491.62</ele>
        <time>2017-10-09T07:16:39Z</time>
      </trkpt>
      <trkpt lat="37.8988359589" lon="-2.8521368466">
        <ele>1492.10</ele>
        <time>2017-10-09T07:16:49Z</time>
      </trkpt>
      <trkpt lat="37.8988039400" lon="-2.8520086035">
        <ele>1494.03</ele>
        <time>2017-10-09T07:17:01Z</time>
      </trkpt>
      <trkpt lat="37.8987910319" lon="-2.8519959468">
        <ele>1494.03</ele>
        <time>2017-10-09T07:17:03Z</time>
      </trkpt>
      <trkpt lat="37.8988025989" lon="-2.8518651891">
        <ele>1494.99</ele>
        <time>2017-10-09T07:17:14Z</time>
      </trkpt>
      <trkpt lat="37.8988325223" lon="-2.8517976310">
        <ele>1494.99</ele>
        <time>2017-10-09T07:17:25Z</time>
      </trkpt>
      <trkpt lat="37.8988618590" lon="-2.8517685458">
        <ele>1495.47</ele>
        <time>2017-10-09T07:17:40Z</time>
      </trkpt>
      <trkpt lat="37.8988975659" lon="-2.8517309111">
        <ele>1494.51</ele>
        <time>2017-10-09T07:17:52Z</time>
      </trkpt>
      <trkpt lat="37.8988989908" lon="-2.8517291509">
        <ele>1494.51</ele>
        <time>2017-10-09T07:17:54Z</time>
      </trkpt>
      <trkpt lat="37.8989512101" lon="-2.8516985569">
        <ele>1494.03</ele>
        <time>2017-10-09T07:17:59Z</time>
      </trkpt>
      <trkpt lat="37.8989826422" lon="-2.8517202660">
        <ele>1493.06</ele>
        <time>2017-10-09T07:18:05Z</time>
      </trkpt>
      <trkpt lat="37.8990007471" lon="-2.8516489360">
        <ele>1493.06</ele>
        <time>2017-10-09T07:25:55Z</time>
      </trkpt>
      <trkpt lat="37.8990122303" lon="-2.8516276460">
        <ele>1493.06</ele>
        <time>2017-10-09T07:25:56Z</time>
      </trkpt>
      <trkpt lat="37.8990351129" lon="-2.8516254667">
        <ele>1492.58</ele>
        <time>2017-10-09T07:26:01Z</time>
      </trkpt>
      <trkpt lat="37.8991046827" lon="-2.8515439108">
        <ele>1490.66</ele>
        <time>2017-10-09T07:26:12Z</time>
      </trkpt>
      <trkpt lat="37.8991791140" lon="-2.8514553141">
        <ele>1488.26</ele>
        <time>2017-10-09T07:26:23Z</time>
      </trkpt>
      <trkpt lat="37.8991869930" lon="-2.8514567390">
        <ele>1488.26</ele>
        <time>2017-10-09T07:26:24Z</time>
      </trkpt>
      <trkpt lat="37.8992950357" lon="-2.8514442500">
        <ele>1486.34</ele>
        <time>2017-10-09T07:26:34Z</time>
      </trkpt>
      <trkpt lat="37.8993395437" lon="-2.8514152486">
        <ele>1486.82</ele>
        <time>2017-10-09T07:26:42Z</time>
      </trkpt>
      <trkpt lat="37.8993914276" lon="-2.8514097165">
        <ele>1486.82</ele>
        <time>2017-10-09T07:27:00Z</time>
      </trkpt>
      <trkpt lat="37.8993541282" lon="-2.8513916116">
        <ele>1486.82</ele>
        <time>2017-10-09T07:27:10Z</time>
      </trkpt>
      <trkpt lat="37.8993488476" lon="-2.8513705730">
        <ele>1486.82</ele>
        <time>2017-10-09T07:27:14Z</time>
      </trkpt>
      <trkpt lat="37.8993256297" lon="-2.8513566591">
        <ele>1486.82</ele>
        <time>2017-10-09T07:27:16Z</time>
      </trkpt>
      <trkpt lat="37.8992595803" lon="-2.8513574135">
        <ele>1487.30</ele>
        <time>2017-10-09T07:27:27Z</time>
      </trkpt>
      <trkpt lat="37.8992612567" lon="-2.8513553180">
        <ele>1487.30</ele>
        <time>2017-10-09T07:27:52Z</time>
      </trkpt>
      <trkpt lat="37.8992673755" lon="-2.8513142467">
        <ele>1487.30</ele>
        <time>2017-10-09T07:28:11Z</time>
      </trkpt>
      <trkpt lat="37.8992730752" lon="-2.8513119835">
        <ele>1488.26</ele>
        <time>2017-10-09T07:28:23Z</time>
      </trkpt>
      <trkpt lat="37.8992746677" lon="-2.8513135761">
        <ele>1487.30</ele>
        <time>2017-10-09T07:28:26Z</time>
      </trkpt>
      <trkpt lat="37.8992972989" lon="-2.8512984049">
        <ele>1487.30</ele>
        <time>2017-10-09T07:28:28Z</time>
      </trkpt>
      <trkpt lat="37.8994432278" lon="-2.8511447646">
        <ele>1487.30</ele>
        <time>2017-10-09T07:28:40Z</time>
      </trkpt>
      <trkpt lat="37.8994558007" lon="-2.8511050344">
        <ele>1487.78</ele>
        <time>2017-10-09T07:28:48Z</time>
      </trkpt>
      <trkpt lat="37.8994881548" lon="-2.8510848340">
        <ele>1487.78</ele>
        <time>2017-10-09T07:29:00Z</time>
      </trkpt>
      <trkpt lat="37.8995351773" lon="-2.8510361351">
        <ele>1487.78</ele>
        <time>2017-10-09T07:29:04Z</time>
      </trkpt>
      <trkpt lat="37.8996751551" lon="-2.8507721052">
        <ele>1487.30</ele>
        <time>2017-10-09T07:29:16Z</time>
      </trkpt>
      <trkpt lat="37.8999034781" lon="-2.8505142778">
        <ele>1487.30</ele>
        <time>2017-10-09T07:29:27Z</time>
      </trkpt>
      <trkpt lat="37.9001209047" lon="-2.8502644971">
        <ele>1487.30</ele>
        <time>2017-10-09T07:29:37Z</time>
      </trkpt>
      <trkpt lat="37.9003096651" lon="-2.8500240203">
        <ele>1487.30</ele>
        <time>2017-10-09T07:29:47Z</time>
      </trkpt>
      <trkpt lat="37.9004867747" lon="-2.8496807814">
        <ele>1487.30</ele>
        <time>2017-10-09T07:29:59Z</time>
      </trkpt>
      <trkpt lat="37.9004999343" lon="-2.8496511932">
        <ele>1487.30</ele>
        <time>2017-10-09T07:30:00Z</time>
      </trkpt>
      <trkpt lat="37.9004976712" lon="-2.8496001475">
        <ele>1487.30</ele>
        <time>2017-10-09T07:30:09Z</time>
      </trkpt>
      <trkpt lat="37.9004993476" lon="-2.8495983034">
        <ele>1487.30</ele>
        <time>2017-10-09T07:30:28Z</time>
      </trkpt>
      <trkpt lat="37.9005030356" lon="-2.8495761752">
        <ele>1487.30</ele>
        <time>2017-10-09T07:30:37Z</time>
      </trkpt>
      <trkpt lat="37.9005172011" lon="-2.8494161647">
        <ele>1486.82</ele>
        <time>2017-10-09T07:30:42Z</time>
      </trkpt>
      <trkpt lat="37.9005450290" lon="-2.8492394742">
        <ele>1486.34</ele>
        <time>2017-10-09T07:30:46Z</time>
      </trkpt>
      <trkpt lat="37.9007850867" lon="-2.8490010090">
        <ele>1483.93</ele>
        <time>2017-10-09T07:30:53Z</time>
      </trkpt>
      <trkpt lat="37.9008365516" lon="-2.8489788808">
        <ele>1483.45</ele>
        <time>2017-10-09T07:30:54Z</time>
      </trkpt>
      <trkpt lat="37.9008826520" lon="-2.8489492089">
        <ele>1482.97</ele>
        <time>2017-10-09T07:30:55Z</time>
      </trkpt>
      <trkpt lat="37.9010803811" lon="-2.8487946466">
        <ele>1481.53</ele>
        <time>2017-10-09T07:31:01Z</time>
      </trkpt>
      <trkpt lat="37.9010503739" lon="-2.8487819899">
        <ele>1482.01</ele>
        <time>2017-10-09T07:31:09Z</time>
      </trkpt>
      <trkpt lat="37.9010196961" lon="-2.8488173615">
        <ele>1482.01</ele>
        <time>2017-10-09T07:31:18Z</time>
      </trkpt>
      <trkpt lat="37.9010114819" lon="-2.8488023579">
        <ele>1482.01</ele>
        <time>2017-10-09T07:31:28Z</time>
      </trkpt>
      <trkpt lat="37.9010233004" lon="-2.8487886116">
        <ele>1481.53</ele>
        <time>2017-10-09T07:31:32Z</time>
      </trkpt>
      <trkpt lat="37.9010421596" lon="-2.8487706743">
        <ele>1482.01</ele>
        <time>2017-10-09T07:31:33Z</time>
      </trkpt>
      <trkpt lat="37.9010645393" lon="-2.8487509768">
        <ele>1481.53</ele>
        <time>2017-10-09T07:31:34Z</time>
      </trkpt>
      <trkpt lat="37.9013869073" lon="-2.8485414293">
        <ele>1481.05</ele>
        <time>2017-10-09T07:31:44Z</time>
      </trkpt>
      <trkpt lat="37.9018422123" lon="-2.8483114298">
        <ele>1481.05</ele>
        <time>2017-10-09T07:31:57Z</time>
      </trkpt>
      <trkpt lat="37.9018785898" lon="-2.8482917324">
        <ele>1481.05</ele>
        <time>2017-10-09T07:31:58Z</time>
      </trkpt>
      <trkpt lat="37.9019151349" lon="-2.8482702747">
        <ele>1480.57</ele>
        <time>2017-10-09T07:31:59Z</time>
      </trkpt>
      <trkpt lat="37.9022637382" lon="-2.8480785806">
        <ele>1481.05</ele>
        <time>2017-10-09T07:32:09Z</time>
      </trkpt>
      <trkpt lat="37.9026351403" lon="-2.8479176480">
        <ele>1481.05</ele>
        <time>2017-10-09T07:32:19Z</time>
      </trkpt>
      <trkpt lat="37.9029402416" lon="-2.8477875609">
        <ele>1482.49</ele>
        <time>2017-10-09T07:32:29Z</time>
      </trkpt>
      <trkpt lat="37.9031586740" lon="-2.8477742337">
        <ele>1482.97</ele>
        <time>2017-10-09T07:32:39Z</time>
      </trkpt>
      <trkpt lat="37.9033180978" lon="-2.8477891535">
        <ele>1484.41</ele>
        <time>2017-10-09T07:32:47Z</time>
      </trkpt>
      <trkpt lat="37.9035118874" lon="-2.8477394488">
        <ele>1485.37</ele>
        <time>2017-10-09T07:32:57Z</time>
      </trkpt>
      <trkpt lat="37.9036795255" lon="-2.8476689570">
        <ele>1485.85</ele>
        <time>2017-10-09T07:33:06Z</time>
      </trkpt>
      <trkpt lat="37.9038088582" lon="-2.8475905024">
        <ele>1486.34</ele>
        <time>2017-10-09T07:33:15Z</time>
      </trkpt>
      <trkpt lat="37.9038241971" lon="-2.8475880716">
        <ele>1486.82</ele>
        <time>2017-10-09T07:33:16Z</time>
      </trkpt>
      <trkpt lat="37.9038401227" lon="-2.8475856408">
        <ele>1486.82</ele>
        <time>2017-10-09T07:33:17Z</time>
      </trkpt>
      <trkpt lat="37.9038550425" lon="-2.8475788515">
        <ele>1486.82</ele>
        <time>2017-10-09T07:33:18Z</time>
      </trkpt>
      <trkpt lat="37.9038707167" lon="-2.8475676198">
        <ele>1486.82</ele>
        <time>2017-10-09T07:33:19Z</time>
      </trkpt>
      <trkpt lat="37.9038869776" lon="-2.8475616686">
        <ele>1486.82</ele>
        <time>2017-10-09T07:33:20Z</time>
      </trkpt>
      <trkpt lat="37.9039048310" lon="-2.8475576453">
        <ele>1487.30</ele>
        <time>2017-10-09T07:33:21Z</time>
      </trkpt>
      <trkpt lat="37.9039252829" lon="-2.8475543763">
        <ele>1487.30</ele>
        <time>2017-10-09T07:33:22Z</time>
      </trkpt>
      <trkpt lat="37.9039415438" lon="-2.8475522809">
        <ele>1487.30</ele>
        <time>2017-10-09T07:33:23Z</time>
      </trkpt>
      <trkpt lat="37.9040933400" lon="-2.8475363553">
        <ele>1487.78</ele>
        <time>2017-10-09T07:33:31Z</time>
      </trkpt>
      <trkpt lat="37.9042535182" lon="-2.8474536259">
        <ele>1488.74</ele>
        <time>2017-10-09T07:33:40Z</time>
      </trkpt>
      <trkpt lat="37.9044007882" lon="-2.8473568987">
        <ele>1489.22</ele>
        <time>2017-10-09T07:33:49Z</time>
      </trkpt>
      <trkpt lat="37.9044154566" lon="-2.8473515343">
        <ele>1489.22</ele>
        <time>2017-10-09T07:33:50Z</time>
      </trkpt>
      <trkpt lat="37.9044277780" lon="-2.8473432362">
        <ele>1489.70</ele>
        <time>2017-10-09T07:33:51Z</time>
      </trkpt>
      <trkpt lat="37.9044369981" lon="-2.8473347705">
        <ele>1489.70</ele>
        <time>2017-10-09T07:33:52Z</time>
      </trkpt>
      <trkpt lat="37.9044517502" lon="-2.8473229520">
        <ele>1489.70</ele>
        <time>2017-10-09T07:33:53Z</time>
      </trkpt>
      <trkpt lat="37.9044680111" lon="-2.8473083675">
        <ele>1490.18</ele>
        <time>2017-10-09T07:33:54Z</time>
      </trkpt>
      <trkpt lat="37.9045450408" lon="-2.8472617641">
        <ele>1489.70</ele>
        <time>2017-10-09T07:33:57Z</time>
      </trkpt>
      <trkpt lat="37.9045757186" lon="-2.8472527117">
        <ele>1489.70</ele>
        <time>2017-10-09T07:33:58Z</time>
      </trkpt>
      <trkpt lat="37.9046002775" lon="-2.8472351097">
        <ele>1490.18</ele>
        <time>2017-10-09T07:33:59Z</time>
      </trkpt>
      <trkpt lat="37.9046286084" lon="-2.8472187649">
        <ele>1490.18</ele>
        <time>2017-10-09T07:34:00Z</time>
      </trkpt>
      <trkpt lat="37.9046557657" lon="-2.8472011629">
        <ele>1490.18</ele>
        <time>2017-10-09T07:34:01Z</time>
      </trkpt>
      <trkpt lat="37.9046802409" lon="-2.8471802082">
        <ele>1490.18</ele>
        <time>2017-10-09T07:34:02Z</time>
      </trkpt>
      <trkpt lat="37.9048543330" lon="-2.8470340278">
        <ele>1490.66</ele>
        <time>2017-10-09T07:34:12Z</time>
      </trkpt>
      <trkpt lat="37.9050410818" lon="-2.8468570020">
        <ele>1490.66</ele>
        <time>2017-10-09T07:34:22Z</time>
      </trkpt>
      <trkpt lat="37.9052544851" lon="-2.8468738496">
        <ele>1491.62</ele>
        <time>2017-10-09T07:34:33Z</time>
      </trkpt>
      <trkpt lat="37.9053907748" lon="-2.8470602632">
        <ele>1492.10</ele>
        <time>2017-10-09T07:34:44Z</time>
      </trkpt>
      <trkpt lat="37.9055046849" lon="-2.8472600877">
        <ele>1493.55</ele>
        <time>2017-10-09T07:34:55Z</time>
      </trkpt>
      <trkpt lat="37.9055934492" lon="-2.8474004846">
        <ele>1494.51</ele>
        <time>2017-10-09T07:35:05Z</time>
      </trkpt>
      <trkpt lat="37.9055820499" lon="-2.8474097885">
        <ele>1494.51</ele>
        <time>2017-10-09T07:35:22Z</time>
      </trkpt>
      <trkpt lat="37.9055833910" lon="-2.8474142309">
        <ele>1494.51</ele>
        <time>2017-10-09T07:35:46Z</time>
      </trkpt>
      <trkpt lat="37.9055947904" lon="-2.8474516980">
        <ele>1494.99</ele>
        <time>2017-10-09T07:36:04Z</time>
      </trkpt>
      <trkpt lat="37.9055997357" lon="-2.8474710602">
        <ele>1494.99</ele>
        <time>2017-10-09T07:36:05Z</time>
      </trkpt>
      <trkpt lat="37.9056085367" lon="-2.8474915959">
        <ele>1494.99</ele>
        <time>2017-10-09T07:36:06Z</time>
      </trkpt>
      <trkpt lat="37.9056296591" lon="-2.8475262970">
        <ele>1495.47</ele>
        <time>2017-10-09T07:36:08Z</time>
      </trkpt>
      <trkpt lat="37.9056472611" lon="-2.8475400433">
        <ele>1495.47</ele>
        <time>2017-10-09T07:36:10Z</time>
      </trkpt>
      <trkpt lat="37.9056594148" lon="-2.8475588188">
        <ele>1495.47</ele>
        <time>2017-10-09T07:36:11Z</time>
      </trkpt>
      <trkpt lat="37.9056729935" lon="-2.8475803602">
        <ele>1495.95</ele>
        <time>2017-10-09T07:36:12Z</time>
      </trkpt>
      <trkpt lat="37.9056864884" lon="-2.8476014826">
        <ele>1495.95</ele>
        <time>2017-10-09T07:36:13Z</time>
      </trkpt>
      <trkpt lat="37.9057004023" lon="-2.8476218507">
        <ele>1495.95</ele>
        <time>2017-10-09T07:36:14Z</time>
      </trkpt>
      <trkpt lat="37.9057204351" lon="-2.8476671129">
        <ele>1495.95</ele>
        <time>2017-10-09T07:36:16Z</time>
      </trkpt>
      <trkpt lat="37.9057280626" lon="-2.8476927616">
        <ele>1495.95</ele>
        <time>2017-10-09T07:36:17Z</time>
      </trkpt>
      <trkpt lat="37.9057406355" lon="-2.8477091063">
        <ele>1496.43</ele>
        <time>2017-10-09T07:36:18Z</time>
      </trkpt>
      <trkpt lat="37.9057586566" lon="-2.8477228526">
        <ele>1496.43</ele>
        <time>2017-10-09T07:36:19Z</time>
      </trkpt>
      <trkpt lat="37.9057782702" lon="-2.8477381915">
        <ele>1496.91</ele>
        <time>2017-10-09T07:36:20Z</time>
      </trkpt>
      <trkpt lat="37.9057952017" lon="-2.8477536980">
        <ele>1496.91</ele>
        <time>2017-10-09T07:36:21Z</time>
      </trkpt>
      <trkpt lat="37.9058140609" lon="-2.8477661032">
        <ele>1496.91</ele>
        <time>2017-10-09T07:36:22Z</time>
      </trkpt>
      <trkpt lat="37.9058315791" lon="-2.8477738146">
        <ele>1496.91</ele>
        <time>2017-10-09T07:36:23Z</time>
      </trkpt>
      <trkpt lat="37.9060243629" lon="-2.8478083480">
        <ele>1497.87</ele>
        <time>2017-10-09T07:36:34Z</time>
      </trkpt>
      <trkpt lat="37.9061925877" lon="-2.8476867266">
        <ele>1498.83</ele>
        <time>2017-10-09T07:36:45Z</time>
      </trkpt>
      <trkpt lat="37.9063527659" lon="-2.8475713916">
        <ele>1499.79</ele>
        <time>2017-10-09T07:36:56Z</time>
      </trkpt>
      <trkpt lat="37.9065028019" lon="-2.8475176636">
        <ele>1500.27</ele>
        <time>2017-10-09T07:37:05Z</time>
      </trkpt>
      <trkpt lat="37.9065412749" lon="-2.8475128859">
        <ele>1500.76</ele>
        <time>2017-10-09T07:37:08Z</time>
      </trkpt>
      <trkpt lat="37.9065629002" lon="-2.8475113772">
        <ele>1500.76</ele>
        <time>2017-10-09T07:37:09Z</time>
      </trkpt>
      <trkpt lat="37.9065840226" lon="-2.8475035820">
        <ele>1500.76</ele>
        <time>2017-10-09T07:37:10Z</time>
      </trkpt>
      <trkpt lat="37.9066674225" lon="-2.8474738263">
        <ele>1501.24</ele>
        <time>2017-10-09T07:37:15Z</time>
      </trkpt>
      <trkpt lat="37.9068600386" lon="-2.8474183381">
        <ele>1501.72</ele>
        <time>2017-10-09T07:37:25Z</time>
      </trkpt>
      <trkpt lat="37.9070394952" lon="-2.8473929409">
        <ele>1503.16</ele>
        <time>2017-10-09T07:37:35Z</time>
      </trkpt>
      <trkpt lat="37.9070683289" lon="-2.8473778535">
        <ele>1503.16</ele>
        <time>2017-10-09T07:37:37Z</time>
      </trkpt>
      <trkpt lat="37.9070809018" lon="-2.8473693877">
        <ele>1503.16</ele>
        <time>2017-10-09T07:37:38Z</time>
      </trkpt>
      <trkpt lat="37.9070969112" lon="-2.8473630175">
        <ele>1503.16</ele>
        <time>2017-10-09T07:37:39Z</time>
      </trkpt>
      <trkpt lat="37.9071135912" lon="-2.8473553900">
        <ele>1503.16</ele>
        <time>2017-10-09T07:37:40Z</time>
      </trkpt>
      <trkpt lat="37.9071292654" lon="-2.8473461699">
        <ele>1503.64</ele>
        <time>2017-10-09T07:37:41Z</time>
      </trkpt>
      <trkpt lat="37.9071415029" lon="-2.8473370336">
        <ele>1503.64</ele>
        <time>2017-10-09T07:37:42Z</time>
      </trkpt>
      <trkpt lat="37.9071524832" lon="-2.8473280650">
        <ele>1503.64</ele>
        <time>2017-10-09T07:37:43Z</time>
      </trkpt>
      <trkpt lat="37.9072947241" lon="-2.8472471796">
        <ele>1504.60</ele>
        <time>2017-10-09T07:37:52Z</time>
      </trkpt>
      <trkpt lat="37.9074803833" lon="-2.8472055215">
        <ele>1505.08</ele>
        <time>2017-10-09T07:38:01Z</time>
      </trkpt>
      <trkpt lat="37.9076452553" lon="-2.8473050985">
        <ele>1506.52</ele>
        <time>2017-10-09T07:38:11Z</time>
      </trkpt>
      <trkpt lat="37.9078297410" lon="-2.8474149853">
        <ele>1507.00</ele>
        <time>2017-10-09T07:38:23Z</time>
      </trkpt>
      <trkpt lat="37.9079917632" lon="-2.8474042565">
        <ele>1507.97</ele>
        <time>2017-10-09T07:38:33Z</time>
      </trkpt>
      <trkpt lat="37.9081605747" lon="-2.8474292345">
        <ele>1508.93</ele>
        <time>2017-10-09T07:38:43Z</time>
      </trkpt>
      <trkpt lat="37.9083458986" lon="-2.8474480938">
        <ele>1510.37</ele>
        <time>2017-10-09T07:38:54Z</time>
      </trkpt>
      <trkpt lat="37.9084202461" lon="-2.8474713117">
        <ele>1510.85</ele>
        <time>2017-10-09T07:38:59Z</time>
      </trkpt>
      <trkpt lat="37.9084370099" lon="-2.8474758379">
        <ele>1510.85</ele>
        <time>2017-10-09T07:39:00Z</time>
      </trkpt>
      <trkpt lat="37.9084542766" lon="-2.8474804480">
        <ele>1510.85</ele>
        <time>2017-10-09T07:39:01Z</time>
      </trkpt>
      <trkpt lat="37.9084705375" lon="-2.8474828787">
        <ele>1511.33</ele>
        <time>2017-10-09T07:39:02Z</time>
      </trkpt>
      <trkpt lat="37.9084875528" lon="-2.8474900872">
        <ele>1511.33</ele>
        <time>2017-10-09T07:39:03Z</time>
      </trkpt>
      <trkpt lat="37.9085034784" lon="-2.8474958707">
        <ele>1511.33</ele>
        <time>2017-10-09T07:39:04Z</time>
      </trkpt>
      <trkpt lat="37.9085209128" lon="-2.8474998940">
        <ele>1511.33</ele>
        <time>2017-10-09T07:39:05Z</time>
      </trkpt>
      <trkpt lat="37.9085388500" lon="-2.8475029115">
        <ele>1511.81</ele>
        <time>2017-10-09T07:39:06Z</time>
      </trkpt>
      <trkpt lat="37.9085565358" lon="-2.8475031629">
        <ele>1511.81</ele>
        <time>2017-10-09T07:39:07Z</time>
      </trkpt>
      <trkpt lat="37.9087094218" lon="-2.8475153167">
        <ele>1512.77</ele>
        <time>2017-10-09T07:39:16Z</time>
      </trkpt>
      <trkpt lat="37.9088495672" lon="-2.8475191724">
        <ele>1513.73</ele>
        <time>2017-10-09T07:39:24Z</time>
      </trkpt>
      <trkpt lat="37.9088882077" lon="-2.8475197591">
        <ele>1513.73</ele>
        <time>2017-10-09T07:39:27Z</time>
      </trkpt>
      <trkpt lat="37.9089832585" lon="-2.8475304041">
        <ele>1514.69</ele>
        <time>2017-10-09T07:39:37Z</time>
      </trkpt>
      <trkpt lat="37.9091078136" lon="-2.8474698029">
        <ele>1515.18</ele>
        <time>2017-10-09T07:39:47Z</time>
      </trkpt>
      <trkpt lat="37.9092232324" lon="-2.8473156597">
        <ele>1516.14</ele>
        <time>2017-10-09T07:39:58Z</time>
      </trkpt>
      <trkpt lat="37.9092353024" lon="-2.8473094571">
        <ele>1516.14</ele>
        <time>2017-10-09T07:39:59Z</time>
      </trkpt>
      <trkpt lat="37.9092513118" lon="-2.8473030031">
        <ele>1516.62</ele>
        <time>2017-10-09T07:40:00Z</time>
      </trkpt>
      <trkpt lat="37.9092672374" lon="-2.8472952917">
        <ele>1516.62</ele>
        <time>2017-10-09T07:40:01Z</time>
      </trkpt>
      <trkpt lat="37.9092807323" lon="-2.8472818807">
        <ele>1516.62</ele>
        <time>2017-10-09T07:40:02Z</time>
      </trkpt>
      <trkpt lat="37.9092917126" lon="-2.8472641949">
        <ele>1516.62</ele>
        <time>2017-10-09T07:40:03Z</time>
      </trkpt>
      <trkpt lat="37.9092988372" lon="-2.8472467605">
        <ele>1516.62</ele>
        <time>2017-10-09T07:40:04Z</time>
      </trkpt>
      <trkpt lat="37.9093325324" lon="-2.8471981455">
        <ele>1516.62</ele>
        <time>2017-10-09T07:40:07Z</time>
      </trkpt>
      <trkpt lat="37.9095243104" lon="-2.8470201138">
        <ele>1517.10</ele>
        <time>2017-10-09T07:40:18Z</time>
      </trkpt>
      <trkpt lat="37.9095553234" lon="-2.8469811380">
        <ele>1516.62</ele>
        <time>2017-10-09T07:40:27Z</time>
      </trkpt>
      <trkpt lat="37.9095381405" lon="-2.8470086306">
        <ele>1517.10</ele>
        <time>2017-10-09T07:40:41Z</time>
      </trkpt>
      <trkpt lat="37.9095314350" lon="-2.8470191918">
        <ele>1517.10</ele>
        <time>2017-10-09T07:40:42Z</time>
      </trkpt>
      <trkpt lat="37.9095238913" lon="-2.8470288310">
        <ele>1517.10</ele>
        <time>2017-10-09T07:40:43Z</time>
      </trkpt>
      <trkpt lat="37.9094575066" lon="-2.8470856603">
        <ele>1517.10</ele>
        <time>2017-10-09T07:40:52Z</time>
      </trkpt>
      <trkpt lat="37.9093781300" lon="-2.8471612651">
        <ele>1517.10</ele>
        <time>2017-10-09T07:41:00Z</time>
      </trkpt>
      <trkpt lat="37.9093293473" lon="-2.8471912723">
        <ele>1516.62</ele>
        <time>2017-10-09T07:41:10Z</time>
      </trkpt>
      <trkpt lat="37.9093317781" lon="-2.8471952956">
        <ele>1516.62</ele>
        <time>2017-10-09T07:41:24Z</time>
      </trkpt>
      <trkpt lat="37.9093439318" lon="-2.8471824713">
        <ele>1517.10</ele>
        <time>2017-10-09T07:41:36Z</time>
      </trkpt>
      <trkpt lat="37.9093350470" lon="-2.8471812140">
        <ele>1516.62</ele>
        <time>2017-10-09T07:41:52Z</time>
      </trkpt>
      <trkpt lat="37.9093407467" lon="-2.8471843153">
        <ele>1516.62</ele>
        <time>2017-10-09T07:42:07Z</time>
      </trkpt>
      <trkpt lat="37.9093476199" lon="-2.8471764363">
        <ele>1516.62</ele>
        <time>2017-10-09T07:42:11Z</time>
      </trkpt>
      <trkpt lat="37.9093615338" lon="-2.8471646179">
        <ele>1516.62</ele>
        <time>2017-10-09T07:42:12Z</time>
      </trkpt>
      <trkpt lat="37.9093744420" lon="-2.8471501172">
        <ele>1516.62</ele>
        <time>2017-10-09T07:42:13Z</time>
      </trkpt>
      <trkpt lat="37.9095759429" lon="-2.8469680622">
        <ele>1516.62</ele>
        <time>2017-10-09T07:42:23Z</time>
      </trkpt>
      <trkpt lat="37.9097112268" lon="-2.8468418308">
        <ele>1517.10</ele>
        <time>2017-10-09T07:42:31Z</time>
      </trkpt>
      <trkpt lat="37.9097928666" lon="-2.8468056209">
        <ele>1517.10</ele>
        <time>2017-10-09T07:42:35Z</time>
      </trkpt>
      <trkpt lat="37.9098123126" lon="-2.8467923775">
        <ele>1517.10</ele>
        <time>2017-10-09T07:42:36Z</time>
      </trkpt>
      <trkpt lat="37.9100111313" lon="-2.8466971591">
        <ele>1517.10</ele>
        <time>2017-10-09T07:42:45Z</time>
      </trkpt>
      <trkpt lat="37.9101315793" lon="-2.8466053773">
        <ele>1516.62</ele>
        <time>2017-10-09T07:42:50Z</time>
      </trkpt>
      <trkpt lat="37.9102770891" lon="-2.8464062233">
        <ele>1516.62</ele>
        <time>2017-10-09T07:43:00Z</time>
      </trkpt>
      <trkpt lat="37.9105453938" lon="-2.8462996893">
        <ele>1516.62</ele>
        <time>2017-10-09T07:43:11Z</time>
      </trkpt>
      <trkpt lat="37.9108613916" lon="-2.8461625613">
        <ele>1516.62</ele>
        <time>2017-10-09T07:43:23Z</time>
      </trkpt>
      <trkpt lat="37.9110960849" lon="-2.8460464720">
        <ele>1517.10</ele>
        <time>2017-10-09T07:43:33Z</time>
      </trkpt>
      <trkpt lat="37.9113394115" lon="-2.8458868805">
        <ele>1518.06</ele>
        <time>2017-10-09T07:43:44Z</time>
      </trkpt>
      <trkpt lat="37.9115502164" lon="-2.8457348328">
        <ele>1519.98</ele>
        <time>2017-10-09T07:43:56Z</time>
      </trkpt>
      <trkpt lat="37.9117938783" lon="-2.8457066696">
        <ele>1520.46</ele>
        <time>2017-10-09T07:44:07Z</time>
      </trkpt>
      <trkpt lat="37.9120269790" lon="-2.8458332364">
        <ele>1519.98</ele>
        <time>2017-10-09T07:44:17Z</time>
      </trkpt>
      <trkpt lat="37.9122930206" lon="-2.8460005391">
        <ele>1519.98</ele>
        <time>2017-10-09T07:44:27Z</time>
      </trkpt>
      <trkpt lat="37.9123214353" lon="-2.8459971864">
        <ele>1519.98</ele>
        <time>2017-10-09T07:44:28Z</time>
      </trkpt>
      <trkpt lat="37.9125953559" lon="-2.8459398542">
        <ele>1519.98</ele>
        <time>2017-10-09T07:44:38Z</time>
      </trkpt>
      <trkpt lat="37.9128114413" lon="-2.8460256848">
        <ele>1520.46</ele>
        <time>2017-10-09T07:44:46Z</time>
      </trkpt>
      <trkpt lat="37.9128588829" lon="-2.8460639063">
        <ele>1520.46</ele>
        <time>2017-10-09T07:44:48Z</time>
      </trkpt>
      <trkpt lat="37.9128842801" lon="-2.8460786585">
        <ele>1520.94</ele>
        <time>2017-10-09T07:44:49Z</time>
      </trkpt>
      <trkpt lat="37.9131702706" lon="-2.8462022077">
        <ele>1520.94</ele>
        <time>2017-10-09T07:44:59Z</time>
      </trkpt>
      <trkpt lat="37.9134277627" lon="-2.8461887967">
        <ele>1521.42</ele>
        <time>2017-10-09T07:45:09Z</time>
      </trkpt>
      <trkpt lat="37.9137050360" lon="-2.8462084942">
        <ele>1522.87</ele>
        <time>2017-10-09T07:45:20Z</time>
      </trkpt>
      <trkpt lat="37.9139590077" lon="-2.8461612202">
        <ele>1523.35</ele>
        <time>2017-10-09T07:45:31Z</time>
      </trkpt>
      <trkpt lat="37.9141731653" lon="-2.8460270260">
        <ele>1524.79</ele>
        <time>2017-10-09T07:45:42Z</time>
      </trkpt>
      <trkpt lat="37.9143840540" lon="-2.8458934184">
        <ele>1525.75</ele>
        <time>2017-10-09T07:45:53Z</time>
      </trkpt>
      <trkpt lat="37.9145604093" lon="-2.8456836194">
        <ele>1526.71</ele>
        <time>2017-10-09T07:46:04Z</time>
      </trkpt>
      <trkpt lat="37.9147330765" lon="-2.8454663604">
        <ele>1527.67</ele>
        <time>2017-10-09T07:46:15Z</time>
      </trkpt>
      <trkpt lat="37.9149427917" lon="-2.8453028295">
        <ele>1528.63</ele>
        <time>2017-10-09T07:46:25Z</time>
      </trkpt>
      <trkpt lat="37.9151607212" lon="-2.8452347685">
        <ele>1529.59</ele>
        <time>2017-10-09T07:46:35Z</time>
      </trkpt>
      <trkpt lat="37.9154394194" lon="-2.8454492614">
        <ele>1529.11</ele>
        <time>2017-10-09T07:46:45Z</time>
      </trkpt>
      <trkpt lat="37.9157484602" lon="-2.8454959486">
        <ele>1529.11</ele>
        <time>2017-10-09T07:46:54Z</time>
      </trkpt>
      <trkpt lat="37.9160356242" lon="-2.8454957809">
        <ele>1528.63</ele>
        <time>2017-10-09T07:47:02Z</time>
      </trkpt>
      <trkpt lat="37.9163513705" lon="-2.8453748301">
        <ele>1528.63</ele>
        <time>2017-10-09T07:47:11Z</time>
      </trkpt>
      <trkpt lat="37.9165389575" lon="-2.8451255523">
        <ele>1528.15</ele>
        <time>2017-10-09T07:47:18Z</time>
      </trkpt>
      <trkpt lat="37.9164843075" lon="-2.8447072953">
        <ele>1528.15</ele>
        <time>2017-10-09T07:47:27Z</time>
      </trkpt>
      <trkpt lat="37.9165190924" lon="-2.8443284333">
        <ele>1528.63</ele>
        <time>2017-10-09T07:47:36Z</time>
      </trkpt>
      <trkpt lat="37.9167554621" lon="-2.8442374896">
        <ele>1528.15</ele>
        <time>2017-10-09T07:47:43Z</time>
      </trkpt>
      <trkpt lat="37.9171583802" lon="-2.8441897966">
        <ele>1528.15</ele>
        <time>2017-10-09T07:47:55Z</time>
      </trkpt>
      <trkpt lat="37.9175703507" lon="-2.8441527486">
        <ele>1527.67</ele>
        <time>2017-10-09T07:48:05Z</time>
      </trkpt>
      <trkpt lat="37.9179120809" lon="-2.8439981025">
        <ele>1527.19</ele>
        <time>2017-10-09T07:48:14Z</time>
      </trkpt>
      <trkpt lat="37.9182451777" lon="-2.8437349107">
        <ele>1527.19</ele>
        <time>2017-10-09T07:48:24Z</time>
      </trkpt>
      <trkpt lat="37.9186325055" lon="-2.8436061647">
        <ele>1527.19</ele>
        <time>2017-10-09T07:48:34Z</time>
      </trkpt>
      <trkpt lat="37.9189448990" lon="-2.8435452282">
        <ele>1527.19</ele>
        <time>2017-10-09T07:48:42Z</time>
      </trkpt>
      <trkpt lat="37.9189861380" lon="-2.8435450606">
        <ele>1527.19</ele>
        <time>2017-10-09T07:48:43Z</time>
      </trkpt>
      <trkpt lat="37.9190242756" lon="-2.8435422946">
        <ele>1527.19</ele>
        <time>2017-10-09T07:48:44Z</time>
      </trkpt>
      <trkpt lat="37.9190626647" lon="-2.8435309790">
        <ele>1527.19</ele>
        <time>2017-10-09T07:48:45Z</time>
      </trkpt>
      <trkpt lat="37.9191018920" lon="-2.8435153048">
        <ele>1527.19</ele>
        <time>2017-10-09T07:48:46Z</time>
      </trkpt>
      <trkpt lat="37.9191429634" lon="-2.8435003851">
        <ele>1527.19</ele>
        <time>2017-10-09T07:48:47Z</time>
      </trkpt>
      <trkpt lat="37.9191836156" lon="-2.8434870578">
        <ele>1527.19</ele>
        <time>2017-10-09T07:48:48Z</time>
      </trkpt>
      <trkpt lat="37.9194823466" lon="-2.8433917556">
        <ele>1526.71</ele>
        <time>2017-10-09T07:48:56Z</time>
      </trkpt>
      <trkpt lat="37.9197783116" lon="-2.8433832899">
        <ele>1526.71</ele>
        <time>2017-10-09T07:49:04Z</time>
      </trkpt>
      <trkpt lat="37.9201271664" lon="-2.8433603235">
        <ele>1526.23</ele>
        <time>2017-10-09T07:49:13Z</time>
      </trkpt>
      <trkpt lat="37.9204150010" lon="-2.8433889057">
        <ele>1526.23</ele>
        <time>2017-10-09T07:49:20Z</time>
      </trkpt>
      <trkpt lat="37.9204588383" lon="-2.8433987126">
        <ele>1526.23</ele>
        <time>2017-10-09T07:49:21Z</time>
      </trkpt>
      <trkpt lat="37.9205049388" lon="-2.8433990479">
        <ele>1525.75</ele>
        <time>2017-10-09T07:49:22Z</time>
      </trkpt>
      <trkpt lat="37.9205495305" lon="-2.8433870617">
        <ele>1525.75</ele>
        <time>2017-10-09T07:49:23Z</time>
      </trkpt>
      <trkpt lat="37.9205937032" lon="-2.8433666099">
        <ele>1525.75</ele>
        <time>2017-10-09T07:49:24Z</time>
      </trkpt>
      <trkpt lat="37.9206336848" lon="-2.8433441464">
        <ele>1525.75</ele>
        <time>2017-10-09T07:49:25Z</time>
      </trkpt>
      <trkpt lat="37.9207099602" lon="-2.8433062602">
        <ele>1525.75</ele>
        <time>2017-10-09T07:49:27Z</time>
      </trkpt>
      <trkpt lat="37.9210437275" lon="-2.8432954475">
        <ele>1525.27</ele>
        <time>2017-10-09T07:49:36Z</time>
      </trkpt>
      <trkpt lat="37.9213669337" lon="-2.8431873210">
        <ele>1525.27</ele>
        <time>2017-10-09T07:49:45Z</time>
      </trkpt>
      <trkpt lat="37.9214745574" lon="-2.8431688808">
        <ele>1520.46</ele>
        <time>2017-10-09T07:49:48Z</time>
      </trkpt>
      <trkpt lat="37.9215103481" lon="-2.8431642707">
        <ele>1527.19</ele>
        <time>2017-10-09T07:49:49Z</time>
      </trkpt>
      <trkpt lat="37.9217376653" lon="-2.8431749158">
        <ele>1523.35</ele>
        <time>2017-10-09T07:49:55Z</time>
      </trkpt>
      <trkpt lat="37.9217721988" lon="-2.8431858961">
        <ele>1530.08</ele>
        <time>2017-10-09T07:49:56Z</time>
      </trkpt>
      <trkpt lat="37.9218044691" lon="-2.8431982175">
        <ele>1525.75</ele>
        <time>2017-10-09T07:49:57Z</time>
      </trkpt>
      <trkpt lat="37.9220864363" lon="-2.8431659471">
        <ele>1526.23</ele>
        <time>2017-10-09T07:50:06Z</time>
      </trkpt>
      <trkpt lat="37.9222438484" lon="-2.8430288192">
        <ele>1527.19</ele>
        <time>2017-10-09T07:50:14Z</time>
      </trkpt>
      <trkpt lat="37.9222750291" lon="-2.8430284001">
        <ele>1527.19</ele>
        <time>2017-10-09T07:50:16Z</time>
      </trkpt>
      <trkpt lat="37.9222932179" lon="-2.8430326749">
        <ele>1527.19</ele>
        <time>2017-10-09T07:50:17Z</time>
      </trkpt>
      <trkpt lat="37.9223156814" lon="-2.8430381231">
        <ele>1527.67</ele>
        <time>2017-10-09T07:50:18Z</time>
      </trkpt>
      <trkpt lat="37.9224819783" lon="-2.8430116363">
        <ele>1528.63</ele>
        <time>2017-10-09T07:50:26Z</time>
      </trkpt>
      <trkpt lat="37.9227174260" lon="-2.8428776097">
        <ele>1529.59</ele>
        <time>2017-10-09T07:50:37Z</time>
      </trkpt>
      <trkpt lat="37.9229114670" lon="-2.8427338600">
        <ele>1530.56</ele>
        <time>2017-10-09T07:50:48Z</time>
      </trkpt>
      <trkpt lat="37.9231074359" lon="-2.8426564112">
        <ele>1532.00</ele>
        <time>2017-10-09T07:50:59Z</time>
      </trkpt>
      <trkpt lat="37.9233011417" lon="-2.8424983285">
        <ele>1533.44</ele>
        <time>2017-10-09T07:51:11Z</time>
      </trkpt>
      <trkpt lat="37.9234625772" lon="-2.8423122503">
        <ele>1534.40</ele>
        <time>2017-10-09T07:51:22Z</time>
      </trkpt>
      <trkpt lat="37.9235151317" lon="-2.8421695903">
        <ele>1535.36</ele>
        <time>2017-10-09T07:51:29Z</time>
      </trkpt>
      <trkpt lat="37.9235272016" lon="-2.8420918901">
        <ele>1535.36</ele>
        <time>2017-10-09T07:51:33Z</time>
      </trkpt>
      <trkpt lat="37.9235312250" lon="-2.8420748748">
        <ele>1535.36</ele>
        <time>2017-10-09T07:51:34Z</time>
      </trkpt>
      <trkpt lat="37.9235334042" lon="-2.8420529980">
        <ele>1535.84</ele>
        <time>2017-10-09T07:51:35Z</time>
      </trkpt>
      <trkpt lat="37.9235363379" lon="-2.8420284390">
        <ele>1535.84</ele>
        <time>2017-10-09T07:51:36Z</time>
      </trkpt>
      <trkpt lat="37.9235375952" lon="-2.8420035448">
        <ele>1535.84</ele>
        <time>2017-10-09T07:51:37Z</time>
      </trkpt>
      <trkpt lat="37.9235396069" lon="-2.8419789020">
        <ele>1535.84</ele>
        <time>2017-10-09T07:51:38Z</time>
      </trkpt>
      <trkpt lat="37.9235398583" lon="-2.8419535886">
        <ele>1535.84</ele>
        <time>2017-10-09T07:51:39Z</time>
      </trkpt>
      <trkpt lat="37.9235428758" lon="-2.8419278562">
        <ele>1535.84</ele>
        <time>2017-10-09T07:51:40Z</time>
      </trkpt>
      <trkpt lat="37.9235437140" lon="-2.8419086616">
        <ele>1536.32</ele>
        <time>2017-10-09T07:51:41Z</time>
      </trkpt>
      <trkpt lat="37.9235483240" lon="-2.8418940771">
        <ele>1536.32</ele>
        <time>2017-10-09T07:51:42Z</time>
      </trkpt>
      <trkpt lat="37.9235546943" lon="-2.8418714460">
        <ele>1536.80</ele>
        <time>2017-10-09T07:51:43Z</time>
      </trkpt>
      <trkpt lat="37.9235576279" lon="-2.8418498207">
        <ele>1536.32</ele>
        <time>2017-10-09T07:51:44Z</time>
      </trkpt>
      <trkpt lat="37.9235642496" lon="-2.8418315481">
        <ele>1536.80</ele>
        <time>2017-10-09T07:51:45Z</time>
      </trkpt>
      <trkpt lat="37.9235725477" lon="-2.8418128565">
        <ele>1536.80</ele>
        <time>2017-10-09T07:51:46Z</time>
      </trkpt>
      <trkpt lat="37.9251048435" lon="-2.8409064375">
        <ele>1543.53</ele>
        <time>2017-10-09T07:53:57Z</time>
      </trkpt>
      <trkpt lat="37.9250918515" lon="-2.8408906795">
        <ele>1543.53</ele>
        <time>2017-10-09T07:53:58Z</time>
      </trkpt>
      <trkpt lat="37.9250540491" lon="-2.8408373706">
        <ele>1543.05</ele>
        <time>2017-10-09T07:54:15Z</time>
      </trkpt>
      <trkpt lat="37.9250697233" lon="-2.8408284858">
        <ele>1543.53</ele>
        <time>2017-10-09T07:54:43Z</time>
      </trkpt>
      <trkpt lat="37.9250714835" lon="-2.8408518713">
        <ele>1543.53</ele>
        <time>2017-10-09T07:55:03Z</time>
      </trkpt>
      <trkpt lat="37.9250834696" lon="-2.8408369515">
        <ele>1543.53</ele>
        <time>2017-10-09T07:55:29Z</time>
      </trkpt>
      <trkpt lat="37.9250672087" lon="-2.8408013284">
        <ele>1544.01</ele>
        <time>2017-10-09T07:55:49Z</time>
      </trkpt>
      <trkpt lat="37.9250696395" lon="-2.8408022504">
        <ele>1544.01</ele>
        <time>2017-10-09T07:56:04Z</time>
      </trkpt>
      <trkpt lat="37.9250688013" lon="-2.8408018313">
        <ele>1544.01</ele>
        <time>2017-10-09T07:56:05Z</time>
      </trkpt>
      <trkpt lat="37.9250695556" lon="-2.8406921960">
        <ele>1544.50</ele>
        <time>2017-10-09T07:56:12Z</time>
      </trkpt>
      <trkpt lat="37.9250574019" lon="-2.8404636215">
        <ele>1545.94</ele>
        <time>2017-10-09T07:56:24Z</time>
      </trkpt>
      <trkpt lat="37.9250454996" lon="-2.8404006734">
        <ele>1545.94</ele>
        <time>2017-10-09T07:56:27Z</time>
      </trkpt>
      <trkpt lat="37.9250255506" lon="-2.8403146751">
        <ele>1545.94</ele>
        <time>2017-10-09T07:56:31Z</time>
      </trkpt>
      <trkpt lat="37.9248221219" lon="-2.8401338775">
        <ele>1546.42</ele>
        <time>2017-10-09T07:56:42Z</time>
      </trkpt>
      <trkpt lat="37.9247996584" lon="-2.8401292674">
        <ele>1546.42</ele>
        <time>2017-10-09T07:56:43Z</time>
      </trkpt>
      <trkpt lat="37.9245345388" lon="-2.8400042094">
        <ele>1546.90</ele>
        <time>2017-10-09T07:56:54Z</time>
      </trkpt>
      <trkpt lat="37.9243984167" lon="-2.8397387546">
        <ele>1546.90</ele>
        <time>2017-10-09T07:57:03Z</time>
      </trkpt>
      <trkpt lat="37.9243425932" lon="-2.8395557776">
        <ele>1547.38</ele>
        <time>2017-10-09T07:57:09Z</time>
      </trkpt>
      <trkpt lat="37.9243316129" lon="-2.8392374329">
        <ele>1547.38</ele>
        <time>2017-10-09T07:57:18Z</time>
      </trkpt>
      <trkpt lat="37.9243705049" lon="-2.8388890810">
        <ele>1548.34</ele>
        <time>2017-10-09T07:57:28Z</time>
      </trkpt>
      <trkpt lat="37.9243915435" lon="-2.8385765199">
        <ele>1549.30</ele>
        <time>2017-10-09T07:57:39Z</time>
      </trkpt>
      <trkpt lat="37.9243822396" lon="-2.8385281563">
        <ele>1549.30</ele>
        <time>2017-10-09T07:57:41Z</time>
      </trkpt>
      <trkpt lat="37.9242405854" lon="-2.8383020125">
        <ele>1550.74</ele>
        <time>2017-10-09T07:57:53Z</time>
      </trkpt>
      <trkpt lat="37.9240348935" lon="-2.8381084744">
        <ele>1549.30</ele>
        <time>2017-10-09T07:58:02Z</time>
      </trkpt>
      <trkpt lat="37.9238124378" lon="-2.8380119987">
        <ele>1549.78</ele>
        <time>2017-10-09T07:58:13Z</time>
      </trkpt>
      <trkpt lat="37.9237166326" lon="-2.8380007669">
        <ele>1550.26</ele>
        <time>2017-10-09T07:58:18Z</time>
      </trkpt>
      <trkpt lat="37.9236277845" lon="-2.8379594442">
        <ele>1550.74</ele>
        <time>2017-10-09T07:58:24Z</time>
      </trkpt>
      <trkpt lat="37.9234710429" lon="-2.8378420975">
        <ele>1551.71</ele>
        <time>2017-10-09T07:58:35Z</time>
      </trkpt>
      <trkpt lat="37.9234283790" lon="-2.8377982602">
        <ele>1551.71</ele>
        <time>2017-10-09T07:58:38Z</time>
      </trkpt>
      <trkpt lat="37.9232457373" lon="-2.8376671672">
        <ele>1553.15</ele>
        <time>2017-10-09T07:58:49Z</time>
      </trkpt>
      <trkpt lat="37.9232274648" lon="-2.8376575280">
        <ele>1553.15</ele>
        <time>2017-10-09T07:58:50Z</time>
      </trkpt>
      <trkpt lat="37.9231441487" lon="-2.8376696818">
        <ele>1553.63</ele>
        <time>2017-10-09T07:58:54Z</time>
      </trkpt>
      <trkpt lat="37.9230574798" lon="-2.8376907203">
        <ele>1554.11</ele>
        <time>2017-10-09T07:59:00Z</time>
      </trkpt>
      <trkpt lat="37.9229423124" lon="-2.8377845138">
        <ele>1554.59</ele>
        <time>2017-10-09T07:59:10Z</time>
      </trkpt>
      <trkpt lat="37.9228792805" lon="-2.8378414270">
        <ele>1555.07</ele>
        <time>2017-10-09T07:59:14Z</time>
      </trkpt>
      <trkpt lat="37.9228460044" lon="-2.8378485516">
        <ele>1555.55</ele>
        <time>2017-10-09T07:59:17Z</time>
      </trkpt>
      <trkpt lat="37.9227206111" lon="-2.8379124217">
        <ele>1556.51</ele>
        <time>2017-10-09T07:59:24Z</time>
      </trkpt>
      <trkpt lat="37.9225331917" lon="-2.8379659820">
        <ele>1556.99</ele>
        <time>2017-10-09T07:59:34Z</time>
      </trkpt>
      <trkpt lat="37.9223926272" lon="-2.8379752859">
        <ele>1558.43</ele>
        <time>2017-10-09T07:59:43Z</time>
      </trkpt>
      <trkpt lat="37.9222463630" lon="-2.8379229829">
        <ele>1559.40</ele>
        <time>2017-10-09T07:59:51Z</time>
      </trkpt>
      <trkpt lat="37.9221484624" lon="-2.8376779798">
        <ele>1559.88</ele>
        <time>2017-10-09T08:00:02Z</time>
      </trkpt>
      <trkpt lat="37.9221224785" lon="-2.8375942446">
        <ele>1560.36</ele>
        <time>2017-10-09T08:00:06Z</time>
      </trkpt>
      <trkpt lat="37.9220745340" lon="-2.8374946676">
        <ele>1560.84</ele>
        <time>2017-10-09T08:00:12Z</time>
      </trkpt>
      <trkpt lat="37.9219859373" lon="-2.8373944201">
        <ele>1561.32</ele>
        <time>2017-10-09T08:00:19Z</time>
      </trkpt>
      <trkpt lat="37.9218320455" lon="-2.8373131156">
        <ele>1562.28</ele>
        <time>2017-10-09T08:00:28Z</time>
      </trkpt>
      <trkpt lat="37.9217461310" lon="-2.8371759877">
        <ele>1563.24</ele>
        <time>2017-10-09T08:00:37Z</time>
      </trkpt>
      <trkpt lat="37.9217794910" lon="-2.8370197490">
        <ele>1563.72</ele>
        <time>2017-10-09T08:00:44Z</time>
      </trkpt>
      <trkpt lat="37.9218783975" lon="-2.8368243668">
        <ele>1563.72</ele>
        <time>2017-10-09T08:00:57Z</time>
      </trkpt>
      <trkpt lat="37.9219697602" lon="-2.8366214409">
        <ele>1563.24</ele>
        <time>2017-10-09T08:01:06Z</time>
      </trkpt>
      <trkpt lat="37.9219715204" lon="-2.8366040904">
        <ele>1563.24</ele>
        <time>2017-10-09T08:01:07Z</time>
      </trkpt>
      <trkpt lat="37.9219075665" lon="-2.8364037629">
        <ele>1563.24</ele>
        <time>2017-10-09T08:01:16Z</time>
      </trkpt>
      <trkpt lat="37.9217744619" lon="-2.8360851668">
        <ele>1563.24</ele>
        <time>2017-10-09T08:01:26Z</time>
      </trkpt>
      <trkpt lat="37.9216952529" lon="-2.8357058018">
        <ele>1562.76</ele>
        <time>2017-10-09T08:01:36Z</time>
      </trkpt>
      <trkpt lat="37.9215687700" lon="-2.8353907261">
        <ele>1563.24</ele>
        <time>2017-10-09T08:01:45Z</time>
      </trkpt>
      <trkpt lat="37.9213089310" lon="-2.8352347389">
        <ele>1562.76</ele>
        <time>2017-10-09T08:01:54Z</time>
      </trkpt>
      <trkpt lat="37.9210796021" lon="-2.8352024686">
        <ele>1562.76</ele>
        <time>2017-10-09T08:02:01Z</time>
      </trkpt>
      <trkpt lat="37.9207782727" lon="-2.8353700228">
        <ele>1562.76</ele>
        <time>2017-10-09T08:02:09Z</time>
      </trkpt>
      <trkpt lat="37.9204826429" lon="-2.8355561011">
        <ele>1563.72</ele>
        <time>2017-10-09T08:02:19Z</time>
      </trkpt>
      <trkpt lat="37.9202778731" lon="-2.8355250880">
        <ele>1564.68</ele>
        <time>2017-10-09T08:02:29Z</time>
      </trkpt>
      <trkpt lat="37.9200964887" lon="-2.8354436997">
        <ele>1566.12</ele>
        <time>2017-10-09T08:02:40Z</time>
      </trkpt>
      <trkpt lat="37.9200519808" lon="-2.8354121000">
        <ele>1566.61</ele>
        <time>2017-10-09T08:02:43Z</time>
      </trkpt>
      <trkpt lat="37.9199800640" lon="-2.8352949210">
        <ele>1567.09</ele>
        <time>2017-10-09T08:02:50Z</time>
      </trkpt>
      <trkpt lat="37.9199667368" lon="-2.8352842759">
        <ele>1567.09</ele>
        <time>2017-10-09T08:02:51Z</time>
      </trkpt>
      <trkpt lat="37.9199553374" lon="-2.8352713678">
        <ele>1567.57</ele>
        <time>2017-10-09T08:02:52Z</time>
      </trkpt>
      <trkpt lat="37.9198413435" lon="-2.8351472318">
        <ele>1568.05</ele>
        <time>2017-10-09T08:03:01Z</time>
      </trkpt>
      <trkpt lat="37.9198264237" lon="-2.8351368383">
        <ele>1568.53</ele>
        <time>2017-10-09T08:03:02Z</time>
      </trkpt>
      <trkpt lat="37.9198156111" lon="-2.8351263609">
        <ele>1568.53</ele>
        <time>2017-10-09T08:03:03Z</time>
      </trkpt>
      <trkpt lat="37.9198157787" lon="-2.8351038974">
        <ele>1568.53</ele>
        <time>2017-10-09T08:03:15Z</time>
      </trkpt>
      <trkpt lat="37.9198135156" lon="-2.8350907378">
        <ele>1568.53</ele>
        <time>2017-10-09T08:03:29Z</time>
      </trkpt>
      <trkpt lat="37.9197712708" lon="-2.8350662626">
        <ele>1569.01</ele>
        <time>2017-10-09T08:03:34Z</time>
      </trkpt>
      <trkpt lat="37.9197286908" lon="-2.8350572940">
        <ele>1569.49</ele>
        <time>2017-10-09T08:03:37Z</time>
      </trkpt>
      <trkpt lat="37.9195865337" lon="-2.8350815177">
        <ele>1569.97</ele>
        <time>2017-10-09T08:03:46Z</time>
      </trkpt>
      <trkpt lat="37.9194343183" lon="-2.8350525163">
        <ele>1570.93</ele>
        <time>2017-10-09T08:03:56Z</time>
      </trkpt>
      <trkpt lat="37.9192836117" lon="-2.8349806834">
        <ele>1571.89</ele>
        <time>2017-10-09T08:04:05Z</time>
      </trkpt>
      <trkpt lat="37.9191359226" lon="-2.8348904941">
        <ele>1572.85</ele>
        <time>2017-10-09T08:04:15Z</time>
      </trkpt>
      <trkpt lat="37.9191207513" lon="-2.8348819446">
        <ele>1572.85</ele>
        <time>2017-10-09T08:04:16Z</time>
      </trkpt>
      <trkpt lat="37.9191057477" lon="-2.8348727245">
        <ele>1572.85</ele>
        <time>2017-10-09T08:04:17Z</time>
      </trkpt>
      <trkpt lat="37.9189599864" lon="-2.8347076848">
        <ele>1573.82</ele>
        <time>2017-10-09T08:04:28Z</time>
      </trkpt>
      <trkpt lat="37.9188687075" lon="-2.8346281406">
        <ele>1574.78</ele>
        <time>2017-10-09T08:04:34Z</time>
      </trkpt>
      <trkpt lat="37.9188602418" lon="-2.8346097004">
        <ele>1574.30</ele>
        <time>2017-10-09T08:04:35Z</time>
      </trkpt>
      <trkpt lat="37.9187948629" lon="-2.8345064353">
        <ele>1574.78</ele>
        <time>2017-10-09T08:04:42Z</time>
      </trkpt>
      <trkpt lat="37.9187905882" lon="-2.8344730753">
        <ele>1575.26</ele>
        <time>2017-10-09T08:04:49Z</time>
      </trkpt>
      <trkpt lat="37.9187936895" lon="-2.8344551381">
        <ele>1575.26</ele>
        <time>2017-10-09T08:04:50Z</time>
      </trkpt>
      <trkpt lat="37.9187993892" lon="-2.8344351891">
        <ele>1575.26</ele>
        <time>2017-10-09T08:04:51Z</time>
      </trkpt>
      <trkpt lat="37.9188059270" lon="-2.8343714867">
        <ele>1575.26</ele>
        <time>2017-10-09T08:04:54Z</time>
      </trkpt>
      <trkpt lat="37.9187642690" lon="-2.8341743443">
        <ele>1575.74</ele>
        <time>2017-10-09T08:05:05Z</time>
      </trkpt>
      <trkpt lat="37.9187030811" lon="-2.8339404054">
        <ele>1576.22</ele>
        <time>2017-10-09T08:05:16Z</time>
      </trkpt>
      <trkpt lat="37.9186323378" lon="-2.8337177821">
        <ele>1577.18</ele>
        <time>2017-10-09T08:05:26Z</time>
      </trkpt>
      <trkpt lat="37.9185998999" lon="-2.8336622100">
        <ele>1577.18</ele>
        <time>2017-10-09T08:05:29Z</time>
      </trkpt>
      <trkpt lat="37.9185928591" lon="-2.8336422611">
        <ele>1577.18</ele>
        <time>2017-10-09T08:05:30Z</time>
      </trkpt>
      <trkpt lat="37.9185837228" lon="-2.8336223960">
        <ele>1577.18</ele>
        <time>2017-10-09T08:05:31Z</time>
      </trkpt>
      <trkpt lat="37.9185221158" lon="-2.8333972581">
        <ele>1577.66</ele>
        <time>2017-10-09T08:05:41Z</time>
      </trkpt>
      <trkpt lat="37.9184834752" lon="-2.8331955895">
        <ele>1578.62</ele>
        <time>2017-10-09T08:05:50Z</time>
      </trkpt>
      <trkpt lat="37.9184736684" lon="-2.8331727907">
        <ele>1578.62</ele>
        <time>2017-10-09T08:06:01Z</time>
      </trkpt>
      <trkpt lat="37.9184677172" lon="-2.8331354074">
        <ele>1579.10</ele>
        <time>2017-10-09T08:06:16Z</time>
      </trkpt>
      <trkpt lat="37.9183936212" lon="-2.8330862056">
        <ele>1579.10</ele>
        <time>2017-10-09T08:06:22Z</time>
      </trkpt>
      <trkpt lat="37.9183693137" lon="-2.8330858704">
        <ele>1579.10</ele>
        <time>2017-10-09T08:06:23Z</time>
      </trkpt>
      <trkpt lat="37.9181730095" lon="-2.8330813441">
        <ele>1580.06</ele>
        <time>2017-10-09T08:06:33Z</time>
      </trkpt>
      <trkpt lat="37.9179759510" lon="-2.8330603056">
        <ele>1580.54</ele>
        <time>2017-10-09T08:06:44Z</time>
      </trkpt>
      <trkpt lat="37.9178418405" lon="-2.8330864571">
        <ele>1581.51</ele>
        <time>2017-10-09T08:06:53Z</time>
      </trkpt>
      <trkpt lat="37.9178087320" lon="-2.8330939170">
        <ele>1581.99</ele>
        <time>2017-10-09T08:06:56Z</time>
      </trkpt>
      <trkpt lat="37.9177985061" lon="-2.8330997005">
        <ele>1581.99</ele>
        <time>2017-10-09T08:06:57Z</time>
      </trkpt>
      <trkpt lat="37.9177848436" lon="-2.8330951743">
        <ele>1581.99</ele>
        <time>2017-10-09T08:06:58Z</time>
      </trkpt>
      <trkpt lat="37.9177667387" lon="-2.8331027180">
        <ele>1582.47</ele>
        <time>2017-10-09T08:06:59Z</time>
      </trkpt>
      <trkpt lat="37.9177582730" lon="-2.8331150394">
        <ele>1582.47</ele>
        <time>2017-10-09T08:07:00Z</time>
      </trkpt>
      <trkpt lat="37.9177463707" lon="-2.8331290372">
        <ele>1582.47</ele>
        <time>2017-10-09T08:07:01Z</time>
      </trkpt>
      <trkpt lat="37.9176450334" lon="-2.8331639059">
        <ele>1583.43</ele>
        <time>2017-10-09T08:07:09Z</time>
      </trkpt>
      <trkpt lat="37.9176201392" lon="-2.8331633192">
        <ele>1583.43</ele>
        <time>2017-10-09T08:07:10Z</time>
      </trkpt>
      <trkpt lat="37.9175987653" lon="-2.8331715334">
        <ele>1583.43</ele>
        <time>2017-10-09T08:07:11Z</time>
      </trkpt>
      <trkpt lat="37.9174981825" lon="-2.8331799153">
        <ele>1584.39</ele>
        <time>2017-10-09T08:07:16Z</time>
      </trkpt>
      <trkpt lat="37.9174774792" lon="-2.8331760596">
        <ele>1584.39</ele>
        <time>2017-10-09T08:07:17Z</time>
      </trkpt>
      <trkpt lat="37.9174600448" lon="-2.8331766464">
        <ele>1584.39</ele>
        <time>2017-10-09T08:07:18Z</time>
      </trkpt>
      <trkpt lat="37.9172535986" lon="-2.8332276922">
        <ele>1585.83</ele>
        <time>2017-10-09T08:07:28Z</time>
      </trkpt>
      <trkpt lat="37.9171008803" lon="-2.8332917299">
        <ele>1587.27</ele>
        <time>2017-10-09T08:07:38Z</time>
      </trkpt>
      <trkpt lat="37.9169047438" lon="-2.8333493136">
        <ele>1587.75</ele>
        <time>2017-10-09T08:07:49Z</time>
      </trkpt>
      <trkpt lat="37.9166998062" lon="-2.8333753813">
        <ele>1590.16</ele>
        <time>2017-10-09T08:08:01Z</time>
      </trkpt>
      <trkpt lat="37.9166897479" lon="-2.8333672509">
        <ele>1590.16</ele>
        <time>2017-10-09T08:08:02Z</time>
      </trkpt>
      <trkpt lat="37.9166748282" lon="-2.8333483916">
        <ele>1590.64</ele>
        <time>2017-10-09T08:08:04Z</time>
      </trkpt>
      <trkpt lat="37.9166038334" lon="-2.8331414424">
        <ele>1591.60</ele>
        <time>2017-10-09T08:08:16Z</time>
      </trkpt>
      <trkpt lat="37.9165496863" lon="-2.8329375945">
        <ele>1593.52</ele>
        <time>2017-10-09T08:08:27Z</time>
      </trkpt>
      <trkpt lat="37.9165417235" lon="-2.8329216689">
        <ele>1593.52</ele>
        <time>2017-10-09T08:08:28Z</time>
      </trkpt>
      <trkpt lat="37.9165340960" lon="-2.8329059109">
        <ele>1593.52</ele>
        <time>2017-10-09T08:08:29Z</time>
      </trkpt>
      <trkpt lat="37.9165308271" lon="-2.8328885604">
        <ele>1594.00</ele>
        <time>2017-10-09T08:08:30Z</time>
      </trkpt>
      <trkpt lat="37.9165293183" lon="-2.8328729700">
        <ele>1594.00</ele>
        <time>2017-10-09T08:08:31Z</time>
      </trkpt>
      <trkpt lat="37.9165273067" lon="-2.8328549489">
        <ele>1594.00</ele>
        <time>2017-10-09T08:08:32Z</time>
      </trkpt>
      <trkpt lat="37.9165236186" lon="-2.8328362573">
        <ele>1594.00</ele>
        <time>2017-10-09T08:08:33Z</time>
      </trkpt>
      <trkpt lat="37.9165196791" lon="-2.8328173142">
        <ele>1594.48</ele>
        <time>2017-10-09T08:08:34Z</time>
      </trkpt>
      <trkpt lat="37.9165180866" lon="-2.8327987064">
        <ele>1594.48</ele>
        <time>2017-10-09T08:08:35Z</time>
      </trkpt>
      <trkpt lat="37.9165195953" lon="-2.8327810206">
        <ele>1594.48</ele>
        <time>2017-10-09T08:08:36Z</time>
      </trkpt>
      <trkpt lat="37.9165231157" lon="-2.8327650111">
        <ele>1594.48</ele>
        <time>2017-10-09T08:08:37Z</time>
      </trkpt>
      <trkpt lat="37.9165264685" lon="-2.8327490017">
        <ele>1594.48</ele>
        <time>2017-10-09T08:08:38Z</time>
      </trkpt>
      <trkpt lat="37.9165279772" lon="-2.8327308968">
        <ele>1594.96</ele>
        <time>2017-10-09T08:08:39Z</time>
      </trkpt>
      <trkpt lat="37.9165247921" lon="-2.8325456567">
        <ele>1595.93</ele>
        <time>2017-10-09T08:08:49Z</time>
      </trkpt>
      <trkpt lat="37.9165230319" lon="-2.8325267136">
        <ele>1595.93</ele>
        <time>2017-10-09T08:08:50Z</time>
      </trkpt>
      <trkpt lat="37.9165143147" lon="-2.8325128835">
        <ele>1595.93</ele>
        <time>2017-10-09T08:08:51Z</time>
      </trkpt>
      <trkpt lat="37.9164087866" lon="-2.8323745821">
        <ele>1596.89</ele>
        <time>2017-10-09T08:09:02Z</time>
      </trkpt>
      <trkpt lat="37.9163952079" lon="-2.8323688824">
        <ele>1596.89</ele>
        <time>2017-10-09T08:09:03Z</time>
      </trkpt>
      <trkpt lat="37.9163807072" lon="-2.8323611710">
        <ele>1596.89</ele>
        <time>2017-10-09T08:09:04Z</time>
      </trkpt>
      <trkpt lat="37.9163641948" lon="-2.8323522862">
        <ele>1596.89</ele>
        <time>2017-10-09T08:09:05Z</time>
      </trkpt>
      <trkpt lat="37.9163469281" lon="-2.8323525377">
        <ele>1597.37</ele>
        <time>2017-10-09T08:09:06Z</time>
      </trkpt>
      <trkpt lat="37.9163315054" lon="-2.8323434852">
        <ele>1597.37</ele>
        <time>2017-10-09T08:09:07Z</time>
      </trkpt>
      <trkpt lat="37.9163154121" lon="-2.8323309124">
        <ele>1597.37</ele>
        <time>2017-10-09T08:09:08Z</time>
      </trkpt>
      <trkpt lat="37.9161698185" lon="-2.8322088718">
        <ele>1597.85</ele>
        <time>2017-10-09T08:09:17Z</time>
      </trkpt>
      <trkpt lat="37.9161356203" lon="-2.8321264777">
        <ele>1597.85</ele>
        <time>2017-10-09T08:09:21Z</time>
      </trkpt>
      <trkpt lat="37.9161289148" lon="-2.8321036790">
        <ele>1597.85</ele>
        <time>2017-10-09T08:09:22Z</time>
      </trkpt>
      <trkpt lat="37.9161207844" lon="-2.8320812155">
        <ele>1597.85</ele>
        <time>2017-10-09T08:09:23Z</time>
      </trkpt>
      <trkpt lat="37.9161161743" lon="-2.8320574109">
        <ele>1597.85</ele>
        <time>2017-10-09T08:09:24Z</time>
      </trkpt>
      <trkpt lat="37.9161170125" lon="-2.8320325166">
        <ele>1597.85</ele>
        <time>2017-10-09T08:09:25Z</time>
      </trkpt>
      <trkpt lat="37.9161157552" lon="-2.8318976518">
        <ele>1597.37</ele>
        <time>2017-10-09T08:09:33Z</time>
      </trkpt>
      <trkpt lat="37.9161502887" lon="-2.8317394853">
        <ele>1597.37</ele>
        <time>2017-10-09T08:09:42Z</time>
      </trkpt>
      <trkpt lat="37.9161549825" lon="-2.8317198716">
        <ele>1597.37</ele>
        <time>2017-10-09T08:09:43Z</time>
      </trkpt>
      <trkpt lat="37.9161562398" lon="-2.8316978272">
        <ele>1597.37</ele>
        <time>2017-10-09T08:09:44Z</time>
      </trkpt>
      <trkpt lat="37.9161574971" lon="-2.8316747770">
        <ele>1597.37</ele>
        <time>2017-10-09T08:09:45Z</time>
      </trkpt>
      <trkpt lat="37.9162030946" lon="-2.8313477151">
        <ele>1596.41</ele>
        <time>2017-10-09T08:09:54Z</time>
      </trkpt>
      <trkpt lat="37.9161668848" lon="-2.8310317174">
        <ele>1595.93</ele>
        <time>2017-10-09T08:10:01Z</time>
      </trkpt>
      <trkpt lat="37.9161682259" lon="-2.8308434598">
        <ele>1595.45</ele>
        <time>2017-10-09T08:10:04Z</time>
      </trkpt>
      <trkpt lat="37.9161720816" lon="-2.8307847027">
        <ele>1595.45</ele>
        <time>2017-10-09T08:10:05Z</time>
      </trkpt>
      <trkpt lat="37.9161699023" lon="-2.8307228442">
        <ele>1595.45</ele>
        <time>2017-10-09T08:10:06Z</time>
      </trkpt>
      <trkpt lat="37.9161655437" lon="-2.8306655958">
        <ele>1595.45</ele>
        <time>2017-10-09T08:10:07Z</time>
      </trkpt>
      <trkpt lat="37.9161625262" lon="-2.8306100238">
        <ele>1595.45</ele>
        <time>2017-10-09T08:10:08Z</time>
      </trkpt>
      <trkpt lat="37.9161574971" lon="-2.8305484168">
        <ele>1594.96</ele>
        <time>2017-10-09T08:10:09Z</time>
      </trkpt>
      <trkpt lat="37.9161517974" lon="-2.8304863907">
        <ele>1594.96</ele>
        <time>2017-10-09T08:10:10Z</time>
      </trkpt>
      <trkpt lat="37.9161491152" lon="-2.8304285556">
        <ele>1594.96</ele>
        <time>2017-10-09T08:10:11Z</time>
      </trkpt>
      <trkpt lat="37.9161467683" lon="-2.8303722292">
        <ele>1594.96</ele>
        <time>2017-10-09T08:10:12Z</time>
      </trkpt>
      <trkpt lat="37.9161457624" lon="-2.8303106222">
        <ele>1594.48</ele>
        <time>2017-10-09T08:10:13Z</time>
      </trkpt>
      <trkpt lat="37.9161468521" lon="-2.8302521165">
        <ele>1594.48</ele>
        <time>2017-10-09T08:10:14Z</time>
      </trkpt>
      <trkpt lat="37.9161436670" lon="-2.8301930241">
        <ele>1594.48</ele>
        <time>2017-10-09T08:10:15Z</time>
      </trkpt>
      <trkpt lat="37.9161442537" lon="-2.8301298246">
        <ele>1594.48</ele>
        <time>2017-10-09T08:10:16Z</time>
      </trkpt>
      <trkpt lat="37.9161686450" lon="-2.8295902815">
        <ele>1593.52</ele>
        <time>2017-10-09T08:10:25Z</time>
      </trkpt>
      <trkpt lat="37.9162016697" lon="-2.8295079712">
        <ele>1593.04</ele>
        <time>2017-10-09T08:10:27Z</time>
      </trkpt>
      <trkpt lat="37.9162263125" lon="-2.8294880223">
        <ele>1593.04</ele>
        <time>2017-10-09T08:10:28Z</time>
      </trkpt>
      <trkpt lat="37.9162481055" lon="-2.8294785507">
        <ele>1593.52</ele>
        <time>2017-10-09T08:10:29Z</time>
      </trkpt>
      <trkpt lat="37.9162682220" lon="-2.8294749465">
        <ele>1593.04</ele>
        <time>2017-10-09T08:10:30Z</time>
      </trkpt>
      <trkpt lat="37.9162877519" lon="-2.8294733539">
        <ele>1593.04</ele>
        <time>2017-10-09T08:10:31Z</time>
      </trkpt>
      <trkpt lat="37.9163069464" lon="-2.8294653911">
        <ele>1593.04</ele>
        <time>2017-10-09T08:10:32Z</time>
      </trkpt>
      <trkpt lat="37.9163293261" lon="-2.8294566739">
        <ele>1592.56</ele>
        <time>2017-10-09T08:10:33Z</time>
      </trkpt>
      <trkpt lat="37.9163797852" lon="-2.8294442687">
        <ele>1592.56</ele>
        <time>2017-10-09T08:10:36Z</time>
      </trkpt>
      <trkpt lat="37.9164046794" lon="-2.8294181172">
        <ele>1592.08</ele>
        <time>2017-10-09T08:10:45Z</time>
      </trkpt>
      <trkpt lat="37.9164154083" lon="-2.8294158541">
        <ele>1592.08</ele>
        <time>2017-10-09T08:11:03Z</time>
      </trkpt>
      <trkpt lat="37.9164998140" lon="-2.8293833323">
        <ele>1592.08</ele>
        <time>2017-10-09T08:11:15Z</time>
      </trkpt>
      <trkpt lat="37.9165139794" lon="-2.8293689154">
        <ele>1592.08</ele>
        <time>2017-10-09T08:11:16Z</time>
      </trkpt>
      <trkpt lat="37.9166224413" lon="-2.8291918896">
        <ele>1592.56</ele>
        <time>2017-10-09T08:11:26Z</time>
      </trkpt>
      <trkpt lat="37.9167937674" lon="-2.8290091641">
        <ele>1593.04</ele>
        <time>2017-10-09T08:11:37Z</time>
      </trkpt>
      <trkpt lat="37.9168816935" lon="-2.8289580345">
        <ele>1593.52</ele>
        <time>2017-10-09T08:11:42Z</time>
      </trkpt>
      <trkpt lat="37.9168994632" lon="-2.8289495688">
        <ele>1594.00</ele>
        <time>2017-10-09T08:11:43Z</time>
      </trkpt>
      <trkpt lat="37.9169163108" lon="-2.8289375827">
        <ele>1594.00</ele>
        <time>2017-10-09T08:11:44Z</time>
      </trkpt>
      <trkpt lat="37.9170851223" lon="-2.8288668394">
        <ele>1595.45</ele>
        <time>2017-10-09T08:11:53Z</time>
      </trkpt>
      <trkpt lat="37.9172121920" lon="-2.8287866246">
        <ele>1596.41</ele>
        <time>2017-10-09T08:12:02Z</time>
      </trkpt>
      <trkpt lat="37.9173999466" lon="-2.8287191503">
        <ele>1597.37</ele>
        <time>2017-10-09T08:12:14Z</time>
      </trkpt>
      <trkpt lat="37.9175748769" lon="-2.8285303898">
        <ele>1598.33</ele>
        <time>2017-10-09T08:12:26Z</time>
      </trkpt>
      <trkpt lat="37.9175675008" lon="-2.8285204992">
        <ele>1597.85</ele>
        <time>2017-10-09T08:12:42Z</time>
      </trkpt>
      <trkpt lat="37.9175830074" lon="-2.8285114467">
        <ele>1598.33</ele>
        <time>2017-10-09T08:12:44Z</time>
      </trkpt>
      <trkpt lat="37.9175920598" lon="-2.8284953535">
        <ele>1597.85</ele>
        <time>2017-10-09T08:12:45Z</time>
      </trkpt>
      <trkpt lat="37.9176022857" lon="-2.8284800146">
        <ele>1597.85</ele>
        <time>2017-10-09T08:12:46Z</time>
      </trkpt>
      <trkpt lat="37.9176136851" lon="-2.8284661006">
        <ele>1597.85</ele>
        <time>2017-10-09T08:12:47Z</time>
      </trkpt>
      <trkpt lat="37.9176244140" lon="-2.8284489177">
        <ele>1597.85</ele>
        <time>2017-10-09T08:12:48Z</time>
      </trkpt>
      <trkpt lat="37.9176374059" lon="-2.8284306452">
        <ele>1597.85</ele>
        <time>2017-10-09T08:12:49Z</time>
      </trkpt>
      <trkpt lat="37.9176548403" lon="-2.8284132946">
        <ele>1597.85</ele>
        <time>2017-10-09T08:12:50Z</time>
      </trkpt>
      <trkpt lat="37.9176715203" lon="-2.8283971176">
        <ele>1597.85</ele>
        <time>2017-10-09T08:12:51Z</time>
      </trkpt>
      <trkpt lat="37.9176871944" lon="-2.8283811081">
        <ele>1597.85</ele>
        <time>2017-10-09T08:12:52Z</time>
      </trkpt>
      <trkpt lat="37.9179301020" lon="-2.8282337543">
        <ele>1598.33</ele>
        <time>2017-10-09T08:13:03Z</time>
      </trkpt>
      <trkpt lat="37.9181339499" lon="-2.8281470016">
        <ele>1598.81</ele>
        <time>2017-10-09T08:13:11Z</time>
      </trkpt>
      <trkpt lat="37.9183960520" lon="-2.8280308284">
        <ele>1598.81</ele>
        <time>2017-10-09T08:13:21Z</time>
      </trkpt>
      <trkpt lat="37.9186576512" lon="-2.8279174212">
        <ele>1599.29</ele>
        <time>2017-10-09T08:13:31Z</time>
      </trkpt>
      <trkpt lat="37.9188891593" lon="-2.8278714046">
        <ele>1599.29</ele>
        <time>2017-10-09T08:13:38Z</time>
      </trkpt>
      <trkpt lat="37.9190697894" lon="-2.8278604243">
        <ele>1599.29</ele>
        <time>2017-10-09T08:13:43Z</time>
      </trkpt>
      <trkpt lat="37.9191448912" lon="-2.8278239630">
        <ele>1599.29</ele>
        <time>2017-10-09T08:13:45Z</time>
      </trkpt>
      <trkpt lat="37.9192280397" lon="-2.8277294151">
        <ele>1599.77</ele>
        <time>2017-10-09T08:13:49Z</time>
      </trkpt>
      <trkpt lat="37.9192375112" lon="-2.8277108073">
        <ele>1599.77</ele>
        <time>2017-10-09T08:13:50Z</time>
      </trkpt>
      <trkpt lat="37.9192483239" lon="-2.8276948817">
        <ele>1600.25</ele>
        <time>2017-10-09T08:13:51Z</time>
      </trkpt>
      <trkpt lat="37.9193287063" lon="-2.8274803888">
        <ele>1601.21</ele>
        <time>2017-10-09T08:14:01Z</time>
      </trkpt>
      <trkpt lat="37.9194475617" lon="-2.8271985892">
        <ele>1603.14</ele>
        <time>2017-10-09T08:14:14Z</time>
      </trkpt>
      <trkpt lat="37.9195150360" lon="-2.8270146064">
        <ele>1604.58</ele>
        <time>2017-10-09T08:14:23Z</time>
      </trkpt>
      <trkpt lat="37.9196464643" lon="-2.8268988524">
        <ele>1606.50</ele>
        <time>2017-10-09T08:14:32Z</time>
      </trkpt>
      <trkpt lat="37.9196608812" lon="-2.8268980980">
        <ele>1606.50</ele>
        <time>2017-10-09T08:14:33Z</time>
      </trkpt>
      <trkpt lat="37.9196758009" lon="-2.8268963378">
        <ele>1606.50</ele>
        <time>2017-10-09T08:14:34Z</time>
      </trkpt>
      <trkpt lat="37.9197872803" lon="-2.8269540053">
        <ele>1607.94</ele>
        <time>2017-10-09T08:14:43Z</time>
      </trkpt>
      <trkpt lat="37.9197953269" lon="-2.8269638959">
        <ele>1607.94</ele>
        <time>2017-10-09T08:14:44Z</time>
      </trkpt>
      <trkpt lat="37.9198012780" lon="-2.8269755468">
        <ele>1607.94</ele>
        <time>2017-10-09T08:14:45Z</time>
      </trkpt>
      <trkpt lat="37.9198058881" lon="-2.8269874491">
        <ele>1607.94</ele>
        <time>2017-10-09T08:14:46Z</time>
      </trkpt>
      <trkpt lat="37.9199195467" lon="-2.8271157760">
        <ele>1609.38</ele>
        <time>2017-10-09T08:14:58Z</time>
      </trkpt>
      <trkpt lat="37.9200075567" lon="-2.8272799775">
        <ele>1610.35</ele>
        <time>2017-10-09T08:15:07Z</time>
      </trkpt>
      <trkpt lat="37.9200326186" lon="-2.8273101524">
        <ele>1610.83</ele>
        <time>2017-10-09T08:15:09Z</time>
      </trkpt>
      <trkpt lat="37.9200462811" lon="-2.8273215517">
        <ele>1610.83</ele>
        <time>2017-10-09T08:15:10Z</time>
      </trkpt>
      <trkpt lat="37.9200571775" lon="-2.8273353819">
        <ele>1610.83</ele>
        <time>2017-10-09T08:15:11Z</time>
      </trkpt>
      <trkpt lat="37.9201098997" lon="-2.8273721784">
        <ele>1611.31</ele>
        <time>2017-10-09T08:15:15Z</time>
      </trkpt>
      <trkpt lat="37.9201260768" lon="-2.8273705021">
        <ele>1611.31</ele>
        <time>2017-10-09T08:15:16Z</time>
      </trkpt>
      <trkpt lat="37.9202983249" lon="-2.8274465259">
        <ele>1612.75</ele>
        <time>2017-10-09T08:15:28Z</time>
      </trkpt>
      <trkpt lat="37.9204582516" lon="-2.8274424188">
        <ele>1614.19</ele>
        <time>2017-10-09T08:15:39Z</time>
      </trkpt>
      <trkpt lat="37.9206128139" lon="-2.8274682350">
        <ele>1615.15</ele>
        <time>2017-10-09T08:15:50Z</time>
      </trkpt>
      <trkpt lat="37.9207796976" lon="-2.8274208773">
        <ele>1616.59</ele>
        <time>2017-10-09T08:16:01Z</time>
      </trkpt>
      <trkpt lat="37.9209565558" lon="-2.8274585120">
        <ele>1617.56</ele>
        <time>2017-10-09T08:16:12Z</time>
      </trkpt>
      <trkpt lat="37.9209743254" lon="-2.8274624515">
        <ele>1618.04</ele>
        <time>2017-10-09T08:16:13Z</time>
      </trkpt>
      <trkpt lat="37.9209918436" lon="-2.8274724260">
        <ele>1618.04</ele>
        <time>2017-10-09T08:16:14Z</time>
      </trkpt>
      <trkpt lat="37.9210096132" lon="-2.8274770360">
        <ele>1618.04</ele>
        <time>2017-10-09T08:16:15Z</time>
      </trkpt>
      <trkpt lat="37.9210252035" lon="-2.8274802212">
        <ele>1618.04</ele>
        <time>2017-10-09T08:16:16Z</time>
      </trkpt>
      <trkpt lat="37.9210407939" lon="-2.8274846636">
        <ele>1618.52</ele>
        <time>2017-10-09T08:16:17Z</time>
      </trkpt>
      <trkpt lat="37.9210551269" lon="-2.8274886869">
        <ele>1618.52</ele>
        <time>2017-10-09T08:16:18Z</time>
      </trkpt>
      <trkpt lat="37.9210706335" lon="-2.8274944704">
        <ele>1618.52</ele>
        <time>2017-10-09T08:16:19Z</time>
      </trkpt>
      <trkpt lat="37.9210873134" lon="-2.8275041096">
        <ele>1619.00</ele>
        <time>2017-10-09T08:16:20Z</time>
      </trkpt>
      <trkpt lat="37.9211007245" lon="-2.8275095578">
        <ele>1619.00</ele>
        <time>2017-10-09T08:16:21Z</time>
      </trkpt>
      <trkpt lat="37.9211130459" lon="-2.8275136650">
        <ele>1619.00</ele>
        <time>2017-10-09T08:16:22Z</time>
      </trkpt>
      <trkpt lat="37.9211300611" lon="-2.8275088035">
        <ele>1619.00</ele>
        <time>2017-10-09T08:16:23Z</time>
      </trkpt>
      <trkpt lat="37.9211473279" lon="-2.8274975717">
        <ele>1619.48</ele>
        <time>2017-10-09T08:16:24Z</time>
      </trkpt>
      <trkpt lat="37.9211635049" lon="-2.8274794668">
        <ele>1619.48</ele>
        <time>2017-10-09T08:16:25Z</time>
      </trkpt>
      <trkpt lat="37.9211806040" lon="-2.8274656367">
        <ele>1619.48</ele>
        <time>2017-10-09T08:16:26Z</time>
      </trkpt>
      <trkpt lat="37.9211996309" lon="-2.8274568357">
        <ele>1619.48</ele>
        <time>2017-10-09T08:16:27Z</time>
      </trkpt>
      <trkpt lat="37.9212136287" lon="-2.8274544049">
        <ele>1619.48</ele>
        <time>2017-10-09T08:16:28Z</time>
      </trkpt>
      <trkpt lat="37.9212262016" lon="-2.8274546564">
        <ele>1619.96</ele>
        <time>2017-10-09T08:16:29Z</time>
      </trkpt>
      <trkpt lat="37.9212863836" lon="-2.8274413291">
        <ele>1620.44</ele>
        <time>2017-10-09T08:16:33Z</time>
      </trkpt>
      <trkpt lat="37.9213018902" lon="-2.8274373896">
        <ele>1620.44</ele>
        <time>2017-10-09T08:16:34Z</time>
      </trkpt>
      <trkpt lat="37.9213171452" lon="-2.8274304327">
        <ele>1620.44</ele>
        <time>2017-10-09T08:16:35Z</time>
      </trkpt>
      <trkpt lat="37.9214717913" lon="-2.8273237310">
        <ele>1621.88</ele>
        <time>2017-10-09T08:16:47Z</time>
      </trkpt>
      <trkpt lat="37.9216672573" lon="-2.8272147663">
        <ele>1622.84</ele>
        <time>2017-10-09T08:16:59Z</time>
      </trkpt>
      <trkpt lat="37.9216950014" lon="-2.8271992598">
        <ele>1623.32</ele>
        <time>2017-10-09T08:17:01Z</time>
      </trkpt>
      <trkpt lat="37.9217045568" lon="-2.8271856811">
        <ele>1623.32</ele>
        <time>2017-10-09T08:17:02Z</time>
      </trkpt>
      <trkpt lat="37.9217147827" lon="-2.8271694202">
        <ele>1623.32</ele>
        <time>2017-10-09T08:17:03Z</time>
      </trkpt>
      <trkpt lat="37.9217251763" lon="-2.8271573503">
        <ele>1623.32</ele>
        <time>2017-10-09T08:17:04Z</time>
      </trkpt>
      <trkpt lat="37.9217380006" lon="-2.8271481302">
        <ele>1623.32</ele>
        <time>2017-10-09T08:17:05Z</time>
      </trkpt>
      <trkpt lat="37.9218602087" lon="-2.8270540014">
        <ele>1624.28</ele>
        <time>2017-10-09T08:17:14Z</time>
      </trkpt>
      <trkpt lat="37.9218768049" lon="-2.8270414285">
        <ele>1624.77</ele>
        <time>2017-10-09T08:17:15Z</time>
      </trkpt>
      <trkpt lat="37.9219276831" lon="-2.8269700147">
        <ele>1625.25</ele>
        <time>2017-10-09T08:17:19Z</time>
      </trkpt>
      <trkpt lat="37.9219339695" lon="-2.8269505687">
        <ele>1625.25</ele>
        <time>2017-10-09T08:17:20Z</time>
      </trkpt>
      <trkpt lat="37.9219412617" lon="-2.8269354813">
        <ele>1625.25</ele>
        <time>2017-10-09T08:17:21Z</time>
      </trkpt>
      <trkpt lat="37.9219530802" lon="-2.8269193042">
        <ele>1625.73</ele>
        <time>2017-10-09T08:17:22Z</time>
      </trkpt>
      <trkpt lat="37.9219674971" lon="-2.8269074857">
        <ele>1625.73</ele>
        <time>2017-10-09T08:17:23Z</time>
      </trkpt>
      <trkpt lat="37.9219799023" lon="-2.8268984333">
        <ele>1625.73</ele>
        <time>2017-10-09T08:17:24Z</time>
      </trkpt>
      <trkpt lat="37.9219965823" lon="-2.8268918116">
        <ele>1625.73</ele>
        <time>2017-10-09T08:17:25Z</time>
      </trkpt>
      <trkpt lat="37.9220125917" lon="-2.8268830944">
        <ele>1626.21</ele>
        <time>2017-10-09T08:17:26Z</time>
      </trkpt>
      <trkpt lat="37.9220545851" lon="-2.8268552665">
        <ele>1626.21</ele>
        <time>2017-10-09T08:17:29Z</time>
      </trkpt>
      <trkpt lat="37.9220657330" lon="-2.8268421907">
        <ele>1626.69</ele>
        <time>2017-10-09T08:17:30Z</time>
      </trkpt>
      <trkpt lat="37.9220794793" lon="-2.8268279415">
        <ele>1626.69</ele>
        <time>2017-10-09T08:17:31Z</time>
      </trkpt>
      <trkpt lat="37.9220908787" lon="-2.8268155362">
        <ele>1626.69</ele>
        <time>2017-10-09T08:17:32Z</time>
      </trkpt>
      <trkpt lat="37.9221754521" lon="-2.8266730439">
        <ele>1627.65</ele>
        <time>2017-10-09T08:17:41Z</time>
      </trkpt>
      <trkpt lat="37.9221888632" lon="-2.8266506642">
        <ele>1627.65</ele>
        <time>2017-10-09T08:17:42Z</time>
      </trkpt>
      <trkpt lat="37.9222004302" lon="-2.8266292904">
        <ele>1628.13</ele>
        <time>2017-10-09T08:17:43Z</time>
      </trkpt>
      <trkpt lat="37.9222114943" lon="-2.8266121075">
        <ele>1628.61</ele>
        <time>2017-10-09T08:17:44Z</time>
      </trkpt>
      <trkpt lat="37.9222230613" lon="-2.8266010433">
        <ele>1628.13</ele>
        <time>2017-10-09T08:17:45Z</time>
      </trkpt>
      <trkpt lat="37.9222393222" lon="-2.8265872970">
        <ele>1628.61</ele>
        <time>2017-10-09T08:17:46Z</time>
      </trkpt>
      <trkpt lat="37.9223549925" lon="-2.8264687769">
        <ele>1629.09</ele>
        <time>2017-10-09T08:17:55Z</time>
      </trkpt>
      <trkpt lat="37.9223683197" lon="-2.8264557850">
        <ele>1629.09</ele>
        <time>2017-10-09T08:17:56Z</time>
      </trkpt>
      <trkpt lat="37.9223834909" lon="-2.8264458105">
        <ele>1630.05</ele>
        <time>2017-10-09T08:17:57Z</time>
      </trkpt>
      <trkpt lat="37.9223998357" lon="-2.8264362551">
        <ele>1629.57</ele>
        <time>2017-10-09T08:17:58Z</time>
      </trkpt>
      <trkpt lat="37.9224167671" lon="-2.8264193237">
        <ele>1629.57</ele>
        <time>2017-10-09T08:17:59Z</time>
      </trkpt>
      <trkpt lat="37.9224318545" lon="-2.8264016379">
        <ele>1629.57</ele>
        <time>2017-10-09T08:18:00Z</time>
      </trkpt>
      <trkpt lat="37.9225816391" lon="-2.8262367658">
        <ele>1631.01</ele>
        <time>2017-10-09T08:18:11Z</time>
      </trkpt>
      <trkpt lat="37.9227086250" lon="-2.8259920981">
        <ele>1631.98</ele>
        <time>2017-10-09T08:18:23Z</time>
      </trkpt>
      <trkpt lat="37.9227370396" lon="-2.8259082790">
        <ele>1631.98</ele>
        <time>2017-10-09T08:18:27Z</time>
      </trkpt>
      <trkpt lat="37.9227467626" lon="-2.8258864023">
        <ele>1631.98</ele>
        <time>2017-10-09T08:18:28Z</time>
      </trkpt>
      <trkpt lat="37.9227573238" lon="-2.8258677945">
        <ele>1632.46</ele>
        <time>2017-10-09T08:18:29Z</time>
      </trkpt>
      <trkpt lat="37.9227667116" lon="-2.8258462530">
        <ele>1632.46</ele>
        <time>2017-10-09T08:18:30Z</time>
      </trkpt>
      <trkpt lat="37.9227751773" lon="-2.8258247953">
        <ele>1632.46</ele>
        <time>2017-10-09T08:18:31Z</time>
      </trkpt>
      <trkpt lat="37.9228064418" lon="-2.8257361148">
        <ele>1632.94</ele>
        <time>2017-10-09T08:18:41Z</time>
      </trkpt>
      <trkpt lat="37.9228082020" lon="-2.8257312533">
        <ele>1632.46</ele>
        <time>2017-10-09T08:18:55Z</time>
      </trkpt>
      <trkpt lat="37.9228084534" lon="-2.8257268108">
        <ele>1632.46</ele>
        <time>2017-10-09T08:19:07Z</time>
      </trkpt>
      <trkpt lat="37.9228123091" lon="-2.8257247992">
        <ele>1632.46</ele>
        <time>2017-10-09T08:19:21Z</time>
      </trkpt>
      <trkpt lat="37.9228108842" lon="-2.8257194348">
        <ele>1632.46</ele>
        <time>2017-10-09T08:19:34Z</time>
      </trkpt>
      <trkpt lat="37.9228552245" lon="-2.8255688958">
        <ele>1632.94</ele>
        <time>2017-10-09T08:19:42Z</time>
      </trkpt>
      <trkpt lat="37.9229289852" lon="-2.8253056202">
        <ele>1633.42</ele>
        <time>2017-10-09T08:19:54Z</time>
      </trkpt>
      <trkpt lat="37.9229708109" lon="-2.8250201326">
        <ele>1634.38</ele>
        <time>2017-10-09T08:20:05Z</time>
      </trkpt>
      <trkpt lat="37.9229471739" lon="-2.8247410990">
        <ele>1634.86</ele>
        <time>2017-10-09T08:20:15Z</time>
      </trkpt>
      <trkpt lat="37.9228973854" lon="-2.8244449664">
        <ele>1635.82</ele>
        <time>2017-10-09T08:20:26Z</time>
      </trkpt>
      <trkpt lat="37.9228764307" lon="-2.8241884802">
        <ele>1636.30</ele>
        <time>2017-10-09T08:20:37Z</time>
      </trkpt>
      <trkpt lat="37.9229294043" lon="-2.8239532001">
        <ele>1636.30</ele>
        <time>2017-10-09T08:20:47Z</time>
      </trkpt>
      <trkpt lat="37.9229599983" lon="-2.8238733206">
        <ele>1636.30</ele>
        <time>2017-10-09T08:20:56Z</time>
      </trkpt>
      <trkpt lat="37.9229604173" lon="-2.8238757513">
        <ele>1636.30</ele>
        <time>2017-10-09T08:21:09Z</time>
      </trkpt>
      <trkpt lat="37.9229505267" lon="-2.8238760028">
        <ele>1636.30</ele>
        <time>2017-10-09T08:21:31Z</time>
      </trkpt>
      <trkpt lat="37.9229546338" lon="-2.8238706384">
        <ele>1636.30</ele>
        <time>2017-10-09T08:21:56Z</time>
      </trkpt>
      <trkpt lat="37.9229563940" lon="-2.8238647711">
        <ele>1636.30</ele>
        <time>2017-10-09T08:22:15Z</time>
      </trkpt>
      <trkpt lat="37.9229527060" lon="-2.8238448221">
        <ele>1636.78</ele>
        <time>2017-10-09T08:22:39Z</time>
      </trkpt>
      <trkpt lat="37.9229471739" lon="-2.8238331713">
        <ele>1636.78</ele>
        <time>2017-10-09T08:23:04Z</time>
      </trkpt>
      <trkpt lat="37.9229411390" lon="-2.8238332551">
        <ele>1636.78</ele>
        <time>2017-10-09T08:23:31Z</time>
      </trkpt>
      <trkpt lat="37.9229532089" lon="-2.8238196764">
        <ele>1636.78</ele>
        <time>2017-10-09T08:23:55Z</time>
      </trkpt>
      <trkpt lat="37.9229610879" lon="-2.8238198441">
        <ele>1637.26</ele>
        <time>2017-10-09T08:24:13Z</time>
      </trkpt>
      <trkpt lat="37.9229669552" lon="-2.8238165751">
        <ele>1637.26</ele>
        <time>2017-10-09T08:24:32Z</time>
      </trkpt>
      <trkpt lat="37.9229625128" lon="-2.8238180000">
        <ele>1637.26</ele>
        <time>2017-10-09T08:24:51Z</time>
      </trkpt>
      <trkpt lat="37.9229571484" lon="-2.8238192573">
        <ele>1637.26</ele>
        <time>2017-10-09T08:25:13Z</time>
      </trkpt>
      <trkpt lat="37.9229703918" lon="-2.8238106240">
        <ele>1637.26</ele>
        <time>2017-10-09T08:25:35Z</time>
      </trkpt>
      <trkpt lat="37.9229893349" lon="-2.8238059301">
        <ele>1637.74</ele>
        <time>2017-10-09T08:25:59Z</time>
      </trkpt>
      <trkpt lat="37.9229822941" lon="-2.8238063492">
        <ele>1637.74</ele>
        <time>2017-10-09T08:26:24Z</time>
      </trkpt>
      <trkpt lat="37.9229781870" lon="-2.8238060977">
        <ele>1637.74</ele>
        <time>2017-10-09T08:26:36Z</time>
      </trkpt>
      <trkpt lat="37.9229713138" lon="-2.8238137253">
        <ele>1637.74</ele>
        <time>2017-10-09T08:26:53Z</time>
      </trkpt>
      <trkpt lat="37.9230398778" lon="-2.8236884158">
        <ele>1637.74</ele>
        <time>2017-10-09T08:27:01Z</time>
      </trkpt>
      <trkpt lat="37.9232956935" lon="-2.8234396409">
        <ele>1637.74</ele>
        <time>2017-10-09T08:27:12Z</time>
      </trkpt>
      <trkpt lat="37.9233729746" lon="-2.8232756909">
        <ele>1637.26</ele>
        <time>2017-10-09T08:27:16Z</time>
      </trkpt>
      <trkpt lat="37.9233894870" lon="-2.8232257348">
        <ele>1636.78</ele>
        <time>2017-10-09T08:27:17Z</time>
      </trkpt>
      <trkpt lat="37.9234759882" lon="-2.8229463659">
        <ele>1635.82</ele>
        <time>2017-10-09T08:27:22Z</time>
      </trkpt>
      <trkpt lat="37.9235730506" lon="-2.8226287756">
        <ele>1634.38</ele>
        <time>2017-10-09T08:27:27Z</time>
      </trkpt>
      <trkpt lat="37.9235921614" lon="-2.8225675039">
        <ele>1634.38</ele>
        <time>2017-10-09T08:27:28Z</time>
      </trkpt>
      <trkpt lat="37.9235989507" lon="-2.8225109261">
        <ele>1633.90</ele>
        <time>2017-10-09T08:27:29Z</time>
      </trkpt>
      <trkpt lat="37.9235992860" lon="-2.8224523365">
        <ele>1633.90</ele>
        <time>2017-10-09T08:27:30Z</time>
      </trkpt>
      <trkpt lat="37.9235902335" lon="-2.8223950043">
        <ele>1633.90</ele>
        <time>2017-10-09T08:27:31Z</time>
      </trkpt>
      <trkpt lat="37.9235733021" lon="-2.8223448806">
        <ele>1633.42</ele>
        <time>2017-10-09T08:27:32Z</time>
      </trkpt>
      <trkpt lat="37.9235462286" lon="-2.8223033901">
        <ele>1633.42</ele>
        <time>2017-10-09T08:27:33Z</time>
      </trkpt>
      <trkpt lat="37.9235142097" lon="-2.8222686891">
        <ele>1633.42</ele>
        <time>2017-10-09T08:27:34Z</time>
      </trkpt>
      <trkpt lat="37.9234786704" lon="-2.8222368378">
        <ele>1632.94</ele>
        <time>2017-10-09T08:27:35Z</time>
      </trkpt>
      <trkpt lat="37.9234452266" lon="-2.8222002927">
        <ele>1632.94</ele>
        <time>2017-10-09T08:27:36Z</time>
      </trkpt>
      <trkpt lat="37.9234148841" lon="-2.8221523482">
        <ele>1632.46</ele>
        <time>2017-10-09T08:27:37Z</time>
      </trkpt>
      <trkpt lat="37.9233898222" lon="-2.8220920824">
        <ele>1631.98</ele>
        <time>2017-10-09T08:27:38Z</time>
      </trkpt>
      <trkpt lat="37.9233761597" lon="-2.8220263682">
        <ele>1631.98</ele>
        <time>2017-10-09T08:27:39Z</time>
      </trkpt>
      <trkpt lat="37.9233755730" lon="-2.8219542839">
        <ele>1631.98</ele>
        <time>2017-10-09T08:27:40Z</time>
      </trkpt>
      <trkpt lat="37.9233805183" lon="-2.8218806908">
        <ele>1631.49</ele>
        <time>2017-10-09T08:27:41Z</time>
      </trkpt>
      <trkpt lat="37.9233916663" lon="-2.8218076006">
        <ele>1631.49</ele>
        <time>2017-10-09T08:27:42Z</time>
      </trkpt>
      <trkpt lat="37.9234132916" lon="-2.8217341751">
        <ele>1631.01</ele>
        <time>2017-10-09T08:27:43Z</time>
      </trkpt>
      <trkpt lat="37.9234415386" lon="-2.8216673713">
        <ele>1631.01</ele>
        <time>2017-10-09T08:27:44Z</time>
      </trkpt>
      <trkpt lat="37.9234682769" lon="-2.8216023277">
        <ele>1631.01</ele>
        <time>2017-10-09T08:27:45Z</time>
      </trkpt>
      <trkpt lat="37.9234906565" lon="-2.8215335123">
        <ele>1630.53</ele>
        <time>2017-10-09T08:27:46Z</time>
      </trkpt>
      <trkpt lat="37.9235049896" lon="-2.8214644454">
        <ele>1630.53</ele>
        <time>2017-10-09T08:27:47Z</time>
      </trkpt>
      <trkpt lat="37.9235122818" lon="-2.8213996533">
        <ele>1630.05</ele>
        <time>2017-10-09T08:27:48Z</time>
      </trkpt>
      <trkpt lat="37.9235119466" lon="-2.8213356156">
        <ele>1630.05</ele>
        <time>2017-10-09T08:27:49Z</time>
      </trkpt>
      <trkpt lat="37.9235081747" lon="-2.8212703206">
        <ele>1629.57</ele>
        <time>2017-10-09T08:27:50Z</time>
      </trkpt>
      <trkpt lat="37.9234988708" lon="-2.8211988229">
        <ele>1629.57</ele>
        <time>2017-10-09T08:27:51Z</time>
      </trkpt>
      <trkpt lat="37.9234822746" lon="-2.8211217094">
        <ele>1629.09</ele>
        <time>2017-10-09T08:27:52Z</time>
      </trkpt>
      <trkpt lat="37.9234643374" lon="-2.8210408241">
        <ele>1629.09</ele>
        <time>2017-10-09T08:27:53Z</time>
      </trkpt>
      <trkpt lat="37.9234460648" lon="-2.8209607769">
        <ele>1628.61</ele>
        <time>2017-10-09T08:27:54Z</time>
      </trkpt>
      <trkpt lat="37.9234262835" lon="-2.8208878543">
        <ele>1628.61</ele>
        <time>2017-10-09T08:27:55Z</time>
      </trkpt>
      <trkpt lat="37.9233929235" lon="-2.8207637183">
        <ele>1628.13</ele>
        <time>2017-10-09T08:27:57Z</time>
      </trkpt>
      <trkpt lat="37.9233571328" lon="-2.8205737844">
        <ele>1627.17</ele>
        <time>2017-10-09T08:28:00Z</time>
      </trkpt>
      <trkpt lat="37.9233397823" lon="-2.8205157816">
        <ele>1627.17</ele>
        <time>2017-10-09T08:28:01Z</time>
      </trkpt>
      <trkpt lat="37.9233106133" lon="-2.8204624727">
        <ele>1626.69</ele>
        <time>2017-10-09T08:28:02Z</time>
      </trkpt>
      <trkpt lat="37.9232687037" lon="-2.8204136901">
        <ele>1626.69</ele>
        <time>2017-10-09T08:28:03Z</time>
      </trkpt>
      <trkpt lat="37.9232257046" lon="-2.8203565255">
        <ele>1626.21</ele>
        <time>2017-10-09T08:28:04Z</time>
      </trkpt>
      <trkpt lat="37.9231857229" lon="-2.8202995285">
        <ele>1625.73</ele>
        <time>2017-10-09T08:28:05Z</time>
      </trkpt>
      <trkpt lat="37.9231580626" lon="-2.8202366643">
        <ele>1625.73</ele>
        <time>2017-10-09T08:28:06Z</time>
      </trkpt>
      <trkpt lat="37.9231298156" lon="-2.8201025538">
        <ele>1624.77</ele>
        <time>2017-10-09T08:28:08Z</time>
      </trkpt>
      <trkpt lat="37.9231296480" lon="-2.8200266138">
        <ele>1624.77</ele>
        <time>2017-10-09T08:28:09Z</time>
      </trkpt>
      <trkpt lat="37.9231428076" lon="-2.8199608158">
        <ele>1624.77</ele>
        <time>2017-10-09T08:28:10Z</time>
      </trkpt>
      <trkpt lat="37.9231617507" lon="-2.8199135419">
        <ele>1624.28</ele>
        <time>2017-10-09T08:28:11Z</time>
      </trkpt>
      <trkpt lat="37.9231719766" lon="-2.8198857140">
        <ele>1624.28</ele>
        <time>2017-10-09T08:28:12Z</time>
      </trkpt>
      <trkpt lat="37.9231889918" lon="-2.8198680282">
        <ele>1624.28</ele>
        <time>2017-10-09T08:28:22Z</time>
      </trkpt>
      <trkpt lat="37.9231865611" lon="-2.8198468219">
        <ele>1624.28</ele>
        <time>2017-10-09T08:28:33Z</time>
      </trkpt>
      <trkpt lat="37.9231832083" lon="-2.8198394459">
        <ele>1624.28</ele>
        <time>2017-10-09T08:28:50Z</time>
      </trkpt>
      <trkpt lat="37.9232697934" lon="-2.8196909185">
        <ele>1623.32</ele>
        <time>2017-10-09T08:28:57Z</time>
      </trkpt>
      <trkpt lat="37.9233379383" lon="-2.8195021581">
        <ele>1622.84</ele>
        <time>2017-10-09T08:29:03Z</time>
      </trkpt>
      <trkpt lat="37.9233768303" lon="-2.8193009086">
        <ele>1621.88</ele>
        <time>2017-10-09T08:29:12Z</time>
      </trkpt>
      <trkpt lat="37.9233186599" lon="-2.8190070391">
        <ele>1620.44</ele>
        <time>2017-10-09T08:29:21Z</time>
      </trkpt>
      <trkpt lat="37.9231216013" lon="-2.8187950607">
        <ele>1619.00</ele>
        <time>2017-10-09T08:29:29Z</time>
      </trkpt>
      <trkpt lat="37.9230926838" lon="-2.8187574260">
        <ele>1618.52</ele>
        <time>2017-10-09T08:29:30Z</time>
      </trkpt>
      <trkpt lat="37.9230684601" lon="-2.8187140916">
        <ele>1618.04</ele>
        <time>2017-10-09T08:29:31Z</time>
      </trkpt>
      <trkpt lat="37.9230533727" lon="-2.8186673205">
        <ele>1618.52</ele>
        <time>2017-10-09T08:29:32Z</time>
      </trkpt>
      <trkpt lat="37.9230071884" lon="-2.8183495626">
        <ele>1617.07</ele>
        <time>2017-10-09T08:29:38Z</time>
      </trkpt>
      <trkpt lat="37.9229953699" lon="-2.8182971757">
        <ele>1617.07</ele>
        <time>2017-10-09T08:29:39Z</time>
      </trkpt>
      <trkpt lat="37.9229701404" lon="-2.8181923181">
        <ele>1616.59</ele>
        <time>2017-10-09T08:29:41Z</time>
      </trkpt>
      <trkpt lat="37.9229490180" lon="-2.8181391768">
        <ele>1616.59</ele>
        <time>2017-10-09T08:29:42Z</time>
      </trkpt>
      <trkpt lat="37.9229267221" lon="-2.8180820122">
        <ele>1616.11</ele>
        <time>2017-10-09T08:29:43Z</time>
      </trkpt>
      <trkpt lat="37.9229017440" lon="-2.8180194832">
        <ele>1615.63</ele>
        <time>2017-10-09T08:29:44Z</time>
      </trkpt>
      <trkpt lat="37.9228769336" lon="-2.8179511707">
        <ele>1615.63</ele>
        <time>2017-10-09T08:29:45Z</time>
      </trkpt>
      <trkpt lat="37.9228620976" lon="-2.8178799246">
        <ele>1615.15</ele>
        <time>2017-10-09T08:29:46Z</time>
      </trkpt>
      <trkpt lat="37.9228542186" lon="-2.8178083431">
        <ele>1614.67</ele>
        <time>2017-10-09T08:29:47Z</time>
      </trkpt>
      <trkpt lat="37.9228167515" lon="-2.8175483365">
        <ele>1614.19</ele>
        <time>2017-10-09T08:29:51Z</time>
      </trkpt>
      <trkpt lat="37.9227242153" lon="-2.8171337675">
        <ele>1614.19</ele>
        <time>2017-10-09T08:29:58Z</time>
      </trkpt>
      <trkpt lat="37.9227011651" lon="-2.8170823026">
        <ele>1613.23</ele>
        <time>2017-10-09T08:29:59Z</time>
      </trkpt>
      <trkpt lat="37.9225119855" lon="-2.8167853318">
        <ele>1612.75</ele>
        <time>2017-10-09T08:30:07Z</time>
      </trkpt>
      <trkpt lat="37.9223698284" lon="-2.8163930587">
        <ele>1612.27</ele>
        <time>2017-10-09T08:30:17Z</time>
      </trkpt>
      <trkpt lat="37.9223411623" lon="-2.8161332197">
        <ele>1611.79</ele>
        <time>2017-10-09T08:30:26Z</time>
      </trkpt>
      <trkpt lat="37.9223389830" lon="-2.8161084093">
        <ele>1611.79</ele>
        <time>2017-10-09T08:30:28Z</time>
      </trkpt>
      <trkpt lat="37.9223430064" lon="-2.8160887957">
        <ele>1611.79</ele>
        <time>2017-10-09T08:30:29Z</time>
      </trkpt>
      <trkpt lat="37.9224183597" lon="-2.8157986142">
        <ele>1611.31</ele>
        <time>2017-10-09T08:30:39Z</time>
      </trkpt>
      <trkpt lat="37.9225698207" lon="-2.8153830394">
        <ele>1609.86</ele>
        <time>2017-10-09T08:30:51Z</time>
      </trkpt>
      <trkpt lat="37.9228295758" lon="-2.8150735795">
        <ele>1608.42</ele>
        <time>2017-10-09T08:31:00Z</time>
      </trkpt>
      <trkpt lat="37.9229710624" lon="-2.8147284966">
        <ele>1607.94</ele>
        <time>2017-10-09T08:31:08Z</time>
      </trkpt>
      <trkpt lat="37.9231133871" lon="-2.8143954836">
        <ele>1607.46</ele>
        <time>2017-10-09T08:31:17Z</time>
      </trkpt>
      <trkpt lat="37.9232763313" lon="-2.8140343912">
        <ele>1606.98</ele>
        <time>2017-10-09T08:31:26Z</time>
      </trkpt>
      <trkpt lat="37.9235525150" lon="-2.8135165572">
        <ele>1606.02</ele>
        <time>2017-10-09T08:31:39Z</time>
      </trkpt>
      <trkpt lat="37.9238333087" lon="-2.8131495137">
        <ele>1605.54</ele>
        <time>2017-10-09T08:31:50Z</time>
      </trkpt>
      <trkpt lat="37.9238780681" lon="-2.8130884096">
        <ele>1605.54</ele>
        <time>2017-10-09T08:31:57Z</time>
      </trkpt>
      <trkpt lat="37.9238421936" lon="-2.8131361865">
        <ele>1606.02</ele>
        <time>2017-10-09T08:32:04Z</time>
      </trkpt>
      <trkpt lat="37.9237954225" lon="-2.8131962847">
        <ele>1605.54</ele>
        <time>2017-10-09T08:32:13Z</time>
      </trkpt>
      <trkpt lat="37.9237993620" lon="-2.8131818678">
        <ele>1606.02</ele>
        <time>2017-10-09T08:32:27Z</time>
      </trkpt>
      <trkpt lat="37.9238038044" lon="-2.8131789342">
        <ele>1606.02</ele>
        <time>2017-10-09T08:32:40Z</time>
      </trkpt>
      <trkpt lat="37.9238102585" lon="-2.8131693788">
        <ele>1606.02</ele>
        <time>2017-10-09T08:32:56Z</time>
      </trkpt>
      <trkpt lat="37.9238204844" lon="-2.8131589014">
        <ele>1605.54</ele>
        <time>2017-10-09T08:32:57Z</time>
      </trkpt>
      <trkpt lat="37.9238318000" lon="-2.8131419700">
        <ele>1606.02</ele>
        <time>2017-10-09T08:32:58Z</time>
      </trkpt>
      <trkpt lat="37.9238461331" lon="-2.8131227754">
        <ele>1606.02</ele>
        <time>2017-10-09T08:32:59Z</time>
      </trkpt>
      <trkpt lat="37.9238644056" lon="-2.8131000604">
        <ele>1606.02</ele>
        <time>2017-10-09T08:33:00Z</time>
      </trkpt>
      <trkpt lat="37.9239667486" lon="-2.8127795365">
        <ele>1605.54</ele>
        <time>2017-10-09T08:33:08Z</time>
      </trkpt>
      <trkpt lat="37.9240597039" lon="-2.8123348765">
        <ele>1605.54</ele>
        <time>2017-10-09T08:33:19Z</time>
      </trkpt>
      <trkpt lat="37.9241428524" lon="-2.8122534882">
        <ele>1604.58</ele>
        <time>2017-10-09T08:33:22Z</time>
      </trkpt>
      <trkpt lat="37.9241814092" lon="-2.8122289293">
        <ele>1604.58</ele>
        <time>2017-10-09T08:33:23Z</time>
      </trkpt>
      <trkpt lat="37.9244316090" lon="-2.8120655660">
        <ele>1602.66</ele>
        <time>2017-10-09T08:33:29Z</time>
      </trkpt>
      <trkpt lat="37.9247313458" lon="-2.8119674977">
        <ele>1600.25</ele>
        <time>2017-10-09T08:33:37Z</time>
      </trkpt>
      <trkpt lat="37.9247526359" lon="-2.8119198885">
        <ele>1599.77</ele>
        <time>2017-10-09T08:33:38Z</time>
      </trkpt>
      <trkpt lat="37.9247663822" lon="-2.8118671663">
        <ele>1599.29</ele>
        <time>2017-10-09T08:33:39Z</time>
      </trkpt>
      <trkpt lat="37.9247678071" lon="-2.8118131030">
        <ele>1598.81</ele>
        <time>2017-10-09T08:33:40Z</time>
      </trkpt>
      <trkpt lat="37.9247625265" lon="-2.8117571119">
        <ele>1598.33</ele>
        <time>2017-10-09T08:33:41Z</time>
      </trkpt>
      <trkpt lat="37.9247536417" lon="-2.8117058985">
        <ele>1598.33</ele>
        <time>2017-10-09T08:33:42Z</time>
      </trkpt>
      <trkpt lat="37.9247427452" lon="-2.8116567805">
        <ele>1597.85</ele>
        <time>2017-10-09T08:33:43Z</time>
      </trkpt>
      <trkpt lat="37.9247430805" lon="-2.8116042260">
        <ele>1597.85</ele>
        <time>2017-10-09T08:33:44Z</time>
      </trkpt>
      <trkpt lat="37.9247586709" lon="-2.8115477320">
        <ele>1597.37</ele>
        <time>2017-10-09T08:33:45Z</time>
      </trkpt>
      <trkpt lat="37.9247791227" lon="-2.8114903159">
        <ele>1596.89</ele>
        <time>2017-10-09T08:33:46Z</time>
      </trkpt>
      <trkpt lat="37.9248053581" lon="-2.8114362527">
        <ele>1596.89</ele>
        <time>2017-10-09T08:33:47Z</time>
      </trkpt>
      <trkpt lat="37.9248375446" lon="-2.8113834467">
        <ele>1596.41</ele>
        <time>2017-10-09T08:33:48Z</time>
      </trkpt>
      <trkpt lat="37.9249040131" lon="-2.8112686984">
        <ele>1595.93</ele>
        <time>2017-10-09T08:33:50Z</time>
      </trkpt>
      <trkpt lat="37.9250226170" lon="-2.8110592347">
        <ele>1594.48</ele>
        <time>2017-10-09T08:33:54Z</time>
      </trkpt>
      <trkpt lat="37.9250800330" lon="-2.8108945303">
        <ele>1594.00</ele>
        <time>2017-10-09T08:33:57Z</time>
      </trkpt>
      <trkpt lat="37.9251086153" lon="-2.8107751720">
        <ele>1594.48</ele>
        <time>2017-10-09T08:33:59Z</time>
      </trkpt>
      <trkpt lat="37.9251295701" lon="-2.8107172530">
        <ele>1593.04</ele>
        <time>2017-10-09T08:34:00Z</time>
      </trkpt>
      <trkpt lat="37.9251582362" lon="-2.8106636088">
        <ele>1593.04</ele>
        <time>2017-10-09T08:34:01Z</time>
      </trkpt>
      <trkpt lat="37.9251938593" lon="-2.8106122278">
        <ele>1592.56</ele>
        <time>2017-10-09T08:34:02Z</time>
      </trkpt>
      <trkpt lat="37.9252351820" lon="-2.8105664626">
        <ele>1592.08</ele>
        <time>2017-10-09T08:34:03Z</time>
      </trkpt>
      <trkpt lat="37.9252786003" lon="-2.8105269000">
        <ele>1592.08</ele>
        <time>2017-10-09T08:34:04Z</time>
      </trkpt>
      <trkpt lat="37.9253980424" lon="-2.8104278259">
        <ele>1591.60</ele>
        <time>2017-10-09T08:34:07Z</time>
      </trkpt>
      <trkpt lat="37.9254255351" lon="-2.8103824798">
        <ele>1591.12</ele>
        <time>2017-10-09T08:34:08Z</time>
      </trkpt>
      <trkpt lat="37.9254391138" lon="-2.8103255667">
        <ele>1591.12</ele>
        <time>2017-10-09T08:34:09Z</time>
      </trkpt>
      <trkpt lat="37.9254430532" lon="-2.8102685697">
        <ele>1591.12</ele>
        <time>2017-10-09T08:34:10Z</time>
      </trkpt>
      <trkpt lat="37.9254443105" lon="-2.8102140035">
        <ele>1590.64</ele>
        <time>2017-10-09T08:34:11Z</time>
      </trkpt>
      <trkpt lat="37.9254494235" lon="-2.8101575933">
        <ele>1590.64</ele>
        <time>2017-10-09T08:34:12Z</time>
      </trkpt>
      <trkpt lat="37.9254670255" lon="-2.8099894524">
        <ele>1590.16</ele>
        <time>2017-10-09T08:34:15Z</time>
      </trkpt>
      <trkpt lat="37.9254804365" lon="-2.8099378198">
        <ele>1590.16</ele>
        <time>2017-10-09T08:34:16Z</time>
      </trkpt>
      <trkpt lat="37.9255008046" lon="-2.8098901268">
        <ele>1590.16</ele>
        <time>2017-10-09T08:34:17Z</time>
      </trkpt>
      <trkpt lat="37.9255290516" lon="-2.8098455351">
        <ele>1590.16</ele>
        <time>2017-10-09T08:34:18Z</time>
      </trkpt>
      <trkpt lat="37.9255621601" lon="-2.8098068945">
        <ele>1589.68</ele>
        <time>2017-10-09T08:34:19Z</time>
      </trkpt>
      <trkpt lat="37.9255998787" lon="-2.8097693436">
        <ele>1589.68</ele>
        <time>2017-10-09T08:34:20Z</time>
      </trkpt>
      <trkpt lat="37.9256394412" lon="-2.8097347263">
        <ele>1589.68</ele>
        <time>2017-10-09T08:34:21Z</time>
      </trkpt>
      <trkpt lat="37.9256828595" lon="-2.8097048029">
        <ele>1589.20</ele>
        <time>2017-10-09T08:34:22Z</time>
      </trkpt>
      <trkpt lat="37.9257293791" lon="-2.8096776456">
        <ele>1589.20</ele>
        <time>2017-10-09T08:34:23Z</time>
      </trkpt>
      <trkpt lat="37.9259111825" lon="-2.8095561080">
        <ele>1588.72</ele>
        <time>2017-10-09T08:34:27Z</time>
      </trkpt>
      <trkpt lat="37.9259956721" lon="-2.8094857000">
        <ele>1588.72</ele>
        <time>2017-10-09T08:34:29Z</time>
      </trkpt>
      <trkpt lat="37.9261263460" lon="-2.8093852010">
        <ele>1588.24</ele>
        <time>2017-10-09T08:34:32Z</time>
      </trkpt>
      <trkpt lat="37.9261626396" lon="-2.8093484882">
        <ele>1588.24</ele>
        <time>2017-10-09T08:34:33Z</time>
      </trkpt>
      <trkpt lat="37.9261976760" lon="-2.8093077522">
        <ele>1588.24</ele>
        <time>2017-10-09T08:34:34Z</time>
      </trkpt>
      <trkpt lat="37.9262332991" lon="-2.8092681058">
        <ele>1587.75</ele>
        <time>2017-10-09T08:34:35Z</time>
      </trkpt>
      <trkpt lat="37.9262678325" lon="-2.8092319798">
        <ele>1587.75</ele>
        <time>2017-10-09T08:34:36Z</time>
      </trkpt>
      <trkpt lat="37.9263014439" lon="-2.8091960214">
        <ele>1588.24</ele>
        <time>2017-10-09T08:34:37Z</time>
      </trkpt>
      <trkpt lat="37.9263372347" lon="-2.8091631643">
        <ele>1587.75</ele>
        <time>2017-10-09T08:34:38Z</time>
      </trkpt>
      <trkpt lat="37.9265298508" lon="-2.8090254497">
        <ele>1587.75</ele>
        <time>2017-10-09T08:34:43Z</time>
      </trkpt>
      <trkpt lat="37.9266549088" lon="-2.8089600708">
        <ele>1587.27</ele>
        <time>2017-10-09T08:34:46Z</time>
      </trkpt>
      <trkpt lat="37.9270372912" lon="-2.8088923451">
        <ele>1586.79</ele>
        <time>2017-10-09T08:34:56Z</time>
      </trkpt>
      <trkpt lat="37.9273745790" lon="-2.8088350967">
        <ele>1586.79</ele>
        <time>2017-10-09T08:35:08Z</time>
      </trkpt>
      <trkpt lat="37.9276380222" lon="-2.8087922651">
        <ele>1586.31</ele>
        <time>2017-10-09T08:35:18Z</time>
      </trkpt>
      <trkpt lat="37.9278899822" lon="-2.8087538760">
        <ele>1585.35</ele>
        <time>2017-10-09T08:35:27Z</time>
      </trkpt>
      <trkpt lat="37.9280153755" lon="-2.8087330889">
        <ele>1585.35</ele>
        <time>2017-10-09T08:35:32Z</time>
      </trkpt>
      <trkpt lat="37.9280336481" lon="-2.8087300714">
        <ele>1585.35</ele>
        <time>2017-10-09T08:35:33Z</time>
      </trkpt>
      <trkpt lat="37.9282619711" lon="-2.8086130600">
        <ele>1584.87</ele>
        <time>2017-10-09T08:35:43Z</time>
      </trkpt>
      <trkpt lat="37.9284427688" lon="-2.8084234614">
        <ele>1584.39</ele>
        <time>2017-10-09T08:35:53Z</time>
      </trkpt>
      <trkpt lat="37.9286639672" lon="-2.8081347886">
        <ele>1583.43</ele>
        <time>2017-10-09T08:36:05Z</time>
      </trkpt>
      <trkpt lat="37.9288753588" lon="-2.8079356346">
        <ele>1582.95</ele>
        <time>2017-10-09T08:36:17Z</time>
      </trkpt>
      <trkpt lat="37.9290867504" lon="-2.8079398256">
        <ele>1582.47</ele>
        <time>2017-10-09T08:36:27Z</time>
      </trkpt>
      <trkpt lat="37.9293997306" lon="-2.8078881931">
        <ele>1581.03</ele>
        <time>2017-10-09T08:36:37Z</time>
      </trkpt>
      <trkpt lat="37.9298240226" lon="-2.8075760510">
        <ele>1579.58</ele>
        <time>2017-10-09T08:36:48Z</time>
      </trkpt>
      <trkpt lat="37.9300871305" lon="-2.8073890507">
        <ele>1579.58</ele>
        <time>2017-10-09T08:36:56Z</time>
      </trkpt>
      <trkpt lat="37.9301275313" lon="-2.8073961753">
        <ele>1579.58</ele>
        <time>2017-10-09T08:36:57Z</time>
      </trkpt>
      <trkpt lat="37.9303108435" lon="-2.8074644040">
        <ele>1579.58</ele>
        <time>2017-10-09T08:37:01Z</time>
      </trkpt>
      <trkpt lat="37.9303592071" lon="-2.8074775636">
        <ele>1579.10</ele>
        <time>2017-10-09T08:37:02Z</time>
      </trkpt>
      <trkpt lat="37.9304085765" lon="-2.8074838500">
        <ele>1579.10</ele>
        <time>2017-10-09T08:37:03Z</time>
      </trkpt>
      <trkpt lat="37.9305105843" lon="-2.8074795753">
        <ele>1578.62</ele>
        <time>2017-10-09T08:37:05Z</time>
      </trkpt>
      <trkpt lat="37.9310409911" lon="-2.8074385040">
        <ele>1577.18</ele>
        <time>2017-10-09T08:37:15Z</time>
      </trkpt>
      <trkpt lat="37.9311563261" lon="-2.8074524179">
        <ele>1576.70</ele>
        <time>2017-10-09T08:37:17Z</time>
      </trkpt>
      <trkpt lat="37.9312733375" lon="-2.8074474726">
        <ele>1576.22</ele>
        <time>2017-10-09T08:37:19Z</time>
      </trkpt>
      <trkpt lat="37.9313292447" lon="-2.8074323852">
        <ele>1576.22</ele>
        <time>2017-10-09T08:37:20Z</time>
      </trkpt>
      <trkpt lat="37.9313837271" lon="-2.8074099217">
        <ele>1575.74</ele>
        <time>2017-10-09T08:37:21Z</time>
      </trkpt>
      <trkpt lat="37.9314386286" lon="-2.8073809203">
        <ele>1575.74</ele>
        <time>2017-10-09T08:37:22Z</time>
      </trkpt>
      <trkpt lat="37.9314909317" lon="-2.8073434532">
        <ele>1575.26</ele>
        <time>2017-10-09T08:37:23Z</time>
      </trkpt>
      <trkpt lat="37.9315388761" lon="-2.8073003702">
        <ele>1575.26</ele>
        <time>2017-10-09T08:37:24Z</time>
      </trkpt>
      <trkpt lat="37.9315824620" lon="-2.8072536830">
        <ele>1575.26</ele>
        <time>2017-10-09T08:37:25Z</time>
      </trkpt>
      <trkpt lat="37.9317207634" lon="-2.8071215004">
        <ele>1574.78</ele>
        <time>2017-10-09T08:37:28Z</time>
      </trkpt>
      <trkpt lat="37.9323447123" lon="-2.8067756630">
        <ele>1572.37</ele>
        <time>2017-10-09T08:37:39Z</time>
      </trkpt>
      <trkpt lat="37.9327898752" lon="-2.8064196836">
        <ele>1570.93</ele>
        <time>2017-10-09T08:37:47Z</time>
      </trkpt>
      <trkpt lat="37.9328467883" lon="-2.8063889220">
        <ele>1570.45</ele>
        <time>2017-10-09T08:37:48Z</time>
      </trkpt>
      <trkpt lat="37.9334875010" lon="-2.8060953040">
        <ele>1569.49</ele>
        <time>2017-10-09T08:37:59Z</time>
      </trkpt>
      <trkpt lat="37.9339802731" lon="-2.8058386501">
        <ele>1567.09</ele>
        <time>2017-10-09T08:38:08Z</time>
      </trkpt>
      <trkpt lat="37.9341308959" lon="-2.8057670686">
        <ele>1566.61</ele>
        <time>2017-10-09T08:38:11Z</time>
      </trkpt>
      <trkpt lat="37.9343313910" lon="-2.8056509793">
        <ele>1565.64</ele>
        <time>2017-10-09T08:38:16Z</time>
      </trkpt>
      <trkpt lat="37.9345968459" lon="-2.8054794017">
        <ele>1565.16</ele>
        <time>2017-10-09T08:38:24Z</time>
      </trkpt>
      <trkpt lat="37.9347932339" lon="-2.8052298725">
        <ele>1564.20</ele>
        <time>2017-10-09T08:38:31Z</time>
      </trkpt>
      <trkpt lat="37.9350663163" lon="-2.8048204165">
        <ele>1563.72</ele>
        <time>2017-10-09T08:38:41Z</time>
      </trkpt>
      <trkpt lat="37.9352102336" lon="-2.8046278004">
        <ele>1563.24</ele>
        <time>2017-10-09T08:38:46Z</time>
      </trkpt>
      <trkpt lat="37.9352431744" lon="-2.8045899980">
        <ele>1563.24</ele>
        <time>2017-10-09T08:38:47Z</time>
      </trkpt>
      <trkpt lat="37.9352748580" lon="-2.8045531176">
        <ele>1562.76</ele>
        <time>2017-10-09T08:38:48Z</time>
      </trkpt>
      <trkpt lat="37.9353035241" lon="-2.8045208473">
        <ele>1562.76</ele>
        <time>2017-10-09T08:38:49Z</time>
      </trkpt>
      <trkpt lat="37.9353288375" lon="-2.8044853080">
        <ele>1562.76</ele>
        <time>2017-10-09T08:38:50Z</time>
      </trkpt>
      <trkpt lat="37.9353559110" lon="-2.8044516966">
        <ele>1562.76</ele>
        <time>2017-10-09T08:38:51Z</time>
      </trkpt>
      <trkpt lat="37.9355151672" lon="-2.8041974735">
        <ele>1562.76</ele>
        <time>2017-10-09T08:38:57Z</time>
      </trkpt>
      <trkpt lat="37.9357686359" lon="-2.8037194535">
        <ele>1561.80</ele>
        <time>2017-10-09T08:39:07Z</time>
      </trkpt>
      <trkpt lat="37.9357978888" lon="-2.8036778793">
        <ele>1561.80</ele>
        <time>2017-10-09T08:39:08Z</time>
      </trkpt>
      <trkpt lat="37.9360299837" lon="-2.8034090716">
        <ele>1560.84</ele>
        <time>2017-10-09T08:39:15Z</time>
      </trkpt>
      <trkpt lat="37.9360634275" lon="-2.8033787291">
        <ele>1560.84</ele>
        <time>2017-10-09T08:39:16Z</time>
      </trkpt>
      <trkpt lat="37.9360933509" lon="-2.8033452854">
        <ele>1560.84</ele>
        <time>2017-10-09T08:39:17Z</time>
      </trkpt>
      <trkpt lat="37.9361153953" lon="-2.8033075668">
        <ele>1561.32</ele>
        <time>2017-10-09T08:39:18Z</time>
      </trkpt>
      <trkpt lat="37.9361396190" lon="-2.8032722790">
        <ele>1561.32</ele>
        <time>2017-10-09T08:39:19Z</time>
      </trkpt>
      <trkpt lat="37.9361638427" lon="-2.8032416850">
        <ele>1561.32</ele>
        <time>2017-10-09T08:39:20Z</time>
      </trkpt>
      <trkpt lat="37.9361908324" lon="-2.8032092471">
        <ele>1560.84</ele>
        <time>2017-10-09T08:39:21Z</time>
      </trkpt>
      <trkpt lat="37.9363880586" lon="-2.8029810078">
        <ele>1558.92</ele>
        <time>2017-10-09T08:39:26Z</time>
      </trkpt>
      <trkpt lat="37.9364537727" lon="-2.8028830234">
        <ele>1558.92</ele>
        <time>2017-10-09T08:39:28Z</time>
      </trkpt>
      <trkpt lat="37.9364748951" lon="-2.8028316423">
        <ele>1558.92</ele>
        <time>2017-10-09T08:39:29Z</time>
      </trkpt>
      <trkpt lat="37.9364885576" lon="-2.8027818538">
        <ele>1558.92</ele>
        <time>2017-10-09T08:39:30Z</time>
      </trkpt>
      <trkpt lat="37.9365142062" lon="-2.8027402796">
        <ele>1558.43</ele>
        <time>2017-10-09T08:39:31Z</time>
      </trkpt>
      <trkpt lat="37.9365515057" lon="-2.8027028125">
        <ele>1558.43</ele>
        <time>2017-10-09T08:39:32Z</time>
      </trkpt>
      <trkpt lat="37.9367110971" lon="-2.8025469091">
        <ele>1558.43</ele>
        <time>2017-10-09T08:39:36Z</time>
      </trkpt>
      <trkpt lat="37.9369378276" lon="-2.8024194203">
        <ele>1557.95</ele>
        <time>2017-10-09T08:39:41Z</time>
      </trkpt>
      <trkpt lat="37.9370239936" lon="-2.8023494314">
        <ele>1557.47</ele>
        <time>2017-10-09T08:39:43Z</time>
      </trkpt>
      <trkpt lat="37.9374134168" lon="-2.8019849025">
        <ele>1556.51</ele>
        <time>2017-10-09T08:39:53Z</time>
      </trkpt>
      <trkpt lat="37.9374462739" lon="-2.8019532189">
        <ele>1556.03</ele>
        <time>2017-10-09T08:39:54Z</time>
      </trkpt>
      <trkpt lat="37.9374782927" lon="-2.8019155841">
        <ele>1556.03</ele>
        <time>2017-10-09T08:39:55Z</time>
      </trkpt>
      <trkpt lat="37.9375072941" lon="-2.8018752672">
        <ele>1556.03</ele>
        <time>2017-10-09T08:39:56Z</time>
      </trkpt>
      <trkpt lat="37.9376823083" lon="-2.8014822397">
        <ele>1555.55</ele>
        <time>2017-10-09T08:40:06Z</time>
      </trkpt>
      <trkpt lat="37.9376893491" lon="-2.8009801637">
        <ele>1555.07</ele>
        <time>2017-10-09T08:40:18Z</time>
      </trkpt>
      <trkpt lat="37.9376597609" lon="-2.8007401899">
        <ele>1556.99</ele>
        <time>2017-10-09T08:40:27Z</time>
      </trkpt>
      <trkpt lat="37.9376489483" lon="-2.8005081788">
        <ele>1558.92</ele>
        <time>2017-10-09T08:40:38Z</time>
      </trkpt>
      <trkpt lat="37.9376771115" lon="-2.8004215099">
        <ele>1559.88</ele>
        <time>2017-10-09T08:40:48Z</time>
      </trkpt>
      <trkpt lat="37.9377174284" lon="-2.8003448155">
        <ele>1561.32</ele>
        <time>2017-10-09T08:40:55Z</time>
      </trkpt>
      <trkpt lat="37.9377265647" lon="-2.8003355954">
        <ele>1561.32</ele>
        <time>2017-10-09T08:40:56Z</time>
      </trkpt>
      <trkpt lat="37.9377345275" lon="-2.8003229387">
        <ele>1561.32</ele>
        <time>2017-10-09T08:40:57Z</time>
      </trkpt>
      <trkpt lat="37.9377386346" lon="-2.8003075160">
        <ele>1561.80</ele>
        <time>2017-10-09T08:40:58Z</time>
      </trkpt>
      <trkpt lat="37.9377431609" lon="-2.8002949432">
        <ele>1561.80</ele>
        <time>2017-10-09T08:40:59Z</time>
      </trkpt>
      <trkpt lat="37.9377486091" lon="-2.8002820350">
        <ele>1561.80</ele>
        <time>2017-10-09T08:41:00Z</time>
      </trkpt>
      <trkpt lat="37.9377593379" lon="-2.8001950309">
        <ele>1562.76</ele>
        <time>2017-10-09T08:41:07Z</time>
      </trkpt>
      <trkpt lat="37.9377302527" lon="-2.8001366090">
        <ele>1563.24</ele>
        <time>2017-10-09T08:41:16Z</time>
      </trkpt>
      <trkpt lat="37.9377310909" lon="-2.8000976332">
        <ele>1562.76</ele>
        <time>2017-10-09T08:41:18Z</time>
      </trkpt>
      <trkpt lat="37.9377784487" lon="-2.7999034245">
        <ele>1561.32</ele>
        <time>2017-10-09T08:41:22Z</time>
      </trkpt>
      <trkpt lat="37.9378310870" lon="-2.7994863410">
        <ele>1561.32</ele>
        <time>2017-10-09T08:41:30Z</time>
      </trkpt>
      <trkpt lat="37.9378562327" lon="-2.7992378175">
        <ele>1560.84</ele>
        <time>2017-10-09T08:41:35Z</time>
      </trkpt>
      <trkpt lat="37.9378724098" lon="-2.7991865203">
        <ele>1560.36</ele>
        <time>2017-10-09T08:41:36Z</time>
      </trkpt>
      <trkpt lat="37.9378864076" lon="-2.7991339657">
        <ele>1560.36</ele>
        <time>2017-10-09T08:41:37Z</time>
      </trkpt>
      <trkpt lat="37.9378881678" lon="-2.7988887951">
        <ele>1560.84</ele>
        <time>2017-10-09T08:41:44Z</time>
      </trkpt>
      <trkpt lat="37.9378907662" lon="-2.7988808323">
        <ele>1560.84</ele>
        <time>2017-10-09T08:42:01Z</time>
      </trkpt>
      <trkpt lat="37.9378911853" lon="-2.7988761384">
        <ele>1560.84</ele>
        <time>2017-10-09T08:42:20Z</time>
      </trkpt>
      <trkpt lat="37.9378895089" lon="-2.7988736238">
        <ele>1560.84</ele>
        <time>2017-10-09T08:42:38Z</time>
      </trkpt>
      <trkpt lat="37.9378554784" lon="-2.7987069916">
        <ele>1561.32</ele>
        <time>2017-10-09T08:42:47Z</time>
      </trkpt>
      <trkpt lat="37.9378046840" lon="-2.7984517626">
        <ele>1561.80</ele>
        <time>2017-10-09T08:42:57Z</time>
      </trkpt>
      <trkpt lat="37.9377608467" lon="-2.7981036622">
        <ele>1562.76</ele>
        <time>2017-10-09T08:43:09Z</time>
      </trkpt>
      <trkpt lat="37.9377919436" lon="-2.7977667935">
        <ele>1563.72</ele>
        <time>2017-10-09T08:43:19Z</time>
      </trkpt>
      <trkpt lat="37.9379337654" lon="-2.7972907852">
        <ele>1564.20</ele>
        <time>2017-10-09T08:43:32Z</time>
      </trkpt>
      <trkpt lat="37.9381889943" lon="-2.7967462130">
        <ele>1564.20</ele>
        <time>2017-10-09T08:43:46Z</time>
      </trkpt>
      <trkpt lat="37.9384490009" lon="-2.7962663490">
        <ele>1563.72</ele>
        <time>2017-10-09T08:43:58Z</time>
      </trkpt>
      <trkpt lat="37.9386442155" lon="-2.7958894148">
        <ele>1564.20</ele>
        <time>2017-10-09T08:44:08Z</time>
      </trkpt>
      <trkpt lat="37.9388297070" lon="-2.7953051962">
        <ele>1564.20</ele>
        <time>2017-10-09T08:44:21Z</time>
      </trkpt>
      <trkpt lat="37.9390019551" lon="-2.7947947383">
        <ele>1564.20</ele>
        <time>2017-10-09T08:44:33Z</time>
      </trkpt>
      <trkpt lat="37.9390243348" lon="-2.7947501466">
        <ele>1564.20</ele>
        <time>2017-10-09T08:44:34Z</time>
      </trkpt>
      <trkpt lat="37.9390608799" lon="-2.7946506534">
        <ele>1563.72</ele>
        <time>2017-10-09T08:44:36Z</time>
      </trkpt>
      <trkpt lat="37.9390737880" lon="-2.7945975121">
        <ele>1563.72</ele>
        <time>2017-10-09T08:44:37Z</time>
      </trkpt>
      <trkpt lat="37.9390835110" lon="-2.7945455443">
        <ele>1563.24</ele>
        <time>2017-10-09T08:44:38Z</time>
      </trkpt>
      <trkpt lat="37.9391733650" lon="-2.7940731402">
        <ele>1564.20</ele>
        <time>2017-10-09T08:44:49Z</time>
      </trkpt>
      <trkpt lat="37.9393674899" lon="-2.7938298974">
        <ele>1565.16</ele>
        <time>2017-10-09T08:44:58Z</time>
      </trkpt>
      <trkpt lat="37.9395173583" lon="-2.7935713995">
        <ele>1564.68</ele>
        <time>2017-10-09T08:45:06Z</time>
      </trkpt>
      <trkpt lat="37.9395535681" lon="-2.7935297415">
        <ele>1564.20</ele>
        <time>2017-10-09T08:45:07Z</time>
      </trkpt>
      <trkpt lat="37.9395969026" lon="-2.7934968006">
        <ele>1564.20</ele>
        <time>2017-10-09T08:45:08Z</time>
      </trkpt>
      <trkpt lat="37.9396407399" lon="-2.7934690565">
        <ele>1563.72</ele>
        <time>2017-10-09T08:45:09Z</time>
      </trkpt>
      <trkpt lat="37.9396818113" lon="-2.7934440784">
        <ele>1564.20</ele>
        <time>2017-10-09T08:45:10Z</time>
      </trkpt>
      <trkpt lat="37.9397197813" lon="-2.7934184298">
        <ele>1564.20</ele>
        <time>2017-10-09T08:45:11Z</time>
      </trkpt>
      <trkpt lat="37.9399935342" lon="-2.7932279930">
        <ele>1565.64</ele>
        <time>2017-10-09T08:45:20Z</time>
      </trkpt>
      <trkpt lat="37.9402664490" lon="-2.7930280846">
        <ele>1565.64</ele>
        <time>2017-10-09T08:45:28Z</time>
      </trkpt>
      <trkpt lat="37.9404324945" lon="-2.7928738575">
        <ele>1565.64</ele>
        <time>2017-10-09T08:45:33Z</time>
      </trkpt>
      <trkpt lat="37.9406843707" lon="-2.7926863544">
        <ele>1564.68</ele>
        <time>2017-10-09T08:45:40Z</time>
      </trkpt>
      <trkpt lat="37.9407254420" lon="-2.7926436905">
        <ele>1564.68</ele>
        <time>2017-10-09T08:45:41Z</time>
      </trkpt>
      <trkpt lat="37.9412540887" lon="-2.7922365814">
        <ele>1562.28</ele>
        <time>2017-10-09T08:45:51Z</time>
      </trkpt>
      <trkpt lat="37.9415799771" lon="-2.7920158859">
        <ele>1563.72</ele>
        <time>2017-10-09T08:46:00Z</time>
      </trkpt>
      <trkpt lat="37.9419295024" lon="-2.7918044105">
        <ele>1562.28</ele>
        <time>2017-10-09T08:46:10Z</time>
      </trkpt>
      <trkpt lat="37.9423669539" lon="-2.7915212698">
        <ele>1561.32</ele>
        <time>2017-10-09T08:46:22Z</time>
      </trkpt>
      <trkpt lat="37.9427496716" lon="-2.7911966387">
        <ele>1561.32</ele>
        <time>2017-10-09T08:46:33Z</time>
      </trkpt>
      <trkpt lat="37.9431376699" lon="-2.7908989973">
        <ele>1562.76</ele>
        <time>2017-10-09T08:46:45Z</time>
      </trkpt>
      <trkpt lat="37.9434783943" lon="-2.7907101531">
        <ele>1564.20</ele>
        <time>2017-10-09T08:46:56Z</time>
      </trkpt>
      <trkpt lat="37.9436959885" lon="-2.7906412538">
        <ele>1564.20</ele>
        <time>2017-10-09T08:47:04Z</time>
      </trkpt>
      <trkpt lat="37.9440162610" lon="-2.7905195486">
        <ele>1564.68</ele>
        <time>2017-10-09T08:47:13Z</time>
      </trkpt>
      <trkpt lat="37.9442864936" lon="-2.7903856896">
        <ele>1566.12</ele>
        <time>2017-10-09T08:47:23Z</time>
      </trkpt>
      <trkpt lat="37.9445401300" lon="-2.7902478911">
        <ele>1568.05</ele>
        <time>2017-10-09T08:47:34Z</time>
      </trkpt>
      <trkpt lat="37.9447803553" lon="-2.7901126072">
        <ele>1569.01</ele>
        <time>2017-10-09T08:47:45Z</time>
      </trkpt>
      <trkpt lat="37.9449788388" lon="-2.7899876330">
        <ele>1569.01</ele>
        <time>2017-10-09T08:47:57Z</time>
      </trkpt>
      <trkpt lat="37.9449989554" lon="-2.7899753116">
        <ele>1569.01</ele>
        <time>2017-10-09T08:48:07Z</time>
      </trkpt>
      <trkpt lat="37.9450165574" lon="-2.7899521776">
        <ele>1569.01</ele>
        <time>2017-10-09T08:48:17Z</time>
      </trkpt>
      <trkpt lat="37.9449848738" lon="-2.7899764013">
        <ele>1569.01</ele>
        <time>2017-10-09T08:48:30Z</time>
      </trkpt>
      <trkpt lat="37.9450032301" lon="-2.7899727132">
        <ele>1569.01</ele>
        <time>2017-10-09T08:48:42Z</time>
      </trkpt>
      <trkpt lat="37.9450054094" lon="-2.7899707016">
        <ele>1567.57</ele>
        <time>2017-10-09T08:48:47Z</time>
      </trkpt>
      <trkpt lat="37.9449967761" lon="-2.7899879683">
        <ele>1569.01</ele>
        <time>2017-10-09T08:57:42Z</time>
      </trkpt>
      <trkpt lat="37.9450111091" lon="-2.7899907343">
        <ele>1569.01</ele>
        <time>2017-10-09T08:57:43Z</time>
      </trkpt>
      <trkpt lat="37.9450313933" lon="-2.7899733838">
        <ele>1570.45</ele>
        <time>2017-10-09T08:58:01Z</time>
      </trkpt>
      <trkpt lat="37.9450494982" lon="-2.7899586316">
        <ele>1570.93</ele>
        <time>2017-10-09T08:58:14Z</time>
      </trkpt>
      <trkpt lat="37.9450914077" lon="-2.7899137884">
        <ele>1570.93</ele>
        <time>2017-10-09T08:58:18Z</time>
      </trkpt>
      <trkpt lat="37.9452316370" lon="-2.7897422109">
        <ele>1568.53</ele>
        <time>2017-10-09T08:58:27Z</time>
      </trkpt>
      <trkpt lat="37.9452664219" lon="-2.7897090185">
        <ele>1568.53</ele>
        <time>2017-10-09T08:58:28Z</time>
      </trkpt>
      <trkpt lat="37.9454525840" lon="-2.7895557974">
        <ele>1564.68</ele>
        <time>2017-10-09T08:58:33Z</time>
      </trkpt>
      <trkpt lat="37.9454809148" lon="-2.7895308193">
        <ele>1569.01</ele>
        <time>2017-10-09T08:58:34Z</time>
      </trkpt>
      <trkpt lat="37.9457092378" lon="-2.7893662825">
        <ele>1569.01</ele>
        <time>2017-10-09T08:58:43Z</time>
      </trkpt>
      <trkpt lat="37.9458505567" lon="-2.7892737463">
        <ele>1571.41</ele>
        <time>2017-10-09T08:58:53Z</time>
      </trkpt>
      <trkpt lat="37.9459077213" lon="-2.7892313339">
        <ele>1572.37</ele>
        <time>2017-10-09T08:59:02Z</time>
      </trkpt>
      <trkpt lat="37.9459591862" lon="-2.7891660389">
        <ele>1573.33</ele>
        <time>2017-10-09T08:59:14Z</time>
      </trkpt>
      <trkpt lat="37.9460456874" lon="-2.7890333533">
        <ele>1574.30</ele>
        <time>2017-10-09T08:59:28Z</time>
      </trkpt>
      <trkpt lat="37.9460735153" lon="-2.7889835648">
        <ele>1574.78</ele>
        <time>2017-10-09T08:59:38Z</time>
      </trkpt>
      <trkpt lat="37.9461225495" lon="-2.7888728399">
        <ele>1575.74</ele>
        <time>2017-10-09T08:59:50Z</time>
      </trkpt>
      <trkpt lat="37.9461922869" lon="-2.7887515537">
        <ele>1577.18</ele>
        <time>2017-10-09T09:00:03Z</time>
      </trkpt>
      <trkpt lat="37.9462389741" lon="-2.7886771224">
        <ele>1577.66</ele>
        <time>2017-10-09T09:00:15Z</time>
      </trkpt>
      <trkpt lat="37.9462865833" lon="-2.7885829099">
        <ele>1578.14</ele>
        <time>2017-10-09T09:00:25Z</time>
      </trkpt>
      <trkpt lat="37.9463276546" lon="-2.7883572690">
        <ele>1578.14</ele>
        <time>2017-10-09T09:00:36Z</time>
      </trkpt>
      <trkpt lat="37.9463136569" lon="-2.7882445324">
        <ele>1579.10</ele>
        <time>2017-10-09T09:00:41Z</time>
      </trkpt>
      <trkpt lat="37.9463028442" lon="-2.7882279363">
        <ele>1579.10</ele>
        <time>2017-10-09T09:00:42Z</time>
      </trkpt>
      <trkpt lat="37.9462931212" lon="-2.7882089093">
        <ele>1579.10</ele>
        <time>2017-10-09T09:00:43Z</time>
      </trkpt>
      <trkpt lat="37.9462860804" lon="-2.7881841827">
        <ele>1579.10</ele>
        <time>2017-10-09T09:00:44Z</time>
      </trkpt>
      <trkpt lat="37.9462788720" lon="-2.7881551813">
        <ele>1579.10</ele>
        <time>2017-10-09T09:00:45Z</time>
      </trkpt>
      <trkpt lat="37.9462790396" lon="-2.7878093440">
        <ele>1579.58</ele>
        <time>2017-10-09T09:00:56Z</time>
      </trkpt>
      <trkpt lat="37.9463019222" lon="-2.7876598947">
        <ele>1580.06</ele>
        <time>2017-10-09T09:01:01Z</time>
      </trkpt>
      <trkpt lat="37.9462997429" lon="-2.7876287978">
        <ele>1580.06</ele>
        <time>2017-10-09T09:01:02Z</time>
      </trkpt>
      <trkpt lat="37.9462966416" lon="-2.7875977848">
        <ele>1580.54</ele>
        <time>2017-10-09T09:01:03Z</time>
      </trkpt>
      <trkpt lat="37.9462906905" lon="-2.7875683643">
        <ele>1580.54</ele>
        <time>2017-10-09T09:01:04Z</time>
      </trkpt>
      <trkpt lat="37.9462831467" lon="-2.7875367645">
        <ele>1580.54</ele>
        <time>2017-10-09T09:01:05Z</time>
      </trkpt>
      <trkpt lat="37.9462106433" lon="-2.7872024104">
        <ele>1579.58</ele>
        <time>2017-10-09T09:01:13Z</time>
      </trkpt>
      <trkpt lat="37.9462090507" lon="-2.7871529572">
        <ele>1579.58</ele>
        <time>2017-10-09T09:01:14Z</time>
      </trkpt>
      <trkpt lat="37.9462130740" lon="-2.7871142328">
        <ele>1579.58</ele>
        <time>2017-10-09T09:01:15Z</time>
      </trkpt>
      <trkpt lat="37.9462182708" lon="-2.7870824654">
        <ele>1580.06</ele>
        <time>2017-10-09T09:01:16Z</time>
      </trkpt>
      <trkpt lat="37.9462202825" lon="-2.7870486025">
        <ele>1580.06</ele>
        <time>2017-10-09T09:01:17Z</time>
      </trkpt>
      <trkpt lat="37.9462195281" lon="-2.7869818825">
        <ele>1580.54</ele>
        <time>2017-10-09T09:01:19Z</time>
      </trkpt>
      <trkpt lat="37.9462185223" lon="-2.7869548090">
        <ele>1580.54</ele>
        <time>2017-10-09T09:01:20Z</time>
      </trkpt>
      <trkpt lat="37.9462237190" lon="-2.7869327646">
        <ele>1580.54</ele>
        <time>2017-10-09T09:01:21Z</time>
      </trkpt>
      <trkpt lat="37.9462931212" lon="-2.7866706625">
        <ele>1582.47</ele>
        <time>2017-10-09T09:01:31Z</time>
      </trkpt>
      <trkpt lat="37.9463978112" lon="-2.7864652220">
        <ele>1583.43</ele>
        <time>2017-10-09T09:01:41Z</time>
      </trkpt>
      <trkpt lat="37.9464313388" lon="-2.7864451054">
        <ele>1582.47</ele>
        <time>2017-10-09T09:01:43Z</time>
      </trkpt>
      <trkpt lat="37.9466256313" lon="-2.7864683233">
        <ele>1582.95</ele>
        <time>2017-10-09T09:01:54Z</time>
      </trkpt>
      <trkpt lat="37.9466537107" lon="-2.7865049522">
        <ele>1582.95</ele>
        <time>2017-10-09T09:02:02Z</time>
      </trkpt>
      <trkpt lat="37.9466473404" lon="-2.7865140047">
        <ele>1582.95</ele>
        <time>2017-10-09T09:02:14Z</time>
      </trkpt>
      <trkpt lat="37.9466553871" lon="-2.7865326963">
        <ele>1582.95</ele>
        <time>2017-10-09T09:02:45Z</time>
      </trkpt>
      <trkpt lat="37.9466469213" lon="-2.7865373064">
        <ele>1582.95</ele>
        <time>2017-10-09T09:03:17Z</time>
      </trkpt>
      <trkpt lat="37.9466485977" lon="-2.7865278348">
        <ele>1582.95</ele>
        <time>2017-10-09T09:03:43Z</time>
      </trkpt>
      <trkpt lat="37.9466491845" lon="-2.7865201235">
        <ele>1582.95</ele>
        <time>2017-10-09T09:04:14Z</time>
      </trkpt>
      <trkpt lat="37.9466512799" lon="-2.7865140885">
        <ele>1582.47</ele>
        <time>2017-10-09T09:04:35Z</time>
      </trkpt>
      <trkpt lat="37.9466575664" lon="-2.7865270805">
        <ele>1582.47</ele>
        <time>2017-10-09T09:05:13Z</time>
      </trkpt>
      <trkpt lat="37.9466605000" lon="-2.7865324449">
        <ele>1582.47</ele>
        <time>2017-10-09T09:05:45Z</time>
      </trkpt>
      <trkpt lat="37.9466566443" lon="-2.7865162678">
        <ele>1582.95</ele>
        <time>2017-10-09T09:06:20Z</time>
      </trkpt>
      <trkpt lat="37.9466517828" lon="-2.7865355462">
        <ele>1582.95</ele>
        <time>2017-10-09T09:06:53Z</time>
      </trkpt>
      <trkpt lat="37.9466575664" lon="-2.7865264099">
        <ele>1582.95</ele>
        <time>2017-10-09T09:07:27Z</time>
      </trkpt>
      <trkpt lat="37.9466581531" lon="-2.7865281701">
        <ele>1582.95</ele>
        <time>2017-10-09T09:07:49Z</time>
      </trkpt>
      <trkpt lat="37.9466559738" lon="-2.7865195367">
        <ele>1582.47</ele>
        <time>2017-10-09T09:08:18Z</time>
      </trkpt>
      <trkpt lat="37.9466526210" lon="-2.7865103167">
        <ele>1582.47</ele>
        <time>2017-10-09T09:08:28Z</time>
      </trkpt>
      <trkpt lat="37.9465414770" lon="-2.7864480391">
        <ele>1582.47</ele>
        <time>2017-10-09T09:08:39Z</time>
      </trkpt>
      <trkpt lat="37.9465265572" lon="-2.7864272520">
        <ele>1582.95</ele>
        <time>2017-10-09T09:08:49Z</time>
      </trkpt>
      <trkpt lat="37.9465349391" lon="-2.7864231449">
        <ele>1582.47</ele>
        <time>2017-10-09T09:09:11Z</time>
      </trkpt>
      <trkpt lat="37.9464842286" lon="-2.7864205465">
        <ele>1582.47</ele>
        <time>2017-10-09T09:09:15Z</time>
      </trkpt>
      <trkpt lat="37.9464366194" lon="-2.7864152659">
        <ele>1582.47</ele>
        <time>2017-10-09T09:09:27Z</time>
      </trkpt>
      <trkpt lat="37.9464285728" lon="-2.7864149306">
        <ele>1582.95</ele>
        <time>2017-10-09T09:09:42Z</time>
      </trkpt>
      <trkpt lat="37.9464282375" lon="-2.7864135057">
        <ele>1582.95</ele>
        <time>2017-10-09T09:10:02Z</time>
      </trkpt>
      <trkpt lat="37.9464310035" lon="-2.7863638010">
        <ele>1582.95</ele>
        <time>2017-10-09T09:10:06Z</time>
      </trkpt>
      <trkpt lat="37.9464461748" lon="-2.7862747014">
        <ele>1582.95</ele>
        <time>2017-10-09T09:10:10Z</time>
      </trkpt>
      <trkpt lat="37.9465945344" lon="-2.7860143594">
        <ele>1583.43</ele>
        <time>2017-10-09T09:10:22Z</time>
      </trkpt>
      <trkpt lat="37.9465419799" lon="-2.7857469767">
        <ele>1583.91</ele>
        <time>2017-10-09T09:10:32Z</time>
      </trkpt>
      <trkpt lat="37.9464701470" lon="-2.7854671888">
        <ele>1584.39</ele>
        <time>2017-10-09T09:10:42Z</time>
      </trkpt>
      <trkpt lat="37.9465014115" lon="-2.7851787675">
        <ele>1585.35</ele>
        <time>2017-10-09T09:10:52Z</time>
      </trkpt>
      <trkpt lat="37.9465916846" lon="-2.7848163340">
        <ele>1585.83</ele>
        <time>2017-10-09T09:11:05Z</time>
      </trkpt>
      <trkpt lat="37.9467204306" lon="-2.7845461015">
        <ele>1586.31</ele>
        <time>2017-10-09T09:11:17Z</time>
      </trkpt>
      <trkpt lat="37.9467376973" lon="-2.7845028508">
        <ele>1586.79</ele>
        <time>2017-10-09T09:11:19Z</time>
      </trkpt>
      <trkpt lat="37.9468290601" lon="-2.7842652239">
        <ele>1587.27</ele>
        <time>2017-10-09T09:11:30Z</time>
      </trkpt>
      <trkpt lat="37.9468355142" lon="-2.7842201293">
        <ele>1587.27</ele>
        <time>2017-10-09T09:11:32Z</time>
      </trkpt>
      <trkpt lat="37.9468335025" lon="-2.7841339633">
        <ele>1587.75</ele>
        <time>2017-10-09T09:11:36Z</time>
      </trkpt>
      <trkpt lat="37.9469160642" lon="-2.7837998606">
        <ele>1588.24</ele>
        <time>2017-10-09T09:11:50Z</time>
      </trkpt>
      <trkpt lat="37.9470057506" lon="-2.7835022192">
        <ele>1588.72</ele>
        <time>2017-10-09T09:12:01Z</time>
      </trkpt>
      <trkpt lat="37.9470928386" lon="-2.7832329925">
        <ele>1589.20</ele>
        <time>2017-10-09T09:12:11Z</time>
      </trkpt>
      <trkpt lat="37.9471630789" lon="-2.7829910908">
        <ele>1589.68</ele>
        <time>2017-10-09T09:12:20Z</time>
      </trkpt>
      <trkpt lat="37.9472524300" lon="-2.7826620173">
        <ele>1590.16</ele>
        <time>2017-10-09T09:12:31Z</time>
      </trkpt>
      <trkpt lat="37.9473579582" lon="-2.7823088039">
        <ele>1591.12</ele>
        <time>2017-10-09T09:12:43Z</time>
      </trkpt>
      <trkpt lat="37.9474422801" lon="-2.7819688339">
        <ele>1592.08</ele>
        <time>2017-10-09T09:12:54Z</time>
      </trkpt>
      <trkpt lat="37.9475192260" lon="-2.7816357370">
        <ele>1592.56</ele>
        <time>2017-10-09T09:13:05Z</time>
      </trkpt>
      <trkpt lat="37.9476312920" lon="-2.7812175639">
        <ele>1593.52</ele>
        <time>2017-10-09T09:13:19Z</time>
      </trkpt>
      <trkpt lat="37.9477406759" lon="-2.7808993869">
        <ele>1594.48</ele>
        <time>2017-10-09T09:13:32Z</time>
      </trkpt>
      <trkpt lat="37.9477946553" lon="-2.7807548828">
        <ele>1594.96</ele>
        <time>2017-10-09T09:13:41Z</time>
      </trkpt>
      <trkpt lat="37.9479046259" lon="-2.7804413158">
        <ele>1595.93</ele>
        <time>2017-10-09T09:13:59Z</time>
      </trkpt>
      <trkpt lat="37.9479912948" lon="-2.7801891044">
        <ele>1596.41</ele>
        <time>2017-10-09T09:14:12Z</time>
      </trkpt>
      <trkpt lat="37.9481152631" lon="-2.7799440175">
        <ele>1597.37</ele>
        <time>2017-10-09T09:14:25Z</time>
      </trkpt>
      <trkpt lat="37.9482148401" lon="-2.7797384094">
        <ele>1597.37</ele>
        <time>2017-10-09T09:14:35Z</time>
      </trkpt>
      <trkpt lat="37.9483278282" lon="-2.7794133592">
        <ele>1597.85</ele>
        <time>2017-10-09T09:14:48Z</time>
      </trkpt>
      <trkpt lat="37.9483873397" lon="-2.7791938372">
        <ele>1598.33</ele>
        <time>2017-10-09T09:14:57Z</time>
      </trkpt>
      <trkpt lat="37.9484466836" lon="-2.7788512688">
        <ele>1599.29</ele>
        <time>2017-10-09T09:15:10Z</time>
      </trkpt>
      <trkpt lat="37.9485468473" lon="-2.7785613388">
        <ele>1600.73</ele>
        <time>2017-10-09T09:15:22Z</time>
      </trkpt>
      <trkpt lat="37.9486655351" lon="-2.7782993205">
        <ele>1601.69</ele>
        <time>2017-10-09T09:15:34Z</time>
      </trkpt>
      <trkpt lat="37.9486905131" lon="-2.7780347876">
        <ele>1602.66</ele>
        <time>2017-10-09T09:15:43Z</time>
      </trkpt>
      <trkpt lat="37.9487883300" lon="-2.7776669897">
        <ele>1602.17</ele>
        <time>2017-10-09T09:15:54Z</time>
      </trkpt>
      <trkpt lat="37.9488536250" lon="-2.7773564402">
        <ele>1603.14</ele>
        <time>2017-10-09T09:16:06Z</time>
      </trkpt>
      <trkpt lat="37.9488862306" lon="-2.7770170569">
        <ele>1603.62</ele>
        <time>2017-10-09T09:16:18Z</time>
      </trkpt>
      <trkpt lat="37.9488484282" lon="-2.7767070103">
        <ele>1604.58</ele>
        <time>2017-10-09T09:16:28Z</time>
      </trkpt>
      <trkpt lat="37.9487359431" lon="-2.7764264680">
        <ele>1605.06</ele>
        <time>2017-10-09T09:16:39Z</time>
      </trkpt>
      <trkpt lat="37.9486449994" lon="-2.7760944609">
        <ele>1605.06</ele>
        <time>2017-10-09T09:16:50Z</time>
      </trkpt>
      <trkpt lat="37.9485812970" lon="-2.7757852525">
        <ele>1606.02</ele>
        <time>2017-10-09T09:17:01Z</time>
      </trkpt>
      <trkpt lat="37.9485866614" lon="-2.7754584420">
        <ele>1606.50</ele>
        <time>2017-10-09T09:17:13Z</time>
      </trkpt>
      <trkpt lat="37.9485858232" lon="-2.7751077432">
        <ele>1606.98</ele>
        <time>2017-10-09T09:17:25Z</time>
      </trkpt>
      <trkpt lat="37.9485909361" lon="-2.7746935934">
        <ele>1607.94</ele>
        <time>2017-10-09T09:17:39Z</time>
      </trkpt>
      <trkpt lat="37.9486030061" lon="-2.7741743345">
        <ele>1608.90</ele>
        <time>2017-10-09T09:17:55Z</time>
      </trkpt>
      <trkpt lat="37.9486190993" lon="-2.7739299182">
        <ele>1609.86</ele>
        <time>2017-10-09T09:18:04Z</time>
      </trkpt>
      <trkpt lat="37.9486548062" lon="-2.7737695724">
        <ele>1609.86</ele>
        <time>2017-10-09T09:18:10Z</time>
      </trkpt>
      <trkpt lat="37.9487158265" lon="-2.7736380603">
        <ele>1609.86</ele>
        <time>2017-10-09T09:18:18Z</time>
      </trkpt>
      <trkpt lat="37.9487307463" lon="-2.7735539060">
        <ele>1609.86</ele>
        <time>2017-10-09T09:18:23Z</time>
      </trkpt>
      <trkpt lat="37.9488155711" lon="-2.7732860204">
        <ele>1610.35</ele>
        <time>2017-10-09T09:18:37Z</time>
      </trkpt>
      <trkpt lat="37.9488408007" lon="-2.7730552666">
        <ele>1609.86</ele>
        <time>2017-10-09T09:18:48Z</time>
      </trkpt>
      <trkpt lat="37.9488408845" lon="-2.7729134448">
        <ele>1610.83</ele>
        <time>2017-10-09T09:18:55Z</time>
      </trkpt>
      <trkpt lat="37.9488119669" lon="-2.7727073338">
        <ele>1611.79</ele>
        <time>2017-10-09T09:19:06Z</time>
      </trkpt>
      <trkpt lat="37.9487740807" lon="-2.7726088464">
        <ele>1611.79</ele>
        <time>2017-10-09T09:19:16Z</time>
      </trkpt>
      <trkpt lat="37.9487160780" lon="-2.7724223491">
        <ele>1611.79</ele>
        <time>2017-10-09T09:19:27Z</time>
      </trkpt>
      <trkpt lat="37.9486719891" lon="-2.7721565589">
        <ele>1612.27</ele>
        <time>2017-10-09T09:19:38Z</time>
      </trkpt>
      <trkpt lat="37.9486465082" lon="-2.7718322631">
        <ele>1612.75</ele>
        <time>2017-10-09T09:19:49Z</time>
      </trkpt>
      <trkpt lat="37.9486134835" lon="-2.7714099828">
        <ele>1613.23</ele>
        <time>2017-10-09T09:20:03Z</time>
      </trkpt>
      <trkpt lat="37.9485567380" lon="-2.7711262554">
        <ele>1615.15</ele>
        <time>2017-10-09T09:20:15Z</time>
      </trkpt>
      <trkpt lat="37.9485533014" lon="-2.7710866090">
        <ele>1615.63</ele>
        <time>2017-10-09T09:20:25Z</time>
      </trkpt>
      <trkpt lat="37.9485413153" lon="-2.7709794883">
        <ele>1616.59</ele>
        <time>2017-10-09T09:20:36Z</time>
      </trkpt>
      <trkpt lat="37.9485166725" lon="-2.7708257642">
        <ele>1618.52</ele>
        <time>2017-10-09T09:20:51Z</time>
      </trkpt>
      <trkpt lat="37.9484953824" lon="-2.7707020473">
        <ele>1620.44</ele>
        <time>2017-10-09T09:21:04Z</time>
      </trkpt>
      <trkpt lat="37.9484693985" lon="-2.7705691941">
        <ele>1621.40</ele>
        <time>2017-10-09T09:21:18Z</time>
      </trkpt>
      <trkpt lat="37.9484719131" lon="-2.7705630753">
        <ele>1621.40</ele>
        <time>2017-10-09T09:21:35Z</time>
      </trkpt>
      <trkpt lat="37.9484652076" lon="-2.7705002949">
        <ele>1621.40</ele>
        <time>2017-10-09T09:21:52Z</time>
      </trkpt>
      <trkpt lat="37.9484654590" lon="-2.7703671064">
        <ele>1620.92</ele>
        <time>2017-10-09T09:21:56Z</time>
      </trkpt>
      <trkpt lat="37.9484714102" lon="-2.7703097742">
        <ele>1619.96</ele>
        <time>2017-10-09T09:21:57Z</time>
      </trkpt>
      <trkpt lat="37.9484952986" lon="-2.7701836266">
        <ele>1619.48</ele>
        <time>2017-10-09T09:21:59Z</time>
      </trkpt>
      <trkpt lat="37.9485974740" lon="-2.7698053513">
        <ele>1619.96</ele>
        <time>2017-10-09T09:22:07Z</time>
      </trkpt>
      <trkpt lat="37.9486901779" lon="-2.7694390621">
        <ele>1620.44</ele>
        <time>2017-10-09T09:22:19Z</time>
      </trkpt>
      <trkpt lat="37.9487686325" lon="-2.7691248246">
        <ele>1620.92</ele>
        <time>2017-10-09T09:22:31Z</time>
      </trkpt>
      <trkpt lat="37.9488894995" lon="-2.7687675878">
        <ele>1619.48</ele>
        <time>2017-10-09T09:22:38Z</time>
      </trkpt>
      <trkpt lat="37.9490159824" lon="-2.7684679348">
        <ele>1620.92</ele>
        <time>2017-10-09T09:22:46Z</time>
      </trkpt>
      <trkpt lat="37.9491086863" lon="-2.7681889851">
        <ele>1620.92</ele>
        <time>2017-10-09T09:22:55Z</time>
      </trkpt>
      <trkpt lat="37.9492254462" lon="-2.7679064311">
        <ele>1620.92</ele>
        <time>2017-10-09T09:23:06Z</time>
      </trkpt>
      <trkpt lat="37.9493604787" lon="-2.7675546426">
        <ele>1621.40</ele>
        <time>2017-10-09T09:23:17Z</time>
      </trkpt>
      <trkpt lat="37.9495468084" lon="-2.7671138383">
        <ele>1620.92</ele>
        <time>2017-10-09T09:23:30Z</time>
      </trkpt>
      <trkpt lat="37.9497302882" lon="-2.7667105012">
        <ele>1621.40</ele>
        <time>2017-10-09T09:23:42Z</time>
      </trkpt>
      <trkpt lat="37.9499161150" lon="-2.7662821021">
        <ele>1621.40</ele>
        <time>2017-10-09T09:23:55Z</time>
      </trkpt>
      <trkpt lat="37.9499962460" lon="-2.7658186667">
        <ele>1621.40</ele>
        <time>2017-10-09T09:24:07Z</time>
      </trkpt>
      <trkpt lat="37.9500531591" lon="-2.7653377969">
        <ele>1621.88</ele>
        <time>2017-10-09T09:24:20Z</time>
      </trkpt>
      <trkpt lat="37.9501556698" lon="-2.7650260739">
        <ele>1622.84</ele>
        <time>2017-10-09T09:24:31Z</time>
      </trkpt>
      <trkpt lat="37.9501736909" lon="-2.7649883553">
        <ele>1622.84</ele>
        <time>2017-10-09T09:24:33Z</time>
      </trkpt>
      <trkpt lat="37.9501827434" lon="-2.7649778780">
        <ele>1622.84</ele>
        <time>2017-10-09T09:24:34Z</time>
      </trkpt>
      <trkpt lat="37.9502552468" lon="-2.7648023609">
        <ele>1623.32</ele>
        <time>2017-10-09T09:24:43Z</time>
      </trkpt>
      <trkpt lat="37.9502942227" lon="-2.7647212241">
        <ele>1623.80</ele>
        <time>2017-10-09T09:24:47Z</time>
      </trkpt>
      <trkpt lat="37.9502963182" lon="-2.7646983415">
        <ele>1623.80</ele>
        <time>2017-10-09T09:24:48Z</time>
      </trkpt>
      <trkpt lat="37.9503803048" lon="-2.7644134406">
        <ele>1622.84</ele>
        <time>2017-10-09T09:24:59Z</time>
      </trkpt>
      <trkpt lat="37.9503974877" lon="-2.7643598802">
        <ele>1627.65</ele>
        <time>2017-10-09T09:25:01Z</time>
      </trkpt>
      <trkpt lat="37.9504046962" lon="-2.7643349860">
        <ele>1623.80</ele>
        <time>2017-10-09T09:25:02Z</time>
      </trkpt>
      <trkpt lat="37.9504445940" lon="-2.7642096765">
        <ele>1629.09</ele>
        <time>2017-10-09T09:25:07Z</time>
      </trkpt>
      <trkpt lat="37.9504500423" lon="-2.7641841117">
        <ele>1623.32</ele>
        <time>2017-10-09T09:25:08Z</time>
      </trkpt>
      <trkpt lat="37.9504548199" lon="-2.7641568705">
        <ele>1624.28</ele>
        <time>2017-10-09T09:25:09Z</time>
      </trkpt>
      <trkpt lat="37.9504606035" lon="-2.7641286235">
        <ele>1629.57</ele>
        <time>2017-10-09T09:25:10Z</time>
      </trkpt>
      <trkpt lat="37.9504666384" lon="-2.7641013823">
        <ele>1627.17</ele>
        <time>2017-10-09T09:25:11Z</time>
      </trkpt>
      <trkpt lat="37.9504808038" lon="-2.7640438825">
        <ele>1625.73</ele>
        <time>2017-10-09T09:25:13Z</time>
      </trkpt>
      <trkpt lat="37.9505343642" lon="-2.7637392003">
        <ele>1626.21</ele>
        <time>2017-10-09T09:25:24Z</time>
      </trkpt>
      <trkpt lat="37.9506155849" lon="-2.7634110488">
        <ele>1627.17</ele>
        <time>2017-10-09T09:25:37Z</time>
      </trkpt>
      <trkpt lat="37.9507440794" lon="-2.7632527146">
        <ele>1627.65</ele>
        <time>2017-10-09T09:25:47Z</time>
      </trkpt>
      <trkpt lat="37.9508429021" lon="-2.7630502917">
        <ele>1627.65</ele>
        <time>2017-10-09T09:25:57Z</time>
      </trkpt>
      <trkpt lat="37.9509001505" lon="-2.7627780475">
        <ele>1627.65</ele>
        <time>2017-10-09T09:26:09Z</time>
      </trkpt>
      <trkpt lat="37.9509706423" lon="-2.7624698449">
        <ele>1628.13</ele>
        <time>2017-10-09T09:26:21Z</time>
      </trkpt>
      <trkpt lat="37.9510081932" lon="-2.7621422801">
        <ele>1628.61</ele>
        <time>2017-10-09T09:26:32Z</time>
      </trkpt>
      <trkpt lat="37.9510198440" lon="-2.7617951017">
        <ele>1628.61</ele>
        <time>2017-10-09T09:26:42Z</time>
      </trkpt>
      <trkpt lat="37.9510216042" lon="-2.7614169940">
        <ele>1629.57</ele>
        <time>2017-10-09T09:26:53Z</time>
      </trkpt>
      <trkpt lat="37.9510387033" lon="-2.7610476036">
        <ele>1630.05</ele>
        <time>2017-10-09T09:27:05Z</time>
      </trkpt>
      <trkpt lat="37.9511268809" lon="-2.7606047876">
        <ele>1631.49</ele>
        <time>2017-10-09T09:27:20Z</time>
      </trkpt>
      <trkpt lat="37.9511639290" lon="-2.7603000216">
        <ele>1632.46</ele>
        <time>2017-10-09T09:27:32Z</time>
      </trkpt>
      <trkpt lat="37.9511573911" lon="-2.7602804918">
        <ele>1632.46</ele>
        <time>2017-10-09T09:27:33Z</time>
      </trkpt>
      <trkpt lat="37.9511504341" lon="-2.7602607105">
        <ele>1632.46</ele>
        <time>2017-10-09T09:27:34Z</time>
      </trkpt>
      <trkpt lat="37.9511473328" lon="-2.7602384146">
        <ele>1632.46</ele>
        <time>2017-10-09T09:27:35Z</time>
      </trkpt>
      <trkpt lat="37.9511483386" lon="-2.7602188010">
        <ele>1632.46</ele>
        <time>2017-10-09T09:27:36Z</time>
      </trkpt>
      <trkpt lat="37.9511497635" lon="-2.7601970080">
        <ele>1632.94</ele>
        <time>2017-10-09T09:27:37Z</time>
      </trkpt>
      <trkpt lat="37.9511525296" lon="-2.7601760533">
        <ele>1632.46</ele>
        <time>2017-10-09T09:27:38Z</time>
      </trkpt>
      <trkpt lat="37.9511573073" lon="-2.7601562720">
        <ele>1632.94</ele>
        <time>2017-10-09T09:27:39Z</time>
      </trkpt>
      <trkpt lat="37.9511611629" lon="-2.7601385023">
        <ele>1632.94</ele>
        <time>2017-10-09T09:27:40Z</time>
      </trkpt>
      <trkpt lat="37.9512274638" lon="-2.7598940860">
        <ele>1633.42</ele>
        <time>2017-10-09T09:27:51Z</time>
      </trkpt>
      <trkpt lat="37.9512266256" lon="-2.7596770786">
        <ele>1634.38</ele>
        <time>2017-10-09T09:28:01Z</time>
      </trkpt>
      <trkpt lat="37.9512303974" lon="-2.7594443969">
        <ele>1634.86</ele>
        <time>2017-10-09T09:28:11Z</time>
      </trkpt>
      <trkpt lat="37.9513520189" lon="-2.7591371164">
        <ele>1634.86</ele>
        <time>2017-10-09T09:28:22Z</time>
      </trkpt>
      <trkpt lat="37.9515574593" lon="-2.7587645408">
        <ele>1634.38</ele>
        <time>2017-10-09T09:28:33Z</time>
      </trkpt>
      <trkpt lat="37.9517874587" lon="-2.7583807334">
        <ele>1633.42</ele>
        <time>2017-10-09T09:28:43Z</time>
      </trkpt>
      <trkpt lat="37.9520592839" lon="-2.7580364048">
        <ele>1632.94</ele>
        <time>2017-10-09T09:28:53Z</time>
      </trkpt>
      <trkpt lat="37.9521954060" lon="-2.7577947546">
        <ele>1636.30</ele>
        <time>2017-10-09T09:28:59Z</time>
      </trkpt>
      <trkpt lat="37.9522193782" lon="-2.7577535156">
        <ele>1632.46</ele>
        <time>2017-10-09T09:29:00Z</time>
      </trkpt>
      <trkpt lat="37.9523089807" lon="-2.7575878892">
        <ele>1631.49</ele>
        <time>2017-10-09T09:29:07Z</time>
      </trkpt>
      <trkpt lat="37.9523168597" lon="-2.7575736400">
        <ele>1631.49</ele>
        <time>2017-10-09T09:29:08Z</time>
      </trkpt>
      <trkpt lat="37.9523347970" lon="-2.7575702872">
        <ele>1631.49</ele>
        <time>2017-10-09T09:29:12Z</time>
      </trkpt>
      <trkpt lat="37.9524357151" lon="-2.7575654257">
        <ele>1631.01</ele>
        <time>2017-10-09T09:29:20Z</time>
      </trkpt>
      <trkpt lat="37.9524600226" lon="-2.7575496677">
        <ele>1631.01</ele>
        <time>2017-10-09T09:29:22Z</time>
      </trkpt>
      <trkpt lat="37.9524694104" lon="-2.7575370949">
        <ele>1631.01</ele>
        <time>2017-10-09T09:29:23Z</time>
      </trkpt>
      <trkpt lat="37.9524790496" lon="-2.7575256117">
        <ele>1630.53</ele>
        <time>2017-10-09T09:29:24Z</time>
      </trkpt>
      <trkpt lat="37.9524864256" lon="-2.7575159725">
        <ele>1631.01</ele>
        <time>2017-10-09T09:29:25Z</time>
      </trkpt>
      <trkpt lat="37.9524947237" lon="-2.7575049084">
        <ele>1631.01</ele>
        <time>2017-10-09T09:29:26Z</time>
      </trkpt>
      <trkpt lat="37.9525061231" lon="-2.7574917488">
        <ele>1630.53</ele>
        <time>2017-10-09T09:29:27Z</time>
      </trkpt>
      <trkpt lat="37.9526120704" lon="-2.7573407069">
        <ele>1630.05</ele>
        <time>2017-10-09T09:29:37Z</time>
      </trkpt>
      <trkpt lat="37.9527847376" lon="-2.7570523694">
        <ele>1629.57</ele>
        <time>2017-10-09T09:29:50Z</time>
      </trkpt>
      <trkpt lat="37.9530038405" lon="-2.7568164188">
        <ele>1628.61</ele>
        <time>2017-10-09T09:30:00Z</time>
      </trkpt>
      <trkpt lat="37.9533631727" lon="-2.7566395607">
        <ele>1626.69</ele>
        <time>2017-10-09T09:30:11Z</time>
      </trkpt>
      <trkpt lat="37.9538381752" lon="-2.7565313503">
        <ele>1625.25</ele>
        <time>2017-10-09T09:30:23Z</time>
      </trkpt>
      <trkpt lat="37.9542080685" lon="-2.7564906143">
        <ele>1623.80</ele>
        <time>2017-10-09T09:30:33Z</time>
      </trkpt>
      <trkpt lat="37.9545701668" lon="-2.7562322840">
        <ele>1623.32</ele>
        <time>2017-10-09T09:30:45Z</time>
      </trkpt>
      <trkpt lat="37.9549034312" lon="-2.7560376562">
        <ele>1622.36</ele>
        <time>2017-10-09T09:30:56Z</time>
      </trkpt>
      <trkpt lat="37.9552645236" lon="-2.7559648175">
        <ele>1622.36</ele>
        <time>2017-10-09T09:31:07Z</time>
      </trkpt>
      <trkpt lat="37.9555010609" lon="-2.7559873648">
        <ele>1622.84</ele>
        <time>2017-10-09T09:31:17Z</time>
      </trkpt>
      <trkpt lat="37.9557101056" lon="-2.7562224772">
        <ele>1622.84</ele>
        <time>2017-10-09T09:31:27Z</time>
      </trkpt>
      <trkpt lat="37.9560250137" lon="-2.7564520575">
        <ele>1621.88</ele>
        <time>2017-10-09T09:31:37Z</time>
      </trkpt>
      <trkpt lat="37.9564162809" lon="-2.7565242257">
        <ele>1621.88</ele>
        <time>2017-10-09T09:31:48Z</time>
      </trkpt>
      <trkpt lat="37.9567045346" lon="-2.7564948052">
        <ele>1622.84</ele>
        <time>2017-10-09T09:31:58Z</time>
      </trkpt>
      <trkpt lat="37.9569759406" lon="-2.7566071227">
        <ele>1622.84</ele>
        <time>2017-10-09T09:32:08Z</time>
      </trkpt>
      <trkpt lat="37.9572136514" lon="-2.7565854136">
        <ele>1624.28</ele>
        <time>2017-10-09T09:32:17Z</time>
      </trkpt>
      <trkpt lat="37.9573394638" lon="-2.7565066237">
        <ele>1625.25</ele>
        <time>2017-10-09T09:32:25Z</time>
      </trkpt>
      <trkpt lat="37.9573606700" lon="-2.7565060370">
        <ele>1625.73</ele>
        <time>2017-10-09T09:32:26Z</time>
      </trkpt>
      <trkpt lat="37.9573807865" lon="-2.7565006725">
        <ele>1625.73</ele>
        <time>2017-10-09T09:32:27Z</time>
      </trkpt>
      <trkpt lat="37.9576341715" lon="-2.7564119082">
        <ele>1625.73</ele>
        <time>2017-10-09T09:32:38Z</time>
      </trkpt>
      <trkpt lat="37.9576728120" lon="-2.7563930489">
        <ele>1625.73</ele>
        <time>2017-10-09T09:32:39Z</time>
      </trkpt>
      <trkpt lat="37.9579885583" lon="-2.7562392410">
        <ele>1621.88</ele>
        <time>2017-10-09T09:32:44Z</time>
      </trkpt>
      <trkpt lat="37.9581945855" lon="-2.7561730240">
        <ele>1624.28</ele>
        <time>2017-10-09T09:32:49Z</time>
      </trkpt>
      <trkpt lat="37.9582745489" lon="-2.7561491355">
        <ele>1624.28</ele>
        <time>2017-10-09T09:32:53Z</time>
      </trkpt>
      <trkpt lat="37.9582935758" lon="-2.7561400831">
        <ele>1624.77</ele>
        <time>2017-10-09T09:32:54Z</time>
      </trkpt>
      <trkpt lat="37.9585078172" lon="-2.7560840081">
        <ele>1624.28</ele>
        <time>2017-10-09T09:33:04Z</time>
      </trkpt>
      <trkpt lat="37.9588773753" lon="-2.7559821680">
        <ele>1621.88</ele>
        <time>2017-10-09T09:33:13Z</time>
      </trkpt>
      <trkpt lat="37.9593735002" lon="-2.7558348980">
        <ele>1620.92</ele>
        <time>2017-10-09T09:33:21Z</time>
      </trkpt>
      <trkpt lat="37.9595117178" lon="-2.7557659987">
        <ele>1622.84</ele>
        <time>2017-10-09T09:33:26Z</time>
      </trkpt>
      <trkpt lat="37.9596685432" lon="-2.7556766476">
        <ele>1624.77</ele>
        <time>2017-10-09T09:33:35Z</time>
      </trkpt>
      <trkpt lat="37.9598914180" lon="-2.7555874642">
        <ele>1625.73</ele>
        <time>2017-10-09T09:33:46Z</time>
      </trkpt>
      <trkpt lat="37.9600671027" lon="-2.7555754781">
        <ele>1626.69</ele>
        <time>2017-10-09T09:33:55Z</time>
      </trkpt>
      <trkpt lat="37.9604028817" lon="-2.7554685250">
        <ele>1627.65</ele>
        <time>2017-10-09T09:34:09Z</time>
      </trkpt>
      <trkpt lat="37.9606338870" lon="-2.7553865500">
        <ele>1628.61</ele>
        <time>2017-10-09T09:34:21Z</time>
      </trkpt>
      <trkpt lat="37.9608851764" lon="-2.7553148847">
        <ele>1629.09</ele>
        <time>2017-10-09T09:34:33Z</time>
      </trkpt>
      <trkpt lat="37.9610860068" lon="-2.7551542036">
        <ele>1630.53</ele>
        <time>2017-10-09T09:34:45Z</time>
      </trkpt>
      <trkpt lat="37.9610848334" lon="-2.7551583946">
        <ele>1631.01</ele>
        <time>2017-10-09T09:34:54Z</time>
      </trkpt>
      <trkpt lat="37.9611167684" lon="-2.7551397868">
        <ele>1631.01</ele>
        <time>2017-10-09T09:35:02Z</time>
      </trkpt>
      <trkpt lat="37.9611620307" lon="-2.7551211789">
        <ele>1631.01</ele>
        <time>2017-10-09T09:35:06Z</time>
      </trkpt>
      <trkpt lat="37.9611734301" lon="-2.7551177423">
        <ele>1631.49</ele>
        <time>2017-10-09T09:35:07Z</time>
      </trkpt>
      <trkpt lat="37.9612929560" lon="-2.7551008109">
        <ele>1631.98</ele>
        <time>2017-10-09T09:35:18Z</time>
      </trkpt>
      <trkpt lat="37.9614480212" lon="-2.7550908364">
        <ele>1633.42</ele>
        <time>2017-10-09T09:35:33Z</time>
      </trkpt>
      <trkpt lat="37.9615429044" lon="-2.7550808620">
        <ele>1633.42</ele>
        <time>2017-10-09T09:35:44Z</time>
      </trkpt>
      <trkpt lat="37.9617149848" lon="-2.7550502680">
        <ele>1634.86</ele>
        <time>2017-10-09T09:36:00Z</time>
      </trkpt>
      <trkpt lat="37.9618284758" lon="-2.7550228592">
        <ele>1635.82</ele>
        <time>2017-10-09T09:36:13Z</time>
      </trkpt>
      <trkpt lat="37.9619200062" lon="-2.7549918462">
        <ele>1636.78</ele>
        <time>2017-10-09T09:36:24Z</time>
      </trkpt>
      <trkpt lat="37.9619573895" lon="-2.7549872361">
        <ele>1637.26</ele>
        <time>2017-10-09T09:36:28Z</time>
      </trkpt>
      <trkpt lat="37.9620736465" lon="-2.7549542114">
        <ele>1638.70</ele>
        <time>2017-10-09T09:36:41Z</time>
      </trkpt>
      <trkpt lat="37.9621837009" lon="-2.7549380343">
        <ele>1639.67</ele>
        <time>2017-10-09T09:36:54Z</time>
      </trkpt>
      <trkpt lat="37.9622747283" lon="-2.7549050096">
        <ele>1640.15</ele>
        <time>2017-10-09T09:37:05Z</time>
      </trkpt>
      <trkpt lat="37.9624475632" lon="-2.7548747510">
        <ele>1641.59</ele>
        <time>2017-10-09T09:37:22Z</time>
      </trkpt>
      <trkpt lat="37.9624606390" lon="-2.7548770979">
        <ele>1641.59</ele>
        <time>2017-10-09T09:37:24Z</time>
      </trkpt>
      <trkpt lat="37.9626473039" lon="-2.7548907604">
        <ele>1641.59</ele>
        <time>2017-10-09T09:37:41Z</time>
      </trkpt>
      <trkpt lat="37.9628384952" lon="-2.7548223641">
        <ele>1643.03</ele>
        <time>2017-10-09T09:37:58Z</time>
      </trkpt>
      <trkpt lat="37.9630122520" lon="-2.7547454182">
        <ele>1643.99</ele>
        <time>2017-10-09T09:38:13Z</time>
      </trkpt>
      <trkpt lat="37.9631376453" lon="-2.7546816319">
        <ele>1644.47</ele>
        <time>2017-10-09T09:38:25Z</time>
      </trkpt>
      <trkpt lat="37.9631481227" lon="-2.7546793688">
        <ele>1644.95</ele>
        <time>2017-10-09T09:38:26Z</time>
      </trkpt>
      <trkpt lat="37.9631578457" lon="-2.7546749264">
        <ele>1644.47</ele>
        <time>2017-10-09T09:38:27Z</time>
      </trkpt>
      <trkpt lat="37.9633511323" lon="-2.7546214499">
        <ele>1644.95</ele>
        <time>2017-10-09T09:38:44Z</time>
      </trkpt>
      <trkpt lat="37.9635081254" lon="-2.7545854915">
        <ele>1645.91</ele>
        <time>2017-10-09T09:38:58Z</time>
      </trkpt>
      <trkpt lat="37.9636292439" lon="-2.7545800433">
        <ele>1646.88</ele>
        <time>2017-10-09T09:39:11Z</time>
      </trkpt>
      <trkpt lat="37.9637630191" lon="-2.7545364574">
        <ele>1647.84</ele>
        <time>2017-10-09T09:39:25Z</time>
      </trkpt>
      <trkpt lat="37.9639044218" lon="-2.7544424962">
        <ele>1649.28</ele>
        <time>2017-10-09T09:39:39Z</time>
      </trkpt>
      <trkpt lat="37.9640450701" lon="-2.7543338668">
        <ele>1650.24</ele>
        <time>2017-10-09T09:39:53Z</time>
      </trkpt>
      <trkpt lat="37.9641228542" lon="-2.7543180250">
        <ele>1650.72</ele>
        <time>2017-10-09T09:40:00Z</time>
      </trkpt>
      <trkpt lat="37.9641348403" lon="-2.7543189470">
        <ele>1650.72</ele>
        <time>2017-10-09T09:40:01Z</time>
      </trkpt>
      <trkpt lat="37.9641449824" lon="-2.7543181088">
        <ele>1650.72</ele>
        <time>2017-10-09T09:40:02Z</time>
      </trkpt>
      <trkpt lat="37.9642885644" lon="-2.7543145046">
        <ele>1652.16</ele>
        <time>2017-10-09T09:40:15Z</time>
      </trkpt>
      <trkpt lat="37.9643588047" lon="-2.7542786300">
        <ele>1652.16</ele>
        <time>2017-10-09T09:40:27Z</time>
      </trkpt>
      <trkpt lat="37.9643807653" lon="-2.7542800549">
        <ele>1651.68</ele>
        <time>2017-10-09T09:40:45Z</time>
      </trkpt>
      <trkpt lat="37.9643912427" lon="-2.7542781271">
        <ele>1652.16</ele>
        <time>2017-10-09T09:40:46Z</time>
      </trkpt>
      <trkpt lat="37.9644024745" lon="-2.7542759478">
        <ele>1652.16</ele>
        <time>2017-10-09T09:40:47Z</time>
      </trkpt>
      <trkpt lat="37.9644184001" lon="-2.7542673144">
        <ele>1652.16</ele>
        <time>2017-10-09T09:40:58Z</time>
      </trkpt>
      <trkpt lat="37.9644345772" lon="-2.7542624529">
        <ele>1653.60</ele>
        <time>2017-10-09T09:41:11Z</time>
      </trkpt>
      <trkpt lat="37.9645870440" lon="-2.7542606089">
        <ele>1651.68</ele>
        <time>2017-10-09T09:41:21Z</time>
      </trkpt>
      <trkpt lat="37.9647944961" lon="-2.7542998362">
        <ele>1652.16</ele>
        <time>2017-10-09T09:41:32Z</time>
      </trkpt>
      <trkpt lat="37.9649942368" lon="-2.7543296758">
        <ele>1652.16</ele>
        <time>2017-10-09T09:41:42Z</time>
      </trkpt>
      <trkpt lat="37.9652061313" lon="-2.7541604452">
        <ele>1652.64</ele>
        <time>2017-10-09T09:41:54Z</time>
      </trkpt>
      <trkpt lat="37.9654709995" lon="-2.7540828288">
        <ele>1651.68</ele>
        <time>2017-10-09T09:42:03Z</time>
      </trkpt>
      <trkpt lat="37.9657362029" lon="-2.7538927272">
        <ele>1651.68</ele>
        <time>2017-10-09T09:42:13Z</time>
      </trkpt>
      <trkpt lat="37.9658048507" lon="-2.7538462915">
        <ele>1651.68</ele>
        <time>2017-10-09T09:42:15Z</time>
      </trkpt>
      <trkpt lat="37.9662182461" lon="-2.7536089998">
        <ele>1649.28</ele>
        <time>2017-10-09T09:42:24Z</time>
      </trkpt>
      <trkpt lat="37.9663016461" lon="-2.7535432018">
        <ele>1649.28</ele>
        <time>2017-10-09T09:42:26Z</time>
      </trkpt>
      <trkpt lat="37.9665182345" lon="-2.7533645835">
        <ele>1650.24</ele>
        <time>2017-10-09T09:42:34Z</time>
      </trkpt>
      <trkpt lat="37.9667812586" lon="-2.7533591352">
        <ele>1649.76</ele>
        <time>2017-10-09T09:42:42Z</time>
      </trkpt>
      <trkpt lat="37.9668174684" lon="-2.7533827722">
        <ele>1649.28</ele>
        <time>2017-10-09T09:42:43Z</time>
      </trkpt>
      <trkpt lat="37.9668485653" lon="-2.7534183953">
        <ele>1648.80</ele>
        <time>2017-10-09T09:42:44Z</time>
      </trkpt>
      <trkpt lat="37.9668782372" lon="-2.7534622326">
        <ele>1648.80</ele>
        <time>2017-10-09T09:42:45Z</time>
      </trkpt>
      <trkpt lat="37.9669069871" lon="-2.7535120212">
        <ele>1648.32</ele>
        <time>2017-10-09T09:42:46Z</time>
      </trkpt>
      <trkpt lat="37.9669374134" lon="-2.7535600495">
        <ele>1647.84</ele>
        <time>2017-10-09T09:42:47Z</time>
      </trkpt>
      <trkpt lat="37.9669732880" lon="-2.7536042221">
        <ele>1647.84</ele>
        <time>2017-10-09T09:42:48Z</time>
      </trkpt>
      <trkpt lat="37.9670457914" lon="-2.7536856942">
        <ele>1647.84</ele>
        <time>2017-10-09T09:42:50Z</time>
      </trkpt>
      <trkpt lat="37.9672684148" lon="-2.7539221477">
        <ele>1649.76</ele>
        <time>2017-10-09T09:42:58Z</time>
      </trkpt>
      <trkpt lat="37.9675285053" lon="-2.7538748737">
        <ele>1651.20</ele>
        <time>2017-10-09T09:43:07Z</time>
      </trkpt>
      <trkpt lat="37.9677832313" lon="-2.7538022865">
        <ele>1651.68</ele>
        <time>2017-10-09T09:43:18Z</time>
      </trkpt>
      <trkpt lat="37.9680213612" lon="-2.7538649831">
        <ele>1652.64</ele>
        <time>2017-10-09T09:43:30Z</time>
      </trkpt>
      <trkpt lat="37.9682058468" lon="-2.7539053839">
        <ele>1653.60</ele>
        <time>2017-10-09T09:43:39Z</time>
      </trkpt>
      <trkpt lat="37.9682234488" lon="-2.7539031208">
        <ele>1653.60</ele>
        <time>2017-10-09T09:43:40Z</time>
      </trkpt>
      <trkpt lat="37.9682366084" lon="-2.7539018635">
        <ele>1653.60</ele>
        <time>2017-10-09T09:43:41Z</time>
      </trkpt>
      <trkpt lat="37.9682512768" lon="-2.7539060544">
        <ele>1653.60</ele>
        <time>2017-10-09T09:43:42Z</time>
      </trkpt>
      <trkpt lat="37.9682644363" lon="-2.7539132629">
        <ele>1653.60</ele>
        <time>2017-10-09T09:43:43Z</time>
      </trkpt>
      <trkpt lat="37.9683640972" lon="-2.7539679129">
        <ele>1653.60</ele>
        <time>2017-10-09T09:43:55Z</time>
      </trkpt>
      <trkpt lat="37.9686006345" lon="-2.7540805656">
        <ele>1653.12</ele>
        <time>2017-10-09T09:44:06Z</time>
      </trkpt>
      <trkpt lat="37.9689075798" lon="-2.7542482875">
        <ele>1653.12</ele>
        <time>2017-10-09T09:44:19Z</time>
      </trkpt>
      <trkpt lat="37.9691787343" lon="-2.7543994971">
        <ele>1653.60</ele>
        <time>2017-10-09T09:44:31Z</time>
      </trkpt>
      <trkpt lat="37.9694835842" lon="-2.7544918656">
        <ele>1653.12</ele>
        <time>2017-10-09T09:44:42Z</time>
      </trkpt>
      <trkpt lat="37.9698352050" lon="-2.7545383852">
        <ele>1653.12</ele>
        <time>2017-10-09T09:44:53Z</time>
      </trkpt>
      <trkpt lat="37.9700167570" lon="-2.7545978967">
        <ele>1654.09</ele>
        <time>2017-10-09T09:45:01Z</time>
      </trkpt>
      <trkpt lat="37.9701620154" lon="-2.7547962964">
        <ele>1654.09</ele>
        <time>2017-10-09T09:45:09Z</time>
      </trkpt>
      <trkpt lat="37.9700950440" lon="-2.7551503479">
        <ele>1653.60</ele>
        <time>2017-10-09T09:45:18Z</time>
      </trkpt>
      <trkpt lat="37.9699681420" lon="-2.7554278728">
        <ele>1653.12</ele>
        <time>2017-10-09T09:45:28Z</time>
      </trkpt>
      <trkpt lat="37.9698827304" lon="-2.7557059005">
        <ele>1653.12</ele>
        <time>2017-10-09T09:45:36Z</time>
      </trkpt>
      <trkpt lat="37.9699333571" lon="-2.7560421824">
        <ele>1650.24</ele>
        <time>2017-10-09T09:45:43Z</time>
      </trkpt>
      <trkpt lat="37.9699289147" lon="-2.7560932282">
        <ele>1650.24</ele>
        <time>2017-10-09T09:45:44Z</time>
      </trkpt>
      <trkpt lat="37.9699104745" lon="-2.7562501375">
        <ele>1649.76</ele>
        <time>2017-10-09T09:45:47Z</time>
      </trkpt>
      <trkpt lat="37.9699150007" lon="-2.7563082241">
        <ele>1649.28</ele>
        <time>2017-10-09T09:45:48Z</time>
      </trkpt>
      <trkpt lat="37.9699309263" lon="-2.7563591860">
        <ele>1648.80</ele>
        <time>2017-10-09T09:45:49Z</time>
      </trkpt>
      <trkpt lat="37.9699525516" lon="-2.7563917916">
        <ele>1649.28</ele>
        <time>2017-10-09T09:45:50Z</time>
      </trkpt>
      <trkpt lat="37.9699733388" lon="-2.7564085554">
        <ele>1649.76</ele>
        <time>2017-10-09T09:45:51Z</time>
      </trkpt>
      <trkpt lat="37.9699933715" lon="-2.7564192005">
        <ele>1650.24</ele>
        <time>2017-10-09T09:45:52Z</time>
      </trkpt>
      <trkpt lat="37.9700095486" lon="-2.7564341202">
        <ele>1650.72</ele>
        <time>2017-10-09T09:45:59Z</time>
      </trkpt>
      <trkpt lat="37.9700596724" lon="-2.7564451844">
        <ele>1651.68</ele>
        <time>2017-10-09T09:46:09Z</time>
      </trkpt>
      <trkpt lat="37.9700686410" lon="-2.7564459387">
        <ele>1651.20</ele>
        <time>2017-10-09T09:46:13Z</time>
      </trkpt>
      <trkpt lat="37.9700819682" lon="-2.7564461902">
        <ele>1651.20</ele>
        <time>2017-10-09T09:46:14Z</time>
      </trkpt>
      <trkpt lat="37.9700924456" lon="-2.7564474475">
        <ele>1651.68</ele>
        <time>2017-10-09T09:46:15Z</time>
      </trkpt>
      <trkpt lat="37.9701975547" lon="-2.7564963978">
        <ele>1652.64</ele>
        <time>2017-10-09T09:46:27Z</time>
      </trkpt>
      <trkpt lat="37.9703530390" lon="-2.7565684821">
        <ele>1654.57</ele>
        <time>2017-10-09T09:46:43Z</time>
      </trkpt>
      <trkpt lat="37.9704356845" lon="-2.7565797139">
        <ele>1655.53</ele>
        <time>2017-10-09T09:46:53Z</time>
      </trkpt>
      <trkpt lat="37.9704696313" lon="-2.7565721702">
        <ele>1656.49</ele>
        <time>2017-10-09T09:47:03Z</time>
      </trkpt>
      <trkpt lat="37.9705484211" lon="-2.7565595135">
        <ele>1657.45</ele>
        <time>2017-10-09T09:47:14Z</time>
      </trkpt>
      <trkpt lat="37.9705865588" lon="-2.7565447614">
        <ele>1657.93</ele>
        <time>2017-10-09T09:47:24Z</time>
      </trkpt>
      <trkpt lat="37.9705981258" lon="-2.7565393969">
        <ele>1657.93</ele>
        <time>2017-10-09T09:47:25Z</time>
      </trkpt>
      <trkpt lat="37.9707732238" lon="-2.7564770356">
        <ele>1658.89</ele>
        <time>2017-10-09T09:47:39Z</time>
      </trkpt>
      <trkpt lat="37.9720167629" lon="-2.7566611022">
        <ele>1656.49</ele>
        <time>2017-10-09T09:49:58Z</time>
      </trkpt>
      <trkpt lat="37.9720419087" lon="-2.7566677239">
        <ele>1656.49</ele>
        <time>2017-10-09T09:49:59Z</time>
      </trkpt>
      <trkpt lat="37.9721999913" lon="-2.7567453403">
        <ele>1655.53</ele>
        <time>2017-10-09T09:50:07Z</time>
      </trkpt>
      <trkpt lat="37.9725123849" lon="-2.7567719109">
        <ele>1656.49</ele>
        <time>2017-10-09T09:50:18Z</time>
      </trkpt>
      <trkpt lat="37.9728511814" lon="-2.7568334341">
        <ele>1657.93</ele>
        <time>2017-10-09T09:50:30Z</time>
      </trkpt>
      <trkpt lat="37.9730329849" lon="-2.7568078693">
        <ele>1659.85</ele>
        <time>2017-10-09T09:50:40Z</time>
      </trkpt>
      <trkpt lat="37.9730475694" lon="-2.7568010800">
        <ele>1659.85</ele>
        <time>2017-10-09T09:50:50Z</time>
      </trkpt>
      <trkpt lat="37.9730401095" lon="-2.7567974757">
        <ele>1659.85</ele>
        <time>2017-10-09T09:51:11Z</time>
      </trkpt>
      <trkpt lat="37.9730401933" lon="-2.7567940392">
        <ele>1659.85</ele>
        <time>2017-10-09T09:51:34Z</time>
      </trkpt>
      <trkpt lat="37.9731494933" lon="-2.7567171771">
        <ele>1660.81</ele>
        <time>2017-10-09T09:51:50Z</time>
      </trkpt>
      <trkpt lat="37.9733851086" lon="-2.7565204538">
        <ele>1660.81</ele>
        <time>2017-10-09T09:52:01Z</time>
      </trkpt>
      <trkpt lat="37.9736568499" lon="-2.7564879321">
        <ele>1660.33</ele>
        <time>2017-10-09T09:52:13Z</time>
      </trkpt>
      <trkpt lat="37.9739543237" lon="-2.7566699032">
        <ele>1659.37</ele>
        <time>2017-10-09T09:52:22Z</time>
      </trkpt>
      <trkpt lat="37.9741123226" lon="-2.7567727491">
        <ele>1658.41</ele>
        <time>2017-10-09T09:52:26Z</time>
      </trkpt>
      <trkpt lat="37.9743360355" lon="-2.7569164149">
        <ele>1658.89</ele>
        <time>2017-10-09T09:52:34Z</time>
      </trkpt>
      <trkpt lat="37.9745803680" lon="-2.7570289839">
        <ele>1659.37</ele>
        <time>2017-10-09T09:52:45Z</time>
      </trkpt>
      <trkpt lat="37.9748017341" lon="-2.7569496911">
        <ele>1660.33</ele>
        <time>2017-10-09T09:52:55Z</time>
      </trkpt>
      <trkpt lat="37.9751018062" lon="-2.7568662073">
        <ele>1661.30</ele>
        <time>2017-10-09T09:53:08Z</time>
      </trkpt>
      <trkpt lat="37.9753891379" lon="-2.7568227053">
        <ele>1661.78</ele>
        <time>2017-10-09T09:53:20Z</time>
      </trkpt>
      <trkpt lat="37.9755873699" lon="-2.7569258027">
        <ele>1661.78</ele>
        <time>2017-10-09T09:53:30Z</time>
      </trkpt>
      <trkpt lat="37.9758794792" lon="-2.7568947896">
        <ele>1661.30</ele>
        <time>2017-10-09T09:53:41Z</time>
      </trkpt>
      <trkpt lat="37.9761142563" lon="-2.7567620203">
        <ele>1662.26</ele>
        <time>2017-10-09T09:53:52Z</time>
      </trkpt>
      <trkpt lat="37.9763570800" lon="-2.7566665504">
        <ele>1663.70</ele>
        <time>2017-10-09T09:54:04Z</time>
      </trkpt>
      <trkpt lat="37.9766149912" lon="-2.7565569989">
        <ele>1663.22</ele>
        <time>2017-10-09T09:54:14Z</time>
      </trkpt>
      <trkpt lat="37.9768398777" lon="-2.7562782168">
        <ele>1662.26</ele>
        <time>2017-10-09T09:54:25Z</time>
      </trkpt>
      <trkpt lat="37.9768784344" lon="-2.7562428452">
        <ele>1661.30</ele>
        <time>2017-10-09T09:54:26Z</time>
      </trkpt>
      <trkpt lat="37.9769287258" lon="-2.7562101558">
        <ele>1660.81</ele>
        <time>2017-10-09T09:54:27Z</time>
      </trkpt>
      <trkpt lat="37.9769853037" lon="-2.7561827470">
        <ele>1660.33</ele>
        <time>2017-10-09T09:54:28Z</time>
      </trkpt>
      <trkpt lat="37.9770392831" lon="-2.7561607026">
        <ele>1659.85</ele>
        <time>2017-10-09T09:54:29Z</time>
      </trkpt>
      <trkpt lat="37.9770858027" lon="-2.7561373170">
        <ele>1659.85</ele>
        <time>2017-10-09T09:54:30Z</time>
      </trkpt>
      <trkpt lat="37.9771250300" lon="-2.7561064716">
        <ele>1659.85</ele>
        <time>2017-10-09T09:54:31Z</time>
      </trkpt>
      <trkpt lat="37.9771635868" lon="-2.7560666576">
        <ele>1659.37</ele>
        <time>2017-10-09T09:54:32Z</time>
      </trkpt>
      <trkpt lat="37.9772071727" lon="-2.7560282685">
        <ele>1658.89</ele>
        <time>2017-10-09T09:54:33Z</time>
      </trkpt>
      <trkpt lat="37.9772572964" lon="-2.7560083196">
        <ele>1658.41</ele>
        <time>2017-10-09T09:54:34Z</time>
      </trkpt>
      <trkpt lat="37.9773076717" lon="-2.7560067270">
        <ele>1658.41</ele>
        <time>2017-10-09T09:54:35Z</time>
      </trkpt>
      <trkpt lat="37.9773567058" lon="-2.7560177911">
        <ele>1658.41</ele>
        <time>2017-10-09T09:54:36Z</time>
      </trkpt>
      <trkpt lat="37.9774024710" lon="-2.7560351416">
        <ele>1657.93</ele>
        <time>2017-10-09T09:54:37Z</time>
      </trkpt>
      <trkpt lat="37.9774442967" lon="-2.7560515702">
        <ele>1657.93</ele>
        <time>2017-10-09T09:54:38Z</time>
      </trkpt>
      <trkpt lat="37.9774856195" lon="-2.7560610417">
        <ele>1657.93</ele>
        <time>2017-10-09T09:54:39Z</time>
      </trkpt>
      <trkpt lat="37.9775265232" lon="-2.7560624667">
        <ele>1657.93</ele>
        <time>2017-10-09T09:54:40Z</time>
      </trkpt>
      <trkpt lat="37.9775650799" lon="-2.7560531627">
        <ele>1657.93</ele>
        <time>2017-10-09T09:54:41Z</time>
      </trkpt>
      <trkpt lat="37.9776015412" lon="-2.7560413443">
        <ele>1657.93</ele>
        <time>2017-10-09T09:54:42Z</time>
      </trkpt>
      <trkpt lat="37.9779752064" lon="-2.7559405100">
        <ele>1659.37</ele>
        <time>2017-10-09T09:54:53Z</time>
      </trkpt>
      <trkpt lat="37.9782053735" lon="-2.7558589540">
        <ele>1657.93</ele>
        <time>2017-10-09T09:54:58Z</time>
      </trkpt>
      <trkpt lat="37.9783078004" lon="-2.7558225766">
        <ele>1656.97</ele>
        <time>2017-10-09T09:55:00Z</time>
      </trkpt>
      <trkpt lat="37.9785165936" lon="-2.7558033820">
        <ele>1658.41</ele>
        <time>2017-10-09T09:55:07Z</time>
      </trkpt>
      <trkpt lat="37.9788362794" lon="-2.7558453754">
        <ele>1659.37</ele>
        <time>2017-10-09T09:55:18Z</time>
      </trkpt>
      <trkpt lat="37.9790522810" lon="-2.7556725405">
        <ele>1658.41</ele>
        <time>2017-10-09T09:55:26Z</time>
      </trkpt>
      <trkpt lat="37.9790902510" lon="-2.7556466404">
        <ele>1657.93</ele>
        <time>2017-10-09T09:55:27Z</time>
      </trkpt>
      <trkpt lat="37.9791251197" lon="-2.7556203213">
        <ele>1657.93</ele>
        <time>2017-10-09T09:55:28Z</time>
      </trkpt>
      <trkpt lat="37.9794090148" lon="-2.7553317323">
        <ele>1658.41</ele>
        <time>2017-10-09T09:55:39Z</time>
      </trkpt>
      <trkpt lat="37.9797157925" lon="-2.7550089452">
        <ele>1658.89</ele>
        <time>2017-10-09T09:55:51Z</time>
      </trkpt>
      <trkpt lat="37.9799276032" lon="-2.7547646128">
        <ele>1659.85</ele>
        <time>2017-10-09T09:56:02Z</time>
      </trkpt>
      <trkpt lat="37.9800973367" lon="-2.7545753494">
        <ele>1661.30</ele>
        <time>2017-10-09T09:56:14Z</time>
      </trkpt>
      <trkpt lat="37.9803836625" lon="-2.7543114033">
        <ele>1662.74</ele>
        <time>2017-10-09T09:56:30Z</time>
      </trkpt>
      <trkpt lat="37.9806486983" lon="-2.7541125007">
        <ele>1665.14</ele>
        <time>2017-10-09T09:56:43Z</time>
      </trkpt>
      <trkpt lat="37.9808798712" lon="-2.7539389115">
        <ele>1665.62</ele>
        <time>2017-10-09T09:56:55Z</time>
      </trkpt>
      <trkpt lat="37.9811425600" lon="-2.7537883725">
        <ele>1667.06</ele>
        <time>2017-10-09T09:57:08Z</time>
      </trkpt>
      <trkpt lat="37.9814308975" lon="-2.7536566090">
        <ele>1667.54</ele>
        <time>2017-10-09T09:57:20Z</time>
      </trkpt>
      <trkpt lat="37.9816397745" lon="-2.7535586245">
        <ele>1668.51</ele>
        <time>2017-10-09T09:57:31Z</time>
      </trkpt>
      <trkpt lat="37.9818717856" lon="-2.7536021266">
        <ele>1668.99</ele>
        <time>2017-10-09T09:57:42Z</time>
      </trkpt>
      <trkpt lat="37.9820540920" lon="-2.7535139490">
        <ele>1670.43</ele>
        <time>2017-10-09T09:57:52Z</time>
      </trkpt>
      <trkpt lat="37.9822473787" lon="-2.7535113506">
        <ele>1671.87</ele>
        <time>2017-10-09T09:58:03Z</time>
      </trkpt>
      <trkpt lat="37.9824797250" lon="-2.7535126917">
        <ele>1672.83</ele>
        <time>2017-10-09T09:58:15Z</time>
      </trkpt>
      <trkpt lat="37.9825093970" lon="-2.7534968499">
        <ele>1673.31</ele>
        <time>2017-10-09T09:58:23Z</time>
      </trkpt>
      <trkpt lat="37.9825048707" lon="-2.7535046451">
        <ele>1672.83</ele>
        <time>2017-10-09T09:58:42Z</time>
      </trkpt>
      <trkpt lat="37.9825112410" lon="-2.7535042260">
        <ele>1673.79</ele>
        <time>2017-10-09T09:59:03Z</time>
      </trkpt>
      <trkpt lat="37.9825118277" lon="-2.7535069920">
        <ele>1674.75</ele>
        <time>2017-10-09T09:59:21Z</time>
      </trkpt>
      <trkpt lat="37.9825114086" lon="-2.7535038069">
        <ele>1674.27</ele>
        <time>2017-10-09T09:59:37Z</time>
      </trkpt>
      <trkpt lat="37.9825087264" lon="-2.7535011247">
        <ele>1673.31</ele>
        <time>2017-10-09T10:00:04Z</time>
      </trkpt>
      <trkpt lat="37.9825083911" lon="-2.7535050642">
        <ele>1673.31</ele>
        <time>2017-10-09T10:00:20Z</time>
      </trkpt>
      <trkpt lat="37.9825164378" lon="-2.7535067406">
        <ele>1673.31</ele>
        <time>2017-10-09T10:00:31Z</time>
      </trkpt>
      <trkpt lat="37.9825585987" lon="-2.7534941677">
        <ele>1673.31</ele>
        <time>2017-10-09T10:00:39Z</time>
      </trkpt>
      <trkpt lat="37.9827139154" lon="-2.7533570398">
        <ele>1672.83</ele>
        <time>2017-10-09T10:00:47Z</time>
      </trkpt>
      <trkpt lat="37.9829606786" lon="-2.7532230970">
        <ele>1672.35</ele>
        <time>2017-10-09T10:00:57Z</time>
      </trkpt>
      <trkpt lat="37.9832705576" lon="-2.7529894095">
        <ele>1672.35</ele>
        <time>2017-10-09T10:01:08Z</time>
      </trkpt>
      <trkpt lat="37.9835752398" lon="-2.7527351864">
        <ele>1672.35</ele>
        <time>2017-10-09T10:01:20Z</time>
      </trkpt>
      <trkpt lat="37.9837876372" lon="-2.7525398880">
        <ele>1673.31</ele>
        <time>2017-10-09T10:01:31Z</time>
      </trkpt>
      <trkpt lat="37.9840472247" lon="-2.7524102200">
        <ele>1674.27</ele>
        <time>2017-10-09T10:01:45Z</time>
      </trkpt>
      <trkpt lat="37.9841200635" lon="-2.7523802966">
        <ele>1675.23</ele>
        <time>2017-10-09T10:01:54Z</time>
      </trkpt>
      <trkpt lat="37.9842527490" lon="-2.7523158398">
        <ele>1676.68</ele>
        <time>2017-10-09T10:02:06Z</time>
      </trkpt>
      <trkpt lat="37.9843776394" lon="-2.7522689849">
        <ele>1681.00</ele>
        <time>2017-10-09T10:02:18Z</time>
      </trkpt>
      <trkpt lat="37.9843848478" lon="-2.7522682305">
        <ele>1676.68</ele>
        <time>2017-10-09T10:02:19Z</time>
      </trkpt>
      <trkpt lat="37.9843919724" lon="-2.7522673085">
        <ele>1679.56</ele>
        <time>2017-10-09T10:02:20Z</time>
      </trkpt>
      <trkpt lat="37.9844776355" lon="-2.7522328589">
        <ele>1678.60</ele>
        <time>2017-10-09T10:02:29Z</time>
      </trkpt>
      <trkpt lat="37.9847392347" lon="-2.7520679869">
        <ele>1677.64</ele>
        <time>2017-10-09T10:02:37Z</time>
      </trkpt>
      <trkpt lat="37.9848456010" lon="-2.7519752830">
        <ele>1678.12</ele>
        <time>2017-10-09T10:02:40Z</time>
      </trkpt>
      <trkpt lat="37.9848757759" lon="-2.7519396599">
        <ele>1677.64</ele>
        <time>2017-10-09T10:02:41Z</time>
      </trkpt>
      <trkpt lat="37.9849024303" lon="-2.7519058809">
        <ele>1678.12</ele>
        <time>2017-10-09T10:02:42Z</time>
      </trkpt>
      <trkpt lat="37.9850006662" lon="-2.7517856006">
        <ele>1674.75</ele>
        <time>2017-10-09T10:02:47Z</time>
      </trkpt>
      <trkpt lat="37.9850149155" lon="-2.7517661545">
        <ele>1681.00</ele>
        <time>2017-10-09T10:02:48Z</time>
      </trkpt>
      <trkpt lat="37.9850249738" lon="-2.7517423499">
        <ele>1677.64</ele>
        <time>2017-10-09T10:02:49Z</time>
      </trkpt>
      <trkpt lat="37.9850434139" lon="-2.7516986802">
        <ele>1678.60</ele>
        <time>2017-10-09T10:02:51Z</time>
      </trkpt>
      <trkpt lat="37.9850460961" lon="-2.7516789827">
        <ele>1678.60</ele>
        <time>2017-10-09T10:02:52Z</time>
      </trkpt>
      <trkpt lat="37.9850491136" lon="-2.7516596206">
        <ele>1679.08</ele>
        <time>2017-10-09T10:02:53Z</time>
      </trkpt>
      <trkpt lat="37.9850560706" lon="-2.7516411804">
        <ele>1679.08</ele>
        <time>2017-10-09T10:02:54Z</time>
      </trkpt>
      <trkpt lat="37.9850671347" lon="-2.7516261768">
        <ele>1679.08</ele>
        <time>2017-10-09T10:02:55Z</time>
      </trkpt>
      <trkpt lat="37.9850767739" lon="-2.7516099997">
        <ele>1679.08</ele>
        <time>2017-10-09T10:02:56Z</time>
      </trkpt>
      <trkpt lat="37.9850861616" lon="-2.7515908889">
        <ele>1679.56</ele>
        <time>2017-10-09T10:02:57Z</time>
      </trkpt>
      <trkpt lat="37.9852206074" lon="-2.7513949201">
        <ele>1681.00</ele>
        <time>2017-10-09T10:03:08Z</time>
      </trkpt>
      <trkpt lat="37.9853948671" lon="-2.7513235901">
        <ele>1682.44</ele>
        <time>2017-10-09T10:03:19Z</time>
      </trkpt>
      <trkpt lat="37.9856207594" lon="-2.7512083389">
        <ele>1682.93</ele>
        <time>2017-10-09T10:03:32Z</time>
      </trkpt>
      <trkpt lat="37.9858123697" lon="-2.7510234341">
        <ele>1684.37</ele>
        <time>2017-10-09T10:03:45Z</time>
      </trkpt>
      <trkpt lat="37.9859704524" lon="-2.7508435585">
        <ele>1686.77</ele>
        <time>2017-10-09T10:03:57Z</time>
      </trkpt>
      <trkpt lat="37.9861344863" lon="-2.7507270500">
        <ele>1687.25</ele>
        <time>2017-10-09T10:04:09Z</time>
      </trkpt>
      <trkpt lat="37.9863292817" lon="-2.7505542152">
        <ele>1689.17</ele>
        <time>2017-10-09T10:04:23Z</time>
      </trkpt>
      <trkpt lat="37.9864699300" lon="-2.7504121419">
        <ele>1690.62</ele>
        <time>2017-10-09T10:04:33Z</time>
      </trkpt>
      <trkpt lat="37.9865380749" lon="-2.7503509540">
        <ele>1691.10</ele>
        <time>2017-10-09T10:04:38Z</time>
      </trkpt>
      <trkpt lat="37.9866940621" lon="-2.7502626926">
        <ele>1692.06</ele>
        <time>2017-10-09T10:04:50Z</time>
      </trkpt>
      <trkpt lat="37.9867037013" lon="-2.7502538916">
        <ele>1692.54</ele>
        <time>2017-10-09T10:05:00Z</time>
      </trkpt>
      <trkpt lat="37.9867151007" lon="-2.7502657101">
        <ele>1692.06</ele>
        <time>2017-10-09T10:05:12Z</time>
      </trkpt>
      <trkpt lat="37.9867150169" lon="-2.7502687275">
        <ele>1692.54</ele>
        <time>2017-10-09T10:05:37Z</time>
      </trkpt>
      <trkpt lat="37.9867467005" lon="-2.7502516285">
        <ele>1693.02</ele>
        <time>2017-10-09T10:05:48Z</time>
      </trkpt>
      <trkpt lat="37.9867663980" lon="-2.7502500359">
        <ele>1692.54</ele>
        <time>2017-10-09T10:05:50Z</time>
      </trkpt>
      <trkpt lat="37.9868088104" lon="-2.7502507903">
        <ele>1693.02</ele>
        <time>2017-10-09T10:05:53Z</time>
      </trkpt>
      <trkpt lat="37.9868254066" lon="-2.7502437495">
        <ele>1693.02</ele>
        <time>2017-10-09T10:05:54Z</time>
      </trkpt>
      <trkpt lat="37.9870491195" lon="-2.7501429152">
        <ele>1693.98</ele>
        <time>2017-10-09T10:06:07Z</time>
      </trkpt>
      <trkpt lat="37.9872242175" lon="-2.7501096390">
        <ele>1694.46</ele>
        <time>2017-10-09T10:06:18Z</time>
      </trkpt>
      <trkpt lat="37.9873678833" lon="-2.7500870079">
        <ele>1694.94</ele>
        <time>2017-10-09T10:06:27Z</time>
      </trkpt>
      <trkpt lat="37.9873836413" lon="-2.7500853315">
        <ele>1695.42</ele>
        <time>2017-10-09T10:06:28Z</time>
      </trkpt>
      <trkpt lat="37.9873983935" lon="-2.7500916179">
        <ele>1694.94</ele>
        <time>2017-10-09T10:06:29Z</time>
      </trkpt>
      <trkpt lat="37.9874132294" lon="-2.7501031011">
        <ele>1694.94</ele>
        <time>2017-10-09T10:06:30Z</time>
      </trkpt>
      <trkpt lat="37.9874292389" lon="-2.7501055319">
        <ele>1694.94</ele>
        <time>2017-10-09T10:06:31Z</time>
      </trkpt>
      <trkpt lat="37.9874463379" lon="-2.7501051966">
        <ele>1694.94</ele>
        <time>2017-10-09T10:06:32Z</time>
      </trkpt>
      <trkpt lat="37.9874643590" lon="-2.7501068730">
        <ele>1695.42</ele>
        <time>2017-10-09T10:06:33Z</time>
      </trkpt>
      <trkpt lat="37.9877369385" lon="-2.7501055319">
        <ele>1696.86</ele>
        <time>2017-10-09T10:06:48Z</time>
      </trkpt>
      <trkpt lat="37.9879234359" lon="-2.7500599343">
        <ele>1698.79</ele>
        <time>2017-10-09T10:07:01Z</time>
      </trkpt>
      <trkpt lat="37.9879237711" lon="-2.7500621974">
        <ele>1698.31</ele>
        <time>2017-10-09T10:07:12Z</time>
      </trkpt>
      <trkpt lat="37.9879285488" lon="-2.7500630356">
        <ele>1698.31</ele>
        <time>2017-10-09T10:07:36Z</time>
      </trkpt>
      <trkpt lat="37.9879873898" lon="-2.7500415780">
        <ele>1698.79</ele>
        <time>2017-10-09T10:07:49Z</time>
      </trkpt>
      <trkpt lat="37.9879980348" lon="-2.7500452660">
        <ele>1698.79</ele>
        <time>2017-10-09T10:08:02Z</time>
      </trkpt>
      <trkpt lat="37.9880757350" lon="-2.7500435896">
        <ele>1699.75</ele>
        <time>2017-10-09T10:08:14Z</time>
      </trkpt>
      <trkpt lat="37.9882096779" lon="-2.7500147559">
        <ele>1701.19</ele>
        <time>2017-10-09T10:08:29Z</time>
      </trkpt>
      <trkpt lat="37.9883478954" lon="-2.7499464434">
        <ele>1702.63</ele>
        <time>2017-10-09T10:08:44Z</time>
      </trkpt>
      <trkpt lat="37.9883554392" lon="-2.7499403246">
        <ele>1702.63</ele>
        <time>2017-10-09T10:08:45Z</time>
      </trkpt>
      <trkpt lat="37.9884483945" lon="-2.7498399094">
        <ele>1704.07</ele>
        <time>2017-10-09T10:08:58Z</time>
      </trkpt>
      <trkpt lat="37.9885353986" lon="-2.7497363929">
        <ele>1705.04</ele>
        <time>2017-10-09T10:09:09Z</time>
      </trkpt>
      <trkpt lat="37.9886845965" lon="-2.7496384922">
        <ele>1706.96</ele>
        <time>2017-10-09T10:09:26Z</time>
      </trkpt>
      <trkpt lat="37.9888025299" lon="-2.7495733649">
        <ele>1708.88</ele>
        <time>2017-10-09T10:09:40Z</time>
      </trkpt>
      <trkpt lat="37.9889430944" lon="-2.7494938206">
        <ele>1710.32</ele>
        <time>2017-10-09T10:09:57Z</time>
      </trkpt>
      <trkpt lat="37.9890570045" lon="-2.7494556829">
        <ele>1711.76</ele>
        <time>2017-10-09T10:10:10Z</time>
      </trkpt>
      <trkpt lat="37.9891942162" lon="-2.7493811678">
        <ele>1713.69</ele>
        <time>2017-10-09T10:10:25Z</time>
      </trkpt>
      <trkpt lat="37.9893346131" lon="-2.7493020426">
        <ele>1715.13</ele>
        <time>2017-10-09T10:10:40Z</time>
      </trkpt>
      <trkpt lat="37.9893989861" lon="-2.7492700238">
        <ele>1715.61</ele>
        <time>2017-10-09T10:10:47Z</time>
      </trkpt>
      <trkpt lat="37.9894091282" lon="-2.7492691856">
        <ele>1716.09</ele>
        <time>2017-10-09T10:10:48Z</time>
      </trkpt>
      <trkpt lat="37.9894514568" lon="-2.7492452133">
        <ele>1716.57</ele>
        <time>2017-10-09T10:10:53Z</time>
      </trkpt>
      <trkpt lat="37.9894605093" lon="-2.7492365800">
        <ele>1716.57</ele>
        <time>2017-10-09T10:10:54Z</time>
      </trkpt>
      <trkpt lat="37.9895384610" lon="-2.7490921598">
        <ele>1717.53</ele>
        <time>2017-10-09T10:11:06Z</time>
      </trkpt>
      <trkpt lat="37.9896237887" lon="-2.7489077579">
        <ele>1718.49</ele>
        <time>2017-10-09T10:11:20Z</time>
      </trkpt>
      <trkpt lat="37.9897646047" lon="-2.7488177363">
        <ele>1719.94</ele>
        <time>2017-10-09T10:11:33Z</time>
      </trkpt>
      <trkpt lat="37.9899468273" lon="-2.7487150580">
        <ele>1721.38</ele>
        <time>2017-10-09T10:11:49Z</time>
      </trkpt>
      <trkpt lat="37.9901419580" lon="-2.7486733161">
        <ele>1722.82</ele>
        <time>2017-10-09T10:12:05Z</time>
      </trkpt>
      <trkpt lat="37.9903334845" lon="-2.7486920916">
        <ele>1724.74</ele>
        <time>2017-10-09T10:12:20Z</time>
      </trkpt>
      <trkpt lat="37.9905054811" lon="-2.7487616614">
        <ele>1726.18</ele>
        <time>2017-10-09T10:12:34Z</time>
      </trkpt>
      <trkpt lat="37.9906608816" lon="-2.7488303930">
        <ele>1727.15</ele>
        <time>2017-10-09T10:12:47Z</time>
      </trkpt>
      <trkpt lat="37.9907550942" lon="-2.7488576341">
        <ele>1727.15</ele>
        <time>2017-10-09T10:12:58Z</time>
      </trkpt>
      <trkpt lat="37.9907529987" lon="-2.7488635853">
        <ele>1727.15</ele>
        <time>2017-10-09T10:13:28Z</time>
      </trkpt>
      <trkpt lat="37.9907535017" lon="-2.7488644235">
        <ele>1727.15</ele>
        <time>2017-10-09T10:14:06Z</time>
      </trkpt>
      <trkpt lat="37.9907515738" lon="-2.7488639206">
        <ele>1727.15</ele>
        <time>2017-10-09T10:14:44Z</time>
      </trkpt>
      <trkpt lat="37.9907446168" lon="-2.7488525212">
        <ele>1728.11</ele>
        <time>2017-10-09T10:15:11Z</time>
      </trkpt>
      <trkpt lat="37.9907464609" lon="-2.7488598134">
        <ele>1728.11</ele>
        <time>2017-10-09T10:15:27Z</time>
      </trkpt>
      <trkpt lat="37.9907491431" lon="-2.7488593943">
        <ele>1728.11</ele>
        <time>2017-10-09T10:15:52Z</time>
      </trkpt>
      <trkpt lat="37.9907465447" lon="-2.7488583885">
        <ele>1728.11</ele>
        <time>2017-10-09T10:16:22Z</time>
      </trkpt>
      <trkpt lat="37.9907454550" lon="-2.7488652617">
        <ele>1728.59</ele>
        <time>2017-10-09T10:16:47Z</time>
      </trkpt>
      <trkpt lat="37.9907442816" lon="-2.7488643397">
        <ele>1728.59</ele>
        <time>2017-10-09T10:17:12Z</time>
      </trkpt>
      <trkpt lat="37.9907460418" lon="-2.7488636691">
        <ele>1728.59</ele>
        <time>2017-10-09T10:17:35Z</time>
      </trkpt>
      <trkpt lat="37.9907476343" lon="-2.7488627471">
        <ele>1728.59</ele>
        <time>2017-10-09T10:17:59Z</time>
      </trkpt>
      <trkpt lat="37.9907450359" lon="-2.7488655970">
        <ele>1728.11</ele>
        <time>2017-10-09T10:18:28Z</time>
      </trkpt>
      <trkpt lat="37.9907478020" lon="-2.7488655131">
        <ele>1728.59</ele>
        <time>2017-10-09T10:18:53Z</time>
      </trkpt>
      <trkpt lat="37.9907546751" lon="-2.7488805167">
        <ele>1728.11</ele>
        <time>2017-10-09T10:19:01Z</time>
      </trkpt>
      <trkpt lat="37.9907543398" lon="-2.7488810197">
        <ele>1728.11</ele>
        <time>2017-10-09T10:19:04Z</time>
      </trkpt>
      <trkpt lat="37.9907641467" lon="-2.7488921676">
        <ele>1728.11</ele>
        <time>2017-10-09T10:19:05Z</time>
      </trkpt>
      <trkpt lat="37.9907781444" lon="-2.7489011362">
        <ele>1728.11</ele>
        <time>2017-10-09T10:19:06Z</time>
      </trkpt>
      <trkpt lat="37.9907942377" lon="-2.7489089314">
        <ele>1728.11</ele>
        <time>2017-10-09T10:19:07Z</time>
      </trkpt>
      <trkpt lat="37.9908081517" lon="-2.7489186544">
        <ele>1728.11</ele>
        <time>2017-10-09T10:19:08Z</time>
      </trkpt>
      <trkpt lat="37.9908195511" lon="-2.7489291318">
        <ele>1728.11</ele>
        <time>2017-10-09T10:19:09Z</time>
      </trkpt>
      <trkpt lat="37.9908322077" lon="-2.7489436325">
        <ele>1728.11</ele>
        <time>2017-10-09T10:19:10Z</time>
      </trkpt>
      <trkpt lat="37.9908479657" lon="-2.7489603963">
        <ele>1727.63</ele>
        <time>2017-10-09T10:19:11Z</time>
      </trkpt>
      <trkpt lat="37.9908695910" lon="-2.7489783335">
        <ele>1727.63</ele>
        <time>2017-10-09T10:19:12Z</time>
      </trkpt>
      <trkpt lat="37.9908938147" lon="-2.7489953488">
        <ele>1727.63</ele>
        <time>2017-10-09T10:19:13Z</time>
      </trkpt>
      <trkpt lat="37.9909177031" lon="-2.7490086760">
        <ele>1727.63</ele>
        <time>2017-10-09T10:19:14Z</time>
      </trkpt>
      <trkpt lat="37.9909384064" lon="-2.7490166388">
        <ele>1727.63</ele>
        <time>2017-10-09T10:19:15Z</time>
      </trkpt>
      <trkpt lat="37.9911995027" lon="-2.7490420360">
        <ele>1727.63</ele>
        <time>2017-10-09T10:19:26Z</time>
      </trkpt>
      <trkpt lat="37.9914127383" lon="-2.7491651662">
        <ele>1727.63</ele>
        <time>2017-10-09T10:19:35Z</time>
      </trkpt>
      <trkpt lat="37.9914748482" lon="-2.7492250968">
        <ele>1728.11</ele>
        <time>2017-10-09T10:19:39Z</time>
      </trkpt>
      <trkpt lat="37.9914897680" lon="-2.7492282819">
        <ele>1728.59</ele>
        <time>2017-10-09T10:19:40Z</time>
      </trkpt>
      <trkpt lat="37.9916776065" lon="-2.7492827643">
        <ele>1727.15</ele>
        <time>2017-10-09T10:19:49Z</time>
      </trkpt>
      <trkpt lat="37.9919066001" lon="-2.7493685950">
        <ele>1725.22</ele>
        <time>2017-10-09T10:19:57Z</time>
      </trkpt>
      <trkpt lat="37.9920697119" lon="-2.7491807565">
        <ele>1724.74</ele>
        <time>2017-10-09T10:20:03Z</time>
      </trkpt>
      <trkpt lat="37.9923325684" lon="-2.7489729691">
        <ele>1723.30</ele>
        <time>2017-10-09T10:20:11Z</time>
      </trkpt>
      <trkpt lat="37.9924124479" lon="-2.7489438839">
        <ele>1721.86</ele>
        <time>2017-10-09T10:20:13Z</time>
      </trkpt>
      <trkpt lat="37.9924581293" lon="-2.7489380166">
        <ele>1721.38</ele>
        <time>2017-10-09T10:20:14Z</time>
      </trkpt>
      <trkpt lat="37.9925027210" lon="-2.7489373460">
        <ele>1720.90</ele>
        <time>2017-10-09T10:20:15Z</time>
      </trkpt>
      <trkpt lat="37.9925437085" lon="-2.7489414532">
        <ele>1720.42</ele>
        <time>2017-10-09T10:20:16Z</time>
      </trkpt>
      <trkpt lat="37.9925847799" lon="-2.7489543613">
        <ele>1719.94</ele>
        <time>2017-10-09T10:20:17Z</time>
      </trkpt>
      <trkpt lat="37.9926287010" lon="-2.7489733044">
        <ele>1719.94</ele>
        <time>2017-10-09T10:20:18Z</time>
      </trkpt>
      <trkpt lat="37.9926710296" lon="-2.7490001265">
        <ele>1718.97</ele>
        <time>2017-10-09T10:20:19Z</time>
      </trkpt>
      <trkpt lat="37.9927146155" lon="-2.7490280382">
        <ele>1718.49</ele>
        <time>2017-10-09T10:20:20Z</time>
      </trkpt>
      <trkpt lat="37.9927638173" lon="-2.7490497474">
        <ele>1718.49</ele>
        <time>2017-10-09T10:20:21Z</time>
      </trkpt>
      <trkpt lat="37.9928141087" lon="-2.7490636613">
        <ele>1718.01</ele>
        <time>2017-10-09T10:20:22Z</time>
      </trkpt>
      <trkpt lat="37.9928649031" lon="-2.7490670141">
        <ele>1718.01</ele>
        <time>2017-10-09T10:20:23Z</time>
      </trkpt>
      <trkpt lat="37.9929174576" lon="-2.7490593027">
        <ele>1717.53</ele>
        <time>2017-10-09T10:20:24Z</time>
      </trkpt>
      <trkpt lat="37.9929720238" lon="-2.7490379289">
        <ele>1717.53</ele>
        <time>2017-10-09T10:20:25Z</time>
      </trkpt>
      <trkpt lat="37.9930260871" lon="-2.7490075864">
        <ele>1717.05</ele>
        <time>2017-10-09T10:20:26Z</time>
      </trkpt>
      <trkpt lat="37.9931699205" lon="-2.7489309758">
        <ele>1716.57</ele>
        <time>2017-10-09T10:20:29Z</time>
      </trkpt>
      <trkpt lat="37.9932118300" lon="-2.7489165589">
        <ele>1716.09</ele>
        <time>2017-10-09T10:20:30Z</time>
      </trkpt>
      <trkpt lat="37.9932498001" lon="-2.7489106916">
        <ele>1716.09</ele>
        <time>2017-10-09T10:20:31Z</time>
      </trkpt>
      <trkpt lat="37.9932882730" lon="-2.7489148825">
        <ele>1715.61</ele>
        <time>2017-10-09T10:20:32Z</time>
      </trkpt>
      <trkpt lat="37.9933297634" lon="-2.7489251923">
        <ele>1715.61</ele>
        <time>2017-10-09T10:20:33Z</time>
      </trkpt>
      <trkpt lat="37.9933735169" lon="-2.7489360049">
        <ele>1715.13</ele>
        <time>2017-10-09T10:20:34Z</time>
      </trkpt>
      <trkpt lat="37.9934176896" lon="-2.7489337418">
        <ele>1715.13</ele>
        <time>2017-10-09T10:20:35Z</time>
      </trkpt>
      <trkpt lat="37.9934616946" lon="-2.7489188220">
        <ele>1714.65</ele>
        <time>2017-10-09T10:20:36Z</time>
      </trkpt>
      <trkpt lat="37.9935074598" lon="-2.7489044052">
        <ele>1714.65</ele>
        <time>2017-10-09T10:20:37Z</time>
      </trkpt>
      <trkpt lat="37.9935489502" lon="-2.7488968614">
        <ele>1714.65</ele>
        <time>2017-10-09T10:20:38Z</time>
      </trkpt>
      <trkpt lat="37.9935854115" lon="-2.7488892339">
        <ele>1714.65</ele>
        <time>2017-10-09T10:20:39Z</time>
      </trkpt>
      <trkpt lat="37.9936192743" lon="-2.7488748170">
        <ele>1714.65</ele>
        <time>2017-10-09T10:20:40Z</time>
      </trkpt>
      <trkpt lat="37.9936507065" lon="-2.7488535270">
        <ele>1714.65</ele>
        <time>2017-10-09T10:20:41Z</time>
      </trkpt>
      <trkpt lat="37.9936817195" lon="-2.7488298900">
        <ele>1714.17</ele>
        <time>2017-10-09T10:20:42Z</time>
      </trkpt>
      <trkpt lat="37.9939529579" lon="-2.7488502581">
        <ele>1713.21</ele>
        <time>2017-10-09T10:20:50Z</time>
      </trkpt>
      <trkpt lat="37.9939904250" lon="-2.7488653455">
        <ele>1712.73</ele>
        <time>2017-10-09T10:20:51Z</time>
      </trkpt>
      <trkpt lat="37.9940767586" lon="-2.7488818578">
        <ele>1711.76</ele>
        <time>2017-10-09T10:20:53Z</time>
      </trkpt>
      <trkpt lat="37.9941247031" lon="-2.7488821093">
        <ele>1711.28</ele>
        <time>2017-10-09T10:20:54Z</time>
      </trkpt>
      <trkpt lat="37.9941703007" lon="-2.7488681115">
        <ele>1711.28</ele>
        <time>2017-10-09T10:20:55Z</time>
      </trkpt>
      <trkpt lat="37.9942079354" lon="-2.7488372661">
        <ele>1711.76</ele>
        <time>2017-10-09T10:20:56Z</time>
      </trkpt>
      <trkpt lat="37.9942370206" lon="-2.7487983741">
        <ele>1711.76</ele>
        <time>2017-10-09T10:20:57Z</time>
      </trkpt>
      <trkpt lat="37.9942604061" lon="-2.7487583924">
        <ele>1711.76</ele>
        <time>2017-10-09T10:20:58Z</time>
      </trkpt>
      <trkpt lat="37.9942821153" lon="-2.7487195842">
        <ele>1712.25</ele>
        <time>2017-10-09T10:20:59Z</time>
      </trkpt>
      <trkpt lat="37.9943027347" lon="-2.7486804407">
        <ele>1712.25</ele>
        <time>2017-10-09T10:21:00Z</time>
      </trkpt>
      <trkpt lat="37.9943250306" lon="-2.7486463264">
        <ele>1712.25</ele>
        <time>2017-10-09T10:21:01Z</time>
      </trkpt>
      <trkpt lat="37.9943531938" lon="-2.7486204263">
        <ele>1712.25</ele>
        <time>2017-10-09T10:21:02Z</time>
      </trkpt>
      <trkpt lat="37.9943860509" lon="-2.7486006450">
        <ele>1712.25</ele>
        <time>2017-10-09T10:21:03Z</time>
      </trkpt>
      <trkpt lat="37.9944190755" lon="-2.7485886589">
        <ele>1712.25</ele>
        <time>2017-10-09T10:21:04Z</time>
      </trkpt>
      <trkpt lat="37.9944522679" lon="-2.7485817019">
        <ele>1712.25</ele>
        <time>2017-10-09T10:21:05Z</time>
      </trkpt>
      <trkpt lat="37.9944852088" lon="-2.7485753316">
        <ele>1712.25</ele>
        <time>2017-10-09T10:21:06Z</time>
      </trkpt>
      <trkpt lat="37.9948514141" lon="-2.7484402154">
        <ele>1711.76</ele>
        <time>2017-10-09T10:21:17Z</time>
      </trkpt>
      <trkpt lat="37.9950849339" lon="-2.7482948732">
        <ele>1712.25</ele>
        <time>2017-10-09T10:21:26Z</time>
      </trkpt>
      <trkpt lat="37.9953625426" lon="-2.7481780294">
        <ele>1712.25</ele>
        <time>2017-10-09T10:21:36Z</time>
      </trkpt>
      <trkpt lat="37.9957243893" lon="-2.7480014227">
        <ele>1710.32</ele>
        <time>2017-10-09T10:21:46Z</time>
      </trkpt>
      <trkpt lat="37.9957682267" lon="-2.7480004169">
        <ele>1710.32</ele>
        <time>2017-10-09T10:21:47Z</time>
      </trkpt>
      <trkpt lat="37.9959486891" lon="-2.7480398118">
        <ele>1709.36</ele>
        <time>2017-10-09T10:21:51Z</time>
      </trkpt>
      <trkpt lat="37.9960351903" lon="-2.7480803803">
        <ele>1709.36</ele>
        <time>2017-10-09T10:21:53Z</time>
      </trkpt>
      <trkpt lat="37.9960809555" lon="-2.7480930369">
        <ele>1708.88</ele>
        <time>2017-10-09T10:21:54Z</time>
      </trkpt>
      <trkpt lat="37.9961267207" lon="-2.7480927855">
        <ele>1708.88</ele>
        <time>2017-10-09T10:21:55Z</time>
      </trkpt>
      <trkpt lat="37.9962612502" lon="-2.7480681427">
        <ele>1708.88</ele>
        <time>2017-10-09T10:21:58Z</time>
      </trkpt>
      <trkpt lat="37.9963045008" lon="-2.7480517142">
        <ele>1709.36</ele>
        <time>2017-10-09T10:21:59Z</time>
      </trkpt>
      <trkpt lat="37.9963454884" lon="-2.7480297536">
        <ele>1708.88</ele>
        <time>2017-10-09T10:22:00Z</time>
      </trkpt>
      <trkpt lat="37.9963823687" lon="-2.7480002493">
        <ele>1709.36</ele>
        <time>2017-10-09T10:22:01Z</time>
      </trkpt>
      <trkpt lat="37.9964117892" lon="-2.7479622792">
        <ele>1709.36</ele>
        <time>2017-10-09T10:22:02Z</time>
      </trkpt>
      <trkpt lat="37.9964336660" lon="-2.7479168493">
        <ele>1709.36</ele>
        <time>2017-10-09T10:22:03Z</time>
      </trkpt>
      <trkpt lat="37.9964498430" lon="-2.7478665579">
        <ele>1709.36</ele>
        <time>2017-10-09T10:22:04Z</time>
      </trkpt>
      <trkpt lat="37.9964610748" lon="-2.7478085551">
        <ele>1708.88</ele>
        <time>2017-10-09T10:22:05Z</time>
      </trkpt>
      <trkpt lat="37.9964651819" lon="-2.7477453556">
        <ele>1708.40</ele>
        <time>2017-10-09T10:22:06Z</time>
      </trkpt>
      <trkpt lat="37.9964665230" lon="-2.7476876043">
        <ele>1708.40</ele>
        <time>2017-10-09T10:22:07Z</time>
      </trkpt>
      <trkpt lat="37.9964769166" lon="-2.7476406656">
        <ele>1708.40</ele>
        <time>2017-10-09T10:22:08Z</time>
      </trkpt>
      <trkpt lat="37.9964945186" lon="-2.7475974150">
        <ele>1708.88</ele>
        <time>2017-10-09T10:22:09Z</time>
      </trkpt>
      <trkpt lat="37.9965147190" lon="-2.7475627977">
        <ele>1708.88</ele>
        <time>2017-10-09T10:22:10Z</time>
      </trkpt>
      <trkpt lat="37.9965385236" lon="-2.7475359756">
        <ele>1708.88</ele>
        <time>2017-10-09T10:22:11Z</time>
      </trkpt>
      <trkpt lat="37.9965619091" lon="-2.7475126740">
        <ele>1708.88</ele>
        <time>2017-10-09T10:22:12Z</time>
      </trkpt>
      <trkpt lat="37.9967976082" lon="-2.7473905496">
        <ele>1709.84</ele>
        <time>2017-10-09T10:22:21Z</time>
      </trkpt>
      <trkpt lat="37.9972036276" lon="-2.7473149449">
        <ele>1709.84</ele>
        <time>2017-10-09T10:22:34Z</time>
      </trkpt>
      <trkpt lat="37.9973130114" lon="-2.7473127656">
        <ele>1709.36</ele>
        <time>2017-10-09T10:22:37Z</time>
      </trkpt>
      <trkpt lat="37.9973537475" lon="-2.7473116759">
        <ele>1709.36</ele>
        <time>2017-10-09T10:22:38Z</time>
      </trkpt>
      <trkpt lat="37.9973985069" lon="-2.7473079879">
        <ele>1708.88</ele>
        <time>2017-10-09T10:22:39Z</time>
      </trkpt>
      <trkpt lat="37.9974947311" lon="-2.7472884580">
        <ele>1708.40</ele>
        <time>2017-10-09T10:22:41Z</time>
      </trkpt>
      <trkpt lat="37.9978970625" lon="-2.7471016254">
        <ele>1707.92</ele>
        <time>2017-10-09T10:22:51Z</time>
      </trkpt>
      <trkpt lat="37.9982098751" lon="-2.7469428722">
        <ele>1709.36</ele>
        <time>2017-10-09T10:23:01Z</time>
      </trkpt>
      <trkpt lat="37.9983495176" lon="-2.7467405330">
        <ele>1708.40</ele>
        <time>2017-10-09T10:23:08Z</time>
      </trkpt>
      <trkpt lat="37.9983853083" lon="-2.7466979530">
        <ele>1708.40</ele>
        <time>2017-10-09T10:23:09Z</time>
      </trkpt>
      <trkpt lat="37.9984247871" lon="-2.7466594800">
        <ele>1707.44</ele>
        <time>2017-10-09T10:23:10Z</time>
      </trkpt>
      <trkpt lat="37.9984596558" lon="-2.7466358431">
        <ele>1707.92</ele>
        <time>2017-10-09T10:23:11Z</time>
      </trkpt>
      <trkpt lat="37.9984886572" lon="-2.7466251981">
        <ele>1707.92</ele>
        <time>2017-10-09T10:23:12Z</time>
      </trkpt>
      <trkpt lat="37.9985158145" lon="-2.7466188278">
        <ele>1708.40</ele>
        <time>2017-10-09T10:23:13Z</time>
      </trkpt>
      <trkpt lat="37.9985460732" lon="-2.7466156427">
        <ele>1708.40</ele>
        <time>2017-10-09T10:23:14Z</time>
      </trkpt>
      <trkpt lat="37.9987741448" lon="-2.7467183210">
        <ele>1707.92</ele>
        <time>2017-10-09T10:23:22Z</time>
      </trkpt>
      <trkpt lat="37.9988121986" lon="-2.7467371803">
        <ele>1707.44</ele>
        <time>2017-10-09T10:23:23Z</time>
      </trkpt>
      <trkpt lat="37.9988540243" lon="-2.7467479929">
        <ele>1706.96</ele>
        <time>2017-10-09T10:23:24Z</time>
      </trkpt>
      <trkpt lat="37.9989023879" lon="-2.7467452269">
        <ele>1706.48</ele>
        <time>2017-10-09T10:23:25Z</time>
      </trkpt>
      <trkpt lat="37.9989541881" lon="-2.7467283793">
        <ele>1706.00</ele>
        <time>2017-10-09T10:23:26Z</time>
      </trkpt>
      <trkpt lat="37.9990048986" lon="-2.7467018086">
        <ele>1706.00</ele>
        <time>2017-10-09T10:23:27Z</time>
      </trkpt>
      <trkpt lat="37.9990545195" lon="-2.7466652635">
        <ele>1705.52</ele>
        <time>2017-10-09T10:23:28Z</time>
      </trkpt>
      <trkpt lat="37.9991039727" lon="-2.7466210071">
        <ele>1705.04</ele>
        <time>2017-10-09T10:23:29Z</time>
      </trkpt>
      <trkpt lat="37.9991592094" lon="-2.7465774212">
        <ele>1704.07</ele>
        <time>2017-10-09T10:23:30Z</time>
      </trkpt>
      <trkpt lat="37.9992209841" lon="-2.7465391997">
        <ele>1703.59</ele>
        <time>2017-10-09T10:23:31Z</time>
      </trkpt>
      <trkpt lat="37.9992845189" lon="-2.7465050854">
        <ele>1702.63</ele>
        <time>2017-10-09T10:23:32Z</time>
      </trkpt>
      <trkpt lat="37.9993481375" lon="-2.7464692108">
        <ele>1702.63</ele>
        <time>2017-10-09T10:23:33Z</time>
      </trkpt>
      <trkpt lat="37.9994053021" lon="-2.7464265469">
        <ele>1702.15</ele>
        <time>2017-10-09T10:23:34Z</time>
      </trkpt>
      <trkpt lat="37.9994568508" lon="-2.7463825420">
        <ele>1702.63</ele>
        <time>2017-10-09T10:23:35Z</time>
      </trkpt>
      <trkpt lat="37.9997202102" lon="-2.7461772691">
        <ele>1702.63</ele>
        <time>2017-10-09T10:23:41Z</time>
      </trkpt>
      <trkpt lat="37.9997570906" lon="-2.7461769339">
        <ele>1702.63</ele>
        <time>2017-10-09T10:23:42Z</time>
      </trkpt>
      <trkpt lat="37.9997868463" lon="-2.7461895905">
        <ele>1703.11</ele>
        <time>2017-10-09T10:23:43Z</time>
      </trkpt>
      <trkpt lat="37.9998085555" lon="-2.7462126408">
        <ele>1703.11</ele>
        <time>2017-10-09T10:23:44Z</time>
      </trkpt>
      <trkpt lat="37.9998193681" lon="-2.7462442406">
        <ele>1703.59</ele>
        <time>2017-10-09T10:23:45Z</time>
      </trkpt>
      <trkpt lat="37.9998195358" lon="-2.7462777682">
        <ele>1703.59</ele>
        <time>2017-10-09T10:23:46Z</time>
      </trkpt>
      <trkpt lat="37.9998114891" lon="-2.7463133913">
        <ele>1703.59</ele>
        <time>2017-10-09T10:23:47Z</time>
      </trkpt>
      <trkpt lat="37.9997974914" lon="-2.7463511936">
        <ele>1703.59</ele>
        <time>2017-10-09T10:23:48Z</time>
      </trkpt>
      <trkpt lat="37.9997808952" lon="-2.7463910915">
        <ele>1703.59</ele>
        <time>2017-10-09T10:23:49Z</time>
      </trkpt>
      <trkpt lat="37.9997642990" lon="-2.7464329172">
        <ele>1703.59</ele>
        <time>2017-10-09T10:23:50Z</time>
      </trkpt>
      <trkpt lat="37.9996271711" lon="-2.7469108533">
        <ele>1703.59</ele>
        <time>2017-10-09T10:24:00Z</time>
      </trkpt>
      <trkpt lat="37.9995210562" lon="-2.7472214028">
        <ele>1703.11</ele>
        <time>2017-10-09T10:24:07Z</time>
      </trkpt>
      <trkpt lat="37.9994818289" lon="-2.7474047989">
        <ele>1704.07</ele>
        <time>2017-10-09T10:24:14Z</time>
      </trkpt>
      <trkpt lat="37.9994624667" lon="-2.7474840079">
        <ele>1705.04</ele>
        <time>2017-10-09T10:24:23Z</time>
      </trkpt>
      <trkpt lat="37.9994262569" lon="-2.7476404142">
        <ele>1706.96</ele>
        <time>2017-10-09T10:24:37Z</time>
      </trkpt>
      <trkpt lat="37.9993900470" lon="-2.7477764525">
        <ele>1709.84</ele>
        <time>2017-10-09T10:24:52Z</time>
      </trkpt>
      <trkpt lat="37.9993937351" lon="-2.7479461022">
        <ele>1710.32</ele>
        <time>2017-10-09T10:25:05Z</time>
      </trkpt>
      <trkpt lat="37.9993994348" lon="-2.7479555737">
        <ele>1710.80</ele>
        <time>2017-10-09T10:25:15Z</time>
      </trkpt>
      <trkpt lat="37.9993971717" lon="-2.7479582559">
        <ele>1710.32</ele>
        <time>2017-10-09T10:25:37Z</time>
      </trkpt>
      <trkpt lat="37.9993963335" lon="-2.7479477786">
        <ele>1710.80</ele>
        <time>2017-10-09T10:26:02Z</time>
      </trkpt>
      <trkpt lat="37.9993940704" lon="-2.7479481976">
        <ele>1711.28</ele>
        <time>2017-10-09T10:26:22Z</time>
      </trkpt>
      <trkpt lat="37.9993912205" lon="-2.7479502931">
        <ele>1711.28</ele>
        <time>2017-10-09T10:26:42Z</time>
      </trkpt>
      <trkpt lat="37.9993884545" lon="-2.7479531430">
        <ele>1710.80</ele>
        <time>2017-10-09T10:26:58Z</time>
      </trkpt>
      <trkpt lat="37.9994515702" lon="-2.7479062043">
        <ele>1710.80</ele>
        <time>2017-10-09T10:50:08Z</time>
      </trkpt>
      <trkpt lat="37.9994191322" lon="-2.7478923742">
        <ele>1710.32</ele>
        <time>2017-10-09T10:50:09Z</time>
      </trkpt>
      <trkpt lat="37.9993721936" lon="-2.7478622831">
        <ele>1713.69</ele>
        <time>2017-10-09T10:50:20Z</time>
      </trkpt>
      <trkpt lat="37.9993879516" lon="-2.7478718385">
        <ele>1709.36</ele>
        <time>2017-10-09T10:50:36Z</time>
      </trkpt>
      <trkpt lat="37.9993881192" lon="-2.7478692401">
        <ele>1717.05</ele>
        <time>2017-10-09T10:50:37Z</time>
      </trkpt>
      <trkpt lat="37.9993882868" lon="-2.7478692401">
        <ele>1713.21</ele>
        <time>2017-10-09T10:50:38Z</time>
      </trkpt>
      <trkpt lat="37.9993897118" lon="-2.7478181105">
        <ele>1713.21</ele>
        <time>2017-10-09T10:50:54Z</time>
      </trkpt>
      <trkpt lat="37.9993888736" lon="-2.7478237264">
        <ele>1713.69</ele>
        <time>2017-10-09T10:51:07Z</time>
      </trkpt>
      <trkpt lat="37.9994080681" lon="-2.7476767916">
        <ele>1711.28</ele>
        <time>2017-10-09T10:51:20Z</time>
      </trkpt>
      <trkpt lat="37.9994125105" lon="-2.7476356365">
        <ele>1709.84</ele>
        <time>2017-10-09T10:51:32Z</time>
      </trkpt>
      <trkpt lat="37.9994284362" lon="-2.7476246562">
        <ele>1709.36</ele>
        <time>2017-10-09T10:51:45Z</time>
      </trkpt>
      <trkpt lat="37.9994186293" lon="-2.7476215549">
        <ele>1709.36</ele>
        <time>2017-10-09T10:52:03Z</time>
      </trkpt>
      <trkpt lat="37.9994222336" lon="-2.7476210520">
        <ele>1709.36</ele>
        <time>2017-10-09T10:52:24Z</time>
      </trkpt>
      <trkpt lat="37.9994281009" lon="-2.7476145141">
        <ele>1709.36</ele>
        <time>2017-10-09T10:52:49Z</time>
      </trkpt>
      <trkpt lat="37.9994275142" lon="-2.7476115804">
        <ele>1709.36</ele>
        <time>2017-10-09T10:53:02Z</time>
      </trkpt>
      <trkpt lat="37.9994592816" lon="-2.7474959940">
        <ele>1708.40</ele>
        <time>2017-10-09T10:53:06Z</time>
      </trkpt>
      <trkpt lat="37.9994706810" lon="-2.7474446967">
        <ele>1707.92</ele>
        <time>2017-10-09T10:53:07Z</time>
      </trkpt>
      <trkpt lat="37.9994823318" lon="-2.7473859396">
        <ele>1707.92</ele>
        <time>2017-10-09T10:53:08Z</time>
      </trkpt>
      <trkpt lat="37.9995267559" lon="-2.7471808344">
        <ele>1706.00</ele>
        <time>2017-10-09T10:53:11Z</time>
      </trkpt>
      <trkpt lat="37.9995508119" lon="-2.7471150365">
        <ele>1705.52</ele>
        <time>2017-10-09T10:53:12Z</time>
      </trkpt>
      <trkpt lat="37.9996145982" lon="-2.7469328977">
        <ele>1705.52</ele>
        <time>2017-10-09T10:53:15Z</time>
      </trkpt>
      <trkpt lat="37.9997281730" lon="-2.7465173230">
        <ele>1706.00</ele>
        <time>2017-10-09T10:53:24Z</time>
      </trkpt>
      <trkpt lat="37.9998560809" lon="-2.7461966313">
        <ele>1706.48</ele>
        <time>2017-10-09T10:53:35Z</time>
      </trkpt>
      <trkpt lat="37.9999789596" lon="-2.7459779475">
        <ele>1706.96</ele>
        <time>2017-10-09T10:53:44Z</time>
      </trkpt>
      <trkpt lat="38.0001165066" lon="-2.7457894385">
        <ele>1707.92</ele>
        <time>2017-10-09T10:53:53Z</time>
      </trkpt>
      <trkpt lat="38.0002605077" lon="-2.7456096467">
        <ele>1711.76</ele>
        <time>2017-10-09T10:54:01Z</time>
      </trkpt>
      <trkpt lat="38.0002800375" lon="-2.7455860935">
        <ele>1707.92</ele>
        <time>2017-10-09T10:54:02Z</time>
      </trkpt>
      <trkpt lat="38.0004441552" lon="-2.7453503106">
        <ele>1707.44</ele>
        <time>2017-10-09T10:54:12Z</time>
      </trkpt>
      <trkpt lat="38.0005066004" lon="-2.7452533320">
        <ele>1708.40</ele>
        <time>2017-10-09T10:54:16Z</time>
      </trkpt>
      <trkpt lat="38.0005230289" lon="-2.7452321257">
        <ele>1704.55</ele>
        <time>2017-10-09T10:54:17Z</time>
      </trkpt>
      <trkpt lat="38.0005402118" lon="-2.7452131826">
        <ele>1710.80</ele>
        <time>2017-10-09T10:54:18Z</time>
      </trkpt>
      <trkpt lat="38.0005572271" lon="-2.7451941557">
        <ele>1707.92</ele>
        <time>2017-10-09T10:54:19Z</time>
      </trkpt>
      <trkpt lat="38.0007435568" lon="-2.7449784055">
        <ele>1708.40</ele>
        <time>2017-10-09T10:54:29Z</time>
      </trkpt>
      <trkpt lat="38.0009860452" lon="-2.7448076662">
        <ele>1708.88</ele>
        <time>2017-10-09T10:54:40Z</time>
      </trkpt>
      <trkpt lat="38.0014076550" lon="-2.7445457317">
        <ele>1707.92</ele>
        <time>2017-10-09T10:54:55Z</time>
      </trkpt>
      <trkpt lat="38.0016948190" lon="-2.7443711367">
        <ele>1708.40</ele>
        <time>2017-10-09T10:55:08Z</time>
      </trkpt>
      <trkpt lat="38.0019021872" lon="-2.7441189252">
        <ele>1708.40</ele>
        <time>2017-10-09T10:55:19Z</time>
      </trkpt>
      <trkpt lat="38.0021654628" lon="-2.7438413166">
        <ele>1707.92</ele>
        <time>2017-10-09T10:55:31Z</time>
      </trkpt>
      <trkpt lat="38.0024025030" lon="-2.7436216269">
        <ele>1708.88</ele>
        <time>2017-10-09T10:55:41Z</time>
      </trkpt>
      <trkpt lat="38.0025896709" lon="-2.7434378117">
        <ele>1710.32</ele>
        <time>2017-10-09T10:55:51Z</time>
      </trkpt>
      <trkpt lat="38.0027029943" lon="-2.7433404140">
        <ele>1714.17</ele>
        <time>2017-10-09T10:55:57Z</time>
      </trkpt>
      <trkpt lat="38.0027249549" lon="-2.7433276735">
        <ele>1708.40</ele>
        <time>2017-10-09T10:55:58Z</time>
      </trkpt>
      <trkpt lat="38.0027438141" lon="-2.7433160227">
        <ele>1715.13</ele>
        <time>2017-10-09T10:55:59Z</time>
      </trkpt>
      <trkpt lat="38.0027658585" lon="-2.7433054615">
        <ele>1710.32</ele>
        <time>2017-10-09T10:56:00Z</time>
      </trkpt>
      <trkpt lat="38.0030194949" lon="-2.7431921382">
        <ele>1710.32</ele>
        <time>2017-10-09T10:56:11Z</time>
      </trkpt>
      <trkpt lat="38.0033172201" lon="-2.7430969197">
        <ele>1710.32</ele>
        <time>2017-10-09T10:56:23Z</time>
      </trkpt>
      <trkpt lat="38.0035980977" lon="-2.7429483086">
        <ele>1711.28</ele>
        <time>2017-10-09T10:56:36Z</time>
      </trkpt>
      <trkpt lat="38.0038363114" lon="-2.7427675948">
        <ele>1711.76</ele>
        <time>2017-10-09T10:56:48Z</time>
      </trkpt>
      <trkpt lat="38.0041054543" lon="-2.7426908165">
        <ele>1711.76</ele>
        <time>2017-10-09T10:57:00Z</time>
      </trkpt>
      <trkpt lat="38.0042347871" lon="-2.7426584624">
        <ele>1711.76</ele>
        <time>2017-10-09T10:57:11Z</time>
      </trkpt>
      <trkpt lat="38.0042315181" lon="-2.7426501643">
        <ele>1712.25</ele>
        <time>2017-10-09T10:57:24Z</time>
      </trkpt>
      <trkpt lat="38.0043209530" lon="-2.7426014654">
        <ele>1711.76</ele>
        <time>2017-10-09T10:57:38Z</time>
      </trkpt>
      <trkpt lat="38.0045406427" lon="-2.7424689475">
        <ele>1712.73</ele>
        <time>2017-10-09T10:57:49Z</time>
      </trkpt>
      <trkpt lat="38.0048149824" lon="-2.7423418779">
        <ele>1713.21</ele>
        <time>2017-10-09T10:58:01Z</time>
      </trkpt>
      <trkpt lat="38.0050977040" lon="-2.7422509342">
        <ele>1713.21</ele>
        <time>2017-10-09T10:58:12Z</time>
      </trkpt>
      <trkpt lat="38.0054470617" lon="-2.7421311568">
        <ele>1714.17</ele>
        <time>2017-10-09T10:58:24Z</time>
      </trkpt>
      <trkpt lat="38.0057271011" lon="-2.7419899218">
        <ele>1714.65</ele>
        <time>2017-10-09T10:58:35Z</time>
      </trkpt>
      <trkpt lat="38.0060671549" lon="-2.7418002393">
        <ele>1715.13</ele>
        <time>2017-10-09T10:58:48Z</time>
      </trkpt>
      <trkpt lat="38.0063551571" lon="-2.7416482754">
        <ele>1716.09</ele>
        <time>2017-10-09T10:58:59Z</time>
      </trkpt>
      <trkpt lat="38.0065093003" lon="-2.7415768616">
        <ele>1716.57</ele>
        <time>2017-10-09T10:59:05Z</time>
      </trkpt>
      <trkpt lat="38.0067615118" lon="-2.7414140850">
        <ele>1717.05</ele>
        <time>2017-10-09T10:59:16Z</time>
      </trkpt>
      <trkpt lat="38.0070479214" lon="-2.7411721833">
        <ele>1718.01</ele>
        <time>2017-10-09T10:59:28Z</time>
      </trkpt>
      <trkpt lat="38.0073281284" lon="-2.7410197165">
        <ele>1718.01</ele>
        <time>2017-10-09T10:59:39Z</time>
      </trkpt>
      <trkpt lat="38.0073542800" lon="-2.7410085686">
        <ele>1721.38</ele>
        <time>2017-10-09T10:59:40Z</time>
      </trkpt>
      <trkpt lat="38.0075898115" lon="-2.7409003582">
        <ele>1720.90</ele>
        <time>2017-10-09T10:59:51Z</time>
      </trkpt>
      <trkpt lat="38.0077931564" lon="-2.7408261783">
        <ele>1722.34</ele>
        <time>2017-10-09T11:00:02Z</time>
      </trkpt>
      <trkpt lat="38.0080417637" lon="-2.7407162916">
        <ele>1722.82</ele>
        <time>2017-10-09T11:00:15Z</time>
      </trkpt>
      <trkpt lat="38.0080680829" lon="-2.7406706940">
        <ele>1722.82</ele>
        <time>2017-10-09T11:00:17Z</time>
      </trkpt>
      <trkpt lat="38.0082616210" lon="-2.7405396849">
        <ele>1723.78</ele>
        <time>2017-10-09T11:00:27Z</time>
      </trkpt>
      <trkpt lat="38.0084730964" lon="-2.7404432930">
        <ele>1724.74</ele>
        <time>2017-10-09T11:00:38Z</time>
      </trkpt>
      <trkpt lat="38.0087123159" lon="-2.7403518464">
        <ele>1726.18</ele>
        <time>2017-10-09T11:00:50Z</time>
      </trkpt>
      <trkpt lat="38.0089999828" lon="-2.7401823644">
        <ele>1727.15</ele>
        <time>2017-10-09T11:01:04Z</time>
      </trkpt>
      <trkpt lat="38.0092837103" lon="-2.7400022373">
        <ele>1728.11</ele>
        <time>2017-10-09T11:01:18Z</time>
      </trkpt>
      <trkpt lat="38.0094935931" lon="-2.7398316655">
        <ele>1728.59</ele>
        <time>2017-10-09T11:01:29Z</time>
      </trkpt>
      <trkpt lat="38.0096467305" lon="-2.7395229600">
        <ele>1728.59</ele>
        <time>2017-10-09T11:01:42Z</time>
      </trkpt>
      <trkpt lat="38.0098301265" lon="-2.7393515501">
        <ele>1730.51</ele>
        <time>2017-10-09T11:01:53Z</time>
      </trkpt>
      <trkpt lat="38.0099804141" lon="-2.7391814813">
        <ele>1732.43</ele>
        <time>2017-10-09T11:02:04Z</time>
      </trkpt>
      <trkpt lat="38.0099849403" lon="-2.7391637955">
        <ele>1732.43</ele>
        <time>2017-10-09T11:02:05Z</time>
      </trkpt>
      <trkpt lat="38.0100798234" lon="-2.7389894519">
        <ele>1733.39</ele>
        <time>2017-10-09T11:02:17Z</time>
      </trkpt>
      <trkpt lat="38.0101796519" lon="-2.7388463728">
        <ele>1732.43</ele>
        <time>2017-10-09T11:02:28Z</time>
      </trkpt>
      <trkpt lat="38.0104251578" lon="-2.7386457939">
        <ele>1731.47</ele>
        <time>2017-10-09T11:02:36Z</time>
      </trkpt>
      <trkpt lat="38.0107028503" lon="-2.7386266831">
        <ele>1731.95</ele>
        <time>2017-10-09T11:02:47Z</time>
      </trkpt>
      <trkpt lat="38.0108763557" lon="-2.7384885494">
        <ele>1730.51</ele>
        <time>2017-10-09T11:02:57Z</time>
      </trkpt>
      <trkpt lat="38.0108940415" lon="-2.7384744678">
        <ele>1734.36</ele>
        <time>2017-10-09T11:02:58Z</time>
      </trkpt>
      <trkpt lat="38.0111765955" lon="-2.7382596396">
        <ele>1733.39</ele>
        <time>2017-10-09T11:03:13Z</time>
      </trkpt>
      <trkpt lat="38.0114091095" lon="-2.7380126249">
        <ele>1733.39</ele>
        <time>2017-10-09T11:03:26Z</time>
      </trkpt>
      <trkpt lat="38.0115980376" lon="-2.7378248703">
        <ele>1735.80</ele>
        <time>2017-10-09T11:03:37Z</time>
      </trkpt>
      <trkpt lat="38.0117450561" lon="-2.7376749180">
        <ele>1737.24</ele>
        <time>2017-10-09T11:03:48Z</time>
      </trkpt>
      <trkpt lat="38.0119313858" lon="-2.7375061065">
        <ele>1738.20</ele>
        <time>2017-10-09T11:04:01Z</time>
      </trkpt>
      <trkpt lat="38.0119455513" lon="-2.7375147399">
        <ele>1738.20</ele>
        <time>2017-10-09T11:04:11Z</time>
      </trkpt>
      <trkpt lat="38.0120331421" lon="-2.7374843135">
        <ele>1738.20</ele>
        <time>2017-10-09T11:04:20Z</time>
      </trkpt>
      <trkpt lat="38.0121943261" lon="-2.7374186832">
        <ele>1738.68</ele>
        <time>2017-10-09T11:04:30Z</time>
      </trkpt>
      <trkpt lat="38.0123550072" lon="-2.7372771129">
        <ele>1738.20</ele>
        <time>2017-10-09T11:04:40Z</time>
      </trkpt>
      <trkpt lat="38.0125053786" lon="-2.7370767854">
        <ele>1739.16</ele>
        <time>2017-10-09T11:04:51Z</time>
      </trkpt>
      <trkpt lat="38.0125717632" lon="-2.7368772961">
        <ele>1740.60</ele>
        <time>2017-10-09T11:05:00Z</time>
      </trkpt>
      <trkpt lat="38.0125607830" lon="-2.7367384918">
        <ele>1739.64</ele>
        <time>2017-10-09T11:05:09Z</time>
      </trkpt>
      <trkpt lat="38.0125612859" lon="-2.7367390785">
        <ele>1739.64</ele>
        <time>2017-10-09T11:05:31Z</time>
      </trkpt>
      <trkpt lat="38.0125653092" lon="-2.7367526572">
        <ele>1739.64</ele>
        <time>2017-10-09T11:05:47Z</time>
      </trkpt>
      <trkpt lat="38.0125675723" lon="-2.7367661521">
        <ele>1740.12</ele>
        <time>2017-10-09T11:05:48Z</time>
      </trkpt>
      <trkpt lat="38.0125690810" lon="-2.7367817424">
        <ele>1740.12</ele>
        <time>2017-10-09T11:05:49Z</time>
      </trkpt>
      <trkpt lat="38.0125829950" lon="-2.7367995121">
        <ele>1740.12</ele>
        <time>2017-10-09T11:06:01Z</time>
      </trkpt>
      <trkpt lat="38.0125819892" lon="-2.7368061338">
        <ele>1743.97</ele>
        <time>2017-10-09T11:06:09Z</time>
      </trkpt>
      <trkpt lat="38.0125829950" lon="-2.7368067205">
        <ele>1741.57</ele>
        <time>2017-10-09T11:06:10Z</time>
      </trkpt>
      <trkpt lat="38.0125833303" lon="-2.7368073910">
        <ele>1739.16</ele>
        <time>2017-10-09T11:06:34Z</time>
      </trkpt>
      <trkpt lat="38.0125817377" lon="-2.7368006017">
        <ele>1740.60</ele>
        <time>2017-10-09T11:06:56Z</time>
      </trkpt>
      <trkpt lat="38.0125764571" lon="-2.7367900405">
        <ele>1739.16</ele>
        <time>2017-10-09T11:07:08Z</time>
      </trkpt>
      <trkpt lat="38.0125760380" lon="-2.7367908787">
        <ele>1742.53</ele>
        <time>2017-10-09T11:07:09Z</time>
      </trkpt>
      <trkpt lat="38.0125744455" lon="-2.7367938962">
        <ele>1739.16</ele>
        <time>2017-10-09T11:07:19Z</time>
      </trkpt>
      <trkpt lat="38.0125753675" lon="-2.7367934771">
        <ele>1742.53</ele>
        <time>2017-10-09T11:07:20Z</time>
      </trkpt>
      <trkpt lat="38.0125808995" lon="-2.7368301898">
        <ele>1740.60</ele>
        <time>2017-10-09T11:07:40Z</time>
      </trkpt>
      <trkpt lat="38.0125955679" lon="-2.7368708421">
        <ele>1740.60</ele>
        <time>2017-10-09T11:07:49Z</time>
      </trkpt>
      <trkpt lat="38.0126092304" lon="-2.7368823253">
        <ele>1741.08</ele>
        <time>2017-10-09T11:08:07Z</time>
      </trkpt>
      <trkpt lat="38.0126258265" lon="-2.7368945628">
        <ele>1740.60</ele>
        <time>2017-10-09T11:08:08Z</time>
      </trkpt>
      <trkpt lat="38.0126450211" lon="-2.7368979156">
        <ele>1740.60</ele>
        <time>2017-10-09T11:08:09Z</time>
      </trkpt>
      <trkpt lat="38.0126662273" lon="-2.7369004302">
        <ele>1740.12</ele>
        <time>2017-10-09T11:08:10Z</time>
      </trkpt>
      <trkpt lat="38.0126912054" lon="-2.7368990052">
        <ele>1740.12</ele>
        <time>2017-10-09T11:08:11Z</time>
      </trkpt>
      <trkpt lat="38.0127207935" lon="-2.7368898690">
        <ele>1739.64</ele>
        <time>2017-10-09T11:08:12Z</time>
      </trkpt>
      <trkpt lat="38.0127546564" lon="-2.7368812356">
        <ele>1739.64</ele>
        <time>2017-10-09T11:08:13Z</time>
      </trkpt>
      <trkpt lat="38.0127893575" lon="-2.7368777990">
        <ele>1739.16</ele>
        <time>2017-10-09T11:08:14Z</time>
      </trkpt>
      <trkpt lat="38.0128236394" lon="-2.7368824929">
        <ele>1739.16</ele>
        <time>2017-10-09T11:08:15Z</time>
      </trkpt>
      <trkpt lat="38.0128559936" lon="-2.7368932217">
        <ele>1739.16</ele>
        <time>2017-10-09T11:08:16Z</time>
      </trkpt>
      <trkpt lat="38.0128851626" lon="-2.7369098179">
        <ele>1739.16</ele>
        <time>2017-10-09T11:08:17Z</time>
      </trkpt>
      <trkpt lat="38.0129117332" lon="-2.7369311079">
        <ele>1739.16</ele>
        <time>2017-10-09T11:08:18Z</time>
      </trkpt>
      <trkpt lat="38.0130534712" lon="-2.7370874304">
        <ele>1739.64</ele>
        <time>2017-10-09T11:08:27Z</time>
      </trkpt>
      <trkpt lat="38.0131234601" lon="-2.7371656336">
        <ele>1736.28</ele>
        <time>2017-10-09T11:08:32Z</time>
      </trkpt>
      <trkpt lat="38.0131362006" lon="-2.7371829003">
        <ele>1740.12</ele>
        <time>2017-10-09T11:08:33Z</time>
      </trkpt>
      <trkpt lat="38.0132827163" lon="-2.7373452578">
        <ele>1740.12</ele>
        <time>2017-10-09T11:08:43Z</time>
      </trkpt>
      <trkpt lat="38.0133244582" lon="-2.7373973932">
        <ele>1740.60</ele>
        <time>2017-10-09T11:08:46Z</time>
      </trkpt>
      <trkpt lat="38.0133439042" lon="-2.7374366205">
        <ele>1740.12</ele>
        <time>2017-10-09T11:08:49Z</time>
      </trkpt>
      <trkpt lat="38.0133571476" lon="-2.7374465950">
        <ele>1740.60</ele>
        <time>2017-10-09T11:08:50Z</time>
      </trkpt>
      <trkpt lat="38.0133695528" lon="-2.7374584135">
        <ele>1740.60</ele>
        <time>2017-10-09T11:08:51Z</time>
      </trkpt>
      <trkpt lat="38.0134291481" lon="-2.7375289053">
        <ele>1740.60</ele>
        <time>2017-10-09T11:08:56Z</time>
      </trkpt>
      <trkpt lat="38.0134379491" lon="-2.7375450823">
        <ele>1740.60</ele>
        <time>2017-10-09T11:08:57Z</time>
      </trkpt>
      <trkpt lat="38.0136551242" lon="-2.7377717290">
        <ele>1740.12</ele>
        <time>2017-10-09T11:09:10Z</time>
      </trkpt>
      <trkpt lat="38.0138663482" lon="-2.7380092721">
        <ele>1739.64</ele>
        <time>2017-10-09T11:09:21Z</time>
      </trkpt>
      <trkpt lat="38.0141010415" lon="-2.7382742241">
        <ele>1740.12</ele>
        <time>2017-10-09T11:09:34Z</time>
      </trkpt>
      <trkpt lat="38.0142041389" lon="-2.7383723762">
        <ele>1741.57</ele>
        <time>2017-10-09T11:09:40Z</time>
      </trkpt>
      <trkpt lat="38.0142735410" lon="-2.7384429518">
        <ele>1742.53</ele>
        <time>2017-10-09T11:09:46Z</time>
      </trkpt>
      <trkpt lat="38.0142873712" lon="-2.7384494897">
        <ele>1742.53</ele>
        <time>2017-10-09T11:09:47Z</time>
      </trkpt>
      <trkpt lat="38.0143182166" lon="-2.7384708636">
        <ele>1743.01</ele>
        <time>2017-10-09T11:09:49Z</time>
      </trkpt>
      <trkpt lat="38.0143974256" lon="-2.7386678383">
        <ele>1743.97</ele>
        <time>2017-10-09T11:10:01Z</time>
      </trkpt>
      <trkpt lat="38.0144741200" lon="-2.7388252504">
        <ele>1744.45</ele>
        <time>2017-10-09T11:10:10Z</time>
      </trkpt>
      <trkpt lat="38.0144938175" lon="-2.7388260886">
        <ele>1744.45</ele>
        <time>2017-10-09T11:10:11Z</time>
      </trkpt>
      <trkpt lat="38.0145164486" lon="-2.7388239931">
        <ele>1744.45</ele>
        <time>2017-10-09T11:10:12Z</time>
      </trkpt>
      <trkpt lat="38.0145385768" lon="-2.7388142701">
        <ele>1743.97</ele>
        <time>2017-10-09T11:10:13Z</time>
      </trkpt>
      <trkpt lat="38.0145582743" lon="-2.7388010267">
        <ele>1744.45</ele>
        <time>2017-10-09T11:10:14Z</time>
      </trkpt>
      <trkpt lat="38.0146913789" lon="-2.7387254220">
        <ele>1744.93</ele>
        <time>2017-10-09T11:10:23Z</time>
      </trkpt>
      <trkpt lat="38.0147622898" lon="-2.7387164533">
        <ele>1744.93</ele>
        <time>2017-10-09T11:10:27Z</time>
      </trkpt>
      <trkpt lat="38.0147771258" lon="-2.7387208119">
        <ele>1745.41</ele>
        <time>2017-10-09T11:10:28Z</time>
      </trkpt>
      <trkpt lat="38.0147933867" lon="-2.7387231588">
        <ele>1745.41</ele>
        <time>2017-10-09T11:10:29Z</time>
      </trkpt>
      <trkpt lat="38.0148088932" lon="-2.7387235779">
        <ele>1745.89</ele>
        <time>2017-10-09T11:10:30Z</time>
      </trkpt>
      <trkpt lat="38.0148244835" lon="-2.7387255896">
        <ele>1745.89</ele>
        <time>2017-10-09T11:10:31Z</time>
      </trkpt>
      <trkpt lat="38.0148404092" lon="-2.7387327142">
        <ele>1745.89</ele>
        <time>2017-10-09T11:10:32Z</time>
      </trkpt>
      <trkpt lat="38.0148554128" lon="-2.7387362346">
        <ele>1745.89</ele>
        <time>2017-10-09T11:10:33Z</time>
      </trkpt>
      <trkpt lat="38.0148689076" lon="-2.7387378272">
        <ele>1745.89</ele>
        <time>2017-10-09T11:10:34Z</time>
      </trkpt>
      <trkpt lat="38.0148803070" lon="-2.7387421858">
        <ele>1746.37</ele>
        <time>2017-10-09T11:10:35Z</time>
      </trkpt>
      <trkpt lat="38.0149516370" lon="-2.7387749590">
        <ele>1746.85</ele>
        <time>2017-10-09T11:10:42Z</time>
      </trkpt>
      <trkpt lat="38.0149632879" lon="-2.7387730312">
        <ele>1746.85</ele>
        <time>2017-10-09T11:10:43Z</time>
      </trkpt>
      <trkpt lat="38.0149759445" lon="-2.7387737017">
        <ele>1747.33</ele>
        <time>2017-10-09T11:10:44Z</time>
      </trkpt>
      <trkpt lat="38.0151226278" lon="-2.7388268430">
        <ele>1748.29</ele>
        <time>2017-10-09T11:10:55Z</time>
      </trkpt>
      <trkpt lat="38.0152734183" lon="-2.7389285155">
        <ele>1749.74</ele>
        <time>2017-10-09T11:11:07Z</time>
      </trkpt>
      <trkpt lat="38.0153418984" lon="-2.7389728557">
        <ele>1750.70</ele>
        <time>2017-10-09T11:11:13Z</time>
      </trkpt>
      <trkpt lat="38.0153518729" lon="-2.7389820758">
        <ele>1750.70</ele>
        <time>2017-10-09T11:11:14Z</time>
      </trkpt>
      <trkpt lat="38.0154745001" lon="-2.7391207125">
        <ele>1752.14</ele>
        <time>2017-10-09T11:11:25Z</time>
      </trkpt>
      <trkpt lat="38.0154762603" lon="-2.7391395718">
        <ele>1752.62</ele>
        <time>2017-10-09T11:11:26Z</time>
      </trkpt>
      <trkpt lat="38.0154420622" lon="-2.7392331976">
        <ele>1753.10</ele>
        <time>2017-10-09T11:11:32Z</time>
      </trkpt>
      <trkpt lat="38.0154351890" lon="-2.7392473631">
        <ele>1753.10</ele>
        <time>2017-10-09T11:11:33Z</time>
      </trkpt>
      <trkpt lat="38.0153781082" lon="-2.7394319326">
        <ele>1754.54</ele>
        <time>2017-10-09T11:11:43Z</time>
      </trkpt>
      <trkpt lat="38.0153126456" lon="-2.7396485209">
        <ele>1755.99</ele>
        <time>2017-10-09T11:11:53Z</time>
      </trkpt>
      <trkpt lat="38.0153115559" lon="-2.7396882512">
        <ele>1756.47</ele>
        <time>2017-10-09T11:11:55Z</time>
      </trkpt>
      <trkpt lat="38.0153165851" lon="-2.7397071104">
        <ele>1756.47</ele>
        <time>2017-10-09T11:11:56Z</time>
      </trkpt>
      <trkpt lat="38.0153631046" lon="-2.7398256306">
        <ele>1757.43</ele>
        <time>2017-10-09T11:12:03Z</time>
      </trkpt>
      <trkpt lat="38.0153815448" lon="-2.7398459148">
        <ele>1756.95</ele>
        <time>2017-10-09T11:12:04Z</time>
      </trkpt>
      <trkpt lat="38.0154016614" lon="-2.7398684621">
        <ele>1756.95</ele>
        <time>2017-10-09T11:12:05Z</time>
      </trkpt>
      <trkpt lat="38.0154211074" lon="-2.7398898359">
        <ele>1756.95</ele>
        <time>2017-10-09T11:12:06Z</time>
      </trkpt>
      <trkpt lat="38.0154412240" lon="-2.7399111260">
        <ele>1756.95</ele>
        <time>2017-10-09T11:12:07Z</time>
      </trkpt>
      <trkpt lat="38.0154602509" lon="-2.7399314102">
        <ele>1757.43</ele>
        <time>2017-10-09T11:12:08Z</time>
      </trkpt>
      <trkpt lat="38.0156275537" lon="-2.7401863877">
        <ele>1756.95</ele>
        <time>2017-10-09T11:12:19Z</time>
      </trkpt>
      <trkpt lat="38.0156461615" lon="-2.7402319014">
        <ele>1757.43</ele>
        <time>2017-10-09T11:12:21Z</time>
      </trkpt>
      <trkpt lat="38.0156590696" lon="-2.7402454801">
        <ele>1757.91</ele>
        <time>2017-10-09T11:12:22Z</time>
      </trkpt>
      <trkpt lat="38.0156723969" lon="-2.7402540296">
        <ele>1757.91</ele>
        <time>2017-10-09T11:12:23Z</time>
      </trkpt>
      <trkpt lat="38.0156860594" lon="-2.7402623277">
        <ele>1758.39</ele>
        <time>2017-10-09T11:12:24Z</time>
      </trkpt>
      <trkpt lat="38.0157014821" lon="-2.7402664348">
        <ele>1758.39</ele>
        <time>2017-10-09T11:12:25Z</time>
      </trkpt>
      <trkpt lat="38.0157161504" lon="-2.7402676921">
        <ele>1758.39</ele>
        <time>2017-10-09T11:12:26Z</time>
      </trkpt>
      <trkpt lat="38.0157290585" lon="-2.7402638365">
        <ele>1758.87</ele>
        <time>2017-10-09T11:12:35Z</time>
      </trkpt>
      <trkpt lat="38.0157318246" lon="-2.7402608190">
        <ele>1758.39</ele>
        <time>2017-10-09T11:13:03Z</time>
      </trkpt>
      <trkpt lat="38.0157286394" lon="-2.7402571309">
        <ele>1760.79</ele>
        <time>2017-10-09T11:13:15Z</time>
      </trkpt>
      <trkpt lat="38.0157267116" lon="-2.7402624954">
        <ele>1758.87</ele>
        <time>2017-10-09T11:13:36Z</time>
      </trkpt>
      <trkpt lat="38.0157275498" lon="-2.7402585559">
        <ele>1758.39</ele>
        <time>2017-10-09T11:13:51Z</time>
      </trkpt>
      <trkpt lat="38.0157387815" lon="-2.7402548678">
        <ele>1758.39</ele>
        <time>2017-10-09T11:13:52Z</time>
      </trkpt>
      <trkpt lat="38.0159173999" lon="-2.7401904948">
        <ele>1758.39</ele>
        <time>2017-10-09T11:14:02Z</time>
      </trkpt>
      <trkpt lat="38.0161252711" lon="-2.7402247768">
        <ele>1758.87</ele>
        <time>2017-10-09T11:14:14Z</time>
      </trkpt>
      <trkpt lat="38.0161625706" lon="-2.7402437199">
        <ele>1759.35</ele>
        <time>2017-10-09T11:14:16Z</time>
      </trkpt>
      <trkpt lat="38.0161843635" lon="-2.7402476594">
        <ele>1759.35</ele>
        <time>2017-10-09T11:14:17Z</time>
      </trkpt>
      <trkpt lat="38.0162059050" lon="-2.7402539458">
        <ele>1759.35</ele>
        <time>2017-10-09T11:14:18Z</time>
      </trkpt>
      <trkpt lat="38.0162276141" lon="-2.7402578853">
        <ele>1759.35</ele>
        <time>2017-10-09T11:14:19Z</time>
      </trkpt>
      <trkpt lat="38.0162505805" lon="-2.7402583882">
        <ele>1759.83</ele>
        <time>2017-10-09T11:14:20Z</time>
      </trkpt>
      <trkpt lat="38.0162723735" lon="-2.7402566280">
        <ele>1759.35</ele>
        <time>2017-10-09T11:14:21Z</time>
      </trkpt>
      <trkpt lat="38.0164440349" lon="-2.7401508484">
        <ele>1759.83</ele>
        <time>2017-10-09T11:14:31Z</time>
      </trkpt>
      <trkpt lat="38.0166379921" lon="-2.7400241140">
        <ele>1760.31</ele>
        <time>2017-10-09T11:14:41Z</time>
      </trkpt>
      <trkpt lat="38.0168699194" lon="-2.7398902550">
        <ele>1760.79</ele>
        <time>2017-10-09T11:14:53Z</time>
      </trkpt>
      <trkpt lat="38.0170824844" lon="-2.7397183422">
        <ele>1761.27</ele>
        <time>2017-10-09T11:15:05Z</time>
      </trkpt>
      <trkpt lat="38.0173090473" lon="-2.7394626103">
        <ele>1761.75</ele>
        <time>2017-10-09T11:15:20Z</time>
      </trkpt>
      <trkpt lat="38.0174646154" lon="-2.7392316051">
        <ele>1762.23</ele>
        <time>2017-10-09T11:15:32Z</time>
      </trkpt>
      <trkpt lat="38.0176294874" lon="-2.7389700059">
        <ele>1762.23</ele>
        <time>2017-10-09T11:15:45Z</time>
      </trkpt>
      <trkpt lat="38.0177837983" lon="-2.7386312932">
        <ele>1762.23</ele>
        <time>2017-10-09T11:16:00Z</time>
      </trkpt>
      <trkpt lat="38.0179918371" lon="-2.7383727115">
        <ele>1763.68</ele>
        <time>2017-10-09T11:16:14Z</time>
      </trkpt>
      <trkpt lat="38.0180902407" lon="-2.7382667642">
        <ele>1765.12</ele>
        <time>2017-10-09T11:16:21Z</time>
      </trkpt>
      <trkpt lat="38.0181095190" lon="-2.7382643335">
        <ele>1765.12</ele>
        <time>2017-10-09T11:16:22Z</time>
      </trkpt>
      <trkpt lat="38.0181284621" lon="-2.7382615674">
        <ele>1765.12</ele>
        <time>2017-10-09T11:16:23Z</time>
      </trkpt>
      <trkpt lat="38.0181471538" lon="-2.7382624894">
        <ele>1765.12</ele>
        <time>2017-10-09T11:16:24Z</time>
      </trkpt>
      <trkpt lat="38.0181645043" lon="-2.7382604778">
        <ele>1765.12</ele>
        <time>2017-10-09T11:16:25Z</time>
      </trkpt>
      <trkpt lat="38.0181811843" lon="-2.7382557839">
        <ele>1765.60</ele>
        <time>2017-10-09T11:16:26Z</time>
      </trkpt>
      <trkpt lat="38.0181977805" lon="-2.7382537723">
        <ele>1765.60</ele>
        <time>2017-10-09T11:16:27Z</time>
      </trkpt>
      <trkpt lat="38.0184041429" lon="-2.7381466515">
        <ele>1767.04</ele>
        <time>2017-10-09T11:16:39Z</time>
      </trkpt>
      <trkpt lat="38.0185997766" lon="-2.7379876468">
        <ele>1768.96</ele>
        <time>2017-10-09T11:16:51Z</time>
      </trkpt>
      <trkpt lat="38.0186608806" lon="-2.7378689591">
        <ele>1769.92</ele>
        <time>2017-10-09T11:16:58Z</time>
      </trkpt>
      <trkpt lat="38.0186596233" lon="-2.7378496807">
        <ele>1769.92</ele>
        <time>2017-10-09T11:16:59Z</time>
      </trkpt>
      <trkpt lat="38.0186639819" lon="-2.7378314082">
        <ele>1769.92</ele>
        <time>2017-10-09T11:17:00Z</time>
      </trkpt>
      <trkpt lat="38.0187485553" lon="-2.7376028337">
        <ele>1769.44</ele>
        <time>2017-10-09T11:17:10Z</time>
      </trkpt>
      <trkpt lat="38.0189629644" lon="-2.7373662125">
        <ele>1768.48</ele>
        <time>2017-10-09T11:17:23Z</time>
      </trkpt>
      <trkpt lat="38.0190696660" lon="-2.7372008376">
        <ele>1765.12</ele>
        <time>2017-10-09T11:17:29Z</time>
      </trkpt>
      <trkpt lat="38.0190840829" lon="-2.7371732611">
        <ele>1769.92</ele>
        <time>2017-10-09T11:17:30Z</time>
      </trkpt>
      <trkpt lat="38.0191005953" lon="-2.7371466067">
        <ele>1769.44</ele>
        <time>2017-10-09T11:17:31Z</time>
      </trkpt>
      <trkpt lat="38.0191195384" lon="-2.7371171862">
        <ele>1764.16</ele>
        <time>2017-10-09T11:17:32Z</time>
      </trkpt>
      <trkpt lat="38.0191379786" lon="-2.7370855026">
        <ele>1768.96</ele>
        <time>2017-10-09T11:17:33Z</time>
      </trkpt>
      <trkpt lat="38.0193362106" lon="-2.7368032001">
        <ele>1766.08</ele>
        <time>2017-10-09T11:17:42Z</time>
      </trkpt>
      <trkpt lat="38.0195202772" lon="-2.7365774754">
        <ele>1764.16</ele>
        <time>2017-10-09T11:17:49Z</time>
      </trkpt>
      <trkpt lat="38.0195902660" lon="-2.7365100011">
        <ele>1762.71</ele>
        <time>2017-10-09T11:17:51Z</time>
      </trkpt>
      <trkpt lat="38.0196262244" lon="-2.7364778984">
        <ele>1762.71</ele>
        <time>2017-10-09T11:17:52Z</time>
      </trkpt>
      <trkpt lat="38.0199640151" lon="-2.7362199873">
        <ele>1759.35</ele>
        <time>2017-10-09T11:18:00Z</time>
      </trkpt>
      <trkpt lat="38.0200818647" lon="-2.7361710370">
        <ele>1757.91</ele>
        <time>2017-10-09T11:18:03Z</time>
      </trkpt>
      <trkpt lat="38.0203875527" lon="-2.7360826079">
        <ele>1755.02</ele>
        <time>2017-10-09T11:18:12Z</time>
      </trkpt>
      <trkpt lat="38.0205536820" lon="-2.7359758224">
        <ele>1753.10</ele>
        <time>2017-10-09T11:18:16Z</time>
      </trkpt>
      <trkpt lat="38.0205994472" lon="-2.7359313145">
        <ele>1753.10</ele>
        <time>2017-10-09T11:18:17Z</time>
      </trkpt>
      <trkpt lat="38.0206417758" lon="-2.7358851302">
        <ele>1752.62</ele>
        <time>2017-10-09T11:18:18Z</time>
      </trkpt>
      <trkpt lat="38.0206793267" lon="-2.7358339168">
        <ele>1751.66</ele>
        <time>2017-10-09T11:18:19Z</time>
      </trkpt>
      <trkpt lat="38.0207124352" lon="-2.7357755788">
        <ele>1751.18</ele>
        <time>2017-10-09T11:18:20Z</time>
      </trkpt>
      <trkpt lat="38.0207437836" lon="-2.7357136365">
        <ele>1750.70</ele>
        <time>2017-10-09T11:18:21Z</time>
      </trkpt>
      <trkpt lat="38.0208086595" lon="-2.7356108744">
        <ele>1749.26</ele>
        <time>2017-10-09T11:18:23Z</time>
      </trkpt>
      <trkpt lat="38.0208470486" lon="-2.7355770115">
        <ele>1749.26</ele>
        <time>2017-10-09T11:18:24Z</time>
      </trkpt>
      <trkpt lat="38.0208952446" lon="-2.7355568111">
        <ele>1748.78</ele>
        <time>2017-10-09T11:18:25Z</time>
      </trkpt>
      <trkpt lat="38.0210999306" lon="-2.7354948688">
        <ele>1745.41</ele>
        <time>2017-10-09T11:18:29Z</time>
      </trkpt>
      <trkpt lat="38.0211397447" lon="-2.7354697231">
        <ele>1744.93</ele>
        <time>2017-10-09T11:18:30Z</time>
      </trkpt>
      <trkpt lat="38.0211745296" lon="-2.7354412246">
        <ele>1744.45</ele>
        <time>2017-10-09T11:18:31Z</time>
      </trkpt>
      <trkpt lat="38.0212057941" lon="-2.7353994828">
        <ele>1743.97</ele>
        <time>2017-10-09T11:18:32Z</time>
      </trkpt>
      <trkpt lat="38.0212290958" lon="-2.7353468444">
        <ele>1743.49</ele>
        <time>2017-10-09T11:18:33Z</time>
      </trkpt>
      <trkpt lat="38.0212451052" lon="-2.7352900151">
        <ele>1743.01</ele>
        <time>2017-10-09T11:18:34Z</time>
      </trkpt>
      <trkpt lat="38.0212507211" lon="-2.7352325153">
        <ele>1743.01</ele>
        <time>2017-10-09T11:18:35Z</time>
      </trkpt>
      <trkpt lat="38.0212492123" lon="-2.7351755183">
        <ele>1742.53</ele>
        <time>2017-10-09T11:18:36Z</time>
      </trkpt>
      <trkpt lat="38.0212470330" lon="-2.7351197787">
        <ele>1742.53</ele>
        <time>2017-10-09T11:18:37Z</time>
      </trkpt>
      <trkpt lat="38.0212472007" lon="-2.7350616083">
        <ele>1742.05</ele>
        <time>2017-10-09T11:18:38Z</time>
      </trkpt>
      <trkpt lat="38.0212496314" lon="-2.7350026835">
        <ele>1742.05</ele>
        <time>2017-10-09T11:18:39Z</time>
      </trkpt>
      <trkpt lat="38.0212715920" lon="-2.7347762045">
        <ele>1740.12</ele>
        <time>2017-10-09T11:18:43Z</time>
      </trkpt>
      <trkpt lat="38.0212821532" lon="-2.7347199619">
        <ele>1740.12</ele>
        <time>2017-10-09T11:18:44Z</time>
      </trkpt>
      <trkpt lat="38.0212980788" lon="-2.7346633840">
        <ele>1739.64</ele>
        <time>2017-10-09T11:18:45Z</time>
      </trkpt>
      <trkpt lat="38.0213182792" lon="-2.7346067224">
        <ele>1739.16</ele>
        <time>2017-10-09T11:18:46Z</time>
      </trkpt>
      <trkpt lat="38.0213418324" lon="-2.7345512342">
        <ele>1738.68</ele>
        <time>2017-10-09T11:18:47Z</time>
      </trkpt>
      <trkpt lat="38.0213622004" lon="-2.7344923094">
        <ele>1738.20</ele>
        <time>2017-10-09T11:18:48Z</time>
      </trkpt>
      <trkpt lat="38.0213748571" lon="-2.7344234101">
        <ele>1738.20</ele>
        <time>2017-10-09T11:18:49Z</time>
      </trkpt>
      <trkpt lat="38.0214078818" lon="-2.7342220768">
        <ele>1737.24</ele>
        <time>2017-10-09T11:18:52Z</time>
      </trkpt>
      <trkpt lat="38.0214246456" lon="-2.7341665048">
        <ele>1736.76</ele>
        <time>2017-10-09T11:18:53Z</time>
      </trkpt>
      <trkpt lat="38.0214649625" lon="-2.7340569533">
        <ele>1736.28</ele>
        <time>2017-10-09T11:18:55Z</time>
      </trkpt>
      <trkpt lat="38.0215148348" lon="-2.7339499164">
        <ele>1735.80</ele>
        <time>2017-10-09T11:18:57Z</time>
      </trkpt>
      <trkpt lat="38.0215369631" lon="-2.7338963561">
        <ele>1735.80</ele>
        <time>2017-10-09T11:18:58Z</time>
      </trkpt>
      <trkpt lat="38.0215591751" lon="-2.7338432986">
        <ele>1735.32</ele>
        <time>2017-10-09T11:18:59Z</time>
      </trkpt>
      <trkpt lat="38.0215762742" lon="-2.7337889001">
        <ele>1735.32</ele>
        <time>2017-10-09T11:19:00Z</time>
      </trkpt>
      <trkpt lat="38.0215912778" lon="-2.7337334119">
        <ele>1735.32</ele>
        <time>2017-10-09T11:19:01Z</time>
      </trkpt>
      <trkpt lat="38.0217110552" lon="-2.7333990578">
        <ele>1734.84</ele>
        <time>2017-10-09T11:19:09Z</time>
      </trkpt>
      <trkpt lat="38.0217678007" lon="-2.7333305776">
        <ele>1734.36</ele>
        <time>2017-10-09T11:19:11Z</time>
      </trkpt>
      <trkpt lat="38.0218045134" lon="-2.7332991455">
        <ele>1733.88</ele>
        <time>2017-10-09T11:19:12Z</time>
      </trkpt>
      <trkpt lat="38.0218486022" lon="-2.7332743350">
        <ele>1733.88</ele>
        <time>2017-10-09T11:19:13Z</time>
      </trkpt>
      <trkpt lat="38.0218964629" lon="-2.7332562301">
        <ele>1733.39</ele>
        <time>2017-10-09T11:19:14Z</time>
      </trkpt>
      <trkpt lat="38.0219466705" lon="-2.7332433220">
        <ele>1732.91</ele>
        <time>2017-10-09T11:19:15Z</time>
      </trkpt>
      <trkpt lat="38.0219997279" lon="-2.7332408912">
        <ele>1732.91</ele>
        <time>2017-10-09T11:19:16Z</time>
      </trkpt>
      <trkpt lat="38.0220523663" lon="-2.7332454175">
        <ele>1732.43</ele>
        <time>2017-10-09T11:19:17Z</time>
      </trkpt>
      <trkpt lat="38.0221044179" lon="-2.7332552243">
        <ele>1732.43</ele>
        <time>2017-10-09T11:19:18Z</time>
      </trkpt>
      <trkpt lat="38.0221560504" lon="-2.7332688030">
        <ele>1732.43</ele>
        <time>2017-10-09T11:19:19Z</time>
      </trkpt>
      <trkpt lat="38.0222076830" lon="-2.7332874946">
        <ele>1731.95</ele>
        <time>2017-10-09T11:19:20Z</time>
      </trkpt>
      <trkpt lat="38.0223151390" lon="-2.7333290689">
        <ele>1731.47</ele>
        <time>2017-10-09T11:19:22Z</time>
      </trkpt>
      <trkpt lat="38.0225209985" lon="-2.7334335912">
        <ele>1730.99</ele>
        <time>2017-10-09T11:19:26Z</time>
      </trkpt>
      <trkpt lat="38.0225723796" lon="-2.7334485948">
        <ele>1730.51</ele>
        <time>2017-10-09T11:19:27Z</time>
      </trkpt>
      <trkpt lat="38.0226177257" lon="-2.7334537078">
        <ele>1730.51</ele>
        <time>2017-10-09T11:19:28Z</time>
      </trkpt>
      <trkpt lat="38.0226602219" lon="-2.7334511094">
        <ele>1730.51</ele>
        <time>2017-10-09T11:19:29Z</time>
      </trkpt>
      <trkpt lat="38.0226984434" lon="-2.7334475052">
        <ele>1730.51</ele>
        <time>2017-10-09T11:19:30Z</time>
      </trkpt>
      <trkpt lat="38.0228475574" lon="-2.7334635146">
        <ele>1729.07</ele>
        <time>2017-10-09T11:19:34Z</time>
      </trkpt>
      <trkpt lat="38.0230709352" lon="-2.7335200086">
        <ele>1728.11</ele>
        <time>2017-10-09T11:19:39Z</time>
      </trkpt>
      <trkpt lat="38.0232683290" lon="-2.7335186675">
        <ele>1727.15</ele>
        <time>2017-10-09T11:19:43Z</time>
      </trkpt>
      <trkpt lat="38.0233176984" lon="-2.7335176617">
        <ele>1726.67</ele>
        <time>2017-10-09T11:19:44Z</time>
      </trkpt>
      <trkpt lat="38.0235208757" lon="-2.7334862296">
        <ele>1725.70</ele>
        <time>2017-10-09T11:19:48Z</time>
      </trkpt>
      <trkpt lat="38.0236238055" lon="-2.7334433142">
        <ele>1725.70</ele>
        <time>2017-10-09T11:19:50Z</time>
      </trkpt>
      <trkpt lat="38.0236674752" lon="-2.7334117983">
        <ele>1725.22</ele>
        <time>2017-10-09T11:19:51Z</time>
      </trkpt>
      <trkpt lat="38.0237065349" lon="-2.7333705593">
        <ele>1724.74</ele>
        <time>2017-10-09T11:19:52Z</time>
      </trkpt>
      <trkpt lat="38.0237416551" lon="-2.7333261352">
        <ele>1724.74</ele>
        <time>2017-10-09T11:19:53Z</time>
      </trkpt>
      <trkpt lat="38.0237761047" lon="-2.7332825493">
        <ele>1724.74</ele>
        <time>2017-10-09T11:19:54Z</time>
      </trkpt>
      <trkpt lat="38.0240324233" lon="-2.7330160886">
        <ele>1724.26</ele>
        <time>2017-10-09T11:20:03Z</time>
      </trkpt>
      <trkpt lat="38.0242154002" lon="-2.7328869235">
        <ele>1725.22</ele>
        <time>2017-10-09T11:20:12Z</time>
      </trkpt>
      <trkpt lat="38.0244354252" lon="-2.7328083012">
        <ele>1726.67</ele>
        <time>2017-10-09T11:20:24Z</time>
      </trkpt>
      <trkpt lat="38.0245109461" lon="-2.7327740192">
        <ele>1727.15</ele>
        <time>2017-10-09T11:20:29Z</time>
      </trkpt>
      <trkpt lat="38.0245270394" lon="-2.7327707503">
        <ele>1727.15</ele>
        <time>2017-10-09T11:20:30Z</time>
      </trkpt>
      <trkpt lat="38.0245438032" lon="-2.7327627875">
        <ele>1727.63</ele>
        <time>2017-10-09T11:20:31Z</time>
      </trkpt>
      <trkpt lat="38.0245603155" lon="-2.7327538189">
        <ele>1727.63</ele>
        <time>2017-10-09T11:20:32Z</time>
      </trkpt>
      <trkpt lat="38.0245755706" lon="-2.7327449340">
        <ele>1728.11</ele>
        <time>2017-10-09T11:20:33Z</time>
      </trkpt>
      <trkpt lat="38.0245922506" lon="-2.7327363845">
        <ele>1727.63</ele>
        <time>2017-10-09T11:20:34Z</time>
      </trkpt>
      <trkpt lat="38.0248563644" lon="-2.7327128313">
        <ele>1725.70</ele>
        <time>2017-10-09T11:20:44Z</time>
      </trkpt>
      <trkpt lat="38.0250380002" lon="-2.7327601891">
        <ele>1723.78</ele>
        <time>2017-10-09T11:20:48Z</time>
      </trkpt>
      <trkpt lat="38.0250897165" lon="-2.7327611111">
        <ele>1723.78</ele>
        <time>2017-10-09T11:20:49Z</time>
      </trkpt>
      <trkpt lat="38.0251359846" lon="-2.7327544056">
        <ele>1723.30</ele>
        <time>2017-10-09T11:20:50Z</time>
      </trkpt>
      <trkpt lat="38.0252156965" lon="-2.7327325288">
        <ele>1723.30</ele>
        <time>2017-10-09T11:20:52Z</time>
      </trkpt>
      <trkpt lat="38.0252524093" lon="-2.7327227220">
        <ele>1722.82</ele>
        <time>2017-10-09T11:20:53Z</time>
      </trkpt>
      <trkpt lat="38.0255637970" lon="-2.7326734364">
        <ele>1720.42</ele>
        <time>2017-10-09T11:21:02Z</time>
      </trkpt>
      <trkpt lat="38.0257291719" lon="-2.7326242346">
        <ele>1718.49</ele>
        <time>2017-10-09T11:21:07Z</time>
      </trkpt>
      <trkpt lat="38.0257701594" lon="-2.7326032799">
        <ele>1718.01</ele>
        <time>2017-10-09T11:21:08Z</time>
      </trkpt>
      <trkpt lat="38.0258549843" lon="-2.7325542457">
        <ele>1717.53</ele>
        <time>2017-10-09T11:21:10Z</time>
      </trkpt>
      <trkpt lat="38.0259406473" lon="-2.7324913815">
        <ele>1716.57</ele>
        <time>2017-10-09T11:21:12Z</time>
      </trkpt>
      <trkpt lat="38.0259823054" lon="-2.7324567642">
        <ele>1716.57</ele>
        <time>2017-10-09T11:21:13Z</time>
      </trkpt>
      <trkpt lat="38.0260241311" lon="-2.7324252483">
        <ele>1716.09</ele>
        <time>2017-10-09T11:21:14Z</time>
      </trkpt>
      <trkpt lat="38.0260659568" lon="-2.7323930617">
        <ele>1715.61</ele>
        <time>2017-10-09T11:21:15Z</time>
      </trkpt>
      <trkpt lat="38.0261102132" lon="-2.7323589474">
        <ele>1715.61</ele>
        <time>2017-10-09T11:21:16Z</time>
      </trkpt>
      <trkpt lat="38.0264045857" lon="-2.7321820892">
        <ele>1713.69</ele>
        <time>2017-10-09T11:21:22Z</time>
      </trkpt>
      <trkpt lat="38.0264466628" lon="-2.7321540937">
        <ele>1713.21</ele>
        <time>2017-10-09T11:21:23Z</time>
      </trkpt>
      <trkpt lat="38.0265500955" lon="-2.7320708614">
        <ele>1712.25</ele>
        <time>2017-10-09T11:21:26Z</time>
      </trkpt>
      <trkpt lat="38.0265894067" lon="-2.7320442908">
        <ele>1711.76</ele>
        <time>2017-10-09T11:21:27Z</time>
      </trkpt>
      <trkpt lat="38.0267351680" lon="-2.7319214959">
        <ele>1709.84</ele>
        <time>2017-10-09T11:21:30Z</time>
      </trkpt>
      <trkpt lat="38.0268934183" lon="-2.7318103518">
        <ele>1709.36</ele>
        <time>2017-10-09T11:21:33Z</time>
      </trkpt>
      <trkpt lat="38.0269965157" lon="-2.7317664307">
        <ele>1709.36</ele>
        <time>2017-10-09T11:21:35Z</time>
      </trkpt>
      <trkpt lat="38.0270479806" lon="-2.7317462303">
        <ele>1709.36</ele>
        <time>2017-10-09T11:21:36Z</time>
      </trkpt>
      <trkpt lat="38.0270994455" lon="-2.7317274548">
        <ele>1708.88</ele>
        <time>2017-10-09T11:21:37Z</time>
      </trkpt>
      <trkpt lat="38.0271516647" lon="-2.7317142114">
        <ele>1708.88</ele>
        <time>2017-10-09T11:21:38Z</time>
      </trkpt>
      <trkpt lat="38.0272064824" lon="-2.7317053266">
        <ele>1708.40</ele>
        <time>2017-10-09T11:21:39Z</time>
      </trkpt>
      <trkpt lat="38.0272636469" lon="-2.7316993754">
        <ele>1708.40</ele>
        <time>2017-10-09T11:21:40Z</time>
      </trkpt>
      <trkpt lat="38.0278026871" lon="-2.7316699550">
        <ele>1705.04</ele>
        <time>2017-10-09T11:21:49Z</time>
      </trkpt>
      <trkpt lat="38.0279769469" lon="-2.7316789236">
        <ele>1704.55</ele>
        <time>2017-10-09T11:21:52Z</time>
      </trkpt>
      <trkpt lat="38.0280312616" lon="-2.7316888981">
        <ele>1704.07</ele>
        <time>2017-10-09T11:21:53Z</time>
      </trkpt>
      <trkpt lat="38.0280809663" lon="-2.7316897362">
        <ele>1704.07</ele>
        <time>2017-10-09T11:21:54Z</time>
      </trkpt>
      <trkpt lat="38.0281262286" lon="-2.7316842880">
        <ele>1704.07</ele>
        <time>2017-10-09T11:21:55Z</time>
      </trkpt>
      <trkpt lat="38.0281675514" lon="-2.7316735592">
        <ele>1704.07</ele>
        <time>2017-10-09T11:21:56Z</time>
      </trkpt>
      <trkpt lat="38.0282004923" lon="-2.7316557895">
        <ele>1704.55</ele>
        <time>2017-10-09T11:21:57Z</time>
      </trkpt>
      <trkpt lat="38.0282209441" lon="-2.7316330746">
        <ele>1704.55</ele>
        <time>2017-10-09T11:21:58Z</time>
      </trkpt>
      <trkpt lat="38.0282357801" lon="-2.7316174004">
        <ele>1705.04</ele>
        <time>2017-10-09T11:21:59Z</time>
      </trkpt>
      <trkpt lat="38.0282469280" lon="-2.7316049114">
        <ele>1705.04</ele>
        <time>2017-10-09T11:22:00Z</time>
      </trkpt>
      <trkpt lat="38.0282571539" lon="-2.7315899078">
        <ele>1705.52</ele>
        <time>2017-10-09T11:22:01Z</time>
      </trkpt>
      <trkpt lat="38.0283006560" lon="-2.7314875647">
        <ele>1706.48</ele>
        <time>2017-10-09T11:22:07Z</time>
      </trkpt>
      <trkpt lat="38.0283023324" lon="-2.7314679511">
        <ele>1706.48</ele>
        <time>2017-10-09T11:22:08Z</time>
      </trkpt>
      <trkpt lat="38.0283072777" lon="-2.7314510196">
        <ele>1707.44</ele>
        <time>2017-10-09T11:22:09Z</time>
      </trkpt>
      <trkpt lat="38.0283121392" lon="-2.7314330824">
        <ele>1706.48</ele>
        <time>2017-10-09T11:22:10Z</time>
      </trkpt>
      <trkpt lat="38.0283169169" lon="-2.7314163186">
        <ele>1706.48</ele>
        <time>2017-10-09T11:22:11Z</time>
      </trkpt>
      <trkpt lat="38.0283208564" lon="-2.7313995548">
        <ele>1706.48</ele>
        <time>2017-10-09T11:22:12Z</time>
      </trkpt>
      <trkpt lat="38.0283250473" lon="-2.7313835453">
        <ele>1706.48</ele>
        <time>2017-10-09T11:22:13Z</time>
      </trkpt>
      <trkpt lat="38.0283293221" lon="-2.7313696314">
        <ele>1706.96</ele>
        <time>2017-10-09T11:22:14Z</time>
      </trkpt>
      <trkpt lat="38.0283447448" lon="-2.7313046716">
        <ele>1706.96</ele>
        <time>2017-10-09T11:22:18Z</time>
      </trkpt>
      <trkpt lat="38.0283504445" lon="-2.7312903386">
        <ele>1706.48</ele>
        <time>2017-10-09T11:22:19Z</time>
      </trkpt>
      <trkpt lat="38.0283558089" lon="-2.7312745806">
        <ele>1706.48</ele>
        <time>2017-10-09T11:22:20Z</time>
      </trkpt>
      <trkpt lat="38.0283693038" lon="-2.7312344313">
        <ele>1706.48</ele>
        <time>2017-10-09T11:22:23Z</time>
      </trkpt>
      <trkpt lat="38.0283931084" lon="-2.7312001493">
        <ele>1706.48</ele>
        <time>2017-10-09T11:22:27Z</time>
      </trkpt>
      <trkpt lat="38.0283999816" lon="-2.7311892528">
        <ele>1706.48</ele>
        <time>2017-10-09T11:22:28Z</time>
      </trkpt>
      <trkpt lat="38.0284063518" lon="-2.7311740816">
        <ele>1706.00</ele>
        <time>2017-10-09T11:22:29Z</time>
      </trkpt>
      <trkpt lat="38.0284125544" lon="-2.7311574854">
        <ele>1706.48</ele>
        <time>2017-10-09T11:22:30Z</time>
      </trkpt>
      <trkpt lat="38.0284248758" lon="-2.7311358601">
        <ele>1706.00</ele>
        <time>2017-10-09T11:22:31Z</time>
      </trkpt>
      <trkpt lat="38.0284412205" lon="-2.7311100438">
        <ele>1706.00</ele>
        <time>2017-10-09T11:22:32Z</time>
      </trkpt>
      <trkpt lat="38.0284638517" lon="-2.7310751751">
        <ele>1705.52</ele>
        <time>2017-10-09T11:22:33Z</time>
      </trkpt>
      <trkpt lat="38.0284945294" lon="-2.7310330141">
        <ele>1705.04</ele>
        <time>2017-10-09T11:22:34Z</time>
      </trkpt>
      <trkpt lat="38.0285569746" lon="-2.7309459262">
        <ele>1704.07</ele>
        <time>2017-10-09T11:22:36Z</time>
      </trkpt>
      <trkpt lat="38.0289386865" lon="-2.7302985080">
        <ele>1702.15</ele>
        <time>2017-10-09T11:22:49Z</time>
      </trkpt>
      <trkpt lat="38.0289662629" lon="-2.7302514017">
        <ele>1702.15</ele>
        <time>2017-10-09T11:22:50Z</time>
      </trkpt>
      <trkpt lat="38.0289919116" lon="-2.7302045468">
        <ele>1702.15</ele>
        <time>2017-10-09T11:22:51Z</time>
      </trkpt>
      <trkpt lat="38.0290660914" lon="-2.7300695144">
        <ele>1702.15</ele>
        <time>2017-10-09T11:22:54Z</time>
      </trkpt>
      <trkpt lat="38.0292023811" lon="-2.7297155466">
        <ele>1702.15</ele>
        <time>2017-10-09T11:23:03Z</time>
      </trkpt>
      <trkpt lat="38.0292623956" lon="-2.7294094395">
        <ele>1700.71</ele>
        <time>2017-10-09T11:23:09Z</time>
      </trkpt>
      <trkpt lat="38.0293094181" lon="-2.7293133829">
        <ele>1700.71</ele>
        <time>2017-10-09T11:23:11Z</time>
      </trkpt>
      <trkpt lat="38.0293359049" lon="-2.7292728983">
        <ele>1700.71</ele>
        <time>2017-10-09T11:23:12Z</time>
      </trkpt>
      <trkpt lat="38.0293624755" lon="-2.7292342577">
        <ele>1700.71</ele>
        <time>2017-10-09T11:23:13Z</time>
      </trkpt>
      <trkpt lat="38.0293903034" lon="-2.7292005625">
        <ele>1700.71</ele>
        <time>2017-10-09T11:23:14Z</time>
      </trkpt>
      <trkpt lat="38.0294177122" lon="-2.7291717287">
        <ele>1700.71</ele>
        <time>2017-10-09T11:23:15Z</time>
      </trkpt>
      <trkpt lat="38.0294447858" lon="-2.7291489299">
        <ele>1700.71</ele>
        <time>2017-10-09T11:23:16Z</time>
      </trkpt>
      <trkpt lat="38.0294708535" lon="-2.7291299868">
        <ele>1701.19</ele>
        <time>2017-10-09T11:23:17Z</time>
      </trkpt>
      <trkpt lat="38.0296942312" lon="-2.7289605886">
        <ele>1702.15</ele>
        <time>2017-10-09T11:23:28Z</time>
      </trkpt>
      <trkpt lat="38.0298924632" lon="-2.7287693135">
        <ele>1703.11</ele>
        <time>2017-10-09T11:23:40Z</time>
      </trkpt>
      <trkpt lat="38.0300497077" lon="-2.7285522223">
        <ele>1703.59</ele>
        <time>2017-10-09T11:23:52Z</time>
      </trkpt>
      <trkpt lat="38.0302195251" lon="-2.7282467019">
        <ele>1704.07</ele>
        <time>2017-10-09T11:24:03Z</time>
      </trkpt>
      <trkpt lat="38.0304676294" lon="-2.7279124316">
        <ele>1704.55</ele>
        <time>2017-10-09T11:24:16Z</time>
      </trkpt>
      <trkpt lat="38.0306695495" lon="-2.7276030555">
        <ele>1706.48</ele>
        <time>2017-10-09T11:24:29Z</time>
      </trkpt>
      <trkpt lat="38.0307711381" lon="-2.7273496706">
        <ele>1707.44</ele>
        <time>2017-10-09T11:24:39Z</time>
      </trkpt>
      <trkpt lat="38.0307933502" lon="-2.7271210961">
        <ele>1709.36</ele>
        <time>2017-10-09T11:24:50Z</time>
      </trkpt>
      <trkpt lat="38.0308327451" lon="-2.7268563956">
        <ele>1708.40</ele>
        <time>2017-10-09T11:25:00Z</time>
      </trkpt>
      <trkpt lat="38.0308246985" lon="-2.7264824789">
        <ele>1706.48</ele>
        <time>2017-10-09T11:25:09Z</time>
      </trkpt>
      <trkpt lat="38.0307407957" lon="-2.7262737695">
        <ele>1706.00</ele>
        <time>2017-10-09T11:25:18Z</time>
      </trkpt>
      <trkpt lat="38.0306136422" lon="-2.7260254975">
        <ele>1704.55</ele>
        <time>2017-10-09T11:25:27Z</time>
      </trkpt>
      <trkpt lat="38.0306643527" lon="-2.7257426083">
        <ele>1701.19</ele>
        <time>2017-10-09T11:25:36Z</time>
      </trkpt>
      <trkpt lat="38.0307288095" lon="-2.7257047221">
        <ele>1700.71</ele>
        <time>2017-10-09T11:25:38Z</time>
      </trkpt>
      <trkpt lat="38.0307671148" lon="-2.7256887965">
        <ele>1699.75</ele>
        <time>2017-10-09T11:25:39Z</time>
      </trkpt>
      <trkpt lat="38.0308585614" lon="-2.7256574482">
        <ele>1698.79</ele>
        <time>2017-10-09T11:25:41Z</time>
      </trkpt>
      <trkpt lat="38.0309029855" lon="-2.7256297041">
        <ele>1698.79</ele>
        <time>2017-10-09T11:25:42Z</time>
      </trkpt>
      <trkpt lat="38.0309472419" lon="-2.7255963441">
        <ele>1698.31</ele>
        <time>2017-10-09T11:25:43Z</time>
      </trkpt>
      <trkpt lat="38.0309858825" lon="-2.7255535964">
        <ele>1698.31</ele>
        <time>2017-10-09T11:25:44Z</time>
      </trkpt>
      <trkpt lat="38.0310177337" lon="-2.7255074959">
        <ele>1698.79</ele>
        <time>2017-10-09T11:25:45Z</time>
      </trkpt>
      <trkpt lat="38.0310450587" lon="-2.7254620660">
        <ele>1698.79</ele>
        <time>2017-10-09T11:25:46Z</time>
      </trkpt>
      <trkpt lat="38.0310638342" lon="-2.7254132833">
        <ele>1698.79</ele>
        <time>2017-10-09T11:25:47Z</time>
      </trkpt>
      <trkpt lat="38.0310962722" lon="-2.7253215015">
        <ele>1698.79</ele>
        <time>2017-10-09T11:25:49Z</time>
      </trkpt>
      <trkpt lat="38.0312615633" lon="-2.7249221876">
        <ele>1698.79</ele>
        <time>2017-10-09T11:25:59Z</time>
      </trkpt>
      <trkpt lat="38.0313455500" lon="-2.7247440722">
        <ele>1698.79</ele>
        <time>2017-10-09T11:26:06Z</time>
      </trkpt>
      <trkpt lat="38.0313629005" lon="-2.7247273922">
        <ele>1699.27</ele>
        <time>2017-10-09T11:26:07Z</time>
      </trkpt>
      <trkpt lat="38.0313799996" lon="-2.7247116342">
        <ele>1699.27</ele>
        <time>2017-10-09T11:26:08Z</time>
      </trkpt>
      <trkpt lat="38.0313970149" lon="-2.7246911824">
        <ele>1699.75</ele>
        <time>2017-10-09T11:26:09Z</time>
      </trkpt>
      <trkpt lat="38.0314108450" lon="-2.7246690542">
        <ele>1699.27</ele>
        <time>2017-10-09T11:26:10Z</time>
      </trkpt>
      <trkpt lat="38.0314216577" lon="-2.7246474288">
        <ele>1699.27</ele>
        <time>2017-10-09T11:26:11Z</time>
      </trkpt>
      <trkpt lat="38.0316552613" lon="-2.7241733484">
        <ele>1699.75</ele>
        <time>2017-10-09T11:26:28Z</time>
      </trkpt>
      <trkpt lat="38.0318650603" lon="-2.7237397525">
        <ele>1700.71</ele>
        <time>2017-10-09T11:26:42Z</time>
      </trkpt>
      <trkpt lat="38.0320356321" lon="-2.7234205697">
        <ele>1701.67</ele>
        <time>2017-10-09T11:26:54Z</time>
      </trkpt>
      <trkpt lat="38.0321570858" lon="-2.7231939230">
        <ele>1702.15</ele>
        <time>2017-10-09T11:27:05Z</time>
      </trkpt>
      <trkpt lat="38.0322696548" lon="-2.7229692042">
        <ele>1703.59</ele>
        <time>2017-10-09T11:27:16Z</time>
      </trkpt>
      <trkpt lat="38.0323879234" lon="-2.7227456588">
        <ele>1704.55</ele>
        <time>2017-10-09T11:27:27Z</time>
      </trkpt>
      <trkpt lat="38.0324137397" lon="-2.7226906735">
        <ele>1705.52</ele>
        <time>2017-10-09T11:27:37Z</time>
      </trkpt>
      <trkpt lat="38.0324274860" lon="-2.7226605825">
        <ele>1705.04</ele>
        <time>2017-10-09T11:27:56Z</time>
      </trkpt>
      <trkpt lat="38.0324293301" lon="-2.7226491831">
        <ele>1705.52</ele>
        <time>2017-10-09T11:28:06Z</time>
      </trkpt>
      <trkpt lat="38.0324298330" lon="-2.7226443216">
        <ele>1705.52</ele>
        <time>2017-10-09T11:28:26Z</time>
      </trkpt>
      <trkpt lat="38.0324259773" lon="-2.7226515301">
        <ele>1705.52</ele>
        <time>2017-10-09T11:28:41Z</time>
      </trkpt>
      <trkpt lat="38.0324245524" lon="-2.7226540446">
        <ele>1705.04</ele>
        <time>2017-10-09T11:28:43Z</time>
      </trkpt>
      <trkpt lat="38.0324444175" lon="-2.7226053458">
        <ele>1705.52</ele>
        <time>2017-10-09T11:29:04Z</time>
      </trkpt>
      <trkpt lat="38.0325957946" lon="-2.7223045193">
        <ele>1704.55</ele>
        <time>2017-10-09T11:29:16Z</time>
      </trkpt>
      <trkpt lat="38.0326870736" lon="-2.7219159342">
        <ele>1703.11</ele>
        <time>2017-10-09T11:29:25Z</time>
      </trkpt>
      <trkpt lat="38.0327125546" lon="-2.7218206320">
        <ele>1703.11</ele>
        <time>2017-10-09T11:29:27Z</time>
      </trkpt>
      <trkpt lat="38.0327506084" lon="-2.7217377350">
        <ele>1703.11</ele>
        <time>2017-10-09T11:29:29Z</time>
      </trkpt>
      <trkpt lat="38.0330272112" lon="-2.7212409396">
        <ele>1702.15</ele>
        <time>2017-10-09T11:29:42Z</time>
      </trkpt>
      <trkpt lat="38.0331669375" lon="-2.7209084295">
        <ele>1700.71</ele>
        <time>2017-10-09T11:29:50Z</time>
      </trkpt>
      <trkpt lat="38.0331771635" lon="-2.7208598144">
        <ele>1700.71</ele>
        <time>2017-10-09T11:29:51Z</time>
      </trkpt>
      <trkpt lat="38.0331838690" lon="-2.7208111994">
        <ele>1700.23</ele>
        <time>2017-10-09T11:29:52Z</time>
      </trkpt>
      <trkpt lat="38.0331850424" lon="-2.7207573876">
        <ele>1700.23</ele>
        <time>2017-10-09T11:29:53Z</time>
      </trkpt>
      <trkpt lat="38.0331810191" lon="-2.7207018156">
        <ele>1699.75</ele>
        <time>2017-10-09T11:29:54Z</time>
      </trkpt>
      <trkpt lat="38.0331734754" lon="-2.7206467465">
        <ele>1699.75</ele>
        <time>2017-10-09T11:29:55Z</time>
      </trkpt>
      <trkpt lat="38.0331588909" lon="-2.7205970418">
        <ele>1699.27</ele>
        <time>2017-10-09T11:29:56Z</time>
      </trkpt>
      <trkpt lat="38.0331433844" lon="-2.7205520310">
        <ele>1699.27</ele>
        <time>2017-10-09T11:29:57Z</time>
      </trkpt>
      <trkpt lat="38.0330965295" lon="-2.7204633504">
        <ele>1699.27</ele>
        <time>2017-10-09T11:30:00Z</time>
      </trkpt>
      <trkpt lat="38.0330849625" lon="-2.7204358578">
        <ele>1698.79</ele>
        <time>2017-10-09T11:30:01Z</time>
      </trkpt>
      <trkpt lat="38.0330179911" lon="-2.7201909386">
        <ele>1696.86</ele>
        <time>2017-10-09T11:30:08Z</time>
      </trkpt>
      <trkpt lat="38.0331519339" lon="-2.7199682314">
        <ele>1697.34</ele>
        <time>2017-10-09T11:30:15Z</time>
      </trkpt>
      <trkpt lat="38.0334643275" lon="-2.7196729369">
        <ele>1697.83</ele>
        <time>2017-10-09T11:30:27Z</time>
      </trkpt>
      <trkpt lat="38.0336915608" lon="-2.7195277624">
        <ele>1697.83</ele>
        <time>2017-10-09T11:30:36Z</time>
      </trkpt>
      <trkpt lat="38.0340330396" lon="-2.7193461265">
        <ele>1696.86</ele>
        <time>2017-10-09T11:30:47Z</time>
      </trkpt>
      <trkpt lat="38.0340721831" lon="-2.7193262614">
        <ele>1696.38</ele>
        <time>2017-10-09T11:30:48Z</time>
      </trkpt>
      <trkpt lat="38.0344642885" lon="-2.7191180550">
        <ele>1693.98</ele>
        <time>2017-10-09T11:30:57Z</time>
      </trkpt>
      <trkpt lat="38.0347063579" lon="-2.7189679351">
        <ele>1692.54</ele>
        <time>2017-10-09T11:31:03Z</time>
      </trkpt>
      <trkpt lat="38.0348413065" lon="-2.7188648377">
        <ele>1691.10</ele>
        <time>2017-10-09T11:31:06Z</time>
      </trkpt>
      <trkpt lat="38.0348896701" lon="-2.7188302204">
        <ele>1690.62</ele>
        <time>2017-10-09T11:31:07Z</time>
      </trkpt>
      <trkpt lat="38.0349368602" lon="-2.7187906578">
        <ele>1690.62</ele>
        <time>2017-10-09T11:31:08Z</time>
      </trkpt>
      <trkpt lat="38.0351454858" lon="-2.7186248638">
        <ele>1689.17</ele>
        <time>2017-10-09T11:31:12Z</time>
      </trkpt>
      <trkpt lat="38.0353132915" lon="-2.7185096126">
        <ele>1688.69</ele>
        <time>2017-10-09T11:31:15Z</time>
      </trkpt>
      <trkpt lat="38.0353691150" lon="-2.7184848022">
        <ele>1688.21</ele>
        <time>2017-10-09T11:31:16Z</time>
      </trkpt>
      <trkpt lat="38.0354195740" lon="-2.7184648532">
        <ele>1687.73</ele>
        <time>2017-10-09T11:31:17Z</time>
      </trkpt>
      <trkpt lat="38.0356431194" lon="-2.7183677908">
        <ele>1690.14</ele>
        <time>2017-10-09T11:31:24Z</time>
      </trkpt>
      <trkpt lat="38.0358405970" lon="-2.7182405535">
        <ele>1691.10</ele>
        <time>2017-10-09T11:31:33Z</time>
      </trkpt>
      <trkpt lat="38.0359724443" lon="-2.7181481011">
        <ele>1690.62</ele>
        <time>2017-10-09T11:31:38Z</time>
      </trkpt>
      <trkpt lat="38.0361006036" lon="-2.7180641983">
        <ele>1689.17</ele>
        <time>2017-10-09T11:31:41Z</time>
      </trkpt>
      <trkpt lat="38.0361435190" lon="-2.7180276532">
        <ele>1688.69</ele>
        <time>2017-10-09T11:31:42Z</time>
      </trkpt>
      <trkpt lat="38.0362617038" lon="-2.7179088816">
        <ele>1688.69</ele>
        <time>2017-10-09T11:31:45Z</time>
      </trkpt>
      <trkpt lat="38.0363036972" lon="-2.7178772818">
        <ele>1688.69</ele>
        <time>2017-10-09T11:31:46Z</time>
      </trkpt>
      <trkpt lat="38.0363456905" lon="-2.7178420778">
        <ele>1688.21</ele>
        <time>2017-10-09T11:31:47Z</time>
      </trkpt>
      <trkpt lat="38.0363876000" lon="-2.7178032696">
        <ele>1688.21</ele>
        <time>2017-10-09T11:31:48Z</time>
      </trkpt>
      <trkpt lat="38.0364346225" lon="-2.7177651320">
        <ele>1687.73</ele>
        <time>2017-10-09T11:31:49Z</time>
      </trkpt>
      <trkpt lat="38.0364881828" lon="-2.7177298442">
        <ele>1686.29</ele>
        <time>2017-10-09T11:31:50Z</time>
      </trkpt>
      <trkpt lat="38.0365450960" lon="-2.7176936343">
        <ele>1685.81</ele>
        <time>2017-10-09T11:31:51Z</time>
      </trkpt>
      <trkpt lat="38.0366010871" lon="-2.7176505513">
        <ele>1685.81</ele>
        <time>2017-10-09T11:31:52Z</time>
      </trkpt>
      <trkpt lat="38.0370006524" lon="-2.7173117548">
        <ele>1684.85</ele>
        <time>2017-10-09T11:32:00Z</time>
      </trkpt>
      <trkpt lat="38.0370428972" lon="-2.7172906324">
        <ele>1684.37</ele>
        <time>2017-10-09T11:32:01Z</time>
      </trkpt>
      <trkpt lat="38.0372696277" lon="-2.7172021195">
        <ele>1684.37</ele>
        <time>2017-10-09T11:32:08Z</time>
      </trkpt>
      <trkpt lat="38.0374317337" lon="-2.7171607129">
        <ele>1685.33</ele>
        <time>2017-10-09T11:32:16Z</time>
      </trkpt>
      <trkpt lat="38.0376169737" lon="-2.7170755528">
        <ele>1687.25</ele>
        <time>2017-10-09T11:32:26Z</time>
      </trkpt>
      <trkpt lat="38.0376282893" lon="-2.7170620579">
        <ele>1687.73</ele>
        <time>2017-10-09T11:32:27Z</time>
      </trkpt>
      <trkpt lat="38.0376382638" lon="-2.7170416899">
        <ele>1688.69</ele>
        <time>2017-10-09T11:32:28Z</time>
      </trkpt>
      <trkpt lat="38.0376610626" lon="-2.7170030493">
        <ele>1688.69</ele>
        <time>2017-10-09T11:32:30Z</time>
      </trkpt>
      <trkpt lat="38.0376743898" lon="-2.7169927396">
        <ele>1688.69</ele>
        <time>2017-10-09T11:32:31Z</time>
      </trkpt>
      <trkpt lat="38.0376892257" lon="-2.7169801667">
        <ele>1688.69</ele>
        <time>2017-10-09T11:32:32Z</time>
      </trkpt>
      <trkpt lat="38.0377008766" lon="-2.7169555239">
        <ele>1688.69</ele>
        <time>2017-10-09T11:32:33Z</time>
      </trkpt>
      <trkpt lat="38.0377085041" lon="-2.7169189788">
        <ele>1688.69</ele>
        <time>2017-10-09T11:32:34Z</time>
      </trkpt>
      <trkpt lat="38.0377147067" lon="-2.7168754768">
        <ele>1688.69</ele>
        <time>2017-10-09T11:32:35Z</time>
      </trkpt>
      <trkpt lat="38.0377175566" lon="-2.7168275323">
        <ele>1688.21</ele>
        <time>2017-10-09T11:32:36Z</time>
      </trkpt>
      <trkpt lat="38.0377181433" lon="-2.7167800907">
        <ele>1688.21</ele>
        <time>2017-10-09T11:32:37Z</time>
      </trkpt>
      <trkpt lat="38.0377505813" lon="-2.7164554596">
        <ele>1688.69</ele>
        <time>2017-10-09T11:32:47Z</time>
      </trkpt>
      <trkpt lat="38.0377813429" lon="-2.7163191698">
        <ele>1688.69</ele>
        <time>2017-10-09T11:32:53Z</time>
      </trkpt>
      <trkpt lat="38.0379773118" lon="-2.7161895856">
        <ele>1689.65</ele>
        <time>2017-10-09T11:33:04Z</time>
      </trkpt>
      <trkpt lat="38.0382049643" lon="-2.7161004860">
        <ele>1690.14</ele>
        <time>2017-10-09T11:33:16Z</time>
      </trkpt>
      <trkpt lat="38.0382438563" lon="-2.7160755917">
        <ele>1690.14</ele>
        <time>2017-10-09T11:33:18Z</time>
      </trkpt>
      <trkpt lat="38.0382555071" lon="-2.7160560619">
        <ele>1690.14</ele>
        <time>2017-10-09T11:33:19Z</time>
      </trkpt>
      <trkpt lat="38.0382669903" lon="-2.7160413098">
        <ele>1690.14</ele>
        <time>2017-10-09T11:33:20Z</time>
      </trkpt>
      <trkpt lat="38.0382788926" lon="-2.7160315868">
        <ele>1690.14</ele>
        <time>2017-10-09T11:33:21Z</time>
      </trkpt>
      <trkpt lat="38.0382927228" lon="-2.7160224505">
        <ele>1690.14</ele>
        <time>2017-10-09T11:33:22Z</time>
      </trkpt>
      <trkpt lat="38.0385384802" lon="-2.7159541380">
        <ele>1689.65</ele>
        <time>2017-10-09T11:33:34Z</time>
      </trkpt>
      <trkpt lat="38.0386616942" lon="-2.7159284055">
        <ele>1689.65</ele>
        <time>2017-10-09T11:33:39Z</time>
      </trkpt>
      <trkpt lat="38.0386862531" lon="-2.7159127314">
        <ele>1689.65</ele>
        <time>2017-10-09T11:33:40Z</time>
      </trkpt>
      <trkpt lat="38.0387088004" lon="-2.7158995718">
        <ele>1689.65</ele>
        <time>2017-10-09T11:33:41Z</time>
      </trkpt>
      <trkpt lat="38.0387318507" lon="-2.7158844844">
        <ele>1689.65</ele>
        <time>2017-10-09T11:33:42Z</time>
      </trkpt>
      <trkpt lat="38.0387544818" lon="-2.7158720791">
        <ele>1689.65</ele>
        <time>2017-10-09T11:33:43Z</time>
      </trkpt>
      <trkpt lat="38.0387745984" lon="-2.7158597577">
        <ele>1689.65</ele>
        <time>2017-10-09T11:33:44Z</time>
      </trkpt>
      <trkpt lat="38.0387950502" lon="-2.7158497833">
        <ele>1689.65</ele>
        <time>2017-10-09T11:33:45Z</time>
      </trkpt>
      <trkpt lat="38.0388154183" lon="-2.7158337738">
        <ele>1689.65</ele>
        <time>2017-10-09T11:33:46Z</time>
      </trkpt>
      <trkpt lat="38.0388346128" lon="-2.7158176806">
        <ele>1690.14</ele>
        <time>2017-10-09T11:33:47Z</time>
      </trkpt>
      <trkpt lat="38.0388525501" lon="-2.7158020064">
        <ele>1690.14</ele>
        <time>2017-10-09T11:33:48Z</time>
      </trkpt>
      <trkpt lat="38.0388720799" lon="-2.7157897688">
        <ele>1690.14</ele>
        <time>2017-10-09T11:33:49Z</time>
      </trkpt>
      <trkpt lat="38.0388940405" lon="-2.7157784533">
        <ele>1690.14</ele>
        <time>2017-10-09T11:33:50Z</time>
      </trkpt>
      <trkpt lat="38.0389146600" lon="-2.7157645393">
        <ele>1690.14</ele>
        <time>2017-10-09T11:33:51Z</time>
      </trkpt>
      <trkpt lat="38.0389349442" lon="-2.7157538105">
        <ele>1690.14</ele>
        <time>2017-10-09T11:33:52Z</time>
      </trkpt>
      <trkpt lat="38.0389558151" lon="-2.7157416567">
        <ele>1690.14</ele>
        <time>2017-10-09T11:33:53Z</time>
      </trkpt>
      <trkpt lat="38.0389760155" lon="-2.7157265693">
        <ele>1690.14</ele>
        <time>2017-10-09T11:33:54Z</time>
      </trkpt>
      <trkpt lat="38.0389967188" lon="-2.7157099731">
        <ele>1690.14</ele>
        <time>2017-10-09T11:33:55Z</time>
      </trkpt>
      <trkpt lat="38.0390180927" lon="-2.7156933770">
        <ele>1690.62</ele>
        <time>2017-10-09T11:33:56Z</time>
      </trkpt>
      <trkpt lat="38.0390372872" lon="-2.7156761102">
        <ele>1690.62</ele>
        <time>2017-10-09T11:33:57Z</time>
      </trkpt>
      <trkpt lat="38.0392013211" lon="-2.7155047841">
        <ele>1690.62</ele>
        <time>2017-10-09T11:34:06Z</time>
      </trkpt>
      <trkpt lat="38.0393029097" lon="-2.7152738627">
        <ele>1691.10</ele>
        <time>2017-10-09T11:34:16Z</time>
      </trkpt>
      <trkpt lat="38.0394059233" lon="-2.7149268519">
        <ele>1688.69</ele>
        <time>2017-10-09T11:34:23Z</time>
      </trkpt>
      <trkpt lat="38.0394148082" lon="-2.7148483973">
        <ele>1688.21</ele>
        <time>2017-10-09T11:34:24Z</time>
      </trkpt>
      <trkpt lat="38.0394209269" lon="-2.7147666737">
        <ele>1687.73</ele>
        <time>2017-10-09T11:34:25Z</time>
      </trkpt>
      <trkpt lat="38.0394856352" lon="-2.7140542120">
        <ele>1687.73</ele>
        <time>2017-10-09T11:34:35Z</time>
      </trkpt>
      <trkpt lat="38.0395492539" lon="-2.7138431557">
        <ele>1687.73</ele>
        <time>2017-10-09T11:34:39Z</time>
      </trkpt>
      <trkpt lat="38.0395600665" lon="-2.7137924451">
        <ele>1687.73</ele>
        <time>2017-10-09T11:34:40Z</time>
      </trkpt>
      <trkpt lat="38.0397063307" lon="-2.7134428360">
        <ele>1689.65</ele>
        <time>2017-10-09T11:34:50Z</time>
      </trkpt>
      <trkpt lat="38.0398871284" lon="-2.7132667322">
        <ele>1691.58</ele>
        <time>2017-10-09T11:34:59Z</time>
      </trkpt>
      <trkpt lat="38.0399751384" lon="-2.7130408399">
        <ele>1693.02</ele>
        <time>2017-10-09T11:35:08Z</time>
      </trkpt>
      <trkpt lat="38.0399737135" lon="-2.7130138502">
        <ele>1693.02</ele>
        <time>2017-10-09T11:35:09Z</time>
      </trkpt>
      <trkpt lat="38.0399748031" lon="-2.7129920572">
        <ele>1693.50</ele>
        <time>2017-10-09T11:35:10Z</time>
      </trkpt>
      <trkpt lat="38.0399757251" lon="-2.7129754610">
        <ele>1693.50</ele>
        <time>2017-10-09T11:35:11Z</time>
      </trkpt>
      <trkpt lat="38.0399735458" lon="-2.7129609603">
        <ele>1693.50</ele>
        <time>2017-10-09T11:35:12Z</time>
      </trkpt>
      <trkpt lat="38.0399735458" lon="-2.7129445318">
        <ele>1693.98</ele>
        <time>2017-10-09T11:35:13Z</time>
      </trkpt>
      <trkpt lat="38.0399695225" lon="-2.7129307017">
        <ele>1694.46</ele>
        <time>2017-10-09T11:35:14Z</time>
      </trkpt>
      <trkpt lat="38.0399644934" lon="-2.7129096631">
        <ele>1693.98</ele>
        <time>2017-10-09T11:35:16Z</time>
      </trkpt>
      <trkpt lat="38.0399650801" lon="-2.7128964197">
        <ele>1694.46</ele>
        <time>2017-10-09T11:35:17Z</time>
      </trkpt>
      <trkpt lat="38.0399628170" lon="-2.7128799073">
        <ele>1694.46</ele>
        <time>2017-10-09T11:35:18Z</time>
      </trkpt>
      <trkpt lat="38.0399626493" lon="-2.7128524147">
        <ele>1693.50</ele>
        <time>2017-10-09T11:35:20Z</time>
      </trkpt>
      <trkpt lat="38.0399546865" lon="-2.7128352318">
        <ele>1694.94</ele>
        <time>2017-10-09T11:35:30Z</time>
      </trkpt>
      <trkpt lat="38.0399539322" lon="-2.7128286939">
        <ele>1694.94</ele>
        <time>2017-10-09T11:35:47Z</time>
      </trkpt>
      <trkpt lat="38.0399566144" lon="-2.7128262632">
        <ele>1694.94</ele>
        <time>2017-10-09T11:36:08Z</time>
      </trkpt>
      <trkpt lat="38.0399438739" lon="-2.7127748821">
        <ele>1694.94</ele>
        <time>2017-10-09T11:36:25Z</time>
      </trkpt>
      <trkpt lat="38.0399416946" lon="-2.7127556875">
        <ele>1695.42</ele>
        <time>2017-10-09T11:36:26Z</time>
      </trkpt>
      <trkpt lat="38.0399400182" lon="-2.7127358224">
        <ele>1694.94</ele>
        <time>2017-10-09T11:36:27Z</time>
      </trkpt>
      <trkpt lat="38.0399375036" lon="-2.7127136104">
        <ele>1695.42</ele>
        <time>2017-10-09T11:36:28Z</time>
      </trkpt>
      <trkpt lat="38.0399304628" lon="-2.7126924042">
        <ele>1695.42</ele>
        <time>2017-10-09T11:36:29Z</time>
      </trkpt>
      <trkpt lat="38.0399239250" lon="-2.7126706112">
        <ele>1695.42</ele>
        <time>2017-10-09T11:36:30Z</time>
      </trkpt>
      <trkpt lat="38.0399199855" lon="-2.7126479801">
        <ele>1695.42</ele>
        <time>2017-10-09T11:36:31Z</time>
      </trkpt>
      <trkpt lat="38.0399106815" lon="-2.7125280350">
        <ele>1695.42</ele>
        <time>2017-10-09T11:36:37Z</time>
      </trkpt>
      <trkpt lat="38.0399047304" lon="-2.7125011291">
        <ele>1695.42</ele>
        <time>2017-10-09T11:36:38Z</time>
      </trkpt>
      <trkpt lat="38.0398951750" lon="-2.7124711219">
        <ele>1695.42</ele>
        <time>2017-10-09T11:36:39Z</time>
      </trkpt>
      <trkpt lat="38.0398827698" lon="-2.7124423720">
        <ele>1695.42</ele>
        <time>2017-10-09T11:36:40Z</time>
      </trkpt>
      <trkpt lat="38.0398753099" lon="-2.7124099340">
        <ele>1694.94</ele>
        <time>2017-10-09T11:36:41Z</time>
      </trkpt>
      <trkpt lat="38.0398697779" lon="-2.7123759873">
        <ele>1694.94</ele>
        <time>2017-10-09T11:36:42Z</time>
      </trkpt>
      <trkpt lat="38.0398640782" lon="-2.7123412024">
        <ele>1694.94</ele>
        <time>2017-10-09T11:36:43Z</time>
      </trkpt>
      <trkpt lat="38.0398578756" lon="-2.7123046573">
        <ele>1694.94</ele>
        <time>2017-10-09T11:36:44Z</time>
      </trkpt>
      <trkpt lat="38.0398960970" lon="-2.7119978797">
        <ele>1693.98</ele>
        <time>2017-10-09T11:36:51Z</time>
      </trkpt>
      <trkpt lat="38.0399225838" lon="-2.7119568083">
        <ele>1693.98</ele>
        <time>2017-10-09T11:36:52Z</time>
      </trkpt>
      <trkpt lat="38.0399574526" lon="-2.7119295672">
        <ele>1693.98</ele>
        <time>2017-10-09T11:36:53Z</time>
      </trkpt>
      <trkpt lat="38.0402201414" lon="-2.7117007412">
        <ele>1691.58</ele>
        <time>2017-10-09T11:37:01Z</time>
      </trkpt>
      <trkpt lat="38.0402504839" lon="-2.7116618492">
        <ele>1691.10</ele>
        <time>2017-10-09T11:37:02Z</time>
      </trkpt>
      <trkpt lat="38.0402799044" lon="-2.7116232924">
        <ele>1690.62</ele>
        <time>2017-10-09T11:37:03Z</time>
      </trkpt>
      <trkpt lat="38.0403049663" lon="-2.7115810476">
        <ele>1690.62</ele>
        <time>2017-10-09T11:37:04Z</time>
      </trkpt>
      <trkpt lat="38.0403221492" lon="-2.7115358692">
        <ele>1690.14</ele>
        <time>2017-10-09T11:37:05Z</time>
      </trkpt>
      <trkpt lat="38.0403354764" lon="-2.7114898525">
        <ele>1690.14</ele>
        <time>2017-10-09T11:37:06Z</time>
      </trkpt>
      <trkpt lat="38.0403455347" lon="-2.7114458475">
        <ele>1689.65</ele>
        <time>2017-10-09T11:37:07Z</time>
      </trkpt>
      <trkpt lat="38.0403556768" lon="-2.7114028484">
        <ele>1689.65</ele>
        <time>2017-10-09T11:37:08Z</time>
      </trkpt>
      <trkpt lat="38.0403617118" lon="-2.7113581728">
        <ele>1689.17</ele>
        <time>2017-10-09T11:37:09Z</time>
      </trkpt>
      <trkpt lat="38.0403617956" lon="-2.7113079652">
        <ele>1689.17</ele>
        <time>2017-10-09T11:37:10Z</time>
      </trkpt>
      <trkpt lat="38.0403554253" lon="-2.7111518104">
        <ele>1687.73</ele>
        <time>2017-10-09T11:37:13Z</time>
      </trkpt>
      <trkpt lat="38.0402983446" lon="-2.7107623033">
        <ele>1684.85</ele>
        <time>2017-10-09T11:37:20Z</time>
      </trkpt>
      <trkpt lat="38.0402998533" lon="-2.7106964216">
        <ele>1684.85</ele>
        <time>2017-10-09T11:37:21Z</time>
      </trkpt>
      <trkpt lat="38.0403146893" lon="-2.7106338926">
        <ele>1684.37</ele>
        <time>2017-10-09T11:37:22Z</time>
      </trkpt>
      <trkpt lat="38.0403446965" lon="-2.7105854452">
        <ele>1684.37</ele>
        <time>2017-10-09T11:37:23Z</time>
      </trkpt>
      <trkpt lat="38.0403811578" lon="-2.7105505764">
        <ele>1684.37</ele>
        <time>2017-10-09T11:37:24Z</time>
      </trkpt>
      <trkpt lat="38.0404158588" lon="-2.7105215751">
        <ele>1684.37</ele>
        <time>2017-10-09T11:37:25Z</time>
      </trkpt>
      <trkpt lat="38.0404482130" lon="-2.7104965132">
        <ele>1684.85</ele>
        <time>2017-10-09T11:37:26Z</time>
      </trkpt>
      <trkpt lat="38.0404828303" lon="-2.7104772348">
        <ele>1684.85</ele>
        <time>2017-10-09T11:37:27Z</time>
      </trkpt>
      <trkpt lat="38.0405159388" lon="-2.7104648296">
        <ele>1684.85</ele>
        <time>2017-10-09T11:37:28Z</time>
      </trkpt>
      <trkpt lat="38.0407286715" lon="-2.7103266120">
        <ele>1685.33</ele>
        <time>2017-10-09T11:37:37Z</time>
      </trkpt>
      <trkpt lat="38.0409248080" lon="-2.7101892326">
        <ele>1686.29</ele>
        <time>2017-10-09T11:37:47Z</time>
      </trkpt>
      <trkpt lat="38.0411057733" lon="-2.7100574691">
        <ele>1687.25</ele>
        <time>2017-10-09T11:37:59Z</time>
      </trkpt>
      <trkpt lat="38.0413024127" lon="-2.7098842990">
        <ele>1688.21</ele>
        <time>2017-10-09T11:38:11Z</time>
      </trkpt>
      <trkpt lat="38.0414169095" lon="-2.7096775174">
        <ele>1689.17</ele>
        <time>2017-10-09T11:38:22Z</time>
      </trkpt>
      <trkpt lat="38.0415050033" lon="-2.7094525471">
        <ele>1688.21</ele>
        <time>2017-10-09T11:38:31Z</time>
      </trkpt>
      <trkpt lat="38.0415570550" lon="-2.7092838194">
        <ele>1686.29</ele>
        <time>2017-10-09T11:38:37Z</time>
      </trkpt>
      <trkpt lat="38.0416358449" lon="-2.7091162652">
        <ele>1684.85</ele>
        <time>2017-10-09T11:38:42Z</time>
      </trkpt>
      <trkpt lat="38.0417445581" lon="-2.7088613715">
        <ele>1683.41</ele>
        <time>2017-10-09T11:38:48Z</time>
      </trkpt>
      <trkpt lat="38.0417836178" lon="-2.7085549291">
        <ele>1681.96</ele>
        <time>2017-10-09T11:38:55Z</time>
      </trkpt>
      <trkpt lat="38.0418050755" lon="-2.7084589563">
        <ele>1681.00</ele>
        <time>2017-10-09T11:38:59Z</time>
      </trkpt>
      <trkpt lat="38.0418191571" lon="-2.7084411867">
        <ele>1680.52</ele>
        <time>2017-10-09T11:39:00Z</time>
      </trkpt>
      <trkpt lat="38.0418359209" lon="-2.7084167115">
        <ele>1680.04</ele>
        <time>2017-10-09T11:39:01Z</time>
      </trkpt>
      <trkpt lat="38.0418555345" lon="-2.7083864529">
        <ele>1679.56</ele>
        <time>2017-10-09T11:39:02Z</time>
      </trkpt>
      <trkpt lat="38.0418817699" lon="-2.7083530091">
        <ele>1679.56</ele>
        <time>2017-10-09T11:39:03Z</time>
      </trkpt>
      <trkpt lat="38.0419168901" lon="-2.7083234210">
        <ele>1679.08</ele>
        <time>2017-10-09T11:39:04Z</time>
      </trkpt>
      <trkpt lat="38.0419561174" lon="-2.7082934976">
        <ele>1678.60</ele>
        <time>2017-10-09T11:39:05Z</time>
      </trkpt>
      <trkpt lat="38.0421130266" lon="-2.7081218362">
        <ele>1677.16</ele>
        <time>2017-10-09T11:39:09Z</time>
      </trkpt>
      <trkpt lat="38.0421496555" lon="-2.7080686949">
        <ele>1676.20</ele>
        <time>2017-10-09T11:39:10Z</time>
      </trkpt>
      <trkpt lat="38.0422115978" lon="-2.7079588920">
        <ele>1675.72</ele>
        <time>2017-10-09T11:39:12Z</time>
      </trkpt>
      <trkpt lat="38.0422426946" lon="-2.7079013083">
        <ele>1675.23</ele>
        <time>2017-10-09T11:39:13Z</time>
      </trkpt>
      <trkpt lat="38.0422739591" lon="-2.7078408748">
        <ele>1674.75</ele>
        <time>2017-10-09T11:39:14Z</time>
      </trkpt>
      <trkpt lat="38.0423010327" lon="-2.7077740710">
        <ele>1674.27</ele>
        <time>2017-10-09T11:39:15Z</time>
      </trkpt>
      <trkpt lat="38.0423234962" lon="-2.7077008132">
        <ele>1673.79</ele>
        <time>2017-10-09T11:39:16Z</time>
      </trkpt>
      <trkpt lat="38.0423431098" lon="-2.7076220233">
        <ele>1673.31</ele>
        <time>2017-10-09T11:39:17Z</time>
      </trkpt>
      <trkpt lat="38.0424016155" lon="-2.7073176764">
        <ele>1672.35</ele>
        <time>2017-10-09T11:39:23Z</time>
      </trkpt>
      <trkpt lat="38.0425197165" lon="-2.7070207894">
        <ele>1669.95</ele>
        <time>2017-10-09T11:39:31Z</time>
      </trkpt>
      <trkpt lat="38.0426755361" lon="-2.7068193723">
        <ele>1667.54</ele>
        <time>2017-10-09T11:39:39Z</time>
      </trkpt>
      <trkpt lat="38.0427882727" lon="-2.7067311108">
        <ele>1665.62</ele>
        <time>2017-10-09T11:39:44Z</time>
      </trkpt>
      <trkpt lat="38.0428860057" lon="-2.7066592779">
        <ele>1664.66</ele>
        <time>2017-10-09T11:39:47Z</time>
      </trkpt>
      <trkpt lat="38.0430407356" lon="-2.7065349743">
        <ele>1662.74</ele>
        <time>2017-10-09T11:39:51Z</time>
      </trkpt>
      <trkpt lat="38.0435262155" lon="-2.7061082516">
        <ele>1661.30</ele>
        <time>2017-10-09T11:40:02Z</time>
      </trkpt>
      <trkpt lat="38.0435523670" lon="-2.7060662583">
        <ele>1661.30</ele>
        <time>2017-10-09T11:40:03Z</time>
      </trkpt>
      <trkpt lat="38.0436312407" lon="-2.7058152203">
        <ele>1662.26</ele>
        <time>2017-10-09T11:40:12Z</time>
      </trkpt>
      <trkpt lat="38.0436561350" lon="-2.7055830415">
        <ele>1663.22</ele>
        <time>2017-10-09T11:40:24Z</time>
      </trkpt>
      <trkpt lat="38.0436923448" lon="-2.7054138109">
        <ele>1663.70</ele>
        <time>2017-10-09T11:40:32Z</time>
      </trkpt>
      <trkpt lat="38.0437055044" lon="-2.7053390443">
        <ele>1664.18</ele>
        <time>2017-10-09T11:40:35Z</time>
      </trkpt>
      <trkpt lat="38.0436339229" lon="-2.7050774451">
        <ele>1665.14</ele>
        <time>2017-10-09T11:40:46Z</time>
      </trkpt>
      <trkpt lat="38.0436069332" lon="-2.7050036844">
        <ele>1665.62</ele>
        <time>2017-10-09T11:40:54Z</time>
      </trkpt>
      <trkpt lat="38.0435663648" lon="-2.7048511337">
        <ele>1666.58</ele>
        <time>2017-10-09T11:41:07Z</time>
      </trkpt>
      <trkpt lat="38.0435323343" lon="-2.7046789695">
        <ele>1668.02</ele>
        <time>2017-10-09T11:41:21Z</time>
      </trkpt>
      <trkpt lat="38.0435197614" lon="-2.7045579348">
        <ele>1668.99</ele>
        <time>2017-10-09T11:41:31Z</time>
      </trkpt>
      <trkpt lat="38.0435095355" lon="-2.7043711022">
        <ele>1670.43</ele>
        <time>2017-10-09T11:41:46Z</time>
      </trkpt>
      <trkpt lat="38.0435138941" lon="-2.7041924838">
        <ele>1671.39</ele>
        <time>2017-10-09T11:41:59Z</time>
      </trkpt>
      <trkpt lat="38.0435119662" lon="-2.7041808330">
        <ele>1671.39</ele>
        <time>2017-10-09T11:42:00Z</time>
      </trkpt>
      <trkpt lat="38.0435080267" lon="-2.7041686792">
        <ele>1671.39</ele>
        <time>2017-10-09T11:42:01Z</time>
      </trkpt>
      <trkpt lat="38.0434998963" lon="-2.7040735446">
        <ele>1672.35</ele>
        <time>2017-10-09T11:42:09Z</time>
      </trkpt>
      <trkpt lat="38.0435273889" lon="-2.7039259393">
        <ele>1673.79</ele>
        <time>2017-10-09T11:42:22Z</time>
      </trkpt>
      <trkpt lat="38.0435272213" lon="-2.7037772443">
        <ele>1675.72</ele>
        <time>2017-10-09T11:42:35Z</time>
      </trkpt>
      <trkpt lat="38.0435425602" lon="-2.7036136296">
        <ele>1677.64</ele>
        <time>2017-10-09T11:42:48Z</time>
      </trkpt>
      <trkpt lat="38.0435639340" lon="-2.7034905832">
        <ele>1679.08</ele>
        <time>2017-10-09T11:43:00Z</time>
      </trkpt>
      <trkpt lat="38.0435877386" lon="-2.7033723984">
        <ele>1681.00</ele>
        <time>2017-10-09T11:43:13Z</time>
      </trkpt>
      <trkpt lat="38.0435969587" lon="-2.7032598294">
        <ele>1681.96</ele>
        <time>2017-10-09T11:43:25Z</time>
      </trkpt>
      <trkpt lat="38.0436187517" lon="-2.7030996513">
        <ele>1682.93</ele>
        <time>2017-10-09T11:43:38Z</time>
      </trkpt>
      <trkpt lat="38.0436814483" lon="-2.7029403113">
        <ele>1684.37</ele>
        <time>2017-10-09T11:43:51Z</time>
      </trkpt>
      <trkpt lat="38.0437347572" lon="-2.7028260659">
        <ele>1685.81</ele>
        <time>2017-10-09T11:44:02Z</time>
      </trkpt>
      <trkpt lat="38.0437418818" lon="-2.7028048597">
        <ele>1685.81</ele>
        <time>2017-10-09T11:44:04Z</time>
      </trkpt>
      <trkpt lat="38.0437448993" lon="-2.7027926221">
        <ele>1685.81</ele>
        <time>2017-10-09T11:44:05Z</time>
      </trkpt>
      <trkpt lat="38.0437499285" lon="-2.7027779538">
        <ele>1686.29</ele>
        <time>2017-10-09T11:44:06Z</time>
      </trkpt>
      <trkpt lat="38.0437969510" lon="-2.7025984973">
        <ele>1687.25</ele>
        <time>2017-10-09T11:44:22Z</time>
      </trkpt>
      <trkpt lat="38.0438549537" lon="-2.7024220582">
        <ele>1689.17</ele>
        <time>2017-10-09T11:44:36Z</time>
      </trkpt>
      <trkpt lat="38.0439138785" lon="-2.7022856846">
        <ele>1690.14</ele>
        <time>2017-10-09T11:44:48Z</time>
      </trkpt>
      <trkpt lat="38.0439269543" lon="-2.7022552583">
        <ele>1690.62</ele>
        <time>2017-10-09T11:44:51Z</time>
      </trkpt>
      <trkpt lat="38.0440248549" lon="-2.7021576930">
        <ele>1691.58</ele>
        <time>2017-10-09T11:45:03Z</time>
      </trkpt>
      <trkpt lat="38.0440923292" lon="-2.7021186333">
        <ele>1692.06</ele>
        <time>2017-10-09T11:45:16Z</time>
      </trkpt>
      <trkpt lat="38.0440874677" lon="-2.7021336369">
        <ele>1691.58</ele>
        <time>2017-10-09T11:45:40Z</time>
      </trkpt>
      <trkpt lat="38.0440847017" lon="-2.7021345589">
        <ele>1691.58</ele>
        <time>2017-10-09T11:46:04Z</time>
      </trkpt>
      <trkpt lat="38.0440864619" lon="-2.7021379117">
        <ele>1692.06</ele>
        <time>2017-10-09T11:46:23Z</time>
      </trkpt>
      <trkpt lat="38.0440827738" lon="-2.7021351457">
        <ele>1692.06</ele>
        <time>2017-10-09T11:46:45Z</time>
      </trkpt>
      <trkpt lat="38.0440860428" lon="-2.7021295298">
        <ele>1692.06</ele>
        <time>2017-10-09T11:47:01Z</time>
      </trkpt>
      <trkpt lat="38.0440856237" lon="-2.7021343913">
        <ele>1692.06</ele>
        <time>2017-10-09T11:47:20Z</time>
      </trkpt>
      <trkpt lat="38.0440882221" lon="-2.7021406777">
        <ele>1691.58</ele>
        <time>2017-10-09T11:47:40Z</time>
      </trkpt>
      <trkpt lat="38.0440915748" lon="-2.7021366544">
        <ele>1692.54</ele>
        <time>2017-10-09T11:47:59Z</time>
      </trkpt>
      <trkpt lat="38.0441700295" lon="-2.7020576969">
        <ele>1692.06</ele>
        <time>2017-10-09T11:48:09Z</time>
      </trkpt>
      <trkpt lat="38.0442276970" lon="-2.7019361593">
        <ele>1691.10</ele>
        <time>2017-10-09T11:48:15Z</time>
      </trkpt>
      <trkpt lat="38.0442386772" lon="-2.7016789187">
        <ele>1689.65</ele>
        <time>2017-10-09T11:48:21Z</time>
      </trkpt>
      <trkpt lat="38.0442572851" lon="-2.7016250230">
        <ele>1689.17</ele>
        <time>2017-10-09T11:48:22Z</time>
      </trkpt>
      <trkpt lat="38.0442884658" lon="-2.7015819401">
        <ele>1689.17</ele>
        <time>2017-10-09T11:48:23Z</time>
      </trkpt>
      <trkpt lat="38.0443200655" lon="-2.7015475743">
        <ele>1689.65</ele>
        <time>2017-10-09T11:48:24Z</time>
      </trkpt>
      <trkpt lat="38.0443524197" lon="-2.7015179023">
        <ele>1689.65</ele>
        <time>2017-10-09T11:48:25Z</time>
      </trkpt>
      <trkpt lat="38.0443820916" lon="-2.7014914155">
        <ele>1689.65</ele>
        <time>2017-10-09T11:48:26Z</time>
      </trkpt>
      <trkpt lat="38.0444084946" lon="-2.7014662698">
        <ele>1689.65</ele>
        <time>2017-10-09T11:48:27Z</time>
      </trkpt>
      <trkpt lat="38.0444351491" lon="-2.7014448959">
        <ele>1689.65</ele>
        <time>2017-10-09T11:48:28Z</time>
      </trkpt>
      <trkpt lat="38.0444813333" lon="-2.7013806906">
        <ele>1690.14</ele>
        <time>2017-10-09T11:48:31Z</time>
      </trkpt>
      <trkpt lat="38.0444987677" lon="-2.7013673633">
        <ele>1690.14</ele>
        <time>2017-10-09T11:48:32Z</time>
      </trkpt>
      <trkpt lat="38.0447760411" lon="-2.7011694666">
        <ele>1689.17</ele>
        <time>2017-10-09T11:48:43Z</time>
      </trkpt>
      <trkpt lat="38.0449311901" lon="-2.7010720689">
        <ele>1688.21</ele>
        <time>2017-10-09T11:48:47Z</time>
      </trkpt>
      <trkpt lat="38.0449657235" lon="-2.7010383736">
        <ele>1688.21</ele>
        <time>2017-10-09T11:48:48Z</time>
      </trkpt>
      <trkpt lat="38.0451896880" lon="-2.7008342743">
        <ele>1688.69</ele>
        <time>2017-10-09T11:48:57Z</time>
      </trkpt>
      <trkpt lat="38.0454877485" lon="-2.7006385569">
        <ele>1689.65</ele>
        <time>2017-10-09T11:49:10Z</time>
      </trkpt>
      <trkpt lat="38.0458093621" lon="-2.7004346251">
        <ele>1689.65</ele>
        <time>2017-10-09T11:49:23Z</time>
      </trkpt>
      <trkpt lat="38.0460450612" lon="-2.7001910470">
        <ele>1689.65</ele>
        <time>2017-10-09T11:49:35Z</time>
      </trkpt>
      <trkpt lat="38.0462757312" lon="-2.6999525819">
        <ele>1687.73</ele>
        <time>2017-10-09T11:49:42Z</time>
      </trkpt>
      <trkpt lat="38.0463600531" lon="-2.6998455450">
        <ele>1687.25</ele>
        <time>2017-10-09T11:49:44Z</time>
      </trkpt>
      <trkpt lat="38.0465171300" lon="-2.6996727940">
        <ele>1686.29</ele>
        <time>2017-10-09T11:49:48Z</time>
      </trkpt>
      <trkpt lat="38.0469097383" lon="-2.6993767451">
        <ele>1685.81</ele>
        <time>2017-10-09T11:49:58Z</time>
      </trkpt>
      <trkpt lat="38.0471208785" lon="-2.6991312392">
        <ele>1685.33</ele>
        <time>2017-10-09T11:50:07Z</time>
      </trkpt>
      <trkpt lat="38.0473920330" lon="-2.6988361124">
        <ele>1684.85</ele>
        <time>2017-10-09T11:50:16Z</time>
      </trkpt>
      <trkpt lat="38.0474286620" lon="-2.6988185104">
        <ele>1684.85</ele>
        <time>2017-10-09T11:50:17Z</time>
      </trkpt>
      <trkpt lat="38.0477343500" lon="-2.6985998265">
        <ele>1686.29</ele>
        <time>2017-10-09T11:50:28Z</time>
      </trkpt>
      <trkpt lat="38.0479392037" lon="-2.6983198710">
        <ele>1682.93</ele>
        <time>2017-10-09T11:50:36Z</time>
      </trkpt>
      <trkpt lat="38.0481023993" lon="-2.6981353015">
        <ele>1679.56</ele>
        <time>2017-10-09T11:50:41Z</time>
      </trkpt>
      <trkpt lat="38.0482776649" lon="-2.6979133487">
        <ele>1676.68</ele>
        <time>2017-10-09T11:50:47Z</time>
      </trkpt>
      <trkpt lat="38.0483543593" lon="-2.6978108380">
        <ele>1674.75</ele>
        <time>2017-10-09T11:50:50Z</time>
      </trkpt>
      <trkpt lat="38.0485594645" lon="-2.6975793298">
        <ele>1671.39</ele>
        <time>2017-10-09T11:50:58Z</time>
      </trkpt>
      <trkpt lat="38.0486768950" lon="-2.6974509191">
        <ele>1669.47</ele>
        <time>2017-10-09T11:51:03Z</time>
      </trkpt>
      <trkpt lat="38.0487172958" lon="-2.6974334009">
        <ele>1669.47</ele>
        <time>2017-10-09T11:51:04Z</time>
      </trkpt>
      <trkpt lat="38.0487559363" lon="-2.6974232588">
        <ele>1668.51</ele>
        <time>2017-10-09T11:51:05Z</time>
      </trkpt>
      <trkpt lat="38.0487907212" lon="-2.6974180620">
        <ele>1668.02</ele>
        <time>2017-10-09T11:51:06Z</time>
      </trkpt>
      <trkpt lat="38.0488251708" lon="-2.6974117756">
        <ele>1667.54</ele>
        <time>2017-10-09T11:51:07Z</time>
      </trkpt>
      <trkpt lat="38.0488626380" lon="-2.6974003762">
        <ele>1667.06</ele>
        <time>2017-10-09T11:51:08Z</time>
      </trkpt>
      <trkpt lat="38.0489988439" lon="-2.6973309740">
        <ele>1664.66</ele>
        <time>2017-10-09T11:51:14Z</time>
      </trkpt>
      <trkpt lat="38.0491827428" lon="-2.6971626654">
        <ele>1661.78</ele>
        <time>2017-10-09T11:51:22Z</time>
      </trkpt>
      <trkpt lat="38.0493404064" lon="-2.6969904173">
        <ele>1659.37</ele>
        <time>2017-10-09T11:51:28Z</time>
      </trkpt>
      <trkpt lat="38.0493833218" lon="-2.6969634276">
        <ele>1658.89</ele>
        <time>2017-10-09T11:51:29Z</time>
      </trkpt>
      <trkpt lat="38.0494731758" lon="-2.6969150640">
        <ele>1657.93</ele>
        <time>2017-10-09T11:51:31Z</time>
      </trkpt>
      <trkpt lat="38.0497465935" lon="-2.6967552211">
        <ele>1654.57</ele>
        <time>2017-10-09T11:51:36Z</time>
      </trkpt>
      <trkpt lat="38.0498060212" lon="-2.6967165805">
        <ele>1654.09</ele>
        <time>2017-10-09T11:51:37Z</time>
      </trkpt>
      <trkpt lat="38.0500111263" lon="-2.6966071967">
        <ele>1652.64</ele>
        <time>2017-10-09T11:51:41Z</time>
      </trkpt>
      <trkpt lat="38.0501123797" lon="-2.6965792850">
        <ele>1651.68</ele>
        <time>2017-10-09T11:51:43Z</time>
      </trkpt>
      <trkpt lat="38.0503942631" lon="-2.6965297479">
        <ele>1648.32</ele>
        <time>2017-10-09T11:51:49Z</time>
      </trkpt>
      <trkpt lat="38.0507438723" lon="-2.6965148281">
        <ele>1644.95</ele>
        <time>2017-10-09T11:51:56Z</time>
      </trkpt>
      <trkpt lat="38.0509654898" lon="-2.6965905167">
        <ele>1641.59</ele>
        <time>2017-10-09T11:52:00Z</time>
      </trkpt>
      <trkpt lat="38.0510587804" lon="-2.6966301631">
        <ele>1640.15</ele>
        <time>2017-10-09T11:52:02Z</time>
      </trkpt>
      <trkpt lat="38.0511024501" lon="-2.6966553088">
        <ele>1640.15</ele>
        <time>2017-10-09T11:52:03Z</time>
      </trkpt>
      <trkpt lat="38.0512788054" lon="-2.6967294887">
        <ele>1638.22</ele>
        <time>2017-10-09T11:52:07Z</time>
      </trkpt>
      <trkpt lat="38.0513223074" lon="-2.6967330091">
        <ele>1637.74</ele>
        <time>2017-10-09T11:52:08Z</time>
      </trkpt>
      <trkpt lat="38.0513554998" lon="-2.6967370324">
        <ele>1637.26</ele>
        <time>2017-10-09T11:52:09Z</time>
      </trkpt>
      <trkpt lat="38.0513840821" lon="-2.6967481803">
        <ele>1636.78</ele>
        <time>2017-10-09T11:52:10Z</time>
      </trkpt>
      <trkpt lat="38.0514204595" lon="-2.6967672911">
        <ele>1636.30</ele>
        <time>2017-10-09T11:52:11Z</time>
      </trkpt>
      <trkpt lat="38.0514625367" lon="-2.6967919338">
        <ele>1636.78</ele>
        <time>2017-10-09T11:52:12Z</time>
      </trkpt>
      <trkpt lat="38.0515951384" lon="-2.6968601625">
        <ele>1634.86</ele>
        <time>2017-10-09T11:52:15Z</time>
      </trkpt>
      <trkpt lat="38.0516352039" lon="-2.6968687959">
        <ele>1634.86</ele>
        <time>2017-10-09T11:52:16Z</time>
      </trkpt>
      <trkpt lat="38.0518093798" lon="-2.6968967076">
        <ele>1633.42</ele>
        <time>2017-10-09T11:52:20Z</time>
      </trkpt>
      <trkpt lat="38.0519693065" lon="-2.6969407964">
        <ele>1631.98</ele>
        <time>2017-10-09T11:52:23Z</time>
      </trkpt>
      <trkpt lat="38.0520316679" lon="-2.6969468314">
        <ele>1631.98</ele>
        <time>2017-10-09T11:52:24Z</time>
      </trkpt>
      <trkpt lat="38.0520934425" lon="-2.6969506871">
        <ele>1631.01</ele>
        <time>2017-10-09T11:52:25Z</time>
      </trkpt>
      <trkpt lat="38.0522109568" lon="-2.6969756652">
        <ele>1631.01</ele>
        <time>2017-10-09T11:52:27Z</time>
      </trkpt>
      <trkpt lat="38.0522637628" lon="-2.6970021520">
        <ele>1631.01</ele>
        <time>2017-10-09T11:52:28Z</time>
      </trkpt>
      <trkpt lat="38.0525538605" lon="-2.6972024795">
        <ele>1629.57</ele>
        <time>2017-10-09T11:52:34Z</time>
      </trkpt>
      <trkpt lat="38.0525997095" lon="-2.6972451434">
        <ele>1629.09</ele>
        <time>2017-10-09T11:52:35Z</time>
      </trkpt>
      <trkpt lat="38.0526839476" lon="-2.6973281242">
        <ele>1628.13</ele>
        <time>2017-10-09T11:52:37Z</time>
      </trkpt>
      <trkpt lat="38.0527277011" lon="-2.6973590534">
        <ele>1628.13</ele>
        <time>2017-10-09T11:52:38Z</time>
      </trkpt>
      <trkpt lat="38.0527798366" lon="-2.6973805949">
        <ele>1627.65</ele>
        <time>2017-10-09T11:52:39Z</time>
      </trkpt>
      <trkpt lat="38.0529271066" lon="-2.6974241808">
        <ele>1625.25</ele>
        <time>2017-10-09T11:52:42Z</time>
      </trkpt>
      <trkpt lat="38.0529765598" lon="-2.6974598039">
        <ele>1624.77</ele>
        <time>2017-10-09T11:52:43Z</time>
      </trkpt>
      <trkpt lat="38.0530271865" lon="-2.6975079998">
        <ele>1624.28</ele>
        <time>2017-10-09T11:52:44Z</time>
      </trkpt>
      <trkpt lat="38.0533321202" lon="-2.6977739576">
        <ele>1621.88</ele>
        <time>2017-10-09T11:52:49Z</time>
      </trkpt>
      <trkpt lat="38.0534446053" lon="-2.6978653204">
        <ele>1620.92</ele>
        <time>2017-10-09T11:52:51Z</time>
      </trkpt>
      <trkpt lat="38.0534964055" lon="-2.6978940703">
        <ele>1620.92</ele>
        <time>2017-10-09T11:52:52Z</time>
      </trkpt>
      <trkpt lat="38.0535488762" lon="-2.6979135163">
        <ele>1620.92</ele>
        <time>2017-10-09T11:52:53Z</time>
      </trkpt>
      <trkpt lat="38.0536002573" lon="-2.6979200542">
        <ele>1620.92</ele>
        <time>2017-10-09T11:52:54Z</time>
      </trkpt>
      <trkpt lat="38.0536485370" lon="-2.6979141030">
        <ele>1620.92</ele>
        <time>2017-10-09T11:52:55Z</time>
      </trkpt>
      <trkpt lat="38.0536942184" lon="-2.6979002729">
        <ele>1620.92</ele>
        <time>2017-10-09T11:52:56Z</time>
      </trkpt>
      <trkpt lat="38.0537350383" lon="-2.6978877839">
        <ele>1620.92</ele>
        <time>2017-10-09T11:52:57Z</time>
      </trkpt>
      <trkpt lat="38.0539303366" lon="-2.6977787353">
        <ele>1619.96</ele>
        <time>2017-10-09T11:53:04Z</time>
      </trkpt>
      <trkpt lat="38.0540858209" lon="-2.6976171322">
        <ele>1618.04</ele>
        <time>2017-10-09T11:53:09Z</time>
      </trkpt>
      <trkpt lat="38.0544682033" lon="-2.6972150523">
        <ele>1615.15</ele>
        <time>2017-10-09T11:53:18Z</time>
      </trkpt>
      <trkpt lat="38.0545246974" lon="-2.6971779205">
        <ele>1615.15</ele>
        <time>2017-10-09T11:53:19Z</time>
      </trkpt>
      <trkpt lat="38.0545847118" lon="-2.6971495058">
        <ele>1614.67</ele>
        <time>2017-10-09T11:53:20Z</time>
      </trkpt>
      <trkpt lat="38.0546469055" lon="-2.6971247792">
        <ele>1614.67</ele>
        <time>2017-10-09T11:53:21Z</time>
      </trkpt>
      <trkpt lat="38.0547105242" lon="-2.6971070096">
        <ele>1614.67</ele>
        <time>2017-10-09T11:53:22Z</time>
      </trkpt>
      <trkpt lat="38.0547720473" lon="-2.6970929280">
        <ele>1614.67</ele>
        <time>2017-10-09T11:53:23Z</time>
      </trkpt>
      <trkpt lat="38.0549297109" lon="-2.6970487554">
        <ele>1614.67</ele>
        <time>2017-10-09T11:53:26Z</time>
      </trkpt>
      <trkpt lat="38.0549760628" lon="-2.6970262080">
        <ele>1614.67</ele>
        <time>2017-10-09T11:53:27Z</time>
      </trkpt>
      <trkpt lat="38.0550237559" lon="-2.6969941892">
        <ele>1614.19</ele>
        <time>2017-10-09T11:53:28Z</time>
      </trkpt>
      <trkpt lat="38.0551223271" lon="-2.6969307382">
        <ele>1613.23</ele>
        <time>2017-10-09T11:53:30Z</time>
      </trkpt>
      <trkpt lat="38.0551820900" lon="-2.6969056763">
        <ele>1612.75</ele>
        <time>2017-10-09T11:53:31Z</time>
      </trkpt>
      <trkpt lat="38.0557897780" lon="-2.6966435742">
        <ele>1609.38</ele>
        <time>2017-10-09T11:53:40Z</time>
      </trkpt>
      <trkpt lat="38.0561672151" lon="-2.6964491140">
        <ele>1607.46</ele>
        <time>2017-10-09T11:53:46Z</time>
      </trkpt>
      <trkpt lat="38.0562235415" lon="-2.6964386366">
        <ele>1607.46</ele>
        <time>2017-10-09T11:53:47Z</time>
      </trkpt>
      <trkpt lat="38.0564407166" lon="-2.6964038517">
        <ele>1606.50</ele>
        <time>2017-10-09T11:53:51Z</time>
      </trkpt>
      <trkpt lat="38.0564963724" lon="-2.6963756047">
        <ele>1605.54</ele>
        <time>2017-10-09T11:53:52Z</time>
      </trkpt>
      <trkpt lat="38.0565516930" lon="-2.6963372156">
        <ele>1605.06</ele>
        <time>2017-10-09T11:53:53Z</time>
      </trkpt>
      <trkpt lat="38.0566033255" lon="-2.6962917857">
        <ele>1605.06</ele>
        <time>2017-10-09T11:53:54Z</time>
      </trkpt>
      <trkpt lat="38.0566537846" lon="-2.6962414104">
        <ele>1604.58</ele>
        <time>2017-10-09T11:53:55Z</time>
      </trkpt>
      <trkpt lat="38.0567066744" lon="-2.6961956453">
        <ele>1604.58</ele>
        <time>2017-10-09T11:53:56Z</time>
      </trkpt>
      <trkpt lat="38.0567667726" lon="-2.6961584296">
        <ele>1604.58</ele>
        <time>2017-10-09T11:53:57Z</time>
      </trkpt>
      <trkpt lat="38.0568275414" lon="-2.6961300150">
        <ele>1604.10</ele>
        <time>2017-10-09T11:53:58Z</time>
      </trkpt>
      <trkpt lat="38.0573690962" lon="-2.6958898734">
        <ele>1603.14</ele>
        <time>2017-10-09T11:54:08Z</time>
      </trkpt>
      <trkpt lat="38.0575881153" lon="-2.6957131829">
        <ele>1602.66</ele>
        <time>2017-10-09T11:54:13Z</time>
      </trkpt>
      <trkpt lat="38.0577866826" lon="-2.6955623925">
        <ele>1600.73</ele>
        <time>2017-10-09T11:54:17Z</time>
      </trkpt>
      <trkpt lat="38.0582335219" lon="-2.6951847877">
        <ele>1598.81</ele>
        <time>2017-10-09T11:54:26Z</time>
      </trkpt>
      <trkpt lat="38.0582853220" lon="-2.6951611508">
        <ele>1598.33</ele>
        <time>2017-10-09T11:54:27Z</time>
      </trkpt>
      <trkpt lat="38.0583354458" lon="-2.6951429620">
        <ele>1598.33</ele>
        <time>2017-10-09T11:54:28Z</time>
      </trkpt>
      <trkpt lat="38.0583807919" lon="-2.6951168105">
        <ele>1598.33</ele>
        <time>2017-10-09T11:54:29Z</time>
      </trkpt>
      <trkpt lat="38.0584247131" lon="-2.6950847078">
        <ele>1598.33</ele>
        <time>2017-10-09T11:54:30Z</time>
      </trkpt>
      <trkpt lat="38.0584658682" lon="-2.6950483304">
        <ele>1598.33</ele>
        <time>2017-10-09T11:54:31Z</time>
      </trkpt>
      <trkpt lat="38.0585035868" lon="-2.6950044930">
        <ele>1598.33</ele>
        <time>2017-10-09T11:54:32Z</time>
      </trkpt>
      <trkpt lat="38.0585823767" lon="-2.6949004736">
        <ele>1597.37</ele>
        <time>2017-10-09T11:54:34Z</time>
      </trkpt>
      <trkpt lat="38.0586304888" lon="-2.6948518585">
        <ele>1596.89</ele>
        <time>2017-10-09T11:54:35Z</time>
      </trkpt>
      <trkpt lat="38.0586821213" lon="-2.6948081888">
        <ele>1596.41</ele>
        <time>2017-10-09T11:54:36Z</time>
      </trkpt>
      <trkpt lat="38.0587369390" lon="-2.6947666984">
        <ele>1596.41</ele>
        <time>2017-10-09T11:54:37Z</time>
      </trkpt>
      <trkpt lat="38.0590102728" lon="-2.6945727412">
        <ele>1595.93</ele>
        <time>2017-10-09T11:54:42Z</time>
      </trkpt>
      <trkpt lat="38.0591026414" lon="-2.6944802888">
        <ele>1595.93</ele>
        <time>2017-10-09T11:54:44Z</time>
      </trkpt>
      <trkpt lat="38.0592392664" lon="-2.6943787839">
        <ele>1595.93</ele>
        <time>2017-10-09T11:54:47Z</time>
      </trkpt>
      <trkpt lat="38.0592849478" lon="-2.6943555661">
        <ele>1596.41</ele>
        <time>2017-10-09T11:54:48Z</time>
      </trkpt>
      <trkpt lat="38.0596768856" lon="-2.6941924542">
        <ele>1596.89</ele>
        <time>2017-10-09T11:54:58Z</time>
      </trkpt>
      <trkpt lat="38.0600381456" lon="-2.6939599402">
        <ele>1597.37</ele>
        <time>2017-10-09T11:55:09Z</time>
      </trkpt>
      <trkpt lat="38.0602147523" lon="-2.6937446091">
        <ele>1597.85</ele>
        <time>2017-10-09T11:55:16Z</time>
      </trkpt>
      <trkpt lat="38.0605395511" lon="-2.6933620591">
        <ele>1597.37</ele>
        <time>2017-10-09T11:55:28Z</time>
      </trkpt>
      <trkpt lat="38.0608197581" lon="-2.6931275334">
        <ele>1598.33</ele>
        <time>2017-10-09T11:55:39Z</time>
      </trkpt>
      <trkpt lat="38.0611319840" lon="-2.6929930039">
        <ele>1598.33</ele>
        <time>2017-10-09T11:55:49Z</time>
      </trkpt>
      <trkpt lat="38.0613961816" lon="-2.6929001324">
        <ele>1598.33</ele>
        <time>2017-10-09T11:55:57Z</time>
      </trkpt>
      <trkpt lat="38.0616600439" lon="-2.6926905848">
        <ele>1598.81</ele>
        <time>2017-10-09T11:56:07Z</time>
      </trkpt>
      <trkpt lat="38.0620231479" lon="-2.6923461724">
        <ele>1598.81</ele>
        <time>2017-10-09T11:56:19Z</time>
      </trkpt>
      <trkpt lat="38.0621340405" lon="-2.6922866609">
        <ele>1598.81</ele>
        <time>2017-10-09T11:56:22Z</time>
      </trkpt>
      <trkpt lat="38.0621673167" lon="-2.6922623534">
        <ele>1598.81</ele>
        <time>2017-10-09T11:56:23Z</time>
      </trkpt>
      <trkpt lat="38.0624691490" lon="-2.6919790450">
        <ele>1598.81</ele>
        <time>2017-10-09T11:56:33Z</time>
      </trkpt>
      <trkpt lat="38.0625885073" lon="-2.6918253209">
        <ele>1598.81</ele>
        <time>2017-10-09T11:56:37Z</time>
      </trkpt>
      <trkpt lat="38.0626210291" lon="-2.6917895302">
        <ele>1598.81</ele>
        <time>2017-10-09T11:56:38Z</time>
      </trkpt>
      <trkpt lat="38.0629606638" lon="-2.6914584450">
        <ele>1599.77</ele>
        <time>2017-10-09T11:56:49Z</time>
      </trkpt>
      <trkpt lat="38.0630915891" lon="-2.6912231650">
        <ele>1600.73</ele>
        <time>2017-10-09T11:57:00Z</time>
      </trkpt>
      <trkpt lat="38.0632052477" lon="-2.6909069158">
        <ele>1600.73</ele>
        <time>2017-10-09T11:57:11Z</time>
      </trkpt>
      <trkpt lat="38.0634724628" lon="-2.6906032395">
        <ele>1602.17</ele>
        <time>2017-10-09T11:57:23Z</time>
      </trkpt>
      <trkpt lat="38.0637452099" lon="-2.6903657801">
        <ele>1602.66</ele>
        <time>2017-10-09T11:57:34Z</time>
      </trkpt>
      <trkpt lat="38.0638711061" lon="-2.6900228765">
        <ele>1602.66</ele>
        <time>2017-10-09T11:57:43Z</time>
      </trkpt>
      <trkpt lat="38.0639108364" lon="-2.6895599440">
        <ele>1602.66</ele>
        <time>2017-10-09T11:57:54Z</time>
      </trkpt>
      <trkpt lat="38.0639685877" lon="-2.6894985046">
        <ele>1602.17</ele>
        <time>2017-10-09T11:57:56Z</time>
      </trkpt>
      <trkpt lat="38.0640078988" lon="-2.6894880272">
        <ele>1602.17</ele>
        <time>2017-10-09T11:57:57Z</time>
      </trkpt>
      <trkpt lat="38.0640470423" lon="-2.6894882787">
        <ele>1602.17</ele>
        <time>2017-10-09T11:57:58Z</time>
      </trkpt>
      <trkpt lat="38.0640817434" lon="-2.6894917991">
        <ele>1602.17</ele>
        <time>2017-10-09T11:57:59Z</time>
      </trkpt>
      <trkpt lat="38.0641120020" lon="-2.6895005163">
        <ele>1602.66</ele>
        <time>2017-10-09T11:58:00Z</time>
      </trkpt>
      <trkpt lat="38.0641403329" lon="-2.6895083953">
        <ele>1602.66</ele>
        <time>2017-10-09T11:58:01Z</time>
      </trkpt>
      <trkpt lat="38.0641695857" lon="-2.6895162743">
        <ele>1602.66</ele>
        <time>2017-10-09T11:58:02Z</time>
      </trkpt>
      <trkpt lat="38.0641989224" lon="-2.6895256620">
        <ele>1602.66</ele>
        <time>2017-10-09T11:58:03Z</time>
      </trkpt>
      <trkpt lat="38.0644076318" lon="-2.6895448565">
        <ele>1602.17</ele>
        <time>2017-10-09T11:58:09Z</time>
      </trkpt>
      <trkpt lat="38.0648672953" lon="-2.6893395837">
        <ele>1600.25</ele>
        <time>2017-10-09T11:58:19Z</time>
      </trkpt>
      <trkpt lat="38.0651811976" lon="-2.6891387533">
        <ele>1600.25</ele>
        <time>2017-10-09T11:58:26Z</time>
      </trkpt>
      <trkpt lat="38.0653623305" lon="-2.6889533456">
        <ele>1600.25</ele>
        <time>2017-10-09T11:58:32Z</time>
      </trkpt>
      <trkpt lat="38.0653883144" lon="-2.6889157109">
        <ele>1600.25</ele>
        <time>2017-10-09T11:58:33Z</time>
      </trkpt>
      <trkpt lat="38.0655259453" lon="-2.6885676943">
        <ele>1600.25</ele>
        <time>2017-10-09T11:58:43Z</time>
      </trkpt>
      <trkpt lat="38.0656725448" lon="-2.6881422289">
        <ele>1601.21</ele>
        <time>2017-10-09T11:58:56Z</time>
      </trkpt>
      <trkpt lat="38.0659592897" lon="-2.6877636183">
        <ele>1600.73</ele>
        <time>2017-10-09T11:59:09Z</time>
      </trkpt>
      <trkpt lat="38.0662990082" lon="-2.6874630433">
        <ele>1600.25</ele>
        <time>2017-10-09T11:59:21Z</time>
      </trkpt>
      <trkpt lat="38.0666084681" lon="-2.6871964149">
        <ele>1600.25</ele>
        <time>2017-10-09T11:59:31Z</time>
      </trkpt>
      <trkpt lat="38.0668579973" lon="-2.6868979353">
        <ele>1600.25</ele>
        <time>2017-10-09T11:59:42Z</time>
      </trkpt>
      <trkpt lat="38.0670938641" lon="-2.6865109429">
        <ele>1600.73</ele>
        <time>2017-10-09T11:59:54Z</time>
      </trkpt>
      <trkpt lat="38.0672763381" lon="-2.6860268041">
        <ele>1602.17</ele>
        <time>2017-10-09T12:00:07Z</time>
      </trkpt>
      <trkpt lat="38.0672612507" lon="-2.6856559049">
        <ele>1602.66</ele>
        <time>2017-10-09T12:00:17Z</time>
      </trkpt>
      <trkpt lat="38.0671472568" lon="-2.6852952316">
        <ele>1602.66</ele>
        <time>2017-10-09T12:00:27Z</time>
      </trkpt>
      <trkpt lat="38.0670114700" lon="-2.6850144379">
        <ele>1604.10</ele>
        <time>2017-10-09T12:00:37Z</time>
      </trkpt>
      <trkpt lat="38.0669631064" lon="-2.6847014576">
        <ele>1605.06</ele>
        <time>2017-10-09T12:00:47Z</time>
      </trkpt>
      <trkpt lat="38.0670046806" lon="-2.6846143696">
        <ele>1605.06</ele>
        <time>2017-10-09T12:00:51Z</time>
      </trkpt>
      <trkpt lat="38.0670241266" lon="-2.6846014615">
        <ele>1605.06</ele>
        <time>2017-10-09T12:00:52Z</time>
      </trkpt>
      <trkpt lat="38.0670440756" lon="-2.6845912356">
        <ele>1605.06</ele>
        <time>2017-10-09T12:00:53Z</time>
      </trkpt>
      <trkpt lat="38.0670646951" lon="-2.6845787466">
        <ele>1605.06</ele>
        <time>2017-10-09T12:00:54Z</time>
      </trkpt>
      <trkpt lat="38.0670862366" lon="-2.6845629886">
        <ele>1605.06</ele>
        <time>2017-10-09T12:00:55Z</time>
      </trkpt>
      <trkpt lat="38.0673058424" lon="-2.6844717935">
        <ele>1604.58</ele>
        <time>2017-10-09T12:01:06Z</time>
      </trkpt>
      <trkpt lat="38.0673009809" lon="-2.6844881382">
        <ele>1604.10</ele>
        <time>2017-10-09T12:01:09Z</time>
      </trkpt>
      <trkpt lat="38.0671524536" lon="-2.6845480688">
        <ele>1604.58</ele>
        <time>2017-10-09T12:01:17Z</time>
      </trkpt>
      <trkpt lat="38.0670157447" lon="-2.6846295409">
        <ele>1605.06</ele>
        <time>2017-10-09T12:01:23Z</time>
      </trkpt>
      <trkpt lat="38.0669492763" lon="-2.6846406888">
        <ele>1605.06</ele>
        <time>2017-10-09T12:01:33Z</time>
      </trkpt>
      <trkpt lat="38.0669499468" lon="-2.6846292894">
        <ele>1605.06</ele>
        <time>2017-10-09T12:01:39Z</time>
      </trkpt>
      <trkpt lat="38.0669552274" lon="-2.6846408565">
        <ele>1605.06</ele>
        <time>2017-10-09T12:02:03Z</time>
      </trkpt>
      <trkpt lat="38.0669538863" lon="-2.6846444607">
        <ele>1605.06</ele>
        <time>2017-10-09T12:02:19Z</time>
      </trkpt>
      <trkpt lat="38.0669501144" lon="-2.6846561115">
        <ele>1604.58</ele>
        <time>2017-10-09T12:02:36Z</time>
      </trkpt>
      <trkpt lat="38.0669710692" lon="-2.6846438739">
        <ele>1604.58</ele>
        <time>2017-10-09T12:02:48Z</time>
      </trkpt>
      <trkpt lat="38.0669763498" lon="-2.6846481487">
        <ele>1604.58</ele>
        <time>2017-10-09T12:03:08Z</time>
      </trkpt>
      <trkpt lat="38.0670895055" lon="-2.6845712028">
        <ele>1605.06</ele>
        <time>2017-10-09T12:03:16Z</time>
      </trkpt>
      <trkpt lat="38.0673106201" lon="-2.6845025551">
        <ele>1604.58</ele>
        <time>2017-10-09T12:03:26Z</time>
      </trkpt>
      <trkpt lat="38.0674937647" lon="-2.6846650802">
        <ele>1603.62</ele>
        <time>2017-10-09T12:03:36Z</time>
      </trkpt>
      <trkpt lat="38.0677300505" lon="-2.6849251706">
        <ele>1603.62</ele>
        <time>2017-10-09T12:03:49Z</time>
      </trkpt>
      <trkpt lat="38.0679504108" lon="-2.6850576885">
        <ele>1603.14</ele>
        <time>2017-10-09T12:03:58Z</time>
      </trkpt>
      <trkpt lat="38.0682416819" lon="-2.6852109935">
        <ele>1603.14</ele>
        <time>2017-10-09T12:04:09Z</time>
      </trkpt>
      <trkpt lat="38.0683998484" lon="-2.6853130013">
        <ele>1603.14</ele>
        <time>2017-10-09T12:04:17Z</time>
      </trkpt>
      <trkpt lat="38.0683813244" lon="-2.6852871850">
        <ele>1603.14</ele>
        <time>2017-10-09T12:04:24Z</time>
      </trkpt>
      <trkpt lat="38.0681602098" lon="-2.6851690840">
        <ele>1603.14</ele>
        <time>2017-10-09T12:04:32Z</time>
      </trkpt>
      <trkpt lat="38.0681423564" lon="-2.6852615364">
        <ele>1602.66</ele>
        <time>2017-10-09T12:04:38Z</time>
      </trkpt>
      <trkpt lat="38.0681688432" lon="-2.6852817368">
        <ele>1602.66</ele>
        <time>2017-10-09T12:04:39Z</time>
      </trkpt>
      <trkpt lat="38.0684655625" lon="-2.6854675636">
        <ele>1600.73</ele>
        <time>2017-10-09T12:04:50Z</time>
      </trkpt>
      <trkpt lat="38.0685950629" lon="-2.6855113171">
        <ele>1600.25</ele>
        <time>2017-10-09T12:05:00Z</time>
      </trkpt>
      <trkpt lat="38.0688678101" lon="-2.6856337767">
        <ele>1598.81</ele>
        <time>2017-10-09T12:05:11Z</time>
      </trkpt>
      <trkpt lat="38.0691726599" lon="-2.6858272310">
        <ele>1598.33</ele>
        <time>2017-10-09T12:05:21Z</time>
      </trkpt>
      <trkpt lat="38.0695402063" lon="-2.6861278061">
        <ele>1597.85</ele>
        <time>2017-10-09T12:05:33Z</time>
      </trkpt>
      <trkpt lat="38.0698622391" lon="-2.6863288041">
        <ele>1597.37</ele>
        <time>2017-10-09T12:05:42Z</time>
      </trkpt>
      <trkpt lat="38.0700747203" lon="-2.6864471566">
        <ele>1597.37</ele>
        <time>2017-10-09T12:05:47Z</time>
      </trkpt>
      <trkpt lat="38.0702647381" lon="-2.6865557861">
        <ele>1597.37</ele>
        <time>2017-10-09T12:05:52Z</time>
      </trkpt>
      <trkpt lat="38.0704306997" lon="-2.6866660081">
        <ele>1596.41</ele>
        <time>2017-10-09T12:05:56Z</time>
      </trkpt>
      <trkpt lat="38.0705711804" lon="-2.6867297944">
        <ele>1596.41</ele>
        <time>2017-10-09T12:05:59Z</time>
      </trkpt>
      <trkpt lat="38.0708281696" lon="-2.6866950933">
        <ele>1595.93</ele>
        <time>2017-10-09T12:06:06Z</time>
      </trkpt>
      <trkpt lat="38.0712051038" lon="-2.6867580414">
        <ele>1594.96</ele>
        <time>2017-10-09T12:06:17Z</time>
      </trkpt>
      <trkpt lat="38.0714750849" lon="-2.6868903078">
        <ele>1594.96</ele>
        <time>2017-10-09T12:06:26Z</time>
      </trkpt>
      <trkpt lat="38.0716050044" lon="-2.6871068124">
        <ele>1594.48</ele>
        <time>2017-10-09T12:06:36Z</time>
      </trkpt>
      <trkpt lat="38.0717121251" lon="-2.6872941479">
        <ele>1594.48</ele>
        <time>2017-10-09T12:06:43Z</time>
      </trkpt>
      <trkpt lat="38.0717279669" lon="-2.6873252448">
        <ele>1594.48</ele>
        <time>2017-10-09T12:06:44Z</time>
      </trkpt>
      <trkpt lat="38.0717455689" lon="-2.6873569284">
        <ele>1594.96</ele>
        <time>2017-10-09T12:06:45Z</time>
      </trkpt>
      <trkpt lat="38.0719423760" lon="-2.6876989100">
        <ele>1594.00</ele>
        <time>2017-10-09T12:06:56Z</time>
      </trkpt>
      <trkpt lat="38.0721764825" lon="-2.6879367884">
        <ele>1593.52</ele>
        <time>2017-10-09T12:07:07Z</time>
      </trkpt>
      <trkpt lat="38.0723155383" lon="-2.6880952902">
        <ele>1593.04</ele>
        <time>2017-10-09T12:07:12Z</time>
      </trkpt>
      <trkpt lat="38.0723763071" lon="-2.6881914306">
        <ele>1592.56</ele>
        <time>2017-10-09T12:07:14Z</time>
      </trkpt>
      <trkpt lat="38.0727752857" lon="-2.6886202488">
        <ele>1589.68</ele>
        <time>2017-10-09T12:07:24Z</time>
      </trkpt>
      <trkpt lat="38.0728230625" lon="-2.6886531059">
        <ele>1589.68</ele>
        <time>2017-10-09T12:07:25Z</time>
      </trkpt>
      <trkpt lat="38.0728643853" lon="-2.6886918303">
        <ele>1589.68</ele>
        <time>2017-10-09T12:07:26Z</time>
      </trkpt>
      <trkpt lat="38.0729037803" lon="-2.6887305547">
        <ele>1590.16</ele>
        <time>2017-10-09T12:07:27Z</time>
      </trkpt>
      <trkpt lat="38.0729459412" lon="-2.6887636632">
        <ele>1590.16</ele>
        <time>2017-10-09T12:07:28Z</time>
      </trkpt>
      <trkpt lat="38.0729878508" lon="-2.6887927484">
        <ele>1590.16</ele>
        <time>2017-10-09T12:07:29Z</time>
      </trkpt>
      <trkpt lat="38.0730285030" lon="-2.6888249349">
        <ele>1590.16</ele>
        <time>2017-10-09T12:07:30Z</time>
      </trkpt>
      <trkpt lat="38.0732741766" lon="-2.6890461333">
        <ele>1589.20</ele>
        <time>2017-10-09T12:07:36Z</time>
      </trkpt>
      <trkpt lat="38.0733502004" lon="-2.6891063154">
        <ele>1589.20</ele>
        <time>2017-10-09T12:07:38Z</time>
      </trkpt>
      <trkpt lat="38.0733829737" lon="-2.6891412679">
        <ele>1589.20</ele>
        <time>2017-10-09T12:07:39Z</time>
      </trkpt>
      <trkpt lat="38.0737887416" lon="-2.6895814016">
        <ele>1589.20</ele>
        <time>2017-10-09T12:07:52Z</time>
      </trkpt>
      <trkpt lat="38.0741295498" lon="-2.6899383031">
        <ele>1589.20</ele>
        <time>2017-10-09T12:08:03Z</time>
      </trkpt>
      <trkpt lat="38.0743784085" lon="-2.6902558096">
        <ele>1588.24</ele>
        <time>2017-10-09T12:08:10Z</time>
      </trkpt>
      <trkpt lat="38.0745208170" lon="-2.6904510241">
        <ele>1588.24</ele>
        <time>2017-10-09T12:08:14Z</time>
      </trkpt>
      <trkpt lat="38.0745553505" lon="-2.6905115414">
        <ele>1587.27</ele>
        <time>2017-10-09T12:08:15Z</time>
      </trkpt>
      <trkpt lat="38.0746449530" lon="-2.6907108631">
        <ele>1586.79</ele>
        <time>2017-10-09T12:08:18Z</time>
      </trkpt>
      <trkpt lat="38.0746759661" lon="-2.6907664351">
        <ele>1586.79</ele>
        <time>2017-10-09T12:08:19Z</time>
      </trkpt>
      <trkpt lat="38.0747070629" lon="-2.6908153854">
        <ele>1586.31</ele>
        <time>2017-10-09T12:08:20Z</time>
      </trkpt>
      <trkpt lat="38.0747392494" lon="-2.6908572111">
        <ele>1586.79</ele>
        <time>2017-10-09T12:08:21Z</time>
      </trkpt>
      <trkpt lat="38.0747742858" lon="-2.6908899844">
        <ele>1586.79</ele>
        <time>2017-10-09T12:08:22Z</time>
      </trkpt>
      <trkpt lat="38.0748122558" lon="-2.6909156330">
        <ele>1586.79</ele>
        <time>2017-10-09T12:08:23Z</time>
      </trkpt>
      <trkpt lat="38.0748494714" lon="-2.6909337379">
        <ele>1587.27</ele>
        <time>2017-10-09T12:08:24Z</time>
      </trkpt>
      <trkpt lat="38.0748856813" lon="-2.6909479033">
        <ele>1587.27</ele>
        <time>2017-10-09T12:08:25Z</time>
      </trkpt>
      <trkpt lat="38.0752492882" lon="-2.6911064051">
        <ele>1587.27</ele>
        <time>2017-10-09T12:08:36Z</time>
      </trkpt>
      <trkpt lat="38.0753239710" lon="-2.6911549363">
        <ele>1587.27</ele>
        <time>2017-10-09T12:08:38Z</time>
      </trkpt>
      <trkpt lat="38.0753602646" lon="-2.6911820937">
        <ele>1587.27</ele>
        <time>2017-10-09T12:08:39Z</time>
      </trkpt>
      <trkpt lat="38.0753987376" lon="-2.6912086643">
        <ele>1586.79</ele>
        <time>2017-10-09T12:08:40Z</time>
      </trkpt>
      <trkpt lat="38.0754725821" lon="-2.6912729535">
        <ele>1586.79</ele>
        <time>2017-10-09T12:08:42Z</time>
      </trkpt>
      <trkpt lat="38.0755097978" lon="-2.6913146954">
        <ele>1586.31</ele>
        <time>2017-10-09T12:08:43Z</time>
      </trkpt>
      <trkpt lat="38.0756673776" lon="-2.6914709341">
        <ele>1584.87</ele>
        <time>2017-10-09T12:08:47Z</time>
      </trkpt>
      <trkpt lat="38.0758019909" lon="-2.6916390751">
        <ele>1582.95</ele>
        <time>2017-10-09T12:08:50Z</time>
      </trkpt>
      <trkpt lat="38.0758471694" lon="-2.6917116623">
        <ele>1581.99</ele>
        <time>2017-10-09T12:08:51Z</time>
      </trkpt>
      <trkpt lat="38.0758931022" lon="-2.6917880215">
        <ele>1581.51</ele>
        <time>2017-10-09T12:08:52Z</time>
      </trkpt>
      <trkpt lat="38.0759362690" lon="-2.6918704156">
        <ele>1581.03</ele>
        <time>2017-10-09T12:08:53Z</time>
      </trkpt>
      <trkpt lat="38.0759770051" lon="-2.6919609401">
        <ele>1580.06</ele>
        <time>2017-10-09T12:08:54Z</time>
      </trkpt>
      <trkpt lat="38.0760261230" lon="-2.6920556556">
        <ele>1580.06</ele>
        <time>2017-10-09T12:08:55Z</time>
      </trkpt>
      <trkpt lat="38.0761363450" lon="-2.6923443284">
        <ele>1578.62</ele>
        <time>2017-10-09T12:08:58Z</time>
      </trkpt>
      <trkpt lat="38.0761747342" lon="-2.6924367808">
        <ele>1578.14</ele>
        <time>2017-10-09T12:08:59Z</time>
      </trkpt>
      <trkpt lat="38.0762230139" lon="-2.6925231144">
        <ele>1577.66</ele>
        <time>2017-10-09T12:09:00Z</time>
      </trkpt>
      <trkpt lat="38.0763290450" lon="-2.6926874835">
        <ele>1576.70</ele>
        <time>2017-10-09T12:09:02Z</time>
      </trkpt>
      <trkpt lat="38.0768754613" lon="-2.6932700258">
        <ele>1574.30</ele>
        <time>2017-10-09T12:09:11Z</time>
      </trkpt>
      <trkpt lat="38.0774151720" lon="-2.6935700979">
        <ele>1570.45</ele>
        <time>2017-10-09T12:09:19Z</time>
      </trkpt>
      <trkpt lat="38.0775678903" lon="-2.6936286036">
        <ele>1568.53</ele>
        <time>2017-10-09T12:09:21Z</time>
      </trkpt>
      <trkpt lat="38.0779805314" lon="-2.6936942339">
        <ele>1564.68</ele>
        <time>2017-10-09T12:09:26Z</time>
      </trkpt>
      <trkpt lat="38.0784380995" lon="-2.6937803160">
        <ele>1561.32</ele>
        <time>2017-10-09T12:09:31Z</time>
      </trkpt>
      <trkpt lat="38.0785194878" lon="-2.6938134246">
        <ele>1560.36</ele>
        <time>2017-10-09T12:09:32Z</time>
      </trkpt>
      <trkpt lat="38.0785974395" lon="-2.6938533224">
        <ele>1559.40</ele>
        <time>2017-10-09T12:09:33Z</time>
      </trkpt>
      <trkpt lat="38.0786748044" lon="-2.6939011831">
        <ele>1558.43</ele>
        <time>2017-10-09T12:09:34Z</time>
      </trkpt>
      <trkpt lat="38.0787494034" lon="-2.6939587668">
        <ele>1557.47</ele>
        <time>2017-10-09T12:09:35Z</time>
      </trkpt>
      <trkpt lat="38.0788195599" lon="-2.6940266602">
        <ele>1556.99</ele>
        <time>2017-10-09T12:09:36Z</time>
      </trkpt>
      <trkpt lat="38.0788814183" lon="-2.6941070426">
        <ele>1556.51</ele>
        <time>2017-10-09T12:09:37Z</time>
      </trkpt>
      <trkpt lat="38.0789353140" lon="-2.6941969804">
        <ele>1556.51</ele>
        <time>2017-10-09T12:09:38Z</time>
      </trkpt>
      <trkpt lat="38.0789847672" lon="-2.6942898519">
        <ele>1555.55</ele>
        <time>2017-10-09T12:09:39Z</time>
      </trkpt>
      <trkpt lat="38.0791094899" lon="-2.6945999824">
        <ele>1553.63</ele>
        <time>2017-10-09T12:09:42Z</time>
      </trkpt>
      <trkpt lat="38.0791352224" lon="-2.6947075222">
        <ele>1552.67</ele>
        <time>2017-10-09T12:09:43Z</time>
      </trkpt>
      <trkpt lat="38.0791772995" lon="-2.6949275471">
        <ele>1551.71</ele>
        <time>2017-10-09T12:09:45Z</time>
      </trkpt>
      <trkpt lat="38.0791922193" lon="-2.6950392779">
        <ele>1551.71</ele>
        <time>2017-10-09T12:09:46Z</time>
      </trkpt>
      <trkpt lat="38.0792335421" lon="-2.6952399407">
        <ele>1551.22</ele>
        <time>2017-10-09T12:09:48Z</time>
      </trkpt>
      <trkpt lat="38.0792654771" lon="-2.6953323092">
        <ele>1550.74</ele>
        <time>2017-10-09T12:09:49Z</time>
      </trkpt>
      <trkpt lat="38.0793035310" lon="-2.6954163797">
        <ele>1550.74</ele>
        <time>2017-10-09T12:09:50Z</time>
      </trkpt>
      <trkpt lat="38.0793469492" lon="-2.6954950858">
        <ele>1550.26</ele>
        <time>2017-10-09T12:09:51Z</time>
      </trkpt>
      <trkpt lat="38.0793939717" lon="-2.6955693495">
        <ele>1549.78</ele>
        <time>2017-10-09T12:09:52Z</time>
      </trkpt>
      <trkpt lat="38.0794444308" lon="-2.6956396736">
        <ele>1549.30</ele>
        <time>2017-10-09T12:09:53Z</time>
      </trkpt>
      <trkpt lat="38.0795001704" lon="-2.6957062259">
        <ele>1548.82</ele>
        <time>2017-10-09T12:09:54Z</time>
      </trkpt>
      <trkpt lat="38.0795608554" lon="-2.6957706828">
        <ele>1548.34</ele>
        <time>2017-10-09T12:09:55Z</time>
      </trkpt>
      <trkpt lat="38.0801273044" lon="-2.6962837391">
        <ele>1544.98</ele>
        <time>2017-10-09T12:10:04Z</time>
      </trkpt>
      <trkpt lat="38.0802493449" lon="-2.6963908598">
        <ele>1544.50</ele>
        <time>2017-10-09T12:10:06Z</time>
      </trkpt>
      <trkpt lat="38.0807441287" lon="-2.6969441492">
        <ele>1541.13</ele>
        <time>2017-10-09T12:10:15Z</time>
      </trkpt>
      <trkpt lat="38.0809471384" lon="-2.6972786710">
        <ele>1539.69</ele>
        <time>2017-10-09T12:10:19Z</time>
      </trkpt>
      <trkpt lat="38.0812309496" lon="-2.6978804916">
        <ele>1536.80</ele>
        <time>2017-10-09T12:10:26Z</time>
      </trkpt>
      <trkpt lat="38.0812817439" lon="-2.6979426015">
        <ele>1536.80</ele>
        <time>2017-10-09T12:10:27Z</time>
      </trkpt>
      <trkpt lat="38.0813426804" lon="-2.6979881991">
        <ele>1536.32</ele>
        <time>2017-10-09T12:10:28Z</time>
      </trkpt>
      <trkpt lat="38.0814089812" lon="-2.6980221458">
        <ele>1535.84</ele>
        <time>2017-10-09T12:10:29Z</time>
      </trkpt>
      <trkpt lat="38.0814762041" lon="-2.6980522368">
        <ele>1535.84</ele>
        <time>2017-10-09T12:10:30Z</time>
      </trkpt>
      <trkpt lat="38.0817587581" lon="-2.6981932204">
        <ele>1534.88</ele>
        <time>2017-10-09T12:10:34Z</time>
      </trkpt>
      <trkpt lat="38.0818172637" lon="-2.6982372254">
        <ele>1534.88</ele>
        <time>2017-10-09T12:10:35Z</time>
      </trkpt>
      <trkpt lat="38.0819369573" lon="-2.6983269956">
        <ele>1534.40</ele>
        <time>2017-10-09T12:10:37Z</time>
      </trkpt>
      <trkpt lat="38.0820009951" lon="-2.6983612776">
        <ele>1533.92</ele>
        <time>2017-10-09T12:10:38Z</time>
      </trkpt>
      <trkpt lat="38.0820672959" lon="-2.6983879320">
        <ele>1533.92</ele>
        <time>2017-10-09T12:10:39Z</time>
      </trkpt>
      <trkpt lat="38.0821354408" lon="-2.6984075457">
        <ele>1533.44</ele>
        <time>2017-10-09T12:10:40Z</time>
      </trkpt>
      <trkpt lat="38.0822029151" lon="-2.6984201185">
        <ele>1533.44</ele>
        <time>2017-10-09T12:10:41Z</time>
      </trkpt>
      <trkpt lat="38.0822712276" lon="-2.6984276623">
        <ele>1532.96</ele>
        <time>2017-10-09T12:10:42Z</time>
      </trkpt>
      <trkpt lat="38.0823442340" lon="-2.6984380558">
        <ele>1532.48</ele>
        <time>2017-10-09T12:10:43Z</time>
      </trkpt>
      <trkpt lat="38.0824192520" lon="-2.6984467730">
        <ele>1532.48</ele>
        <time>2017-10-09T12:10:44Z</time>
      </trkpt>
      <trkpt lat="38.0825672764" lon="-2.6984575018">
        <ele>1532.00</ele>
        <time>2017-10-09T12:10:46Z</time>
      </trkpt>
      <trkpt lat="38.0831218231" lon="-2.6986318454">
        <ele>1529.59</ele>
        <time>2017-10-09T12:10:54Z</time>
      </trkpt>
      <trkpt lat="38.0831866991" lon="-2.6986786164">
        <ele>1529.59</ele>
        <time>2017-10-09T12:10:55Z</time>
      </trkpt>
      <trkpt lat="38.0832469650" lon="-2.6987318415">
        <ele>1529.11</ele>
        <time>2017-10-09T12:10:56Z</time>
      </trkpt>
      <trkpt lat="38.0833016988" lon="-2.6987912692">
        <ele>1528.63</ele>
        <time>2017-10-09T12:10:57Z</time>
      </trkpt>
      <trkpt lat="38.0833485536" lon="-2.6988517027">
        <ele>1528.63</ele>
        <time>2017-10-09T12:10:58Z</time>
      </trkpt>
      <trkpt lat="38.0833871942" lon="-2.6989126392">
        <ele>1528.15</ele>
        <time>2017-10-09T12:10:59Z</time>
      </trkpt>
      <trkpt lat="38.0834257510" lon="-2.6989759225">
        <ele>1528.15</ele>
        <time>2017-10-09T12:11:00Z</time>
      </trkpt>
      <trkpt lat="38.0836035311" lon="-2.6992275473">
        <ele>1526.71</ele>
        <time>2017-10-09T12:11:04Z</time>
      </trkpt>
      <trkpt lat="38.0837576743" lon="-2.6993680280">
        <ele>1525.75</ele>
        <time>2017-10-09T12:11:07Z</time>
      </trkpt>
      <trkpt lat="38.0838163476" lon="-2.6994009688">
        <ele>1525.75</ele>
        <time>2017-10-09T12:11:08Z</time>
      </trkpt>
      <trkpt lat="38.0838746857" lon="-2.6994226780">
        <ele>1525.27</ele>
        <time>2017-10-09T12:11:09Z</time>
      </trkpt>
      <trkpt lat="38.0839337781" lon="-2.6994365919">
        <ele>1525.27</ele>
        <time>2017-10-09T12:11:10Z</time>
      </trkpt>
      <trkpt lat="38.0839930382" lon="-2.6994432136">
        <ele>1525.27</ele>
        <time>2017-10-09T12:11:11Z</time>
      </trkpt>
      <trkpt lat="38.0843065213" lon="-2.6994506735">
        <ele>1523.83</ele>
        <time>2017-10-09T12:11:16Z</time>
      </trkpt>
      <trkpt lat="38.0843624286" lon="-2.6994629111">
        <ele>1523.83</ele>
        <time>2017-10-09T12:11:17Z</time>
      </trkpt>
      <trkpt lat="38.0844133068" lon="-2.6994779147">
        <ele>1523.83</ele>
        <time>2017-10-09T12:11:18Z</time>
      </trkpt>
      <trkpt lat="38.0844574794" lon="-2.6994887274">
        <ele>1523.83</ele>
        <time>2017-10-09T12:11:19Z</time>
      </trkpt>
      <trkpt lat="38.0844959524" lon="-2.6994879730">
        <ele>1523.83</ele>
        <time>2017-10-09T12:11:20Z</time>
      </trkpt>
      <trkpt lat="38.0845330004" lon="-2.6994876377">
        <ele>1523.83</ele>
        <time>2017-10-09T12:11:21Z</time>
      </trkpt>
      <trkpt lat="38.0845620856" lon="-2.6994945947">
        <ele>1523.83</ele>
        <time>2017-10-09T12:11:22Z</time>
      </trkpt>
      <trkpt lat="38.0845896620" lon="-2.6995120291">
        <ele>1523.83</ele>
        <time>2017-10-09T12:11:23Z</time>
      </trkpt>
      <trkpt lat="38.0848361738" lon="-2.6996794995">
        <ele>1523.35</ele>
        <time>2017-10-09T12:11:32Z</time>
      </trkpt>
      <trkpt lat="38.0850220844" lon="-2.6998555195">
        <ele>1522.39</ele>
        <time>2017-10-09T12:11:42Z</time>
      </trkpt>
      <trkpt lat="38.0852804985" lon="-2.7001184598">
        <ele>1519.98</ele>
        <time>2017-10-09T12:11:48Z</time>
      </trkpt>
      <trkpt lat="38.0853294488" lon="-2.7001679130">
        <ele>1519.50</ele>
        <time>2017-10-09T12:11:49Z</time>
      </trkpt>
      <trkpt lat="38.0853737053" lon="-2.7002256643">
        <ele>1518.54</ele>
        <time>2017-10-09T12:11:50Z</time>
      </trkpt>
      <trkpt lat="38.0855314527" lon="-2.7005159296">
        <ele>1515.66</ele>
        <time>2017-10-09T12:11:54Z</time>
      </trkpt>
      <trkpt lat="38.0856279284" lon="-2.7008399740">
        <ele>1512.29</ele>
        <time>2017-10-09T12:11:58Z</time>
      </trkpt>
      <trkpt lat="38.0857098196" lon="-2.7010747511">
        <ele>1509.41</ele>
        <time>2017-10-09T12:12:01Z</time>
      </trkpt>
      <trkpt lat="38.0857508909" lon="-2.7011439018">
        <ele>1508.93</ele>
        <time>2017-10-09T12:12:02Z</time>
      </trkpt>
      <trkpt lat="38.0858023558" lon="-2.7012116276">
        <ele>1507.97</ele>
        <time>2017-10-09T12:12:03Z</time>
      </trkpt>
      <trkpt lat="38.0859894399" lon="-2.7014183253">
        <ele>1506.04</ele>
        <time>2017-10-09T12:12:06Z</time>
      </trkpt>
      <trkpt lat="38.0860519689" lon="-2.7014724724">
        <ele>1505.08</ele>
        <time>2017-10-09T12:12:07Z</time>
      </trkpt>
      <trkpt lat="38.0861184373" lon="-2.7015179861">
        <ele>1504.60</ele>
        <time>2017-10-09T12:12:08Z</time>
      </trkpt>
      <trkpt lat="38.0861818045" lon="-2.7015524358">
        <ele>1504.12</ele>
        <time>2017-10-09T12:12:09Z</time>
      </trkpt>
      <trkpt lat="38.0862402264" lon="-2.7015783358">
        <ele>1503.64</ele>
        <time>2017-10-09T12:12:10Z</time>
      </trkpt>
      <trkpt lat="38.0862917751" lon="-2.7015912440">
        <ele>1503.16</ele>
        <time>2017-10-09T12:12:11Z</time>
      </trkpt>
      <trkpt lat="38.0863346905" lon="-2.7015788388">
        <ele>1503.16</ele>
        <time>2017-10-09T12:12:12Z</time>
      </trkpt>
      <trkpt lat="38.0863687210" lon="-2.7015524358">
        <ele>1502.68</ele>
        <time>2017-10-09T12:12:13Z</time>
      </trkpt>
      <trkpt lat="38.0863976385" lon="-2.7015250269">
        <ele>1502.68</ele>
        <time>2017-10-09T12:12:14Z</time>
      </trkpt>
      <trkpt lat="38.0864227843" lon="-2.7014956903">
        <ele>1503.16</ele>
        <time>2017-10-09T12:12:15Z</time>
      </trkpt>
      <trkpt lat="38.0864486005" lon="-2.7014705446">
        <ele>1502.20</ele>
        <time>2017-10-09T12:12:16Z</time>
      </trkpt>
      <trkpt lat="38.0864679627" lon="-2.7014484163">
        <ele>1502.20</ele>
        <time>2017-10-09T12:12:17Z</time>
      </trkpt>
      <trkpt lat="38.0864843074" lon="-2.7014339156">
        <ele>1501.72</ele>
        <time>2017-10-09T12:12:18Z</time>
      </trkpt>
      <trkpt lat="38.0865960382" lon="-2.7013935987">
        <ele>1501.24</ele>
        <time>2017-10-09T12:12:25Z</time>
      </trkpt>
      <trkpt lat="38.0868441425" lon="-2.7013636753">
        <ele>1499.79</ele>
        <time>2017-10-09T12:12:32Z</time>
      </trkpt>
      <trkpt lat="38.0869430490" lon="-2.7013377752">
        <ele>1499.31</ele>
        <time>2017-10-09T12:12:34Z</time>
      </trkpt>
      <trkpt lat="38.0871808436" lon="-2.7013145573">
        <ele>1496.43</ele>
        <time>2017-10-09T12:12:39Z</time>
      </trkpt>
      <trkpt lat="38.0872230045" lon="-2.7013058402">
        <ele>1495.95</ele>
        <time>2017-10-09T12:12:40Z</time>
      </trkpt>
      <trkpt lat="38.0872707814" lon="-2.7012915071">
        <ele>1495.47</ele>
        <time>2017-10-09T12:12:41Z</time>
      </trkpt>
      <trkpt lat="38.0873199832" lon="-2.7012761682">
        <ele>1494.99</ele>
        <time>2017-10-09T12:12:42Z</time>
      </trkpt>
      <trkpt lat="38.0873675086" lon="-2.7012607455">
        <ele>1494.03</ele>
        <time>2017-10-09T12:12:43Z</time>
      </trkpt>
      <trkpt lat="38.0874117650" lon="-2.7012454066">
        <ele>1493.55</ele>
        <time>2017-10-09T12:12:44Z</time>
      </trkpt>
      <trkpt lat="38.0874533392" lon="-2.7012257092">
        <ele>1493.55</ele>
        <time>2017-10-09T12:12:45Z</time>
      </trkpt>
      <trkpt lat="38.0876746215" lon="-2.7011883259">
        <ele>1491.14</ele>
        <time>2017-10-09T12:12:51Z</time>
      </trkpt>
      <trkpt lat="38.0877067242" lon="-2.7012220211">
        <ele>1490.66</ele>
        <time>2017-10-09T12:12:52Z</time>
      </trkpt>
      <trkpt lat="38.0877341330" lon="-2.7012617514">
        <ele>1490.18</ele>
        <time>2017-10-09T12:12:53Z</time>
      </trkpt>
      <trkpt lat="38.0877529085" lon="-2.7012999728">
        <ele>1489.22</ele>
        <time>2017-10-09T12:12:54Z</time>
      </trkpt>
      <trkpt lat="38.0877764616" lon="-2.7013386134">
        <ele>1488.74</ele>
        <time>2017-10-09T12:12:55Z</time>
      </trkpt>
      <trkpt lat="38.0878061336" lon="-2.7013833728">
        <ele>1488.26</ele>
        <time>2017-10-09T12:12:56Z</time>
      </trkpt>
      <trkpt lat="38.0878879409" lon="-2.7014915831">
        <ele>1486.82</ele>
        <time>2017-10-09T12:12:59Z</time>
      </trkpt>
      <trkpt lat="38.0879459437" lon="-2.7015664335">
        <ele>1486.34</ele>
        <time>2017-10-09T12:13:01Z</time>
      </trkpt>
      <trkpt lat="38.0880498793" lon="-2.7017061599">
        <ele>1484.41</ele>
        <time>2017-10-09T12:13:04Z</time>
      </trkpt>
      <trkpt lat="38.0882090516" lon="-2.7018994465">
        <ele>1481.53</ele>
        <time>2017-10-09T12:13:09Z</time>
      </trkpt>
      <trkpt lat="38.0882371310" lon="-2.7019420266">
        <ele>1481.05</ele>
        <time>2017-10-09T12:13:10Z</time>
      </trkpt>
      <trkpt lat="38.0882701557" lon="-2.7019836847">
        <ele>1480.57</ele>
        <time>2017-10-09T12:13:11Z</time>
      </trkpt>
      <trkpt lat="38.0883104727" lon="-2.7020218223">
        <ele>1480.09</ele>
        <time>2017-10-09T12:13:12Z</time>
      </trkpt>
      <trkpt lat="38.0883635301" lon="-2.7020576131">
        <ele>1479.61</ele>
        <time>2017-10-09T12:13:13Z</time>
      </trkpt>
      <trkpt lat="38.0884246342" lon="-2.7020851895">
        <ele>1479.13</ele>
        <time>2017-10-09T12:13:14Z</time>
      </trkpt>
      <trkpt lat="38.0884947069" lon="-2.7021029592">
        <ele>1478.65</ele>
        <time>2017-10-09T12:13:15Z</time>
      </trkpt>
      <trkpt lat="38.0885679647" lon="-2.7021229919">
        <ele>1477.68</ele>
        <time>2017-10-09T12:13:16Z</time>
      </trkpt>
      <trkpt lat="38.0886420608" lon="-2.7021546755">
        <ele>1477.20</ele>
        <time>2017-10-09T12:13:17Z</time>
      </trkpt>
      <trkpt lat="38.0887162406" lon="-2.7021900471">
        <ele>1477.20</ele>
        <time>2017-10-09T12:13:18Z</time>
      </trkpt>
      <trkpt lat="38.0888594873" lon="-2.7022623830">
        <ele>1476.72</ele>
        <time>2017-10-09T12:13:20Z</time>
      </trkpt>
      <trkpt lat="38.0889314041" lon="-2.7022963297">
        <ele>1476.72</ele>
        <time>2017-10-09T12:13:21Z</time>
      </trkpt>
      <trkpt lat="38.0891805142" lon="-2.7024028637">
        <ele>1477.20</ele>
        <time>2017-10-09T12:13:25Z</time>
      </trkpt>
      <trkpt lat="38.0892364215" lon="-2.7024138439">
        <ele>1477.20</ele>
        <time>2017-10-09T12:13:26Z</time>
      </trkpt>
      <trkpt lat="38.0893427879" lon="-2.7024240699">
        <ele>1477.20</ele>
        <time>2017-10-09T12:13:28Z</time>
      </trkpt>
      <trkpt lat="38.0893964320" lon="-2.7024213038">
        <ele>1477.20</ele>
        <time>2017-10-09T12:13:29Z</time>
      </trkpt>
      <trkpt lat="38.0895603821" lon="-2.7023923863">
        <ele>1476.24</ele>
        <time>2017-10-09T12:13:32Z</time>
      </trkpt>
      <trkpt lat="38.0896156188" lon="-2.7023699228">
        <ele>1476.24</ele>
        <time>2017-10-09T12:13:33Z</time>
      </trkpt>
      <trkpt lat="38.0896606296" lon="-2.7023323718">
        <ele>1475.76</ele>
        <time>2017-10-09T12:13:34Z</time>
      </trkpt>
      <trkpt lat="38.0896970909" lon="-2.7022816613">
        <ele>1475.28</ele>
        <time>2017-10-09T12:13:35Z</time>
      </trkpt>
      <trkpt lat="38.0897299480" lon="-2.7022177912">
        <ele>1474.32</ele>
        <time>2017-10-09T12:13:36Z</time>
      </trkpt>
      <trkpt lat="38.0898516532" lon="-2.7020307910">
        <ele>1472.40</ele>
        <time>2017-10-09T12:13:39Z</time>
      </trkpt>
      <trkpt lat="38.0899003521" lon="-2.7019811701">
        <ele>1472.40</ele>
        <time>2017-10-09T12:13:40Z</time>
      </trkpt>
      <trkpt lat="38.0899570137" lon="-2.7019367460">
        <ele>1471.92</ele>
        <time>2017-10-09T12:13:41Z</time>
      </trkpt>
      <trkpt lat="38.0900683254" lon="-2.7018521726">
        <ele>1470.95</ele>
        <time>2017-10-09T12:13:43Z</time>
      </trkpt>
      <trkpt lat="38.0901097320" lon="-2.7017949242">
        <ele>1470.95</ele>
        <time>2017-10-09T12:13:44Z</time>
      </trkpt>
      <trkpt lat="38.0901474506" lon="-2.7017338201">
        <ele>1470.47</ele>
        <time>2017-10-09T12:13:45Z</time>
      </trkpt>
      <trkpt lat="38.0901796371" lon="-2.7016668487">
        <ele>1469.99</ele>
        <time>2017-10-09T12:13:46Z</time>
      </trkpt>
      <trkpt lat="38.0902093090" lon="-2.7015939262">
        <ele>1469.51</ele>
        <time>2017-10-09T12:13:47Z</time>
      </trkpt>
      <trkpt lat="38.0902326945" lon="-2.7015196625">
        <ele>1469.03</ele>
        <time>2017-10-09T12:13:48Z</time>
      </trkpt>
      <trkpt lat="38.0902456865" lon="-2.7014526073">
        <ele>1468.55</ele>
        <time>2017-10-09T12:13:49Z</time>
      </trkpt>
      <trkpt lat="38.0902872607" lon="-2.7012192551">
        <ele>1465.67</ele>
        <time>2017-10-09T12:13:53Z</time>
      </trkpt>
      <trkpt lat="38.0903084669" lon="-2.7011625096">
        <ele>1465.19</ele>
        <time>2017-10-09T12:13:54Z</time>
      </trkpt>
      <trkpt lat="38.0903341155" lon="-2.7011153195">
        <ele>1464.23</ele>
        <time>2017-10-09T12:13:55Z</time>
      </trkpt>
      <trkpt lat="38.0903600156" lon="-2.7010729071">
        <ele>1463.74</ele>
        <time>2017-10-09T12:13:56Z</time>
      </trkpt>
      <trkpt lat="38.0903896876" lon="-2.7010267228">
        <ele>1462.78</ele>
        <time>2017-10-09T12:13:57Z</time>
      </trkpt>
      <trkpt lat="38.0904186890" lon="-2.7009779401">
        <ele>1462.30</ele>
        <time>2017-10-09T12:13:58Z</time>
      </trkpt>
      <trkpt lat="38.0905607622" lon="-2.7007843181">
        <ele>1458.94</ele>
        <time>2017-10-09T12:14:03Z</time>
      </trkpt>
      <trkpt lat="38.0906724930" lon="-2.7006357070">
        <ele>1457.02</ele>
        <time>2017-10-09T12:14:07Z</time>
      </trkpt>
      <trkpt lat="38.0907129776" lon="-2.7006043587">
        <ele>1456.53</ele>
        <time>2017-10-09T12:14:08Z</time>
      </trkpt>
      <trkpt lat="38.0907601677" lon="-2.7005789615">
        <ele>1455.57</ele>
        <time>2017-10-09T12:14:09Z</time>
      </trkpt>
      <trkpt lat="38.0910334177" lon="-2.7004982438">
        <ele>1454.13</ele>
        <time>2017-10-09T12:14:14Z</time>
      </trkpt>
      <trkpt lat="38.0910875648" lon="-2.7005033568">
        <ele>1454.61</ele>
        <time>2017-10-09T12:14:15Z</time>
      </trkpt>
      <trkpt lat="38.0911400355" lon="-2.7005139180">
        <ele>1453.65</ele>
        <time>2017-10-09T12:14:16Z</time>
      </trkpt>
      <trkpt lat="38.0911906622" lon="-2.7005345374">
        <ele>1453.17</ele>
        <time>2017-10-09T12:14:17Z</time>
      </trkpt>
      <trkpt lat="38.0912452284" lon="-2.7005633712">
        <ele>1452.69</ele>
        <time>2017-10-09T12:14:18Z</time>
      </trkpt>
      <trkpt lat="38.0913099367" lon="-2.7005818952">
        <ele>1452.69</ele>
        <time>2017-10-09T12:14:19Z</time>
      </trkpt>
      <trkpt lat="38.0913775787" lon="-2.7005932108">
        <ele>1451.73</ele>
        <time>2017-10-09T12:14:20Z</time>
      </trkpt>
      <trkpt lat="38.0915916525" lon="-2.7006386407">
        <ele>1449.32</ele>
        <time>2017-10-09T12:14:23Z</time>
      </trkpt>
      <trkpt lat="38.0916653294" lon="-2.7006639540">
        <ele>1449.32</ele>
        <time>2017-10-09T12:14:24Z</time>
      </trkpt>
      <trkpt lat="38.0917322170" lon="-2.7006935421">
        <ele>1448.84</ele>
        <time>2017-10-09T12:14:25Z</time>
      </trkpt>
      <trkpt lat="38.0917913932" lon="-2.7007268183">
        <ele>1448.84</ele>
        <time>2017-10-09T12:14:26Z</time>
      </trkpt>
      <trkpt lat="38.0918381643" lon="-2.7007640339">
        <ele>1448.36</ele>
        <time>2017-10-09T12:14:27Z</time>
      </trkpt>
      <trkpt lat="38.0918715242" lon="-2.7008053567">
        <ele>1448.36</ele>
        <time>2017-10-09T12:14:28Z</time>
      </trkpt>
      <trkpt lat="38.0918985978" lon="-2.7008527983">
        <ele>1448.36</ele>
        <time>2017-10-09T12:14:29Z</time>
      </trkpt>
      <trkpt lat="38.0919224862" lon="-2.7009046823">
        <ele>1447.88</ele>
        <time>2017-10-09T12:14:30Z</time>
      </trkpt>
      <trkpt lat="38.0919445306" lon="-2.7009584941">
        <ele>1447.40</ele>
        <time>2017-10-09T12:14:31Z</time>
      </trkpt>
      <trkpt lat="38.0919617135" lon="-2.7010121383">
        <ele>1446.92</ele>
        <time>2017-10-09T12:14:32Z</time>
      </trkpt>
      <trkpt lat="38.0919800699" lon="-2.7010609210">
        <ele>1445.96</ele>
        <time>2017-10-09T12:14:33Z</time>
      </trkpt>
      <trkpt lat="38.0920043774" lon="-2.7011044230">
        <ele>1445.48</ele>
        <time>2017-10-09T12:14:34Z</time>
      </trkpt>
      <trkpt lat="38.0920399167" lon="-2.7011290658">
        <ele>1445.48</ele>
        <time>2017-10-09T12:14:35Z</time>
      </trkpt>
      <trkpt lat="38.0920804013" lon="-2.7011369448">
        <ele>1444.52</ele>
        <time>2017-10-09T12:14:36Z</time>
      </trkpt>
      <trkpt lat="38.0921252444" lon="-2.7011288982">
        <ele>1444.52</ele>
        <time>2017-10-09T12:14:37Z</time>
      </trkpt>
      <trkpt lat="38.0921626277" lon="-2.7010998968">
        <ele>1443.56</ele>
        <time>2017-10-09T12:14:38Z</time>
      </trkpt>
      <trkpt lat="38.0921894498" lon="-2.7010553051">
        <ele>1443.08</ele>
        <time>2017-10-09T12:14:39Z</time>
      </trkpt>
      <trkpt lat="38.0921979155" lon="-2.7009999845">
        <ele>1442.60</ele>
        <time>2017-10-09T12:14:40Z</time>
      </trkpt>
      <trkpt lat="38.0921853427" lon="-2.7009427361">
        <ele>1442.11</ele>
        <time>2017-10-09T12:14:41Z</time>
      </trkpt>
      <trkpt lat="38.0921605323" lon="-2.7008861583">
        <ele>1441.63</ele>
        <time>2017-10-09T12:14:42Z</time>
      </trkpt>
      <trkpt lat="38.0921332911" lon="-2.7008269820">
        <ele>1440.67</ele>
        <time>2017-10-09T12:14:43Z</time>
      </trkpt>
      <trkpt lat="38.0921064690" lon="-2.7007701527">
        <ele>1440.19</ele>
        <time>2017-10-09T12:14:44Z</time>
      </trkpt>
      <trkpt lat="38.0920782220" lon="-2.7007161733">
        <ele>1439.71</ele>
        <time>2017-10-09T12:14:45Z</time>
      </trkpt>
      <trkpt lat="38.0920564290" lon="-2.7006584220">
        <ele>1439.23</ele>
        <time>2017-10-09T12:14:46Z</time>
      </trkpt>
      <trkpt lat="38.0920426827" lon="-2.7006013412">
        <ele>1438.75</ele>
        <time>2017-10-09T12:14:47Z</time>
      </trkpt>
      <trkpt lat="38.0920306966" lon="-2.7005509660">
        <ele>1438.27</ele>
        <time>2017-10-09T12:14:48Z</time>
      </trkpt>
      <trkpt lat="38.0920110829" lon="-2.7005034406">
        <ele>1437.31</ele>
        <time>2017-10-09T12:14:49Z</time>
      </trkpt>
      <trkpt lat="38.0919845961" lon="-2.7004564181">
        <ele>1436.83</ele>
        <time>2017-10-09T12:14:50Z</time>
      </trkpt>
      <trkpt lat="38.0919497274" lon="-2.7004083060">
        <ele>1435.87</ele>
        <time>2017-10-09T12:14:51Z</time>
      </trkpt>
      <trkpt lat="38.0919124279" lon="-2.7003604453">
        <ele>1435.87</ele>
        <time>2017-10-09T12:14:52Z</time>
      </trkpt>
      <trkpt lat="38.0918721948" lon="-2.7003195416">
        <ele>1434.91</ele>
        <time>2017-10-09T12:14:53Z</time>
      </trkpt>
      <trkpt lat="38.0918310396" lon="-2.7002874389">
        <ele>1434.42</ele>
        <time>2017-10-09T12:14:54Z</time>
      </trkpt>
      <trkpt lat="38.0916784052" lon="-2.7001928072">
        <ele>1432.98</ele>
        <time>2017-10-09T12:14:58Z</time>
      </trkpt>
      <trkpt lat="38.0914647505" lon="-2.7001140174">
        <ele>1431.06</ele>
        <time>2017-10-09T12:15:05Z</time>
      </trkpt>
      <trkpt lat="38.0913909897" lon="-2.7000274323">
        <ele>1430.10</ele>
        <time>2017-10-09T12:15:09Z</time>
      </trkpt>
      <trkpt lat="38.0913691968" lon="-2.7000230737">
        <ele>1429.62</ele>
        <time>2017-10-09T12:15:10Z</time>
      </trkpt>
      <trkpt lat="38.0913508404" lon="-2.7000151109">
        <ele>1430.10</ele>
        <time>2017-10-09T12:15:11Z</time>
      </trkpt>
      <trkpt lat="38.0913362559" lon="-2.7000018675">
        <ele>1430.10</ele>
        <time>2017-10-09T12:15:12Z</time>
      </trkpt>
      <trkpt lat="38.0913230125" lon="-2.6999840140">
        <ele>1430.10</ele>
        <time>2017-10-09T12:15:13Z</time>
      </trkpt>
      <trkpt lat="38.0913120322" lon="-2.6999681722">
        <ele>1430.10</ele>
        <time>2017-10-09T12:15:14Z</time>
      </trkpt>
      <trkpt lat="38.0913002137" lon="-2.6999570243">
        <ele>1429.62</ele>
        <time>2017-10-09T12:15:15Z</time>
      </trkpt>
      <trkpt lat="38.0912869703" lon="-2.6999503188">
        <ele>1430.10</ele>
        <time>2017-10-09T12:15:16Z</time>
      </trkpt>
      <trkpt lat="38.0912728887" lon="-2.6999435294">
        <ele>1430.10</ele>
        <time>2017-10-09T12:15:17Z</time>
      </trkpt>
      <trkpt lat="38.0912614893" lon="-2.6999377459">
        <ele>1430.10</ele>
        <time>2017-10-09T12:15:18Z</time>
      </trkpt>
      <trkpt lat="38.0912433006" lon="-2.6999014523">
        <ele>1430.10</ele>
        <time>2017-10-09T12:15:21Z</time>
      </trkpt>
      <trkpt lat="38.0912380200" lon="-2.6998716127">
        <ele>1430.10</ele>
        <time>2017-10-09T12:15:23Z</time>
      </trkpt>
      <trkpt lat="38.0912293028" lon="-2.6998534240">
        <ele>1430.10</ele>
        <time>2017-10-09T12:15:24Z</time>
      </trkpt>
      <trkpt lat="38.0912161432" lon="-2.6998431142">
        <ele>1430.10</ele>
        <time>2017-10-09T12:15:25Z</time>
      </trkpt>
      <trkpt lat="38.0911927577" lon="-2.6998141129">
        <ele>1430.58</ele>
        <time>2017-10-09T12:15:28Z</time>
      </trkpt>
      <trkpt lat="38.0911909975" lon="-2.6997861173">
        <ele>1430.58</ele>
        <time>2017-10-09T12:15:29Z</time>
      </trkpt>
      <trkpt lat="38.0911876447" lon="-2.6997560263">
        <ele>1430.58</ele>
        <time>2017-10-09T12:15:30Z</time>
      </trkpt>
      <trkpt lat="38.0911865551" lon="-2.6997291204">
        <ele>1430.58</ele>
        <time>2017-10-09T12:15:31Z</time>
      </trkpt>
      <trkpt lat="38.0911860522" lon="-2.6996996161">
        <ele>1430.58</ele>
        <time>2017-10-09T12:15:32Z</time>
      </trkpt>
      <trkpt lat="38.0911811907" lon="-2.6996750571">
        <ele>1430.58</ele>
        <time>2017-10-09T12:15:33Z</time>
      </trkpt>
      <trkpt lat="38.0911780056" lon="-2.6996503305">
        <ele>1431.06</ele>
        <time>2017-10-09T12:15:34Z</time>
      </trkpt>
      <trkpt lat="38.0911730602" lon="-2.6996218320">
        <ele>1430.58</ele>
        <time>2017-10-09T12:15:35Z</time>
      </trkpt>
      <trkpt lat="38.0911677796" lon="-2.6995947585">
        <ele>1431.06</ele>
        <time>2017-10-09T12:15:36Z</time>
      </trkpt>
      <trkpt lat="38.0911674444" lon="-2.6995681040">
        <ele>1431.06</ele>
        <time>2017-10-09T12:15:37Z</time>
      </trkpt>
      <trkpt lat="38.0911738146" lon="-2.6995417010">
        <ele>1431.06</ele>
        <time>2017-10-09T12:15:38Z</time>
      </trkpt>
      <trkpt lat="38.0913320649" lon="-2.6993210893">
        <ele>1431.54</ele>
        <time>2017-10-09T12:15:48Z</time>
      </trkpt>
      <trkpt lat="38.0915353261" lon="-2.6992462389">
        <ele>1431.54</ele>
        <time>2017-10-09T12:15:58Z</time>
      </trkpt>
      <trkpt lat="38.0917341448" lon="-2.6991749927">
        <ele>1432.02</ele>
        <time>2017-10-09T12:16:07Z</time>
      </trkpt>
      <trkpt lat="38.0919827521" lon="-2.6990625914">
        <ele>1432.50</ele>
        <time>2017-10-09T12:16:17Z</time>
      </trkpt>
      <trkpt lat="38.0922611989" lon="-2.6990099531">
        <ele>1432.50</ele>
        <time>2017-10-09T12:16:27Z</time>
      </trkpt>
      <trkpt lat="38.0925394781" lon="-2.6989216916">
        <ele>1432.50</ele>
        <time>2017-10-09T12:16:35Z</time>
      </trkpt>
      <trkpt lat="38.0929755885" lon="-2.6986594219">
        <ele>1432.02</ele>
        <time>2017-10-09T12:16:45Z</time>
      </trkpt>
      <trkpt lat="38.0930268019" lon="-2.6986338571">
        <ele>1432.02</ele>
        <time>2017-10-09T12:16:46Z</time>
      </trkpt>
      <trkpt lat="38.0930800270" lon="-2.6986139081">
        <ele>1432.02</ele>
        <time>2017-10-09T12:16:47Z</time>
      </trkpt>
      <trkpt lat="38.0932898261" lon="-2.6985621918">
        <ele>1431.54</ele>
        <time>2017-10-09T12:16:51Z</time>
      </trkpt>
      <trkpt lat="38.0937427003" lon="-2.6984686498">
        <ele>1431.06</ele>
        <time>2017-10-09T12:17:01Z</time>
      </trkpt>
      <trkpt lat="38.0937849451" lon="-2.6984728407">
        <ele>1431.06</ele>
        <time>2017-10-09T12:17:02Z</time>
      </trkpt>
      <trkpt lat="38.0939583667" lon="-2.6984894369">
        <ele>1431.54</ele>
        <time>2017-10-09T12:17:06Z</time>
      </trkpt>
      <trkpt lat="38.0940067302" lon="-2.6984773669">
        <ele>1431.06</ele>
        <time>2017-10-09T12:17:07Z</time>
      </trkpt>
      <trkpt lat="38.0940550938" lon="-2.6984563284">
        <ele>1431.06</ele>
        <time>2017-10-09T12:17:08Z</time>
      </trkpt>
      <trkpt lat="38.0941024516" lon="-2.6984271593">
        <ele>1431.06</ele>
        <time>2017-10-09T12:17:09Z</time>
      </trkpt>
      <trkpt lat="38.0941514019" lon="-2.6983918715">
        <ele>1430.58</ele>
        <time>2017-10-09T12:17:10Z</time>
      </trkpt>
      <trkpt lat="38.0941991787" lon="-2.6983488724">
        <ele>1431.06</ele>
        <time>2017-10-09T12:17:11Z</time>
      </trkpt>
      <trkpt lat="38.0942394957" lon="-2.6983034424">
        <ele>1431.06</ele>
        <time>2017-10-09T12:17:12Z</time>
      </trkpt>
      <trkpt lat="38.0942766275" lon="-2.6982549950">
        <ele>1431.06</ele>
        <time>2017-10-09T12:17:13Z</time>
      </trkpt>
      <trkpt lat="38.0943168607" lon="-2.6982047036">
        <ele>1430.58</ele>
        <time>2017-10-09T12:17:14Z</time>
      </trkpt>
      <trkpt lat="38.0947439186" lon="-2.6978000253">
        <ele>1430.10</ele>
        <time>2017-10-09T12:17:24Z</time>
      </trkpt>
      <trkpt lat="38.0951459147" lon="-2.6973920781">
        <ele>1429.62</ele>
        <time>2017-10-09T12:17:33Z</time>
      </trkpt>
      <trkpt lat="38.0957962666" lon="-2.6966368686">
        <ele>1430.10</ele>
        <time>2017-10-09T12:17:48Z</time>
      </trkpt>
      <trkpt lat="38.0960173812" lon="-2.6963329408">
        <ele>1430.10</ele>
        <time>2017-10-09T12:17:54Z</time>
      </trkpt>
      <trkpt lat="38.0962365679" lon="-2.6960854232">
        <ele>1430.58</ele>
        <time>2017-10-09T12:18:00Z</time>
      </trkpt>
      <trkpt lat="38.0964849237" lon="-2.6959093194">
        <ele>1431.06</ele>
        <time>2017-10-09T12:18:07Z</time>
      </trkpt>
      <trkpt lat="38.0967362970" lon="-2.6957224030">
        <ele>1431.06</ele>
        <time>2017-10-09T12:18:14Z</time>
      </trkpt>
      <trkpt lat="38.0969695654" lon="-2.6955219079">
        <ele>1431.06</ele>
        <time>2017-10-09T12:18:22Z</time>
      </trkpt>
      <trkpt lat="38.0972948670" lon="-2.6951790042">
        <ele>1431.06</ele>
        <time>2017-10-09T12:18:33Z</time>
      </trkpt>
      <trkpt lat="38.0973282270" lon="-2.6951453928">
        <ele>1431.06</ele>
        <time>2017-10-09T12:18:34Z</time>
      </trkpt>
      <trkpt lat="38.0973599944" lon="-2.6951133739">
        <ele>1431.06</ele>
        <time>2017-10-09T12:18:35Z</time>
      </trkpt>
      <trkpt lat="38.0973862298" lon="-2.6950826962">
        <ele>1431.06</ele>
        <time>2017-10-09T12:18:36Z</time>
      </trkpt>
      <trkpt lat="38.0975267105" lon="-2.6949117891">
        <ele>1431.06</ele>
        <time>2017-10-09T12:18:41Z</time>
      </trkpt>
      <trkpt lat="38.0975602381" lon="-2.6948708016">
        <ele>1431.06</ele>
        <time>2017-10-09T12:18:42Z</time>
      </trkpt>
      <trkpt lat="38.0975957774" lon="-2.6948280539">
        <ele>1431.06</ele>
        <time>2017-10-09T12:18:43Z</time>
      </trkpt>
      <trkpt lat="38.0976979528" lon="-2.6946943626">
        <ele>1431.06</ele>
        <time>2017-10-09T12:18:46Z</time>
      </trkpt>
      <trkpt lat="38.0977265351" lon="-2.6946443226">
        <ele>1431.06</ele>
        <time>2017-10-09T12:18:47Z</time>
      </trkpt>
      <trkpt lat="38.0978509225" lon="-2.6944505330">
        <ele>1431.06</ele>
        <time>2017-10-09T12:18:51Z</time>
      </trkpt>
      <trkpt lat="38.0978885572" lon="-2.6944091264">
        <ele>1430.58</ele>
        <time>2017-10-09T12:18:52Z</time>
      </trkpt>
      <trkpt lat="38.0979257729" lon="-2.6943692286">
        <ele>1430.58</ele>
        <time>2017-10-09T12:18:53Z</time>
      </trkpt>
      <trkpt lat="38.0982531700" lon="-2.6939323638">
        <ele>1429.62</ele>
        <time>2017-10-09T12:19:02Z</time>
      </trkpt>
      <trkpt lat="38.0982887093" lon="-2.6938773785">
        <ele>1429.62</ele>
        <time>2017-10-09T12:19:03Z</time>
      </trkpt>
      <trkpt lat="38.0987818167" lon="-2.6932937466">
        <ele>1428.18</ele>
        <time>2017-10-09T12:19:14Z</time>
      </trkpt>
      <trkpt lat="38.0992606748" lon="-2.6927215140">
        <ele>1428.18</ele>
        <time>2017-10-09T12:19:25Z</time>
      </trkpt>
      <trkpt lat="38.0994397961" lon="-2.6925488468">
        <ele>1427.70</ele>
        <time>2017-10-09T12:19:29Z</time>
      </trkpt>
      <trkpt lat="38.0998595618" lon="-2.6919709984">
        <ele>1427.70</ele>
        <time>2017-10-09T12:19:40Z</time>
      </trkpt>
      <trkpt lat="38.1000875495" lon="-2.6916617900">
        <ele>1427.70</ele>
        <time>2017-10-09T12:19:46Z</time>
      </trkpt>
      <trkpt lat="38.1001361646" lon="-2.6916265022">
        <ele>1427.70</ele>
        <time>2017-10-09T12:19:47Z</time>
      </trkpt>
      <trkpt lat="38.1003799941" lon="-2.6915391628">
        <ele>1427.21</ele>
        <time>2017-10-09T12:19:52Z</time>
      </trkpt>
      <trkpt lat="38.1004276872" lon="-2.6915316191">
        <ele>1427.70</ele>
        <time>2017-10-09T12:19:53Z</time>
      </trkpt>
      <trkpt lat="38.1004735362" lon="-2.6915194653">
        <ele>1427.70</ele>
        <time>2017-10-09T12:19:54Z</time>
      </trkpt>
      <trkpt lat="38.1006971654" lon="-2.6914679166">
        <ele>1427.70</ele>
        <time>2017-10-09T12:19:59Z</time>
      </trkpt>
      <trkpt lat="38.1011697371" lon="-2.6914249174">
        <ele>1427.21</ele>
        <time>2017-10-09T12:20:09Z</time>
      </trkpt>
      <trkpt lat="38.1012148317" lon="-2.6914260071">
        <ele>1427.21</ele>
        <time>2017-10-09T12:20:10Z</time>
      </trkpt>
      <trkpt lat="38.1012600940" lon="-2.6914233249">
        <ele>1427.21</ele>
        <time>2017-10-09T12:20:11Z</time>
      </trkpt>
      <trkpt lat="38.1015749183" lon="-2.6913167909">
        <ele>1427.21</ele>
        <time>2017-10-09T12:20:18Z</time>
      </trkpt>
      <trkpt lat="38.1017118786" lon="-2.6912534237">
        <ele>1426.73</ele>
        <time>2017-10-09T12:20:21Z</time>
      </trkpt>
      <trkpt lat="38.1017530337" lon="-2.6912378334">
        <ele>1426.73</ele>
        <time>2017-10-09T12:20:22Z</time>
      </trkpt>
      <trkpt lat="38.1018811930" lon="-2.6911825966">
        <ele>1426.25</ele>
        <time>2017-10-09T12:20:29Z</time>
      </trkpt>
      <trkpt lat="38.1020528544" lon="-2.6910759788">
        <ele>1426.73</ele>
        <time>2017-10-09T12:20:38Z</time>
      </trkpt>
      <trkpt lat="38.1022168044" lon="-2.6909527648">
        <ele>1421.93</ele>
        <time>2017-10-09T12:20:45Z</time>
      </trkpt>
      <trkpt lat="38.1022432074" lon="-2.6909337379">
        <ele>1428.66</ele>
        <time>2017-10-09T12:20:46Z</time>
      </trkpt>
      <trkpt lat="38.1022681016" lon="-2.6909105200">
        <ele>1428.66</ele>
        <time>2017-10-09T12:20:47Z</time>
      </trkpt>
      <trkpt lat="38.1022923253" lon="-2.6908858772">
        <ele>1425.77</ele>
        <time>2017-10-09T12:20:48Z</time>
      </trkpt>
      <trkpt lat="38.1023167167" lon="-2.6908625755">
        <ele>1427.21</ele>
        <time>2017-10-09T12:20:49Z</time>
      </trkpt>
      <trkpt lat="38.1023421139" lon="-2.6908411179">
        <ele>1423.85</ele>
        <time>2017-10-09T12:20:50Z</time>
      </trkpt>
      <trkpt lat="38.1023673434" lon="-2.6908200793">
        <ele>1428.66</ele>
        <time>2017-10-09T12:20:51Z</time>
      </trkpt>
      <trkpt lat="38.1023924891" lon="-2.6907985378">
        <ele>1425.29</ele>
        <time>2017-10-09T12:20:52Z</time>
      </trkpt>
      <trkpt lat="38.1027147733" lon="-2.6905847993">
        <ele>1427.21</ele>
        <time>2017-10-09T12:21:02Z</time>
      </trkpt>
      <trkpt lat="38.1029035337" lon="-2.6904797740">
        <ele>1427.70</ele>
        <time>2017-10-09T12:21:08Z</time>
      </trkpt>
      <trkpt lat="38.1031331141" lon="-2.6901755109">
        <ele>1427.21</ele>
        <time>2017-10-09T12:21:18Z</time>
      </trkpt>
      <trkpt lat="38.1033543963" lon="-2.6899693999">
        <ele>1427.21</ele>
        <time>2017-10-09T12:21:26Z</time>
      </trkpt>
      <trkpt lat="38.1034041010" lon="-2.6899649575">
        <ele>1427.21</ele>
        <time>2017-10-09T12:21:27Z</time>
      </trkpt>
      <trkpt lat="38.1034531351" lon="-2.6899668854">
        <ele>1427.21</ele>
        <time>2017-10-09T12:21:28Z</time>
      </trkpt>
      <trkpt lat="38.1037071068" lon="-2.6900299173">
        <ele>1427.70</ele>
        <time>2017-10-09T12:21:35Z</time>
      </trkpt>
      <trkpt lat="38.1038203463" lon="-2.6901338529">
        <ele>1428.18</ele>
        <time>2017-10-09T12:21:39Z</time>
      </trkpt>
      <trkpt lat="38.1038537901" lon="-2.6901537180">
        <ele>1427.70</ele>
        <time>2017-10-09T12:21:40Z</time>
      </trkpt>
      <trkpt lat="38.1041497551" lon="-2.6903387904">
        <ele>1428.18</ele>
        <time>2017-10-09T12:21:49Z</time>
      </trkpt>
      <trkpt lat="38.1044864561" lon="-2.6903807838">
        <ele>1427.70</ele>
        <time>2017-10-09T12:21:58Z</time>
      </trkpt>
      <trkpt lat="38.1048446149" lon="-2.6903166622">
        <ele>1427.70</ele>
        <time>2017-10-09T12:22:07Z</time>
      </trkpt>
      <trkpt lat="38.1049730256" lon="-2.6902729087">
        <ele>1427.70</ele>
        <time>2017-10-09T12:22:10Z</time>
      </trkpt>
      <trkpt lat="38.1050130911" lon="-2.6902577374">
        <ele>1427.70</ele>
        <time>2017-10-09T12:22:11Z</time>
      </trkpt>
      <trkpt lat="38.1052849162" lon="-2.6901613455">
        <ele>1427.70</ele>
        <time>2017-10-09T12:22:17Z</time>
      </trkpt>
      <trkpt lat="38.1053701602" lon="-2.6901133172">
        <ele>1427.70</ele>
        <time>2017-10-09T12:22:19Z</time>
      </trkpt>
      <trkpt lat="38.1054139137" lon="-2.6900992356">
        <ele>1427.70</ele>
        <time>2017-10-09T12:22:20Z</time>
      </trkpt>
      <trkpt lat="38.1055043545" lon="-2.6900753472">
        <ele>1428.18</ele>
        <time>2017-10-09T12:22:22Z</time>
      </trkpt>
      <trkpt lat="38.1059413869" lon="-2.6897882670">
        <ele>1429.62</ele>
        <time>2017-10-09T12:22:35Z</time>
      </trkpt>
      <trkpt lat="38.1060539559" lon="-2.6897861715">
        <ele>1429.62</ele>
        <time>2017-10-09T12:22:40Z</time>
      </trkpt>
      <trkpt lat="38.1060700491" lon="-2.6897627022">
        <ele>1429.14</ele>
        <time>2017-10-09T12:22:41Z</time>
      </trkpt>
      <trkpt lat="38.1060713902" lon="-2.6897326112">
        <ele>1429.14</ele>
        <time>2017-10-09T12:22:42Z</time>
      </trkpt>
      <trkpt lat="38.1060682889" lon="-2.6897011790">
        <ele>1429.14</ele>
        <time>2017-10-09T12:22:43Z</time>
      </trkpt>
      <trkpt lat="38.1060741562" lon="-2.6896692440">
        <ele>1429.14</ele>
        <time>2017-10-09T12:22:44Z</time>
      </trkpt>
      <trkpt lat="38.1060848851" lon="-2.6896402426">
        <ele>1429.14</ele>
        <time>2017-10-09T12:22:45Z</time>
      </trkpt>
      <trkpt lat="38.1061004754" lon="-2.6896125823">
        <ele>1429.14</ele>
        <time>2017-10-09T12:22:46Z</time>
      </trkpt>
      <trkpt lat="38.1061205082" lon="-2.6895839162">
        <ele>1428.66</ele>
        <time>2017-10-09T12:22:47Z</time>
      </trkpt>
      <trkpt lat="38.1061463244" lon="-2.6895584352">
        <ele>1428.66</ele>
        <time>2017-10-09T12:22:48Z</time>
      </trkpt>
      <trkpt lat="38.1061724760" lon="-2.6895296015">
        <ele>1428.66</ele>
        <time>2017-10-09T12:22:49Z</time>
      </trkpt>
      <trkpt lat="38.1061966158" lon="-2.6894953195">
        <ele>1428.66</ele>
        <time>2017-10-09T12:22:50Z</time>
      </trkpt>
      <trkpt lat="38.1065244321" lon="-2.6890890487">
        <ele>1427.70</ele>
        <time>2017-10-09T12:22:59Z</time>
      </trkpt>
      <trkpt lat="38.1069342233" lon="-2.6886013895">
        <ele>1424.81</ele>
        <time>2017-10-09T12:23:07Z</time>
      </trkpt>
      <trkpt lat="38.1070909649" lon="-2.6883523632">
        <ele>1423.37</ele>
        <time>2017-10-09T12:23:10Z</time>
      </trkpt>
      <trkpt lat="38.1071342994" lon="-2.6882586535">
        <ele>1423.37</ele>
        <time>2017-10-09T12:23:11Z</time>
      </trkpt>
      <trkpt lat="38.1071706768" lon="-2.6881589927">
        <ele>1422.89</ele>
        <time>2017-10-09T12:23:12Z</time>
      </trkpt>
      <trkpt lat="38.1072007678" lon="-2.6880541351">
        <ele>1422.41</ele>
        <time>2017-10-09T12:23:13Z</time>
      </trkpt>
      <trkpt lat="38.1072264165" lon="-2.6879464276">
        <ele>1421.93</ele>
        <time>2017-10-09T12:23:14Z</time>
      </trkpt>
      <trkpt lat="38.1074326951" lon="-2.6870798226">
        <ele>1419.04</ele>
        <time>2017-10-09T12:23:22Z</time>
      </trkpt>
      <trkpt lat="38.1077928655" lon="-2.6862770040">
        <ele>1415.68</ele>
        <time>2017-10-09T12:23:30Z</time>
      </trkpt>
      <trkpt lat="38.1078578252" lon="-2.6860661991">
        <ele>1414.72</ele>
        <time>2017-10-09T12:23:32Z</time>
      </trkpt>
      <trkpt lat="38.1079073623" lon="-2.6859665383">
        <ele>1414.72</ele>
        <time>2017-10-09T12:23:33Z</time>
      </trkpt>
      <trkpt lat="38.1079659518" lon="-2.6858722419">
        <ele>1414.24</ele>
        <time>2017-10-09T12:23:34Z</time>
      </trkpt>
      <trkpt lat="38.1081992202" lon="-2.6855253149">
        <ele>1411.83</ele>
        <time>2017-10-09T12:23:38Z</time>
      </trkpt>
      <trkpt lat="38.1082458235" lon="-2.6854275819">
        <ele>1411.83</ele>
        <time>2017-10-09T12:23:39Z</time>
      </trkpt>
      <trkpt lat="38.1083289720" lon="-2.6852109935">
        <ele>1410.39</ele>
        <time>2017-10-09T12:23:41Z</time>
      </trkpt>
      <trkpt lat="38.1083621643" lon="-2.6850885339">
        <ele>1409.91</ele>
        <time>2017-10-09T12:23:42Z</time>
      </trkpt>
      <trkpt lat="38.1086603925" lon="-2.6842313167">
        <ele>1406.07</ele>
        <time>2017-10-09T12:23:49Z</time>
      </trkpt>
      <trkpt lat="38.1087313872" lon="-2.6841213461">
        <ele>1405.10</ele>
        <time>2017-10-09T12:23:50Z</time>
      </trkpt>
      <trkpt lat="38.1091169547" lon="-2.6835767739">
        <ele>1402.22</ele>
        <time>2017-10-09T12:23:55Z</time>
      </trkpt>
      <trkpt lat="38.1091866922" lon="-2.6834575832">
        <ele>1401.26</ele>
        <time>2017-10-09T12:23:56Z</time>
      </trkpt>
      <trkpt lat="38.1092425995" lon="-2.6833242271">
        <ele>1400.78</ele>
        <time>2017-10-09T12:23:57Z</time>
      </trkpt>
      <trkpt lat="38.1092821620" lon="-2.6831835788">
        <ele>1399.82</ele>
        <time>2017-10-09T12:23:58Z</time>
      </trkpt>
      <trkpt lat="38.1093089841" lon="-2.6830370631">
        <ele>1399.34</ele>
        <time>2017-10-09T12:23:59Z</time>
      </trkpt>
      <trkpt lat="38.1093300227" lon="-2.6828861888">
        <ele>1398.37</ele>
        <time>2017-10-09T12:24:00Z</time>
      </trkpt>
      <trkpt lat="38.1094757840" lon="-2.6820106152">
        <ele>1395.49</ele>
        <time>2017-10-09T12:24:06Z</time>
      </trkpt>
      <trkpt lat="38.1094766222" lon="-2.6818672847">
        <ele>1395.01</ele>
        <time>2017-10-09T12:24:07Z</time>
      </trkpt>
      <trkpt lat="38.1094680727" lon="-2.6817283966">
        <ele>1394.53</ele>
        <time>2017-10-09T12:24:08Z</time>
      </trkpt>
      <trkpt lat="38.1094503030" lon="-2.6815907657">
        <ele>1393.57</ele>
        <time>2017-10-09T12:24:09Z</time>
      </trkpt>
      <trkpt lat="38.1094267499" lon="-2.6814518776">
        <ele>1393.09</ele>
        <time>2017-10-09T12:24:10Z</time>
      </trkpt>
      <trkpt lat="38.1094109919" lon="-2.6813132409">
        <ele>1392.61</ele>
        <time>2017-10-09T12:24:11Z</time>
      </trkpt>
      <trkpt lat="38.1094144285" lon="-2.6811758615">
        <ele>1392.61</ele>
        <time>2017-10-09T12:24:12Z</time>
      </trkpt>
      <trkpt lat="38.1094395742" lon="-2.6810438465">
        <ele>1392.61</ele>
        <time>2017-10-09T12:24:13Z</time>
      </trkpt>
      <trkpt lat="38.1094834115" lon="-2.6809205487">
        <ele>1392.13</ele>
        <time>2017-10-09T12:24:14Z</time>
      </trkpt>
      <trkpt lat="38.1095362175" lon="-2.6808075607">
        <ele>1392.13</ele>
        <time>2017-10-09T12:24:15Z</time>
      </trkpt>
      <trkpt lat="38.1095982436" lon="-2.6807099115">
        <ele>1392.61</ele>
        <time>2017-10-09T12:24:16Z</time>
      </trkpt>
      <trkpt lat="38.1096678972" lon="-2.6806255896">
        <ele>1392.13</ele>
        <time>2017-10-09T12:24:17Z</time>
      </trkpt>
      <trkpt lat="38.1097422447" lon="-2.6805540081">
        <ele>1392.13</ele>
        <time>2017-10-09T12:24:18Z</time>
      </trkpt>
      <trkpt lat="38.1098199449" lon="-2.6804977655">
        <ele>1391.65</ele>
        <time>2017-10-09T12:24:19Z</time>
      </trkpt>
      <trkpt lat="38.1098993216" lon="-2.6804522518">
        <ele>1392.13</ele>
        <time>2017-10-09T12:24:20Z</time>
      </trkpt>
      <trkpt lat="38.1099766027" lon="-2.6804114319">
        <ele>1392.61</ele>
        <time>2017-10-09T12:24:21Z</time>
      </trkpt>
      <trkpt lat="38.1105374359" lon="-2.6800760720">
        <ele>1392.13</ele>
        <time>2017-10-09T12:24:29Z</time>
      </trkpt>
      <trkpt lat="38.1111886259" lon="-2.6796990540">
        <ele>1390.68</ele>
        <time>2017-10-09T12:24:39Z</time>
      </trkpt>
      <trkpt lat="38.1118238904" lon="-2.6793168392">
        <ele>1388.76</ele>
        <time>2017-10-09T12:24:47Z</time>
      </trkpt>
      <trkpt lat="38.1119105592" lon="-2.6792671345">
        <ele>1388.76</ele>
        <time>2017-10-09T12:24:48Z</time>
      </trkpt>
      <trkpt lat="38.1119992398" lon="-2.6791943796">
        <ele>1387.80</ele>
        <time>2017-10-09T12:24:49Z</time>
      </trkpt>
      <trkpt lat="38.1120799575" lon="-2.6791108120">
        <ele>1387.32</ele>
        <time>2017-10-09T12:24:50Z</time>
      </trkpt>
      <trkpt lat="38.1124145631" lon="-2.6787533239">
        <ele>1383.96</ele>
        <time>2017-10-09T12:24:54Z</time>
      </trkpt>
      <trkpt lat="38.1127970293" lon="-2.6784053911">
        <ele>1381.55</ele>
        <time>2017-10-09T12:24:58Z</time>
      </trkpt>
      <trkpt lat="38.1128981151" lon="-2.6783426106">
        <ele>1381.07</ele>
        <time>2017-10-09T12:24:59Z</time>
      </trkpt>
      <trkpt lat="38.1131734606" lon="-2.6781611424">
        <ele>1381.07</ele>
        <time>2017-10-09T12:25:02Z</time>
      </trkpt>
      <trkpt lat="38.1132484786" lon="-2.6780758146">
        <ele>1380.59</ele>
        <time>2017-10-09T12:25:03Z</time>
      </trkpt>
      <trkpt lat="38.1133146957" lon="-2.6779749803">
        <ele>1380.59</ele>
        <time>2017-10-09T12:25:04Z</time>
      </trkpt>
      <trkpt lat="38.1139474455" lon="-2.6769662183">
        <ele>1377.71</ele>
        <time>2017-10-09T12:25:14Z</time>
      </trkpt>
      <trkpt lat="38.1142269820" lon="-2.6764594484">
        <ele>1375.78</ele>
        <time>2017-10-09T12:25:19Z</time>
      </trkpt>
      <trkpt lat="38.1145608332" lon="-2.6758629922">
        <ele>1374.34</ele>
        <time>2017-10-09T12:25:25Z</time>
      </trkpt>
      <trkpt lat="38.1146542914" lon="-2.6756663527">
        <ele>1373.38</ele>
        <time>2017-10-09T12:25:27Z</time>
      </trkpt>
      <trkpt lat="38.1147076841" lon="-2.6755768340">
        <ele>1372.90</ele>
        <time>2017-10-09T12:25:28Z</time>
      </trkpt>
      <trkpt lat="38.1147586461" lon="-2.6754802745">
        <ele>1372.90</ele>
        <time>2017-10-09T12:25:29Z</time>
      </trkpt>
      <trkpt lat="38.1149086822" lon="-2.6751574036">
        <ele>1369.54</ele>
        <time>2017-10-09T12:25:32Z</time>
      </trkpt>
      <trkpt lat="38.1150401104" lon="-2.6747892704">
        <ele>1366.65</ele>
        <time>2017-10-09T12:25:35Z</time>
      </trkpt>
      <trkpt lat="38.1151767354" lon="-2.6742385793">
        <ele>1363.29</ele>
        <time>2017-10-09T12:25:39Z</time>
      </trkpt>
      <trkpt lat="38.1152261049" lon="-2.6741035469">
        <ele>1361.84</ele>
        <time>2017-10-09T12:25:40Z</time>
      </trkpt>
      <trkpt lat="38.1152870413" lon="-2.6739846915">
        <ele>1360.88</ele>
        <time>2017-10-09T12:25:41Z</time>
      </trkpt>
      <trkpt lat="38.1154088303" lon="-2.6737754792">
        <ele>1358.00</ele>
        <time>2017-10-09T12:25:43Z</time>
      </trkpt>
      <trkpt lat="38.1154678389" lon="-2.6736669336">
        <ele>1357.04</ele>
        <time>2017-10-09T12:25:44Z</time>
      </trkpt>
      <trkpt lat="38.1155953277" lon="-2.6734543685">
        <ele>1356.08</ele>
        <time>2017-10-09T12:25:46Z</time>
      </trkpt>
      <trkpt lat="38.1158309430" lon="-2.6730175037">
        <ele>1353.67</ele>
        <time>2017-10-09T12:25:50Z</time>
      </trkpt>
      <trkpt lat="38.1160052028" lon="-2.6724830735">
        <ele>1350.31</ele>
        <time>2017-10-09T12:25:54Z</time>
      </trkpt>
      <trkpt lat="38.1162230484" lon="-2.6717719529">
        <ele>1346.94</ele>
        <time>2017-10-09T12:25:59Z</time>
      </trkpt>
      <trkpt lat="38.1162703224" lon="-2.6716331486">
        <ele>1346.46</ele>
        <time>2017-10-09T12:26:00Z</time>
      </trkpt>
      <trkpt lat="38.1163895130" lon="-2.6712091081">
        <ele>1345.02</ele>
        <time>2017-10-09T12:26:03Z</time>
      </trkpt>
      <trkpt lat="38.1164103001" lon="-2.6710677892">
        <ele>1345.02</ele>
        <time>2017-10-09T12:26:04Z</time>
      </trkpt>
      <trkpt lat="38.1164192688" lon="-2.6709271409">
        <ele>1345.02</ele>
        <time>2017-10-09T12:26:05Z</time>
      </trkpt>
      <trkpt lat="38.1164574903" lon="-2.6699681673">
        <ele>1345.98</ele>
        <time>2017-10-09T12:26:13Z</time>
      </trkpt>
      <trkpt lat="38.1164793670" lon="-2.6695990283">
        <ele>1346.94</ele>
        <time>2017-10-09T12:26:19Z</time>
      </trkpt>
      <trkpt lat="38.1164924428" lon="-2.6692851260">
        <ele>1347.43</ele>
        <time>2017-10-09T12:26:28Z</time>
      </trkpt>
      <trkpt lat="38.1165003218" lon="-2.6690377761">
        <ele>1347.91</ele>
        <time>2017-10-09T12:26:35Z</time>
      </trkpt>
      <trkpt lat="38.1165680476" lon="-2.6690353453">
        <ele>1347.91</ele>
        <time>2017-10-09T12:26:41Z</time>
      </trkpt>
      <trkpt lat="38.1166308280" lon="-2.6690416317">
        <ele>1347.91</ele>
        <time>2017-10-09T12:26:52Z</time>
      </trkpt>
      <trkpt lat="38.1166402996" lon="-2.6690121274">
        <ele>1346.94</ele>
        <time>2017-10-09T12:27:00Z</time>
      </trkpt>
      <trkpt lat="38.1166390423" lon="-2.6690104511">
        <ele>1345.98</ele>
        <time>2017-10-09T12:27:02Z</time>
      </trkpt>
      <trkpt lat="38.1167439837" lon="-2.6690767519">
        <ele>1348.39</ele>
        <time>2017-10-09T12:35:10Z</time>
      </trkpt>
      <trkpt lat="38.1167487614" lon="-2.6690186653">
        <ele>1347.91</ele>
        <time>2017-10-09T12:35:25Z</time>
      </trkpt>
      <trkpt lat="38.1167477556" lon="-2.6690297294">
        <ele>1347.91</ele>
        <time>2017-10-09T12:35:44Z</time>
      </trkpt>
      <trkpt lat="38.1167202629" lon="-2.6689941902">
        <ele>1348.39</ele>
        <time>2017-10-09T12:36:08Z</time>
      </trkpt>
      <trkpt lat="38.1167270523" lon="-2.6689766720">
        <ele>1348.87</ele>
        <time>2017-10-09T12:36:26Z</time>
      </trkpt>
      <trkpt lat="38.1167289801" lon="-2.6689952798">
        <ele>1347.43</ele>
        <time>2017-10-09T12:36:49Z</time>
      </trkpt>
      <trkpt lat="38.1167337578" lon="-2.6690125465">
        <ele>1351.75</ele>
        <time>2017-10-09T12:37:05Z</time>
      </trkpt>
      <trkpt lat="38.1167333387" lon="-2.6690205093">
        <ele>1348.39</ele>
        <time>2017-10-09T12:37:06Z</time>
      </trkpt>
      <trkpt lat="38.1167274714" lon="-2.6690514386">
        <ele>1347.91</ele>
        <time>2017-10-09T12:37:27Z</time>
      </trkpt>
      <trkpt lat="38.1167240348" lon="-2.6690728962">
        <ele>1347.91</ele>
        <time>2017-10-09T12:37:50Z</time>
      </trkpt>
      <trkpt lat="38.1167150661" lon="-2.6690499298">
        <ele>1347.91</ele>
        <time>2017-10-09T12:38:18Z</time>
      </trkpt>
      <trkpt lat="38.1167157367" lon="-2.6690424699">
        <ele>1347.91</ele>
        <time>2017-10-09T12:38:44Z</time>
      </trkpt>
      <trkpt lat="38.1167068519" lon="-2.6690287236">
        <ele>1349.35</ele>
        <time>2017-10-09T12:39:06Z</time>
      </trkpt>
      <trkpt lat="38.1167053431" lon="-2.6690328307">
        <ele>1347.91</ele>
        <time>2017-10-09T12:39:31Z</time>
      </trkpt>
      <trkpt lat="38.1166998111" lon="-2.6690143067">
        <ele>1347.91</ele>
        <time>2017-10-09T12:39:54Z</time>
      </trkpt>
      <trkpt lat="38.1166968774" lon="-2.6690050866">
        <ele>1347.91</ele>
        <time>2017-10-09T12:40:17Z</time>
      </trkpt>
      <trkpt lat="38.1166926865" lon="-2.6690112893">
        <ele>1347.91</ele>
        <time>2017-10-09T12:40:37Z</time>
      </trkpt>
      <trkpt lat="38.1166918483" lon="-2.6690145582">
        <ele>1347.91</ele>
        <time>2017-10-09T12:40:59Z</time>
      </trkpt>
      <trkpt lat="38.1166904233" lon="-2.6690169051">
        <ele>1347.91</ele>
        <time>2017-10-09T12:41:19Z</time>
      </trkpt>
      <trkpt lat="38.1166879926" lon="-2.6690257061">
        <ele>1347.91</ele>
        <time>2017-10-09T12:41:44Z</time>
      </trkpt>
      <trkpt lat="38.1166919321" lon="-2.6690320764">
        <ele>1347.91</ele>
        <time>2017-10-09T12:42:10Z</time>
      </trkpt>
      <trkpt lat="38.1166896690" lon="-2.6690283045">
        <ele>1347.91</ele>
        <time>2017-10-09T12:42:32Z</time>
      </trkpt>
      <trkpt lat="38.1166881602" lon="-2.6690190006">
        <ele>1348.39</ele>
        <time>2017-10-09T12:42:55Z</time>
      </trkpt>
      <trkpt lat="38.1166849751" lon="-2.6690070145">
        <ele>1348.39</ele>
        <time>2017-10-09T12:43:19Z</time>
      </trkpt>
      <trkpt lat="38.1166879926" lon="-2.6690138876">
        <ele>1348.39</ele>
        <time>2017-10-09T12:43:41Z</time>
      </trkpt>
      <trkpt lat="38.1166969612" lon="-2.6690069307">
        <ele>1348.39</ele>
        <time>2017-10-09T12:44:02Z</time>
      </trkpt>
      <trkpt lat="38.1166980509" lon="-2.6689953636">
        <ele>1348.39</ele>
        <time>2017-10-09T12:44:28Z</time>
      </trkpt>
      <trkpt lat="38.1166989729" lon="-2.6689992193">
        <ele>1348.39</ele>
        <time>2017-10-09T12:44:50Z</time>
      </trkpt>
      <trkpt lat="38.1166946143" lon="-2.6689934358">
        <ele>1347.91</ele>
        <time>2017-10-09T12:45:17Z</time>
      </trkpt>
      <trkpt lat="38.1166896690" lon="-2.6689793542">
        <ele>1348.39</ele>
        <time>2017-10-09T12:45:43Z</time>
      </trkpt>
      <trkpt lat="38.1166876573" lon="-2.6689895801">
        <ele>1348.39</ele>
        <time>2017-10-09T12:46:08Z</time>
      </trkpt>
      <trkpt lat="38.1166845560" lon="-2.6689923462">
        <ele>1348.39</ele>
        <time>2017-10-09T12:46:26Z</time>
      </trkpt>
      <trkpt lat="38.1166894175" lon="-2.6689953636">
        <ele>1348.39</ele>
        <time>2017-10-09T12:46:52Z</time>
      </trkpt>
      <trkpt lat="38.1166936923" lon="-2.6689924300">
        <ele>1348.39</ele>
        <time>2017-10-09T12:47:17Z</time>
      </trkpt>
      <trkpt lat="38.1166960392" lon="-2.6689851377">
        <ele>1348.87</ele>
        <time>2017-10-09T12:47:45Z</time>
      </trkpt>
      <trkpt lat="38.1166984700" lon="-2.6689813659">
        <ele>1348.87</ele>
        <time>2017-10-09T12:48:06Z</time>
      </trkpt>
      <trkpt lat="38.1167026609" lon="-2.6689739898">
        <ele>1348.87</ele>
        <time>2017-10-09T12:48:28Z</time>
      </trkpt>
      <trkpt lat="38.1167088635" lon="-2.6689747442">
        <ele>1348.87</ele>
        <time>2017-10-09T12:48:52Z</time>
      </trkpt>
      <trkpt lat="38.1167102046" lon="-2.6689737383">
        <ele>1348.87</ele>
        <time>2017-10-09T12:49:13Z</time>
      </trkpt>
      <trkpt lat="38.1167135574" lon="-2.6689632609">
        <ele>1348.87</ele>
        <time>2017-10-09T12:49:36Z</time>
      </trkpt>
      <trkpt lat="38.1167166587" lon="-2.6689635962">
        <ele>1348.87</ele>
        <time>2017-10-09T12:50:01Z</time>
      </trkpt>
      <trkpt lat="38.1167236995" lon="-2.6689690445">
        <ele>1348.87</ele>
        <time>2017-10-09T12:50:25Z</time>
      </trkpt>
      <trkpt lat="38.1167295668" lon="-2.6689676195">
        <ele>1348.87</ele>
        <time>2017-10-09T12:50:50Z</time>
      </trkpt>
      <trkpt lat="38.1167376973" lon="-2.6689697150">
        <ele>1348.87</ele>
        <time>2017-10-09T12:51:15Z</time>
      </trkpt>
      <trkpt lat="38.1167395413" lon="-2.6689666137">
        <ele>1348.87</ele>
        <time>2017-10-09T12:51:38Z</time>
      </trkpt>
      <trkpt lat="38.1167475879" lon="-2.6689687092">
        <ele>1349.35</ele>
        <time>2017-10-09T12:52:01Z</time>
      </trkpt>
      <trkpt lat="38.1167392060" lon="-2.6689745765">
        <ele>1348.87</ele>
        <time>2017-10-09T12:52:25Z</time>
      </trkpt>
      <trkpt lat="38.1167345122" lon="-2.6689792704">
        <ele>1349.35</ele>
        <time>2017-10-09T12:52:47Z</time>
      </trkpt>
      <trkpt lat="38.1167325843" lon="-2.6689800248">
        <ele>1349.35</ele>
        <time>2017-10-09T12:53:08Z</time>
      </trkpt>
      <trkpt lat="38.1167315785" lon="-2.6689856406">
        <ele>1349.35</ele>
        <time>2017-10-09T12:53:30Z</time>
      </trkpt>
      <trkpt lat="38.1167304050" lon="-2.6689781807">
        <ele>1349.35</ele>
        <time>2017-10-09T12:53:52Z</time>
      </trkpt>
      <trkpt lat="38.1167319976" lon="-2.6689741574">
        <ele>1349.35</ele>
        <time>2017-10-09T12:54:13Z</time>
      </trkpt>
      <trkpt lat="38.1167361885" lon="-2.6689723134">
        <ele>1349.35</ele>
        <time>2017-10-09T12:54:35Z</time>
      </trkpt>
      <trkpt lat="38.1167380325" lon="-2.6689752471">
        <ele>1349.35</ele>
        <time>2017-10-09T12:54:58Z</time>
      </trkpt>
      <trkpt lat="38.1167336740" lon="-2.6689770911">
        <ele>1349.35</ele>
        <time>2017-10-09T12:55:22Z</time>
      </trkpt>
      <trkpt lat="38.1167336740" lon="-2.6689822040">
        <ele>1349.83</ele>
        <time>2017-10-09T12:55:47Z</time>
      </trkpt>
      <trkpt lat="38.1167342607" lon="-2.6689862274">
        <ele>1349.83</ele>
        <time>2017-10-09T12:56:11Z</time>
      </trkpt>
      <trkpt lat="38.1167321652" lon="-2.6689877361">
        <ele>1349.83</ele>
        <time>2017-10-09T12:56:39Z</time>
      </trkpt>
      <trkpt lat="38.1167331710" lon="-2.6689925976">
        <ele>1349.83</ele>
        <time>2017-10-09T12:57:02Z</time>
      </trkpt>
      <trkpt lat="38.1167314947" lon="-2.6689965371">
        <ele>1349.83</ele>
        <time>2017-10-09T12:57:26Z</time>
      </trkpt>
      <trkpt lat="38.1167337578" lon="-2.6689984649">
        <ele>1349.83</ele>
        <time>2017-10-09T12:57:48Z</time>
      </trkpt>
      <trkpt lat="38.1167280581" lon="-2.6690003090">
        <ele>1349.83</ele>
        <time>2017-10-09T12:58:13Z</time>
      </trkpt>
      <trkpt lat="38.1167211011" lon="-2.6690046676">
        <ele>1350.31</ele>
        <time>2017-10-09T12:58:39Z</time>
      </trkpt>
      <trkpt lat="38.1167173292" lon="-2.6689962856">
        <ele>1349.83</ele>
        <time>2017-10-09T12:59:05Z</time>
      </trkpt>
      <trkpt lat="38.1167143956" lon="-2.6689883228">
        <ele>1349.83</ele>
        <time>2017-10-09T12:59:24Z</time>
      </trkpt>
      <trkpt lat="38.1167072710" lon="-2.6689780969">
        <ele>1349.83</ele>
        <time>2017-10-09T12:59:45Z</time>
      </trkpt>
      <trkpt lat="38.1167096179" lon="-2.6689782646">
        <ele>1349.83</ele>
        <time>2017-10-09T13:00:09Z</time>
      </trkpt>
      <trkpt lat="38.1167171616" lon="-2.6689768396">
        <ele>1349.83</ele>
        <time>2017-10-09T13:00:30Z</time>
      </trkpt>
      <trkpt lat="38.1167191733" lon="-2.6689901669">
        <ele>1349.83</ele>
        <time>2017-10-09T13:00:53Z</time>
      </trkpt>
      <trkpt lat="38.1167133898" lon="-2.6689880714">
        <ele>1349.83</ele>
        <time>2017-10-09T13:01:13Z</time>
      </trkpt>
      <trkpt lat="38.1167138088" lon="-2.6689941902">
        <ele>1349.83</ele>
        <time>2017-10-09T13:01:36Z</time>
      </trkpt>
      <trkpt lat="38.1167126354" lon="-2.6689998060">
        <ele>1349.83</ele>
        <time>2017-10-09T13:02:02Z</time>
      </trkpt>
      <trkpt lat="38.1167078577" lon="-2.6689975429">
        <ele>1349.83</ele>
        <time>2017-10-09T13:02:31Z</time>
      </trkpt>
      <trkpt lat="38.1167015713" lon="-2.6689858083">
        <ele>1349.83</ele>
        <time>2017-10-09T13:02:55Z</time>
      </trkpt>
      <trkpt lat="38.1167049240" lon="-2.6689787675">
        <ele>1349.83</ele>
        <time>2017-10-09T13:03:22Z</time>
      </trkpt>
      <trkpt lat="38.1167105399" lon="-2.6689854730">
        <ele>1349.83</ele>
        <time>2017-10-09T13:03:47Z</time>
      </trkpt>
      <trkpt lat="38.1167166587" lon="-2.6689817850">
        <ele>1349.83</ele>
        <time>2017-10-09T13:04:10Z</time>
      </trkpt>
      <trkpt lat="38.1167195085" lon="-2.6689791027">
        <ele>1349.83</ele>
        <time>2017-10-09T13:04:29Z</time>
      </trkpt>
      <trkpt lat="38.1167182513" lon="-2.6689835452">
        <ele>1349.83</ele>
        <time>2017-10-09T13:04:50Z</time>
      </trkpt>
      <trkpt lat="38.1167202629" lon="-2.6689785998">
        <ele>1350.31</ele>
        <time>2017-10-09T13:05:09Z</time>
      </trkpt>
      <trkpt lat="38.1167183351" lon="-2.6689826231">
        <ele>1349.83</ele>
        <time>2017-10-09T13:05:27Z</time>
      </trkpt>
      <trkpt lat="38.1167231128" lon="-2.6689836290">
        <ele>1349.83</ele>
        <time>2017-10-09T13:05:46Z</time>
      </trkpt>
      <trkpt lat="38.1167233642" lon="-2.6689812820">
        <ele>1349.83</ele>
        <time>2017-10-09T13:06:05Z</time>
      </trkpt>
      <trkpt lat="38.1167273037" lon="-2.6689717267">
        <ele>1349.83</ele>
        <time>2017-10-09T13:06:24Z</time>
      </trkpt>
      <trkpt lat="38.1167336740" lon="-2.6689731516">
        <ele>1349.35</ele>
        <time>2017-10-09T13:06:41Z</time>
      </trkpt>
      <trkpt lat="38.1167373620" lon="-2.6689695474">
        <ele>1349.35</ele>
        <time>2017-10-09T13:07:05Z</time>
      </trkpt>
      <trkpt lat="38.1167310756" lon="-2.6689620037">
        <ele>1349.35</ele>
        <time>2017-10-09T13:07:24Z</time>
      </trkpt>
      <trkpt lat="38.1167329196" lon="-2.6689611655">
        <ele>1349.35</ele>
        <time>2017-10-09T13:07:42Z</time>
      </trkpt>
      <trkpt lat="38.1167428941" lon="-2.6689545438">
        <ele>1349.35</ele>
        <time>2017-10-09T13:08:13Z</time>
      </trkpt>
      <trkpt lat="38.1167453248" lon="-2.6689507719">
        <ele>1349.35</ele>
        <time>2017-10-09T13:08:38Z</time>
      </trkpt>
      <trkpt lat="38.1167560536" lon="-2.6689435635">
        <ele>1349.35</ele>
        <time>2017-10-09T13:09:01Z</time>
      </trkpt>
      <trkpt lat="38.1167518627" lon="-2.6689515263">
        <ele>1348.87</ele>
        <time>2017-10-09T13:09:27Z</time>
      </trkpt>
      <trkpt lat="38.1167485099" lon="-2.6689452399">
        <ele>1348.87</ele>
        <time>2017-10-09T13:09:55Z</time>
      </trkpt>
      <trkpt lat="38.1167431455" lon="-2.6689459942">
        <ele>1348.87</ele>
        <time>2017-10-09T13:10:20Z</time>
      </trkpt>
      <trkpt lat="38.1167353503" lon="-2.6689454913">
        <ele>1348.39</ele>
        <time>2017-10-09T13:10:41Z</time>
      </trkpt>
      <trkpt lat="38.1167353503" lon="-2.6689449884">
        <ele>1348.39</ele>
        <time>2017-10-09T13:11:07Z</time>
      </trkpt>
      <trkpt lat="38.1167488452" lon="-2.6689565554">
        <ele>1348.39</ele>
        <time>2017-10-09T13:11:31Z</time>
      </trkpt>
      <trkpt lat="38.1167440675" lon="-2.6689550467">
        <ele>1348.39</ele>
        <time>2017-10-09T13:11:56Z</time>
      </trkpt>
      <trkpt lat="38.1167368591" lon="-2.6689540409">
        <ele>1348.39</ele>
        <time>2017-10-09T13:12:21Z</time>
      </trkpt>
      <trkpt lat="38.1167359371" lon="-2.6689641830">
        <ele>1347.91</ele>
        <time>2017-10-09T13:12:43Z</time>
      </trkpt>
      <trkpt lat="38.1167366076" lon="-2.6689526159">
        <ele>1348.39</ele>
        <time>2017-10-09T13:13:07Z</time>
      </trkpt>
      <trkpt lat="38.1167350989" lon="-2.6689473353">
        <ele>1347.91</ele>
        <time>2017-10-09T13:13:32Z</time>
      </trkpt>
      <trkpt lat="38.1167318299" lon="-2.6689429767">
        <ele>1347.91</ele>
        <time>2017-10-09T13:13:55Z</time>
      </trkpt>
      <trkpt lat="38.1167289801" lon="-2.6689356845">
        <ele>1347.91</ele>
        <time>2017-10-09T13:14:16Z</time>
      </trkpt>
      <trkpt lat="38.1167312432" lon="-2.6689329185">
        <ele>1347.91</ele>
        <time>2017-10-09T13:14:37Z</time>
      </trkpt>
      <trkpt lat="38.1167225260" lon="-2.6689298172">
        <ele>1347.91</ele>
        <time>2017-10-09T13:15:01Z</time>
      </trkpt>
      <trkpt lat="38.1167252082" lon="-2.6689191721">
        <ele>1347.91</ele>
        <time>2017-10-09T13:15:23Z</time>
      </trkpt>
      <trkpt lat="38.1167366914" lon="-2.6689206809">
        <ele>1347.91</ele>
        <time>2017-10-09T13:15:51Z</time>
      </trkpt>
      <trkpt lat="38.1167389546" lon="-2.6689247880">
        <ele>1347.91</ele>
        <time>2017-10-09T13:16:09Z</time>
      </trkpt>
      <trkpt lat="38.1167397089" lon="-2.6689432282">
        <ele>1347.91</ele>
        <time>2017-10-09T13:16:34Z</time>
      </trkpt>
      <trkpt lat="38.1167329196" lon="-2.6689501852">
        <ele>1347.91</ele>
        <time>2017-10-09T13:16:55Z</time>
      </trkpt>
      <trkpt lat="38.1167298183" lon="-2.6689651888">
        <ele>1347.91</ele>
        <time>2017-10-09T13:17:15Z</time>
      </trkpt>
      <trkpt lat="38.1167185865" lon="-2.6689769235">
        <ele>1347.91</ele>
        <time>2017-10-09T13:17:39Z</time>
      </trkpt>
      <trkpt lat="38.1167174131" lon="-2.6689791027">
        <ele>1347.91</ele>
        <time>2017-10-09T13:18:05Z</time>
      </trkpt>
      <trkpt lat="38.1167132221" lon="-2.6689841319">
        <ele>1347.91</ele>
        <time>2017-10-09T13:18:31Z</time>
      </trkpt>
      <trkpt lat="38.1167186704" lon="-2.6689897478">
        <ele>1347.91</ele>
        <time>2017-10-09T13:18:57Z</time>
      </trkpt>
      <trkpt lat="38.1167204306" lon="-2.6689926814">
        <ele>1347.91</ele>
        <time>2017-10-09T13:19:19Z</time>
      </trkpt>
      <trkpt lat="38.1167149823" lon="-2.6689976268">
        <ele>1347.43</ele>
        <time>2017-10-09T13:19:40Z</time>
      </trkpt>
      <trkpt lat="38.1167161558" lon="-2.6689901669">
        <ele>1347.43</ele>
        <time>2017-10-09T13:20:06Z</time>
      </trkpt>
      <trkpt lat="38.1167217717" lon="-2.6689990517">
        <ele>1347.43</ele>
        <time>2017-10-09T13:20:29Z</time>
      </trkpt>
      <trkpt lat="38.1167238671" lon="-2.6690024883">
        <ele>1347.43</ele>
        <time>2017-10-09T13:20:54Z</time>
      </trkpt>
      <trkpt lat="38.1167184189" lon="-2.6690085232">
        <ele>1347.43</ele>
        <time>2017-10-09T13:21:20Z</time>
      </trkpt>
      <trkpt lat="38.1167126354" lon="-2.6690060925">
        <ele>1347.43</ele>
        <time>2017-10-09T13:21:46Z</time>
      </trkpt>
      <trkpt lat="38.1167109590" lon="-2.6690016501">
        <ele>1347.43</ele>
        <time>2017-10-09T13:22:10Z</time>
      </trkpt>
      <trkpt lat="38.1167097017" lon="-2.6689992193">
        <ele>1347.43</ele>
        <time>2017-10-09T13:22:32Z</time>
      </trkpt>
      <trkpt lat="38.1167072710" lon="-2.6690056734">
        <ele>1347.43</ele>
        <time>2017-10-09T13:22:43Z</time>
      </trkpt>
      <trkpt lat="38.1167122163" lon="-2.6689998060">
        <ele>1347.91</ele>
        <time>2017-10-09T13:22:53Z</time>
      </trkpt>
      <trkpt lat="38.1167138088" lon="-2.6689710561">
        <ele>1349.35</ele>
        <time>2017-10-09T13:24:05Z</time>
      </trkpt>
      <trkpt lat="38.1166799460" lon="-2.6689594891">
        <ele>1349.35</ele>
        <time>2017-10-09T13:24:22Z</time>
      </trkpt>
      <trkpt lat="38.1167140603" lon="-2.6690019015">
        <ele>1349.35</ele>
        <time>2017-10-09T13:24:39Z</time>
      </trkpt>
      <trkpt lat="38.1167124677" lon="-2.6689682901">
        <ele>1348.87</ele>
        <time>2017-10-09T13:24:58Z</time>
      </trkpt>
      <trkpt lat="38.1167287286" lon="-2.6689495146">
        <ele>1349.35</ele>
        <time>2017-10-09T13:25:14Z</time>
      </trkpt>
      <trkpt lat="38.1167292316" lon="-2.6689495146">
        <ele>1349.35</ele>
        <time>2017-10-09T13:25:15Z</time>
      </trkpt>
      <trkpt lat="38.1167261302" lon="-2.6689405460">
        <ele>1348.87</ele>
        <time>2017-10-09T13:25:18Z</time>
      </trkpt>
      <trkpt lat="38.1164696440" lon="-2.6690465771">
        <ele>1349.83</ele>
        <time>2017-10-09T13:39:07Z</time>
      </trkpt>
      <trkpt lat="38.1164797861" lon="-2.6690424699">
        <ele>1349.83</ele>
        <time>2017-10-09T13:39:09Z</time>
      </trkpt>
      <trkpt lat="38.1164635252" lon="-2.6689764205">
        <ele>1347.43</ele>
        <time>2017-10-09T13:39:17Z</time>
      </trkpt>
      <trkpt lat="38.1164682191" lon="-2.6689734031">
        <ele>1344.54</ele>
        <time>2017-10-09T13:39:22Z</time>
      </trkpt>
      <trkpt lat="38.1164746732" lon="-2.6689955313">
        <ele>1343.58</ele>
        <time>2017-10-09T13:39:25Z</time>
      </trkpt>
      <trkpt lat="38.1165009085" lon="-2.6689899154">
        <ele>1340.22</ele>
        <time>2017-10-09T13:39:33Z</time>
      </trkpt>
      <trkpt lat="38.1165152416" lon="-2.6689760853">
        <ele>1336.37</ele>
        <time>2017-10-09T13:39:50Z</time>
      </trkpt>
      <trkpt lat="38.1164920237" lon="-2.6689957827">
        <ele>1336.85</ele>
        <time>2017-10-09T13:40:08Z</time>
      </trkpt>
      <trkpt lat="38.1164836418" lon="-2.6689806953">
        <ele>1336.85</ele>
        <time>2017-10-09T13:40:28Z</time>
      </trkpt>
      <trkpt lat="38.1164871622" lon="-2.6689852215">
        <ele>1336.85</ele>
        <time>2017-10-09T13:40:42Z</time>
      </trkpt>
      <trkpt lat="38.1164869945" lon="-2.6689720619">
        <ele>1336.85</ele>
        <time>2017-10-09T13:41:01Z</time>
      </trkpt>
      <trkpt lat="38.1164824683" lon="-2.6689905021">
        <ele>1336.37</ele>
        <time>2017-10-09T13:41:20Z</time>
      </trkpt>
      <trkpt lat="38.1164836418" lon="-2.6689920947">
        <ele>1336.37</ele>
        <time>2017-10-09T13:41:28Z</time>
      </trkpt>
      <trkpt lat="38.1165057700" lon="-2.6689230278">
        <ele>1336.85</ele>
        <time>2017-10-09T13:41:38Z</time>
      </trkpt>
      <trkpt lat="38.1165044289" lon="-2.6689257100">
        <ele>1336.85</ele>
        <time>2017-10-09T13:41:55Z</time>
      </trkpt>
      <trkpt lat="38.1165056862" lon="-2.6689351816">
        <ele>1336.37</ele>
        <time>2017-10-09T13:42:12Z</time>
      </trkpt>
      <trkpt lat="38.1164981425" lon="-2.6689135563">
        <ele>1336.85</ele>
        <time>2017-10-09T13:42:21Z</time>
      </trkpt>
      <trkpt lat="38.1164864916" lon="-2.6688895840">
        <ele>1336.85</ele>
        <time>2017-10-09T13:42:23Z</time>
      </trkpt>
      <trkpt lat="38.1164914370" lon="-2.6687960420">
        <ele>1336.85</ele>
        <time>2017-10-09T13:42:27Z</time>
      </trkpt>
      <trkpt lat="38.1165408064" lon="-2.6684210356">
        <ele>1337.33</ele>
        <time>2017-10-09T13:42:36Z</time>
      </trkpt>
      <trkpt lat="38.1165573187" lon="-2.6683759410">
        <ele>1337.33</ele>
        <time>2017-10-09T13:42:37Z</time>
      </trkpt>
      <trkpt lat="38.1165786926" lon="-2.6683342829">
        <ele>1337.33</ele>
        <time>2017-10-09T13:42:38Z</time>
      </trkpt>
      <trkpt lat="38.1167712249" lon="-2.6680213027">
        <ele>1338.77</ele>
        <time>2017-10-09T13:42:47Z</time>
      </trkpt>
      <trkpt lat="38.1170407031" lon="-2.6676620543">
        <ele>1340.22</ele>
        <time>2017-10-09T13:43:00Z</time>
      </trkpt>
      <trkpt lat="38.1171370950" lon="-2.6674985234">
        <ele>1340.70</ele>
        <time>2017-10-09T13:43:08Z</time>
      </trkpt>
      <trkpt lat="38.1171501707" lon="-2.6674802508">
        <ele>1340.70</ele>
        <time>2017-10-09T13:43:09Z</time>
      </trkpt>
      <trkpt lat="38.1171640847" lon="-2.6674610563">
        <ele>1340.70</ele>
        <time>2017-10-09T13:43:10Z</time>
      </trkpt>
      <trkpt lat="38.1172255240" lon="-2.6673491579">
        <ele>1340.70</ele>
        <time>2017-10-09T13:43:16Z</time>
      </trkpt>
      <trkpt lat="38.1172135379" lon="-2.6673498284">
        <ele>1340.70</ele>
        <time>2017-10-09T13:43:17Z</time>
      </trkpt>
      <trkpt lat="38.1171988696" lon="-2.6673839428">
        <ele>1341.18</ele>
        <time>2017-10-09T13:43:21Z</time>
      </trkpt>
      <trkpt lat="38.1171877217" lon="-2.6674184762">
        <ele>1341.18</ele>
        <time>2017-10-09T13:43:23Z</time>
      </trkpt>
      <trkpt lat="38.1171717122" lon="-2.6674336474">
        <ele>1341.18</ele>
        <time>2017-10-09T13:43:24Z</time>
      </trkpt>
      <trkpt lat="38.1171552837" lon="-2.6674493216">
        <ele>1341.18</ele>
        <time>2017-10-09T13:43:25Z</time>
      </trkpt>
      <trkpt lat="38.1171403639" lon="-2.6674678456">
        <ele>1341.18</ele>
        <time>2017-10-09T13:43:26Z</time>
      </trkpt>
      <trkpt lat="38.1171344128" lon="-2.6674912311">
        <ele>1340.70</ele>
        <time>2017-10-09T13:43:27Z</time>
      </trkpt>
      <trkpt lat="38.1171282940" lon="-2.6675147004">
        <ele>1340.70</ele>
        <time>2017-10-09T13:43:28Z</time>
      </trkpt>
      <trkpt lat="38.1171136256" lon="-2.6675347332">
        <ele>1340.70</ele>
        <time>2017-10-09T13:43:29Z</time>
      </trkpt>
      <trkpt lat="38.1170918327" lon="-2.6675544307">
        <ele>1340.70</ele>
        <time>2017-10-09T13:43:30Z</time>
      </trkpt>
      <trkpt lat="38.1170716323" lon="-2.6675808337">
        <ele>1340.70</ele>
        <time>2017-10-09T13:43:31Z</time>
      </trkpt>
      <trkpt lat="38.1170570478" lon="-2.6676161215">
        <ele>1340.70</ele>
        <time>2017-10-09T13:43:32Z</time>
      </trkpt>
      <trkpt lat="38.1170408707" lon="-2.6676514093">
        <ele>1340.70</ele>
        <time>2017-10-09T13:43:33Z</time>
      </trkpt>
      <trkpt lat="38.1169998832" lon="-2.6677599549">
        <ele>1340.22</ele>
        <time>2017-10-09T13:43:40Z</time>
      </trkpt>
      <trkpt lat="38.1170136295" lon="-2.6677394193">
        <ele>1340.22</ele>
        <time>2017-10-09T13:43:48Z</time>
      </trkpt>
      <trkpt lat="38.1170218438" lon="-2.6677358989">
        <ele>1340.22</ele>
        <time>2017-10-09T13:44:12Z</time>
      </trkpt>
      <trkpt lat="38.1170230173" lon="-2.6677518245">
        <ele>1339.73</ele>
        <time>2017-10-09T13:44:36Z</time>
      </trkpt>
      <trkpt lat="38.1170199998" lon="-2.6677452866">
        <ele>1339.73</ele>
        <time>2017-10-09T13:44:59Z</time>
      </trkpt>
      <trkpt lat="38.1170191616" lon="-2.6677556802">
        <ele>1339.73</ele>
        <time>2017-10-09T13:45:10Z</time>
      </trkpt>
      <trkpt lat="38.1170100253" lon="-2.6677752938">
        <ele>1339.25</ele>
        <time>2017-10-09T13:45:31Z</time>
      </trkpt>
      <trkpt lat="38.1170128752" lon="-2.6677473821">
        <ele>1339.25</ele>
        <time>2017-10-09T13:46:00Z</time>
      </trkpt>
      <trkpt lat="38.1169968657" lon="-2.6677348092">
        <ele>1339.25</ele>
        <time>2017-10-09T13:46:13Z</time>
      </trkpt>
      <trkpt lat="38.1169956923" lon="-2.6677118428">
        <ele>1339.25</ele>
        <time>2017-10-09T13:46:18Z</time>
      </trkpt>
      <trkpt lat="38.1170021463" lon="-2.6676938217">
        <ele>1339.25</ele>
        <time>2017-10-09T13:46:19Z</time>
      </trkpt>
      <trkpt lat="38.1170152221" lon="-2.6676734537">
        <ele>1338.77</ele>
        <time>2017-10-09T13:46:20Z</time>
      </trkpt>
      <trkpt lat="38.1170341652" lon="-2.6676521637">
        <ele>1338.77</ele>
        <time>2017-10-09T13:46:21Z</time>
      </trkpt>
      <trkpt lat="38.1170543656" lon="-2.6676219050">
        <ele>1338.77</ele>
        <time>2017-10-09T13:46:22Z</time>
      </trkpt>
      <trkpt lat="38.1170764100" lon="-2.6675882936">
        <ele>1338.77</ele>
        <time>2017-10-09T13:46:23Z</time>
      </trkpt>
      <trkpt lat="38.1171460636" lon="-2.6674664207">
        <ele>1338.77</ele>
        <time>2017-10-09T13:46:26Z</time>
      </trkpt>
      <trkpt lat="38.1175022945" lon="-2.6669142209">
        <ele>1339.73</ele>
        <time>2017-10-09T13:46:39Z</time>
      </trkpt>
      <trkpt lat="38.1178472936" lon="-2.6663837302">
        <ele>1340.70</ele>
        <time>2017-10-09T13:46:51Z</time>
      </trkpt>
      <trkpt lat="38.1180654746" lon="-2.6658612024">
        <ele>1341.18</ele>
        <time>2017-10-09T13:47:02Z</time>
      </trkpt>
      <trkpt lat="38.1181805581" lon="-2.6655404270">
        <ele>1341.66</ele>
        <time>2017-10-09T13:47:11Z</time>
      </trkpt>
      <trkpt lat="38.1182005908" lon="-2.6654454600">
        <ele>1341.66</ele>
        <time>2017-10-09T13:47:20Z</time>
      </trkpt>
      <trkpt lat="38.1182528101" lon="-2.6653654967">
        <ele>1341.66</ele>
        <time>2017-10-09T13:47:32Z</time>
      </trkpt>
      <trkpt lat="38.1182685681" lon="-2.6653563604">
        <ele>1342.14</ele>
        <time>2017-10-09T13:47:33Z</time>
      </trkpt>
      <trkpt lat="38.1182838231" lon="-2.6653479785">
        <ele>1341.66</ele>
        <time>2017-10-09T13:47:34Z</time>
      </trkpt>
      <trkpt lat="38.1183021795" lon="-2.6653389260">
        <ele>1341.66</ele>
        <time>2017-10-09T13:47:35Z</time>
      </trkpt>
      <trkpt lat="38.1183199491" lon="-2.6653331425">
        <ele>1341.66</ele>
        <time>2017-10-09T13:47:36Z</time>
      </trkpt>
      <trkpt lat="38.1183394790" lon="-2.6653375849">
        <ele>1341.66</ele>
        <time>2017-10-09T13:47:37Z</time>
      </trkpt>
      <trkpt lat="38.1183603499" lon="-2.6653478947">
        <ele>1341.18</ele>
        <time>2017-10-09T13:47:38Z</time>
      </trkpt>
      <trkpt lat="38.1183854956" lon="-2.6653680950">
        <ele>1341.18</ele>
        <time>2017-10-09T13:47:39Z</time>
      </trkpt>
      <trkpt lat="38.1184108090" lon="-2.6653939951">
        <ele>1340.70</ele>
        <time>2017-10-09T13:47:40Z</time>
      </trkpt>
      <trkpt lat="38.1184393913" lon="-2.6654228289">
        <ele>1340.70</ele>
        <time>2017-10-09T13:47:41Z</time>
      </trkpt>
      <trkpt lat="38.1184705719" lon="-2.6654550154">
        <ele>1340.22</ele>
        <time>2017-10-09T13:47:42Z</time>
      </trkpt>
      <trkpt lat="38.1185013335" lon="-2.6654891297">
        <ele>1340.22</ele>
        <time>2017-10-09T13:47:43Z</time>
      </trkpt>
      <trkpt lat="38.1187750865" lon="-2.6657692529">
        <ele>1339.25</ele>
        <time>2017-10-09T13:47:51Z</time>
      </trkpt>
      <trkpt lat="38.1188032497" lon="-2.6658114139">
        <ele>1339.25</ele>
        <time>2017-10-09T13:47:52Z</time>
      </trkpt>
      <trkpt lat="38.1188328378" lon="-2.6658456121">
        <ele>1338.77</ele>
        <time>2017-10-09T13:47:53Z</time>
      </trkpt>
      <trkpt lat="38.1188671198" lon="-2.6658749487">
        <ele>1339.25</ele>
        <time>2017-10-09T13:47:54Z</time>
      </trkpt>
      <trkpt lat="38.1188996416" lon="-2.6659056265">
        <ele>1339.25</ele>
        <time>2017-10-09T13:47:55Z</time>
      </trkpt>
      <trkpt lat="38.1189269666" lon="-2.6659340411">
        <ele>1339.25</ele>
        <time>2017-10-09T13:47:56Z</time>
      </trkpt>
      <trkpt lat="38.1191118713" lon="-2.6661686506">
        <ele>1340.70</ele>
        <time>2017-10-09T13:48:06Z</time>
      </trkpt>
      <trkpt lat="38.1191843748" lon="-2.6664460916">
        <ele>1342.62</ele>
        <time>2017-10-09T13:48:15Z</time>
      </trkpt>
      <trkpt lat="38.1191889849" lon="-2.6667350158">
        <ele>1344.06</ele>
        <time>2017-10-09T13:48:25Z</time>
      </trkpt>
      <trkpt lat="38.1192590576" lon="-2.6671574637">
        <ele>1344.06</ele>
        <time>2017-10-09T13:48:36Z</time>
      </trkpt>
      <trkpt lat="38.1192575488" lon="-2.6672735531">
        <ele>1343.58</ele>
        <time>2017-10-09T13:48:38Z</time>
      </trkpt>
      <trkpt lat="38.1192156393" lon="-2.6674949192">
        <ele>1342.14</ele>
        <time>2017-10-09T13:48:41Z</time>
      </trkpt>
      <trkpt lat="38.1190821156" lon="-2.6679909602">
        <ele>1338.29</ele>
        <time>2017-10-09T13:48:46Z</time>
      </trkpt>
      <trkpt lat="38.1190121267" lon="-2.6684528030">
        <ele>1334.93</ele>
        <time>2017-10-09T13:48:50Z</time>
      </trkpt>
      <trkpt lat="38.1190086901" lon="-2.6686719060">
        <ele>1333.49</ele>
        <time>2017-10-09T13:48:52Z</time>
      </trkpt>
      <trkpt lat="38.1190241128" lon="-2.6688636001">
        <ele>1332.52</ele>
        <time>2017-10-09T13:48:54Z</time>
      </trkpt>
      <trkpt lat="38.1190413795" lon="-2.6689511910">
        <ele>1330.60</ele>
        <time>2017-10-09T13:48:55Z</time>
      </trkpt>
      <trkpt lat="38.1190702133" lon="-2.6690420508">
        <ele>1329.64</ele>
        <time>2017-10-09T13:48:56Z</time>
      </trkpt>
      <trkpt lat="38.1191103626" lon="-2.6691331621">
        <ele>1329.16</ele>
        <time>2017-10-09T13:48:57Z</time>
      </trkpt>
      <trkpt lat="38.1191570498" lon="-2.6692245249">
        <ele>1328.68</ele>
        <time>2017-10-09T13:48:58Z</time>
      </trkpt>
      <trkpt lat="38.1192072574" lon="-2.6693171449">
        <ele>1328.20</ele>
        <time>2017-10-09T13:48:59Z</time>
      </trkpt>
      <trkpt lat="38.1194233429" lon="-2.6696773153">
        <ele>1327.24</ele>
        <time>2017-10-09T13:49:03Z</time>
      </trkpt>
      <trkpt lat="38.1194543559" lon="-2.6697670855">
        <ele>1327.24</ele>
        <time>2017-10-09T13:49:04Z</time>
      </trkpt>
      <trkpt lat="38.1194553617" lon="-2.6698611304">
        <ele>1328.20</ele>
        <time>2017-10-09T13:49:05Z</time>
      </trkpt>
      <trkpt lat="38.1194287073" lon="-2.6699484698">
        <ele>1327.72</ele>
        <time>2017-10-09T13:49:06Z</time>
      </trkpt>
      <trkpt lat="38.1193940900" lon="-2.6700288523">
        <ele>1327.24</ele>
        <time>2017-10-09T13:49:07Z</time>
      </trkpt>
      <trkpt lat="38.1193263642" lon="-2.6701803133">
        <ele>1327.72</ele>
        <time>2017-10-09T13:49:09Z</time>
      </trkpt>
      <trkpt lat="38.1192860473" lon="-2.6702484582">
        <ele>1327.24</ele>
        <time>2017-10-09T13:49:10Z</time>
      </trkpt>
      <trkpt lat="38.1190009788" lon="-2.6706202794">
        <ele>1326.28</ele>
        <time>2017-10-09T13:49:16Z</time>
      </trkpt>
      <trkpt lat="38.1189647689" lon="-2.6706967223">
        <ele>1326.28</ele>
        <time>2017-10-09T13:49:17Z</time>
      </trkpt>
      <trkpt lat="38.1189370248" lon="-2.6707771886">
        <ele>1325.80</ele>
        <time>2017-10-09T13:49:18Z</time>
      </trkpt>
      <trkpt lat="38.1189189199" lon="-2.6708564814">
        <ele>1325.80</ele>
        <time>2017-10-09T13:49:19Z</time>
      </trkpt>
      <trkpt lat="38.1189109571" lon="-2.6709347684">
        <ele>1325.80</ele>
        <time>2017-10-09T13:49:20Z</time>
      </trkpt>
      <trkpt lat="38.1189123821" lon="-2.6710084453">
        <ele>1325.80</ele>
        <time>2017-10-09T13:49:21Z</time>
      </trkpt>
      <trkpt lat="38.1189203449" lon="-2.6710780989">
        <ele>1326.28</ele>
        <time>2017-10-09T13:49:22Z</time>
      </trkpt>
      <trkpt lat="38.1189318281" lon="-2.6711453218">
        <ele>1326.28</ele>
        <time>2017-10-09T13:49:23Z</time>
      </trkpt>
      <trkpt lat="38.1189468317" lon="-2.6712070964">
        <ele>1326.76</ele>
        <time>2017-10-09T13:49:24Z</time>
      </trkpt>
      <trkpt lat="38.1189651042" lon="-2.6712616626">
        <ele>1326.76</ele>
        <time>2017-10-09T13:49:25Z</time>
      </trkpt>
      <trkpt lat="38.1189857237" lon="-2.6713096909">
        <ele>1326.76</ele>
        <time>2017-10-09T13:49:26Z</time>
      </trkpt>
      <trkpt lat="38.1190032419" lon="-2.6713512652">
        <ele>1327.24</ele>
        <time>2017-10-09T13:49:27Z</time>
      </trkpt>
      <trkpt lat="38.1190133002" lon="-2.6713941805">
        <ele>1327.24</ele>
        <time>2017-10-09T13:49:28Z</time>
      </trkpt>
      <trkpt lat="38.1190173235" lon="-2.6714355033">
        <ele>1327.24</ele>
        <time>2017-10-09T13:49:29Z</time>
      </trkpt>
      <trkpt lat="38.1190423854" lon="-2.6715283748">
        <ele>1327.24</ele>
        <time>2017-10-09T13:49:34Z</time>
      </trkpt>
      <trkpt lat="38.1190011464" lon="-2.6714352518">
        <ele>1327.24</ele>
        <time>2017-10-09T13:49:39Z</time>
      </trkpt>
      <trkpt lat="38.1188993063" lon="-2.6710278075">
        <ele>1326.28</ele>
        <time>2017-10-09T13:49:50Z</time>
      </trkpt>
      <trkpt lat="38.1188987195" lon="-2.6709352713">
        <ele>1326.28</ele>
        <time>2017-10-09T13:49:58Z</time>
      </trkpt>
      <trkpt lat="38.1189087778" lon="-2.6709489338">
        <ele>1326.28</ele>
        <time>2017-10-09T13:50:09Z</time>
      </trkpt>
      <trkpt lat="38.1188958697" lon="-2.6709397137">
        <ele>1326.28</ele>
        <time>2017-10-09T13:50:20Z</time>
      </trkpt>
      <trkpt lat="38.1188962050" lon="-2.6709554717">
        <ele>1326.76</ele>
        <time>2017-10-09T13:50:47Z</time>
      </trkpt>
      <trkpt lat="38.1189031620" lon="-2.6709600817">
        <ele>1326.28</ele>
        <time>2017-10-09T13:50:59Z</time>
      </trkpt>
      <trkpt lat="38.1189042516" lon="-2.6709610876">
        <ele>1326.28</ele>
        <time>2017-10-09T13:51:01Z</time>
      </trkpt>
      <trkpt lat="38.1189330854" lon="-2.6711504348">
        <ele>1322.43</ele>
        <time>2017-10-09T13:51:08Z</time>
      </trkpt>
      <trkpt lat="38.1189397071" lon="-2.6711807773">
        <ele>1329.16</ele>
        <time>2017-10-09T13:51:09Z</time>
      </trkpt>
      <trkpt lat="38.1189491786" lon="-2.6712107845">
        <ele>1326.76</ele>
        <time>2017-10-09T13:51:10Z</time>
      </trkpt>
      <trkpt lat="38.1190558802" lon="-2.6716201566">
        <ele>1327.24</ele>
        <time>2017-10-09T13:51:21Z</time>
      </trkpt>
      <trkpt lat="38.1190870609" lon="-2.6720861904">
        <ele>1328.20</ele>
        <time>2017-10-09T13:51:32Z</time>
      </trkpt>
      <trkpt lat="38.1191063393" lon="-2.6722573489">
        <ele>1329.16</ele>
        <time>2017-10-09T13:51:38Z</time>
      </trkpt>
      <trkpt lat="38.1191726401" lon="-2.6724923775">
        <ele>1330.60</ele>
        <time>2017-10-09T13:51:49Z</time>
      </trkpt>
      <trkpt lat="38.1192069221" lon="-2.6726088859">
        <ele>1331.56</ele>
        <time>2017-10-09T13:51:55Z</time>
      </trkpt>
      <trkpt lat="38.1192667689" lon="-2.6728485245">
        <ele>1333.49</ele>
        <time>2017-10-09T13:52:06Z</time>
      </trkpt>
      <trkpt lat="38.1193025596" lon="-2.6730937790">
        <ele>1334.93</ele>
        <time>2017-10-09T13:52:15Z</time>
      </trkpt>
      <trkpt lat="38.1193059124" lon="-2.6733794343">
        <ele>1336.85</ele>
        <time>2017-10-09T13:52:26Z</time>
      </trkpt>
      <trkpt lat="38.1193486601" lon="-2.6736507565">
        <ele>1337.81</ele>
        <time>2017-10-09T13:52:37Z</time>
      </trkpt>
      <trkpt lat="38.1193935871" lon="-2.6739236712">
        <ele>1340.70</ele>
        <time>2017-10-09T13:52:48Z</time>
      </trkpt>
      <trkpt lat="38.1194558647" lon="-2.6743222307">
        <ele>1343.58</ele>
        <time>2017-10-09T13:53:03Z</time>
      </trkpt>
      <trkpt lat="38.1194704492" lon="-2.6744251605">
        <ele>1344.06</ele>
        <time>2017-10-09T13:53:07Z</time>
      </trkpt>
      <trkpt lat="38.1194593012" lon="-2.6746036950">
        <ele>1345.02</ele>
        <time>2017-10-09T13:53:14Z</time>
      </trkpt>
      <trkpt lat="38.1195015460" lon="-2.6747994963">
        <ele>1346.46</ele>
        <time>2017-10-09T13:53:22Z</time>
      </trkpt>
      <trkpt lat="38.1195042282" lon="-2.6748562418">
        <ele>1346.46</ele>
        <time>2017-10-09T13:53:24Z</time>
      </trkpt>
      <trkpt lat="38.1195300445" lon="-2.6752791926">
        <ele>1348.39</ele>
        <time>2017-10-09T13:53:38Z</time>
      </trkpt>
      <trkpt lat="38.1194902305" lon="-2.6756565459">
        <ele>1349.35</ele>
        <time>2017-10-09T13:53:49Z</time>
      </trkpt>
      <trkpt lat="38.1194394361" lon="-2.6760511659">
        <ele>1349.83</ele>
        <time>2017-10-09T13:54:00Z</time>
      </trkpt>
      <trkpt lat="38.1194341555" lon="-2.6760798320">
        <ele>1350.31</ele>
        <time>2017-10-09T13:54:01Z</time>
      </trkpt>
      <trkpt lat="38.1193981133" lon="-2.6762138586">
        <ele>1350.31</ele>
        <time>2017-10-09T13:54:06Z</time>
      </trkpt>
      <trkpt lat="38.1193168927" lon="-2.6766223088">
        <ele>1350.79</ele>
        <time>2017-10-09T13:54:18Z</time>
      </trkpt>
      <trkpt lat="38.1192909926" lon="-2.6767501328">
        <ele>1349.35</ele>
        <time>2017-10-09T13:54:22Z</time>
      </trkpt>
      <trkpt lat="38.1192790903" lon="-2.6768120751">
        <ele>1350.79</ele>
        <time>2017-10-09T13:54:24Z</time>
      </trkpt>
      <trkpt lat="38.1191450637" lon="-2.6772567350">
        <ele>1350.79</ele>
        <time>2017-10-09T13:54:37Z</time>
      </trkpt>
      <trkpt lat="38.1190086901" lon="-2.6776039135">
        <ele>1351.27</ele>
        <time>2017-10-09T13:54:47Z</time>
      </trkpt>
      <trkpt lat="38.1189609133" lon="-2.6777574699">
        <ele>1351.27</ele>
        <time>2017-10-09T13:54:52Z</time>
      </trkpt>
      <trkpt lat="38.1189330854" lon="-2.6778848749">
        <ele>1351.27</ele>
        <time>2017-10-09T13:54:56Z</time>
      </trkpt>
      <trkpt lat="38.1188638508" lon="-2.6780097652">
        <ele>1350.79</ele>
        <time>2017-10-09T13:55:01Z</time>
      </trkpt>
      <trkpt lat="38.1188134756" lon="-2.6781107672">
        <ele>1351.27</ele>
        <time>2017-10-09T13:55:05Z</time>
      </trkpt>
      <trkpt lat="38.1187995616" lon="-2.6782424469">
        <ele>1351.27</ele>
        <time>2017-10-09T13:55:09Z</time>
      </trkpt>
      <trkpt lat="38.1187116355" lon="-2.6784499828">
        <ele>1351.27</ele>
        <time>2017-10-09T13:55:16Z</time>
      </trkpt>
      <trkpt lat="38.1186571531" lon="-2.6785444468">
        <ele>1351.27</ele>
        <time>2017-10-09T13:55:19Z</time>
      </trkpt>
      <trkpt lat="38.1184181850" lon="-2.6791532245">
        <ele>1351.27</ele>
        <time>2017-10-09T13:55:34Z</time>
      </trkpt>
      <trkpt lat="38.1182049494" lon="-2.6797130518">
        <ele>1351.75</ele>
        <time>2017-10-09T13:55:47Z</time>
      </trkpt>
      <trkpt lat="38.1180448551" lon="-2.6802484877">
        <ele>1353.19</ele>
        <time>2017-10-09T13:56:00Z</time>
      </trkpt>
      <trkpt lat="38.1179638021" lon="-2.6806000248">
        <ele>1354.15</ele>
        <time>2017-10-09T13:56:10Z</time>
      </trkpt>
      <trkpt lat="38.1178715173" lon="-2.6809935551">
        <ele>1355.60</ele>
        <time>2017-10-09T13:56:22Z</time>
      </trkpt>
      <trkpt lat="38.1176770572" lon="-2.6813968085">
        <ele>1356.08</ele>
        <time>2017-10-09T13:56:35Z</time>
      </trkpt>
      <trkpt lat="38.1174601335" lon="-2.6817068551">
        <ele>1355.60</ele>
        <time>2017-10-09T13:56:46Z</time>
      </trkpt>
      <trkpt lat="38.1173663400" lon="-2.6818300691">
        <ele>1355.60</ele>
        <time>2017-10-09T13:56:51Z</time>
      </trkpt>
      <trkpt lat="38.1171686947" lon="-2.6821510959">
        <ele>1356.08</ele>
        <time>2017-10-09T13:57:02Z</time>
      </trkpt>
      <trkpt lat="38.1171154696" lon="-2.6824851148">
        <ele>1356.56</ele>
        <time>2017-10-09T13:57:12Z</time>
      </trkpt>
      <trkpt lat="38.1172423717" lon="-2.6828944869">
        <ele>1358.00</ele>
        <time>2017-10-09T13:57:25Z</time>
      </trkpt>
      <trkpt lat="38.1174178049" lon="-2.6829998475">
        <ele>1359.44</ele>
        <time>2017-10-09T13:57:34Z</time>
      </trkpt>
      <trkpt lat="38.1175680086" lon="-2.6829484664">
        <ele>1359.92</ele>
        <time>2017-10-09T13:57:42Z</time>
      </trkpt>
      <trkpt lat="38.1176351476" lon="-2.6829122566">
        <ele>1360.88</ele>
        <time>2017-10-09T13:57:46Z</time>
      </trkpt>
      <trkpt lat="38.1178120896" lon="-2.6828099973">
        <ele>1362.81</ele>
        <time>2017-10-09T13:57:57Z</time>
      </trkpt>
      <trkpt lat="38.1180364732" lon="-2.6827336382">
        <ele>1365.21</ele>
        <time>2017-10-09T13:58:09Z</time>
      </trkpt>
      <trkpt lat="38.1182105653" lon="-2.6826473884">
        <ele>1366.65</ele>
        <time>2017-10-09T13:58:19Z</time>
      </trkpt>
      <trkpt lat="38.1184352841" lon="-2.6825434528">
        <ele>1369.05</ele>
        <time>2017-10-09T13:58:31Z</time>
      </trkpt>
      <trkpt lat="38.1187216099" lon="-2.6824077498">
        <ele>1371.94</ele>
        <time>2017-10-09T13:58:46Z</time>
      </trkpt>
      <trkpt lat="38.1189381983" lon="-2.6823109388">
        <ele>1373.86</ele>
        <time>2017-10-09T13:58:56Z</time>
      </trkpt>
      <trkpt lat="38.1191349216" lon="-2.6822772436">
        <ele>1376.26</ele>
        <time>2017-10-09T13:59:05Z</time>
      </trkpt>
      <trkpt lat="38.1191965286" lon="-2.6822649222">
        <ele>1377.23</ele>
        <time>2017-10-09T13:59:08Z</time>
      </trkpt>
      <trkpt lat="38.1194420345" lon="-2.6822743099">
        <ele>1379.15</ele>
        <time>2017-10-09T13:59:20Z</time>
      </trkpt>
      <trkpt lat="38.1196255144" lon="-2.6822932530">
        <ele>1380.59</ele>
        <time>2017-10-09T13:59:29Z</time>
      </trkpt>
      <trkpt lat="38.1198236626" lon="-2.6823266968">
        <ele>1382.51</ele>
        <time>2017-10-09T13:59:38Z</time>
      </trkpt>
      <trkpt lat="38.1200393289" lon="-2.6823821012">
        <ele>1384.92</ele>
        <time>2017-10-09T13:59:48Z</time>
      </trkpt>
      <trkpt lat="38.1202527322" lon="-2.6825010404">
        <ele>1386.84</ele>
        <time>2017-10-09T13:59:58Z</time>
      </trkpt>
      <trkpt lat="38.1205435004" lon="-2.6826352347">
        <ele>1389.24</ele>
        <time>2017-10-09T14:00:13Z</time>
      </trkpt>
      <trkpt lat="38.1207877491" lon="-2.6828032080">
        <ele>1391.65</ele>
        <time>2017-10-09T14:00:28Z</time>
      </trkpt>
      <trkpt lat="38.1210259628" lon="-2.6829436887">
        <ele>1393.57</ele>
        <time>2017-10-09T14:00:41Z</time>
      </trkpt>
      <trkpt lat="38.1212816108" lon="-2.6830941439">
        <ele>1395.49</ele>
        <time>2017-10-09T14:00:54Z</time>
      </trkpt>
      <trkpt lat="38.1215441320" lon="-2.6832919568">
        <ele>1397.41</ele>
        <time>2017-10-09T14:01:08Z</time>
      </trkpt>
      <trkpt lat="38.1217825972" lon="-2.6835730858">
        <ele>1399.34</ele>
        <time>2017-10-09T14:01:22Z</time>
      </trkpt>
      <trkpt lat="38.1219417695" lon="-2.6838185918">
        <ele>1402.70</ele>
        <time>2017-10-09T14:01:33Z</time>
      </trkpt>
      <trkpt lat="38.1220811605" lon="-2.6841609087">
        <ele>1402.22</ele>
        <time>2017-10-09T14:01:46Z</time>
      </trkpt>
      <trkpt lat="38.1221823301" lon="-2.6845732983">
        <ele>1403.66</ele>
        <time>2017-10-09T14:01:58Z</time>
      </trkpt>
      <trkpt lat="38.1222865172" lon="-2.6850330457">
        <ele>1404.62</ele>
        <time>2017-10-09T14:02:11Z</time>
      </trkpt>
      <trkpt lat="38.1223741081" lon="-2.6853834093">
        <ele>1405.58</ele>
        <time>2017-10-09T14:02:25Z</time>
      </trkpt>
      <trkpt lat="38.1223921292" lon="-2.6854418311">
        <ele>1405.58</ele>
        <time>2017-10-09T14:02:31Z</time>
      </trkpt>
      <trkpt lat="38.1224074680" lon="-2.6853092294">
        <ele>1405.10</ele>
        <time>2017-10-09T14:02:39Z</time>
      </trkpt>
      <trkpt lat="38.1223830767" lon="-2.6853023563">
        <ele>1405.10</ele>
        <time>2017-10-09T14:02:50Z</time>
      </trkpt>
      <trkpt lat="38.1223852560" lon="-2.6853058767">
        <ele>1405.10</ele>
        <time>2017-10-09T14:03:15Z</time>
      </trkpt>
      <trkpt lat="38.1223857589" lon="-2.6853057090">
        <ele>1405.10</ele>
        <time>2017-10-09T14:03:16Z</time>
      </trkpt>
      <trkpt lat="38.1223902851" lon="-2.6854093093">
        <ele>1405.10</ele>
        <time>2017-10-09T14:03:22Z</time>
      </trkpt>
      <trkpt lat="38.1224075519" lon="-2.6854584273">
        <ele>1405.10</ele>
        <time>2017-10-09T14:03:23Z</time>
      </trkpt>
      <trkpt lat="38.1226294208" lon="-2.6859438233">
        <ele>1405.58</ele>
        <time>2017-10-09T14:03:35Z</time>
      </trkpt>
      <trkpt lat="38.1229657028" lon="-2.6864594780">
        <ele>1406.07</ele>
        <time>2017-10-09T14:03:48Z</time>
      </trkpt>
      <trkpt lat="38.1234372687" lon="-2.6871705148">
        <ele>1405.58</ele>
        <time>2017-10-09T14:04:02Z</time>
      </trkpt>
      <trkpt lat="38.1238904782" lon="-2.6878679730">
        <ele>1405.58</ele>
        <time>2017-10-09T14:04:16Z</time>
      </trkpt>
      <trkpt lat="38.1243582722" lon="-2.6885775849">
        <ele>1406.07</ele>
        <time>2017-10-09T14:04:31Z</time>
      </trkpt>
      <trkpt lat="38.1248445064" lon="-2.6893148571">
        <ele>1406.55</ele>
        <time>2017-10-09T14:04:46Z</time>
      </trkpt>
      <trkpt lat="38.1253174972" lon="-2.6898650452">
        <ele>1407.03</ele>
        <time>2017-10-09T14:04:59Z</time>
      </trkpt>
      <trkpt lat="38.1258846167" lon="-2.6902322564">
        <ele>1408.47</ele>
        <time>2017-10-09T14:05:12Z</time>
      </trkpt>
      <trkpt lat="38.1262747105" lon="-2.6903580688">
        <ele>1410.39</ele>
        <time>2017-10-09T14:05:23Z</time>
      </trkpt>
      <trkpt lat="38.1266164407" lon="-2.6903961226">
        <ele>1411.83</ele>
        <time>2017-10-09T14:05:36Z</time>
      </trkpt>
      <trkpt lat="38.1268518046" lon="-2.6903781854">
        <ele>1413.76</ele>
        <time>2017-10-09T14:05:47Z</time>
      </trkpt>
      <trkpt lat="38.1271117274" lon="-2.6903193444">
        <ele>1415.20</ele>
        <time>2017-10-09T14:05:59Z</time>
      </trkpt>
      <trkpt lat="38.1274600793" lon="-2.6901874132">
        <ele>1417.12</ele>
        <time>2017-10-09T14:06:14Z</time>
      </trkpt>
      <trkpt lat="38.1278080121" lon="-2.6900010835">
        <ele>1418.08</ele>
        <time>2017-10-09T14:06:28Z</time>
      </trkpt>
      <trkpt lat="38.1282500736" lon="-2.6896755304">
        <ele>1419.52</ele>
        <time>2017-10-09T14:06:42Z</time>
      </trkpt>
      <trkpt lat="38.1288288441" lon="-2.6892309543">
        <ele>1421.93</ele>
        <time>2017-10-09T14:06:57Z</time>
      </trkpt>
      <trkpt lat="38.1294574868" lon="-2.6887676865">
        <ele>1424.33</ele>
        <time>2017-10-09T14:07:12Z</time>
      </trkpt>
      <trkpt lat="38.1301654223" lon="-2.6883389521">
        <ele>1427.21</ele>
        <time>2017-10-09T14:07:27Z</time>
      </trkpt>
      <trkpt lat="38.1307140179" lon="-2.6880697254">
        <ele>1429.62</ele>
        <time>2017-10-09T14:07:40Z</time>
      </trkpt>
      <trkpt lat="38.1311278325" lon="-2.6878657937">
        <ele>1432.50</ele>
        <time>2017-10-09T14:07:51Z</time>
      </trkpt>
      <trkpt lat="38.1315170880" lon="-2.6876814757">
        <ele>1433.46</ele>
        <time>2017-10-09T14:08:04Z</time>
      </trkpt>
      <trkpt lat="38.1319536176" lon="-2.6874869317">
        <ele>1434.42</ele>
        <time>2017-10-09T14:08:19Z</time>
      </trkpt>
      <trkpt lat="38.1321272068" lon="-2.6874670666">
        <ele>1434.91</ele>
        <time>2017-10-09T14:08:26Z</time>
      </trkpt>
      <trkpt lat="38.1321347505" lon="-2.6874524821">
        <ele>1434.91</ele>
        <time>2017-10-09T14:08:27Z</time>
      </trkpt>
      <trkpt lat="38.1321340799" lon="-2.6874365564">
        <ele>1434.91</ele>
        <time>2017-10-09T14:08:37Z</time>
      </trkpt>
      <trkpt lat="38.1321309786" lon="-2.6874450222">
        <ele>1434.91</ele>
        <time>2017-10-09T14:08:59Z</time>
      </trkpt>
      <trkpt lat="38.1321427971" lon="-2.6874067169">
        <ele>1434.42</ele>
        <time>2017-10-09T14:09:17Z</time>
      </trkpt>
      <trkpt lat="38.1321615726" lon="-2.6873849239">
        <ele>1434.91</ele>
        <time>2017-10-09T14:09:18Z</time>
      </trkpt>
      <trkpt lat="38.1321823597" lon="-2.6873607002">
        <ele>1434.91</ele>
        <time>2017-10-09T14:09:19Z</time>
      </trkpt>
      <trkpt lat="38.1322060805" lon="-2.6873327047">
        <ele>1434.91</ele>
        <time>2017-10-09T14:09:20Z</time>
      </trkpt>
      <trkpt lat="38.1322329864" lon="-2.6873078104">
        <ele>1434.91</ele>
        <time>2017-10-09T14:09:21Z</time>
      </trkpt>
      <trkpt lat="38.1322598923" lon="-2.6872840058">
        <ele>1434.91</ele>
        <time>2017-10-09T14:09:22Z</time>
      </trkpt>
      <trkpt lat="38.1325399317" lon="-2.6871318743">
        <ele>1434.42</ele>
        <time>2017-10-09T14:09:31Z</time>
      </trkpt>
      <trkpt lat="38.1328099966" lon="-2.6869765576">
        <ele>1433.94</ele>
        <time>2017-10-09T14:09:40Z</time>
      </trkpt>
      <trkpt lat="38.1332831550" lon="-2.6867367513">
        <ele>1432.98</ele>
        <time>2017-10-09T14:09:52Z</time>
      </trkpt>
      <trkpt lat="38.1333860848" lon="-2.6866857894">
        <ele>1430.10</ele>
        <time>2017-10-09T14:09:54Z</time>
      </trkpt>
      <trkpt lat="38.1339886598" lon="-2.6864427980">
        <ele>1429.62</ele>
        <time>2017-10-09T14:10:04Z</time>
      </trkpt>
      <trkpt lat="38.1346716173" lon="-2.6861811150">
        <ele>1427.70</ele>
        <time>2017-10-09T14:10:15Z</time>
      </trkpt>
      <trkpt lat="38.1352347136" lon="-2.6859688014">
        <ele>1427.21</ele>
        <time>2017-10-09T14:10:25Z</time>
      </trkpt>
      <trkpt lat="38.1358379591" lon="-2.6857260615">
        <ele>1427.70</ele>
        <time>2017-10-09T14:10:38Z</time>
      </trkpt>
      <trkpt lat="38.1363448128" lon="-2.6855738461">
        <ele>1428.66</ele>
        <time>2017-10-09T14:10:51Z</time>
      </trkpt>
      <trkpt lat="38.1368596293" lon="-2.6854409091">
        <ele>1429.62</ele>
        <time>2017-10-09T14:11:07Z</time>
      </trkpt>
      <trkpt lat="38.1372497231" lon="-2.6853597723">
        <ele>1430.58</ele>
        <time>2017-10-09T14:11:21Z</time>
      </trkpt>
      <trkpt lat="38.1375682354" lon="-2.6852956507">
        <ele>1432.02</ele>
        <time>2017-10-09T14:11:34Z</time>
      </trkpt>
      <trkpt lat="38.1379446667" lon="-2.6852074731">
        <ele>1433.94</ele>
        <time>2017-10-09T14:11:50Z</time>
      </trkpt>
      <trkpt lat="38.1382010691" lon="-2.6851590257">
        <ele>1435.87</ele>
        <time>2017-10-09T14:12:02Z</time>
      </trkpt>
      <trkpt lat="38.1383933499" lon="-2.6851635519">
        <ele>1437.31</ele>
        <time>2017-10-09T14:12:12Z</time>
      </trkpt>
      <trkpt lat="38.1384300627" lon="-2.6851541642">
        <ele>1437.79</ele>
        <time>2017-10-09T14:12:14Z</time>
      </trkpt>
      <trkpt lat="38.1384484190" lon="-2.6851596124">
        <ele>1437.79</ele>
        <time>2017-10-09T14:12:15Z</time>
      </trkpt>
      <trkpt lat="38.1384633388" lon="-2.6851674076">
        <ele>1437.79</ele>
        <time>2017-10-09T14:12:16Z</time>
      </trkpt>
      <trkpt lat="38.1384798512" lon="-2.6851703413">
        <ele>1437.79</ele>
        <time>2017-10-09T14:12:17Z</time>
      </trkpt>
      <trkpt lat="38.1384982076" lon="-2.6851661503">
        <ele>1438.27</ele>
        <time>2017-10-09T14:12:18Z</time>
      </trkpt>
      <trkpt lat="38.1385179050" lon="-2.6851641387">
        <ele>1438.27</ele>
        <time>2017-10-09T14:12:19Z</time>
      </trkpt>
      <trkpt lat="38.1385376025" lon="-2.6851706766">
        <ele>1438.75</ele>
        <time>2017-10-09T14:12:20Z</time>
      </trkpt>
      <trkpt lat="38.1385575514" lon="-2.6851793099">
        <ele>1438.75</ele>
        <time>2017-10-09T14:12:21Z</time>
      </trkpt>
      <trkpt lat="38.1387251057" lon="-2.6852517296">
        <ele>1440.19</ele>
        <time>2017-10-09T14:12:31Z</time>
      </trkpt>
      <trkpt lat="38.1387583818" lon="-2.6852565072">
        <ele>1440.67</ele>
        <time>2017-10-09T14:12:33Z</time>
      </trkpt>
      <trkpt lat="38.1387753971" lon="-2.6852667332">
        <ele>1440.67</ele>
        <time>2017-10-09T14:12:34Z</time>
      </trkpt>
      <trkpt lat="38.1387924124" lon="-2.6852776296">
        <ele>1440.67</ele>
        <time>2017-10-09T14:12:35Z</time>
      </trkpt>
      <trkpt lat="38.1388071645" lon="-2.6852909569">
        <ele>1441.15</ele>
        <time>2017-10-09T14:12:36Z</time>
      </trkpt>
      <trkpt lat="38.1388235930" lon="-2.6853029430">
        <ele>1441.15</ele>
        <time>2017-10-09T14:12:37Z</time>
      </trkpt>
      <trkpt lat="38.1388392672" lon="-2.6853132527">
        <ele>1441.15</ele>
        <time>2017-10-09T14:12:38Z</time>
      </trkpt>
      <trkpt lat="38.1390345655" lon="-2.6854285039">
        <ele>1442.60</ele>
        <time>2017-10-09T14:12:49Z</time>
      </trkpt>
      <trkpt lat="38.1391895469" lon="-2.6855293382">
        <ele>1443.08</ele>
        <time>2017-10-09T14:12:58Z</time>
      </trkpt>
      <trkpt lat="38.1393736135" lon="-2.6856634486">
        <ele>1445.48</ele>
        <time>2017-10-09T14:13:09Z</time>
      </trkpt>
      <trkpt lat="38.1393996812" lon="-2.6856966410">
        <ele>1444.04</ele>
        <time>2017-10-09T14:13:11Z</time>
      </trkpt>
      <trkpt lat="38.1394088175" lon="-2.6857217867">
        <ele>1444.04</ele>
        <time>2017-10-09T14:13:12Z</time>
      </trkpt>
      <trkpt lat="38.1394224800" lon="-2.6857436635">
        <ele>1443.56</ele>
        <time>2017-10-09T14:13:13Z</time>
      </trkpt>
      <trkpt lat="38.1394441891" lon="-2.6857907698">
        <ele>1444.04</ele>
        <time>2017-10-09T14:13:15Z</time>
      </trkpt>
      <trkpt lat="38.1394570973" lon="-2.6858470123">
        <ele>1444.04</ele>
        <time>2017-10-09T14:13:17Z</time>
      </trkpt>
      <trkpt lat="38.1394728553" lon="-2.6858713198">
        <ele>1444.04</ele>
        <time>2017-10-09T14:13:18Z</time>
      </trkpt>
      <trkpt lat="38.1394891161" lon="-2.6858895924">
        <ele>1443.56</ele>
        <time>2017-10-09T14:13:19Z</time>
      </trkpt>
      <trkpt lat="38.1395046227" lon="-2.6859028358">
        <ele>1444.04</ele>
        <time>2017-10-09T14:13:20Z</time>
      </trkpt>
      <trkpt lat="38.1395175308" lon="-2.6859221980">
        <ele>1444.04</ele>
        <time>2017-10-09T14:13:21Z</time>
      </trkpt>
      <trkpt lat="38.1395243201" lon="-2.6859473437">
        <ele>1444.04</ele>
        <time>2017-10-09T14:13:22Z</time>
      </trkpt>
      <trkpt lat="38.1395310257" lon="-2.6859775186">
        <ele>1444.04</ele>
        <time>2017-10-09T14:13:23Z</time>
      </trkpt>
      <trkpt lat="38.1396360509" lon="-2.6864499226">
        <ele>1443.08</ele>
        <time>2017-10-09T14:13:36Z</time>
      </trkpt>
      <trkpt lat="38.1398396473" lon="-2.6866620686">
        <ele>1443.56</ele>
        <time>2017-10-09T14:13:46Z</time>
      </trkpt>
      <trkpt lat="38.1399124861" lon="-2.6866806764">
        <ele>1444.04</ele>
        <time>2017-10-09T14:13:49Z</time>
      </trkpt>
      <trkpt lat="38.1399319321" lon="-2.6866940036">
        <ele>1444.04</ele>
        <time>2017-10-09T14:13:50Z</time>
      </trkpt>
      <trkpt lat="38.1399512943" lon="-2.6867009606">
        <ele>1444.04</ele>
        <time>2017-10-09T14:13:51Z</time>
      </trkpt>
      <trkpt lat="38.1399740931" lon="-2.6866892260">
        <ele>1444.52</ele>
        <time>2017-10-09T14:13:52Z</time>
      </trkpt>
      <trkpt lat="38.1399943773" lon="-2.6866734680">
        <ele>1444.52</ele>
        <time>2017-10-09T14:13:53Z</time>
      </trkpt>
      <trkpt lat="38.1400165893" lon="-2.6866573747">
        <ele>1444.52</ele>
        <time>2017-10-09T14:13:54Z</time>
      </trkpt>
      <trkpt lat="38.1402170844" lon="-2.6865774952">
        <ele>1445.96</ele>
        <time>2017-10-09T14:14:04Z</time>
      </trkpt>
      <trkpt lat="38.1403026637" lon="-2.6865808479">
        <ele>1445.96</ele>
        <time>2017-10-09T14:14:09Z</time>
      </trkpt>
      <trkpt lat="38.1403203495" lon="-2.6865875535">
        <ele>1446.44</ele>
        <time>2017-10-09T14:14:10Z</time>
      </trkpt>
      <trkpt lat="38.1403393764" lon="-2.6865831111">
        <ele>1445.96</ele>
        <time>2017-10-09T14:14:11Z</time>
      </trkpt>
      <trkpt lat="38.1406171527" lon="-2.6865345798">
        <ele>1445.96</ele>
        <time>2017-10-09T14:14:23Z</time>
      </trkpt>
      <trkpt lat="38.1407938432" lon="-2.6865178999">
        <ele>1444.52</ele>
        <time>2017-10-09T14:14:28Z</time>
      </trkpt>
      <trkpt lat="38.1408402789" lon="-2.6865065843">
        <ele>1444.52</ele>
        <time>2017-10-09T14:14:29Z</time>
      </trkpt>
      <trkpt lat="38.1412577815" lon="-2.6863815263">
        <ele>1441.63</ele>
        <time>2017-10-09T14:14:36Z</time>
      </trkpt>
      <trkpt lat="38.1416415889" lon="-2.6862271316">
        <ele>1438.27</ele>
        <time>2017-10-09T14:14:41Z</time>
      </trkpt>
      <trkpt lat="38.1417661440" lon="-2.6861496828">
        <ele>1437.79</ele>
        <time>2017-10-09T14:14:43Z</time>
      </trkpt>
      <trkpt lat="38.1418051198" lon="-2.6861125510">
        <ele>1437.31</ele>
        <time>2017-10-09T14:14:44Z</time>
      </trkpt>
      <trkpt lat="38.1418755278" lon="-2.6860481780">
        <ele>1437.31</ele>
        <time>2017-10-09T14:14:50Z</time>
      </trkpt>
      <trkpt lat="38.1418948062" lon="-2.6860421430">
        <ele>1436.83</ele>
        <time>2017-10-09T14:15:13Z</time>
      </trkpt>
      <trkpt lat="38.1420856621" lon="-2.6858785283">
        <ele>1436.35</ele>
        <time>2017-10-09T14:15:22Z</time>
      </trkpt>
      <trkpt lat="38.1421237998" lon="-2.6858439110">
        <ele>1435.87</ele>
        <time>2017-10-09T14:15:23Z</time>
      </trkpt>
      <trkpt lat="38.1422773562" lon="-2.6857247204">
        <ele>1434.91</ele>
        <time>2017-10-09T14:15:27Z</time>
      </trkpt>
      <trkpt lat="38.1423139013" lon="-2.6856882591">
        <ele>1434.91</ele>
        <time>2017-10-09T14:15:28Z</time>
      </trkpt>
      <trkpt lat="38.1423921883" lon="-2.6855998300">
        <ele>1434.42</ele>
        <time>2017-10-09T14:15:30Z</time>
      </trkpt>
      <trkpt lat="38.1424696371" lon="-2.6854853332">
        <ele>1433.46</ele>
        <time>2017-10-09T14:15:32Z</time>
      </trkpt>
      <trkpt lat="38.1425208505" lon="-2.6854311023">
        <ele>1433.46</ele>
        <time>2017-10-09T14:15:33Z</time>
      </trkpt>
      <trkpt lat="38.1425786857" lon="-2.6853829063">
        <ele>1432.50</ele>
        <time>2017-10-09T14:15:34Z</time>
      </trkpt>
      <trkpt lat="38.1426466629" lon="-2.6853461098">
        <ele>1432.02</ele>
        <time>2017-10-09T14:15:35Z</time>
      </trkpt>
      <trkpt lat="38.1427230220" lon="-2.6853255741">
        <ele>1432.02</ele>
        <time>2017-10-09T14:15:36Z</time>
      </trkpt>
      <trkpt lat="38.1428046618" lon="-2.6853179466">
        <ele>1431.06</ele>
        <time>2017-10-09T14:15:37Z</time>
      </trkpt>
      <trkpt lat="38.1428864691" lon="-2.6853125822">
        <ele>1430.58</ele>
        <time>2017-10-09T14:15:38Z</time>
      </trkpt>
      <trkpt lat="38.1432317197" lon="-2.6852515619">
        <ele>1427.70</ele>
        <time>2017-10-09T14:15:42Z</time>
      </trkpt>
      <trkpt lat="38.1436077319" lon="-2.6851670723">
        <ele>1424.33</ele>
        <time>2017-10-09T14:15:46Z</time>
      </trkpt>
      <trkpt lat="38.1437046267" lon="-2.6851422619">
        <ele>1423.85</ele>
        <time>2017-10-09T14:15:47Z</time>
      </trkpt>
      <trkpt lat="38.1440946367" lon="-2.6850184612">
        <ele>1422.41</ele>
        <time>2017-10-09T14:15:51Z</time>
      </trkpt>
      <trkpt lat="38.1441889331" lon="-2.6849741209">
        <ele>1421.45</ele>
        <time>2017-10-09T14:15:52Z</time>
      </trkpt>
      <trkpt lat="38.1445800327" lon="-2.6847532578">
        <ele>1418.08</ele>
        <time>2017-10-09T14:15:56Z</time>
      </trkpt>
      <trkpt lat="38.1446980499" lon="-2.6847420260">
        <ele>1417.60</ele>
        <time>2017-10-09T14:15:57Z</time>
      </trkpt>
      <trkpt lat="38.1448133849" lon="-2.6847557724">
        <ele>1417.12</ele>
        <time>2017-10-09T14:15:58Z</time>
      </trkpt>
      <trkpt lat="38.1449209247" lon="-2.6847852767">
        <ele>1416.64</ele>
        <time>2017-10-09T14:15:59Z</time>
      </trkpt>
      <trkpt lat="38.1450251956" lon="-2.6848236658">
        <ele>1415.68</ele>
        <time>2017-10-09T14:16:00Z</time>
      </trkpt>
      <trkpt lat="38.1455582846" lon="-2.6850199699">
        <ele>1412.31</ele>
        <time>2017-10-09T14:16:05Z</time>
      </trkpt>
      <trkpt lat="38.1457793154" lon="-2.6850597002">
        <ele>1411.35</ele>
        <time>2017-10-09T14:16:07Z</time>
      </trkpt>
      <trkpt lat="38.1463253126" lon="-2.6851580199">
        <ele>1409.43</ele>
        <time>2017-10-09T14:16:12Z</time>
      </trkpt>
      <trkpt lat="38.1465396378" lon="-2.6851875242">
        <ele>1408.47</ele>
        <time>2017-10-09T14:16:14Z</time>
      </trkpt>
      <trkpt lat="38.1466471776" lon="-2.6851772144">
        <ele>1408.47</ele>
        <time>2017-10-09T14:16:15Z</time>
      </trkpt>
      <trkpt lat="38.1467513647" lon="-2.6851428486">
        <ele>1407.99</ele>
        <time>2017-10-09T14:16:16Z</time>
      </trkpt>
      <trkpt lat="38.1469516922" lon="-2.6850457862">
        <ele>1407.03</ele>
        <time>2017-10-09T14:16:18Z</time>
      </trkpt>
      <trkpt lat="38.1470574718" lon="-2.6850028709">
        <ele>1406.55</ele>
        <time>2017-10-09T14:16:19Z</time>
      </trkpt>
      <trkpt lat="38.1471644249" lon="-2.6849743724">
        <ele>1406.07</ele>
        <time>2017-10-09T14:16:20Z</time>
      </trkpt>
      <trkpt lat="38.1473526824" lon="-2.6849184651">
        <ele>1404.62</ele>
        <time>2017-10-09T14:16:22Z</time>
      </trkpt>
      <trkpt lat="38.1474286225" lon="-2.6848719455">
        <ele>1404.14</ele>
        <time>2017-10-09T14:16:23Z</time>
      </trkpt>
      <trkpt lat="38.1475680973" lon="-2.6847707760">
        <ele>1402.70</ele>
        <time>2017-10-09T14:16:25Z</time>
      </trkpt>
      <trkpt lat="38.1476495694" lon="-2.6847422775">
        <ele>1402.22</ele>
        <time>2017-10-09T14:16:26Z</time>
      </trkpt>
      <trkpt lat="38.1477381662" lon="-2.6847410202">
        <ele>1401.26</ele>
        <time>2017-10-09T14:16:27Z</time>
      </trkpt>
      <trkpt lat="38.1478295289" lon="-2.6847670879">
        <ele>1400.78</ele>
        <time>2017-10-09T14:16:28Z</time>
      </trkpt>
      <trkpt lat="38.1479155272" lon="-2.6848204806">
        <ele>1400.30</ele>
        <time>2017-10-09T14:16:29Z</time>
      </trkpt>
      <trkpt lat="38.1479928084" lon="-2.6848967560">
        <ele>1398.86</ele>
        <time>2017-10-09T14:16:30Z</time>
      </trkpt>
      <trkpt lat="38.1480734423" lon="-2.6849766355">
        <ele>1397.89</ele>
        <time>2017-10-09T14:16:31Z</time>
      </trkpt>
      <trkpt lat="38.1481580157" lon="-2.6850550063">
        <ele>1396.93</ele>
        <time>2017-10-09T14:16:32Z</time>
      </trkpt>
      <trkpt lat="38.1483389810" lon="-2.6852016896">
        <ele>1395.01</ele>
        <time>2017-10-09T14:16:34Z</time>
      </trkpt>
      <trkpt lat="38.1484408211" lon="-2.6852408331">
        <ele>1394.05</ele>
        <time>2017-10-09T14:16:35Z</time>
      </trkpt>
      <trkpt lat="38.1485466845" lon="-2.6852356363">
        <ele>1393.09</ele>
        <time>2017-10-09T14:16:36Z</time>
      </trkpt>
      <trkpt lat="38.1486495305" lon="-2.6851933915">
        <ele>1392.13</ele>
        <time>2017-10-09T14:16:37Z</time>
      </trkpt>
      <trkpt lat="38.1487460900" lon="-2.6851346344">
        <ele>1391.17</ele>
        <time>2017-10-09T14:16:38Z</time>
      </trkpt>
      <trkpt lat="38.1488467567" lon="-2.6850908808">
        <ele>1390.68</ele>
        <time>2017-10-09T14:16:39Z</time>
      </trkpt>
      <trkpt lat="38.1489509437" lon="-2.6850778889">
        <ele>1389.72</ele>
        <time>2017-10-09T14:16:40Z</time>
      </trkpt>
      <trkpt lat="38.1490537897" lon="-2.6850919705">
        <ele>1389.24</ele>
        <time>2017-10-09T14:16:41Z</time>
      </trkpt>
      <trkpt lat="38.1491529476" lon="-2.6851296052">
        <ele>1388.76</ele>
        <time>2017-10-09T14:16:42Z</time>
      </trkpt>
      <trkpt lat="38.1492437236" lon="-2.6851936430">
        <ele>1388.28</ele>
        <time>2017-10-09T14:16:43Z</time>
      </trkpt>
      <trkpt lat="38.1493159756" lon="-2.6852847543">
        <ele>1388.28</ele>
        <time>2017-10-09T14:16:44Z</time>
      </trkpt>
      <trkpt lat="38.1493626628" lon="-2.6853998378">
        <ele>1387.80</ele>
        <time>2017-10-09T14:16:45Z</time>
      </trkpt>
      <trkpt lat="38.1493815221" lon="-2.6855270751">
        <ele>1386.84</ele>
        <time>2017-10-09T14:16:46Z</time>
      </trkpt>
      <trkpt lat="38.1493821088" lon="-2.6856601797">
        <ele>1386.36</ele>
        <time>2017-10-09T14:16:47Z</time>
      </trkpt>
      <trkpt lat="38.1493850425" lon="-2.6857951283">
        <ele>1386.36</ele>
        <time>2017-10-09T14:16:48Z</time>
      </trkpt>
      <trkpt lat="38.1494120322" lon="-2.6859259699">
        <ele>1385.88</ele>
        <time>2017-10-09T14:16:49Z</time>
      </trkpt>
      <trkpt lat="38.1494677719" lon="-2.6860431489">
        <ele>1384.92</ele>
        <time>2017-10-09T14:16:50Z</time>
      </trkpt>
      <trkpt lat="38.1495464779" lon="-2.6861355174">
        <ele>1383.96</ele>
        <time>2017-10-09T14:16:51Z</time>
      </trkpt>
      <trkpt lat="38.1496425346" lon="-2.6861964539">
        <ele>1383.47</ele>
        <time>2017-10-09T14:16:52Z</time>
      </trkpt>
      <trkpt lat="38.1497483142" lon="-2.6862257905">
        <ele>1382.99</ele>
        <time>2017-10-09T14:16:53Z</time>
      </trkpt>
      <trkpt lat="38.1498583686" lon="-2.6862238627">
        <ele>1381.07</ele>
        <time>2017-10-09T14:16:54Z</time>
      </trkpt>
      <trkpt lat="38.1499643996" lon="-2.6861915085">
        <ele>1380.59</ele>
        <time>2017-10-09T14:16:55Z</time>
      </trkpt>
      <trkpt lat="38.1500660721" lon="-2.6861333381">
        <ele>1380.59</ele>
        <time>2017-10-09T14:16:56Z</time>
      </trkpt>
      <trkpt lat="38.1501669064" lon="-2.6860678755">
        <ele>1380.11</ele>
        <time>2017-10-09T14:16:57Z</time>
      </trkpt>
      <trkpt lat="38.1502710097" lon="-2.6860097889">
        <ele>1379.15</ele>
        <time>2017-10-09T14:16:58Z</time>
      </trkpt>
      <trkpt lat="38.1504695769" lon="-2.6858975552">
        <ele>1377.23</ele>
        <time>2017-10-09T14:17:00Z</time>
      </trkpt>
      <trkpt lat="38.1505571678" lon="-2.6858299971">
        <ele>1376.26</ele>
        <time>2017-10-09T14:17:01Z</time>
      </trkpt>
      <trkpt lat="38.1506482791" lon="-2.6857828908">
        <ele>1376.26</ele>
        <time>2017-10-09T14:17:02Z</time>
      </trkpt>
      <trkpt lat="38.1507430784" lon="-2.6857543085">
        <ele>1375.78</ele>
        <time>2017-10-09T14:17:03Z</time>
      </trkpt>
      <trkpt lat="38.1508310884" lon="-2.6857368741">
        <ele>1375.30</ele>
        <time>2017-10-09T14:17:04Z</time>
      </trkpt>
      <trkpt lat="38.1509134825" lon="-2.6857349463">
        <ele>1374.82</ele>
        <time>2017-10-09T14:17:05Z</time>
      </trkpt>
      <trkpt lat="38.1509942841" lon="-2.6857585832">
        <ele>1374.34</ele>
        <time>2017-10-09T14:17:06Z</time>
      </trkpt>
      <trkpt lat="38.1510696374" lon="-2.6858130656">
        <ele>1373.38</ele>
        <time>2017-10-09T14:17:07Z</time>
      </trkpt>
      <trkpt lat="38.1511325017" lon="-2.6858979743">
        <ele>1372.90</ele>
        <time>2017-10-09T14:17:08Z</time>
      </trkpt>
      <trkpt lat="38.1511753332" lon="-2.6860088669">
        <ele>1372.90</ele>
        <time>2017-10-09T14:17:09Z</time>
      </trkpt>
      <trkpt lat="38.1511895824" lon="-2.6861370262">
        <ele>1371.46</ele>
        <time>2017-10-09T14:17:10Z</time>
      </trkpt>
      <trkpt lat="38.1511780992" lon="-2.6862664428">
        <ele>1370.50</ele>
        <time>2017-10-09T14:17:11Z</time>
      </trkpt>
      <trkpt lat="38.1511507742" lon="-2.6863859687">
        <ele>1369.54</ele>
        <time>2017-10-09T14:17:12Z</time>
      </trkpt>
      <trkpt lat="38.1511211861" lon="-2.6864928380">
        <ele>1368.57</ele>
        <time>2017-10-09T14:17:13Z</time>
      </trkpt>
      <trkpt lat="38.1511085294" lon="-2.6866054069">
        <ele>1367.61</ele>
        <time>2017-10-09T14:17:14Z</time>
      </trkpt>
      <trkpt lat="38.1511247903" lon="-2.6867230888">
        <ele>1366.65</ele>
        <time>2017-10-09T14:17:15Z</time>
      </trkpt>
      <trkpt lat="38.1511553004" lon="-2.6868392620">
        <ele>1365.21</ele>
        <time>2017-10-09T14:17:16Z</time>
      </trkpt>
      <trkpt lat="38.1511822063" lon="-2.6869592071">
        <ele>1364.25</ele>
        <time>2017-10-09T14:17:17Z</time>
      </trkpt>
      <trkpt lat="38.1511840504" lon="-2.6870840974">
        <ele>1362.81</ele>
        <time>2017-10-09T14:17:18Z</time>
      </trkpt>
      <trkpt lat="38.1511550490" lon="-2.6872110832">
        <ele>1361.84</ele>
        <time>2017-10-09T14:17:19Z</time>
      </trkpt>
      <trkpt lat="38.1511093676" lon="-2.6873293519">
        <ele>1360.40</ele>
        <time>2017-10-09T14:17:20Z</time>
      </trkpt>
      <trkpt lat="38.1510618422" lon="-2.6874386519">
        <ele>1359.44</ele>
        <time>2017-10-09T14:17:21Z</time>
      </trkpt>
      <trkpt lat="38.1509665400" lon="-2.6876456011">
        <ele>1356.08</ele>
        <time>2017-10-09T14:17:23Z</time>
      </trkpt>
      <trkpt lat="38.1508234609" lon="-2.6879035123">
        <ele>1353.19</ele>
        <time>2017-10-09T14:17:26Z</time>
      </trkpt>
      <trkpt lat="38.1506763585" lon="-2.6881480962">
        <ele>1349.83</ele>
        <time>2017-10-09T14:17:29Z</time>
      </trkpt>
      <trkpt lat="38.1506423280" lon="-2.6882394589">
        <ele>1348.87</ele>
        <time>2017-10-09T14:17:30Z</time>
      </trkpt>
      <trkpt lat="38.1506227143" lon="-2.6883428916">
        <ele>1347.43</ele>
        <time>2017-10-09T14:17:31Z</time>
      </trkpt>
      <trkpt lat="38.1506255642" lon="-2.6884550415">
        <ele>1346.46</ele>
        <time>2017-10-09T14:17:32Z</time>
      </trkpt>
      <trkpt lat="38.1506526377" lon="-2.6885670237">
        <ele>1344.54</ele>
        <time>2017-10-09T14:17:33Z</time>
      </trkpt>
      <trkpt lat="38.1507018395" lon="-2.6886697859">
        <ele>1343.58</ele>
        <time>2017-10-09T14:17:34Z</time>
      </trkpt>
      <trkpt lat="38.1507740077" lon="-2.6887550298">
        <ele>1342.62</ele>
        <time>2017-10-09T14:17:35Z</time>
      </trkpt>
      <trkpt lat="38.1508670468" lon="-2.6888156310">
        <ele>1341.66</ele>
        <time>2017-10-09T14:17:36Z</time>
      </trkpt>
      <trkpt lat="38.1509714015" lon="-2.6888624020">
        <ele>1340.22</ele>
        <time>2017-10-09T14:17:37Z</time>
      </trkpt>
      <trkpt lat="38.1512673665" lon="-2.6890208200">
        <ele>1335.89</ele>
        <time>2017-10-09T14:17:40Z</time>
      </trkpt>
      <trkpt lat="38.1513384450" lon="-2.6890854444">
        <ele>1334.93</ele>
        <time>2017-10-09T14:17:41Z</time>
      </trkpt>
      <trkpt lat="38.1513842102" lon="-2.6891603786">
        <ele>1334.45</ele>
        <time>2017-10-09T14:17:42Z</time>
      </trkpt>
      <trkpt lat="38.1514081825" lon="-2.6892379113">
        <ele>1333.49</ele>
        <time>2017-10-09T14:17:43Z</time>
      </trkpt>
      <trkpt lat="38.1514224317" lon="-2.6893128455">
        <ele>1333.01</ele>
        <time>2017-10-09T14:17:44Z</time>
      </trkpt>
      <trkpt lat="38.1514334120" lon="-2.6893858518">
        <ele>1332.52</ele>
        <time>2017-10-09T14:17:45Z</time>
      </trkpt>
      <trkpt lat="38.1514355913" lon="-2.6894505601">
        <ele>1332.04</ele>
        <time>2017-10-09T14:17:46Z</time>
      </trkpt>
      <trkpt lat="38.1514250301" lon="-2.6895066351">
        <ele>1330.60</ele>
        <time>2017-10-09T14:17:47Z</time>
      </trkpt>
      <trkpt lat="38.1514095236" lon="-2.6895510592">
        <ele>1331.08</ele>
        <time>2017-10-09T14:17:48Z</time>
      </trkpt>
      <trkpt lat="38.1513977889" lon="-2.6895819046">
        <ele>1330.60</ele>
        <time>2017-10-09T14:17:49Z</time>
      </trkpt>
      <trkpt lat="38.1513928436" lon="-2.6896018535">
        <ele>1330.60</ele>
        <time>2017-10-09T14:17:50Z</time>
      </trkpt>
      <trkpt lat="38.1513761636" lon="-2.6896073855">
        <ele>1330.60</ele>
        <time>2017-10-09T14:17:55Z</time>
      </trkpt>
      <trkpt lat="38.1513729785" lon="-2.6895946451">
        <ele>1330.12</ele>
        <time>2017-10-09T14:18:03Z</time>
      </trkpt>
      <trkpt lat="38.1513837073" lon="-2.6895880233">
        <ele>1330.12</ele>
        <time>2017-10-09T14:18:26Z</time>
      </trkpt>
      <trkpt lat="38.1513868924" lon="-2.6895921305">
        <ele>1330.12</ele>
        <time>2017-10-09T14:18:49Z</time>
      </trkpt>
      <trkpt lat="38.1513842940" lon="-2.6895947289">
        <ele>1330.12</ele>
        <time>2017-10-09T14:19:21Z</time>
      </trkpt>
      <trkpt lat="38.1513841264" lon="-2.6895909570">
        <ele>1330.60</ele>
        <time>2017-10-09T14:19:45Z</time>
      </trkpt>
      <trkpt lat="38.1513787620" lon="-2.6896004286">
        <ele>1330.60</ele>
        <time>2017-10-09T14:20:09Z</time>
      </trkpt>
      <trkpt lat="38.1513895746" lon="-2.6896069665">
        <ele>1330.60</ele>
        <time>2017-10-09T14:20:33Z</time>
      </trkpt>
      <trkpt lat="38.1513926759" lon="-2.6895944774">
        <ele>1330.12</ele>
        <time>2017-10-09T14:20:57Z</time>
      </trkpt>
      <trkpt lat="38.1514010578" lon="-2.6895946451">
        <ele>1330.12</ele>
        <time>2017-10-09T14:21:14Z</time>
      </trkpt>
      <trkpt lat="38.1513972860" lon="-2.6895850059">
        <ele>1330.12</ele>
        <time>2017-10-09T14:21:28Z</time>
      </trkpt>
      <trkpt lat="38.1513943523" lon="-2.6895872690">
        <ele>1330.12</ele>
        <time>2017-10-09T14:21:48Z</time>
      </trkpt>
      <trkpt lat="38.1513897423" lon="-2.6895781327">
        <ele>1330.60</ele>
        <time>2017-10-09T14:21:55Z</time>
      </trkpt>
      <trkpt lat="38.1513961125" lon="-2.6895731036">
        <ele>1330.60</ele>
        <time>2017-10-09T14:22:08Z</time>
      </trkpt>
      <trkpt lat="38.1514104456" lon="-2.6895629615">
        <ele>1330.60</ele>
        <time>2017-10-09T14:22:09Z</time>
      </trkpt>
      <trkpt lat="38.1514282152" lon="-2.6895554177">
        <ele>1330.60</ele>
        <time>2017-10-09T14:22:10Z</time>
      </trkpt>
      <trkpt lat="38.1514641736" lon="-2.6895464491">
        <ele>1330.60</ele>
        <time>2017-10-09T14:22:12Z</time>
      </trkpt>
      <trkpt lat="38.1514890678" lon="-2.6895567589">
        <ele>1330.12</ele>
        <time>2017-10-09T14:22:13Z</time>
      </trkpt>
      <trkpt lat="38.1515212543" lon="-2.6895798091">
        <ele>1329.64</ele>
        <time>2017-10-09T14:22:14Z</time>
      </trkpt>
      <trkpt lat="38.1516110245" lon="-2.6896414999">
        <ele>1328.68</ele>
        <time>2017-10-09T14:22:16Z</time>
      </trkpt>
      <trkpt lat="38.1516704522" lon="-2.6896622870">
        <ele>1328.20</ele>
        <time>2017-10-09T14:22:17Z</time>
      </trkpt>
      <trkpt lat="38.1517401896" lon="-2.6896701660">
        <ele>1327.24</ele>
        <time>2017-10-09T14:22:18Z</time>
      </trkpt>
      <trkpt lat="38.1520787347" lon="-2.6896894444">
        <ele>1323.87</ele>
        <time>2017-10-09T14:22:22Z</time>
      </trkpt>
      <trkpt lat="38.1523941457" lon="-2.6896949764">
        <ele>1319.55</ele>
        <time>2017-10-09T14:22:25Z</time>
      </trkpt>
      <trkpt lat="38.1527476944" lon="-2.6896597724">
        <ele>1316.18</ele>
        <time>2017-10-09T14:22:28Z</time>
      </trkpt>
      <trkpt lat="38.1531115528" lon="-2.6895580161">
        <ele>1312.82</ele>
        <time>2017-10-09T14:22:31Z</time>
      </trkpt>
      <trkpt lat="38.1532230321" lon="-2.6894898713">
        <ele>1312.34</ele>
        <time>2017-10-09T14:22:32Z</time>
      </trkpt>
      <trkpt lat="38.1533239502" lon="-2.6894036215">
        <ele>1311.86</ele>
        <time>2017-10-09T14:22:33Z</time>
      </trkpt>
      <trkpt lat="38.1535060890" lon="-2.6892374922">
        <ele>1311.86</ele>
        <time>2017-10-09T14:22:35Z</time>
      </trkpt>
      <trkpt lat="38.1536021456" lon="-2.6891887933">
        <ele>1312.34</ele>
        <time>2017-10-09T14:22:36Z</time>
      </trkpt>
      <trkpt lat="38.1537015550" lon="-2.6891729515">
        <ele>1312.82</ele>
        <time>2017-10-09T14:22:37Z</time>
      </trkpt>
      <trkpt lat="38.1537940074" lon="-2.6891829260">
        <ele>1312.82</ele>
        <time>2017-10-09T14:22:38Z</time>
      </trkpt>
      <trkpt lat="38.1538784970" lon="-2.6892115083">
        <ele>1313.78</ele>
        <time>2017-10-09T14:22:39Z</time>
      </trkpt>
      <trkpt lat="38.1539484859" lon="-2.6892587822">
        <ele>1314.74</ele>
        <time>2017-10-09T14:22:40Z</time>
      </trkpt>
      <trkpt lat="38.1540051475" lon="-2.6893153600">
        <ele>1315.22</ele>
        <time>2017-10-09T14:22:41Z</time>
      </trkpt>
      <trkpt lat="38.1540431175" lon="-2.6893819962">
        <ele>1316.18</ele>
        <time>2017-10-09T14:22:42Z</time>
      </trkpt>
      <trkpt lat="38.1540699396" lon="-2.6894489676">
        <ele>1316.66</ele>
        <time>2017-10-09T14:22:43Z</time>
      </trkpt>
      <trkpt lat="38.1540891342" lon="-2.6895103231">
        <ele>1317.14</ele>
        <time>2017-10-09T14:22:44Z</time>
      </trkpt>
      <trkpt lat="38.1541039702" lon="-2.6895659789">
        <ele>1317.62</ele>
        <time>2017-10-09T14:22:45Z</time>
      </trkpt>
      <trkpt lat="38.1542562693" lon="-2.6898226328">
        <ele>1319.55</ele>
        <time>2017-10-09T14:22:52Z</time>
      </trkpt>
      <trkpt lat="38.1543492246" lon="-2.6899695676">
        <ele>1320.51</ele>
        <time>2017-10-09T14:22:56Z</time>
      </trkpt>
      <trkpt lat="38.1543709338" lon="-2.6900129858">
        <ele>1320.99</ele>
        <time>2017-10-09T14:22:57Z</time>
      </trkpt>
      <trkpt lat="38.1543910503" lon="-2.6900529675">
        <ele>1321.47</ele>
        <time>2017-10-09T14:22:58Z</time>
      </trkpt>
      <trkpt lat="38.1544080656" lon="-2.6900973078">
        <ele>1321.47</ele>
        <time>2017-10-09T14:22:59Z</time>
      </trkpt>
      <trkpt lat="38.1544222310" lon="-2.6901376247">
        <ele>1321.47</ele>
        <time>2017-10-09T14:23:00Z</time>
      </trkpt>
      <trkpt lat="38.1544393301" lon="-2.6901736669">
        <ele>1320.99</ele>
        <time>2017-10-09T14:23:01Z</time>
      </trkpt>
      <trkpt lat="38.1544580217" lon="-2.6902063563">
        <ele>1320.99</ele>
        <time>2017-10-09T14:23:02Z</time>
      </trkpt>
      <trkpt lat="38.1544737797" lon="-2.6902408898">
        <ele>1320.99</ele>
        <time>2017-10-09T14:23:03Z</time>
      </trkpt>
      <trkpt lat="38.1544874422" lon="-2.6902738307">
        <ele>1321.47</ele>
        <time>2017-10-09T14:23:04Z</time>
      </trkpt>
      <trkpt lat="38.1547130831" lon="-2.6905097812">
        <ele>1320.51</ele>
        <time>2017-10-09T14:23:14Z</time>
      </trkpt>
      <trkpt lat="38.1549220439" lon="-2.6906142198">
        <ele>1320.03</ele>
        <time>2017-10-09T14:23:20Z</time>
      </trkpt>
      <trkpt lat="38.1549584214" lon="-2.6906520221">
        <ele>1319.55</ele>
        <time>2017-10-09T14:23:21Z</time>
      </trkpt>
      <trkpt lat="38.1549946312" lon="-2.6906982902">
        <ele>1319.55</ele>
        <time>2017-10-09T14:23:22Z</time>
      </trkpt>
      <trkpt lat="38.1550673861" lon="-2.6908136252">
        <ele>1318.59</ele>
        <time>2017-10-09T14:23:24Z</time>
      </trkpt>
      <trkpt lat="38.1550951302" lon="-2.6908866316">
        <ele>1318.10</ele>
        <time>2017-10-09T14:23:25Z</time>
      </trkpt>
      <trkpt lat="38.1551144086" lon="-2.6909713726">
        <ele>1317.62</ele>
        <time>2017-10-09T14:23:26Z</time>
      </trkpt>
      <trkpt lat="38.1551219523" lon="-2.6910651661">
        <ele>1316.66</ele>
        <time>2017-10-09T14:23:27Z</time>
      </trkpt>
      <trkpt lat="38.1551179290" lon="-2.6911631506">
        <ele>1315.70</ele>
        <time>2017-10-09T14:23:28Z</time>
      </trkpt>
      <trkpt lat="38.1551069487" lon="-2.6912676729">
        <ele>1315.22</ele>
        <time>2017-10-09T14:23:29Z</time>
      </trkpt>
      <trkpt lat="38.1551019195" lon="-2.6913782302">
        <ele>1314.74</ele>
        <time>2017-10-09T14:23:30Z</time>
      </trkpt>
      <trkpt lat="38.1551117264" lon="-2.6914902963">
        <ele>1313.78</ele>
        <time>2017-10-09T14:23:31Z</time>
      </trkpt>
      <trkpt lat="38.1551376265" lon="-2.6916038711">
        <ele>1312.82</ele>
        <time>2017-10-09T14:23:32Z</time>
      </trkpt>
      <trkpt lat="38.1552983914" lon="-2.6920521352">
        <ele>1310.41</ele>
        <time>2017-10-09T14:23:36Z</time>
      </trkpt>
      <trkpt lat="38.1553624291" lon="-2.6921481080">
        <ele>1309.45</ele>
        <time>2017-10-09T14:23:37Z</time>
      </trkpt>
      <trkpt lat="38.1554432306" lon="-2.6922264788">
        <ele>1308.49</ele>
        <time>2017-10-09T14:23:38Z</time>
      </trkpt>
      <trkpt lat="38.1555348448" lon="-2.6922852360">
        <ele>1307.53</ele>
        <time>2017-10-09T14:23:39Z</time>
      </trkpt>
      <trkpt lat="38.1556350086" lon="-2.6923211105">
        <ele>1307.05</ele>
        <time>2017-10-09T14:23:40Z</time>
      </trkpt>
      <trkpt lat="38.1557397824" lon="-2.6923305821">
        <ele>1306.09</ele>
        <time>2017-10-09T14:23:41Z</time>
      </trkpt>
      <trkpt lat="38.1558462325" lon="-2.6923180092">
        <ele>1305.13</ele>
        <time>2017-10-09T14:23:42Z</time>
      </trkpt>
      <trkpt lat="38.1559524313" lon="-2.6922935341">
        <ele>1305.13</ele>
        <time>2017-10-09T14:23:43Z</time>
      </trkpt>
      <trkpt lat="38.1562685966" lon="-2.6922113076">
        <ele>1302.24</ele>
        <time>2017-10-09T14:23:46Z</time>
      </trkpt>
      <trkpt lat="38.1563617196" lon="-2.6921441685">
        <ele>1301.76</ele>
        <time>2017-10-09T14:23:47Z</time>
      </trkpt>
      <trkpt lat="38.1564419344" lon="-2.6920582540">
        <ele>1300.80</ele>
        <time>2017-10-09T14:23:48Z</time>
      </trkpt>
      <trkpt lat="38.1566751190" lon="-2.6917894464">
        <ele>1299.36</ele>
        <time>2017-10-09T14:23:52Z</time>
      </trkpt>
      <trkpt lat="38.1567108259" lon="-2.6917394064">
        <ele>1298.40</ele>
        <time>2017-10-09T14:23:53Z</time>
      </trkpt>
      <trkpt lat="38.1567368098" lon="-2.6916941442">
        <ele>1298.40</ele>
        <time>2017-10-09T14:23:54Z</time>
      </trkpt>
      <trkpt lat="38.1567539927" lon="-2.6916555874">
        <ele>1297.92</ele>
        <time>2017-10-09T14:23:55Z</time>
      </trkpt>
      <trkpt lat="38.1567610335" lon="-2.6916224789">
        <ele>1297.92</ele>
        <time>2017-10-09T14:23:56Z</time>
      </trkpt>
      <trkpt lat="38.1567653082" lon="-2.6915964950">
        <ele>1297.92</ele>
        <time>2017-10-09T14:23:57Z</time>
      </trkpt>
      <trkpt lat="38.1567662302" lon="-2.6915705949">
        <ele>1297.44</ele>
        <time>2017-10-09T14:23:58Z</time>
      </trkpt>
      <trkpt lat="38.1567655597" lon="-2.6915353071">
        <ele>1297.44</ele>
        <time>2017-10-09T14:23:59Z</time>
      </trkpt>
      <trkpt lat="38.1567548309" lon="-2.6914876141">
        <ele>1297.44</ele>
        <time>2017-10-09T14:24:00Z</time>
      </trkpt>
      <trkpt lat="38.1567383185" lon="-2.6914298628">
        <ele>1296.96</ele>
        <time>2017-10-09T14:24:01Z</time>
      </trkpt>
      <trkpt lat="38.1567189563" lon="-2.6913633104">
        <ele>1296.48</ele>
        <time>2017-10-09T14:24:02Z</time>
      </trkpt>
      <trkpt lat="38.1566632167" lon="-2.6911303774">
        <ele>1294.55</ele>
        <time>2017-10-09T14:24:05Z</time>
      </trkpt>
      <trkpt lat="38.1566451117" lon="-2.6906084362">
        <ele>1291.19</ele>
        <time>2017-10-09T14:24:10Z</time>
      </trkpt>
      <trkpt lat="38.1566572655" lon="-2.6901102997">
        <ele>1288.30</ele>
        <time>2017-10-09T14:24:14Z</time>
      </trkpt>
      <trkpt lat="38.1566919666" lon="-2.6895594411">
        <ele>1284.46</ele>
        <time>2017-10-09T14:24:18Z</time>
      </trkpt>
      <trkpt lat="38.1567145977" lon="-2.6890191436">
        <ele>1281.09</ele>
        <time>2017-10-09T14:24:22Z</time>
      </trkpt>
      <trkpt lat="38.1566900387" lon="-2.6889130287">
        <ele>1280.61</ele>
        <time>2017-10-09T14:24:23Z</time>
      </trkpt>
      <trkpt lat="38.1566270906" lon="-2.6887261122">
        <ele>1279.65</ele>
        <time>2017-10-09T14:24:25Z</time>
      </trkpt>
      <trkpt lat="38.1566059683" lon="-2.6886262000">
        <ele>1278.69</ele>
        <time>2017-10-09T14:24:26Z</time>
      </trkpt>
      <trkpt lat="38.1566022802" lon="-2.6885205880">
        <ele>1278.21</ele>
        <time>2017-10-09T14:24:27Z</time>
      </trkpt>
      <trkpt lat="38.1566252466" lon="-2.6884128805">
        <ele>1277.25</ele>
        <time>2017-10-09T14:24:28Z</time>
      </trkpt>
      <trkpt lat="38.1566675752" lon="-2.6883099508">
        <ele>1275.81</ele>
        <time>2017-10-09T14:24:29Z</time>
      </trkpt>
      <trkpt lat="38.1567243207" lon="-2.6882117987">
        <ele>1275.33</ele>
        <time>2017-10-09T14:24:30Z</time>
      </trkpt>
      <trkpt lat="38.1567820720" lon="-2.6881075278">
        <ele>1274.85</ele>
        <time>2017-10-09T14:24:31Z</time>
      </trkpt>
      <trkpt lat="38.1568237301" lon="-2.6879869122">
        <ele>1273.88</ele>
        <time>2017-10-09T14:24:32Z</time>
      </trkpt>
      <trkpt lat="38.1568435952" lon="-2.6878636982">
        <ele>1272.92</ele>
        <time>2017-10-09T14:24:33Z</time>
      </trkpt>
      <trkpt lat="38.1568655558" lon="-2.6877528057">
        <ele>1271.96</ele>
        <time>2017-10-09T14:24:34Z</time>
      </trkpt>
      <trkpt lat="38.1569093931" lon="-2.6876680646">
        <ele>1271.48</ele>
        <time>2017-10-09T14:24:35Z</time>
      </trkpt>
      <trkpt lat="38.1569668930" lon="-2.6876152586">
        <ele>1271.00</ele>
        <time>2017-10-09T14:24:36Z</time>
      </trkpt>
      <trkpt lat="38.1570256501" lon="-2.6875855867">
        <ele>1270.52</ele>
        <time>2017-10-09T14:24:37Z</time>
      </trkpt>
      <trkpt lat="38.1570810545" lon="-2.6875758637">
        <ele>1270.04</ele>
        <time>2017-10-09T14:24:38Z</time>
      </trkpt>
      <trkpt lat="38.1571294181" lon="-2.6875804737">
        <ele>1269.56</ele>
        <time>2017-10-09T14:24:39Z</time>
      </trkpt>
      <trkpt lat="38.1571723334" lon="-2.6875939686">
        <ele>1269.08</ele>
        <time>2017-10-09T14:24:40Z</time>
      </trkpt>
      <trkpt lat="38.1572169252" lon="-2.6876112353">
        <ele>1269.08</ele>
        <time>2017-10-09T14:24:41Z</time>
      </trkpt>
      <trkpt lat="38.1572641153" lon="-2.6876326092">
        <ele>1268.12</ele>
        <time>2017-10-09T14:24:42Z</time>
      </trkpt>
      <trkpt lat="38.1573018339" lon="-2.6876791287">
        <ele>1267.64</ele>
        <time>2017-10-09T14:24:43Z</time>
      </trkpt>
      <trkpt lat="38.1573287398" lon="-2.6877382211">
        <ele>1267.16</ele>
        <time>2017-10-09T14:24:44Z</time>
      </trkpt>
      <trkpt lat="38.1573493592" lon="-2.6878109761">
        <ele>1266.67</ele>
        <time>2017-10-09T14:24:45Z</time>
      </trkpt>
      <trkpt lat="38.1573657878" lon="-2.6879001595">
        <ele>1265.71</ele>
        <time>2017-10-09T14:24:46Z</time>
      </trkpt>
      <trkpt lat="38.1574503612" lon="-2.6882069372">
        <ele>1263.31</ele>
        <time>2017-10-09T14:24:49Z</time>
      </trkpt>
      <trkpt lat="38.1575045921" lon="-2.6883024070">
        <ele>1262.35</ele>
        <time>2017-10-09T14:24:50Z</time>
      </trkpt>
      <trkpt lat="38.1575661991" lon="-2.6883934345">
        <ele>1261.39</ele>
        <time>2017-10-09T14:24:51Z</time>
      </trkpt>
      <trkpt lat="38.1577543728" lon="-2.6886519324">
        <ele>1259.46</ele>
        <time>2017-10-09T14:24:54Z</time>
      </trkpt>
      <trkpt lat="38.1579363439" lon="-2.6888918225">
        <ele>1258.98</ele>
        <time>2017-10-09T14:24:57Z</time>
      </trkpt>
      <trkpt lat="38.1580041535" lon="-2.6889487356">
        <ele>1258.98</ele>
        <time>2017-10-09T14:24:58Z</time>
      </trkpt>
      <trkpt lat="38.1580797583" lon="-2.6889777370">
        <ele>1258.50</ele>
        <time>2017-10-09T14:24:59Z</time>
      </trkpt>
      <trkpt lat="38.1581581291" lon="-2.6889782399">
        <ele>1258.98</ele>
        <time>2017-10-09T14:25:00Z</time>
      </trkpt>
      <trkpt lat="38.1582350750" lon="-2.6889568660">
        <ele>1258.50</ele>
        <time>2017-10-09T14:25:01Z</time>
      </trkpt>
      <trkpt lat="38.1583057344" lon="-2.6889192313">
        <ele>1258.50</ele>
        <time>2017-10-09T14:25:02Z</time>
      </trkpt>
      <trkpt lat="38.1583673414" lon="-2.6888768189">
        <ele>1258.50</ele>
        <time>2017-10-09T14:25:03Z</time>
      </trkpt>
      <trkpt lat="38.1584269367" lon="-2.6888385136">
        <ele>1258.50</ele>
        <time>2017-10-09T14:25:04Z</time>
      </trkpt>
      <trkpt lat="38.1584891304" lon="-2.6888081711">
        <ele>1258.50</ele>
        <time>2017-10-09T14:25:05Z</time>
      </trkpt>
      <trkpt lat="38.1585569400" lon="-2.6887841150">
        <ele>1258.02</ele>
        <time>2017-10-09T14:25:06Z</time>
      </trkpt>
      <trkpt lat="38.1586281024" lon="-2.6887694467">
        <ele>1257.54</ele>
        <time>2017-10-09T14:25:07Z</time>
      </trkpt>
      <trkpt lat="38.1586998515" lon="-2.6887660939">
        <ele>1257.06</ele>
        <time>2017-10-09T14:25:08Z</time>
      </trkpt>
      <trkpt lat="38.1590929627" lon="-2.6887499169">
        <ele>1254.66</ele>
        <time>2017-10-09T14:25:13Z</time>
      </trkpt>
      <trkpt lat="38.1591745187" lon="-2.6887235977">
        <ele>1254.18</ele>
        <time>2017-10-09T14:25:14Z</time>
      </trkpt>
      <trkpt lat="38.1592510454" lon="-2.6886712946">
        <ele>1253.70</ele>
        <time>2017-10-09T14:25:15Z</time>
      </trkpt>
      <trkpt lat="38.1593203638" lon="-2.6885942649">
        <ele>1253.22</ele>
        <time>2017-10-09T14:25:16Z</time>
      </trkpt>
      <trkpt lat="38.1593826413" lon="-2.6885049138">
        <ele>1252.74</ele>
        <time>2017-10-09T14:25:17Z</time>
      </trkpt>
      <trkpt lat="38.1594454218" lon="-2.6884251181">
        <ele>1252.25</ele>
        <time>2017-10-09T14:25:18Z</time>
      </trkpt>
      <trkpt lat="38.1595155783" lon="-2.6883732341">
        <ele>1251.77</ele>
        <time>2017-10-09T14:25:19Z</time>
      </trkpt>
      <trkpt lat="38.1595965475" lon="-2.6883572247">
        <ele>1251.29</ele>
        <time>2017-10-09T14:25:20Z</time>
      </trkpt>
      <trkpt lat="38.1596809532" lon="-2.6883744076">
        <ele>1250.33</ele>
        <time>2017-10-09T14:25:21Z</time>
      </trkpt>
      <trkpt lat="38.1597646885" lon="-2.6884119585">
        <ele>1249.85</ele>
        <time>2017-10-09T14:25:22Z</time>
      </trkpt>
      <trkpt lat="38.1598451547" lon="-2.6884654351">
        <ele>1249.37</ele>
        <time>2017-10-09T14:25:23Z</time>
      </trkpt>
      <trkpt lat="38.1599222682" lon="-2.6885270420">
        <ele>1248.41</ele>
        <time>2017-10-09T14:25:24Z</time>
      </trkpt>
      <trkpt lat="38.1599944364" lon="-2.6885902416">
        <ele>1248.41</ele>
        <time>2017-10-09T14:25:25Z</time>
      </trkpt>
      <trkpt lat="38.1600645930" lon="-2.6886526868">
        <ele>1247.93</ele>
        <time>2017-10-09T14:25:26Z</time>
      </trkpt>
      <trkpt lat="38.1601388566" lon="-2.6887123659">
        <ele>1246.97</ele>
        <time>2017-10-09T14:25:27Z</time>
      </trkpt>
      <trkpt lat="38.1602931675" lon="-2.6888298802">
        <ele>1246.01</ele>
        <time>2017-10-09T14:25:29Z</time>
      </trkpt>
      <trkpt lat="38.1603749748" lon="-2.6888756454">
        <ele>1246.01</ele>
        <time>2017-10-09T14:25:30Z</time>
      </trkpt>
      <trkpt lat="38.1604603864" lon="-2.6889157947">
        <ele>1245.04</ele>
        <time>2017-10-09T14:25:31Z</time>
      </trkpt>
      <trkpt lat="38.1605475582" lon="-2.6889435388">
        <ele>1244.56</ele>
        <time>2017-10-09T14:25:32Z</time>
      </trkpt>
      <trkpt lat="38.1606375799" lon="-2.6889560279">
        <ele>1244.08</ele>
        <time>2017-10-09T14:25:33Z</time>
      </trkpt>
      <trkpt lat="38.1607279368" lon="-2.6889572851">
        <ele>1243.60</ele>
        <time>2017-10-09T14:25:34Z</time>
      </trkpt>
      <trkpt lat="38.1608203053" lon="-2.6889471430">
        <ele>1243.60</ele>
        <time>2017-10-09T14:25:35Z</time>
      </trkpt>
      <trkpt lat="38.1609093212" lon="-2.6889151242">
        <ele>1243.12</ele>
        <time>2017-10-09T14:25:36Z</time>
      </trkpt>
      <trkpt lat="38.1609922182" lon="-2.6888551936">
        <ele>1242.64</ele>
        <time>2017-10-09T14:25:37Z</time>
      </trkpt>
      <trkpt lat="38.1610602792" lon="-2.6887626573">
        <ele>1242.16</ele>
        <time>2017-10-09T14:25:38Z</time>
      </trkpt>
      <trkpt lat="38.1611067150" lon="-2.6886507589">
        <ele>1241.68</ele>
        <time>2017-10-09T14:25:39Z</time>
      </trkpt>
      <trkpt lat="38.1611338723" lon="-2.6885292213">
        <ele>1241.68</ele>
        <time>2017-10-09T14:25:40Z</time>
      </trkpt>
      <trkpt lat="38.1611494627" lon="-2.6884052530">
        <ele>1241.20</ele>
        <time>2017-10-09T14:25:41Z</time>
      </trkpt>
      <trkpt lat="38.1611711718" lon="-2.6882817037">
        <ele>1240.72</ele>
        <time>2017-10-09T14:25:42Z</time>
      </trkpt>
      <trkpt lat="38.1612098124" lon="-2.6881644409">
        <ele>1240.24</ele>
        <time>2017-10-09T14:25:43Z</time>
      </trkpt>
      <trkpt lat="38.1612619478" lon="-2.6880544703">
        <ele>1240.24</ele>
        <time>2017-10-09T14:25:44Z</time>
      </trkpt>
      <trkpt lat="38.1613243930" lon="-2.6879507024">
        <ele>1239.28</ele>
        <time>2017-10-09T14:25:45Z</time>
      </trkpt>
      <trkpt lat="38.1613914482" lon="-2.6878486108">
        <ele>1238.32</ele>
        <time>2017-10-09T14:25:46Z</time>
      </trkpt>
      <trkpt lat="38.1615704019" lon="-2.6875427552">
        <ele>1236.87</ele>
        <time>2017-10-09T14:25:49Z</time>
      </trkpt>
      <trkpt lat="38.1616007444" lon="-2.6874341257">
        <ele>1236.39</ele>
        <time>2017-10-09T14:25:50Z</time>
      </trkpt>
      <trkpt lat="38.1616477668" lon="-2.6872429345">
        <ele>1235.43</ele>
        <time>2017-10-09T14:25:52Z</time>
      </trkpt>
      <trkpt lat="38.1616895925" lon="-2.6871639770">
        <ele>1235.43</ele>
        <time>2017-10-09T14:25:53Z</time>
      </trkpt>
      <trkpt lat="38.1617519539" lon="-2.6871046331">
        <ele>1234.95</ele>
        <time>2017-10-09T14:25:54Z</time>
      </trkpt>
      <trkpt lat="38.1618278101" lon="-2.6870660763">
        <ele>1234.47</ele>
        <time>2017-10-09T14:25:55Z</time>
      </trkpt>
      <trkpt lat="38.1619099528" lon="-2.6870484743">
        <ele>1233.51</ele>
        <time>2017-10-09T14:25:56Z</time>
      </trkpt>
      <trkpt lat="38.1619958673" lon="-2.6870487258">
        <ele>1233.51</ele>
        <time>2017-10-09T14:25:57Z</time>
      </trkpt>
      <trkpt lat="38.1620848831" lon="-2.6870495640">
        <ele>1233.03</ele>
        <time>2017-10-09T14:25:58Z</time>
      </trkpt>
      <trkpt lat="38.1621744856" lon="-2.6870420203">
        <ele>1232.55</ele>
        <time>2017-10-09T14:25:59Z</time>
      </trkpt>
      <trkpt lat="38.1622636691" lon="-2.6870218199">
        <ele>1232.07</ele>
        <time>2017-10-09T14:26:00Z</time>
      </trkpt>
      <trkpt lat="38.1623497512" lon="-2.6869791560">
        <ele>1231.59</ele>
        <time>2017-10-09T14:26:01Z</time>
      </trkpt>
      <trkpt lat="38.1624328997" lon="-2.6869204827">
        <ele>1230.62</ele>
        <time>2017-10-09T14:26:02Z</time>
      </trkpt>
      <trkpt lat="38.1625147909" lon="-2.6868647430">
        <ele>1230.14</ele>
        <time>2017-10-09T14:26:03Z</time>
      </trkpt>
      <trkpt lat="38.1625969335" lon="-2.6868385077">
        <ele>1230.14</ele>
        <time>2017-10-09T14:26:04Z</time>
      </trkpt>
      <trkpt lat="38.1626778189" lon="-2.6868504938">
        <ele>1230.14</ele>
        <time>2017-10-09T14:26:05Z</time>
      </trkpt>
      <trkpt lat="38.1627489813" lon="-2.6868976001">
        <ele>1229.66</ele>
        <time>2017-10-09T14:26:06Z</time>
      </trkpt>
      <trkpt lat="38.1628060620" lon="-2.6869697683">
        <ele>1229.18</ele>
        <time>2017-10-09T14:26:07Z</time>
      </trkpt>
      <trkpt lat="38.1628480554" lon="-2.6870555151">
        <ele>1229.18</ele>
        <time>2017-10-09T14:26:08Z</time>
      </trkpt>
      <trkpt lat="38.1628747098" lon="-2.6871459559">
        <ele>1229.18</ele>
        <time>2017-10-09T14:26:09Z</time>
      </trkpt>
      <trkpt lat="38.1628970057" lon="-2.6872314513">
        <ele>1229.66</ele>
        <time>2017-10-09T14:26:10Z</time>
      </trkpt>
      <trkpt lat="38.1629235763" lon="-2.6873166952">
        <ele>1229.66</ele>
        <time>2017-10-09T14:26:11Z</time>
      </trkpt>
      <trkpt lat="38.1629540864" lon="-2.6873938926">
        <ele>1230.14</ele>
        <time>2017-10-09T14:26:12Z</time>
      </trkpt>
      <trkpt lat="38.1629880331" lon="-2.6874652226">
        <ele>1230.62</ele>
        <time>2017-10-09T14:26:13Z</time>
      </trkpt>
      <trkpt lat="38.1630224828" lon="-2.6875267457">
        <ele>1230.62</ele>
        <time>2017-10-09T14:26:14Z</time>
      </trkpt>
      <trkpt lat="38.1630557589" lon="-2.6875800546">
        <ele>1231.11</ele>
        <time>2017-10-09T14:26:15Z</time>
      </trkpt>
      <trkpt lat="38.1632290129" lon="-2.6879464276">
        <ele>1233.03</ele>
        <time>2017-10-09T14:26:24Z</time>
      </trkpt>
      <trkpt lat="38.1633233931" lon="-2.6883393712">
        <ele>1234.47</ele>
        <time>2017-10-09T14:26:34Z</time>
      </trkpt>
      <trkpt lat="38.1634305976" lon="-2.6888479013">
        <ele>1234.95</ele>
        <time>2017-10-09T14:26:46Z</time>
      </trkpt>
      <trkpt lat="38.1634674780" lon="-2.6889417786">
        <ele>1234.47</ele>
        <time>2017-10-09T14:26:48Z</time>
      </trkpt>
      <trkpt lat="38.1634946354" lon="-2.6889857836">
        <ele>1234.95</ele>
        <time>2017-10-09T14:26:49Z</time>
      </trkpt>
      <trkpt lat="38.1636726670" lon="-2.6892406773">
        <ele>1233.99</ele>
        <time>2017-10-09T14:26:55Z</time>
      </trkpt>
      <trkpt lat="38.1636968907" lon="-2.6892995182">
        <ele>1233.51</ele>
        <time>2017-10-09T14:26:56Z</time>
      </trkpt>
      <trkpt lat="38.1637128163" lon="-2.6893648133">
        <ele>1233.03</ele>
        <time>2017-10-09T14:26:57Z</time>
      </trkpt>
      <trkpt lat="38.1637201924" lon="-2.6894383226">
        <ele>1232.55</ele>
        <time>2017-10-09T14:26:58Z</time>
      </trkpt>
      <trkpt lat="38.1637176778" lon="-2.6895160228">
        <ele>1232.55</ele>
        <time>2017-10-09T14:26:59Z</time>
      </trkpt>
      <trkpt lat="38.1637135707" lon="-2.6895970758">
        <ele>1232.07</ele>
        <time>2017-10-09T14:27:00Z</time>
      </trkpt>
      <trkpt lat="38.1637125649" lon="-2.6896800566">
        <ele>1231.59</ele>
        <time>2017-10-09T14:27:01Z</time>
      </trkpt>
      <trkpt lat="38.1637240481" lon="-2.6897655521">
        <ele>1231.11</ele>
        <time>2017-10-09T14:27:02Z</time>
      </trkpt>
      <trkpt lat="38.1637519598" lon="-2.6898471918">
        <ele>1230.62</ele>
        <time>2017-10-09T14:27:03Z</time>
      </trkpt>
      <trkpt lat="38.1637991499" lon="-2.6899150014">
        <ele>1230.14</ele>
        <time>2017-10-09T14:27:04Z</time>
      </trkpt>
      <trkpt lat="38.1638615113" lon="-2.6899603475">
        <ele>1229.66</ele>
        <time>2017-10-09T14:27:05Z</time>
      </trkpt>
      <trkpt lat="38.1639327575" lon="-2.6899744291">
        <ele>1229.66</ele>
        <time>2017-10-09T14:27:06Z</time>
      </trkpt>
      <trkpt lat="38.1640054286" lon="-2.6899527200">
        <ele>1229.18</ele>
        <time>2017-10-09T14:27:07Z</time>
      </trkpt>
      <trkpt lat="38.1640724838" lon="-2.6899058651">
        <ele>1228.70</ele>
        <time>2017-10-09T14:27:08Z</time>
      </trkpt>
      <trkpt lat="38.1641322467" lon="-2.6898427494">
        <ele>1228.70</ele>
        <time>2017-10-09T14:27:09Z</time>
      </trkpt>
      <trkpt lat="38.1641853042" lon="-2.6897722576">
        <ele>1228.70</ele>
        <time>2017-10-09T14:27:10Z</time>
      </trkpt>
      <trkpt lat="38.1642360147" lon="-2.6896970719">
        <ele>1227.74</ele>
        <time>2017-10-09T14:27:11Z</time>
      </trkpt>
      <trkpt lat="38.1647396833" lon="-2.6891674194">
        <ele>1224.38</ele>
        <time>2017-10-09T14:27:19Z</time>
      </trkpt>
      <trkpt lat="38.1648721173" lon="-2.6890224963">
        <ele>1223.42</ele>
        <time>2017-10-09T14:27:21Z</time>
      </trkpt>
      <trkpt lat="38.1653601956" lon="-2.6886606496">
        <ele>1221.01</ele>
        <time>2017-10-09T14:27:27Z</time>
      </trkpt>
      <trkpt lat="38.1654427573" lon="-2.6885855477">
        <ele>1220.53</ele>
        <time>2017-10-09T14:27:28Z</time>
      </trkpt>
      <trkpt lat="38.1655160151" lon="-2.6884937659">
        <ele>1220.05</ele>
        <time>2017-10-09T14:27:29Z</time>
      </trkpt>
      <trkpt lat="38.1655875128" lon="-2.6884001400">
        <ele>1219.57</ele>
        <time>2017-10-09T14:27:30Z</time>
      </trkpt>
      <trkpt lat="38.1656667218" lon="-2.6883169077">
        <ele>1219.57</ele>
        <time>2017-10-09T14:27:31Z</time>
      </trkpt>
      <trkpt lat="38.1657534745" lon="-2.6882444043">
        <ele>1218.61</ele>
        <time>2017-10-09T14:27:32Z</time>
      </trkpt>
      <trkpt lat="38.1658471841" lon="-2.6881855633">
        <ele>1218.13</ele>
        <time>2017-10-09T14:27:33Z</time>
      </trkpt>
      <trkpt lat="38.1659459230" lon="-2.6881266385">
        <ele>1217.65</ele>
        <time>2017-10-09T14:27:34Z</time>
      </trkpt>
      <trkpt lat="38.1660419796" lon="-2.6880513690">
        <ele>1216.69</ele>
        <time>2017-10-09T14:27:35Z</time>
      </trkpt>
      <trkpt lat="38.1661354378" lon="-2.6879640296">
        <ele>1215.72</ele>
        <time>2017-10-09T14:27:36Z</time>
      </trkpt>
      <trkpt lat="38.1662344281" lon="-2.6878839824">
        <ele>1214.76</ele>
        <time>2017-10-09T14:27:37Z</time>
      </trkpt>
      <trkpt lat="38.1663406268" lon="-2.6878181007">
        <ele>1213.80</ele>
        <time>2017-10-09T14:27:38Z</time>
      </trkpt>
      <trkpt lat="38.1667511724" lon="-2.6875906996">
        <ele>1210.92</ele>
        <time>2017-10-09T14:27:42Z</time>
      </trkpt>
      <trkpt lat="38.1668413617" lon="-2.6875086408">
        <ele>1210.44</ele>
        <time>2017-10-09T14:27:43Z</time>
      </trkpt>
      <trkpt lat="38.1669195648" lon="-2.6874027774">
        <ele>1209.96</ele>
        <time>2017-10-09T14:27:44Z</time>
      </trkpt>
      <trkpt lat="38.1670656614" lon="-2.6871889550">
        <ele>1208.51</ele>
        <time>2017-10-09T14:27:46Z</time>
      </trkpt>
      <trkpt lat="38.1671492290" lon="-2.6871117577">
        <ele>1207.55</ele>
        <time>2017-10-09T14:27:47Z</time>
      </trkpt>
      <trkpt lat="38.1672357302" lon="-2.6870614663">
        <ele>1207.55</ele>
        <time>2017-10-09T14:27:48Z</time>
      </trkpt>
      <trkpt lat="38.1673312839" lon="-2.6870500669">
        <ele>1207.07</ele>
        <time>2017-10-09T14:27:49Z</time>
      </trkpt>
      <trkpt lat="38.1674251612" lon="-2.6870757993">
        <ele>1205.63</ele>
        <time>2017-10-09T14:27:50Z</time>
      </trkpt>
      <trkpt lat="38.1675056275" lon="-2.6871374063">
        <ele>1205.63</ele>
        <time>2017-10-09T14:27:51Z</time>
      </trkpt>
      <trkpt lat="38.1675649714" lon="-2.6872317865">
        <ele>1205.63</ele>
        <time>2017-10-09T14:27:52Z</time>
      </trkpt>
      <trkpt lat="38.1675943919" lon="-2.6873406675">
        <ele>1205.63</ele>
        <time>2017-10-09T14:27:53Z</time>
      </trkpt>
      <trkpt lat="38.1675971579" lon="-2.6874498837">
        <ele>1206.11</ele>
        <time>2017-10-09T14:27:54Z</time>
      </trkpt>
      <trkpt lat="38.1675733533" lon="-2.6875554956">
        <ele>1206.11</ele>
        <time>2017-10-09T14:27:55Z</time>
      </trkpt>
      <trkpt lat="38.1675306056" lon="-2.6876492053">
        <ele>1206.11</ele>
        <time>2017-10-09T14:27:56Z</time>
      </trkpt>
      <trkpt lat="38.1674759556" lon="-2.6877325214">
        <ele>1206.11</ele>
        <time>2017-10-09T14:27:57Z</time>
      </trkpt>
      <trkpt lat="38.1674197130" lon="-2.6878077909">
        <ele>1205.63</ele>
        <time>2017-10-09T14:27:58Z</time>
      </trkpt>
      <trkpt lat="38.1669469737" lon="-2.6884355117">
        <ele>1202.75</ele>
        <time>2017-10-09T14:28:06Z</time>
      </trkpt>
      <trkpt lat="38.1666492485" lon="-2.6888061594">
        <ele>1199.38</ele>
        <time>2017-10-09T14:28:10Z</time>
      </trkpt>
      <trkpt lat="38.1661081966" lon="-2.6895044558">
        <ele>1196.02</ele>
        <time>2017-10-09T14:28:17Z</time>
      </trkpt>
      <trkpt lat="38.1657312624" lon="-2.6900186855">
        <ele>1192.17</ele>
        <time>2017-10-09T14:28:22Z</time>
      </trkpt>
      <trkpt lat="38.1654329505" lon="-2.6904705539">
        <ele>1187.85</ele>
        <time>2017-10-09T14:28:26Z</time>
      </trkpt>
      <trkpt lat="38.1653819047" lon="-2.6905905828">
        <ele>1187.37</ele>
        <time>2017-10-09T14:28:27Z</time>
      </trkpt>
      <trkpt lat="38.1652125902" lon="-2.6910667587">
        <ele>1183.04</ele>
        <time>2017-10-09T14:28:31Z</time>
      </trkpt>
      <trkpt lat="38.1650581118" lon="-2.6914487220">
        <ele>1179.67</ele>
        <time>2017-10-09T14:28:34Z</time>
      </trkpt>
      <trkpt lat="38.1649922300" lon="-2.6915653981">
        <ele>1178.71</ele>
        <time>2017-10-09T14:28:35Z</time>
      </trkpt>
      <trkpt lat="38.1649168767" lon="-2.6916710939">
        <ele>1177.27</ele>
        <time>2017-10-09T14:28:36Z</time>
      </trkpt>
      <trkpt lat="38.1646841113" lon="-2.6919205394">
        <ele>1173.91</ele>
        <time>2017-10-09T14:28:39Z</time>
      </trkpt>
      <trkpt lat="38.1645375118" lon="-2.6920569967">
        <ele>1170.06</ele>
        <time>2017-10-09T14:28:41Z</time>
      </trkpt>
      <trkpt lat="38.1644731387" lon="-2.6921302546">
        <ele>1168.62</ele>
        <time>2017-10-09T14:28:42Z</time>
      </trkpt>
      <trkpt lat="38.1644204166" lon="-2.6922104694">
        <ele>1168.14</ele>
        <time>2017-10-09T14:28:43Z</time>
      </trkpt>
      <trkpt lat="38.1643828657" lon="-2.6922953781">
        <ele>1167.66</ele>
        <time>2017-10-09T14:28:44Z</time>
      </trkpt>
      <trkpt lat="38.1643624138" lon="-2.6923778560">
        <ele>1166.70</ele>
        <time>2017-10-09T14:28:45Z</time>
      </trkpt>
      <trkpt lat="38.1643510144" lon="-2.6924545504">
        <ele>1166.22</ele>
        <time>2017-10-09T14:28:46Z</time>
      </trkpt>
      <trkpt lat="38.1643455662" lon="-2.6925267186">
        <ele>1166.70</ele>
        <time>2017-10-09T14:28:47Z</time>
      </trkpt>
      <trkpt lat="38.1643477455" lon="-2.6925945282">
        <ele>1166.22</ele>
        <time>2017-10-09T14:28:48Z</time>
      </trkpt>
      <trkpt lat="38.1643546186" lon="-2.6926543750">
        <ele>1165.74</ele>
        <time>2017-10-09T14:28:49Z</time>
      </trkpt>
      <trkpt lat="38.1643651798" lon="-2.6927040797">
        <ele>1165.26</ele>
        <time>2017-10-09T14:28:50Z</time>
      </trkpt>
      <trkpt lat="38.1643761601" lon="-2.6927498449">
        <ele>1165.74</ele>
        <time>2017-10-09T14:28:51Z</time>
      </trkpt>
      <trkpt lat="38.1643885653" lon="-2.6927860547">
        <ele>1165.26</ele>
        <time>2017-10-09T14:28:52Z</time>
      </trkpt>
      <trkpt lat="38.1646033097" lon="-2.6932495739">
        <ele>1161.89</ele>
        <time>2017-10-09T14:29:04Z</time>
      </trkpt>
      <trkpt lat="38.1647789944" lon="-2.6935736183">
        <ele>1159.01</ele>
        <time>2017-10-09T14:29:09Z</time>
      </trkpt>
      <trkpt lat="38.1648141146" lon="-2.6936329622">
        <ele>1159.01</ele>
        <time>2017-10-09T14:29:10Z</time>
      </trkpt>
      <trkpt lat="38.1648545992" lon="-2.6936767157">
        <ele>1157.56</ele>
        <time>2017-10-09T14:29:11Z</time>
      </trkpt>
      <trkpt lat="38.1649822555" lon="-2.6937889494">
        <ele>1155.64</ele>
        <time>2017-10-09T14:29:14Z</time>
      </trkpt>
      <trkpt lat="38.1651063915" lon="-2.6938780490">
        <ele>1153.72</ele>
        <time>2017-10-09T14:29:20Z</time>
      </trkpt>
      <trkpt lat="38.1651191320" lon="-2.6938653924">
        <ele>1153.72</ele>
        <time>2017-10-09T14:29:38Z</time>
      </trkpt>
      <trkpt lat="38.1651141867" lon="-2.6938678231">
        <ele>1153.72</ele>
        <time>2017-10-09T14:29:50Z</time>
      </trkpt>
      <trkpt lat="38.1651244126" lon="-2.6938977465">
        <ele>1153.24</ele>
        <time>2017-10-09T14:30:03Z</time>
      </trkpt>
      <trkpt lat="38.1651316211" lon="-2.6939197909">
        <ele>1152.76</ele>
        <time>2017-10-09T14:30:26Z</time>
      </trkpt>
      <trkpt lat="38.1651356444" lon="-2.6939280890">
        <ele>1152.76</ele>
        <time>2017-10-09T14:30:49Z</time>
      </trkpt>
      <trkpt lat="38.1651394162" lon="-2.6939221378">
        <ele>1153.24</ele>
        <time>2017-10-09T14:31:11Z</time>
      </trkpt>
      <trkpt lat="38.1651411764" lon="-2.6939288434">
        <ele>1151.80</ele>
        <time>2017-10-09T14:31:33Z</time>
      </trkpt>
      <trkpt lat="38.1651235744" lon="-2.6939142589">
        <ele>1151.32</ele>
        <time>2017-10-09T14:32:02Z</time>
      </trkpt>
      <trkpt lat="38.1651265919" lon="-2.6939130016">
        <ele>1151.32</ele>
        <time>2017-10-09T14:32:25Z</time>
      </trkpt>
      <trkpt lat="38.1651252508" lon="-2.6939068828">
        <ele>1151.32</ele>
        <time>2017-10-09T14:32:41Z</time>
      </trkpt>
      <trkpt lat="38.1652928051" lon="-2.6941058692">
        <ele>1148.91</ele>
        <time>2017-10-09T14:32:49Z</time>
      </trkpt>
      <trkpt lat="38.1653186213" lon="-2.6941467728">
        <ele>1147.95</ele>
        <time>2017-10-09T14:32:56Z</time>
      </trkpt>
      <trkpt lat="38.1653426774" lon="-2.6941958908">
        <ele>1148.43</ele>
        <time>2017-10-09T14:33:11Z</time>
      </trkpt>
      <trkpt lat="38.1653600279" lon="-2.6942374650">
        <ele>1147.47</ele>
        <time>2017-10-09T14:33:12Z</time>
      </trkpt>
      <trkpt lat="38.1653787196" lon="-2.6942907739">
        <ele>1146.99</ele>
        <time>2017-10-09T14:33:13Z</time>
      </trkpt>
      <trkpt lat="38.1653975789" lon="-2.6943566557">
        <ele>1146.51</ele>
        <time>2017-10-09T14:33:14Z</time>
      </trkpt>
      <trkpt lat="38.1654456910" lon="-2.6946171653">
        <ele>1144.11</ele>
        <time>2017-10-09T14:33:17Z</time>
      </trkpt>
      <trkpt lat="38.1654643826" lon="-2.6948418841">
        <ele>1140.74</ele>
        <time>2017-10-09T14:33:19Z</time>
      </trkpt>
      <trkpt lat="38.1654872652" lon="-2.6949608233">
        <ele>1139.78</ele>
        <time>2017-10-09T14:33:20Z</time>
      </trkpt>
      <trkpt lat="38.1655244809" lon="-2.6950819418">
        <ele>1138.82</ele>
        <time>2017-10-09T14:33:21Z</time>
      </trkpt>
      <trkpt lat="38.1656428333" lon="-2.6954762265">
        <ele>1134.97</ele>
        <time>2017-10-09T14:33:24Z</time>
      </trkpt>
      <trkpt lat="38.1657775305" lon="-2.6959037036">
        <ele>1131.13</ele>
        <time>2017-10-09T14:33:27Z</time>
      </trkpt>
      <trkpt lat="38.1658424903" lon="-2.6960433461">
        <ele>1129.69</ele>
        <time>2017-10-09T14:33:28Z</time>
      </trkpt>
      <trkpt lat="38.1659188494" lon="-2.6961730141">
        <ele>1128.73</ele>
        <time>2017-10-09T14:33:29Z</time>
      </trkpt>
      <trkpt lat="38.1662511919" lon="-2.6966329291">
        <ele>1124.88</ele>
        <time>2017-10-09T14:33:34Z</time>
      </trkpt>
      <trkpt lat="38.1663213484" lon="-2.6966885012">
        <ele>1124.88</ele>
        <time>2017-10-09T14:33:35Z</time>
      </trkpt>
      <trkpt lat="38.1664029043" lon="-2.6967135631">
        <ele>1123.92</ele>
        <time>2017-10-09T14:33:36Z</time>
      </trkpt>
      <trkpt lat="38.1664864719" lon="-2.6967049297">
        <ele>1123.92</ele>
        <time>2017-10-09T14:33:37Z</time>
      </trkpt>
      <trkpt lat="38.1665663514" lon="-2.6966794487">
        <ele>1122.96</ele>
        <time>2017-10-09T14:33:38Z</time>
      </trkpt>
      <trkpt lat="38.1667217519" lon="-2.6966536324">
        <ele>1122.48</ele>
        <time>2017-10-09T14:33:40Z</time>
      </trkpt>
      <trkpt lat="38.1667898968" lon="-2.6966782752">
        <ele>1122.00</ele>
        <time>2017-10-09T14:33:41Z</time>
      </trkpt>
      <trkpt lat="38.1668489054" lon="-2.6967238728">
        <ele>1121.52</ele>
        <time>2017-10-09T14:33:42Z</time>
      </trkpt>
      <trkpt lat="38.1668966822" lon="-2.6967896707">
        <ele>1121.03</ele>
        <time>2017-10-09T14:33:43Z</time>
      </trkpt>
      <trkpt lat="38.1669331435" lon="-2.6968765073">
        <ele>1120.55</ele>
        <time>2017-10-09T14:33:44Z</time>
      </trkpt>
      <trkpt lat="38.1669461355" lon="-2.6969785150">
        <ele>1119.11</ele>
        <time>2017-10-09T14:33:45Z</time>
      </trkpt>
      <trkpt lat="38.1669310480" lon="-2.6970903296">
        <ele>1118.15</ele>
        <time>2017-10-09T14:33:46Z</time>
      </trkpt>
      <trkpt lat="38.1668849476" lon="-2.6972019766">
        <ele>1116.71</ele>
        <time>2017-10-09T14:33:47Z</time>
      </trkpt>
      <trkpt lat="38.1668208260" lon="-2.6973054092">
        <ele>1115.27</ele>
        <time>2017-10-09T14:33:48Z</time>
      </trkpt>
      <trkpt lat="38.1667572912" lon="-2.6974038966">
        <ele>1114.31</ele>
        <time>2017-10-09T14:33:49Z</time>
      </trkpt>
      <trkpt lat="38.1667013839" lon="-2.6975051500">
        <ele>1113.34</ele>
        <time>2017-10-09T14:33:50Z</time>
      </trkpt>
      <trkpt lat="38.1666528527" lon="-2.6976050623">
        <ele>1112.38</ele>
        <time>2017-10-09T14:33:51Z</time>
      </trkpt>
      <trkpt lat="38.1666090153" lon="-2.6977089979">
        <ele>1110.94</ele>
        <time>2017-10-09T14:33:52Z</time>
      </trkpt>
      <trkpt lat="38.1665756553" lon="-2.6978261769">
        <ele>1109.98</ele>
        <time>2017-10-09T14:33:53Z</time>
      </trkpt>
      <trkpt lat="38.1665490847" lon="-2.6980899554">
        <ele>1107.10</ele>
        <time>2017-10-09T14:33:55Z</time>
      </trkpt>
      <trkpt lat="38.1665565446" lon="-2.6982241496">
        <ele>1106.13</ele>
        <time>2017-10-09T14:33:56Z</time>
      </trkpt>
      <trkpt lat="38.1665786728" lon="-2.6983591821">
        <ele>1104.21</ele>
        <time>2017-10-09T14:33:57Z</time>
      </trkpt>
      <trkpt lat="38.1666156370" lon="-2.6984965615">
        <ele>1102.77</ele>
        <time>2017-10-09T14:33:58Z</time>
      </trkpt>
      <trkpt lat="38.1666544452" lon="-2.6986351982">
        <ele>1100.85</ele>
        <time>2017-10-09T14:33:59Z</time>
      </trkpt>
      <trkpt lat="38.1667538546" lon="-2.6990405470">
        <ele>1097.48</ele>
        <time>2017-10-09T14:34:02Z</time>
      </trkpt>
      <trkpt lat="38.1668698601" lon="-2.6994878054">
        <ele>1094.12</ele>
        <time>2017-10-09T14:34:05Z</time>
      </trkpt>
      <trkpt lat="38.1670109276" lon="-2.6999533363">
        <ele>1089.31</ele>
        <time>2017-10-09T14:34:08Z</time>
      </trkpt>
      <trkpt lat="38.1671027094" lon="-2.7002356388">
        <ele>1086.43</ele>
        <time>2017-10-09T14:34:10Z</time>
      </trkpt>
      <trkpt lat="38.1672563497" lon="-2.7006590925">
        <ele>1084.02</ele>
        <time>2017-10-09T14:34:13Z</time>
      </trkpt>
      <trkpt lat="38.1673295237" lon="-2.7007821389">
        <ele>1083.54</ele>
        <time>2017-10-09T14:34:14Z</time>
      </trkpt>
      <trkpt lat="38.1674182042" lon="-2.7008829731">
        <ele>1083.54</ele>
        <time>2017-10-09T14:34:15Z</time>
      </trkpt>
      <trkpt lat="38.1675144285" lon="-2.7009638585">
        <ele>1082.58</ele>
        <time>2017-10-09T14:34:16Z</time>
      </trkpt>
      <trkpt lat="38.1676109880" lon="-2.7010325901">
        <ele>1082.58</ele>
        <time>2017-10-09T14:34:17Z</time>
      </trkpt>
      <trkpt lat="38.1677761953" lon="-2.7011721488">
        <ele>1083.54</ele>
        <time>2017-10-09T14:34:19Z</time>
      </trkpt>
      <trkpt lat="38.1678380538" lon="-2.7012468316">
        <ele>1084.02</ele>
        <time>2017-10-09T14:34:20Z</time>
      </trkpt>
      <trkpt lat="38.1678881776" lon="-2.7013191674">
        <ele>1084.50</ele>
        <time>2017-10-09T14:34:21Z</time>
      </trkpt>
      <trkpt lat="38.1679748464" lon="-2.7014546189">
        <ele>1084.99</ele>
        <time>2017-10-09T14:34:23Z</time>
      </trkpt>
      <trkpt lat="38.1680150796" lon="-2.7015101910">
        <ele>1084.99</ele>
        <time>2017-10-09T14:34:24Z</time>
      </trkpt>
      <trkpt lat="38.1680468470" lon="-2.7015632484">
        <ele>1084.99</ele>
        <time>2017-10-09T14:34:25Z</time>
      </trkpt>
      <trkpt lat="38.1680762675" lon="-2.7016143780">
        <ele>1084.99</ele>
        <time>2017-10-09T14:34:26Z</time>
      </trkpt>
      <trkpt lat="38.1681052689" lon="-2.7016676031">
        <ele>1084.99</ele>
        <time>2017-10-09T14:34:27Z</time>
      </trkpt>
      <trkpt lat="38.1681306660" lon="-2.7017263602">
        <ele>1084.99</ele>
        <time>2017-10-09T14:34:28Z</time>
      </trkpt>
      <trkpt lat="38.1681515370" lon="-2.7017875481">
        <ele>1084.02</ele>
        <time>2017-10-09T14:34:29Z</time>
      </trkpt>
      <trkpt lat="38.1681724917" lon="-2.7018508315">
        <ele>1084.50</ele>
        <time>2017-10-09T14:34:30Z</time>
      </trkpt>
      <trkpt lat="38.1681966316" lon="-2.7019170485">
        <ele>1084.02</ele>
        <time>2017-10-09T14:34:31Z</time>
      </trkpt>
      <trkpt lat="38.1682256330" lon="-2.7019866183">
        <ele>1084.02</ele>
        <time>2017-10-09T14:34:32Z</time>
      </trkpt>
      <trkpt lat="38.1683900859" lon="-2.7022876963">
        <ele>1081.62</ele>
        <time>2017-10-09T14:34:36Z</time>
      </trkpt>
      <trkpt lat="38.1684974581" lon="-2.7024263330">
        <ele>1081.14</ele>
        <time>2017-10-09T14:34:38Z</time>
      </trkpt>
      <trkpt lat="38.1686096918" lon="-2.7025456075">
        <ele>1081.62</ele>
        <time>2017-10-09T14:34:40Z</time>
      </trkpt>
      <trkpt lat="38.1688160542" lon="-2.7027113177">
        <ele>1082.58</ele>
        <time>2017-10-09T14:34:44Z</time>
      </trkpt>
      <trkpt lat="38.1691531744" lon="-2.7028704900">
        <ele>1083.54</ele>
        <time>2017-10-09T14:34:53Z</time>
      </trkpt>
      <trkpt lat="38.1692618877" lon="-2.7029123157">
        <ele>1083.06</ele>
        <time>2017-10-09T14:34:56Z</time>
      </trkpt>
      <trkpt lat="38.1697680708" lon="-2.7029185183">
        <ele>1080.66</ele>
        <time>2017-10-09T14:35:05Z</time>
      </trkpt>
      <trkpt lat="38.1698269956" lon="-2.7029326838">
        <ele>1080.66</ele>
        <time>2017-10-09T14:35:06Z</time>
      </trkpt>
      <trkpt lat="38.1698818970" lon="-2.7029629424">
        <ele>1080.66</ele>
        <time>2017-10-09T14:35:07Z</time>
      </trkpt>
      <trkpt lat="38.1699298415" lon="-2.7030033432">
        <ele>1080.66</ele>
        <time>2017-10-09T14:35:08Z</time>
      </trkpt>
      <trkpt lat="38.1699698232" lon="-2.7030517906">
        <ele>1080.66</ele>
        <time>2017-10-09T14:35:09Z</time>
      </trkpt>
      <trkpt lat="38.1700003333" lon="-2.7031020820">
        <ele>1080.66</ele>
        <time>2017-10-09T14:35:10Z</time>
      </trkpt>
      <trkpt lat="38.1700227968" lon="-2.7031525411">
        <ele>1082.10</ele>
        <time>2017-10-09T14:35:11Z</time>
      </trkpt>
      <trkpt lat="38.1700382195" lon="-2.7032006532">
        <ele>1081.14</ele>
        <time>2017-10-09T14:35:12Z</time>
      </trkpt>
      <trkpt lat="38.1700479425" lon="-2.7032439876">
        <ele>1081.62</ele>
        <time>2017-10-09T14:35:13Z</time>
      </trkpt>
      <trkpt lat="38.1700528879" lon="-2.7032813709">
        <ele>1081.62</ele>
        <time>2017-10-09T14:35:14Z</time>
      </trkpt>
      <trkpt lat="38.1700523850" lon="-2.7033140603">
        <ele>1082.10</ele>
        <time>2017-10-09T14:35:15Z</time>
      </trkpt>
      <trkpt lat="38.1700490322" lon="-2.7033429779">
        <ele>1082.10</ele>
        <time>2017-10-09T14:35:16Z</time>
      </trkpt>
      <trkpt lat="38.1699605193" lon="-2.7035792638">
        <ele>1084.50</ele>
        <time>2017-10-09T14:35:27Z</time>
      </trkpt>
      <trkpt lat="38.1699465215" lon="-2.7035967819">
        <ele>1084.50</ele>
        <time>2017-10-09T14:35:28Z</time>
      </trkpt>
      <trkpt lat="38.1699306797" lon="-2.7036136296">
        <ele>1084.50</ele>
        <time>2017-10-09T14:35:29Z</time>
      </trkpt>
      <trkpt lat="38.1699164305" lon="-2.7036292199">
        <ele>1084.99</ele>
        <time>2017-10-09T14:35:30Z</time>
      </trkpt>
      <trkpt lat="38.1699042767" lon="-2.7036470734">
        <ele>1084.99</ele>
        <time>2017-10-09T14:35:31Z</time>
      </trkpt>
      <trkpt lat="38.1698932964" lon="-2.7036645915">
        <ele>1085.47</ele>
        <time>2017-10-09T14:35:32Z</time>
      </trkpt>
      <trkpt lat="38.1698821485" lon="-2.7036787570">
        <ele>1085.47</ele>
        <time>2017-10-09T14:35:33Z</time>
      </trkpt>
      <trkpt lat="38.1698703300" lon="-2.7036899887">
        <ele>1085.47</ele>
        <time>2017-10-09T14:35:34Z</time>
      </trkpt>
      <trkpt lat="38.1698616967" lon="-2.7037061658">
        <ele>1085.95</ele>
        <time>2017-10-09T14:35:35Z</time>
      </trkpt>
      <trkpt lat="38.1698561646" lon="-2.7037244383">
        <ele>1085.95</ele>
        <time>2017-10-09T14:35:36Z</time>
      </trkpt>
      <trkpt lat="38.1698499620" lon="-2.7037421241">
        <ele>1085.95</ele>
        <time>2017-10-09T14:35:37Z</time>
      </trkpt>
      <trkpt lat="38.1698409934" lon="-2.7037583850">
        <ele>1085.95</ele>
        <time>2017-10-09T14:35:38Z</time>
      </trkpt>
      <trkpt lat="38.1698292587" lon="-2.7037738077">
        <ele>1086.43</ele>
        <time>2017-10-09T14:35:39Z</time>
      </trkpt>
      <trkpt lat="38.1698141713" lon="-2.7037821896">
        <ele>1086.43</ele>
        <time>2017-10-09T14:35:40Z</time>
      </trkpt>
      <trkpt lat="38.1697981618" lon="-2.7037893143">
        <ele>1086.43</ele>
        <time>2017-10-09T14:35:41Z</time>
      </trkpt>
      <trkpt lat="38.1697886903" lon="-2.7038039826">
        <ele>1086.91</ele>
        <time>2017-10-09T14:35:42Z</time>
      </trkpt>
      <trkpt lat="38.1697881874" lon="-2.7038275357">
        <ele>1086.91</ele>
        <time>2017-10-09T14:35:43Z</time>
      </trkpt>
      <trkpt lat="38.1697912049" lon="-2.7038491610">
        <ele>1086.91</ele>
        <time>2017-10-09T14:35:44Z</time>
      </trkpt>
      <trkpt lat="38.1697835773" lon="-2.7038633265">
        <ele>1086.91</ele>
        <time>2017-10-09T14:35:45Z</time>
      </trkpt>
      <trkpt lat="38.1697741058" lon="-2.7038773242">
        <ele>1087.39</ele>
        <time>2017-10-09T14:35:46Z</time>
      </trkpt>
      <trkpt lat="38.1697646342" lon="-2.7038944233">
        <ele>1087.39</ele>
        <time>2017-10-09T14:35:47Z</time>
      </trkpt>
      <trkpt lat="38.1697176117" lon="-2.7039392665">
        <ele>1087.87</ele>
        <time>2017-10-09T14:35:51Z</time>
      </trkpt>
      <trkpt lat="38.1697033625" lon="-2.7039359137">
        <ele>1087.87</ele>
        <time>2017-10-09T14:35:52Z</time>
      </trkpt>
      <trkpt lat="38.1696896162" lon="-2.7039388474">
        <ele>1088.35</ele>
        <time>2017-10-09T14:35:53Z</time>
      </trkpt>
      <trkpt lat="38.1696780492" lon="-2.7039517555">
        <ele>1088.35</ele>
        <time>2017-10-09T14:35:54Z</time>
      </trkpt>
      <trkpt lat="38.1696753670" lon="-2.7039681841">
        <ele>1088.35</ele>
        <time>2017-10-09T14:35:55Z</time>
      </trkpt>
      <trkpt lat="38.1696767919" lon="-2.7039887197">
        <ele>1088.35</ele>
        <time>2017-10-09T14:35:56Z</time>
      </trkpt>
      <trkpt lat="38.1696751155" lon="-2.7040102612">
        <ele>1088.83</ele>
        <time>2017-10-09T14:35:57Z</time>
      </trkpt>
      <trkpt lat="38.1696710084" lon="-2.7040314674">
        <ele>1088.83</ele>
        <time>2017-10-09T14:35:58Z</time>
      </trkpt>
      <trkpt lat="38.1696642190" lon="-2.7040533442">
        <ele>1088.83</ele>
        <time>2017-10-09T14:35:59Z</time>
      </trkpt>
      <trkpt lat="38.1696549989" lon="-2.7040718682">
        <ele>1088.83</ele>
        <time>2017-10-09T14:36:00Z</time>
      </trkpt>
      <trkpt lat="38.1696440186" lon="-2.7040878776">
        <ele>1088.83</ele>
        <time>2017-10-09T14:36:01Z</time>
      </trkpt>
      <trkpt lat="38.1696320325" lon="-2.7041033003">
        <ele>1088.83</ele>
        <time>2017-10-09T14:36:02Z</time>
      </trkpt>
      <trkpt lat="38.1695972476" lon="-2.7041460481">
        <ele>1089.31</ele>
        <time>2017-10-09T14:36:05Z</time>
      </trkpt>
      <trkpt lat="38.1695213914" lon="-2.7042674180">
        <ele>1089.79</ele>
        <time>2017-10-09T14:36:13Z</time>
      </trkpt>
      <trkpt lat="38.1695092376" lon="-2.7042816672">
        <ele>1090.27</ele>
        <time>2017-10-09T14:36:14Z</time>
      </trkpt>
      <trkpt lat="38.1694969162" lon="-2.7042971738">
        <ele>1090.27</ele>
        <time>2017-10-09T14:36:15Z</time>
      </trkpt>
      <trkpt lat="38.1694872770" lon="-2.7043152787">
        <ele>1090.27</ele>
        <time>2017-10-09T14:36:16Z</time>
      </trkpt>
      <trkpt lat="38.1694800686" lon="-2.7043355629">
        <ele>1090.27</ele>
        <time>2017-10-09T14:36:17Z</time>
      </trkpt>
      <trkpt lat="38.1694716867" lon="-2.7043550927">
        <ele>1090.75</ele>
        <time>2017-10-09T14:36:18Z</time>
      </trkpt>
      <trkpt lat="38.1694633886" lon="-2.7043749578">
        <ele>1090.75</ele>
        <time>2017-10-09T14:36:19Z</time>
      </trkpt>
      <trkpt lat="38.1694540009" lon="-2.7043943200">
        <ele>1090.75</ele>
        <time>2017-10-09T14:36:20Z</time>
      </trkpt>
      <trkpt lat="38.1694436911" lon="-2.7044139337">
        <ele>1090.75</ele>
        <time>2017-10-09T14:36:21Z</time>
      </trkpt>
      <trkpt lat="38.1693348940" lon="-2.7046434302">
        <ele>1091.71</ele>
        <time>2017-10-09T14:36:33Z</time>
      </trkpt>
      <trkpt lat="38.1692345627" lon="-2.7049114835">
        <ele>1092.68</ele>
        <time>2017-10-09T14:36:47Z</time>
      </trkpt>
      <trkpt lat="38.1691942457" lon="-2.7050338592">
        <ele>1093.16</ele>
        <time>2017-10-09T14:36:53Z</time>
      </trkpt>
      <trkpt lat="38.1691830140" lon="-2.7050450910">
        <ele>1093.16</ele>
        <time>2017-10-09T14:36:54Z</time>
      </trkpt>
      <trkpt lat="38.1691685971" lon="-2.7050557360">
        <ele>1093.64</ele>
        <time>2017-10-09T14:36:55Z</time>
      </trkpt>
      <trkpt lat="38.1691474747" lon="-2.7050865814">
        <ele>1093.64</ele>
        <time>2017-10-09T14:36:57Z</time>
      </trkpt>
      <trkpt lat="38.1691521686" lon="-2.7051092125">
        <ele>1093.64</ele>
        <time>2017-10-09T14:36:58Z</time>
      </trkpt>
      <trkpt lat="38.1691574492" lon="-2.7051330172">
        <ele>1093.64</ele>
        <time>2017-10-09T14:36:59Z</time>
      </trkpt>
      <trkpt lat="38.1691599637" lon="-2.7051566541">
        <ele>1093.64</ele>
        <time>2017-10-09T14:37:00Z</time>
      </trkpt>
      <trkpt lat="38.1691581197" lon="-2.7051796205">
        <ele>1093.64</ele>
        <time>2017-10-09T14:37:01Z</time>
      </trkpt>
      <trkpt lat="38.1691527553" lon="-2.7052006591">
        <ele>1093.64</ele>
        <time>2017-10-09T14:37:02Z</time>
      </trkpt>
      <trkpt lat="38.1691491511" lon="-2.7052223682">
        <ele>1094.12</ele>
        <time>2017-10-09T14:37:03Z</time>
      </trkpt>
      <trkpt lat="38.1691436190" lon="-2.7052428201">
        <ele>1094.12</ele>
        <time>2017-10-09T14:37:04Z</time>
      </trkpt>
      <trkpt lat="38.1691311300" lon="-2.7052569017">
        <ele>1094.12</ele>
        <time>2017-10-09T14:37:05Z</time>
      </trkpt>
      <trkpt lat="38.1691169646" lon="-2.7052689716">
        <ele>1094.12</ele>
        <time>2017-10-09T14:37:06Z</time>
      </trkpt>
      <trkpt lat="38.1691074092" lon="-2.7052857354">
        <ele>1094.60</ele>
        <time>2017-10-09T14:37:07Z</time>
      </trkpt>
      <trkpt lat="38.1691053975" lon="-2.7053074446">
        <ele>1094.60</ele>
        <time>2017-10-09T14:37:08Z</time>
      </trkpt>
      <trkpt lat="38.1691097561" lon="-2.7053315006">
        <ele>1094.60</ele>
        <time>2017-10-09T14:37:09Z</time>
      </trkpt>
      <trkpt lat="38.1691126060" lon="-2.7053558081">
        <ele>1094.60</ele>
        <time>2017-10-09T14:37:10Z</time>
      </trkpt>
      <trkpt lat="38.1691114325" lon="-2.7053796966">
        <ele>1095.56</ele>
        <time>2017-10-09T14:37:11Z</time>
      </trkpt>
      <trkpt lat="38.1691090856" lon="-2.7054016571">
        <ele>1095.08</ele>
        <time>2017-10-09T14:37:12Z</time>
      </trkpt>
      <trkpt lat="38.1691023801" lon="-2.7054388728">
        <ele>1091.23</ele>
        <time>2017-10-09T14:37:14Z</time>
      </trkpt>
      <trkpt lat="38.1690986082" lon="-2.7054558042">
        <ele>1094.12</ele>
        <time>2017-10-09T14:37:15Z</time>
      </trkpt>
      <trkpt lat="38.1690944172" lon="-2.7054736577">
        <ele>1098.92</ele>
        <time>2017-10-09T14:37:16Z</time>
      </trkpt>
      <trkpt lat="38.1690898910" lon="-2.7054924332">
        <ele>1095.08</ele>
        <time>2017-10-09T14:37:17Z</time>
      </trkpt>
      <trkpt lat="38.1690893881" lon="-2.7055728994">
        <ele>1095.56</ele>
        <time>2017-10-09T14:37:21Z</time>
      </trkpt>
      <trkpt lat="38.1690846104" lon="-2.7055918425">
        <ele>1095.56</ele>
        <time>2017-10-09T14:37:22Z</time>
      </trkpt>
      <trkpt lat="38.1690666731" lon="-2.7057679463">
        <ele>1096.52</ele>
        <time>2017-10-09T14:37:31Z</time>
      </trkpt>
      <trkpt lat="38.1690586265" lon="-2.7057875600">
        <ele>1097.00</ele>
        <time>2017-10-09T14:37:32Z</time>
      </trkpt>
      <trkpt lat="38.1690301280" lon="-2.7058378514">
        <ele>1097.00</ele>
        <time>2017-10-09T14:37:35Z</time>
      </trkpt>
      <trkpt lat="38.1690289546" lon="-2.7058580518">
        <ele>1097.00</ele>
        <time>2017-10-09T14:37:36Z</time>
      </trkpt>
      <trkpt lat="38.1690378394" lon="-2.7058731392">
        <ele>1097.00</ele>
        <time>2017-10-09T14:37:37Z</time>
      </trkpt>
      <trkpt lat="38.1690472271" lon="-2.7058870532">
        <ele>1097.48</ele>
        <time>2017-10-09T14:37:38Z</time>
      </trkpt>
      <trkpt lat="38.1690484844" lon="-2.7059045713">
        <ele>1097.00</ele>
        <time>2017-10-09T14:37:39Z</time>
      </trkpt>
      <trkpt lat="38.1690407731" lon="-2.7059209999">
        <ele>1097.48</ele>
        <time>2017-10-09T14:37:40Z</time>
      </trkpt>
      <trkpt lat="38.1690313853" lon="-2.7059378475">
        <ele>1097.48</ele>
        <time>2017-10-09T14:37:41Z</time>
      </trkpt>
      <trkpt lat="38.1690230872" lon="-2.7059563715">
        <ele>1097.48</ele>
        <time>2017-10-09T14:37:42Z</time>
      </trkpt>
      <trkpt lat="38.1690178905" lon="-2.7059766557">
        <ele>1097.48</ele>
        <time>2017-10-09T14:37:43Z</time>
      </trkpt>
      <trkpt lat="38.1690175552" lon="-2.7059969399">
        <ele>1097.48</ele>
        <time>2017-10-09T14:37:44Z</time>
      </trkpt>
      <trkpt lat="38.1690184772" lon="-2.7060171403">
        <ele>1097.48</ele>
        <time>2017-10-09T14:37:45Z</time>
      </trkpt>
      <trkpt lat="38.1690147892" lon="-2.7060365025">
        <ele>1097.96</ele>
        <time>2017-10-09T14:37:46Z</time>
      </trkpt>
      <trkpt lat="38.1690091733" lon="-2.7060553618">
        <ele>1097.96</ele>
        <time>2017-10-09T14:37:47Z</time>
      </trkpt>
      <trkpt lat="38.1690017134" lon="-2.7060734667">
        <ele>1097.96</ele>
        <time>2017-10-09T14:37:48Z</time>
      </trkpt>
      <trkpt lat="38.1689916551" lon="-2.7060884703">
        <ele>1097.96</ele>
        <time>2017-10-09T14:37:49Z</time>
      </trkpt>
      <trkpt lat="38.1689827703" lon="-2.7061059885">
        <ele>1097.96</ele>
        <time>2017-10-09T14:37:50Z</time>
      </trkpt>
      <trkpt lat="38.1689758133" lon="-2.7061247639">
        <ele>1097.96</ele>
        <time>2017-10-09T14:37:51Z</time>
      </trkpt>
      <trkpt lat="38.1689663418" lon="-2.7061420307">
        <ele>1098.44</ele>
        <time>2017-10-09T14:37:52Z</time>
      </trkpt>
      <trkpt lat="38.1689580437" lon="-2.7061613090">
        <ele>1098.44</ele>
        <time>2017-10-09T14:37:53Z</time>
      </trkpt>
      <trkpt lat="38.1689541042" lon="-2.7061817609">
        <ele>1098.44</ele>
        <time>2017-10-09T14:37:54Z</time>
      </trkpt>
      <trkpt lat="38.1689532660" lon="-2.7062016260">
        <ele>1098.44</ele>
        <time>2017-10-09T14:37:55Z</time>
      </trkpt>
      <trkpt lat="38.1689520925" lon="-2.7062198985">
        <ele>1098.92</ele>
        <time>2017-10-09T14:37:56Z</time>
      </trkpt>
      <trkpt lat="38.1689481530" lon="-2.7062369138">
        <ele>1098.92</ele>
        <time>2017-10-09T14:37:57Z</time>
      </trkpt>
      <trkpt lat="38.1689391006" lon="-2.7062538452">
        <ele>1098.92</ele>
        <time>2017-10-09T14:37:58Z</time>
      </trkpt>
      <trkpt lat="38.1689234264" lon="-2.7062654123">
        <ele>1098.92</ele>
        <time>2017-10-09T14:37:59Z</time>
      </trkpt>
      <trkpt lat="38.1689080875" lon="-2.7062767278">
        <ele>1098.92</ele>
        <time>2017-10-09T14:38:00Z</time>
      </trkpt>
      <trkpt lat="38.1688949279" lon="-2.7062925696">
        <ele>1099.40</ele>
        <time>2017-10-09T14:38:01Z</time>
      </trkpt>
      <trkpt lat="38.1688909885" lon="-2.7063130215">
        <ele>1099.40</ele>
        <time>2017-10-09T14:38:02Z</time>
      </trkpt>
      <trkpt lat="38.1688893121" lon="-2.7063374966">
        <ele>1099.40</ele>
        <time>2017-10-09T14:38:03Z</time>
      </trkpt>
      <trkpt lat="38.1688823551" lon="-2.7063618042">
        <ele>1099.89</ele>
        <time>2017-10-09T14:38:04Z</time>
      </trkpt>
      <trkpt lat="38.1688735541" lon="-2.7063820045">
        <ele>1099.89</ele>
        <time>2017-10-09T14:38:05Z</time>
      </trkpt>
      <trkpt lat="38.1688639149" lon="-2.7064026240">
        <ele>1099.89</ele>
        <time>2017-10-09T14:38:06Z</time>
      </trkpt>
      <trkpt lat="38.1688520126" lon="-2.7064219862">
        <ele>1099.89</ele>
        <time>2017-10-09T14:38:07Z</time>
      </trkpt>
      <trkpt lat="38.1688385177" lon="-2.7064389177">
        <ele>1099.89</ele>
        <time>2017-10-09T14:38:08Z</time>
      </trkpt>
      <trkpt lat="38.1687795091" lon="-2.7064861078">
        <ele>1100.37</ele>
        <time>2017-10-09T14:38:12Z</time>
      </trkpt>
      <trkpt lat="38.1687748153" lon="-2.7065058891">
        <ele>1100.37</ele>
        <time>2017-10-09T14:38:13Z</time>
      </trkpt>
      <trkpt lat="38.1687688641" lon="-2.7065246645">
        <ele>1100.37</ele>
        <time>2017-10-09T14:38:14Z</time>
      </trkpt>
      <trkpt lat="38.1687401142" lon="-2.7065742854">
        <ele>1100.37</ele>
        <time>2017-10-09T14:38:17Z</time>
      </trkpt>
      <trkpt lat="38.1687298045" lon="-2.7065898757">
        <ele>1100.85</ele>
        <time>2017-10-09T14:38:18Z</time>
      </trkpt>
      <trkpt lat="38.1687168125" lon="-2.7066054661">
        <ele>1100.37</ele>
        <time>2017-10-09T14:38:19Z</time>
      </trkpt>
      <trkpt lat="38.1687075086" lon="-2.7066229004">
        <ele>1100.37</ele>
        <time>2017-10-09T14:38:20Z</time>
      </trkpt>
      <trkpt lat="38.1686994620" lon="-2.7066429332">
        <ele>1100.85</ele>
        <time>2017-10-09T14:38:21Z</time>
      </trkpt>
      <trkpt lat="38.1686887331" lon="-2.7066616248">
        <ele>1100.85</ele>
        <time>2017-10-09T14:38:22Z</time>
      </trkpt>
      <trkpt lat="38.1686784234" lon="-2.7066801488">
        <ele>1100.85</ele>
        <time>2017-10-09T14:38:23Z</time>
      </trkpt>
      <trkpt lat="38.1686691195" lon="-2.7067000978">
        <ele>1100.37</ele>
        <time>2017-10-09T14:38:24Z</time>
      </trkpt>
      <trkpt lat="38.1685599033" lon="-2.7069864236">
        <ele>1100.85</ele>
        <time>2017-10-09T14:38:36Z</time>
      </trkpt>
      <trkpt lat="38.1684576441" lon="-2.7072930336">
        <ele>1100.37</ele>
        <time>2017-10-09T14:38:46Z</time>
      </trkpt>
      <trkpt lat="38.1684521958" lon="-2.7074249648">
        <ele>1099.40</ele>
        <time>2017-10-09T14:38:49Z</time>
      </trkpt>
      <trkpt lat="38.1685508508" lon="-2.7077752445">
        <ele>1097.48</ele>
        <time>2017-10-09T14:38:57Z</time>
      </trkpt>
      <trkpt lat="38.1685997173" lon="-2.7078718040">
        <ele>1095.56</ele>
        <time>2017-10-09T14:39:01Z</time>
      </trkpt>
      <trkpt lat="38.1685972866" lon="-2.7078923397">
        <ele>1096.04</ele>
        <time>2017-10-09T14:39:02Z</time>
      </trkpt>
      <trkpt lat="38.1685724761" lon="-2.7079629991">
        <ele>1095.08</ele>
        <time>2017-10-09T14:39:10Z</time>
      </trkpt>
      <trkpt lat="38.1685697101" lon="-2.7079560421">
        <ele>1095.08</ele>
        <time>2017-10-09T14:39:21Z</time>
      </trkpt>
      <trkpt lat="38.1685946882" lon="-2.7079593949">
        <ele>1094.60</ele>
        <time>2017-10-09T14:39:31Z</time>
      </trkpt>
      <trkpt lat="38.1685930956" lon="-2.7079733927">
        <ele>1094.60</ele>
        <time>2017-10-09T14:39:59Z</time>
      </trkpt>
      <trkpt lat="38.1686092727" lon="-2.7079619933">
        <ele>1094.60</ele>
        <time>2017-10-09T14:40:32Z</time>
      </trkpt>
      <trkpt lat="38.1686002202" lon="-2.7079648431">
        <ele>1094.60</ele>
        <time>2017-10-09T14:41:00Z</time>
      </trkpt>
      <trkpt lat="38.1686059199" lon="-2.7079544496">
        <ele>1094.60</ele>
        <time>2017-10-09T14:41:24Z</time>
      </trkpt>
      <trkpt lat="38.1685917545" lon="-2.7079565451">
        <ele>1094.12</ele>
        <time>2017-10-09T14:41:52Z</time>
      </trkpt>
      <trkpt lat="38.1685887370" lon="-2.7079448104">
        <ele>1094.12</ele>
        <time>2017-10-09T14:42:17Z</time>
      </trkpt>
      <trkpt lat="38.1685886532" lon="-2.7079609036">
        <ele>1094.12</ele>
        <time>2017-10-09T14:42:44Z</time>
      </trkpt>
      <trkpt lat="38.1685909163" lon="-2.7079635020">
        <ele>1094.12</ele>
        <time>2017-10-09T14:43:11Z</time>
      </trkpt>
      <trkpt lat="38.1685847137" lon="-2.7079552040">
        <ele>1093.64</ele>
        <time>2017-10-09T14:43:40Z</time>
      </trkpt>
      <trkpt lat="38.1685969513" lon="-2.7079446428">
        <ele>1094.12</ele>
        <time>2017-10-09T14:44:09Z</time>
      </trkpt>
      <trkpt lat="38.1685946882" lon="-2.7079478279">
        <ele>1093.64</ele>
        <time>2017-10-09T14:44:37Z</time>
      </trkpt>
      <trkpt lat="38.1686000526" lon="-2.7079525217">
        <ele>1093.64</ele>
        <time>2017-10-09T14:45:05Z</time>
      </trkpt>
      <trkpt lat="38.1685980409" lon="-2.7079523541">
        <ele>1093.64</ele>
        <time>2017-10-09T14:45:29Z</time>
      </trkpt>
      <trkpt lat="38.1686122064" lon="-2.7079515997">
        <ele>1093.64</ele>
        <time>2017-10-09T14:45:52Z</time>
      </trkpt>
      <trkpt lat="38.1686874758" lon="-2.7079068404">
        <ele>1093.16</ele>
        <time>2017-10-09T14:46:04Z</time>
      </trkpt>
      <trkpt lat="38.1687203329" lon="-2.7078939322">
        <ele>1094.12</ele>
        <time>2017-10-09T14:46:16Z</time>
      </trkpt>
      <trkpt lat="38.1687472388" lon="-2.7079132106">
        <ele>1093.64</ele>
        <time>2017-10-09T14:46:19Z</time>
      </trkpt>
      <trkpt lat="38.1688072532" lon="-2.7079500072">
        <ele>1092.68</ele>
        <time>2017-10-09T14:46:29Z</time>
      </trkpt>
      <trkpt lat="38.1688211672" lon="-2.7079683635">
        <ele>1091.71</ele>
        <time>2017-10-09T14:46:47Z</time>
      </trkpt>
      <trkpt lat="38.1688282918" lon="-2.7079807688">
        <ele>1091.71</ele>
        <time>2017-10-09T14:46:59Z</time>
      </trkpt>
      <trkpt lat="38.1689557806" lon="-2.7081136219">
        <ele>1090.27</ele>
        <time>2017-10-09T14:47:04Z</time>
      </trkpt>
      <trkpt lat="38.1689900625" lon="-2.7081484068">
        <ele>1090.27</ele>
        <time>2017-10-09T14:47:05Z</time>
      </trkpt>
      <trkpt lat="38.1690150406" lon="-2.7081939206">
        <ele>1090.27</ele>
        <time>2017-10-09T14:47:06Z</time>
      </trkpt>
      <trkpt lat="38.1690303795" lon="-2.7082510851">
        <ele>1089.79</ele>
        <time>2017-10-09T14:47:07Z</time>
      </trkpt>
      <trkpt lat="38.1690427847" lon="-2.7083139494">
        <ele>1089.79</ele>
        <time>2017-10-09T14:47:08Z</time>
      </trkpt>
      <trkpt lat="38.1690804195" lon="-2.7085274365">
        <ele>1088.83</ele>
        <time>2017-10-09T14:47:11Z</time>
      </trkpt>
      <trkpt lat="38.1691062357" lon="-2.7085996047">
        <ele>1088.83</ele>
        <time>2017-10-09T14:47:12Z</time>
      </trkpt>
      <trkpt lat="38.1691406853" lon="-2.7086654026">
        <ele>1088.83</ele>
        <time>2017-10-09T14:47:13Z</time>
      </trkpt>
      <trkpt lat="38.1691854447" lon="-2.7087224834">
        <ele>1087.87</ele>
        <time>2017-10-09T14:47:14Z</time>
      </trkpt>
      <trkpt lat="38.1692362390" lon="-2.7087775525">
        <ele>1087.39</ele>
        <time>2017-10-09T14:47:15Z</time>
      </trkpt>
      <trkpt lat="38.1695300248" lon="-2.7090930473">
        <ele>1084.02</ele>
        <time>2017-10-09T14:47:20Z</time>
      </trkpt>
      <trkpt lat="38.1695883628" lon="-2.7091692388">
        <ele>1083.54</ele>
        <time>2017-10-09T14:47:21Z</time>
      </trkpt>
      <trkpt lat="38.1696347985" lon="-2.7092533093">
        <ele>1082.58</ele>
        <time>2017-10-09T14:47:22Z</time>
      </trkpt>
      <trkpt lat="38.1696684938" lon="-2.7093460131">
        <ele>1081.62</ele>
        <time>2017-10-09T14:47:23Z</time>
      </trkpt>
      <trkpt lat="38.1696928013" lon="-2.7094435785">
        <ele>1081.14</ele>
        <time>2017-10-09T14:47:24Z</time>
      </trkpt>
      <trkpt lat="38.1697141752" lon="-2.7095422335">
        <ele>1080.18</ele>
        <time>2017-10-09T14:47:25Z</time>
      </trkpt>
      <trkpt lat="38.1697659753" lon="-2.7097459137">
        <ele>1078.26</ele>
        <time>2017-10-09T14:47:27Z</time>
      </trkpt>
      <trkpt lat="38.1698191166" lon="-2.7098309901">
        <ele>1077.29</ele>
        <time>2017-10-09T14:47:28Z</time>
      </trkpt>
      <trkpt lat="38.1698932126" lon="-2.7098922618">
        <ele>1075.85</ele>
        <time>2017-10-09T14:47:29Z</time>
      </trkpt>
      <trkpt lat="38.1699846592" lon="-2.7099263761">
        <ele>1074.89</ele>
        <time>2017-10-09T14:47:30Z</time>
      </trkpt>
      <trkpt lat="38.1700858288" lon="-2.7099308185">
        <ele>1073.45</ele>
        <time>2017-10-09T14:47:31Z</time>
      </trkpt>
      <trkpt lat="38.1701921951" lon="-2.7099092770">
        <ele>1072.01</ele>
        <time>2017-10-09T14:47:32Z</time>
      </trkpt>
      <trkpt lat="38.1703032553" lon="-2.7098661102">
        <ele>1071.05</ele>
        <time>2017-10-09T14:47:33Z</time>
      </trkpt>
      <trkpt lat="38.1704138964" lon="-2.7098081913">
        <ele>1069.12</ele>
        <time>2017-10-09T14:47:34Z</time>
      </trkpt>
      <trkpt lat="38.1709028967" lon="-2.7095620148">
        <ele>1066.72</ele>
        <time>2017-10-09T14:47:39Z</time>
      </trkpt>
      <trkpt lat="38.1709823571" lon="-2.7095611766">
        <ele>1067.20</ele>
        <time>2017-10-09T14:47:40Z</time>
      </trkpt>
      <trkpt lat="38.1710502505" lon="-2.7095847297">
        <ele>1067.20</ele>
        <time>2017-10-09T14:47:41Z</time>
      </trkpt>
      <trkpt lat="38.1711064093" lon="-2.7096237894">
        <ele>1068.16</ele>
        <time>2017-10-09T14:47:42Z</time>
      </trkpt>
      <trkpt lat="38.1711462233" lon="-2.7096712310">
        <ele>1069.12</ele>
        <time>2017-10-09T14:47:43Z</time>
      </trkpt>
      <trkpt lat="38.1711696927" lon="-2.7097208519">
        <ele>1070.08</ele>
        <time>2017-10-09T14:47:44Z</time>
      </trkpt>
      <trkpt lat="38.1711845286" lon="-2.7097646054">
        <ele>1070.57</ele>
        <time>2017-10-09T14:47:45Z</time>
      </trkpt>
      <trkpt lat="38.1711900607" lon="-2.7097992226">
        <ele>1071.53</ele>
        <time>2017-10-09T14:47:46Z</time>
      </trkpt>
      <trkpt lat="38.1711929943" lon="-2.7098313253">
        <ele>1071.53</ele>
        <time>2017-10-09T14:47:47Z</time>
      </trkpt>
      <trkpt lat="38.1711959280" lon="-2.7098612487">
        <ele>1072.01</ele>
        <time>2017-10-09T14:47:48Z</time>
      </trkpt>
      <trkpt lat="38.1711731292" lon="-2.7100119554">
        <ele>1072.97</ele>
        <time>2017-10-09T14:47:54Z</time>
      </trkpt>
      <trkpt lat="38.1710800063" lon="-2.7101635002">
        <ele>1074.41</ele>
        <time>2017-10-09T14:48:03Z</time>
      </trkpt>
      <trkpt lat="38.1710360851" lon="-2.7102981973">
        <ele>1074.41</ele>
        <time>2017-10-09T14:48:10Z</time>
      </trkpt>
      <trkpt lat="38.1710228417" lon="-2.7103128657">
        <ele>1074.41</ele>
        <time>2017-10-09T14:48:11Z</time>
      </trkpt>
      <trkpt lat="38.1709797587" lon="-2.7103551105">
        <ele>1075.37</ele>
        <time>2017-10-09T14:48:14Z</time>
      </trkpt>
      <trkpt lat="38.1709557027" lon="-2.7105374169">
        <ele>1076.81</ele>
        <time>2017-10-09T14:48:22Z</time>
      </trkpt>
      <trkpt lat="38.1709275395" lon="-2.7106923144">
        <ele>1077.78</ele>
        <time>2017-10-09T14:48:29Z</time>
      </trkpt>
      <trkpt lat="38.1709101889" lon="-2.7107281890">
        <ele>1078.74</ele>
        <time>2017-10-09T14:48:31Z</time>
      </trkpt>
      <trkpt lat="38.1708935928" lon="-2.7108557615">
        <ele>1079.70</ele>
        <time>2017-10-09T14:48:37Z</time>
      </trkpt>
      <trkpt lat="38.1708167307" lon="-2.7110851742">
        <ele>1081.62</ele>
        <time>2017-10-09T14:48:48Z</time>
      </trkpt>
      <trkpt lat="38.1708087679" lon="-2.7111028600">
        <ele>1081.62</ele>
        <time>2017-10-09T14:48:49Z</time>
      </trkpt>
      <trkpt lat="38.1707685348" lon="-2.7111896127">
        <ele>1083.06</ele>
        <time>2017-10-09T14:48:55Z</time>
      </trkpt>
      <trkpt lat="38.1707395334" lon="-2.7112150099">
        <ele>1083.06</ele>
        <time>2017-10-09T14:48:57Z</time>
      </trkpt>
      <trkpt lat="38.1706956122" lon="-2.7113132458">
        <ele>1084.02</ele>
        <time>2017-10-09T14:49:03Z</time>
      </trkpt>
      <trkpt lat="38.1706233602" lon="-2.7113944665">
        <ele>1084.99</ele>
        <time>2017-10-09T14:49:10Z</time>
      </trkpt>
      <trkpt lat="38.1705635134" lon="-2.7114165109">
        <ele>1085.95</ele>
        <time>2017-10-09T14:49:14Z</time>
      </trkpt>
      <trkpt lat="38.1703975517" lon="-2.7116161678">
        <ele>1087.39</ele>
        <time>2017-10-09T14:49:28Z</time>
      </trkpt>
      <trkpt lat="38.1702770200" lon="-2.7117740829">
        <ele>1089.31</ele>
        <time>2017-10-09T14:49:38Z</time>
      </trkpt>
      <trkpt lat="38.1702031754" lon="-2.7118592430">
        <ele>1090.27</ele>
        <time>2017-10-09T14:49:44Z</time>
      </trkpt>
      <trkpt lat="38.1701713242" lon="-2.7118816227">
        <ele>1090.75</ele>
        <time>2017-10-09T14:49:46Z</time>
      </trkpt>
      <trkpt lat="38.1700547319" lon="-2.7120285574">
        <ele>1092.20</ele>
        <time>2017-10-09T14:49:55Z</time>
      </trkpt>
      <trkpt lat="38.1699367147" lon="-2.7122032363">
        <ele>1093.64</ele>
        <time>2017-10-09T14:50:05Z</time>
      </trkpt>
      <trkpt lat="38.1698092259" lon="-2.7123453934">
        <ele>1095.56</ele>
        <time>2017-10-09T14:50:15Z</time>
      </trkpt>
      <trkpt lat="38.1697984971" lon="-2.7123626601">
        <ele>1096.04</ele>
        <time>2017-10-09T14:50:16Z</time>
      </trkpt>
      <trkpt lat="38.1696598604" lon="-2.7125302143">
        <ele>1097.48</ele>
        <time>2017-10-09T14:50:27Z</time>
      </trkpt>
      <trkpt lat="38.1695700902" lon="-2.7126383409">
        <ele>1098.92</ele>
        <time>2017-10-09T14:50:34Z</time>
      </trkpt>
      <trkpt lat="38.1695042085" lon="-2.7127397619">
        <ele>1100.37</ele>
        <time>2017-10-09T14:50:40Z</time>
      </trkpt>
      <trkpt lat="38.1694526598" lon="-2.7128352318">
        <ele>1101.33</ele>
        <time>2017-10-09T14:50:45Z</time>
      </trkpt>
      <trkpt lat="38.1694720220" lon="-2.7129963320">
        <ele>1102.77</ele>
        <time>2017-10-09T14:50:53Z</time>
      </trkpt>
      <trkpt lat="38.1694989279" lon="-2.7130979206">
        <ele>1103.73</ele>
        <time>2017-10-09T14:50:58Z</time>
      </trkpt>
      <trkpt lat="38.1695789751" lon="-2.7131934743">
        <ele>1106.13</ele>
        <time>2017-10-09T14:51:05Z</time>
      </trkpt>
      <trkpt lat="38.1697010994" lon="-2.7132636309">
        <ele>1106.61</ele>
        <time>2017-10-09T14:51:14Z</time>
      </trkpt>
      <trkpt lat="38.1698760297" lon="-2.7132425085">
        <ele>1108.06</ele>
        <time>2017-10-09T14:51:25Z</time>
      </trkpt>
      <trkpt lat="38.1699664705" lon="-2.7131711785">
        <ele>1109.02</ele>
        <time>2017-10-09T14:51:32Z</time>
      </trkpt>
      <trkpt lat="38.1700725015" lon="-2.7130293567">
        <ele>1110.46</ele>
        <time>2017-10-09T14:51:42Z</time>
      </trkpt>
      <trkpt lat="38.1701806281" lon="-2.7128896303">
        <ele>1111.42</ele>
        <time>2017-10-09T14:51:51Z</time>
      </trkpt>
      <trkpt lat="38.1702532154" lon="-2.7128460445">
        <ele>1111.90</ele>
        <time>2017-10-09T14:51:56Z</time>
      </trkpt>
      <trkpt lat="38.1703218631" lon="-2.7127004508">
        <ele>1112.86</ele>
        <time>2017-10-09T14:52:04Z</time>
      </trkpt>
      <trkpt lat="38.1704728212" lon="-2.7125158813">
        <ele>1114.31</ele>
        <time>2017-10-09T14:52:15Z</time>
      </trkpt>
      <trkpt lat="38.1706338376" lon="-2.7123520151">
        <ele>1116.23</ele>
        <time>2017-10-09T14:52:26Z</time>
      </trkpt>
      <trkpt lat="38.1706487574" lon="-2.7123417053">
        <ele>1116.23</ele>
        <time>2017-10-09T14:52:27Z</time>
      </trkpt>
      <trkpt lat="38.1707520224" lon="-2.7123436332">
        <ele>1117.19</ele>
        <time>2017-10-09T14:52:33Z</time>
      </trkpt>
      <trkpt lat="38.1708190776" lon="-2.7123484947">
        <ele>1118.15</ele>
        <time>2017-10-09T14:52:41Z</time>
      </trkpt>
      <trkpt lat="38.1708449777" lon="-2.7123223431">
        <ele>1118.63</ele>
        <time>2017-10-09T14:52:49Z</time>
      </trkpt>
      <trkpt lat="38.1708476599" lon="-2.7123355027">
        <ele>1118.63</ele>
        <time>2017-10-09T14:53:00Z</time>
      </trkpt>
      <trkpt lat="38.1708502583" lon="-2.7123335749">
        <ele>1118.63</ele>
        <time>2017-10-09T14:53:11Z</time>
      </trkpt>
      <trkpt lat="38.1708483305" lon="-2.7123391908">
        <ele>1122.48</ele>
        <time>2017-10-09T14:53:21Z</time>
      </trkpt>
      <trkpt lat="38.1708484143" lon="-2.7123404481">
        <ele>1118.63</ele>
        <time>2017-10-09T14:53:22Z</time>
      </trkpt>
      <trkpt lat="38.1708458997" lon="-2.7123420406">
        <ele>1115.27</ele>
        <time>2017-10-09T14:53:35Z</time>
      </trkpt>
      <trkpt lat="38.1708457321" lon="-2.7123417892">
        <ele>1121.03</ele>
        <time>2017-10-09T14:53:36Z</time>
      </trkpt>
      <trkpt lat="38.1708436366" lon="-2.7123411186">
        <ele>1117.67</ele>
        <time>2017-10-09T14:53:38Z</time>
      </trkpt>
      <trkpt lat="38.1708344165" lon="-2.7123381011">
        <ele>1118.15</ele>
        <time>2017-10-09T14:53:56Z</time>
      </trkpt>
      <trkpt lat="38.1708339136" lon="-2.7123324852">
        <ele>1118.15</ele>
        <time>2017-10-09T14:54:13Z</time>
      </trkpt>
      <trkpt lat="38.1708398648" lon="-2.7123338263">
        <ele>1118.15</ele>
        <time>2017-10-09T14:54:33Z</time>
      </trkpt>
      <trkpt lat="38.1708453968" lon="-2.7123275399">
        <ele>1118.15</ele>
        <time>2017-10-09T14:54:50Z</time>
      </trkpt>
      <trkpt lat="38.1708457321" lon="-2.7123307250">
        <ele>1118.63</ele>
        <time>2017-10-09T14:55:08Z</time>
      </trkpt>
      <trkpt lat="38.1708460674" lon="-2.7123288810">
        <ele>1118.15</ele>
        <time>2017-10-09T14:55:28Z</time>
      </trkpt>
      <trkpt lat="38.1708465703" lon="-2.7123431303">
        <ele>1117.67</ele>
        <time>2017-10-09T14:55:51Z</time>
      </trkpt>
      <trkpt lat="38.1708447263" lon="-2.7123524342">
        <ele>1117.67</ele>
        <time>2017-10-09T14:56:13Z</time>
      </trkpt>
      <trkpt lat="38.1708535273" lon="-2.7123529371">
        <ele>1117.67</ele>
        <time>2017-10-09T14:56:33Z</time>
      </trkpt>
      <trkpt lat="38.1708471570" lon="-2.7123517636">
        <ele>1117.67</ele>
        <time>2017-10-09T14:56:49Z</time>
      </trkpt>
      <trkpt lat="38.1708426308" lon="-2.7123471536">
        <ele>1117.67</ele>
        <time>2017-10-09T14:57:02Z</time>
      </trkpt>
      <trkpt lat="38.1708443072" lon="-2.7123433817">
        <ele>1117.67</ele>
        <time>2017-10-09T14:57:17Z</time>
      </trkpt>
      <trkpt lat="38.1709404476" lon="-2.7124377619">
        <ele>1118.15</ele>
        <time>2017-10-09T14:57:25Z</time>
      </trkpt>
      <trkpt lat="38.1710878853" lon="-2.7126173023">
        <ele>1119.59</ele>
        <time>2017-10-09T14:57:36Z</time>
      </trkpt>
      <trkpt lat="38.1710980274" lon="-2.7126351558">
        <ele>1120.07</ele>
        <time>2017-10-09T14:57:37Z</time>
      </trkpt>
      <trkpt lat="38.1711177249" lon="-2.7126706112">
        <ele>1120.07</ele>
        <time>2017-10-09T14:57:39Z</time>
      </trkpt>
      <trkpt lat="38.1711428706" lon="-2.7126893867">
        <ele>1120.55</ele>
        <time>2017-10-09T14:57:41Z</time>
      </trkpt>
      <trkpt lat="38.1711934973" lon="-2.7127771452">
        <ele>1121.03</ele>
        <time>2017-10-09T14:57:49Z</time>
      </trkpt>
      <trkpt lat="38.1712594628" lon="-2.7127395105">
        <ele>1121.52</ele>
        <time>2017-10-09T14:57:54Z</time>
      </trkpt>
      <trkpt lat="38.1712885480" lon="-2.7128062304">
        <ele>1121.52</ele>
        <time>2017-10-09T14:58:00Z</time>
      </trkpt>
      <trkpt lat="38.1713340618" lon="-2.7128545940">
        <ele>1122.48</ele>
        <time>2017-10-09T14:58:06Z</time>
      </trkpt>
      <trkpt lat="38.1713965070" lon="-2.7128524147">
        <ele>1122.96</ele>
        <time>2017-10-09T14:58:11Z</time>
      </trkpt>
      <trkpt lat="38.1714094989" lon="-2.7129804902">
        <ele>1123.44</ele>
        <time>2017-10-09T14:58:17Z</time>
      </trkpt>
      <trkpt lat="38.1714301184" lon="-2.7130398341">
        <ele>1124.40</ele>
        <time>2017-10-09T14:58:21Z</time>
      </trkpt>
      <trkpt lat="38.1714107562" lon="-2.7130800672">
        <ele>1123.92</ele>
        <time>2017-10-09T14:58:23Z</time>
      </trkpt>
      <trkpt lat="38.1714208983" lon="-2.7132264152">
        <ele>1124.88</ele>
        <time>2017-10-09T14:58:29Z</time>
      </trkpt>
      <trkpt lat="38.1713840179" lon="-2.7133493777">
        <ele>1124.88</ele>
        <time>2017-10-09T14:58:34Z</time>
      </trkpt>
      <trkpt lat="38.1713870354" lon="-2.7136736736">
        <ele>1126.32</ele>
        <time>2017-10-09T14:58:46Z</time>
      </trkpt>
      <trkpt lat="38.1714338902" lon="-2.7140674554">
        <ele>1126.80</ele>
        <time>2017-10-09T14:58:59Z</time>
      </trkpt>
      <trkpt lat="38.1714667473" lon="-2.7143785916">
        <ele>1126.80</ele>
        <time>2017-10-09T14:59:09Z</time>
      </trkpt>
      <trkpt lat="38.1715778913" lon="-2.7146583796">
        <ele>1126.80</ele>
        <time>2017-10-09T14:59:20Z</time>
      </trkpt>
      <trkpt lat="38.1716410909" lon="-2.7147348225">
        <ele>1126.80</ele>
        <time>2017-10-09T14:59:28Z</time>
      </trkpt>
      <trkpt lat="38.1716405042" lon="-2.7147387620">
        <ele>1126.32</ele>
        <time>2017-10-09T14:59:40Z</time>
      </trkpt>
      <trkpt lat="38.1716403365" lon="-2.7147354092">
        <ele>1126.32</ele>
        <time>2017-10-09T14:59:58Z</time>
      </trkpt>
      <trkpt lat="38.1716925558" lon="-2.7147945017">
        <ele>1126.32</ele>
        <time>2017-10-09T15:00:11Z</time>
      </trkpt>
      <trkpt lat="38.1718764547" lon="-2.7150962502">
        <ele>1124.88</ele>
        <time>2017-10-09T15:00:22Z</time>
      </trkpt>
      <trkpt lat="38.1718904525" lon="-2.7151468769">
        <ele>1124.88</ele>
        <time>2017-10-09T15:00:23Z</time>
      </trkpt>
      <trkpt lat="38.1719425879" lon="-2.7153327037">
        <ele>1123.92</ele>
        <time>2017-10-09T15:00:26Z</time>
      </trkpt>
      <trkpt lat="38.1719788816" lon="-2.7153974120">
        <ele>1123.44</ele>
        <time>2017-10-09T15:00:27Z</time>
      </trkpt>
      <trkpt lat="38.1720313523" lon="-2.7154523134">
        <ele>1122.48</ele>
        <time>2017-10-09T15:00:28Z</time>
      </trkpt>
      <trkpt lat="38.1720995810" lon="-2.7154924627">
        <ele>1121.52</ele>
        <time>2017-10-09T15:00:29Z</time>
      </trkpt>
      <trkpt lat="38.1721826456" lon="-2.7155072149">
        <ele>1121.03</ele>
        <time>2017-10-09T15:00:30Z</time>
      </trkpt>
      <trkpt lat="38.1722730864" lon="-2.7155023534">
        <ele>1120.07</ele>
        <time>2017-10-09T15:00:31Z</time>
      </trkpt>
      <trkpt lat="38.1723647844" lon="-2.7154955640">
        <ele>1119.11</ele>
        <time>2017-10-09T15:00:32Z</time>
      </trkpt>
      <trkpt lat="38.1724540517" lon="-2.7154943068">
        <ele>1118.15</ele>
        <time>2017-10-09T15:00:33Z</time>
      </trkpt>
      <trkpt lat="38.1726212706" lon="-2.7154826559">
        <ele>1116.23</ele>
        <time>2017-10-09T15:00:35Z</time>
      </trkpt>
      <trkpt lat="38.1726989709" lon="-2.7154471166">
        <ele>1115.27</ele>
        <time>2017-10-09T15:00:36Z</time>
      </trkpt>
      <trkpt lat="38.1727638468" lon="-2.7153938077">
        <ele>1114.31</ele>
        <time>2017-10-09T15:00:37Z</time>
      </trkpt>
      <trkpt lat="38.1728092767" lon="-2.7153299376">
        <ele>1113.34</ele>
        <time>2017-10-09T15:00:38Z</time>
      </trkpt>
      <trkpt lat="38.1728397869" lon="-2.7152682468">
        <ele>1112.38</ele>
        <time>2017-10-09T15:00:39Z</time>
      </trkpt>
      <trkpt lat="38.1728653517" lon="-2.7152088191">
        <ele>1111.90</ele>
        <time>2017-10-09T15:00:40Z</time>
      </trkpt>
      <trkpt lat="38.1729141343" lon="-2.7150790673">
        <ele>1109.98</ele>
        <time>2017-10-09T15:00:42Z</time>
      </trkpt>
      <trkpt lat="38.1729334965" lon="-2.7150079049">
        <ele>1109.50</ele>
        <time>2017-10-09T15:00:43Z</time>
      </trkpt>
      <trkpt lat="38.1730270386" lon="-2.7146739699">
        <ele>1106.13</ele>
        <time>2017-10-09T15:00:47Z</time>
      </trkpt>
      <trkpt lat="38.1730541959" lon="-2.7146008797">
        <ele>1105.17</ele>
        <time>2017-10-09T15:00:48Z</time>
      </trkpt>
      <trkpt lat="38.1730854604" lon="-2.7145398594">
        <ele>1104.69</ele>
        <time>2017-10-09T15:00:49Z</time>
      </trkpt>
      <trkpt lat="38.1731237657" lon="-2.7144942619">
        <ele>1103.73</ele>
        <time>2017-10-09T15:00:50Z</time>
      </trkpt>
      <trkpt lat="38.1731683575" lon="-2.7144595608">
        <ele>1103.73</ele>
        <time>2017-10-09T15:00:51Z</time>
      </trkpt>
      <trkpt lat="38.1732187327" lon="-2.7144280449">
        <ele>1102.77</ele>
        <time>2017-10-09T15:00:52Z</time>
      </trkpt>
      <trkpt lat="38.1732759811" lon="-2.7144033182">
        <ele>1102.29</ele>
        <time>2017-10-09T15:00:53Z</time>
      </trkpt>
      <trkpt lat="38.1733357441" lon="-2.7143964451">
        <ele>1101.33</ele>
        <time>2017-10-09T15:00:54Z</time>
      </trkpt>
      <trkpt lat="38.1733907294" lon="-2.7144064195">
        <ele>1100.37</ele>
        <time>2017-10-09T15:00:55Z</time>
      </trkpt>
      <trkpt lat="38.1734372489" lon="-2.7144266199">
        <ele>1099.89</ele>
        <time>2017-10-09T15:00:56Z</time>
      </trkpt>
      <trkpt lat="38.1734779850" lon="-2.7144534420">
        <ele>1099.40</ele>
        <time>2017-10-09T15:00:57Z</time>
      </trkpt>
      <trkpt lat="38.1735172123" lon="-2.7144907415">
        <ele>1099.40</ele>
        <time>2017-10-09T15:00:58Z</time>
      </trkpt>
      <trkpt lat="38.1735551823" lon="-2.7145407815">
        <ele>1098.92</ele>
        <time>2017-10-09T15:00:59Z</time>
      </trkpt>
      <trkpt lat="38.1735932361" lon="-2.7146022208">
        <ele>1097.48</ele>
        <time>2017-10-09T15:01:00Z</time>
      </trkpt>
      <trkpt lat="38.1736327149" lon="-2.7146755625">
        <ele>1096.52</ele>
        <time>2017-10-09T15:01:01Z</time>
      </trkpt>
      <trkpt lat="38.1737343874" lon="-2.7148353215">
        <ele>1095.08</ele>
        <time>2017-10-09T15:01:03Z</time>
      </trkpt>
      <trkpt lat="38.1738052145" lon="-2.7148998622">
        <ele>1094.60</ele>
        <time>2017-10-09T15:01:04Z</time>
      </trkpt>
      <trkpt lat="38.1738904584" lon="-2.7149424423">
        <ele>1093.16</ele>
        <time>2017-10-09T15:01:05Z</time>
      </trkpt>
      <trkpt lat="38.1739847548" lon="-2.7149597090">
        <ele>1091.71</ele>
        <time>2017-10-09T15:01:06Z</time>
      </trkpt>
      <trkpt lat="38.1740857568" lon="-2.7149644028">
        <ele>1090.75</ele>
        <time>2017-10-09T15:01:07Z</time>
      </trkpt>
      <trkpt lat="38.1741886027" lon="-2.7149739582">
        <ele>1090.27</ele>
        <time>2017-10-09T15:01:08Z</time>
      </trkpt>
      <trkpt lat="38.1746080332" lon="-2.7150737867">
        <ele>1086.91</ele>
        <time>2017-10-09T15:01:12Z</time>
      </trkpt>
      <trkpt lat="38.1748163234" lon="-2.7151576057">
        <ele>1085.95</ele>
        <time>2017-10-09T15:01:14Z</time>
      </trkpt>
      <trkpt lat="38.1752893142" lon="-2.7154254075">
        <ele>1083.06</ele>
        <time>2017-10-09T15:01:19Z</time>
      </trkpt>
      <trkpt lat="38.1756727025" lon="-2.7157453448">
        <ele>1082.10</ele>
        <time>2017-10-09T15:01:24Z</time>
      </trkpt>
      <trkpt lat="38.1757364888" lon="-2.7158144955">
        <ele>1082.10</ele>
        <time>2017-10-09T15:01:25Z</time>
      </trkpt>
      <trkpt lat="38.1758502312" lon="-2.7159570716">
        <ele>1082.10</ele>
        <time>2017-10-09T15:01:27Z</time>
      </trkpt>
      <trkpt lat="38.1759990100" lon="-2.7161629312">
        <ele>1082.10</ele>
        <time>2017-10-09T15:01:30Z</time>
      </trkpt>
      <trkpt lat="38.1760504749" lon="-2.7162201796">
        <ele>1082.10</ele>
        <time>2017-10-09T15:01:31Z</time>
      </trkpt>
      <trkpt lat="38.1764238887" lon="-2.7168946713">
        <ele>1082.10</ele>
        <time>2017-10-09T15:01:42Z</time>
      </trkpt>
      <trkpt lat="38.1764416583" lon="-2.7169616427">
        <ele>1082.10</ele>
        <time>2017-10-09T15:01:43Z</time>
      </trkpt>
      <trkpt lat="38.1766836438" lon="-2.7177781239">
        <ele>1081.62</ele>
        <time>2017-10-09T15:01:56Z</time>
      </trkpt>
      <trkpt lat="38.1767024193" lon="-2.7178377192">
        <ele>1081.62</ele>
        <time>2017-10-09T15:01:57Z</time>
      </trkpt>
      <trkpt lat="38.1767282356" lon="-2.7178945486">
        <ele>1081.62</ele>
        <time>2017-10-09T15:01:58Z</time>
      </trkpt>
      <trkpt lat="38.1770853046" lon="-2.7185114566">
        <ele>1081.14</ele>
        <time>2017-10-09T15:02:10Z</time>
      </trkpt>
      <trkpt lat="38.1774120312" lon="-2.7191444580">
        <ele>1081.62</ele>
        <time>2017-10-09T15:02:22Z</time>
      </trkpt>
      <trkpt lat="38.1774947606" lon="-2.7196942270">
        <ele>1081.14</ele>
        <time>2017-10-09T15:02:30Z</time>
      </trkpt>
      <trkpt lat="38.1773755699" lon="-2.7203339338">
        <ele>1080.18</ele>
        <time>2017-10-09T15:02:39Z</time>
      </trkpt>
      <trkpt lat="38.1771851331" lon="-2.7206963673">
        <ele>1079.22</ele>
        <time>2017-10-09T15:02:45Z</time>
      </trkpt>
      <trkpt lat="38.1771389488" lon="-2.7207473293">
        <ele>1079.22</ele>
        <time>2017-10-09T15:02:46Z</time>
      </trkpt>
      <trkpt lat="38.1767888367" lon="-2.7210918255">
        <ele>1077.29</ele>
        <time>2017-10-09T15:02:53Z</time>
      </trkpt>
      <trkpt lat="38.1767403893" lon="-2.7211493254">
        <ele>1077.29</ele>
        <time>2017-10-09T15:02:54Z</time>
      </trkpt>
      <trkpt lat="38.1766958814" lon="-2.7212116029">
        <ele>1077.29</ele>
        <time>2017-10-09T15:02:55Z</time>
      </trkpt>
      <trkpt lat="38.1766544748" lon="-2.7212802507">
        <ele>1076.81</ele>
        <time>2017-10-09T15:02:56Z</time>
      </trkpt>
      <trkpt lat="38.1766196061" lon="-2.7213556878">
        <ele>1076.81</ele>
        <time>2017-10-09T15:02:57Z</time>
      </trkpt>
      <trkpt lat="38.1765926164" lon="-2.7214366570">
        <ele>1076.33</ele>
        <time>2017-10-09T15:02:58Z</time>
      </trkpt>
      <trkpt lat="38.1765726674" lon="-2.7215217333">
        <ele>1076.33</ele>
        <time>2017-10-09T15:02:59Z</time>
      </trkpt>
      <trkpt lat="38.1765626930" lon="-2.7216135152">
        <ele>1075.85</ele>
        <time>2017-10-09T15:03:00Z</time>
      </trkpt>
      <trkpt lat="38.1765603460" lon="-2.7217093203">
        <ele>1075.85</ele>
        <time>2017-10-09T15:03:01Z</time>
      </trkpt>
      <trkpt lat="38.1765668839" lon="-2.7218067180">
        <ele>1075.37</ele>
        <time>2017-10-09T15:03:02Z</time>
      </trkpt>
      <trkpt lat="38.1765824743" lon="-2.7219049539">
        <ele>1074.89</ele>
        <time>2017-10-09T15:03:03Z</time>
      </trkpt>
      <trkpt lat="38.1766087096" lon="-2.7220028546">
        <ele>1074.41</ele>
        <time>2017-10-09T15:03:04Z</time>
      </trkpt>
      <trkpt lat="38.1766470149" lon="-2.7221005876">
        <ele>1073.93</ele>
        <time>2017-10-09T15:03:05Z</time>
      </trkpt>
      <trkpt lat="38.1766864937" lon="-2.7221987396">
        <ele>1072.97</ele>
        <time>2017-10-09T15:03:06Z</time>
      </trkpt>
      <trkpt lat="38.1767710671" lon="-2.7224769350">
        <ele>1071.05</ele>
        <time>2017-10-09T15:03:09Z</time>
      </trkpt>
      <trkpt lat="38.1767787784" lon="-2.7225731593">
        <ele>1070.57</ele>
        <time>2017-10-09T15:03:10Z</time>
      </trkpt>
      <trkpt lat="38.1767705642" lon="-2.7226764243">
        <ele>1070.08</ele>
        <time>2017-10-09T15:03:11Z</time>
      </trkpt>
      <trkpt lat="38.1767460052" lon="-2.7227816172">
        <ele>1068.64</ele>
        <time>2017-10-09T15:03:12Z</time>
      </trkpt>
      <trkpt lat="38.1767101306" lon="-2.7228771709">
        <ele>1068.64</ele>
        <time>2017-10-09T15:03:13Z</time>
      </trkpt>
      <trkpt lat="38.1766585819" lon="-2.7229587268">
        <ele>1067.68</ele>
        <time>2017-10-09T15:03:14Z</time>
      </trkpt>
      <trkpt lat="38.1765895151" lon="-2.7230272908">
        <ele>1065.76</ele>
        <time>2017-10-09T15:03:15Z</time>
      </trkpt>
      <trkpt lat="38.1765026785" lon="-2.7230765764">
        <ele>1064.32</ele>
        <time>2017-10-09T15:03:16Z</time>
      </trkpt>
      <trkpt lat="38.1764040235" lon="-2.7231058292">
        <ele>1063.36</ele>
        <time>2017-10-09T15:03:17Z</time>
      </trkpt>
      <trkpt lat="38.1763017643" lon="-2.7231106069">
        <ele>1062.39</ele>
        <time>2017-10-09T15:03:18Z</time>
      </trkpt>
      <trkpt lat="38.1762073003" lon="-2.7231010515">
        <ele>1061.43</ele>
        <time>2017-10-09T15:03:19Z</time>
      </trkpt>
      <trkpt lat="38.1761193741" lon="-2.7231008839">
        <ele>1060.47</ele>
        <time>2017-10-09T15:03:20Z</time>
      </trkpt>
      <trkpt lat="38.1760403328" lon="-2.7231210005">
        <ele>1059.51</ele>
        <time>2017-10-09T15:03:21Z</time>
      </trkpt>
      <trkpt lat="38.1759694219" lon="-2.7231637482">
        <ele>1058.07</ele>
        <time>2017-10-09T15:03:22Z</time>
      </trkpt>
      <trkpt lat="38.1759024505" lon="-2.7232300490">
        <ele>1057.11</ele>
        <time>2017-10-09T15:03:23Z</time>
      </trkpt>
      <trkpt lat="38.1758477166" lon="-2.7233227529">
        <ele>1056.15</ele>
        <time>2017-10-09T15:03:24Z</time>
      </trkpt>
      <trkpt lat="38.1758109201" lon="-2.7234420273">
        <ele>1055.18</ele>
        <time>2017-10-09T15:03:25Z</time>
      </trkpt>
      <trkpt lat="38.1757917255" lon="-2.7235765569">
        <ele>1053.74</ele>
        <time>2017-10-09T15:03:26Z</time>
      </trkpt>
      <trkpt lat="38.1757804099" lon="-2.7237172052">
        <ele>1052.78</ele>
        <time>2017-10-09T15:03:27Z</time>
      </trkpt>
      <trkpt lat="38.1757716928" lon="-2.7240186185">
        <ele>1050.38</ele>
        <time>2017-10-09T15:03:29Z</time>
      </trkpt>
      <trkpt lat="38.1757814996" lon="-2.7241708338">
        <ele>1048.45</ele>
        <time>2017-10-09T15:03:30Z</time>
      </trkpt>
      <trkpt lat="38.1758035440" lon="-2.7244424913">
        <ele>1046.53</ele>
        <time>2017-10-09T15:03:32Z</time>
      </trkpt>
      <trkpt lat="38.1757992692" lon="-2.7245652024">
        <ele>1045.57</ele>
        <time>2017-10-09T15:03:33Z</time>
      </trkpt>
      <trkpt lat="38.1757777277" lon="-2.7249210980">
        <ele>1042.21</ele>
        <time>2017-10-09T15:03:36Z</time>
      </trkpt>
      <trkpt lat="38.1757734530" lon="-2.7251096908">
        <ele>1040.28</ele>
        <time>2017-10-09T15:03:38Z</time>
      </trkpt>
      <trkpt lat="38.1757589523" lon="-2.7251940127">
        <ele>1039.80</ele>
        <time>2017-10-09T15:03:39Z</time>
      </trkpt>
      <trkpt lat="38.1757231615" lon="-2.7252741437">
        <ele>1037.88</ele>
        <time>2017-10-09T15:03:40Z</time>
      </trkpt>
      <trkpt lat="38.1756622251" lon="-2.7253408637">
        <ele>1036.92</ele>
        <time>2017-10-09T15:03:41Z</time>
      </trkpt>
      <trkpt lat="38.1755867880" lon="-2.7253830247">
        <ele>1036.44</ele>
        <time>2017-10-09T15:03:42Z</time>
      </trkpt>
      <trkpt lat="38.1755076628" lon="-2.7254066616">
        <ele>1035.48</ele>
        <time>2017-10-09T15:03:43Z</time>
      </trkpt>
      <trkpt lat="38.1754217483" lon="-2.7254262753">
        <ele>1034.52</ele>
        <time>2017-10-09T15:03:44Z</time>
      </trkpt>
      <trkpt lat="38.1753382646" lon="-2.7254746389">
        <ele>1033.55</ele>
        <time>2017-10-09T15:03:45Z</time>
      </trkpt>
      <trkpt lat="38.1752754003" lon="-2.7255647443">
        <ele>1032.59</ele>
        <time>2017-10-09T15:03:46Z</time>
      </trkpt>
      <trkpt lat="38.1752446387" lon="-2.7256727032">
        <ele>1031.63</ele>
        <time>2017-10-09T15:03:47Z</time>
      </trkpt>
      <trkpt lat="38.1752420403" lon="-2.7257787343">
        <ele>1030.67</ele>
        <time>2017-10-09T15:03:48Z</time>
      </trkpt>
      <trkpt lat="38.1752500869" lon="-2.7258718573">
        <ele>1029.71</ele>
        <time>2017-10-09T15:03:49Z</time>
      </trkpt>
      <trkpt lat="38.1752326526" lon="-2.7262189519">
        <ele>1027.31</ele>
        <time>2017-10-09T15:03:53Z</time>
      </trkpt>
      <trkpt lat="38.1752094347" lon="-2.7263201214">
        <ele>1026.34</ele>
        <time>2017-10-09T15:03:54Z</time>
      </trkpt>
      <trkpt lat="38.1751085166" lon="-2.7267734148">
        <ele>1022.98</ele>
        <time>2017-10-09T15:03:58Z</time>
      </trkpt>
      <trkpt lat="38.1751235202" lon="-2.7269009873">
        <ele>1022.02</ele>
        <time>2017-10-09T15:03:59Z</time>
      </trkpt>
      <trkpt lat="38.1751682796" lon="-2.7270156518">
        <ele>1021.06</ele>
        <time>2017-10-09T15:04:00Z</time>
      </trkpt>
      <trkpt lat="38.1752298027" lon="-2.7271093614">
        <ele>1020.10</ele>
        <time>2017-10-09T15:04:01Z</time>
      </trkpt>
      <trkpt lat="38.1752888951" lon="-2.7271882351">
        <ele>1019.62</ele>
        <time>2017-10-09T15:04:02Z</time>
      </trkpt>
      <trkpt lat="38.1753317267" lon="-2.7272603195">
        <ele>1019.13</ele>
        <time>2017-10-09T15:04:03Z</time>
      </trkpt>
      <trkpt lat="38.1753585488" lon="-2.7273284644">
        <ele>1018.17</ele>
        <time>2017-10-09T15:04:04Z</time>
      </trkpt>
      <trkpt lat="38.1753737200" lon="-2.7274016384">
        <ele>1017.21</ele>
        <time>2017-10-09T15:04:05Z</time>
      </trkpt>
      <trkpt lat="38.1753726304" lon="-2.7274850383">
        <ele>1016.73</ele>
        <time>2017-10-09T15:04:06Z</time>
      </trkpt>
      <trkpt lat="38.1753543578" lon="-2.7275706176">
        <ele>1016.25</ele>
        <time>2017-10-09T15:04:07Z</time>
      </trkpt>
      <trkpt lat="38.1753146276" lon="-2.7276498266">
        <ele>1015.77</ele>
        <time>2017-10-09T15:04:08Z</time>
      </trkpt>
      <trkpt lat="38.1752535235" lon="-2.7277092542">
        <ele>1015.29</ele>
        <time>2017-10-09T15:04:09Z</time>
      </trkpt>
      <trkpt lat="38.1751763262" lon="-2.7277370822">
        <ele>1014.81</ele>
        <time>2017-10-09T15:04:10Z</time>
      </trkpt>
      <trkpt lat="38.1750915013" lon="-2.7277330589">
        <ele>1013.85</ele>
        <time>2017-10-09T15:04:11Z</time>
      </trkpt>
      <trkpt lat="38.1750039943" lon="-2.7277130261">
        <ele>1013.37</ele>
        <time>2017-10-09T15:04:12Z</time>
      </trkpt>
      <trkpt lat="38.1749108713" lon="-2.7276940830">
        <ele>1012.41</ele>
        <time>2017-10-09T15:04:13Z</time>
      </trkpt>
      <trkpt lat="38.1748132221" lon="-2.7276983578">
        <ele>1011.44</ele>
        <time>2017-10-09T15:04:14Z</time>
      </trkpt>
      <trkpt lat="38.1747154053" lon="-2.7277302090">
        <ele>1010.96</ele>
        <time>2017-10-09T15:04:15Z</time>
      </trkpt>
      <trkpt lat="38.1746245455" lon="-2.7277876250">
        <ele>1010.48</ele>
        <time>2017-10-09T15:04:16Z</time>
      </trkpt>
      <trkpt lat="38.1745481025" lon="-2.7278760541">
        <ele>1009.52</ele>
        <time>2017-10-09T15:04:17Z</time>
      </trkpt>
      <trkpt lat="38.1744922791" lon="-2.7279783133">
        <ele>1008.56</ele>
        <time>2017-10-09T15:04:18Z</time>
      </trkpt>
      <trkpt lat="38.1744435802" lon="-2.7280584443">
        <ele>1008.56</ele>
        <time>2017-10-09T15:04:19Z</time>
      </trkpt>
      <trkpt lat="38.1743896008" lon="-2.7281119209">
        <ele>1008.08</ele>
        <time>2017-10-09T15:04:20Z</time>
      </trkpt>
      <trkpt lat="38.1743298378" lon="-2.7281543333">
        <ele>1007.60</ele>
        <time>2017-10-09T15:04:21Z</time>
      </trkpt>
      <trkpt lat="38.1742666382" lon="-2.7281943150">
        <ele>1006.64</ele>
        <time>2017-10-09T15:04:22Z</time>
      </trkpt>
      <trkpt lat="38.1742112339" lon="-2.7282388229">
        <ele>1006.16</ele>
        <time>2017-10-09T15:04:23Z</time>
      </trkpt>
      <trkpt lat="38.1741656363" lon="-2.7282995917">
        <ele>1005.68</ele>
        <time>2017-10-09T15:04:24Z</time>
      </trkpt>
      <trkpt lat="38.1741355453" lon="-2.7283788845">
        <ele>1005.20</ele>
        <time>2017-10-09T15:04:25Z</time>
      </trkpt>
      <trkpt lat="38.1741298456" lon="-2.7284767851">
        <ele>1004.23</ele>
        <time>2017-10-09T15:04:26Z</time>
      </trkpt>
      <trkpt lat="38.1741575059" lon="-2.7285797987">
        <ele>1003.27</ele>
        <time>2017-10-09T15:04:27Z</time>
      </trkpt>
      <trkpt lat="38.1742124073" lon="-2.7286614385">
        <ele>1002.31</ele>
        <time>2017-10-09T15:04:28Z</time>
      </trkpt>
      <trkpt lat="38.1742789596" lon="-2.7287078742">
        <ele>1001.35</ele>
        <time>2017-10-09T15:04:29Z</time>
      </trkpt>
      <trkpt lat="38.1743441708" lon="-2.7287184354">
        <ele>1000.87</ele>
        <time>2017-10-09T15:04:30Z</time>
      </trkpt>
      <trkpt lat="38.1744077057" lon="-2.7287027612">
        <ele>999.91</ele>
        <time>2017-10-09T15:04:31Z</time>
      </trkpt>
      <trkpt lat="38.1744698156" lon="-2.7286651265">
        <ele>999.43</ele>
        <time>2017-10-09T15:04:32Z</time>
      </trkpt>
      <trkpt lat="38.1745253876" lon="-2.7286062855">
        <ele>998.95</ele>
        <time>2017-10-09T15:04:33Z</time>
      </trkpt>
      <trkpt lat="38.1745736673" lon="-2.7285377216">
        <ele>997.99</ele>
        <time>2017-10-09T15:04:34Z</time>
      </trkpt>
      <trkpt lat="38.1746615097" lon="-2.7284243982">
        <ele>997.02</ele>
        <time>2017-10-09T15:04:36Z</time>
      </trkpt>
      <trkpt lat="38.1747030001" lon="-2.7283953968">
        <ele>996.06</ele>
        <time>2017-10-09T15:04:37Z</time>
      </trkpt>
      <trkpt lat="38.1747490168" lon="-2.7283794712">
        <ele>995.58</ele>
        <time>2017-10-09T15:04:38Z</time>
      </trkpt>
      <trkpt lat="38.1749248691" lon="-2.7283324488">
        <ele>993.66</ele>
        <time>2017-10-09T15:04:45Z</time>
      </trkpt>
      <trkpt lat="38.1749556307" lon="-2.7283209655">
        <ele>992.70</ele>
        <time>2017-10-09T15:04:55Z</time>
      </trkpt>
      <trkpt lat="38.1749513559" lon="-2.7283120807">
        <ele>988.85</ele>
        <time>2017-10-09T15:05:10Z</time>
      </trkpt>
      <trkpt lat="38.1749508530" lon="-2.7283118293">
        <ele>993.18</ele>
        <time>2017-10-09T15:05:11Z</time>
      </trkpt>
      <trkpt lat="38.1749500148" lon="-2.7283112425">
        <ele>989.33</ele>
        <time>2017-10-09T15:05:14Z</time>
      </trkpt>
      <trkpt lat="38.1749497633" lon="-2.7283111587">
        <ele>997.51</ele>
        <time>2017-10-09T15:05:15Z</time>
      </trkpt>
      <trkpt lat="38.1749496795" lon="-2.7283113264">
        <ele>992.22</ele>
        <time>2017-10-09T15:05:16Z</time>
      </trkpt>
      <trkpt lat="38.1749844644" lon="-2.7282964066">
        <ele>992.22</ele>
        <time>2017-10-09T15:05:31Z</time>
      </trkpt>
      <trkpt lat="38.1749967858" lon="-2.7282897010">
        <ele>992.22</ele>
        <time>2017-10-09T15:05:32Z</time>
      </trkpt>
      <trkpt lat="38.1750180759" lon="-2.7282888629">
        <ele>992.22</ele>
        <time>2017-10-09T15:05:33Z</time>
      </trkpt>
      <trkpt lat="38.1750870589" lon="-2.7282915451">
        <ele>991.74</ele>
        <time>2017-10-09T15:05:35Z</time>
      </trkpt>
      <trkpt lat="38.1753885560" lon="-2.7282524854">
        <ele>988.37</ele>
        <time>2017-10-09T15:05:40Z</time>
      </trkpt>
      <trkpt lat="38.1757192221" lon="-2.7282269206">
        <ele>985.01</ele>
        <time>2017-10-09T15:05:44Z</time>
      </trkpt>
      <trkpt lat="38.1757976767" lon="-2.7282144316">
        <ele>985.01</ele>
        <time>2017-10-09T15:05:45Z</time>
      </trkpt>
      <trkpt lat="38.1758720241" lon="-2.7281917166">
        <ele>984.05</ele>
        <time>2017-10-09T15:05:46Z</time>
      </trkpt>
      <trkpt lat="38.1759411748" lon="-2.7281370666">
        <ele>981.64</ele>
        <time>2017-10-09T15:05:47Z</time>
      </trkpt>
      <trkpt lat="38.1759955734" lon="-2.7280548401">
        <ele>980.68</ele>
        <time>2017-10-09T15:05:48Z</time>
      </trkpt>
      <trkpt lat="38.1760246586" lon="-2.7279537544">
        <ele>979.24</ele>
        <time>2017-10-09T15:05:49Z</time>
      </trkpt>
      <trkpt lat="38.1760318670" lon="-2.7278421074">
        <ele>978.28</ele>
        <time>2017-10-09T15:05:50Z</time>
      </trkpt>
      <trkpt lat="38.1760295201" lon="-2.7277287003">
        <ele>977.32</ele>
        <time>2017-10-09T15:05:51Z</time>
      </trkpt>
      <trkpt lat="38.1760389917" lon="-2.7276253514">
        <ele>976.36</ele>
        <time>2017-10-09T15:05:52Z</time>
      </trkpt>
      <trkpt lat="38.1760741118" lon="-2.7275390178">
        <ele>975.88</ele>
        <time>2017-10-09T15:05:53Z</time>
      </trkpt>
      <trkpt lat="38.1761389039" lon="-2.7274731360">
        <ele>974.91</ele>
        <time>2017-10-09T15:05:54Z</time>
      </trkpt>
      <trkpt lat="38.1762239803" lon="-2.7274299692">
        <ele>973.47</ele>
        <time>2017-10-09T15:05:55Z</time>
      </trkpt>
      <trkpt lat="38.1763185281" lon="-2.7274158876">
        <ele>972.51</ele>
        <time>2017-10-09T15:05:56Z</time>
      </trkpt>
      <trkpt lat="38.1764160935" lon="-2.7274326514">
        <ele>971.55</ele>
        <time>2017-10-09T15:05:57Z</time>
      </trkpt>
      <trkpt lat="38.1765185203" lon="-2.7274430450">
        <ele>970.59</ele>
        <time>2017-10-09T15:05:58Z</time>
      </trkpt>
      <trkpt lat="38.1766243000" lon="-2.7274070028">
        <ele>969.63</ele>
        <time>2017-10-09T15:05:59Z</time>
      </trkpt>
      <trkpt lat="38.1767256372" lon="-2.7273324877">
        <ele>967.70</ele>
        <time>2017-10-09T15:06:00Z</time>
      </trkpt>
      <trkpt lat="38.1768315844" lon="-2.7272634208">
        <ele>966.26</ele>
        <time>2017-10-09T15:06:01Z</time>
      </trkpt>
      <trkpt lat="38.1769484282" lon="-2.7272234391">
        <ele>964.82</ele>
        <time>2017-10-09T15:06:02Z</time>
      </trkpt>
      <trkpt lat="38.1770708878" lon="-2.7271988802">
        <ele>963.38</ele>
        <time>2017-10-09T15:06:03Z</time>
      </trkpt>
      <trkpt lat="38.1771912519" lon="-2.7271842957">
        <ele>961.94</ele>
        <time>2017-10-09T15:06:04Z</time>
      </trkpt>
      <trkpt lat="38.1773050781" lon="-2.7271793503">
        <ele>960.49</ele>
        <time>2017-10-09T15:06:05Z</time>
      </trkpt>
      <trkpt lat="38.1774127018" lon="-2.7271784283">
        <ele>959.53</ele>
        <time>2017-10-09T15:06:06Z</time>
      </trkpt>
      <trkpt lat="38.1775158830" lon="-2.7271707170">
        <ele>958.09</ele>
        <time>2017-10-09T15:06:07Z</time>
      </trkpt>
      <trkpt lat="38.1776120234" lon="-2.7271478344">
        <ele>957.61</ele>
        <time>2017-10-09T15:06:08Z</time>
      </trkpt>
      <trkpt lat="38.1777052302" lon="-2.7271146420">
        <ele>956.17</ele>
        <time>2017-10-09T15:06:09Z</time>
      </trkpt>
      <trkpt lat="38.1777955033" lon="-2.7270642668">
        <ele>955.21</ele>
        <time>2017-10-09T15:06:10Z</time>
      </trkpt>
      <trkpt lat="38.1778736226" lon="-2.7269779332">
        <ele>952.80</ele>
        <time>2017-10-09T15:06:11Z</time>
      </trkpt>
      <trkpt lat="38.1779381633" lon="-2.7268665377">
        <ele>951.36</ele>
        <time>2017-10-09T15:06:12Z</time>
      </trkpt>
      <trkpt lat="38.1780067272" lon="-2.7267542202">
        <ele>949.44</ele>
        <time>2017-10-09T15:06:13Z</time>
      </trkpt>
      <trkpt lat="38.1780953240" lon="-2.7266693953">
        <ele>948.00</ele>
        <time>2017-10-09T15:06:14Z</time>
      </trkpt>
      <trkpt lat="38.1782024447" lon="-2.7266229596">
        <ele>946.07</ele>
        <time>2017-10-09T15:06:15Z</time>
      </trkpt>
      <trkpt lat="38.1783190370" lon="-2.7265984844">
        <ele>945.59</ele>
        <time>2017-10-09T15:06:16Z</time>
      </trkpt>
      <trkpt lat="38.1784321088" lon="-2.7265537251">
        <ele>944.15</ele>
        <time>2017-10-09T15:06:17Z</time>
      </trkpt>
      <trkpt lat="38.1785367150" lon="-2.7264730912">
        <ele>942.71</ele>
        <time>2017-10-09T15:06:18Z</time>
      </trkpt>
      <trkpt lat="38.1787367072" lon="-2.7262864262">
        <ele>939.35</ele>
        <time>2017-10-09T15:06:20Z</time>
      </trkpt>
      <trkpt lat="38.1788392179" lon="-2.7262206282">
        <ele>937.90</ele>
        <time>2017-10-09T15:06:21Z</time>
      </trkpt>
      <trkpt lat="38.1789480150" lon="-2.7261837479">
        <ele>936.46</ele>
        <time>2017-10-09T15:06:22Z</time>
      </trkpt>
      <trkpt lat="38.1790630985" lon="-2.7261772938">
        <ele>935.02</ele>
        <time>2017-10-09T15:06:23Z</time>
      </trkpt>
      <trkpt lat="38.1791827921" lon="-2.7261770424">
        <ele>934.06</ele>
        <time>2017-10-09T15:06:24Z</time>
      </trkpt>
      <trkpt lat="38.1793034915" lon="-2.7261627093">
        <ele>933.10</ele>
        <time>2017-10-09T15:06:25Z</time>
      </trkpt>
      <trkpt lat="38.1794206705" lon="-2.7261558361">
        <ele>931.65</ele>
        <time>2017-10-09T15:06:26Z</time>
      </trkpt>
      <trkpt lat="38.1795284618" lon="-2.7261690795">
        <ele>930.69</ele>
        <time>2017-10-09T15:06:27Z</time>
      </trkpt>
      <trkpt lat="38.1796331517" lon="-2.7261886094">
        <ele>929.25</ele>
        <time>2017-10-09T15:06:28Z</time>
      </trkpt>
      <trkpt lat="38.1798407715" lon="-2.7261953987">
        <ele>927.81</ele>
        <time>2017-10-09T15:06:30Z</time>
      </trkpt>
      <trkpt lat="38.1799349841" lon="-2.7261578478">
        <ele>926.37</ele>
        <time>2017-10-09T15:06:31Z</time>
      </trkpt>
      <trkpt lat="38.1800168753" lon="-2.7261044551">
        <ele>924.93</ele>
        <time>2017-10-09T15:06:32Z</time>
      </trkpt>
      <trkpt lat="38.1802244112" lon="-2.7259792294">
        <ele>922.04</ele>
        <time>2017-10-09T15:06:35Z</time>
      </trkpt>
      <trkpt lat="38.1802863535" lon="-2.7259666566">
        <ele>920.60</ele>
        <time>2017-10-09T15:06:36Z</time>
      </trkpt>
      <trkpt lat="38.1803416740" lon="-2.7259731106">
        <ele>920.60</ele>
        <time>2017-10-09T15:06:37Z</time>
      </trkpt>
      <trkpt lat="38.1803931389" lon="-2.7259954065">
        <ele>919.64</ele>
        <time>2017-10-09T15:06:38Z</time>
      </trkpt>
      <trkpt lat="38.1804357190" lon="-2.7260296047">
        <ele>919.64</ele>
        <time>2017-10-09T15:06:39Z</time>
      </trkpt>
      <trkpt lat="38.1804652233" lon="-2.7260681614">
        <ele>917.24</ele>
        <time>2017-10-09T15:06:40Z</time>
      </trkpt>
      <trkpt lat="38.1804876029" lon="-2.7261112444">
        <ele>919.16</ele>
        <time>2017-10-09T15:06:41Z</time>
      </trkpt>
      <trkpt lat="38.1805067137" lon="-2.7261588536">
        <ele>918.20</ele>
        <time>2017-10-09T15:06:42Z</time>
      </trkpt>
      <trkpt lat="38.1805194542" lon="-2.7262160182">
        <ele>918.68</ele>
        <time>2017-10-09T15:06:43Z</time>
      </trkpt>
      <trkpt lat="38.1805237290" lon="-2.7262854204">
        <ele>917.24</ele>
        <time>2017-10-09T15:06:44Z</time>
      </trkpt>
      <trkpt lat="38.1805218011" lon="-2.7263553254">
        <ele>916.75</ele>
        <time>2017-10-09T15:06:45Z</time>
      </trkpt>
      <trkpt lat="38.1805183645" lon="-2.7264171839">
        <ele>916.27</ele>
        <time>2017-10-09T15:06:46Z</time>
      </trkpt>
      <trkpt lat="38.1804947276" lon="-2.7265935391">
        <ele>914.83</ele>
        <time>2017-10-09T15:06:50Z</time>
      </trkpt>
      <trkpt lat="38.1804497167" lon="-2.7268310823">
        <ele>912.43</ele>
        <time>2017-10-09T15:06:55Z</time>
      </trkpt>
      <trkpt lat="38.1803973299" lon="-2.7271722257">
        <ele>910.51</ele>
        <time>2017-10-09T15:07:04Z</time>
      </trkpt>
      <trkpt lat="38.1803780515" lon="-2.7273053303">
        <ele>909.54</ele>
        <time>2017-10-09T15:07:06Z</time>
      </trkpt>
      <trkpt lat="38.1803441048" lon="-2.7275494114">
        <ele>908.10</ele>
        <time>2017-10-09T15:07:09Z</time>
      </trkpt>
      <trkpt lat="38.1803519838" lon="-2.7276400197">
        <ele>907.62</ele>
        <time>2017-10-09T15:07:10Z</time>
      </trkpt>
      <trkpt lat="38.1803839188" lon="-2.7277308796">
        <ele>907.62</ele>
        <time>2017-10-09T15:07:11Z</time>
      </trkpt>
      <trkpt lat="38.1804363057" lon="-2.7278084960">
        <ele>906.66</ele>
        <time>2017-10-09T15:07:12Z</time>
      </trkpt>
      <trkpt lat="38.1805104017" lon="-2.7278561890">
        <ele>906.66</ele>
        <time>2017-10-09T15:07:13Z</time>
      </trkpt>
      <trkpt lat="38.1805970706" lon="-2.7278590389">
        <ele>905.70</ele>
        <time>2017-10-09T15:07:14Z</time>
      </trkpt>
      <trkpt lat="38.1806840748" lon="-2.7278059814">
        <ele>905.70</ele>
        <time>2017-10-09T15:07:15Z</time>
      </trkpt>
      <trkpt lat="38.1807910278" lon="-2.7274754830">
        <ele>902.82</ele>
        <time>2017-10-09T15:07:18Z</time>
      </trkpt>
      <trkpt lat="38.1807769462" lon="-2.7273506764">
        <ele>902.33</ele>
        <time>2017-10-09T15:07:19Z</time>
      </trkpt>
      <trkpt lat="38.1807631999" lon="-2.7272257023">
        <ele>901.37</ele>
        <time>2017-10-09T15:07:20Z</time>
      </trkpt>
      <trkpt lat="38.1807630323" lon="-2.7271007281">
        <ele>901.37</ele>
        <time>2017-10-09T15:07:21Z</time>
      </trkpt>
      <trkpt lat="38.1807890162" lon="-2.7269820403">
        <ele>900.41</ele>
        <time>2017-10-09T15:07:22Z</time>
      </trkpt>
      <trkpt lat="38.1808449235" lon="-2.7268815413">
        <ele>899.93</ele>
        <time>2017-10-09T15:07:23Z</time>
      </trkpt>
      <trkpt lat="38.1809274014" lon="-2.7268075291">
        <ele>899.93</ele>
        <time>2017-10-09T15:07:24Z</time>
      </trkpt>
      <trkpt lat="38.1810251344" lon="-2.7267631050">
        <ele>898.97</ele>
        <time>2017-10-09T15:07:25Z</time>
      </trkpt>
      <trkpt lat="38.1811322551" lon="-2.7267406415">
        <ele>898.49</ele>
        <time>2017-10-09T15:07:26Z</time>
      </trkpt>
      <trkpt lat="38.1812439859" lon="-2.7267237101">
        <ele>897.53</ele>
        <time>2017-10-09T15:07:27Z</time>
      </trkpt>
      <trkpt lat="38.1814838760" lon="-2.7266944572">
        <ele>894.16</ele>
        <time>2017-10-09T15:07:29Z</time>
      </trkpt>
      <trkpt lat="38.1818722934" lon="-2.7266410645">
        <ele>890.32</ele>
        <time>2017-10-09T15:07:32Z</time>
      </trkpt>
      <trkpt lat="38.1820105109" lon="-2.7266443335">
        <ele>888.88</ele>
        <time>2017-10-09T15:07:33Z</time>
      </trkpt>
      <trkpt lat="38.1824062206" lon="-2.7266934514">
        <ele>884.55</ele>
        <time>2017-10-09T15:07:36Z</time>
      </trkpt>
      <trkpt lat="38.1825409178" lon="-2.7266973071">
        <ele>883.11</ele>
        <time>2017-10-09T15:07:37Z</time>
      </trkpt>
      <trkpt lat="38.1826768722" lon="-2.7266748436">
        <ele>881.67</ele>
        <time>2017-10-09T15:07:38Z</time>
      </trkpt>
      <trkpt lat="38.1828063726" lon="-2.7266232949">
        <ele>880.22</ele>
        <time>2017-10-09T15:07:39Z</time>
      </trkpt>
      <trkpt lat="38.1829209533" lon="-2.7265461814">
        <ele>878.78</ele>
        <time>2017-10-09T15:07:40Z</time>
      </trkpt>
      <trkpt lat="38.1830180995" lon="-2.7264570817">
        <ele>877.82</ele>
        <time>2017-10-09T15:07:41Z</time>
      </trkpt>
      <trkpt lat="38.1831015833" lon="-2.7263632044">
        <ele>876.86</ele>
        <time>2017-10-09T15:07:42Z</time>
      </trkpt>
      <trkpt lat="38.1831771880" lon="-2.7262671478">
        <ele>875.42</ele>
        <time>2017-10-09T15:07:43Z</time>
      </trkpt>
      <trkpt lat="38.1832502782" lon="-2.7261777967">
        <ele>874.46</ele>
        <time>2017-10-09T15:07:44Z</time>
      </trkpt>
      <trkpt lat="38.1833278947" lon="-2.7261101548">
        <ele>873.50</ele>
        <time>2017-10-09T15:07:45Z</time>
      </trkpt>
      <trkpt lat="38.1834089477" lon="-2.7260733582">
        <ele>872.53</ele>
        <time>2017-10-09T15:07:46Z</time>
      </trkpt>
      <trkpt lat="38.1834925991" lon="-2.7260674909">
        <ele>871.57</ele>
        <time>2017-10-09T15:07:47Z</time>
      </trkpt>
      <trkpt lat="38.1835757475" lon="-2.7261002641">
        <ele>870.61</ele>
        <time>2017-10-09T15:07:48Z</time>
      </trkpt>
      <trkpt lat="38.1836453173" lon="-2.7261723485">
        <ele>870.13</ele>
        <time>2017-10-09T15:07:49Z</time>
      </trkpt>
      <trkpt lat="38.1836769171" lon="-2.7265139110">
        <ele>865.80</ele>
        <time>2017-10-09T15:07:52Z</time>
      </trkpt>
      <trkpt lat="38.1836141367" lon="-2.7266204450">
        <ele>864.36</ele>
        <time>2017-10-09T15:07:53Z</time>
      </trkpt>
      <trkpt lat="38.1835248694" lon="-2.7267057728">
        <ele>863.40</ele>
        <time>2017-10-09T15:07:54Z</time>
      </trkpt>
      <trkpt lat="38.1834185030" lon="-2.7267668769">
        <ele>861.96</ele>
        <time>2017-10-09T15:07:55Z</time>
      </trkpt>
      <trkpt lat="38.1833064370" lon="-2.7268177550">
        <ele>860.52</ele>
        <time>2017-10-09T15:07:56Z</time>
      </trkpt>
      <trkpt lat="38.1829591747" lon="-2.7270013187">
        <ele>856.67</ele>
        <time>2017-10-09T15:07:59Z</time>
      </trkpt>
      <trkpt lat="38.1826341245" lon="-2.7272450645">
        <ele>852.83</ele>
        <time>2017-10-09T15:08:02Z</time>
      </trkpt>
      <trkpt lat="38.1825421751" lon="-2.7273202501">
        <ele>851.87</ele>
        <time>2017-10-09T15:08:03Z</time>
      </trkpt>
      <trkpt lat="38.1823905464" lon="-2.7274861280">
        <ele>849.46</ele>
        <time>2017-10-09T15:08:05Z</time>
      </trkpt>
      <trkpt lat="38.1823521573" lon="-2.7275861241">
        <ele>848.50</ele>
        <time>2017-10-09T15:08:06Z</time>
      </trkpt>
      <trkpt lat="38.1823462062" lon="-2.7276872937">
        <ele>847.54</ele>
        <time>2017-10-09T15:08:07Z</time>
      </trkpt>
      <trkpt lat="38.1823711842" lon="-2.7277832665">
        <ele>846.58</ele>
        <time>2017-10-09T15:08:08Z</time>
      </trkpt>
      <trkpt lat="38.1824274268" lon="-2.7278647386">
        <ele>845.62</ele>
        <time>2017-10-09T15:08:09Z</time>
      </trkpt>
      <trkpt lat="38.1825099047" lon="-2.7279112581">
        <ele>844.66</ele>
        <time>2017-10-09T15:08:10Z</time>
      </trkpt>
      <trkpt lat="38.1826071348" lon="-2.7279058099">
        <ele>843.21</ele>
        <time>2017-10-09T15:08:11Z</time>
      </trkpt>
      <trkpt lat="38.1827037781" lon="-2.7278489806">
        <ele>841.77</ele>
        <time>2017-10-09T15:08:12Z</time>
      </trkpt>
      <trkpt lat="38.1827935483" lon="-2.7277618926">
        <ele>840.81</ele>
        <time>2017-10-09T15:08:13Z</time>
      </trkpt>
      <trkpt lat="38.1828834023" lon="-2.7276659198">
        <ele>839.37</ele>
        <time>2017-10-09T15:08:14Z</time>
      </trkpt>
      <trkpt lat="38.1830728333" lon="-2.7274766564">
        <ele>836.00</ele>
        <time>2017-10-09T15:08:16Z</time>
      </trkpt>
      <trkpt lat="38.1832864042" lon="-2.7272996306">
        <ele>833.60</ele>
        <time>2017-10-09T15:08:18Z</time>
      </trkpt>
      <trkpt lat="38.1834080257" lon="-2.7272361796">
        <ele>831.68</ele>
        <time>2017-10-09T15:08:19Z</time>
      </trkpt>
      <trkpt lat="38.1835366879" lon="-2.7271910850">
        <ele>830.24</ele>
        <time>2017-10-09T15:08:20Z</time>
      </trkpt>
      <trkpt lat="38.1836681999" lon="-2.7271612454">
        <ele>829.27</ele>
        <time>2017-10-09T15:08:21Z</time>
      </trkpt>
      <trkpt lat="38.1838006340" lon="-2.7271503489">
        <ele>828.31</ele>
        <time>2017-10-09T15:08:22Z</time>
      </trkpt>
      <trkpt lat="38.1839355826" lon="-2.7271599881">
        <ele>827.35</ele>
        <time>2017-10-09T15:08:23Z</time>
      </trkpt>
      <trkpt lat="38.1840715371" lon="-2.7271827031">
        <ele>825.91</ele>
        <time>2017-10-09T15:08:24Z</time>
      </trkpt>
      <trkpt lat="38.1844821665" lon="-2.7272607386">
        <ele>822.06</ele>
        <time>2017-10-09T15:08:27Z</time>
      </trkpt>
      <trkpt lat="38.1846230663" lon="-2.7272674441">
        <ele>820.62</ele>
        <time>2017-10-09T15:08:28Z</time>
      </trkpt>
      <trkpt lat="38.1847630441" lon="-2.7272567153">
        <ele>819.66</ele>
        <time>2017-10-09T15:08:29Z</time>
      </trkpt>
      <trkpt lat="38.1848955620" lon="-2.7272293903">
        <ele>818.22</ele>
        <time>2017-10-09T15:08:30Z</time>
      </trkpt>
      <trkpt lat="38.1850140821" lon="-2.7271882351">
        <ele>817.26</ele>
        <time>2017-10-09T15:08:31Z</time>
      </trkpt>
      <trkpt lat="38.1851199456" lon="-2.7271412965">
        <ele>816.78</ele>
        <time>2017-10-09T15:08:32Z</time>
      </trkpt>
      <trkpt lat="38.1852139067" lon="-2.7270895801">
        <ele>815.82</ele>
        <time>2017-10-09T15:08:33Z</time>
      </trkpt>
      <trkpt lat="38.1854755897" lon="-2.7269578166">
        <ele>812.93</ele>
        <time>2017-10-09T15:08:36Z</time>
      </trkpt>
      <trkpt lat="38.1855619233" lon="-2.7269546315">
        <ele>811.97</ele>
        <time>2017-10-09T15:08:37Z</time>
      </trkpt>
      <trkpt lat="38.1856387015" lon="-2.7269815374">
        <ele>811.49</ele>
        <time>2017-10-09T15:08:38Z</time>
      </trkpt>
      <trkpt lat="38.1856991351" lon="-2.7270251233">
        <ele>810.53</ele>
        <time>2017-10-09T15:08:39Z</time>
      </trkpt>
      <trkpt lat="38.1857396197" lon="-2.7270796895">
        <ele>809.57</ele>
        <time>2017-10-09T15:08:40Z</time>
      </trkpt>
      <trkpt lat="38.1857662741" lon="-2.7271343395">
        <ele>808.61</ele>
        <time>2017-10-09T15:08:41Z</time>
      </trkpt>
      <trkpt lat="38.1857824512" lon="-2.7271878161">
        <ele>808.13</ele>
        <time>2017-10-09T15:08:42Z</time>
      </trkpt>
      <trkpt lat="38.1857873127" lon="-2.7272401191">
        <ele>807.64</ele>
        <time>2017-10-09T15:08:43Z</time>
      </trkpt>
      <trkpt lat="38.1857813615" lon="-2.7272943500">
        <ele>807.16</ele>
        <time>2017-10-09T15:08:44Z</time>
      </trkpt>
      <trkpt lat="38.1857741531" lon="-2.7273605671">
        <ele>806.20</ele>
        <time>2017-10-09T15:08:45Z</time>
      </trkpt>
      <trkpt lat="38.1857728958" lon="-2.7274427935">
        <ele>805.72</ele>
        <time>2017-10-09T15:08:46Z</time>
      </trkpt>
      <trkpt lat="38.1857640948" lon="-2.7278750483">
        <ele>801.88</ele>
        <time>2017-10-09T15:08:50Z</time>
      </trkpt>
      <trkpt lat="38.1857953593" lon="-2.7279740386">
        <ele>800.92</ele>
        <time>2017-10-09T15:08:51Z</time>
      </trkpt>
      <trkpt lat="38.1858554576" lon="-2.7280390821">
        <ele>800.44</ele>
        <time>2017-10-09T15:08:52Z</time>
      </trkpt>
      <trkpt lat="38.1859335769" lon="-2.7280633897">
        <ele>799.47</ele>
        <time>2017-10-09T15:08:53Z</time>
      </trkpt>
      <trkpt lat="38.1860180665" lon="-2.7280395851">
        <ele>798.03</ele>
        <time>2017-10-09T15:08:54Z</time>
      </trkpt>
      <trkpt lat="38.1860934198" lon="-2.7279657405">
        <ele>796.59</ele>
        <time>2017-10-09T15:08:55Z</time>
      </trkpt>
      <trkpt lat="38.1861462258" lon="-2.7278540097">
        <ele>795.15</ele>
        <time>2017-10-09T15:08:56Z</time>
      </trkpt>
      <trkpt lat="38.1861800887" lon="-2.7277346514">
        <ele>794.19</ele>
        <time>2017-10-09T15:08:57Z</time>
      </trkpt>
      <trkpt lat="38.1862155441" lon="-2.7276296262">
        <ele>793.22</ele>
        <time>2017-10-09T15:08:58Z</time>
      </trkpt>
      <trkpt lat="38.1862581242" lon="-2.7275451366">
        <ele>792.26</ele>
        <time>2017-10-09T15:08:59Z</time>
      </trkpt>
      <trkpt lat="38.1863030512" lon="-2.7274745610">
        <ele>791.78</ele>
        <time>2017-10-09T15:09:00Z</time>
      </trkpt>
      <trkpt lat="38.1864255108" lon="-2.7273149695">
        <ele>788.90</ele>
        <time>2017-10-09T15:09:05Z</time>
      </trkpt>
      <trkpt lat="38.1864260975" lon="-2.7273155563">
        <ele>789.38</ele>
        <time>2017-10-09T15:09:15Z</time>
      </trkpt>
      <trkpt lat="38.1864259299" lon="-2.7273103595">
        <ele>788.42</ele>
        <time>2017-10-09T15:09:44Z</time>
      </trkpt>
      <trkpt lat="38.1864401791" lon="-2.7273276262">
        <ele>787.94</ele>
        <time>2017-10-09T15:10:05Z</time>
      </trkpt>
      <trkpt lat="38.1864467170" lon="-2.7273159754">
        <ele>787.94</ele>
        <time>2017-10-09T15:10:30Z</time>
      </trkpt>
      <trkpt lat="38.1864411850" lon="-2.7273228485">
        <ele>787.46</ele>
        <time>2017-10-09T15:10:48Z</time>
      </trkpt>
      <trkpt lat="38.1864441186" lon="-2.7273149695">
        <ele>787.46</ele>
        <time>2017-10-09T15:11:03Z</time>
      </trkpt>
      <trkpt lat="38.1864758022" lon="-2.7273065876">
        <ele>786.98</ele>
        <time>2017-10-09T15:11:13Z</time>
      </trkpt>
      <trkpt lat="38.1865011994" lon="-2.7273030672">
        <ele>786.98</ele>
        <time>2017-10-09T15:11:14Z</time>
      </trkpt>
      <trkpt lat="38.1865349784" lon="-2.7273000497">
        <ele>786.98</ele>
        <time>2017-10-09T15:11:15Z</time>
      </trkpt>
      <trkpt lat="38.1866752915" lon="-2.7272900753">
        <ele>784.57</ele>
        <time>2017-10-09T15:11:18Z</time>
      </trkpt>
      <trkpt lat="38.1867344677" lon="-2.7272973675">
        <ele>784.57</ele>
        <time>2017-10-09T15:11:19Z</time>
      </trkpt>
      <trkpt lat="38.1867972482" lon="-2.7273184061">
        <ele>783.61</ele>
        <time>2017-10-09T15:11:20Z</time>
      </trkpt>
      <trkpt lat="38.1868624594" lon="-2.7273505926">
        <ele>783.13</ele>
        <time>2017-10-09T15:11:21Z</time>
      </trkpt>
      <trkpt lat="38.1869291794" lon="-2.7273901552">
        <ele>782.65</ele>
        <time>2017-10-09T15:11:22Z</time>
      </trkpt>
      <trkpt lat="38.1869964022" lon="-2.7274367586">
        <ele>782.17</ele>
        <time>2017-10-09T15:11:23Z</time>
      </trkpt>
      <trkpt lat="38.1870630383" lon="-2.7274893969">
        <ele>781.69</ele>
        <time>2017-10-09T15:11:24Z</time>
      </trkpt>
      <trkpt lat="38.1871305965" lon="-2.7275451366">
        <ele>781.21</ele>
        <time>2017-10-09T15:11:25Z</time>
      </trkpt>
      <trkpt lat="38.1878276356" lon="-2.7280028723">
        <ele>778.81</ele>
        <time>2017-10-09T15:11:35Z</time>
      </trkpt>
      <trkpt lat="38.1882900652" lon="-2.7280531637">
        <ele>780.25</ele>
        <time>2017-10-09T15:11:43Z</time>
      </trkpt>
      <trkpt lat="38.1886435300" lon="-2.7280687541">
        <ele>780.73</ele>
        <time>2017-10-09T15:11:52Z</time>
      </trkpt>
      <trkpt lat="38.1891870126" lon="-2.7280913852">
        <ele>782.17</ele>
        <time>2017-10-09T15:12:07Z</time>
      </trkpt>
      <trkpt lat="38.1895328499" lon="-2.7280986775">
        <ele>782.65</ele>
        <time>2017-10-09T15:12:18Z</time>
      </trkpt>
      <trkpt lat="38.1896879151" lon="-2.7281628828">
        <ele>783.13</ele>
        <time>2017-10-09T15:12:23Z</time>
      </trkpt>
      <trkpt lat="38.1899806950" lon="-2.7282156050">
        <ele>783.61</ele>
        <time>2017-10-09T15:12:32Z</time>
      </trkpt>
      <trkpt lat="38.1902704574" lon="-2.7282744460">
        <ele>783.61</ele>
        <time>2017-10-09T15:12:41Z</time>
      </trkpt>
      <trkpt lat="38.1905822642" lon="-2.7282331232">
        <ele>783.61</ele>
        <time>2017-10-09T15:12:49Z</time>
      </trkpt>
      <trkpt lat="38.1910591945" lon="-2.7281669062">
        <ele>783.61</ele>
        <time>2017-10-09T15:13:02Z</time>
      </trkpt>
      <trkpt lat="38.1914383080" lon="-2.7281016111">
        <ele>783.61</ele>
        <time>2017-10-09T15:13:13Z</time>
      </trkpt>
      <trkpt lat="38.1916818023" lon="-2.7278492320">
        <ele>783.61</ele>
        <time>2017-10-09T15:13:22Z</time>
      </trkpt>
      <trkpt lat="38.1919431500" lon="-2.7272893209">
        <ele>783.61</ele>
        <time>2017-10-09T15:13:36Z</time>
      </trkpt>
      <trkpt lat="38.1921872310" lon="-2.7269001491">
        <ele>784.09</ele>
        <time>2017-10-09T15:13:46Z</time>
      </trkpt>
      <trkpt lat="38.1922215130" lon="-2.7268712316">
        <ele>784.09</ele>
        <time>2017-10-09T15:13:47Z</time>
      </trkpt>
      <trkpt lat="38.1926051527" lon="-2.7266609296">
        <ele>784.57</ele>
        <time>2017-10-09T15:13:57Z</time>
      </trkpt>
      <trkpt lat="38.1926457211" lon="-2.7266380470">
        <ele>784.57</ele>
        <time>2017-10-09T15:13:58Z</time>
      </trkpt>
      <trkpt lat="38.1929862779" lon="-2.7263689041">
        <ele>784.09</ele>
        <time>2017-10-09T15:14:07Z</time>
      </trkpt>
      <trkpt lat="38.1930224039" lon="-2.7263387293">
        <ele>784.09</ele>
        <time>2017-10-09T15:14:08Z</time>
      </trkpt>
      <trkpt lat="38.1930968352" lon="-2.7262833249">
        <ele>784.09</ele>
        <time>2017-10-09T15:14:10Z</time>
      </trkpt>
      <trkpt lat="38.1931303628" lon="-2.7262470312">
        <ele>784.09</ele>
        <time>2017-10-09T15:14:11Z</time>
      </trkpt>
      <trkpt lat="38.1931619626" lon="-2.7262101509">
        <ele>784.09</ele>
        <time>2017-10-09T15:14:12Z</time>
      </trkpt>
      <trkpt lat="38.1931992620" lon="-2.7261785511">
        <ele>784.09</ele>
        <time>2017-10-09T15:14:13Z</time>
      </trkpt>
      <trkpt lat="38.1932391599" lon="-2.7261544112">
        <ele>783.61</ele>
        <time>2017-10-09T15:14:14Z</time>
      </trkpt>
      <trkpt lat="38.1932797283" lon="-2.7261310257">
        <ele>783.61</ele>
        <time>2017-10-09T15:14:15Z</time>
      </trkpt>
      <trkpt lat="38.1937867496" lon="-2.7258476336">
        <ele>781.69</ele>
        <time>2017-10-09T15:14:26Z</time>
      </trkpt>
      <trkpt lat="38.1943241972" lon="-2.7253177296">
        <ele>778.81</ele>
        <time>2017-10-09T15:14:37Z</time>
      </trkpt>
      <trkpt lat="38.1945482455" lon="-2.7248853073">
        <ele>777.36</ele>
        <time>2017-10-09T15:14:43Z</time>
      </trkpt>
      <trkpt lat="38.1946587190" lon="-2.7245527972">
        <ele>776.88</ele>
        <time>2017-10-09T15:14:47Z</time>
      </trkpt>
      <trkpt lat="38.1947004609" lon="-2.7244797908">
        <ele>776.40</ele>
        <time>2017-10-09T15:14:48Z</time>
      </trkpt>
      <trkpt lat="38.1947505847" lon="-2.7244181000">
        <ele>776.40</ele>
        <time>2017-10-09T15:14:49Z</time>
      </trkpt>
      <trkpt lat="38.1948088389" lon="-2.7243703231">
        <ele>776.40</ele>
        <time>2017-10-09T15:14:50Z</time>
      </trkpt>
      <trkpt lat="38.1948720384" lon="-2.7243418247">
        <ele>775.92</ele>
        <time>2017-10-09T15:14:51Z</time>
      </trkpt>
      <trkpt lat="38.1949364115" lon="-2.7243263181">
        <ele>775.44</ele>
        <time>2017-10-09T15:14:52Z</time>
      </trkpt>
      <trkpt lat="38.1950000301" lon="-2.7243195288">
        <ele>775.44</ele>
        <time>2017-10-09T15:14:53Z</time>
      </trkpt>
      <trkpt lat="38.1950627267" lon="-2.7243159246">
        <ele>775.44</ele>
        <time>2017-10-09T15:14:54Z</time>
      </trkpt>
      <trkpt lat="38.1956646312" lon="-2.7241863403">
        <ele>774.96</ele>
        <time>2017-10-09T15:15:04Z</time>
      </trkpt>
      <trkpt lat="38.1961866561" lon="-2.7242715005">
        <ele>774.48</ele>
        <time>2017-10-09T15:15:14Z</time>
      </trkpt>
      <trkpt lat="38.1964394543" lon="-2.7243923675">
        <ele>774.48</ele>
        <time>2017-10-09T15:15:20Z</time>
      </trkpt>
      <trkpt lat="38.1965261232" lon="-2.7244093828">
        <ele>774.48</ele>
        <time>2017-10-09T15:15:22Z</time>
      </trkpt>
      <trkpt lat="38.1965749897" lon="-2.7244065329">
        <ele>774.48</ele>
        <time>2017-10-09T15:15:23Z</time>
      </trkpt>
      <trkpt lat="38.1966256164" lon="-2.7243947145">
        <ele>774.48</ele>
        <time>2017-10-09T15:15:24Z</time>
      </trkpt>
      <trkpt lat="38.1966764107" lon="-2.7243757714">
        <ele>774.48</ele>
        <time>2017-10-09T15:15:25Z</time>
      </trkpt>
      <trkpt lat="38.1967262831" lon="-2.7243460994">
        <ele>774.00</ele>
        <time>2017-10-09T15:15:26Z</time>
      </trkpt>
      <trkpt lat="38.1967752334" lon="-2.7243036032">
        <ele>774.00</ele>
        <time>2017-10-09T15:15:27Z</time>
      </trkpt>
      <trkpt lat="38.1968201604" lon="-2.7242537308">
        <ele>774.00</ele>
        <time>2017-10-09T15:15:28Z</time>
      </trkpt>
      <trkpt lat="38.1968599744" lon="-2.7241984941">
        <ele>774.00</ele>
        <time>2017-10-09T15:15:29Z</time>
      </trkpt>
      <trkpt lat="38.1968968548" lon="-2.7241437603">
        <ele>774.00</ele>
        <time>2017-10-09T15:15:30Z</time>
      </trkpt>
      <trkpt lat="38.1969743036" lon="-2.7240362205">
        <ele>774.00</ele>
        <time>2017-10-09T15:15:32Z</time>
      </trkpt>
      <trkpt lat="38.1970193982" lon="-2.7239907905">
        <ele>773.52</ele>
        <time>2017-10-09T15:15:33Z</time>
      </trkpt>
      <trkpt lat="38.1971198972" lon="-2.7239084803">
        <ele>773.04</ele>
        <time>2017-10-09T15:15:35Z</time>
      </trkpt>
      <trkpt lat="38.1975398306" lon="-2.7236759663">
        <ele>770.15</ele>
        <time>2017-10-09T15:15:42Z</time>
      </trkpt>
      <trkpt lat="38.1976081431" lon="-2.7236462943">
        <ele>769.67</ele>
        <time>2017-10-09T15:15:43Z</time>
      </trkpt>
      <trkpt lat="38.1978263240" lon="-2.7235506568">
        <ele>767.75</ele>
        <time>2017-10-09T15:15:46Z</time>
      </trkpt>
      <trkpt lat="38.1979025993" lon="-2.7234955039">
        <ele>767.27</ele>
        <time>2017-10-09T15:15:47Z</time>
      </trkpt>
      <trkpt lat="38.1979777012" lon="-2.7234241739">
        <ele>766.31</ele>
        <time>2017-10-09T15:15:48Z</time>
      </trkpt>
      <trkpt lat="38.1980486121" lon="-2.7233381756">
        <ele>765.35</ele>
        <time>2017-10-09T15:15:49Z</time>
      </trkpt>
      <trkpt lat="38.1981191039" lon="-2.7232418675">
        <ele>764.87</ele>
        <time>2017-10-09T15:15:50Z</time>
      </trkpt>
      <trkpt lat="38.1982731633" lon="-2.7230354212">
        <ele>761.50</ele>
        <time>2017-10-09T15:15:52Z</time>
      </trkpt>
      <trkpt lat="38.1983402185" lon="-2.7229111176">
        <ele>760.06</ele>
        <time>2017-10-09T15:15:53Z</time>
      </trkpt>
      <trkpt lat="38.1983860675" lon="-2.7227690443">
        <ele>759.10</ele>
        <time>2017-10-09T15:15:54Z</time>
      </trkpt>
      <trkpt lat="38.1984123029" lon="-2.7226154041">
        <ele>757.66</ele>
        <time>2017-10-09T15:15:55Z</time>
      </trkpt>
      <trkpt lat="38.1984228641" lon="-2.7224529628">
        <ele>756.21</ele>
        <time>2017-10-09T15:15:56Z</time>
      </trkpt>
      <trkpt lat="38.1984377839" lon="-2.7222875878">
        <ele>755.73</ele>
        <time>2017-10-09T15:15:57Z</time>
      </trkpt>
      <trkpt lat="38.1984687131" lon="-2.7221242245">
        <ele>754.77</ele>
        <time>2017-10-09T15:15:58Z</time>
      </trkpt>
      <trkpt lat="38.1985037494" lon="-2.7219600230">
        <ele>753.81</ele>
        <time>2017-10-09T15:15:59Z</time>
      </trkpt>
      <trkpt lat="38.1985506043" lon="-2.7216198854">
        <ele>751.41</ele>
        <time>2017-10-09T15:16:01Z</time>
      </trkpt>
      <trkpt lat="38.1985526998" lon="-2.7214436978">
        <ele>750.45</ele>
        <time>2017-10-09T15:16:02Z</time>
      </trkpt>
      <trkpt lat="38.1985495985" lon="-2.7209193259">
        <ele>747.56</ele>
        <time>2017-10-09T15:16:05Z</time>
      </trkpt>
      <trkpt lat="38.1985734031" lon="-2.7205722313">
        <ele>747.08</ele>
        <time>2017-10-09T15:16:07Z</time>
      </trkpt>
      <trkpt lat="38.1985705532" lon="-2.7196401637">
        <ele>746.60</ele>
        <time>2017-10-09T15:16:13Z</time>
      </trkpt>
      <trkpt lat="38.1985820364" lon="-2.7188847866">
        <ele>743.24</ele>
        <time>2017-10-09T15:16:18Z</time>
      </trkpt>
      <trkpt lat="38.1985810306" lon="-2.7182557248">
        <ele>741.31</ele>
        <time>2017-10-09T15:16:22Z</time>
      </trkpt>
      <trkpt lat="38.1984353531" lon="-2.7175261639">
        <ele>745.16</ele>
        <time>2017-10-09T15:16:28Z</time>
      </trkpt>
      <trkpt lat="38.1984070223" lon="-2.7173394989">
        <ele>746.12</ele>
        <time>2017-10-09T15:16:30Z</time>
      </trkpt>
      <trkpt lat="38.1983890012" lon="-2.7172591165">
        <ele>746.60</ele>
        <time>2017-10-09T15:16:31Z</time>
      </trkpt>
      <trkpt lat="38.1983645260" lon="-2.7171901334">
        <ele>746.60</ele>
        <time>2017-10-09T15:16:32Z</time>
      </trkpt>
      <trkpt lat="38.1982010789" lon="-2.7167717088">
        <ele>749.49</ele>
        <time>2017-10-09T15:16:41Z</time>
      </trkpt>
      <trkpt lat="38.1981361192" lon="-2.7165060863">
        <ele>749.97</ele>
        <time>2017-10-09T15:16:49Z</time>
      </trkpt>
      <trkpt lat="38.1981189363" lon="-2.7164932620">
        <ele>750.45</ele>
        <time>2017-10-09T15:16:50Z</time>
      </trkpt>
      <trkpt lat="38.1981055252" lon="-2.7164780907">
        <ele>750.45</ele>
        <time>2017-10-09T15:16:51Z</time>
      </trkpt>
      <trkpt lat="38.1981023401" lon="-2.7164566331">
        <ele>750.45</ele>
        <time>2017-10-09T15:16:52Z</time>
      </trkpt>
      <trkpt lat="38.1981058605" lon="-2.7164352592">
        <ele>750.45</ele>
        <time>2017-10-09T15:16:53Z</time>
      </trkpt>
      <trkpt lat="38.1981077883" lon="-2.7164100297">
        <ele>750.45</ele>
        <time>2017-10-09T15:16:54Z</time>
      </trkpt>
      <trkpt lat="38.1981031783" lon="-2.7163859736">
        <ele>750.45</ele>
        <time>2017-10-09T15:16:55Z</time>
      </trkpt>
      <trkpt lat="38.1980929524" lon="-2.7163718082">
        <ele>750.45</ele>
        <time>2017-10-09T15:16:56Z</time>
      </trkpt>
      <trkpt lat="38.1981282402" lon="-2.7164411265">
        <ele>750.45</ele>
        <time>2017-10-09T15:17:02Z</time>
      </trkpt>
      <trkpt lat="38.1981460098" lon="-2.7164867241">
        <ele>749.97</ele>
        <time>2017-10-09T15:17:04Z</time>
      </trkpt>
      <trkpt lat="38.1982909329" lon="-2.7168264426">
        <ele>749.00</ele>
        <time>2017-10-09T15:17:15Z</time>
      </trkpt>
      <trkpt lat="38.1983128097" lon="-2.7168782428">
        <ele>748.52</ele>
        <time>2017-10-09T15:17:18Z</time>
      </trkpt>
      <trkpt lat="38.1982740015" lon="-2.7168568689">
        <ele>748.52</ele>
        <time>2017-10-09T15:17:24Z</time>
      </trkpt>
      <trkpt lat="38.1982087065" lon="-2.7167322300">
        <ele>749.00</ele>
        <time>2017-10-09T15:17:30Z</time>
      </trkpt>
      <trkpt lat="38.1981576607" lon="-2.7166116145">
        <ele>749.49</ele>
        <time>2017-10-09T15:17:35Z</time>
      </trkpt>
      <trkpt lat="38.1981302518" lon="-2.7165601496">
        <ele>749.49</ele>
        <time>2017-10-09T15:17:37Z</time>
      </trkpt>
      <trkpt lat="38.1980802119" lon="-2.7163994685">
        <ele>749.97</ele>
        <time>2017-10-09T15:17:43Z</time>
      </trkpt>
      <trkpt lat="38.1980169285" lon="-2.7161362767">
        <ele>751.41</ele>
        <time>2017-10-09T15:17:54Z</time>
      </trkpt>
      <trkpt lat="38.1979841553" lon="-2.7159144916">
        <ele>753.33</ele>
        <time>2017-10-09T15:18:03Z</time>
      </trkpt>
      <trkpt lat="38.1979532260" lon="-2.7155943029">
        <ele>754.77</ele>
        <time>2017-10-09T15:18:15Z</time>
      </trkpt>
      <trkpt lat="38.1979461014" lon="-2.7155263256">
        <ele>755.25</ele>
        <time>2017-10-09T15:18:18Z</time>
      </trkpt>
      <trkpt lat="38.1979470234" lon="-2.7153667342">
        <ele>755.73</ele>
        <time>2017-10-09T15:18:26Z</time>
      </trkpt>
      <trkpt lat="38.1979474425" lon="-2.7152512316">
        <ele>756.21</ele>
        <time>2017-10-09T15:18:33Z</time>
      </trkpt>
      <trkpt lat="38.1979516335" lon="-2.7151788957">
        <ele>756.21</ele>
        <time>2017-10-09T15:18:37Z</time>
      </trkpt>
      <trkpt lat="38.1979276612" lon="-2.7150902152">
        <ele>756.21</ele>
        <time>2017-10-09T15:18:41Z</time>
      </trkpt>
      <trkpt lat="38.1979513820" lon="-2.7150176279">
        <ele>756.21</ele>
        <time>2017-10-09T15:18:44Z</time>
      </trkpt>
      <trkpt lat="38.1979521364" lon="-2.7149688452">
        <ele>756.21</ele>
        <time>2017-10-09T15:18:46Z</time>
      </trkpt>
      <trkpt lat="38.1979509629" lon="-2.7148978505">
        <ele>756.21</ele>
        <time>2017-10-09T15:18:49Z</time>
      </trkpt>
      <trkpt lat="38.1979577523" lon="-2.7147484012">
        <ele>756.21</ele>
        <time>2017-10-09T15:18:56Z</time>
      </trkpt>
      <trkpt lat="38.1979450118" lon="-2.7145998739">
        <ele>756.69</ele>
        <time>2017-10-09T15:19:02Z</time>
      </trkpt>
      <trkpt lat="38.1979283318" lon="-2.7144548669">
        <ele>756.69</ele>
        <time>2017-10-09T15:19:08Z</time>
      </trkpt>
      <trkpt lat="38.1979386415" lon="-2.7141573932">
        <ele>757.18</ele>
        <time>2017-10-09T15:19:18Z</time>
      </trkpt>
      <trkpt lat="38.1979110651" lon="-2.7139998134">
        <ele>757.66</ele>
        <time>2017-10-09T15:19:24Z</time>
      </trkpt>
      <trkpt lat="38.1978555769" lon="-2.7137547266">
        <ele>758.62</ele>
        <time>2017-10-09T15:19:34Z</time>
      </trkpt>
      <trkpt lat="38.1977756973" lon="-2.7136048581">
        <ele>759.10</ele>
        <time>2017-10-09T15:19:41Z</time>
      </trkpt>
      <trkpt lat="38.1976888608" lon="-2.7134336997">
        <ele>760.06</ele>
        <time>2017-10-09T15:19:49Z</time>
      </trkpt>
      <trkpt lat="38.1976839155" lon="-2.7132643014">
        <ele>760.54</ele>
        <time>2017-10-09T15:19:55Z</time>
      </trkpt>
      <trkpt lat="38.1976994220" lon="-2.7131119184">
        <ele>761.02</ele>
        <time>2017-10-09T15:20:02Z</time>
      </trkpt>
      <trkpt lat="38.1977007631" lon="-2.7130851801">
        <ele>761.02</ele>
        <time>2017-10-09T15:20:03Z</time>
      </trkpt>
      <trkpt lat="38.1977751106" lon="-2.7128765546">
        <ele>761.98</ele>
        <time>2017-10-09T15:20:13Z</time>
      </trkpt>
      <trkpt lat="38.1978111528" lon="-2.7127727028">
        <ele>762.94</ele>
        <time>2017-10-09T15:20:18Z</time>
      </trkpt>
      <trkpt lat="38.1978827342" lon="-2.7127129398">
        <ele>762.94</ele>
        <time>2017-10-09T15:20:22Z</time>
      </trkpt>
      <trkpt lat="38.1979414914" lon="-2.7126986906">
        <ele>763.42</ele>
        <time>2017-10-09T15:20:27Z</time>
      </trkpt>
      <trkpt lat="38.1979507953" lon="-2.7126649953">
        <ele>763.42</ele>
        <time>2017-10-09T15:20:31Z</time>
      </trkpt>
      <trkpt lat="38.1978467759" lon="-2.7126845252">
        <ele>762.94</ele>
        <time>2017-10-09T15:20:40Z</time>
      </trkpt>
      <trkpt lat="38.1978920382" lon="-2.7127075754">
        <ele>762.94</ele>
        <time>2017-10-09T15:20:46Z</time>
      </trkpt>
      <trkpt lat="38.1979676429" lon="-2.7126483154">
        <ele>762.94</ele>
        <time>2017-10-09T15:20:51Z</time>
      </trkpt>
      <trkpt lat="38.1981704850" lon="-2.7126379218">
        <ele>764.39</ele>
        <time>2017-10-09T15:21:01Z</time>
      </trkpt>
      <trkpt lat="38.1983698066" lon="-2.7127807494">
        <ele>765.83</ele>
        <time>2017-10-09T15:21:12Z</time>
      </trkpt>
      <trkpt lat="38.1984097883" lon="-2.7128777280">
        <ele>766.31</ele>
        <time>2017-10-09T15:21:16Z</time>
      </trkpt>
      <trkpt lat="38.1985278893" lon="-2.7131868526">
        <ele>767.75</ele>
        <time>2017-10-09T15:21:28Z</time>
      </trkpt>
      <trkpt lat="38.1985706370" lon="-2.7134485357">
        <ele>769.67</ele>
        <time>2017-10-09T15:21:38Z</time>
      </trkpt>
      <trkpt lat="38.1986006442" lon="-2.7137019206">
        <ele>771.60</ele>
        <time>2017-10-09T15:21:48Z</time>
      </trkpt>
      <trkpt lat="38.1986024044" lon="-2.7137978096">
        <ele>772.56</ele>
        <time>2017-10-09T15:21:52Z</time>
      </trkpt>
      <trkpt lat="38.1986529473" lon="-2.7140411362">
        <ele>774.48</ele>
        <time>2017-10-09T15:22:02Z</time>
      </trkpt>
      <trkpt lat="38.1986721419" lon="-2.7141245361">
        <ele>774.96</ele>
        <time>2017-10-09T15:22:06Z</time>
      </trkpt>
      <trkpt lat="38.1987326592" lon="-2.7143051662">
        <ele>776.88</ele>
        <time>2017-10-09T15:22:15Z</time>
      </trkpt>
      <trkpt lat="38.1988001335" lon="-2.7144539449">
        <ele>778.32</ele>
        <time>2017-10-09T15:22:23Z</time>
      </trkpt>
      <trkpt lat="38.1988697872" lon="-2.7145952638">
        <ele>779.77</ele>
        <time>2017-10-09T15:22:31Z</time>
      </trkpt>
      <trkpt lat="38.1989233475" lon="-2.7147049829">
        <ele>781.21</ele>
        <time>2017-10-09T15:22:37Z</time>
      </trkpt>
      <trkpt lat="38.1989999581" lon="-2.7148812544">
        <ele>782.65</ele>
        <time>2017-10-09T15:22:46Z</time>
      </trkpt>
      <trkpt lat="38.1990332343" lon="-2.7149896324">
        <ele>783.61</ele>
        <time>2017-10-09T15:22:51Z</time>
      </trkpt>
      <trkpt lat="38.1990805082" lon="-2.7150594536">
        <ele>784.57</ele>
        <time>2017-10-09T15:22:55Z</time>
      </trkpt>
      <trkpt lat="38.1991194002" lon="-2.7151337173">
        <ele>785.05</ele>
        <time>2017-10-09T15:22:59Z</time>
      </trkpt>
      <trkpt lat="38.1992038898" lon="-2.7153323684">
        <ele>786.98</ele>
        <time>2017-10-09T15:23:09Z</time>
      </trkpt>
      <trkpt lat="38.1992967613" lon="-2.7154909540">
        <ele>788.90</ele>
        <time>2017-10-09T15:23:18Z</time>
      </trkpt>
      <trkpt lat="38.1994084921" lon="-2.7156452648">
        <ele>790.82</ele>
        <time>2017-10-09T15:23:27Z</time>
      </trkpt>
      <trkpt lat="38.1994659081" lon="-2.7157735080">
        <ele>792.26</ele>
        <time>2017-10-09T15:23:34Z</time>
      </trkpt>
      <trkpt lat="38.1994989328" lon="-2.7158001624">
        <ele>792.26</ele>
        <time>2017-10-09T15:23:36Z</time>
      </trkpt>
      <trkpt lat="38.1996470410" lon="-2.7160372026">
        <ele>794.67</ele>
        <time>2017-10-09T15:23:48Z</time>
      </trkpt>
      <trkpt lat="38.1996575184" lon="-2.7160541341">
        <ele>795.15</ele>
        <time>2017-10-09T15:23:49Z</time>
      </trkpt>
      <trkpt lat="38.1998271681" lon="-2.7162123844">
        <ele>797.55</ele>
        <time>2017-10-09T15:24:00Z</time>
      </trkpt>
      <trkpt lat="38.1999957282" lon="-2.7163607441">
        <ele>799.95</ele>
        <time>2017-10-09T15:24:11Z</time>
      </trkpt>
      <trkpt lat="38.2001136616" lon="-2.7164961956">
        <ele>801.88</ele>
        <time>2017-10-09T15:24:20Z</time>
      </trkpt>
      <trkpt lat="38.2003097143" lon="-2.7166479919">
        <ele>803.80</ele>
        <time>2017-10-09T15:24:32Z</time>
      </trkpt>
      <trkpt lat="38.2004049327" lon="-2.7167489938">
        <ele>805.24</ele>
        <time>2017-10-09T15:24:39Z</time>
      </trkpt>
      <trkpt lat="38.2004664559" lon="-2.7167975251">
        <ele>805.72</ele>
        <time>2017-10-09T15:24:43Z</time>
      </trkpt>
      <trkpt lat="38.2005890831" lon="-2.7169582061">
        <ele>807.16</ele>
        <time>2017-10-09T15:24:54Z</time>
      </trkpt>
      <trkpt lat="38.2006043382" lon="-2.7169877104">
        <ele>807.64</ele>
        <time>2017-10-09T15:24:56Z</time>
      </trkpt>
      <trkpt lat="38.2006920129" lon="-2.7170328051">
        <ele>807.64</ele>
        <time>2017-10-09T15:25:01Z</time>
      </trkpt>
      <trkpt lat="38.2008611597" lon="-2.7172358148">
        <ele>809.09</ele>
        <time>2017-10-09T15:25:14Z</time>
      </trkpt>
      <trkpt lat="38.2009141333" lon="-2.7172452863">
        <ele>808.61</ele>
        <time>2017-10-09T15:25:18Z</time>
      </trkpt>
      <trkpt lat="38.2010618225" lon="-2.7173549216">
        <ele>808.61</ele>
        <time>2017-10-09T15:25:30Z</time>
      </trkpt>
      <trkpt lat="38.2010695338" lon="-2.7173613757">
        <ele>808.61</ele>
        <time>2017-10-09T15:25:31Z</time>
      </trkpt>
      <trkpt lat="38.2011433784" lon="-2.7173972502">
        <ele>808.61</ele>
        <time>2017-10-09T15:25:41Z</time>
      </trkpt>
      <trkpt lat="38.2011533529" lon="-2.7173849288">
        <ele>808.13</ele>
        <time>2017-10-09T15:26:03Z</time>
      </trkpt>
      <trkpt lat="38.2011722960" lon="-2.7173957415">
        <ele>808.13</ele>
        <time>2017-10-09T15:26:20Z</time>
      </trkpt>
      <trkpt lat="38.2011885568" lon="-2.7173954062">
        <ele>807.64</ele>
        <time>2017-10-09T15:26:51Z</time>
      </trkpt>
      <trkpt lat="38.2011955976" lon="-2.7173693385">
        <ele>808.61</ele>
        <time>2017-10-09T15:27:17Z</time>
      </trkpt>
      <trkpt lat="38.2011800073" lon="-2.7173950709">
        <ele>807.64</ele>
        <time>2017-10-09T15:27:38Z</time>
      </trkpt>
      <trkpt lat="38.2011673506" lon="-2.7174004354">
        <ele>807.64</ele>
        <time>2017-10-09T15:28:03Z</time>
      </trkpt>
      <trkpt lat="38.2011714578" lon="-2.7174125891">
        <ele>807.64</ele>
        <time>2017-10-09T15:28:27Z</time>
      </trkpt>
      <trkpt lat="38.2011712063" lon="-2.7174135949">
        <ele>807.16</ele>
        <time>2017-10-09T15:28:44Z</time>
      </trkpt>
      <trkpt lat="38.2011697814" lon="-2.7174120024">
        <ele>807.16</ele>
        <time>2017-10-09T15:28:57Z</time>
      </trkpt>
      <trkpt lat="38.2012951747" lon="-2.7173935622">
        <ele>806.20</ele>
        <time>2017-10-09T15:29:03Z</time>
      </trkpt>
      <trkpt lat="38.2017793134" lon="-2.7174943127">
        <ele>805.24</ele>
        <time>2017-10-09T15:29:17Z</time>
      </trkpt>
      <trkpt lat="38.2020413317" lon="-2.7175873518">
        <ele>805.72</ele>
        <time>2017-10-09T15:29:27Z</time>
      </trkpt>
      <trkpt lat="38.2022720855" lon="-2.7176906168">
        <ele>806.20</ele>
        <time>2017-10-09T15:29:39Z</time>
      </trkpt>
      <trkpt lat="38.2026178390" lon="-2.7178523876">
        <ele>806.68</ele>
        <time>2017-10-09T15:29:52Z</time>
      </trkpt>
      <trkpt lat="38.2029600721" lon="-2.7179194428">
        <ele>807.64</ele>
        <time>2017-10-09T15:30:05Z</time>
      </trkpt>
      <trkpt lat="38.2032194920" lon="-2.7178358752">
        <ele>809.09</ele>
        <time>2017-10-09T15:30:19Z</time>
      </trkpt>
      <trkpt lat="38.2034465577" lon="-2.7177586779">
        <ele>810.53</ele>
        <time>2017-10-09T15:30:32Z</time>
      </trkpt>
      <trkpt lat="38.2036563568" lon="-2.7176508028">
        <ele>812.45</ele>
        <time>2017-10-09T15:30:45Z</time>
      </trkpt>
      <trkpt lat="38.2038145233" lon="-2.7175459452">
        <ele>813.41</ele>
        <time>2017-10-09T15:30:55Z</time>
      </trkpt>
      <trkpt lat="38.2039924711" lon="-2.7173954900">
        <ele>814.85</ele>
        <time>2017-10-09T15:31:07Z</time>
      </trkpt>
      <trkpt lat="38.2041546609" lon="-2.7171406802">
        <ele>816.78</ele>
        <time>2017-10-09T15:31:21Z</time>
      </trkpt>
      <trkpt lat="38.2042784616" lon="-2.7169077471">
        <ele>817.74</ele>
        <time>2017-10-09T15:31:33Z</time>
      </trkpt>
      <trkpt lat="38.2045269012" lon="-2.7167432941">
        <ele>818.70</ele>
        <time>2017-10-09T15:31:48Z</time>
      </trkpt>
      <trkpt lat="38.2046731655" lon="-2.7166515961">
        <ele>819.18</ele>
        <time>2017-10-09T15:31:58Z</time>
      </trkpt>
      <trkpt lat="38.2048246264" lon="-2.7162530366">
        <ele>819.66</ele>
        <time>2017-10-09T15:32:12Z</time>
      </trkpt>
      <trkpt lat="38.2050120458" lon="-2.7158655412">
        <ele>820.14</ele>
        <time>2017-10-09T15:32:25Z</time>
      </trkpt>
      <trkpt lat="38.2053165603" lon="-2.7156150900">
        <ele>821.10</ele>
        <time>2017-10-09T15:32:37Z</time>
      </trkpt>
      <trkpt lat="38.2056732103" lon="-2.7154524811">
        <ele>822.06</ele>
        <time>2017-10-09T15:32:50Z</time>
      </trkpt>
      <trkpt lat="38.2058659103" lon="-2.7151777223">
        <ele>823.03</ele>
        <time>2017-10-09T15:33:01Z</time>
      </trkpt>
      <trkpt lat="38.2060182095" lon="-2.7148174681">
        <ele>824.47</ele>
        <time>2017-10-09T15:33:14Z</time>
      </trkpt>
      <trkpt lat="38.2062931359" lon="-2.7147635724">
        <ele>825.91</ele>
        <time>2017-10-09T15:33:25Z</time>
      </trkpt>
      <trkpt lat="38.2065091375" lon="-2.7149593737">
        <ele>826.39</ele>
        <time>2017-10-09T15:33:35Z</time>
      </trkpt>
      <trkpt lat="38.2067390531" lon="-2.7152442746">
        <ele>827.35</ele>
        <time>2017-10-09T15:33:48Z</time>
      </trkpt>
      <trkpt lat="38.2068733312" lon="-2.7156324405">
        <ele>827.83</ele>
        <time>2017-10-09T15:34:01Z</time>
      </trkpt>
      <trkpt lat="38.2070237864" lon="-2.7159591671">
        <ele>828.31</ele>
        <time>2017-10-09T15:34:13Z</time>
      </trkpt>
      <trkpt lat="38.2072827034" lon="-2.7161940280">
        <ele>830.24</ele>
        <time>2017-10-09T15:34:27Z</time>
      </trkpt>
      <trkpt lat="38.2074725535" lon="-2.7163139731">
        <ele>831.20</ele>
        <time>2017-10-09T15:34:37Z</time>
      </trkpt>
      <trkpt lat="38.2076726295" lon="-2.7164036594">
        <ele>834.08</ele>
        <time>2017-10-09T15:34:48Z</time>
      </trkpt>
      <trkpt lat="38.2078737952" lon="-2.7164822817">
        <ele>836.00</ele>
        <time>2017-10-09T15:34:58Z</time>
      </trkpt>
      <trkpt lat="38.2080073189" lon="-2.7165354230">
        <ele>837.45</ele>
        <time>2017-10-09T15:35:05Z</time>
      </trkpt>
      <trkpt lat="38.2080782298" lon="-2.7165749855">
        <ele>838.89</ele>
        <time>2017-10-09T15:35:09Z</time>
      </trkpt>
      <trkpt lat="38.2082387432" lon="-2.7167208306">
        <ele>840.33</ele>
        <time>2017-10-09T15:35:20Z</time>
      </trkpt>
      <trkpt lat="38.2082524896" lon="-2.7167323139">
        <ele>840.33</ele>
        <time>2017-10-09T15:35:21Z</time>
      </trkpt>
      <trkpt lat="38.2084061299" lon="-2.7169712819">
        <ele>841.77</ele>
        <time>2017-10-09T15:35:34Z</time>
      </trkpt>
      <trkpt lat="38.2086917851" lon="-2.7171774767">
        <ele>843.69</ele>
        <time>2017-10-09T15:35:50Z</time>
      </trkpt>
      <trkpt lat="38.2089025062" lon="-2.7172765508">
        <ele>845.62</ele>
        <time>2017-10-09T15:36:02Z</time>
      </trkpt>
      <trkpt lat="38.2089525461" lon="-2.7173006907">
        <ele>845.62</ele>
        <time>2017-10-09T15:36:05Z</time>
      </trkpt>
      <trkpt lat="38.2090615109" lon="-2.7173903771">
        <ele>846.58</ele>
        <time>2017-10-09T15:36:13Z</time>
      </trkpt>
      <trkpt lat="38.2090960443" lon="-2.7174521517">
        <ele>846.58</ele>
        <time>2017-10-09T15:36:16Z</time>
      </trkpt>
      <trkpt lat="38.2092320826" lon="-2.7176776249">
        <ele>847.06</ele>
        <time>2017-10-09T15:36:28Z</time>
      </trkpt>
      <trkpt lat="38.2092522830" lon="-2.7176915389">
        <ele>847.06</ele>
        <time>2017-10-09T15:36:39Z</time>
      </trkpt>
      <trkpt lat="38.2092446554" lon="-2.7176862583">
        <ele>847.06</ele>
        <time>2017-10-09T15:36:52Z</time>
      </trkpt>
      <trkpt lat="38.2092447393" lon="-2.7176818997">
        <ele>847.06</ele>
        <time>2017-10-09T15:36:55Z</time>
      </trkpt>
      <trkpt lat="38.2093612477" lon="-2.7176924609">
        <ele>846.58</ele>
        <time>2017-10-09T15:37:01Z</time>
      </trkpt>
      <trkpt lat="38.2097103540" lon="-2.7177922893">
        <ele>844.66</ele>
        <time>2017-10-09T15:37:13Z</time>
      </trkpt>
      <trkpt lat="38.2097552810" lon="-2.7177996654">
        <ele>844.66</ele>
        <time>2017-10-09T15:37:14Z</time>
      </trkpt>
      <trkpt lat="38.2098023035" lon="-2.7178124897">
        <ele>844.18</ele>
        <time>2017-10-09T15:37:15Z</time>
      </trkpt>
      <trkpt lat="38.2098522596" lon="-2.7178240567">
        <ele>844.18</ele>
        <time>2017-10-09T15:37:16Z</time>
      </trkpt>
      <trkpt lat="38.2099019643" lon="-2.7178360429">
        <ele>844.18</ele>
        <time>2017-10-09T15:37:17Z</time>
      </trkpt>
      <trkpt lat="38.2100055646" lon="-2.7178739291">
        <ele>843.69</ele>
        <time>2017-10-09T15:37:19Z</time>
      </trkpt>
      <trkpt lat="38.2100590412" lon="-2.7178992424">
        <ele>843.21</ele>
        <time>2017-10-09T15:37:20Z</time>
      </trkpt>
      <trkpt lat="38.2106166054" lon="-2.7181978058">
        <ele>843.21</ele>
        <time>2017-10-09T15:37:32Z</time>
      </trkpt>
      <trkpt lat="38.2109217905" lon="-2.7183644380">
        <ele>844.66</ele>
        <time>2017-10-09T15:37:42Z</time>
      </trkpt>
      <trkpt lat="38.2111475151" lon="-2.7187225968">
        <ele>845.14</ele>
        <time>2017-10-09T15:37:54Z</time>
      </trkpt>
      <trkpt lat="38.2111967169" lon="-2.7190072462">
        <ele>845.14</ele>
        <time>2017-10-09T15:38:03Z</time>
      </trkpt>
      <trkpt lat="38.2112169173" lon="-2.7190401033">
        <ele>845.62</ele>
        <time>2017-10-09T15:38:05Z</time>
      </trkpt>
      <trkpt lat="38.2112268917" lon="-2.7190668415">
        <ele>845.14</ele>
        <time>2017-10-09T15:38:14Z</time>
      </trkpt>
      <trkpt lat="38.2112277299" lon="-2.7190639079">
        <ele>846.10</ele>
        <time>2017-10-09T15:38:29Z</time>
      </trkpt>
      <trkpt lat="38.2112289034" lon="-2.7190630697">
        <ele>845.14</ele>
        <time>2017-10-09T15:38:31Z</time>
      </trkpt>
      <trkpt lat="38.2112792786" lon="-2.7190862037">
        <ele>845.62</ele>
        <time>2017-10-09T15:38:41Z</time>
      </trkpt>
      <trkpt lat="38.2112972997" lon="-2.7191082481">
        <ele>845.62</ele>
        <time>2017-10-09T15:38:42Z</time>
      </trkpt>
      <trkpt lat="38.2113729883" lon="-2.7192507405">
        <ele>846.10</ele>
        <time>2017-10-09T15:38:46Z</time>
      </trkpt>
      <trkpt lat="38.2115825359" lon="-2.7197874337">
        <ele>846.10</ele>
        <time>2017-10-09T15:38:57Z</time>
      </trkpt>
      <trkpt lat="38.2117121201" lon="-2.7200099733">
        <ele>846.58</ele>
        <time>2017-10-09T15:39:06Z</time>
      </trkpt>
      <trkpt lat="38.2117257826" lon="-2.7200237196">
        <ele>846.58</ele>
        <time>2017-10-09T15:39:17Z</time>
      </trkpt>
      <trkpt lat="38.2117407024" lon="-2.7200217918">
        <ele>846.10</ele>
        <time>2017-10-09T15:39:18Z</time>
      </trkpt>
      <trkpt lat="38.2117568795" lon="-2.7200222947">
        <ele>847.06</ele>
        <time>2017-10-09T15:39:19Z</time>
      </trkpt>
      <trkpt lat="38.2117718831" lon="-2.7200270724">
        <ele>846.58</ele>
        <time>2017-10-09T15:39:20Z</time>
      </trkpt>
      <trkpt lat="38.2117868029" lon="-2.7200348675">
        <ele>846.10</ele>
        <time>2017-10-09T15:39:21Z</time>
      </trkpt>
      <trkpt lat="38.2118029799" lon="-2.7200448420">
        <ele>846.58</ele>
        <time>2017-10-09T15:39:22Z</time>
      </trkpt>
      <trkpt lat="38.2120223343" lon="-2.7200961392">
        <ele>847.06</ele>
        <time>2017-10-09T15:39:34Z</time>
      </trkpt>
      <trkpt lat="38.2122143637" lon="-2.7200272400">
        <ele>846.58</ele>
        <time>2017-10-09T15:39:42Z</time>
      </trkpt>
      <trkpt lat="38.2124985941" lon="-2.7199813910">
        <ele>847.06</ele>
        <time>2017-10-09T15:39:53Z</time>
      </trkpt>
      <trkpt lat="38.2127468660" lon="-2.7198637091">
        <ele>847.06</ele>
        <time>2017-10-09T15:40:03Z</time>
      </trkpt>
      <trkpt lat="38.2130084652" lon="-2.7196957357">
        <ele>847.54</ele>
        <time>2017-10-09T15:40:13Z</time>
      </trkpt>
      <trkpt lat="38.2130251452" lon="-2.7196695842">
        <ele>847.54</ele>
        <time>2017-10-09T15:40:14Z</time>
      </trkpt>
      <trkpt lat="38.2130503748" lon="-2.7196506411">
        <ele>847.54</ele>
        <time>2017-10-09T15:40:15Z</time>
      </trkpt>
      <trkpt lat="38.2130798791" lon="-2.7196415886">
        <ele>847.54</ele>
        <time>2017-10-09T15:40:16Z</time>
      </trkpt>
      <trkpt lat="38.2131114788" lon="-2.7196336258">
        <ele>847.54</ele>
        <time>2017-10-09T15:40:17Z</time>
      </trkpt>
      <trkpt lat="38.2131422404" lon="-2.7196234837">
        <ele>847.54</ele>
        <time>2017-10-09T15:40:18Z</time>
      </trkpt>
      <trkpt lat="38.2131708227" lon="-2.7196083125">
        <ele>847.54</ele>
        <time>2017-10-09T15:40:19Z</time>
      </trkpt>
      <trkpt lat="38.2135700528" lon="-2.7193217352">
        <ele>846.10</ele>
        <time>2017-10-09T15:40:32Z</time>
      </trkpt>
      <trkpt lat="38.2135941926" lon="-2.7192800771">
        <ele>846.10</ele>
        <time>2017-10-09T15:40:33Z</time>
      </trkpt>
      <trkpt lat="38.2136180811" lon="-2.7192363236">
        <ele>845.62</ele>
        <time>2017-10-09T15:40:34Z</time>
      </trkpt>
      <trkpt lat="38.2136481721" lon="-2.7191956714">
        <ele>845.62</ele>
        <time>2017-10-09T15:40:35Z</time>
      </trkpt>
      <trkpt lat="38.2136833761" lon="-2.7191584557">
        <ele>845.62</ele>
        <time>2017-10-09T15:40:36Z</time>
      </trkpt>
      <trkpt lat="38.2137234416" lon="-2.7191221621">
        <ele>845.14</ele>
        <time>2017-10-09T15:40:37Z</time>
      </trkpt>
      <trkpt lat="38.2141096797" lon="-2.7188839484">
        <ele>844.18</ele>
        <time>2017-10-09T15:40:45Z</time>
      </trkpt>
      <trkpt lat="38.2141931634" lon="-2.7188213356">
        <ele>844.18</ele>
        <time>2017-10-09T15:40:47Z</time>
      </trkpt>
      <trkpt lat="38.2143843547" lon="-2.7186806872">
        <ele>846.10</ele>
        <time>2017-10-09T15:40:55Z</time>
      </trkpt>
      <trkpt lat="38.2145671640" lon="-2.7186235227">
        <ele>848.02</ele>
        <time>2017-10-09T15:41:05Z</time>
      </trkpt>
      <trkpt lat="38.2145799883" lon="-2.7186086867">
        <ele>848.02</ele>
        <time>2017-10-09T15:41:06Z</time>
      </trkpt>
      <trkpt lat="38.2145888731" lon="-2.7185866423">
        <ele>848.50</ele>
        <time>2017-10-09T15:41:07Z</time>
      </trkpt>
      <trkpt lat="38.2145990152" lon="-2.7185618319">
        <ele>848.50</ele>
        <time>2017-10-09T15:41:08Z</time>
      </trkpt>
      <trkpt lat="38.2146148570" lon="-2.7185426373">
        <ele>848.98</ele>
        <time>2017-10-09T15:41:09Z</time>
      </trkpt>
      <trkpt lat="38.2146365661" lon="-2.7185398713">
        <ele>848.98</ele>
        <time>2017-10-09T15:41:10Z</time>
      </trkpt>
      <trkpt lat="38.2146587782" lon="-2.7185509354">
        <ele>849.46</ele>
        <time>2017-10-09T15:41:11Z</time>
      </trkpt>
      <trkpt lat="38.2146807387" lon="-2.7185599878">
        <ele>849.46</ele>
        <time>2017-10-09T15:41:12Z</time>
      </trkpt>
      <trkpt lat="38.2147020288" lon="-2.7185576409">
        <ele>849.94</ele>
        <time>2017-10-09T15:41:13Z</time>
      </trkpt>
      <trkpt lat="38.2147190440" lon="-2.7185420506">
        <ele>849.94</ele>
        <time>2017-10-09T15:41:14Z</time>
      </trkpt>
      <trkpt lat="38.2147321198" lon="-2.7185205929">
        <ele>849.94</ele>
        <time>2017-10-09T15:41:15Z</time>
      </trkpt>
      <trkpt lat="38.2147420105" lon="-2.7184963692">
        <ele>849.94</ele>
        <time>2017-10-09T15:41:16Z</time>
      </trkpt>
      <trkpt lat="38.2147554215" lon="-2.7184803598">
        <ele>850.42</ele>
        <time>2017-10-09T15:41:17Z</time>
      </trkpt>
      <trkpt lat="38.2147754543" lon="-2.7184798568">
        <ele>850.42</ele>
        <time>2017-10-09T15:41:18Z</time>
      </trkpt>
      <trkpt lat="38.2147979178" lon="-2.7184848860">
        <ele>851.38</ele>
        <time>2017-10-09T15:41:19Z</time>
      </trkpt>
      <trkpt lat="38.2148204651" lon="-2.7184831258">
        <ele>850.90</ele>
        <time>2017-10-09T15:41:20Z</time>
      </trkpt>
      <trkpt lat="38.2148404978" lon="-2.7184706368">
        <ele>850.90</ele>
        <time>2017-10-09T15:41:21Z</time>
      </trkpt>
      <trkpt lat="38.2148559205" lon="-2.7184501011">
        <ele>850.90</ele>
        <time>2017-10-09T15:41:22Z</time>
      </trkpt>
      <trkpt lat="38.2148714270" lon="-2.7184309904">
        <ele>851.38</ele>
        <time>2017-10-09T15:41:23Z</time>
      </trkpt>
      <trkpt lat="38.2148895320" lon="-2.7184174117">
        <ele>851.38</ele>
        <time>2017-10-09T15:41:24Z</time>
      </trkpt>
      <trkpt lat="38.2149074692" lon="-2.7184086107">
        <ele>851.38</ele>
        <time>2017-10-09T15:41:25Z</time>
      </trkpt>
      <trkpt lat="38.2149249036" lon="-2.7184037492">
        <ele>851.87</ele>
        <time>2017-10-09T15:41:26Z</time>
      </trkpt>
      <trkpt lat="38.2149428409" lon="-2.7184003126">
        <ele>851.87</ele>
        <time>2017-10-09T15:41:27Z</time>
      </trkpt>
      <trkpt lat="38.2149624545" lon="-2.7183971275">
        <ele>852.35</ele>
        <time>2017-10-09T15:41:28Z</time>
      </trkpt>
      <trkpt lat="38.2151163463" lon="-2.7182766795">
        <ele>854.75</ele>
        <time>2017-10-09T15:41:38Z</time>
      </trkpt>
      <trkpt lat="38.2151456829" lon="-2.7182853967">
        <ele>855.71</ele>
        <time>2017-10-09T15:41:41Z</time>
      </trkpt>
      <trkpt lat="38.2151921187" lon="-2.7182728238">
        <ele>855.71</ele>
        <time>2017-10-09T15:41:49Z</time>
      </trkpt>
      <trkpt lat="38.2152294181" lon="-2.7182442416">
        <ele>856.67</ele>
        <time>2017-10-09T15:41:58Z</time>
      </trkpt>
      <trkpt lat="38.2153111417" lon="-2.7181849815">
        <ele>858.11</ele>
        <time>2017-10-09T15:42:08Z</time>
      </trkpt>
      <trkpt lat="38.2153907698" lon="-2.7181324270">
        <ele>859.56</ele>
        <time>2017-10-09T15:42:19Z</time>
      </trkpt>
      <trkpt lat="38.2154239621" lon="-2.7181078680">
        <ele>860.52</ele>
        <time>2017-10-09T15:42:32Z</time>
      </trkpt>
      <trkpt lat="38.2154874131" lon="-2.7180429082">
        <ele>861.48</ele>
        <time>2017-10-09T15:42:42Z</time>
      </trkpt>
      <trkpt lat="38.2155867387" lon="-2.7179665491">
        <ele>863.40</ele>
        <time>2017-10-09T15:42:53Z</time>
      </trkpt>
      <trkpt lat="38.2156741619" lon="-2.7178810537">
        <ele>864.84</ele>
        <time>2017-10-09T15:43:05Z</time>
      </trkpt>
      <trkpt lat="38.2157208491" lon="-2.7178496215">
        <ele>865.80</ele>
        <time>2017-10-09T15:43:11Z</time>
      </trkpt>
      <trkpt lat="38.2157944422" lon="-2.7177825663">
        <ele>867.25</ele>
        <time>2017-10-09T15:43:20Z</time>
      </trkpt>
      <trkpt lat="38.2157958671" lon="-2.7177675627">
        <ele>867.25</ele>
        <time>2017-10-09T15:43:21Z</time>
      </trkpt>
      <trkpt lat="38.2158045843" lon="-2.7177595999">
        <ele>867.25</ele>
        <time>2017-10-09T15:43:22Z</time>
      </trkpt>
      <trkpt lat="38.2159083523" lon="-2.7176371403">
        <ele>869.17</ele>
        <time>2017-10-09T15:43:36Z</time>
      </trkpt>
      <trkpt lat="38.2160406187" lon="-2.7176161017">
        <ele>870.13</ele>
        <time>2017-10-09T15:43:49Z</time>
      </trkpt>
      <trkpt lat="38.2161281258" lon="-2.7175710071">
        <ele>871.09</ele>
        <time>2017-10-09T15:43:58Z</time>
      </trkpt>
      <trkpt lat="38.2161461469" lon="-2.7175566740">
        <ele>871.57</ele>
        <time>2017-10-09T15:44:03Z</time>
      </trkpt>
      <trkpt lat="38.2161465660" lon="-2.7175880224">
        <ele>871.09</ele>
        <time>2017-10-09T15:44:06Z</time>
      </trkpt>
      <trkpt lat="38.2161526009" lon="-2.7176247351">
        <ele>871.57</ele>
        <time>2017-10-09T15:44:09Z</time>
      </trkpt>
      <trkpt lat="38.2161598094" lon="-2.7176629566">
        <ele>871.57</ele>
        <time>2017-10-09T15:44:12Z</time>
      </trkpt>
      <trkpt lat="38.2161370106" lon="-2.7177060395">
        <ele>872.05</ele>
        <time>2017-10-09T15:44:20Z</time>
      </trkpt>
      <trkpt lat="38.2161313109" lon="-2.7177191991">
        <ele>872.05</ele>
        <time>2017-10-09T15:44:30Z</time>
      </trkpt>
      <trkpt lat="38.2161259465" lon="-2.7177150920">
        <ele>872.05</ele>
        <time>2017-10-09T15:44:40Z</time>
      </trkpt>
      <trkpt lat="38.2161293831" lon="-2.7177123260">
        <ele>872.05</ele>
        <time>2017-10-09T15:44:53Z</time>
      </trkpt>
      <trkpt lat="38.2161259465" lon="-2.7176990826">
        <ele>871.57</ele>
        <time>2017-10-09T15:44:54Z</time>
      </trkpt>
      <trkpt lat="38.2161098532" lon="-2.7176983282">
        <ele>872.05</ele>
        <time>2017-10-09T15:45:02Z</time>
      </trkpt>
      <trkpt lat="38.2160753198" lon="-2.7176510543">
        <ele>872.53</ele>
        <time>2017-10-09T15:45:11Z</time>
      </trkpt>
      <trkpt lat="38.2160636690" lon="-2.7176645491">
        <ele>872.05</ele>
        <time>2017-10-09T15:45:21Z</time>
      </trkpt>
      <trkpt lat="38.2160749845" lon="-2.7176854201">
        <ele>872.05</ele>
        <time>2017-10-09T15:45:36Z</time>
      </trkpt>
      <trkpt lat="38.2160667703" lon="-2.7176863421">
        <ele>872.05</ele>
        <time>2017-10-09T15:46:01Z</time>
      </trkpt>
      <trkpt lat="38.2160483301" lon="-2.7176853362">
        <ele>872.53</ele>
        <time>2017-10-09T15:46:23Z</time>
      </trkpt>
      <trkpt lat="38.2160505932" lon="-2.7176839951">
        <ele>873.50</ele>
        <time>2017-10-09T15:46:40Z</time>
      </trkpt>
      <trkpt lat="38.2160491683" lon="-2.7176856715">
        <ele>873.01</ele>
        <time>2017-10-09T15:46:51Z</time>
      </trkpt>
      <trkpt lat="38.2160516828" lon="-2.7176597714">
        <ele>872.05</ele>
        <time>2017-10-09T15:47:03Z</time>
      </trkpt>
      <trkpt lat="38.2160510961" lon="-2.7176596038">
        <ele>873.01</ele>
        <time>2017-10-09T15:47:14Z</time>
      </trkpt>
      <trkpt lat="38.2160485815" lon="-2.7176510543">
        <ele>869.65</ele>
        <time>2017-10-09T15:47:26Z</time>
      </trkpt>
      <trkpt lat="38.2160487492" lon="-2.7176502999">
        <ele>875.42</ele>
        <time>2017-10-09T15:47:27Z</time>
      </trkpt>
      <trkpt lat="38.2160435524" lon="-2.7176432591">
        <ele>872.05</ele>
        <time>2017-10-09T15:47:47Z</time>
      </trkpt>
      <trkpt lat="38.2165024616" lon="-2.7170693502">
        <ele>836.96</ele>
        <time>2017-10-10T08:41:26Z</time>
      </trkpt>
      <trkpt lat="38.2165027969" lon="-2.7170698531">
        <ele>838.89</ele>
        <time>2017-10-10T08:41:28Z</time>
      </trkpt>
      <trkpt lat="38.2165067364" lon="-2.7170683444">
        <ele>842.25</ele>
        <time>2017-10-10T08:41:33Z</time>
      </trkpt>
      <trkpt lat="38.2165065687" lon="-2.7170844376">
        <ele>844.66</ele>
        <time>2017-10-10T08:41:37Z</time>
      </trkpt>
      <trkpt lat="38.2165532559" lon="-2.7170999441">
        <ele>803.32</ele>
        <time>2017-10-10T08:51:21Z</time>
      </trkpt>
      <trkpt lat="38.2165300380" lon="-2.7170882933">
        <ele>803.32</ele>
        <time>2017-10-10T08:51:22Z</time>
      </trkpt>
      <trkpt lat="38.2165039703" lon="-2.7170825936">
        <ele>807.64</ele>
        <time>2017-10-10T08:51:28Z</time>
      </trkpt>
      <trkpt lat="38.2165045571" lon="-2.7170706075">
        <ele>811.97</ele>
        <time>2017-10-10T08:51:30Z</time>
      </trkpt>
      <trkpt lat="38.2164953370" lon="-2.7170794085">
        <ele>816.30</ele>
        <time>2017-10-10T08:51:32Z</time>
      </trkpt>
      <trkpt lat="38.2164871227" lon="-2.7170950826">
        <ele>819.18</ele>
        <time>2017-10-10T08:51:34Z</time>
      </trkpt>
      <trkpt lat="38.2164926548" lon="-2.7170823421">
        <ele>823.51</ele>
        <time>2017-10-10T08:51:36Z</time>
      </trkpt>
      <trkpt lat="38.2164978515" lon="-2.7170782350">
        <ele>826.87</ele>
        <time>2017-10-10T08:51:38Z</time>
      </trkpt>
      <trkpt lat="38.2165018748" lon="-2.7170778997">
        <ele>829.76</ele>
        <time>2017-10-10T08:51:40Z</time>
      </trkpt>
      <trkpt lat="38.2165060658" lon="-2.7170774806">
        <ele>834.08</ele>
        <time>2017-10-10T08:51:43Z</time>
      </trkpt>
      <trkpt lat="38.2165115140" lon="-2.7170827612">
        <ele>837.45</ele>
        <time>2017-10-10T08:51:46Z</time>
      </trkpt>
      <trkpt lat="38.2165099215" lon="-2.7170835994">
        <ele>840.33</ele>
        <time>2017-10-10T08:51:49Z</time>
      </trkpt>
      <trkpt lat="38.2164982706" lon="-2.7170806658">
        <ele>844.18</ele>
        <time>2017-10-10T08:51:53Z</time>
      </trkpt>
      <trkpt lat="38.2164964266" lon="-2.7170674223">
        <ele>848.02</ele>
        <time>2017-10-10T08:51:57Z</time>
      </trkpt>
      <trkpt lat="38.2164867036" lon="-2.7170612197">
        <ele>851.38</ele>
        <time>2017-10-10T08:52:02Z</time>
      </trkpt>
      <trkpt lat="38.2164850272" lon="-2.7170587890">
        <ele>854.75</ele>
        <time>2017-10-10T08:52:08Z</time>
      </trkpt>
      <trkpt lat="38.2164813392" lon="-2.7170582861">
        <ele>857.15</ele>
        <time>2017-10-10T08:52:13Z</time>
      </trkpt>
      <trkpt lat="38.2164807525" lon="-2.7170564421">
        <ele>858.11</ele>
        <time>2017-10-10T08:52:14Z</time>
      </trkpt>
      <trkpt lat="38.2164590433" lon="-2.7170003671">
        <ele>860.04</ele>
        <time>2017-10-10T08:52:19Z</time>
      </trkpt>
      <trkpt lat="38.2165649068" lon="-2.7167672664">
        <ele>861.00</ele>
        <time>2017-10-10T08:52:26Z</time>
      </trkpt>
      <trkpt lat="38.2166032121" lon="-2.7167319786">
        <ele>860.52</ele>
        <time>2017-10-10T08:52:27Z</time>
      </trkpt>
      <trkpt lat="38.2170266658" lon="-2.7164899092">
        <ele>859.56</ele>
        <time>2017-10-10T08:52:35Z</time>
      </trkpt>
      <trkpt lat="38.2171936333" lon="-2.7163917571">
        <ele>859.56</ele>
        <time>2017-10-10T08:52:39Z</time>
      </trkpt>
      <trkpt lat="38.2173135784" lon="-2.7163017355">
        <ele>858.59</ele>
        <time>2017-10-10T08:52:42Z</time>
      </trkpt>
      <trkpt lat="38.2174238004" lon="-2.7161759231">
        <ele>858.11</ele>
        <time>2017-10-10T08:52:45Z</time>
      </trkpt>
      <trkpt lat="38.2177391276" lon="-2.7157731727">
        <ele>856.19</ele>
        <time>2017-10-10T08:52:52Z</time>
      </trkpt>
      <trkpt lat="38.2178037520" lon="-2.7157250606">
        <ele>856.19</ele>
        <time>2017-10-10T08:52:53Z</time>
      </trkpt>
      <trkpt lat="38.2178730704" lon="-2.7156871744">
        <ele>855.71</ele>
        <time>2017-10-10T08:52:54Z</time>
      </trkpt>
      <trkpt lat="38.2179478370" lon="-2.7156544011">
        <ele>855.23</ele>
        <time>2017-10-10T08:52:55Z</time>
      </trkpt>
      <trkpt lat="38.2180289738" lon="-2.7156268246">
        <ele>855.23</ele>
        <time>2017-10-10T08:52:56Z</time>
      </trkpt>
      <trkpt lat="38.2181133796" lon="-2.7156020980">
        <ele>854.75</ele>
        <time>2017-10-10T08:52:57Z</time>
      </trkpt>
      <trkpt lat="38.2185664214" lon="-2.7154104039">
        <ele>851.38</ele>
        <time>2017-10-10T08:53:03Z</time>
      </trkpt>
      <trkpt lat="38.2186687645" lon="-2.7153488807">
        <ele>850.90</ele>
        <time>2017-10-10T08:53:05Z</time>
      </trkpt>
      <trkpt lat="38.2188588660" lon="-2.7152340487">
        <ele>848.98</ele>
        <time>2017-10-10T08:53:12Z</time>
      </trkpt>
      <trkpt lat="38.2191460300" lon="-2.7150713559">
        <ele>848.50</ele>
        <time>2017-10-10T08:53:24Z</time>
      </trkpt>
      <trkpt lat="38.2195118163" lon="-2.7148599643">
        <ele>848.50</ele>
        <time>2017-10-10T08:53:38Z</time>
      </trkpt>
      <trkpt lat="38.2198400516" lon="-2.7145599760">
        <ele>848.50</ele>
        <time>2017-10-10T08:53:50Z</time>
      </trkpt>
      <trkpt lat="38.2199750841" lon="-2.7143862192">
        <ele>848.50</ele>
        <time>2017-10-10T08:53:58Z</time>
      </trkpt>
      <trkpt lat="38.2199881598" lon="-2.7143738139">
        <ele>848.50</ele>
        <time>2017-10-10T08:53:59Z</time>
      </trkpt>
      <trkpt lat="38.2199984696" lon="-2.7143595647">
        <ele>848.50</ele>
        <time>2017-10-10T08:54:00Z</time>
      </trkpt>
      <trkpt lat="38.2200083602" lon="-2.7143473271">
        <ele>848.50</ele>
        <time>2017-10-10T08:54:01Z</time>
      </trkpt>
      <trkpt lat="38.2200174127" lon="-2.7143330779">
        <ele>848.50</ele>
        <time>2017-10-10T08:54:02Z</time>
      </trkpt>
      <trkpt lat="38.2200233638" lon="-2.7143200021">
        <ele>848.50</ele>
        <time>2017-10-10T08:54:03Z</time>
      </trkpt>
      <trkpt lat="38.2200675365" lon="-2.7142537013">
        <ele>848.50</ele>
        <time>2017-10-10T08:54:13Z</time>
      </trkpt>
      <trkpt lat="38.2200737391" lon="-2.7142407931">
        <ele>848.50</ele>
        <time>2017-10-10T08:54:25Z</time>
      </trkpt>
      <trkpt lat="38.2200734876" lon="-2.7142388653">
        <ele>848.50</ele>
        <time>2017-10-10T08:54:42Z</time>
      </trkpt>
      <trkpt lat="38.2200804446" lon="-2.7142246999">
        <ele>848.50</ele>
        <time>2017-10-10T08:55:06Z</time>
      </trkpt>
      <trkpt lat="38.2200853899" lon="-2.7142218500">
        <ele>848.50</ele>
        <time>2017-10-10T08:55:29Z</time>
      </trkpt>
      <trkpt lat="38.2200772595" lon="-2.7142257895">
        <ele>848.50</ele>
        <time>2017-10-10T08:55:52Z</time>
      </trkpt>
      <trkpt lat="38.2200719789" lon="-2.7142400388">
        <ele>848.98</ele>
        <time>2017-10-10T08:56:10Z</time>
      </trkpt>
      <trkpt lat="38.2200911734" lon="-2.7142537851">
        <ele>848.50</ele>
        <time>2017-10-10T08:56:20Z</time>
      </trkpt>
      <trkpt lat="38.2200900000" lon="-2.7142593171">
        <ele>848.50</ele>
        <time>2017-10-10T08:56:32Z</time>
      </trkpt>
      <trkpt lat="38.2200979628" lon="-2.7142419666">
        <ele>848.50</ele>
        <time>2017-10-10T08:56:48Z</time>
      </trkpt>
      <trkpt lat="38.2202341687" lon="-2.7140824590">
        <ele>848.50</ele>
        <time>2017-10-10T08:56:56Z</time>
      </trkpt>
      <trkpt lat="38.2204872184" lon="-2.7137139067">
        <ele>848.02</ele>
        <time>2017-10-10T08:57:06Z</time>
      </trkpt>
      <trkpt lat="38.2206263579" lon="-2.7134053688">
        <ele>846.58</ele>
        <time>2017-10-10T08:57:11Z</time>
      </trkpt>
      <trkpt lat="38.2207344007" lon="-2.7131793089">
        <ele>845.62</ele>
        <time>2017-10-10T08:57:15Z</time>
      </trkpt>
      <trkpt lat="38.2209130190" lon="-2.7128254250">
        <ele>844.66</ele>
        <time>2017-10-10T08:57:21Z</time>
      </trkpt>
      <trkpt lat="38.2209555153" lon="-2.7127745468">
        <ele>844.66</ele>
        <time>2017-10-10T08:57:22Z</time>
      </trkpt>
      <trkpt lat="38.2210041303" lon="-2.7127318829">
        <ele>844.18</ele>
        <time>2017-10-10T08:57:23Z</time>
      </trkpt>
      <trkpt lat="38.2211065572" lon="-2.7126553562">
        <ele>843.69</ele>
        <time>2017-10-10T08:57:25Z</time>
      </trkpt>
      <trkpt lat="38.2212032005" lon="-2.7125754766">
        <ele>842.73</ele>
        <time>2017-10-10T08:57:27Z</time>
      </trkpt>
      <trkpt lat="38.2212549169" lon="-2.7125503309">
        <ele>842.25</ele>
        <time>2017-10-10T08:57:28Z</time>
      </trkpt>
      <trkpt lat="38.2213096507" lon="-2.7125412785">
        <ele>841.77</ele>
        <time>2017-10-10T08:57:29Z</time>
      </trkpt>
      <trkpt lat="38.2213637978" lon="-2.7125555277">
        <ele>841.77</ele>
        <time>2017-10-10T08:57:30Z</time>
      </trkpt>
      <trkpt lat="38.2214088924" lon="-2.7125930786">
        <ele>840.81</ele>
        <time>2017-10-10T08:57:31Z</time>
      </trkpt>
      <trkpt lat="38.2214415818" lon="-2.7126452979">
        <ele>840.33</ele>
        <time>2017-10-10T08:57:32Z</time>
      </trkpt>
      <trkpt lat="38.2214611955" lon="-2.7127083298">
        <ele>839.85</ele>
        <time>2017-10-10T08:57:33Z</time>
      </trkpt>
      <trkpt lat="38.2214629557" lon="-2.7127799112">
        <ele>839.37</ele>
        <time>2017-10-10T08:57:34Z</time>
      </trkpt>
      <trkpt lat="38.2214443479" lon="-2.7128557675">
        <ele>838.89</ele>
        <time>2017-10-10T08:57:35Z</time>
      </trkpt>
      <trkpt lat="38.2214071322" lon="-2.7129321266">
        <ele>838.41</ele>
        <time>2017-10-10T08:57:36Z</time>
      </trkpt>
      <trkpt lat="38.2213540748" lon="-2.7130053006">
        <ele>837.45</ele>
        <time>2017-10-10T08:57:37Z</time>
      </trkpt>
      <trkpt lat="38.2212954015" lon="-2.7130791452">
        <ele>836.96</ele>
        <time>2017-10-10T08:57:38Z</time>
      </trkpt>
      <trkpt lat="38.2211185433" lon="-2.7133334521">
        <ele>835.04</ele>
        <time>2017-10-10T08:57:41Z</time>
      </trkpt>
      <trkpt lat="38.2210752927" lon="-2.7134380583">
        <ele>834.56</ele>
        <time>2017-10-10T08:57:42Z</time>
      </trkpt>
      <trkpt lat="38.2210457046" lon="-2.7135515492">
        <ele>833.60</ele>
        <time>2017-10-10T08:57:43Z</time>
      </trkpt>
      <trkpt lat="38.2210303657" lon="-2.7136706561">
        <ele>832.64</ele>
        <time>2017-10-10T08:57:44Z</time>
      </trkpt>
      <trkpt lat="38.2210336346" lon="-2.7137957979">
        <ele>832.16</ele>
        <time>2017-10-10T08:57:45Z</time>
      </trkpt>
      <trkpt lat="38.2210503984" lon="-2.7139236219">
        <ele>831.68</ele>
        <time>2017-10-10T08:57:46Z</time>
      </trkpt>
      <trkpt lat="38.2210690901" lon="-2.7140490152">
        <ele>830.24</ele>
        <time>2017-10-10T08:57:47Z</time>
      </trkpt>
      <trkpt lat="38.2210800704" lon="-2.7141635958">
        <ele>829.76</ele>
        <time>2017-10-10T08:57:48Z</time>
      </trkpt>
      <trkpt lat="38.2210922241" lon="-2.7144558728">
        <ele>826.87</ele>
        <time>2017-10-10T08:57:51Z</time>
      </trkpt>
      <trkpt lat="38.2210736163" lon="-2.7145471517">
        <ele>826.39</ele>
        <time>2017-10-10T08:57:52Z</time>
      </trkpt>
      <trkpt lat="38.2210364006" lon="-2.7146381792">
        <ele>825.91</ele>
        <time>2017-10-10T08:57:53Z</time>
      </trkpt>
      <trkpt lat="38.2209806610" lon="-2.7147237584">
        <ele>824.95</ele>
        <time>2017-10-10T08:57:54Z</time>
      </trkpt>
      <trkpt lat="38.2209105883" lon="-2.7147976868">
        <ele>823.99</ele>
        <time>2017-10-10T08:57:55Z</time>
      </trkpt>
      <trkpt lat="38.2208290324" lon="-2.7148589585">
        <ele>823.51</ele>
        <time>2017-10-10T08:57:56Z</time>
      </trkpt>
      <trkpt lat="38.2207405195" lon="-2.7149137761">
        <ele>822.55</ele>
        <time>2017-10-10T08:57:57Z</time>
      </trkpt>
      <trkpt lat="38.2202858850" lon="-2.7152677439">
        <ele>818.70</ele>
        <time>2017-10-10T08:58:02Z</time>
      </trkpt>
      <trkpt lat="38.2199102920" lon="-2.7156243101">
        <ele>815.34</ele>
        <time>2017-10-10T08:58:06Z</time>
      </trkpt>
      <trkpt lat="38.2198308315" lon="-2.7157414053">
        <ele>814.37</ele>
        <time>2017-10-10T08:58:07Z</time>
      </trkpt>
      <trkpt lat="38.2195440866" lon="-2.7162651066">
        <ele>811.01</ele>
        <time>2017-10-10T08:58:11Z</time>
      </trkpt>
      <trkpt lat="38.2193384785" lon="-2.7166770771">
        <ele>807.16</ele>
        <time>2017-10-10T08:58:14Z</time>
      </trkpt>
      <trkpt lat="38.2191934716" lon="-2.7170614712">
        <ele>803.32</ele>
        <time>2017-10-10T08:58:17Z</time>
      </trkpt>
      <trkpt lat="38.2191674039" lon="-2.7171607129">
        <ele>802.84</ele>
        <time>2017-10-10T08:58:18Z</time>
      </trkpt>
      <trkpt lat="38.2191549987" lon="-2.7172488067">
        <ele>801.40</ele>
        <time>2017-10-10T08:58:19Z</time>
      </trkpt>
      <trkpt lat="38.2191529032" lon="-2.7173294406">
        <ele>800.92</ele>
        <time>2017-10-10T08:58:20Z</time>
      </trkpt>
      <trkpt lat="38.2191579323" lon="-2.7174074762">
        <ele>800.44</ele>
        <time>2017-10-10T08:58:21Z</time>
      </trkpt>
      <trkpt lat="38.2191675715" lon="-2.7174852602">
        <ele>799.95</ele>
        <time>2017-10-10T08:58:22Z</time>
      </trkpt>
      <trkpt lat="38.2192645501" lon="-2.7179636993">
        <ele>796.11</ele>
        <time>2017-10-10T08:58:28Z</time>
      </trkpt>
      <trkpt lat="38.2193080522" lon="-2.7182066068">
        <ele>794.19</ele>
        <time>2017-10-10T08:58:32Z</time>
      </trkpt>
      <trkpt lat="38.2193233911" lon="-2.7182581555">
        <ele>793.71</ele>
        <time>2017-10-10T08:58:33Z</time>
      </trkpt>
      <trkpt lat="38.2193467766" lon="-2.7183076926">
        <ele>793.22</ele>
        <time>2017-10-10T08:58:34Z</time>
      </trkpt>
      <trkpt lat="38.2193771191" lon="-2.7183482610">
        <ele>792.26</ele>
        <time>2017-10-10T08:58:35Z</time>
      </trkpt>
      <trkpt lat="38.2194155082" lon="-2.7183700539">
        <ele>791.78</ele>
        <time>2017-10-10T08:58:36Z</time>
      </trkpt>
      <trkpt lat="38.2194550708" lon="-2.7183755022">
        <ele>790.82</ele>
        <time>2017-10-10T08:58:37Z</time>
      </trkpt>
      <trkpt lat="38.2194925379" lon="-2.7183625102">
        <ele>789.38</ele>
        <time>2017-10-10T08:58:38Z</time>
      </trkpt>
      <trkpt lat="38.2195249759" lon="-2.7183339279">
        <ele>788.90</ele>
        <time>2017-10-10T08:58:39Z</time>
      </trkpt>
      <trkpt lat="38.2195543963" lon="-2.7182923537">
        <ele>788.42</ele>
        <time>2017-10-10T08:58:40Z</time>
      </trkpt>
      <trkpt lat="38.2195777819" lon="-2.7182377875">
        <ele>787.94</ele>
        <time>2017-10-10T08:58:41Z</time>
      </trkpt>
      <trkpt lat="38.2195901033" lon="-2.7181714866">
        <ele>787.46</ele>
        <time>2017-10-10T08:58:42Z</time>
      </trkpt>
      <trkpt lat="38.2195956353" lon="-2.7180963010">
        <ele>786.98</ele>
        <time>2017-10-10T08:58:43Z</time>
      </trkpt>
      <trkpt lat="38.2195980661" lon="-2.7180195227">
        <ele>786.50</ele>
        <time>2017-10-10T08:58:44Z</time>
      </trkpt>
      <trkpt lat="38.2196161710" lon="-2.7178036049">
        <ele>785.05</ele>
        <time>2017-10-10T08:58:47Z</time>
      </trkpt>
      <trkpt lat="38.2196355332" lon="-2.7177423332">
        <ele>784.57</ele>
        <time>2017-10-10T08:58:48Z</time>
      </trkpt>
      <trkpt lat="38.2196578290" lon="-2.7176855039">
        <ele>784.09</ele>
        <time>2017-10-10T08:58:49Z</time>
      </trkpt>
      <trkpt lat="38.2196853217" lon="-2.7176301833">
        <ele>783.61</ele>
        <time>2017-10-10T08:58:50Z</time>
      </trkpt>
      <trkpt lat="38.2197185140" lon="-2.7175749466">
        <ele>783.61</ele>
        <time>2017-10-10T08:58:51Z</time>
      </trkpt>
      <trkpt lat="38.2197550591" lon="-2.7175223920">
        <ele>783.13</ele>
        <time>2017-10-10T08:58:52Z</time>
      </trkpt>
      <trkpt lat="38.2200529519" lon="-2.7171636466">
        <ele>779.77</ele>
        <time>2017-10-10T08:58:59Z</time>
      </trkpt>
      <trkpt lat="38.2202692050" lon="-2.7169105969">
        <ele>776.40</ele>
        <time>2017-10-10T08:59:05Z</time>
      </trkpt>
      <trkpt lat="38.2203068398" lon="-2.7168792486">
        <ele>776.40</ele>
        <time>2017-10-10T08:59:06Z</time>
      </trkpt>
      <trkpt lat="38.2203424629" lon="-2.7168484870">
        <ele>775.92</ele>
        <time>2017-10-10T08:59:07Z</time>
      </trkpt>
      <trkpt lat="38.2203792594" lon="-2.7168242633">
        <ele>775.44</ele>
        <time>2017-10-10T08:59:08Z</time>
      </trkpt>
      <trkpt lat="38.2204200793" lon="-2.7168022189">
        <ele>775.44</ele>
        <time>2017-10-10T08:59:09Z</time>
      </trkpt>
      <trkpt lat="38.2204654254" lon="-2.7167827729">
        <ele>774.96</ele>
        <time>2017-10-10T08:59:10Z</time>
      </trkpt>
      <trkpt lat="38.2208957523" lon="-2.7166189905">
        <ele>771.11</ele>
        <time>2017-10-10T08:59:19Z</time>
      </trkpt>
      <trkpt lat="38.2209714409" lon="-2.7165916655">
        <ele>770.15</ele>
        <time>2017-10-10T08:59:21Z</time>
      </trkpt>
      <trkpt lat="38.2210521586" lon="-2.7165562939">
        <ele>769.67</ele>
        <time>2017-10-10T08:59:23Z</time>
      </trkpt>
      <trkpt lat="38.2210975885" lon="-2.7165435534">
        <ele>769.19</ele>
        <time>2017-10-10T08:59:24Z</time>
      </trkpt>
      <trkpt lat="38.2211488858" lon="-2.7165344171">
        <ele>769.19</ele>
        <time>2017-10-10T08:59:25Z</time>
      </trkpt>
      <trkpt lat="38.2212053798" lon="-2.7165311482">
        <ele>768.71</ele>
        <time>2017-10-10T08:59:26Z</time>
      </trkpt>
      <trkpt lat="38.2212638017" lon="-2.7165309805">
        <ele>768.23</ele>
        <time>2017-10-10T08:59:27Z</time>
      </trkpt>
      <trkpt lat="38.2215528097" lon="-2.7165433019">
        <ele>765.35</ele>
        <time>2017-10-10T08:59:32Z</time>
      </trkpt>
      <trkpt lat="38.2216601819" lon="-2.7165272087">
        <ele>763.90</ele>
        <time>2017-10-10T08:59:34Z</time>
      </trkpt>
      <trkpt lat="38.2217030134" lon="-2.7165052481">
        <ele>763.42</ele>
        <time>2017-10-10T08:59:35Z</time>
      </trkpt>
      <trkpt lat="38.2217376307" lon="-2.7164749894">
        <ele>762.94</ele>
        <time>2017-10-10T08:59:36Z</time>
      </trkpt>
      <trkpt lat="38.2218035124" lon="-2.7163981274">
        <ele>761.98</ele>
        <time>2017-10-10T08:59:38Z</time>
      </trkpt>
      <trkpt lat="38.2218325138" lon="-2.7163441479">
        <ele>761.50</ele>
        <time>2017-10-10T08:59:39Z</time>
      </trkpt>
      <trkpt lat="38.2218568213" lon="-2.7162856422">
        <ele>761.02</ele>
        <time>2017-10-10T08:59:40Z</time>
      </trkpt>
      <trkpt lat="38.2219620142" lon="-2.7160449140">
        <ele>759.58</ele>
        <time>2017-10-10T08:59:44Z</time>
      </trkpt>
      <trkpt lat="38.2220011577" lon="-2.7159890067">
        <ele>759.10</ele>
        <time>2017-10-10T08:59:45Z</time>
      </trkpt>
      <trkpt lat="38.2220404688" lon="-2.7159387153">
        <ele>758.62</ele>
        <time>2017-10-10T08:59:46Z</time>
      </trkpt>
      <trkpt lat="38.2220822107" lon="-2.7158927824">
        <ele>758.14</ele>
        <time>2017-10-10T08:59:47Z</time>
      </trkpt>
      <trkpt lat="38.2221278083" lon="-2.7158534713">
        <ele>757.66</ele>
        <time>2017-10-10T08:59:48Z</time>
      </trkpt>
      <trkpt lat="38.2221726514" lon="-2.7158203628">
        <ele>757.18</ele>
        <time>2017-10-10T08:59:49Z</time>
      </trkpt>
      <trkpt lat="38.2222151477" lon="-2.7157882601">
        <ele>757.18</ele>
        <time>2017-10-10T08:59:50Z</time>
      </trkpt>
      <trkpt lat="38.2222582307" lon="-2.7157566603">
        <ele>756.69</ele>
        <time>2017-10-10T08:59:51Z</time>
      </trkpt>
      <trkpt lat="38.2223412115" lon="-2.7157065365">
        <ele>755.73</ele>
        <time>2017-10-10T08:59:53Z</time>
      </trkpt>
      <trkpt lat="38.2224598993" lon="-2.7156541497">
        <ele>754.29</ele>
        <time>2017-10-10T08:59:56Z</time>
      </trkpt>
      <trkpt lat="38.2228387613" lon="-2.7155503817">
        <ele>751.41</ele>
        <time>2017-10-10T09:00:03Z</time>
      </trkpt>
      <trkpt lat="38.2230388373" lon="-2.7154799737">
        <ele>749.97</ele>
        <time>2017-10-10T09:00:06Z</time>
      </trkpt>
      <trkpt lat="38.2232208084" lon="-2.7153524011">
        <ele>748.04</ele>
        <time>2017-10-10T09:00:09Z</time>
      </trkpt>
      <trkpt lat="38.2232647296" lon="-2.7153052948">
        <ele>747.08</ele>
        <time>2017-10-10T09:00:10Z</time>
      </trkpt>
      <trkpt lat="38.2233814057" lon="-2.7151508164">
        <ele>746.12</ele>
        <time>2017-10-10T09:00:13Z</time>
      </trkpt>
      <trkpt lat="38.2234114129" lon="-2.7150872815">
        <ele>745.64</ele>
        <time>2017-10-10T09:00:14Z</time>
      </trkpt>
      <trkpt lat="38.2234371454" lon="-2.7150204778">
        <ele>745.16</ele>
        <time>2017-10-10T09:00:15Z</time>
      </trkpt>
      <trkpt lat="38.2235403266" lon="-2.7146934997">
        <ele>741.79</ele>
        <time>2017-10-10T09:00:21Z</time>
      </trkpt>
      <trkpt lat="38.2235962339" lon="-2.7145473193">
        <ele>740.83</ele>
        <time>2017-10-10T09:00:28Z</time>
      </trkpt>
      <trkpt lat="38.2236064598" lon="-2.7145442180">
        <ele>740.83</ele>
        <time>2017-10-10T09:00:37Z</time>
      </trkpt>
      <trkpt lat="38.2236051187" lon="-2.7145407815">
        <ele>739.87</ele>
        <time>2017-10-10T09:01:00Z</time>
      </trkpt>
      <trkpt lat="38.2236021012" lon="-2.7145414520">
        <ele>741.31</ele>
        <time>2017-10-10T09:01:03Z</time>
      </trkpt>
      <trkpt lat="38.2235989161" lon="-2.7145460621">
        <ele>740.83</ele>
        <time>2017-10-10T09:01:22Z</time>
      </trkpt>
      <trkpt lat="38.2236088067" lon="-2.7145496663">
        <ele>740.83</ele>
        <time>2017-10-10T09:01:42Z</time>
      </trkpt>
      <trkpt lat="38.2236119919" lon="-2.7145461459">
        <ele>740.83</ele>
        <time>2017-10-10T09:01:56Z</time>
      </trkpt>
      <trkpt lat="38.2236357126" lon="-2.7145052422">
        <ele>740.35</ele>
        <time>2017-10-10T09:02:08Z</time>
      </trkpt>
      <trkpt lat="38.2236485370" lon="-2.7144983690">
        <ele>740.35</ele>
        <time>2017-10-10T09:02:09Z</time>
      </trkpt>
      <trkpt lat="38.2236811426" lon="-2.7144867182">
        <ele>739.87</ele>
        <time>2017-10-10T09:02:11Z</time>
      </trkpt>
      <trkpt lat="38.2239351980" lon="-2.7143217623">
        <ele>737.95</ele>
        <time>2017-10-10T09:02:18Z</time>
      </trkpt>
      <trkpt lat="38.2243953645" lon="-2.7140790224">
        <ele>734.58</ele>
        <time>2017-10-10T09:02:25Z</time>
      </trkpt>
      <trkpt lat="38.2246192452" lon="-2.7139274776">
        <ele>731.70</ele>
        <time>2017-10-10T09:02:29Z</time>
      </trkpt>
      <trkpt lat="38.2246681117" lon="-2.7138667926">
        <ele>730.74</ele>
        <time>2017-10-10T09:02:30Z</time>
      </trkpt>
      <trkpt lat="38.2247058302" lon="-2.7137930319">
        <ele>730.26</ele>
        <time>2017-10-10T09:02:31Z</time>
      </trkpt>
      <trkpt lat="38.2247318141" lon="-2.7137135714">
        <ele>729.78</ele>
        <time>2017-10-10T09:02:32Z</time>
      </trkpt>
      <trkpt lat="38.2247418724" lon="-2.7136236336">
        <ele>729.30</ele>
        <time>2017-10-10T09:02:33Z</time>
      </trkpt>
      <trkpt lat="38.2247369271" lon="-2.7135253977">
        <ele>728.82</ele>
        <time>2017-10-10T09:02:34Z</time>
      </trkpt>
      <trkpt lat="38.2247256115" lon="-2.7134218812">
        <ele>727.86</ele>
        <time>2017-10-10T09:02:35Z</time>
      </trkpt>
      <trkpt lat="38.2246402837" lon="-2.7127722837">
        <ele>724.49</ele>
        <time>2017-10-10T09:02:41Z</time>
      </trkpt>
      <trkpt lat="38.2246397808" lon="-2.7125836909">
        <ele>723.53</ele>
        <time>2017-10-10T09:02:43Z</time>
      </trkpt>
      <trkpt lat="38.2246505097" lon="-2.7124853712">
        <ele>723.05</ele>
        <time>2017-10-10T09:02:44Z</time>
      </trkpt>
      <trkpt lat="38.2246739790" lon="-2.7123893984">
        <ele>722.57</ele>
        <time>2017-10-10T09:02:45Z</time>
      </trkpt>
      <trkpt lat="38.2247121166" lon="-2.7123001311">
        <ele>722.09</ele>
        <time>2017-10-10T09:02:46Z</time>
      </trkpt>
      <trkpt lat="38.2247650065" lon="-2.7122180723">
        <ele>721.61</ele>
        <time>2017-10-10T09:02:47Z</time>
      </trkpt>
      <trkpt lat="38.2248236798" lon="-2.7121427190">
        <ele>721.13</ele>
        <time>2017-10-10T09:02:48Z</time>
      </trkpt>
      <trkpt lat="38.2248809282" lon="-2.7120750770">
        <ele>720.65</ele>
        <time>2017-10-10T09:02:49Z</time>
      </trkpt>
      <trkpt lat="38.2251856942" lon="-2.7117149066">
        <ele>717.28</ele>
        <time>2017-10-10T09:02:54Z</time>
      </trkpt>
      <trkpt lat="38.2254946511" lon="-2.7113719191">
        <ele>713.92</ele>
        <time>2017-10-10T09:02:59Z</time>
      </trkpt>
      <trkpt lat="38.2255657297" lon="-2.7113207895">
        <ele>712.95</ele>
        <time>2017-10-10T09:03:00Z</time>
      </trkpt>
      <trkpt lat="38.2256456092" lon="-2.7112816460">
        <ele>712.47</ele>
        <time>2017-10-10T09:03:01Z</time>
      </trkpt>
      <trkpt lat="38.2257326134" lon="-2.7112513036">
        <ele>711.51</ele>
        <time>2017-10-10T09:03:02Z</time>
      </trkpt>
      <trkpt lat="38.2258246467" lon="-2.7112352103">
        <ele>711.03</ele>
        <time>2017-10-10T09:03:03Z</time>
      </trkpt>
      <trkpt lat="38.2259173505" lon="-2.7112344559">
        <ele>710.55</ele>
        <time>2017-10-10T09:03:04Z</time>
      </trkpt>
      <trkpt lat="38.2260060310" lon="-2.7112482022">
        <ele>710.55</ele>
        <time>2017-10-10T09:03:05Z</time>
      </trkpt>
      <trkpt lat="38.2260890957" lon="-2.7112818137">
        <ele>710.07</ele>
        <time>2017-10-10T09:03:06Z</time>
      </trkpt>
      <trkpt lat="38.2261611801" lon="-2.7113357093">
        <ele>710.07</ele>
        <time>2017-10-10T09:03:07Z</time>
      </trkpt>
      <trkpt lat="38.2262210269" lon="-2.7114069555">
        <ele>710.55</ele>
        <time>2017-10-10T09:03:08Z</time>
      </trkpt>
      <trkpt lat="38.2262693066" lon="-2.7114875894">
        <ele>710.07</ele>
        <time>2017-10-10T09:03:09Z</time>
      </trkpt>
      <trkpt lat="38.2263079472" lon="-2.7115782816">
        <ele>710.55</ele>
        <time>2017-10-10T09:03:10Z</time>
      </trkpt>
      <trkpt lat="38.2263368648" lon="-2.7116746735">
        <ele>710.07</ele>
        <time>2017-10-10T09:03:11Z</time>
      </trkpt>
      <trkpt lat="38.2263641059" lon="-2.7117696404">
        <ele>709.59</ele>
        <time>2017-10-10T09:03:12Z</time>
      </trkpt>
      <trkpt lat="38.2264057640" lon="-2.7119601611">
        <ele>709.11</ele>
        <time>2017-10-10T09:03:14Z</time>
      </trkpt>
      <trkpt lat="38.2264145650" lon="-2.7120585646">
        <ele>708.63</ele>
        <time>2017-10-10T09:03:15Z</time>
      </trkpt>
      <trkpt lat="38.2264030818" lon="-2.7127612196">
        <ele>707.67</ele>
        <time>2017-10-10T09:03:23Z</time>
      </trkpt>
      <trkpt lat="38.2264205161" lon="-2.7130924724">
        <ele>707.19</ele>
        <time>2017-10-10T09:03:27Z</time>
      </trkpt>
      <trkpt lat="38.2264405489" lon="-2.7131736930">
        <ele>707.19</ele>
        <time>2017-10-10T09:03:28Z</time>
      </trkpt>
      <trkpt lat="38.2264672872" lon="-2.7132518124">
        <ele>707.19</ele>
        <time>2017-10-10T09:03:29Z</time>
      </trkpt>
      <trkpt lat="38.2266376913" lon="-2.7136212029">
        <ele>707.19</ele>
        <time>2017-10-10T09:03:34Z</time>
      </trkpt>
      <trkpt lat="38.2269653399" lon="-2.7140282281">
        <ele>706.71</ele>
        <time>2017-10-10T09:03:41Z</time>
      </trkpt>
      <trkpt lat="38.2273971755" lon="-2.7143991273">
        <ele>704.78</ele>
        <time>2017-10-10T09:03:48Z</time>
      </trkpt>
      <trkpt lat="38.2274528313" lon="-2.7144645061">
        <ele>704.78</ele>
        <time>2017-10-10T09:03:49Z</time>
      </trkpt>
      <trkpt lat="38.2275025360" lon="-2.7145375963">
        <ele>704.30</ele>
        <time>2017-10-10T09:03:50Z</time>
      </trkpt>
      <trkpt lat="38.2275459543" lon="-2.7146198228">
        <ele>703.82</ele>
        <time>2017-10-10T09:03:51Z</time>
      </trkpt>
      <trkpt lat="38.2275792304" lon="-2.7147105150">
        <ele>703.82</ele>
        <time>2017-10-10T09:03:52Z</time>
      </trkpt>
      <trkpt lat="38.2276033703" lon="-2.7148075774">
        <ele>703.82</ele>
        <time>2017-10-10T09:03:53Z</time>
      </trkpt>
      <trkpt lat="38.2276262529" lon="-2.7149079088">
        <ele>703.34</ele>
        <time>2017-10-10T09:03:54Z</time>
      </trkpt>
      <trkpt lat="38.2277192082" lon="-2.7159042656">
        <ele>700.94</ele>
        <time>2017-10-10T09:04:04Z</time>
      </trkpt>
      <trkpt lat="38.2277313620" lon="-2.7161179204">
        <ele>699.98</ele>
        <time>2017-10-10T09:04:06Z</time>
      </trkpt>
      <trkpt lat="38.2277481258" lon="-2.7162242029">
        <ele>699.50</ele>
        <time>2017-10-10T09:04:07Z</time>
      </trkpt>
      <trkpt lat="38.2277714275" lon="-2.7163226064">
        <ele>699.50</ele>
        <time>2017-10-10T09:04:08Z</time>
      </trkpt>
      <trkpt lat="38.2278012671" lon="-2.7164127119">
        <ele>699.98</ele>
        <time>2017-10-10T09:04:09Z</time>
      </trkpt>
      <trkpt lat="38.2278375607" lon="-2.7164950222">
        <ele>699.50</ele>
        <time>2017-10-10T09:04:10Z</time>
      </trkpt>
      <trkpt lat="38.2278776262" lon="-2.7165702078">
        <ele>699.50</ele>
        <time>2017-10-10T09:04:11Z</time>
      </trkpt>
      <trkpt lat="38.2281791233" lon="-2.7172160335">
        <ele>701.42</ele>
        <time>2017-10-10T09:04:21Z</time>
      </trkpt>
      <trkpt lat="38.2282686420" lon="-2.7179982327">
        <ele>699.50</ele>
        <time>2017-10-10T09:04:30Z</time>
      </trkpt>
      <trkpt lat="38.2282561529" lon="-2.7181082871">
        <ele>699.02</ele>
        <time>2017-10-10T09:04:31Z</time>
      </trkpt>
      <trkpt lat="38.2282309234" lon="-2.7182147373">
        <ele>698.53</ele>
        <time>2017-10-10T09:04:32Z</time>
      </trkpt>
      <trkpt lat="38.2281987369" lon="-2.7183155715">
        <ele>698.05</ele>
        <time>2017-10-10T09:04:33Z</time>
      </trkpt>
      <trkpt lat="38.2281606831" lon="-2.7184110414">
        <ele>698.53</ele>
        <time>2017-10-10T09:04:34Z</time>
      </trkpt>
      <trkpt lat="38.2281165943" lon="-2.7184960339">
        <ele>698.53</ele>
        <time>2017-10-10T09:04:35Z</time>
      </trkpt>
      <trkpt lat="38.2280691527" lon="-2.7185693756">
        <ele>698.53</ele>
        <time>2017-10-10T09:04:36Z</time>
      </trkpt>
      <trkpt lat="38.2278001774" lon="-2.7189118601">
        <ele>700.46</ele>
        <time>2017-10-10T09:04:43Z</time>
      </trkpt>
      <trkpt lat="38.2275433559" lon="-2.7190901432">
        <ele>702.38</ele>
        <time>2017-10-10T09:04:53Z</time>
      </trkpt>
      <trkpt lat="38.2273134403" lon="-2.7192257624">
        <ele>704.30</ele>
        <time>2017-10-10T09:05:06Z</time>
      </trkpt>
      <trkpt lat="38.2272146177" lon="-2.7194988448">
        <ele>705.26</ele>
        <time>2017-10-10T09:05:18Z</time>
      </trkpt>
      <trkpt lat="38.2273616362" lon="-2.7197867632">
        <ele>705.26</ele>
        <time>2017-10-10T09:05:27Z</time>
      </trkpt>
      <trkpt lat="38.2276327070" lon="-2.7202748414">
        <ele>702.38</ele>
        <time>2017-10-10T09:05:35Z</time>
      </trkpt>
      <trkpt lat="38.2278537378" lon="-2.7209797595">
        <ele>699.02</ele>
        <time>2017-10-10T09:05:42Z</time>
      </trkpt>
      <trkpt lat="38.2279571705" lon="-2.7215407602">
        <ele>695.65</ele>
        <time>2017-10-10T09:05:47Z</time>
      </trkpt>
      <trkpt lat="38.2280487008" lon="-2.7219648845">
        <ele>692.29</ele>
        <time>2017-10-10T09:05:51Z</time>
      </trkpt>
      <trkpt lat="38.2280940469" lon="-2.7220724244">
        <ele>691.81</ele>
        <time>2017-10-10T09:05:52Z</time>
      </trkpt>
      <trkpt lat="38.2281590067" lon="-2.7221705765">
        <ele>691.33</ele>
        <time>2017-10-10T09:05:53Z</time>
      </trkpt>
      <trkpt lat="38.2282373775" lon="-2.7222527191">
        <ele>690.36</ele>
        <time>2017-10-10T09:05:54Z</time>
      </trkpt>
      <trkpt lat="38.2283220347" lon="-2.7223260608">
        <ele>689.40</ele>
        <time>2017-10-10T09:05:55Z</time>
      </trkpt>
      <trkpt lat="38.2288519386" lon="-2.7227104548">
        <ele>687.00</ele>
        <time>2017-10-10T09:06:01Z</time>
      </trkpt>
      <trkpt lat="38.2295557670" lon="-2.7231779136">
        <ele>685.56</ele>
        <time>2017-10-10T09:06:10Z</time>
      </trkpt>
      <trkpt lat="38.2301403210" lon="-2.7236669138">
        <ele>684.60</ele>
        <time>2017-10-10T09:06:20Z</time>
      </trkpt>
      <trkpt lat="38.2306220289" lon="-2.7243526373">
        <ele>684.12</ele>
        <time>2017-10-10T09:06:32Z</time>
      </trkpt>
      <trkpt lat="38.2307369448" lon="-2.7245275676">
        <ele>683.63</ele>
        <time>2017-10-10T09:06:35Z</time>
      </trkpt>
      <trkpt lat="38.2307729870" lon="-2.7245826367">
        <ele>683.63</ele>
        <time>2017-10-10T09:06:36Z</time>
      </trkpt>
      <trkpt lat="38.2307868171" lon="-2.7246448305">
        <ele>683.63</ele>
        <time>2017-10-10T09:06:37Z</time>
      </trkpt>
      <trkpt lat="38.2307740767" lon="-2.7247066889">
        <ele>683.15</ele>
        <time>2017-10-10T09:06:38Z</time>
      </trkpt>
      <trkpt lat="38.2307423931" lon="-2.7247571480">
        <ele>683.15</ele>
        <time>2017-10-10T09:06:39Z</time>
      </trkpt>
      <trkpt lat="38.2306979690" lon="-2.7247930225">
        <ele>683.15</ele>
        <time>2017-10-10T09:06:40Z</time>
      </trkpt>
      <trkpt lat="38.2306474261" lon="-2.7248180006">
        <ele>683.15</ele>
        <time>2017-10-10T09:06:41Z</time>
      </trkpt>
      <trkpt lat="38.2305948716" lon="-2.7248403803">
        <ele>682.67</ele>
        <time>2017-10-10T09:06:42Z</time>
      </trkpt>
      <trkpt lat="38.2304916065" lon="-2.7248898335">
        <ele>682.19</ele>
        <time>2017-10-10T09:06:44Z</time>
      </trkpt>
      <trkpt lat="38.2299851719" lon="-2.7252769098">
        <ele>680.75</ele>
        <time>2017-10-10T09:06:55Z</time>
      </trkpt>
      <trkpt lat="38.2297109161" lon="-2.7255193982">
        <ele>679.79</ele>
        <time>2017-10-10T09:07:01Z</time>
      </trkpt>
      <trkpt lat="38.2296736166" lon="-2.7255723719">
        <ele>679.79</ele>
        <time>2017-10-10T09:07:02Z</time>
      </trkpt>
      <trkpt lat="38.2296421006" lon="-2.7256283630">
        <ele>679.31</ele>
        <time>2017-10-10T09:07:03Z</time>
      </trkpt>
      <trkpt lat="38.2296150271" lon="-2.7256841026">
        <ele>678.83</ele>
        <time>2017-10-10T09:07:04Z</time>
      </trkpt>
      <trkpt lat="38.2295910548" lon="-2.7257428598">
        <ele>678.83</ele>
        <time>2017-10-10T09:07:05Z</time>
      </trkpt>
      <trkpt lat="38.2295718603" lon="-2.7258072328">
        <ele>678.83</ele>
        <time>2017-10-10T09:07:06Z</time>
      </trkpt>
      <trkpt lat="38.2295552641" lon="-2.7258765511">
        <ele>678.35</ele>
        <time>2017-10-10T09:07:07Z</time>
      </trkpt>
      <trkpt lat="38.2295137737" lon="-2.7260226477">
        <ele>677.87</ele>
        <time>2017-10-10T09:07:09Z</time>
      </trkpt>
      <trkpt lat="38.2294810843" lon="-2.7260908764">
        <ele>678.35</ele>
        <time>2017-10-10T09:07:10Z</time>
      </trkpt>
      <trkpt lat="38.2294402644" lon="-2.7261566743">
        <ele>677.87</ele>
        <time>2017-10-10T09:07:11Z</time>
      </trkpt>
      <trkpt lat="38.2293945830" lon="-2.7262202930">
        <ele>677.87</ele>
        <time>2017-10-10T09:07:12Z</time>
      </trkpt>
      <trkpt lat="38.2293424476" lon="-2.7262793854">
        <ele>677.39</ele>
        <time>2017-10-10T09:07:13Z</time>
      </trkpt>
      <trkpt lat="38.2292851154" lon="-2.7263335325">
        <ele>677.39</ele>
        <time>2017-10-10T09:07:14Z</time>
      </trkpt>
      <trkpt lat="38.2292235084" lon="-2.7263825666">
        <ele>676.91</ele>
        <time>2017-10-10T09:07:15Z</time>
      </trkpt>
      <trkpt lat="38.2291613985" lon="-2.7264303435">
        <ele>676.42</ele>
        <time>2017-10-10T09:07:16Z</time>
      </trkpt>
      <trkpt lat="38.2285266370" lon="-2.7270007320">
        <ele>674.98</ele>
        <time>2017-10-10T09:07:27Z</time>
      </trkpt>
      <trkpt lat="38.2280673087" lon="-2.7273763251">
        <ele>674.02</ele>
        <time>2017-10-10T09:07:35Z</time>
      </trkpt>
      <trkpt lat="38.2280057017" lon="-2.7273948491">
        <ele>674.02</ele>
        <time>2017-10-10T09:07:36Z</time>
      </trkpt>
      <trkpt lat="38.2279458549" lon="-2.7274122834">
        <ele>673.54</ele>
        <time>2017-10-10T09:07:37Z</time>
      </trkpt>
      <trkpt lat="38.2270006277" lon="-2.7276690211">
        <ele>672.10</ele>
        <time>2017-10-10T09:07:53Z</time>
      </trkpt>
      <trkpt lat="38.2263205200" lon="-2.7281008568">
        <ele>671.14</ele>
        <time>2017-10-10T09:08:04Z</time>
      </trkpt>
      <trkpt lat="38.2255865168" lon="-2.7286304254">
        <ele>669.70</ele>
        <time>2017-10-10T09:08:16Z</time>
      </trkpt>
      <trkpt lat="38.2254075631" lon="-2.7287456766">
        <ele>669.22</ele>
        <time>2017-10-10T09:08:19Z</time>
      </trkpt>
      <trkpt lat="38.2246717997" lon="-2.7293256205">
        <ele>667.29</ele>
        <time>2017-10-10T09:08:31Z</time>
      </trkpt>
      <trkpt lat="38.2243325002" lon="-2.7295443881">
        <ele>666.33</ele>
        <time>2017-10-10T09:08:36Z</time>
      </trkpt>
      <trkpt lat="38.2242562249" lon="-2.7295738924">
        <ele>665.85</ele>
        <time>2017-10-10T09:08:37Z</time>
      </trkpt>
      <trkpt lat="38.2241763454" lon="-2.7295960207">
        <ele>665.37</ele>
        <time>2017-10-10T09:08:38Z</time>
      </trkpt>
      <trkpt lat="38.2236034423" lon="-2.7297002077">
        <ele>663.93</ele>
        <time>2017-10-10T09:08:45Z</time>
      </trkpt>
      <trkpt lat="38.2235280052" lon="-2.7297012974">
        <ele>663.45</ele>
        <time>2017-10-10T09:08:46Z</time>
      </trkpt>
      <trkpt lat="38.2228234224" lon="-2.7296288777">
        <ele>661.04</ele>
        <time>2017-10-10T09:08:55Z</time>
      </trkpt>
      <trkpt lat="38.2227449678" lon="-2.7296466473">
        <ele>661.04</ele>
        <time>2017-10-10T09:08:56Z</time>
      </trkpt>
      <trkpt lat="38.2218904328" lon="-2.7299642377">
        <ele>661.04</ele>
        <time>2017-10-10T09:09:08Z</time>
      </trkpt>
      <trkpt lat="38.2216856629" lon="-2.7300022915">
        <ele>661.04</ele>
        <time>2017-10-10T09:09:11Z</time>
      </trkpt>
      <trkpt lat="38.2212348841" lon="-2.7300151996">
        <ele>660.56</ele>
        <time>2017-10-10T09:09:18Z</time>
      </trkpt>
      <trkpt lat="38.2211751211" lon="-2.7300345618">
        <ele>661.52</ele>
        <time>2017-10-10T09:09:19Z</time>
      </trkpt>
      <trkpt lat="38.2211156934" lon="-2.7300597914">
        <ele>661.04</ele>
        <time>2017-10-10T09:09:20Z</time>
      </trkpt>
      <trkpt lat="38.2205275353" lon="-2.7302626334">
        <ele>659.12</ele>
        <time>2017-10-10T09:09:29Z</time>
      </trkpt>
      <trkpt lat="38.2204491645" lon="-2.7302999329">
        <ele>658.64</ele>
        <time>2017-10-10T09:09:30Z</time>
      </trkpt>
      <trkpt lat="38.2203739788" lon="-2.7303545829">
        <ele>657.68</ele>
        <time>2017-10-10T09:09:31Z</time>
      </trkpt>
      <trkpt lat="38.2203060854" lon="-2.7304288466">
        <ele>657.68</ele>
        <time>2017-10-10T09:09:32Z</time>
      </trkpt>
      <trkpt lat="38.2202463225" lon="-2.7305244002">
        <ele>656.72</ele>
        <time>2017-10-10T09:09:33Z</time>
      </trkpt>
      <trkpt lat="38.2201955281" lon="-2.7306357957">
        <ele>656.72</ele>
        <time>2017-10-10T09:09:34Z</time>
      </trkpt>
      <trkpt lat="38.2201604918" lon="-2.7307532262">
        <ele>655.76</ele>
        <time>2017-10-10T09:09:35Z</time>
      </trkpt>
      <trkpt lat="38.2201477513" lon="-2.7308679745">
        <ele>654.80</ele>
        <time>2017-10-10T09:09:36Z</time>
      </trkpt>
      <trkpt lat="38.2201504335" lon="-2.7309746761">
        <ele>653.83</ele>
        <time>2017-10-10T09:09:37Z</time>
      </trkpt>
      <trkpt lat="38.2201551273" lon="-2.7310774382">
        <ele>653.83</ele>
        <time>2017-10-10T09:09:38Z</time>
      </trkpt>
      <trkpt lat="38.2201561332" lon="-2.7311789431">
        <ele>653.83</ele>
        <time>2017-10-10T09:09:39Z</time>
      </trkpt>
      <trkpt lat="38.2201643474" lon="-2.7317971084">
        <ele>653.83</ele>
        <time>2017-10-10T09:09:46Z</time>
      </trkpt>
      <trkpt lat="38.2201744895" lon="-2.7318673488">
        <ele>653.83</ele>
        <time>2017-10-10T09:09:47Z</time>
      </trkpt>
      <trkpt lat="38.2201930135" lon="-2.7319313027">
        <ele>654.31</ele>
        <time>2017-10-10T09:09:48Z</time>
      </trkpt>
      <trkpt lat="38.2202147227" lon="-2.7319881320">
        <ele>654.31</ele>
        <time>2017-10-10T09:09:49Z</time>
      </trkpt>
      <trkpt lat="38.2202367671" lon="-2.7320402674">
        <ele>654.80</ele>
        <time>2017-10-10T09:09:50Z</time>
      </trkpt>
      <trkpt lat="38.2204389386" lon="-2.7323183790">
        <ele>656.24</ele>
        <time>2017-10-10T09:09:59Z</time>
      </trkpt>
      <trkpt lat="38.2206489053" lon="-2.7325001825">
        <ele>658.16</ele>
        <time>2017-10-10T09:10:10Z</time>
      </trkpt>
      <trkpt lat="38.2208152860" lon="-2.7327136695">
        <ele>659.12</ele>
        <time>2017-10-10T09:10:23Z</time>
      </trkpt>
      <trkpt lat="38.2208782341" lon="-2.7327927947">
        <ele>660.08</ele>
        <time>2017-10-10T09:10:29Z</time>
      </trkpt>
      <trkpt lat="38.2210424356" lon="-2.7330420725">
        <ele>661.04</ele>
        <time>2017-10-10T09:10:40Z</time>
      </trkpt>
      <trkpt lat="38.2212520670" lon="-2.7332598343">
        <ele>662.49</ele>
        <time>2017-10-10T09:10:50Z</time>
      </trkpt>
      <trkpt lat="38.2215079665" lon="-2.7334688790">
        <ele>664.41</ele>
        <time>2017-10-10T09:11:01Z</time>
      </trkpt>
      <trkpt lat="38.2216616906" lon="-2.7336170711">
        <ele>665.85</ele>
        <time>2017-10-10T09:11:12Z</time>
      </trkpt>
      <trkpt lat="38.2216806337" lon="-2.7336213458">
        <ele>665.85</ele>
        <time>2017-10-10T09:11:21Z</time>
      </trkpt>
      <trkpt lat="38.2216932066" lon="-2.7336186636">
        <ele>665.85</ele>
        <time>2017-10-10T09:11:41Z</time>
      </trkpt>
      <trkpt lat="38.2216958888" lon="-2.7336203400">
        <ele>665.85</ele>
        <time>2017-10-10T09:11:56Z</time>
      </trkpt>
      <trkpt lat="38.2216854114" lon="-2.7336268779">
        <ele>665.37</ele>
        <time>2017-10-10T09:12:22Z</time>
      </trkpt>
      <trkpt lat="38.2216834836" lon="-2.7336229384">
        <ele>665.85</ele>
        <time>2017-10-10T09:12:39Z</time>
      </trkpt>
      <trkpt lat="38.2216854114" lon="-2.7336257044">
        <ele>665.37</ele>
        <time>2017-10-10T09:12:52Z</time>
      </trkpt>
      <trkpt lat="38.2216933742" lon="-2.7336517721">
        <ele>665.37</ele>
        <time>2017-10-10T09:12:57Z</time>
      </trkpt>
      <trkpt lat="38.2217035163" lon="-2.7336724754">
        <ele>665.37</ele>
        <time>2017-10-10T09:12:58Z</time>
      </trkpt>
      <trkpt lat="38.2217176817" lon="-2.7336888202">
        <ele>665.85</ele>
        <time>2017-10-10T09:12:59Z</time>
      </trkpt>
      <trkpt lat="38.2217341941" lon="-2.7337020636">
        <ele>665.85</ele>
        <time>2017-10-10T09:13:00Z</time>
      </trkpt>
      <trkpt lat="38.2217502873" lon="-2.7337138820">
        <ele>665.85</ele>
        <time>2017-10-10T09:13:01Z</time>
      </trkpt>
      <trkpt lat="38.2217688952" lon="-2.7337309811">
        <ele>665.85</ele>
        <time>2017-10-10T09:13:02Z</time>
      </trkpt>
      <trkpt lat="38.2217893470" lon="-2.7337546181">
        <ele>665.85</ele>
        <time>2017-10-10T09:13:03Z</time>
      </trkpt>
      <trkpt lat="38.2218066137" lon="-2.7337782551">
        <ele>665.85</ele>
        <time>2017-10-10T09:13:04Z</time>
      </trkpt>
      <trkpt lat="38.2220341824" lon="-2.7340907324">
        <ele>666.81</ele>
        <time>2017-10-10T09:13:15Z</time>
      </trkpt>
      <trkpt lat="38.2222221885" lon="-2.7343797404">
        <ele>668.73</ele>
        <time>2017-10-10T09:13:26Z</time>
      </trkpt>
      <trkpt lat="38.2223852165" lon="-2.7346781362">
        <ele>669.70</ele>
        <time>2017-10-10T09:13:36Z</time>
      </trkpt>
      <trkpt lat="38.2226419542" lon="-2.7350325231">
        <ele>670.66</ele>
        <time>2017-10-10T09:13:48Z</time>
      </trkpt>
      <trkpt lat="38.2228774857" lon="-2.7352410648">
        <ele>671.62</ele>
        <time>2017-10-10T09:13:57Z</time>
      </trkpt>
      <trkpt lat="38.2231293619" lon="-2.7355200984">
        <ele>673.06</ele>
        <time>2017-10-10T09:14:09Z</time>
      </trkpt>
      <trkpt lat="38.2234062999" lon="-2.7358022332">
        <ele>674.98</ele>
        <time>2017-10-10T09:14:21Z</time>
      </trkpt>
      <trkpt lat="38.2235735189" lon="-2.7361634094">
        <ele>675.94</ele>
        <time>2017-10-10T09:14:32Z</time>
      </trkpt>
      <trkpt lat="38.2236979064" lon="-2.7365513239">
        <ele>677.39</ele>
        <time>2017-10-10T09:14:44Z</time>
      </trkpt>
      <trkpt lat="38.2237259019" lon="-2.7368259989">
        <ele>677.87</ele>
        <time>2017-10-10T09:14:52Z</time>
      </trkpt>
      <trkpt lat="38.2237103954" lon="-2.7372152545">
        <ele>678.83</ele>
        <time>2017-10-10T09:15:01Z</time>
      </trkpt>
      <trkpt lat="38.2236663904" lon="-2.7376858145">
        <ele>680.27</ele>
        <time>2017-10-10T09:15:12Z</time>
      </trkpt>
      <trkpt lat="38.2235730998" lon="-2.7380910795">
        <ele>682.19</ele>
        <time>2017-10-10T09:15:22Z</time>
      </trkpt>
      <trkpt lat="38.2235362194" lon="-2.7382168919">
        <ele>682.19</ele>
        <time>2017-10-10T09:15:25Z</time>
      </trkpt>
      <trkpt lat="38.2235183660" lon="-2.7382542752">
        <ele>682.67</ele>
        <time>2017-10-10T09:15:26Z</time>
      </trkpt>
      <trkpt lat="38.2235001773" lon="-2.7382926643">
        <ele>682.67</ele>
        <time>2017-10-10T09:15:27Z</time>
      </trkpt>
      <trkpt lat="38.2232681662" lon="-2.7387182135">
        <ele>684.12</ele>
        <time>2017-10-10T09:15:38Z</time>
      </trkpt>
      <trkpt lat="38.2230969239" lon="-2.7391581796">
        <ele>685.56</ele>
        <time>2017-10-10T09:15:49Z</time>
      </trkpt>
      <trkpt lat="38.2230209000" lon="-2.7397911809">
        <ele>687.96</ele>
        <time>2017-10-10T09:16:03Z</time>
      </trkpt>
      <trkpt lat="38.2229557727" lon="-2.7404947579">
        <ele>690.36</ele>
        <time>2017-10-10T09:16:19Z</time>
      </trkpt>
      <trkpt lat="38.2228871249" lon="-2.7411956526">
        <ele>692.77</ele>
        <time>2017-10-10T09:16:34Z</time>
      </trkpt>
      <trkpt lat="38.2227779087" lon="-2.7417060267">
        <ele>694.21</ele>
        <time>2017-10-10T09:16:46Z</time>
      </trkpt>
      <trkpt lat="38.2226888090" lon="-2.7420912590">
        <ele>695.17</ele>
        <time>2017-10-10T09:16:55Z</time>
      </trkpt>
      <trkpt lat="38.2226898987" lon="-2.7421443164">
        <ele>695.17</ele>
        <time>2017-10-10T09:16:56Z</time>
      </trkpt>
      <trkpt lat="38.2226960175" lon="-2.7421966195">
        <ele>695.17</ele>
        <time>2017-10-10T09:16:57Z</time>
      </trkpt>
      <trkpt lat="38.2227064949" lon="-2.7422494255">
        <ele>695.17</ele>
        <time>2017-10-10T09:16:58Z</time>
      </trkpt>
      <trkpt lat="38.2227196544" lon="-2.7423002198">
        <ele>695.17</ele>
        <time>2017-10-10T09:16:59Z</time>
      </trkpt>
      <trkpt lat="38.2227359992" lon="-2.7423464879">
        <ele>695.17</ele>
        <time>2017-10-10T09:17:00Z</time>
      </trkpt>
      <trkpt lat="38.2227563672" lon="-2.7423904091">
        <ele>695.65</ele>
        <time>2017-10-10T09:17:01Z</time>
      </trkpt>
      <trkpt lat="38.2227785792" lon="-2.7424291335">
        <ele>695.65</ele>
        <time>2017-10-10T09:17:02Z</time>
      </trkpt>
      <trkpt lat="38.2228016295" lon="-2.7424632479">
        <ele>695.65</ele>
        <time>2017-10-10T09:17:03Z</time>
      </trkpt>
      <trkpt lat="38.2230624743" lon="-2.7428298723">
        <ele>697.09</ele>
        <time>2017-10-10T09:17:16Z</time>
      </trkpt>
      <trkpt lat="38.2232718542" lon="-2.7431636397">
        <ele>699.98</ele>
        <time>2017-10-10T09:17:31Z</time>
      </trkpt>
      <trkpt lat="38.2233181223" lon="-2.7434359677">
        <ele>701.42</ele>
        <time>2017-10-10T09:17:42Z</time>
      </trkpt>
      <trkpt lat="38.2233165298" lon="-2.7434635442">
        <ele>701.42</ele>
        <time>2017-10-10T09:17:43Z</time>
      </trkpt>
      <trkpt lat="38.2233168650" lon="-2.7434918750">
        <ele>701.90</ele>
        <time>2017-10-10T09:17:44Z</time>
      </trkpt>
      <trkpt lat="38.2233185414" lon="-2.7435192838">
        <ele>701.90</ele>
        <time>2017-10-10T09:17:45Z</time>
      </trkpt>
      <trkpt lat="38.2233218104" lon="-2.7435462736">
        <ele>701.90</ele>
        <time>2017-10-10T09:17:46Z</time>
      </trkpt>
      <trkpt lat="38.2233190443" lon="-2.7438267320">
        <ele>703.34</ele>
        <time>2017-10-10T09:17:57Z</time>
      </trkpt>
      <trkpt lat="38.2232946530" lon="-2.7442245372">
        <ele>705.75</ele>
        <time>2017-10-10T09:18:12Z</time>
      </trkpt>
      <trkpt lat="38.2232300285" lon="-2.7444774192">
        <ele>706.71</ele>
        <time>2017-10-10T09:18:22Z</time>
      </trkpt>
      <trkpt lat="38.2232244126" lon="-2.7445469052">
        <ele>707.67</ele>
        <time>2017-10-10T09:18:25Z</time>
      </trkpt>
      <trkpt lat="38.2231954113" lon="-2.7446074225">
        <ele>707.67</ele>
        <time>2017-10-10T09:18:28Z</time>
      </trkpt>
      <trkpt lat="38.2231941540" lon="-2.7446300536">
        <ele>707.67</ele>
        <time>2017-10-10T09:18:29Z</time>
      </trkpt>
      <trkpt lat="38.2231955789" lon="-2.7446523495">
        <ele>708.15</ele>
        <time>2017-10-10T09:18:30Z</time>
      </trkpt>
      <trkpt lat="38.2231914718" lon="-2.7446750645">
        <ele>708.15</ele>
        <time>2017-10-10T09:18:31Z</time>
      </trkpt>
      <trkpt lat="38.2231858559" lon="-2.7446988691">
        <ele>708.15</ele>
        <time>2017-10-10T09:18:32Z</time>
      </trkpt>
      <trkpt lat="38.2231424376" lon="-2.7450130228">
        <ele>710.07</ele>
        <time>2017-10-10T09:18:44Z</time>
      </trkpt>
      <trkpt lat="38.2231965009" lon="-2.7453343850">
        <ele>711.99</ele>
        <time>2017-10-10T09:18:56Z</time>
      </trkpt>
      <trkpt lat="38.2233399991" lon="-2.7456070483">
        <ele>713.44</ele>
        <time>2017-10-10T09:19:08Z</time>
      </trkpt>
      <trkpt lat="38.2235982455" lon="-2.7458211221">
        <ele>715.36</ele>
        <time>2017-10-10T09:19:21Z</time>
      </trkpt>
      <trkpt lat="38.2236783765" lon="-2.7458759397">
        <ele>715.36</ele>
        <time>2017-10-10T09:19:30Z</time>
      </trkpt>
      <trkpt lat="38.2236812264" lon="-2.7458750177">
        <ele>715.84</ele>
        <time>2017-10-10T09:19:43Z</time>
      </trkpt>
      <trkpt lat="38.2236764487" lon="-2.7458754368">
        <ele>715.84</ele>
        <time>2017-10-10T09:19:54Z</time>
      </trkpt>
      <trkpt lat="38.2236743532" lon="-2.7458778676">
        <ele>715.84</ele>
        <time>2017-10-10T09:20:19Z</time>
      </trkpt>
      <trkpt lat="38.2236701623" lon="-2.7458751854">
        <ele>715.84</ele>
        <time>2017-10-10T09:20:31Z</time>
      </trkpt>
      <trkpt lat="38.2236761134" lon="-2.7458913624">
        <ele>715.84</ele>
        <time>2017-10-10T09:20:43Z</time>
      </trkpt>
      <trkpt lat="38.2236858364" lon="-2.7459108923">
        <ele>715.84</ele>
        <time>2017-10-10T09:20:44Z</time>
      </trkpt>
      <trkpt lat="38.2237020135" lon="-2.7459346969">
        <ele>715.84</ele>
        <time>2017-10-10T09:20:45Z</time>
      </trkpt>
      <trkpt lat="38.2237232197" lon="-2.7459587529">
        <ele>715.84</ele>
        <time>2017-10-10T09:20:46Z</time>
      </trkpt>
      <trkpt lat="38.2237468567" lon="-2.7459849883">
        <ele>716.32</ele>
        <time>2017-10-10T09:20:47Z</time>
      </trkpt>
      <trkpt lat="38.2237688173" lon="-2.7460128162">
        <ele>716.32</ele>
        <time>2017-10-10T09:20:48Z</time>
      </trkpt>
      <trkpt lat="38.2239819691" lon="-2.7464407124">
        <ele>717.76</ele>
        <time>2017-10-10T09:20:59Z</time>
      </trkpt>
      <trkpt lat="38.2241142355" lon="-2.7468698658">
        <ele>719.68</ele>
        <time>2017-10-10T09:21:09Z</time>
      </trkpt>
      <trkpt lat="38.2241079491" lon="-2.7472984325">
        <ele>721.61</ele>
        <time>2017-10-10T09:21:20Z</time>
      </trkpt>
      <trkpt lat="38.2240366191" lon="-2.7478308510">
        <ele>724.49</ele>
        <time>2017-10-10T09:21:34Z</time>
      </trkpt>
      <trkpt lat="38.2239395566" lon="-2.7483042609">
        <ele>726.89</ele>
        <time>2017-10-10T09:21:47Z</time>
      </trkpt>
      <trkpt lat="38.2238577493" lon="-2.7485336736">
        <ele>728.34</ele>
        <time>2017-10-10T09:21:57Z</time>
      </trkpt>
      <trkpt lat="38.2238181867" lon="-2.7486131340">
        <ele>728.34</ele>
        <time>2017-10-10T09:22:01Z</time>
      </trkpt>
      <trkpt lat="38.2238133252" lon="-2.7486359328">
        <ele>728.34</ele>
        <time>2017-10-10T09:22:02Z</time>
      </trkpt>
      <trkpt lat="38.2238103077" lon="-2.7486595698">
        <ele>728.82</ele>
        <time>2017-10-10T09:22:03Z</time>
      </trkpt>
      <trkpt lat="38.2238034345" lon="-2.7486861404">
        <ele>728.82</ele>
        <time>2017-10-10T09:22:04Z</time>
      </trkpt>
      <trkpt lat="38.2237974834" lon="-2.7487109508">
        <ele>728.82</ele>
        <time>2017-10-10T09:22:05Z</time>
      </trkpt>
      <trkpt lat="38.2236744370" lon="-2.7489797585">
        <ele>730.26</ele>
        <time>2017-10-10T09:22:18Z</time>
      </trkpt>
      <trkpt lat="38.2236030232" lon="-2.7491572872">
        <ele>731.22</ele>
        <time>2017-10-10T09:22:27Z</time>
      </trkpt>
      <trkpt lat="38.2235969882" lon="-2.7491792478">
        <ele>731.22</ele>
        <time>2017-10-10T09:22:28Z</time>
      </trkpt>
      <trkpt lat="38.2235922944" lon="-2.7492010407">
        <ele>731.22</ele>
        <time>2017-10-10T09:22:29Z</time>
      </trkpt>
      <trkpt lat="38.2235854212" lon="-2.7492203191">
        <ele>731.70</ele>
        <time>2017-10-10T09:22:30Z</time>
      </trkpt>
      <trkpt lat="38.2235716749" lon="-2.7492352389">
        <ele>731.70</ele>
        <time>2017-10-10T09:22:31Z</time>
      </trkpt>
      <trkpt lat="38.2235595211" lon="-2.7492520027">
        <ele>731.70</ele>
        <time>2017-10-10T09:22:32Z</time>
      </trkpt>
      <trkpt lat="38.2235553302" lon="-2.7492744662">
        <ele>731.70</ele>
        <time>2017-10-10T09:22:33Z</time>
      </trkpt>
      <trkpt lat="38.2235544920" lon="-2.7492967620">
        <ele>732.18</ele>
        <time>2017-10-10T09:22:34Z</time>
      </trkpt>
      <trkpt lat="38.2235456072" lon="-2.7493146993">
        <ele>732.18</ele>
        <time>2017-10-10T09:22:35Z</time>
      </trkpt>
      <trkpt lat="38.2235292625" lon="-2.7493251767">
        <ele>732.66</ele>
        <time>2017-10-10T09:22:36Z</time>
      </trkpt>
      <trkpt lat="38.2235120796" lon="-2.7493374143">
        <ele>732.18</ele>
        <time>2017-10-10T09:22:37Z</time>
      </trkpt>
      <trkpt lat="38.2234996744" lon="-2.7493602131">
        <ele>732.66</ele>
        <time>2017-10-10T09:22:38Z</time>
      </trkpt>
      <trkpt lat="38.2234913763" lon="-2.7493847720">
        <ele>732.66</ele>
        <time>2017-10-10T09:22:39Z</time>
      </trkpt>
      <trkpt lat="38.2234820724" lon="-2.7494047210">
        <ele>732.66</ele>
        <time>2017-10-10T09:22:40Z</time>
      </trkpt>
      <trkpt lat="38.2234722655" lon="-2.7494240832">
        <ele>732.66</ele>
        <time>2017-10-10T09:22:41Z</time>
      </trkpt>
      <trkpt lat="38.2234612852" lon="-2.7494422719">
        <ele>733.14</ele>
        <time>2017-10-10T09:22:42Z</time>
      </trkpt>
      <trkpt lat="38.2234474551" lon="-2.7494569402">
        <ele>733.14</ele>
        <time>2017-10-10T09:22:43Z</time>
      </trkpt>
      <trkpt lat="38.2234299369" lon="-2.7494642325">
        <ele>733.14</ele>
        <time>2017-10-10T09:22:44Z</time>
      </trkpt>
      <trkpt lat="38.2234132569" lon="-2.7494747099">
        <ele>733.14</ele>
        <time>2017-10-10T09:22:45Z</time>
      </trkpt>
      <trkpt lat="38.2234037854" lon="-2.7494952455">
        <ele>733.14</ele>
        <time>2017-10-10T09:22:46Z</time>
      </trkpt>
      <trkpt lat="38.2233973313" lon="-2.7495162003">
        <ele>733.62</ele>
        <time>2017-10-10T09:22:47Z</time>
      </trkpt>
      <trkpt lat="38.2233878598" lon="-2.7495334670">
        <ele>733.62</ele>
        <time>2017-10-10T09:22:48Z</time>
      </trkpt>
      <trkpt lat="38.2233743649" lon="-2.7495469619">
        <ele>734.10</ele>
        <time>2017-10-10T09:22:49Z</time>
      </trkpt>
      <trkpt lat="38.2233591098" lon="-2.7495590318">
        <ele>734.10</ele>
        <time>2017-10-10T09:22:50Z</time>
      </trkpt>
      <trkpt lat="38.2233469561" lon="-2.7495728619">
        <ele>734.10</ele>
        <time>2017-10-10T09:22:51Z</time>
      </trkpt>
      <trkpt lat="38.2233347185" lon="-2.7495871950">
        <ele>734.10</ele>
        <time>2017-10-10T09:22:52Z</time>
      </trkpt>
      <trkpt lat="38.2233205531" lon="-2.7496006899">
        <ele>734.10</ele>
        <time>2017-10-10T09:22:53Z</time>
      </trkpt>
      <trkpt lat="38.2233060524" lon="-2.7496150229">
        <ele>734.58</ele>
        <time>2017-10-10T09:22:54Z</time>
      </trkpt>
      <trkpt lat="38.2232887857" lon="-2.7496246621">
        <ele>734.58</ele>
        <time>2017-10-10T09:22:55Z</time>
      </trkpt>
      <trkpt lat="38.2232693397" lon="-2.7496317029">
        <ele>734.58</ele>
        <time>2017-10-10T09:22:56Z</time>
      </trkpt>
      <trkpt lat="38.2231988478" lon="-2.7496595308">
        <ele>735.07</ele>
        <time>2017-10-10T09:23:00Z</time>
      </trkpt>
      <trkpt lat="38.2231887896" lon="-2.7496782225">
        <ele>735.07</ele>
        <time>2017-10-10T09:23:01Z</time>
      </trkpt>
      <trkpt lat="38.2231773064" lon="-2.7496962436">
        <ele>735.07</ele>
        <time>2017-10-10T09:23:02Z</time>
      </trkpt>
      <trkpt lat="38.2231598720" lon="-2.7497078944">
        <ele>735.55</ele>
        <time>2017-10-10T09:23:03Z</time>
      </trkpt>
      <trkpt lat="38.2231413480" lon="-2.7497128397">
        <ele>735.55</ele>
        <time>2017-10-10T09:23:04Z</time>
      </trkpt>
      <trkpt lat="38.2231229078" lon="-2.7497159410">
        <ele>735.55</ele>
        <time>2017-10-10T09:23:05Z</time>
      </trkpt>
      <trkpt lat="38.2231044676" lon="-2.7497174498">
        <ele>735.55</ele>
        <time>2017-10-10T09:23:06Z</time>
      </trkpt>
      <trkpt lat="38.2230859436" lon="-2.7497177012">
        <ele>736.03</ele>
        <time>2017-10-10T09:23:07Z</time>
      </trkpt>
      <trkpt lat="38.2230679225" lon="-2.7497251611">
        <ele>735.55</ele>
        <time>2017-10-10T09:23:08Z</time>
      </trkpt>
      <trkpt lat="38.2230565231" lon="-2.7497423440">
        <ele>736.03</ele>
        <time>2017-10-10T09:23:09Z</time>
      </trkpt>
      <trkpt lat="38.2230498176" lon="-2.7497637179">
        <ele>736.03</ele>
        <time>2017-10-10T09:23:10Z</time>
      </trkpt>
      <trkpt lat="38.2230397593" lon="-2.7497816551">
        <ele>736.03</ele>
        <time>2017-10-10T09:23:11Z</time>
      </trkpt>
      <trkpt lat="38.2230245043" lon="-2.7497902047">
        <ele>736.03</ele>
        <time>2017-10-10T09:23:12Z</time>
      </trkpt>
      <trkpt lat="38.2230066508" lon="-2.7497946471">
        <ele>736.51</ele>
        <time>2017-10-10T09:23:13Z</time>
      </trkpt>
      <trkpt lat="38.2229879592" lon="-2.7498026099">
        <ele>736.51</ele>
        <time>2017-10-10T09:23:14Z</time>
      </trkpt>
      <trkpt lat="38.2229710277" lon="-2.7498164400">
        <ele>736.51</ele>
        <time>2017-10-10T09:23:15Z</time>
      </trkpt>
      <trkpt lat="38.2229556050" lon="-2.7498353831">
        <ele>736.51</ele>
        <time>2017-10-10T09:23:16Z</time>
      </trkpt>
      <trkpt lat="38.2229390927" lon="-2.7498508058">
        <ele>736.51</ele>
        <time>2017-10-10T09:23:17Z</time>
      </trkpt>
      <trkpt lat="38.2229217421" lon="-2.7498637978">
        <ele>736.99</ele>
        <time>2017-10-10T09:23:18Z</time>
      </trkpt>
      <trkpt lat="38.2229041401" lon="-2.7498762030">
        <ele>736.99</ele>
        <time>2017-10-10T09:23:19Z</time>
      </trkpt>
      <trkpt lat="38.2228864543" lon="-2.7498850040">
        <ele>736.99</ele>
        <time>2017-10-10T09:23:20Z</time>
      </trkpt>
      <trkpt lat="38.2228694391" lon="-2.7498934697">
        <ele>737.95</ele>
        <time>2017-10-10T09:23:21Z</time>
      </trkpt>
      <trkpt lat="38.2228546031" lon="-2.7499054559">
        <ele>737.47</ele>
        <time>2017-10-10T09:23:22Z</time>
      </trkpt>
      <trkpt lat="38.2228381746" lon="-2.7499165200">
        <ele>737.47</ele>
        <time>2017-10-10T09:23:23Z</time>
      </trkpt>
      <trkpt lat="38.2228213269" lon="-2.7499258239">
        <ele>737.47</ele>
        <time>2017-10-10T09:23:24Z</time>
      </trkpt>
      <trkpt lat="38.2226571254" lon="-2.7500179410">
        <ele>738.91</ele>
        <time>2017-10-10T09:23:34Z</time>
      </trkpt>
      <trkpt lat="38.2226417866" lon="-2.7500152588">
        <ele>738.91</ele>
        <time>2017-10-10T09:23:35Z</time>
      </trkpt>
      <trkpt lat="38.2226251904" lon="-2.7500162646">
        <ele>738.91</ele>
        <time>2017-10-10T09:23:36Z</time>
      </trkpt>
      <trkpt lat="38.2226097677" lon="-2.7500180248">
        <ele>738.91</ele>
        <time>2017-10-10T09:23:37Z</time>
      </trkpt>
      <trkpt lat="38.2225995418" lon="-2.7500322741">
        <ele>738.91</ele>
        <time>2017-10-10T09:23:38Z</time>
      </trkpt>
      <trkpt lat="38.2225923333" lon="-2.7500523068">
        <ele>738.91</ele>
        <time>2017-10-10T09:23:39Z</time>
      </trkpt>
      <trkpt lat="38.2225789223" lon="-2.7500673942">
        <ele>739.39</ele>
        <time>2017-10-10T09:23:40Z</time>
      </trkpt>
      <trkpt lat="38.2225645054" lon="-2.7500804700">
        <ele>739.39</ele>
        <time>2017-10-10T09:23:41Z</time>
      </trkpt>
      <trkpt lat="38.2225486636" lon="-2.7500963956">
        <ele>739.39</ele>
        <time>2017-10-10T09:23:42Z</time>
      </trkpt>
      <trkpt lat="38.2225327380" lon="-2.7501139138">
        <ele>739.39</ele>
        <time>2017-10-10T09:23:43Z</time>
      </trkpt>
      <trkpt lat="38.2225174829" lon="-2.7501277439">
        <ele>739.39</ele>
        <time>2017-10-10T09:23:44Z</time>
      </trkpt>
      <trkpt lat="38.2225026470" lon="-2.7501398139">
        <ele>739.87</ele>
        <time>2017-10-10T09:23:45Z</time>
      </trkpt>
      <trkpt lat="38.2224895712" lon="-2.7501538955">
        <ele>739.87</ele>
        <time>2017-10-10T09:23:46Z</time>
      </trkpt>
      <trkpt lat="38.2222485077" lon="-2.7504034247">
        <ele>741.79</ele>
        <time>2017-10-10T09:24:02Z</time>
      </trkpt>
      <trkpt lat="38.2220531255" lon="-2.7506790217">
        <ele>743.24</ele>
        <time>2017-10-10T09:24:17Z</time>
      </trkpt>
      <trkpt lat="38.2219740842" lon="-2.7508490067">
        <ele>744.68</ele>
        <time>2017-10-10T09:24:27Z</time>
      </trkpt>
      <trkpt lat="38.2218873315" lon="-2.7510830294">
        <ele>745.64</ele>
        <time>2017-10-10T09:24:38Z</time>
      </trkpt>
      <trkpt lat="38.2217682246" lon="-2.7513844427">
        <ele>747.56</ele>
        <time>2017-10-10T09:24:52Z</time>
      </trkpt>
      <trkpt lat="38.2216789573" lon="-2.7515951637">
        <ele>748.52</ele>
        <time>2017-10-10T09:25:02Z</time>
      </trkpt>
      <trkpt lat="38.2215596829" lon="-2.7518497221">
        <ele>750.45</ele>
        <time>2017-10-10T09:25:14Z</time>
      </trkpt>
      <trkpt lat="38.2214174420" lon="-2.7521362156">
        <ele>751.41</ele>
        <time>2017-10-10T09:25:27Z</time>
      </trkpt>
      <trkpt lat="38.2212155219" lon="-2.7525288239">
        <ele>754.29</ele>
        <time>2017-10-10T09:25:45Z</time>
      </trkpt>
      <trkpt lat="38.2209934015" lon="-2.7528423909">
        <ele>755.73</ele>
        <time>2017-10-10T09:26:01Z</time>
      </trkpt>
      <trkpt lat="38.2207063213" lon="-2.7531726379">
        <ele>758.14</ele>
        <time>2017-10-10T09:26:16Z</time>
      </trkpt>
      <trkpt lat="38.2204080094" lon="-2.7533997875">
        <ele>760.06</ele>
        <time>2017-10-10T09:26:28Z</time>
      </trkpt>
      <trkpt lat="38.2201222703" lon="-2.7533491608">
        <ele>761.02</ele>
        <time>2017-10-10T09:26:38Z</time>
      </trkpt>
      <trkpt lat="38.2198367827" lon="-2.7531786729">
        <ele>761.98</ele>
        <time>2017-10-10T09:26:47Z</time>
      </trkpt>
      <trkpt lat="38.2196008321" lon="-2.7530376054">
        <ele>762.46</ele>
        <time>2017-10-10T09:26:57Z</time>
      </trkpt>
      <trkpt lat="38.2192559168" lon="-2.7528646868">
        <ele>762.46</ele>
        <time>2017-10-10T09:27:08Z</time>
      </trkpt>
      <trkpt lat="38.2192210481" lon="-2.7528178319">
        <ele>762.94</ele>
        <time>2017-10-10T09:27:15Z</time>
      </trkpt>
      <trkpt lat="38.2192181982" lon="-2.7528189216">
        <ele>762.94</ele>
        <time>2017-10-10T09:27:32Z</time>
      </trkpt>
      <trkpt lat="38.2192228921" lon="-2.7528169937">
        <ele>762.94</ele>
        <time>2017-10-10T09:27:50Z</time>
      </trkpt>
      <trkpt lat="38.2192258257" lon="-2.7528157365">
        <ele>762.94</ele>
        <time>2017-10-10T09:28:04Z</time>
      </trkpt>
      <trkpt lat="38.2192321122" lon="-2.7528270520">
        <ele>762.94</ele>
        <time>2017-10-10T09:28:34Z</time>
      </trkpt>
      <trkpt lat="38.2192304358" lon="-2.7528221067">
        <ele>762.94</ele>
        <time>2017-10-10T09:28:54Z</time>
      </trkpt>
      <trkpt lat="38.2192262448" lon="-2.7528238669">
        <ele>762.94</ele>
        <time>2017-10-10T09:29:11Z</time>
      </trkpt>
      <trkpt lat="38.2192255743" lon="-2.7528199274">
        <ele>762.94</ele>
        <time>2017-10-10T09:29:25Z</time>
      </trkpt>
      <trkpt lat="38.2192255743" lon="-2.7528178319">
        <ele>762.94</ele>
        <time>2017-10-10T09:29:46Z</time>
      </trkpt>
      <trkpt lat="38.2192247361" lon="-2.7528036665">
        <ele>762.94</ele>
        <time>2017-10-10T09:30:08Z</time>
      </trkpt>
      <trkpt lat="38.2192225568" lon="-2.7528046723">
        <ele>762.94</ele>
        <time>2017-10-10T09:30:30Z</time>
      </trkpt>
      <trkpt lat="38.2192340400" lon="-2.7528142277">
        <ele>762.94</ele>
        <time>2017-10-10T09:30:51Z</time>
      </trkpt>
      <trkpt lat="38.2192330342" lon="-2.7528103720">
        <ele>762.94</ele>
        <time>2017-10-10T09:31:13Z</time>
      </trkpt>
      <trkpt lat="38.2192218024" lon="-2.7527991403">
        <ele>762.94</ele>
        <time>2017-10-10T09:31:37Z</time>
      </trkpt>
      <trkpt lat="38.2192238979" lon="-2.7527976315">
        <ele>762.94</ele>
        <time>2017-10-10T09:31:50Z</time>
      </trkpt>
      <trkpt lat="38.2192196231" lon="-2.7527935244">
        <ele>763.42</ele>
        <time>2017-10-10T09:32:11Z</time>
      </trkpt>
      <trkpt lat="38.2192121632" lon="-2.7528021578">
        <ele>763.42</ele>
        <time>2017-10-10T09:32:27Z</time>
      </trkpt>
      <trkpt lat="38.2192177791" lon="-2.7528103720">
        <ele>763.42</ele>
        <time>2017-10-10T09:32:43Z</time>
      </trkpt>
      <trkpt lat="38.2192095648" lon="-2.7528174128">
        <ele>763.42</ele>
        <time>2017-10-10T09:32:44Z</time>
      </trkpt>
      <trkpt lat="38.2190760411" lon="-2.7528948616">
        <ele>763.42</ele>
        <time>2017-10-10T09:32:53Z</time>
      </trkpt>
      <trkpt lat="38.2189926412" lon="-2.7529345918">
        <ele>763.90</ele>
        <time>2017-10-10T09:32:58Z</time>
      </trkpt>
      <trkpt lat="38.2187789027" lon="-2.7530764136">
        <ele>765.35</ele>
        <time>2017-10-10T09:33:12Z</time>
      </trkpt>
      <trkpt lat="38.2186184730" lon="-2.7531940956">
        <ele>766.79</ele>
        <time>2017-10-10T09:33:23Z</time>
      </trkpt>
      <trkpt lat="38.2184546907" lon="-2.7533008810">
        <ele>767.75</ele>
        <time>2017-10-10T09:33:34Z</time>
      </trkpt>
      <trkpt lat="38.2182334084" lon="-2.7533650864">
        <ele>769.19</ele>
        <time>2017-10-10T09:33:47Z</time>
      </trkpt>
      <trkpt lat="38.2180422172" lon="-2.7534166351">
        <ele>770.15</ele>
        <time>2017-10-10T09:33:58Z</time>
      </trkpt>
      <trkpt lat="38.2178476732" lon="-2.7534663398">
        <ele>771.11</ele>
        <time>2017-10-10T09:34:09Z</time>
      </trkpt>
      <trkpt lat="38.2176702283" lon="-2.7535188105">
        <ele>772.56</ele>
        <time>2017-10-10T09:34:19Z</time>
      </trkpt>
      <trkpt lat="38.2175650354" lon="-2.7535525896">
        <ele>773.04</ele>
        <time>2017-10-10T09:34:25Z</time>
      </trkpt>
      <trkpt lat="38.2173721679" lon="-2.7536561061">
        <ele>774.48</ele>
        <time>2017-10-10T09:34:37Z</time>
      </trkpt>
      <trkpt lat="38.2172015123" lon="-2.7538201399">
        <ele>775.92</ele>
        <time>2017-10-10T09:34:49Z</time>
      </trkpt>
      <trkpt lat="38.2170307729" lon="-2.7540062182">
        <ele>777.36</ele>
        <time>2017-10-10T09:35:02Z</time>
      </trkpt>
      <trkpt lat="38.2168925554" lon="-2.7541270852">
        <ele>778.32</ele>
        <time>2017-10-10T09:35:12Z</time>
      </trkpt>
      <trkpt lat="38.2167425193" lon="-2.7542855032">
        <ele>779.77</ele>
        <time>2017-10-10T09:35:24Z</time>
      </trkpt>
      <trkpt lat="38.2165889628" lon="-2.7544300072">
        <ele>781.21</ele>
        <time>2017-10-10T09:35:36Z</time>
      </trkpt>
      <trkpt lat="38.2164104283" lon="-2.7545693982">
        <ele>782.17</ele>
        <time>2017-10-10T09:35:48Z</time>
      </trkpt>
      <trkpt lat="38.2161428779" lon="-2.7547049336">
        <ele>783.13</ele>
        <time>2017-10-10T09:36:01Z</time>
      </trkpt>
      <trkpt lat="38.2158201747" lon="-2.7548473421">
        <ele>783.61</ele>
        <time>2017-10-10T09:36:16Z</time>
      </trkpt>
      <trkpt lat="38.2154704817" lon="-2.7550089452">
        <ele>784.57</ele>
        <time>2017-10-10T09:36:32Z</time>
      </trkpt>
      <trkpt lat="38.2152702380" lon="-2.7551149763">
        <ele>785.05</ele>
        <time>2017-10-10T09:36:43Z</time>
      </trkpt>
      <trkpt lat="38.2150087226" lon="-2.7552535292">
        <ele>784.09</ele>
        <time>2017-10-10T09:36:55Z</time>
      </trkpt>
      <trkpt lat="38.2145933155" lon="-2.7555177268">
        <ele>783.13</ele>
        <time>2017-10-10T09:37:07Z</time>
      </trkpt>
      <trkpt lat="38.2142264396" lon="-2.7557233348">
        <ele>782.17</ele>
        <time>2017-10-10T09:37:16Z</time>
      </trkpt>
      <trkpt lat="38.2141852845" lon="-2.7557467204">
        <ele>782.17</ele>
        <time>2017-10-10T09:37:17Z</time>
      </trkpt>
      <trkpt lat="38.2141458057" lon="-2.7557679266">
        <ele>782.17</ele>
        <time>2017-10-10T09:37:18Z</time>
      </trkpt>
      <trkpt lat="38.2141056564" lon="-2.7557894681">
        <ele>782.17</ele>
        <time>2017-10-10T09:37:19Z</time>
      </trkpt>
      <trkpt lat="38.2140648365" lon="-2.7558110934">
        <ele>781.69</ele>
        <time>2017-10-10T09:37:20Z</time>
      </trkpt>
      <trkpt lat="38.2137003914" lon="-2.7560168691">
        <ele>781.69</ele>
        <time>2017-10-10T09:37:29Z</time>
      </trkpt>
      <trkpt lat="38.2135881577" lon="-2.7560858522">
        <ele>781.21</ele>
        <time>2017-10-10T09:37:32Z</time>
      </trkpt>
      <trkpt lat="38.2135101222" lon="-2.7561414242">
        <ele>780.73</ele>
        <time>2017-10-10T09:37:34Z</time>
      </trkpt>
      <trkpt lat="38.2128575910" lon="-2.7565072943">
        <ele>779.29</ele>
        <time>2017-10-10T09:37:49Z</time>
      </trkpt>
      <trkpt lat="38.2127118297" lon="-2.7565824799">
        <ele>778.81</ele>
        <time>2017-10-10T09:37:52Z</time>
      </trkpt>
      <trkpt lat="38.2126208022" lon="-2.7566517144">
        <ele>778.81</ele>
        <time>2017-10-10T09:37:54Z</time>
      </trkpt>
      <trkpt lat="38.2123331353" lon="-2.7568266448">
        <ele>778.32</ele>
        <time>2017-10-10T09:38:00Z</time>
      </trkpt>
      <trkpt lat="38.2120769843" lon="-2.7569496911">
        <ele>777.36</ele>
        <time>2017-10-10T09:38:05Z</time>
      </trkpt>
      <trkpt lat="38.2120303810" lon="-2.7569881640">
        <ele>777.36</ele>
        <time>2017-10-10T09:38:06Z</time>
      </trkpt>
      <trkpt lat="38.2119847834" lon="-2.7570257988">
        <ele>777.36</ele>
        <time>2017-10-10T09:38:07Z</time>
      </trkpt>
      <trkpt lat="38.2119372580" lon="-2.7570574824">
        <ele>777.36</ele>
        <time>2017-10-10T09:38:08Z</time>
      </trkpt>
      <trkpt lat="38.2118903194" lon="-2.7570849750">
        <ele>777.36</ele>
        <time>2017-10-10T09:38:09Z</time>
      </trkpt>
      <trkpt lat="38.2113359403" lon="-2.7572200913">
        <ele>775.92</ele>
        <time>2017-10-10T09:38:20Z</time>
      </trkpt>
      <trkpt lat="38.2104330417" lon="-2.7572573069">
        <ele>773.52</ele>
        <time>2017-10-10T09:38:35Z</time>
      </trkpt>
      <trkpt lat="38.2099508308" lon="-2.7572599892">
        <ele>773.04</ele>
        <time>2017-10-10T09:38:43Z</time>
      </trkpt>
      <trkpt lat="38.2099002879" lon="-2.7572435606">
        <ele>773.04</ele>
        <time>2017-10-10T09:38:44Z</time>
      </trkpt>
      <trkpt lat="38.2098527625" lon="-2.7572228573">
        <ele>773.04</ele>
        <time>2017-10-10T09:38:45Z</time>
      </trkpt>
      <trkpt lat="38.2098092604" lon="-2.7571980469">
        <ele>773.04</ele>
        <time>2017-10-10T09:38:46Z</time>
      </trkpt>
      <trkpt lat="38.2097717095" lon="-2.7571699675">
        <ele>773.04</ele>
        <time>2017-10-10T09:38:47Z</time>
      </trkpt>
      <trkpt lat="38.2097404450" lon="-2.7571407147">
        <ele>773.52</ele>
        <time>2017-10-10T09:38:48Z</time>
      </trkpt>
      <trkpt lat="38.2097120304" lon="-2.7571148146">
        <ele>773.52</ele>
        <time>2017-10-10T09:38:49Z</time>
      </trkpt>
      <trkpt lat="38.2094299793" lon="-2.7569149062">
        <ele>774.48</ele>
        <time>2017-10-10T09:38:59Z</time>
      </trkpt>
      <trkpt lat="38.2094052527" lon="-2.7569174208">
        <ele>774.48</ele>
        <time>2017-10-10T09:39:00Z</time>
      </trkpt>
      <trkpt lat="38.2090834714" lon="-2.7569661196">
        <ele>775.92</ele>
        <time>2017-10-10T09:39:13Z</time>
      </trkpt>
      <trkpt lat="38.2088170946" lon="-2.7570422273">
        <ele>777.36</ele>
        <time>2017-10-10T09:39:24Z</time>
      </trkpt>
      <trkpt lat="38.2085665595" lon="-2.7570128907">
        <ele>778.32</ele>
        <time>2017-10-10T09:39:35Z</time>
      </trkpt>
      <trkpt lat="38.2083332073" lon="-2.7569284011">
        <ele>779.29</ele>
        <time>2017-10-10T09:39:46Z</time>
      </trkpt>
      <trkpt lat="38.2080575265" lon="-2.7568478510">
        <ele>780.73</ele>
        <time>2017-10-10T09:39:59Z</time>
      </trkpt>
      <trkpt lat="38.2078064885" lon="-2.7567764372">
        <ele>781.69</ele>
        <time>2017-10-10T09:40:11Z</time>
      </trkpt>
      <trkpt lat="38.2075888105" lon="-2.7567366231">
        <ele>782.65</ele>
        <time>2017-10-10T09:40:22Z</time>
      </trkpt>
      <trkpt lat="38.2073210925" lon="-2.7566580847">
        <ele>784.09</ele>
        <time>2017-10-10T09:40:35Z</time>
      </trkpt>
      <trkpt lat="38.2069802843" lon="-2.7566515468">
        <ele>785.05</ele>
        <time>2017-10-10T09:40:49Z</time>
      </trkpt>
      <trkpt lat="38.2066774461" lon="-2.7567141596">
        <ele>786.02</ele>
        <time>2017-10-10T09:41:00Z</time>
      </trkpt>
      <trkpt lat="38.2063325308" lon="-2.7568150777">
        <ele>786.02</ele>
        <time>2017-10-10T09:41:12Z</time>
      </trkpt>
      <trkpt lat="38.2060669921" lon="-2.7569427341">
        <ele>786.98</ele>
        <time>2017-10-10T09:41:22Z</time>
      </trkpt>
      <trkpt lat="38.2057781518" lon="-2.7569339331">
        <ele>787.94</ele>
        <time>2017-10-10T09:41:32Z</time>
      </trkpt>
      <trkpt lat="38.2054349128" lon="-2.7567989845">
        <ele>787.94</ele>
        <time>2017-10-10T09:41:42Z</time>
      </trkpt>
      <trkpt lat="38.2051294763" lon="-2.7567035146">
        <ele>788.42</ele>
        <time>2017-10-10T09:41:52Z</time>
      </trkpt>
      <trkpt lat="38.2047367003" lon="-2.7566911094">
        <ele>788.90</ele>
        <time>2017-10-10T09:42:04Z</time>
      </trkpt>
      <trkpt lat="38.2043631189" lon="-2.7566641197">
        <ele>788.90</ele>
        <time>2017-10-10T09:42:14Z</time>
      </trkpt>
      <trkpt lat="38.2038836740" lon="-2.7566556539">
        <ele>788.90</ele>
        <time>2017-10-10T09:42:27Z</time>
      </trkpt>
      <trkpt lat="38.2035272755" lon="-2.7567828074">
        <ele>789.38</ele>
        <time>2017-10-10T09:42:38Z</time>
      </trkpt>
      <trkpt lat="38.2031771634" lon="-2.7569415607">
        <ele>789.38</ele>
        <time>2017-10-10T09:42:49Z</time>
      </trkpt>
      <trkpt lat="38.2028411329" lon="-2.7571527008">
        <ele>789.38</ele>
        <time>2017-10-10T09:43:00Z</time>
      </trkpt>
      <trkpt lat="38.2025797013" lon="-2.7573761623">
        <ele>788.90</ele>
        <time>2017-10-10T09:43:09Z</time>
      </trkpt>
      <trkpt lat="38.2022782881" lon="-2.7576066647">
        <ele>788.90</ele>
        <time>2017-10-10T09:43:19Z</time>
      </trkpt>
      <trkpt lat="38.2019603625" lon="-2.7578277793">
        <ele>788.42</ele>
        <time>2017-10-10T09:43:28Z</time>
      </trkpt>
      <trkpt lat="38.2018781360" lon="-2.7578686830">
        <ele>788.42</ele>
        <time>2017-10-10T09:43:30Z</time>
      </trkpt>
      <trkpt lat="38.2017889526" lon="-2.7578955889">
        <ele>787.94</ele>
        <time>2017-10-10T09:43:32Z</time>
      </trkpt>
      <trkpt lat="38.2012140378" lon="-2.7580711059">
        <ele>786.50</ele>
        <time>2017-10-10T09:43:43Z</time>
      </trkpt>
      <trkpt lat="38.2011024747" lon="-2.7581265103">
        <ele>786.02</ele>
        <time>2017-10-10T09:43:45Z</time>
      </trkpt>
      <trkpt lat="38.2010510936" lon="-2.7581668273">
        <ele>786.02</ele>
        <time>2017-10-10T09:43:46Z</time>
      </trkpt>
      <trkpt lat="38.2009991258" lon="-2.7582095750">
        <ele>785.53</ele>
        <time>2017-10-10T09:43:47Z</time>
      </trkpt>
      <trkpt lat="38.2005575672" lon="-2.7585513890">
        <ele>784.09</ele>
        <time>2017-10-10T09:43:55Z</time>
      </trkpt>
      <trkpt lat="38.2005014084" lon="-2.7585798036">
        <ele>784.09</ele>
        <time>2017-10-10T09:43:56Z</time>
      </trkpt>
      <trkpt lat="38.2004419807" lon="-2.7586018480">
        <ele>784.09</ele>
        <time>2017-10-10T09:43:57Z</time>
      </trkpt>
      <trkpt lat="38.2003792003" lon="-2.7586162649">
        <ele>784.09</ele>
        <time>2017-10-10T09:43:58Z</time>
      </trkpt>
      <trkpt lat="38.2003128994" lon="-2.7586219646">
        <ele>783.61</ele>
        <time>2017-10-10T09:43:59Z</time>
      </trkpt>
      <trkpt lat="38.2002442516" lon="-2.7586254850">
        <ele>783.13</ele>
        <time>2017-10-10T09:44:00Z</time>
      </trkpt>
      <trkpt lat="38.2001012564" lon="-2.7586254012">
        <ele>782.17</ele>
        <time>2017-10-10T09:44:02Z</time>
      </trkpt>
      <trkpt lat="38.1998085603" lon="-2.7586366329">
        <ele>781.69</ele>
        <time>2017-10-10T09:44:06Z</time>
      </trkpt>
      <trkpt lat="38.1997410022" lon="-2.7586566657">
        <ele>781.69</ele>
        <time>2017-10-10T09:44:07Z</time>
      </trkpt>
      <trkpt lat="38.1996773835" lon="-2.7586880978">
        <ele>781.69</ele>
        <time>2017-10-10T09:44:08Z</time>
      </trkpt>
      <trkpt lat="38.1996182073" lon="-2.7587284986">
        <ele>781.69</ele>
        <time>2017-10-10T09:44:09Z</time>
      </trkpt>
      <trkpt lat="38.1995637249" lon="-2.7587803826">
        <ele>781.21</ele>
        <time>2017-10-10T09:44:10Z</time>
      </trkpt>
      <trkpt lat="38.1995141041" lon="-2.7588385530">
        <ele>781.21</ele>
        <time>2017-10-10T09:44:11Z</time>
      </trkpt>
      <trkpt lat="38.1994654890" lon="-2.7589009143">
        <ele>780.73</ele>
        <time>2017-10-10T09:44:12Z</time>
      </trkpt>
      <trkpt lat="38.1988697872" lon="-2.7596609015">
        <ele>778.32</ele>
        <time>2017-10-10T09:44:24Z</time>
      </trkpt>
      <trkpt lat="38.1988079287" lon="-2.7597084269">
        <ele>778.32</ele>
        <time>2017-10-10T09:44:25Z</time>
      </trkpt>
      <trkpt lat="38.1987420470" lon="-2.7597479057">
        <ele>778.32</ele>
        <time>2017-10-10T09:44:26Z</time>
      </trkpt>
      <trkpt lat="38.1986066792" lon="-2.7598237619">
        <ele>777.36</ele>
        <time>2017-10-10T09:44:28Z</time>
      </trkpt>
      <trkpt lat="38.1985386182" lon="-2.7598632406">
        <ele>777.36</ele>
        <time>2017-10-10T09:44:29Z</time>
      </trkpt>
      <trkpt lat="38.1984663662" lon="-2.7598938346">
        <ele>776.88</ele>
        <time>2017-10-10T09:44:30Z</time>
      </trkpt>
      <trkpt lat="38.1983910128" lon="-2.7599143703">
        <ele>776.40</ele>
        <time>2017-10-10T09:44:31Z</time>
      </trkpt>
      <trkpt lat="38.1983140670" lon="-2.7599318884">
        <ele>775.92</ele>
        <time>2017-10-10T09:44:32Z</time>
      </trkpt>
      <trkpt lat="38.1981574092" lon="-2.7599509154">
        <ele>775.44</ele>
        <time>2017-10-10T09:44:34Z</time>
      </trkpt>
      <trkpt lat="38.1979252305" lon="-2.7599412762">
        <ele>774.48</ele>
        <time>2017-10-10T09:44:37Z</time>
      </trkpt>
      <trkpt lat="38.1978487037" lon="-2.7599266917">
        <ele>774.48</ele>
        <time>2017-10-10T09:44:38Z</time>
      </trkpt>
      <trkpt lat="38.1974562630" lon="-2.7598658390">
        <ele>773.04</ele>
        <time>2017-10-10T09:44:43Z</time>
      </trkpt>
      <trkpt lat="38.1973783951" lon="-2.7598802559">
        <ele>773.04</ele>
        <time>2017-10-10T09:44:44Z</time>
      </trkpt>
      <trkpt lat="38.1973023713" lon="-2.7599085867">
        <ele>773.04</ele>
        <time>2017-10-10T09:44:45Z</time>
      </trkpt>
      <trkpt lat="38.1972320471" lon="-2.7599523403">
        <ele>772.56</ele>
        <time>2017-10-10T09:44:46Z</time>
      </trkpt>
      <trkpt lat="38.1971709430" lon="-2.7600135282">
        <ele>772.56</ele>
        <time>2017-10-10T09:44:47Z</time>
      </trkpt>
      <trkpt lat="38.1971152034" lon="-2.7600843553">
        <ele>772.08</ele>
        <time>2017-10-10T09:44:48Z</time>
      </trkpt>
      <trkpt lat="38.1967875548" lon="-2.7604679950">
        <ele>769.67</ele>
        <time>2017-10-10T09:44:55Z</time>
      </trkpt>
      <trkpt lat="38.1967452262" lon="-2.7605057135">
        <ele>769.19</ele>
        <time>2017-10-10T09:44:56Z</time>
      </trkpt>
      <trkpt lat="38.1962948665" lon="-2.7609012555">
        <ele>767.27</ele>
        <time>2017-10-10T09:45:06Z</time>
      </trkpt>
      <trkpt lat="38.1958235521" lon="-2.7612483501">
        <ele>765.83</ele>
        <time>2017-10-10T09:45:16Z</time>
      </trkpt>
      <trkpt lat="38.1954275910" lon="-2.7614905033">
        <ele>764.87</ele>
        <time>2017-10-10T09:45:25Z</time>
      </trkpt>
      <trkpt lat="38.1953872740" lon="-2.7615356818">
        <ele>764.87</ele>
        <time>2017-10-10T09:45:26Z</time>
      </trkpt>
      <trkpt lat="38.1949977670" lon="-2.7621006221">
        <ele>764.39</ele>
        <time>2017-10-10T09:45:37Z</time>
      </trkpt>
      <trkpt lat="38.1947881356" lon="-2.7624941524">
        <ele>763.90</ele>
        <time>2017-10-10T09:45:44Z</time>
      </trkpt>
      <trkpt lat="38.1947722938" lon="-2.7625568490">
        <ele>763.42</ele>
        <time>2017-10-10T09:45:45Z</time>
      </trkpt>
      <trkpt lat="38.1947619841" lon="-2.7626210544">
        <ele>763.42</ele>
        <time>2017-10-10T09:45:46Z</time>
      </trkpt>
      <trkpt lat="38.1947041489" lon="-2.7633210272">
        <ele>762.46</ele>
        <time>2017-10-10T09:45:58Z</time>
      </trkpt>
      <trkpt lat="38.1947007962" lon="-2.7634274773">
        <ele>762.46</ele>
        <time>2017-10-10T09:46:00Z</time>
      </trkpt>
      <trkpt lat="38.1946994551" lon="-2.7634809539">
        <ele>762.46</ele>
        <time>2017-10-10T09:46:01Z</time>
      </trkpt>
      <trkpt lat="38.1946555339" lon="-2.7640255261">
        <ele>764.39</ele>
        <time>2017-10-10T09:46:13Z</time>
      </trkpt>
      <trkpt lat="38.1946281251" lon="-2.7642607223">
        <ele>765.83</ele>
        <time>2017-10-10T09:46:22Z</time>
      </trkpt>
      <trkpt lat="38.1945775822" lon="-2.7644610498">
        <ele>766.79</ele>
        <time>2017-10-10T09:46:32Z</time>
      </trkpt>
      <trkpt lat="38.1945003849" lon="-2.7646222338">
        <ele>767.75</ele>
        <time>2017-10-10T09:46:41Z</time>
      </trkpt>
      <trkpt lat="38.1943611614" lon="-2.7648377325">
        <ele>769.19</ele>
        <time>2017-10-10T09:46:54Z</time>
      </trkpt>
      <trkpt lat="38.1941606663" lon="-2.7649976593">
        <ele>770.63</ele>
        <time>2017-10-10T09:47:05Z</time>
      </trkpt>
      <trkpt lat="38.1939198542" lon="-2.7651493717">
        <ele>771.11</ele>
        <time>2017-10-10T09:47:17Z</time>
      </trkpt>
      <trkpt lat="38.1936611887" lon="-2.7653719112">
        <ele>771.11</ele>
        <time>2017-10-10T09:47:28Z</time>
      </trkpt>
      <trkpt lat="38.1933634635" lon="-2.7656599972">
        <ele>770.63</ele>
        <time>2017-10-10T09:47:39Z</time>
      </trkpt>
      <trkpt lat="38.1931990944" lon="-2.7658451535">
        <ele>769.67</ele>
        <time>2017-10-10T09:47:44Z</time>
      </trkpt>
      <trkpt lat="38.1931212265" lon="-2.7659195010">
        <ele>769.19</ele>
        <time>2017-10-10T09:47:46Z</time>
      </trkpt>
      <trkpt lat="38.1930840109" lon="-2.7659640927">
        <ele>769.19</ele>
        <time>2017-10-10T09:47:47Z</time>
      </trkpt>
      <trkpt lat="38.1930505671" lon="-2.7660121210">
        <ele>769.19</ele>
        <time>2017-10-10T09:47:48Z</time>
      </trkpt>
      <trkpt lat="38.1930220686" lon="-2.7660647593">
        <ele>769.19</ele>
        <time>2017-10-10T09:47:49Z</time>
      </trkpt>
      <trkpt lat="38.1929959171" lon="-2.7661228459">
        <ele>768.71</ele>
        <time>2017-10-10T09:47:50Z</time>
      </trkpt>
      <trkpt lat="38.1929721963" lon="-2.7661845367">
        <ele>768.71</ele>
        <time>2017-10-10T09:47:51Z</time>
      </trkpt>
      <trkpt lat="38.1929526664" lon="-2.7662480716">
        <ele>768.23</ele>
        <time>2017-10-10T09:47:52Z</time>
      </trkpt>
      <trkpt lat="38.1929383334" lon="-2.7663147915">
        <ele>767.75</ele>
        <time>2017-10-10T09:47:53Z</time>
      </trkpt>
      <trkpt lat="38.1928470545" lon="-2.7667157818">
        <ele>766.79</ele>
        <time>2017-10-10T09:47:59Z</time>
      </trkpt>
      <trkpt lat="38.1928289495" lon="-2.7667778917">
        <ele>766.79</ele>
        <time>2017-10-10T09:48:00Z</time>
      </trkpt>
      <trkpt lat="38.1926709507" lon="-2.7675407287">
        <ele>764.39</ele>
        <time>2017-10-10T09:48:11Z</time>
      </trkpt>
      <trkpt lat="38.1926450506" lon="-2.7676987275">
        <ele>763.90</ele>
        <time>2017-10-10T09:48:13Z</time>
      </trkpt>
      <trkpt lat="38.1926422846" lon="-2.7677811217">
        <ele>763.42</ele>
        <time>2017-10-10T09:48:14Z</time>
      </trkpt>
      <trkpt lat="38.1926564500" lon="-2.7682525199">
        <ele>761.50</ele>
        <time>2017-10-10T09:48:19Z</time>
      </trkpt>
      <trkpt lat="38.1926777400" lon="-2.7684556134">
        <ele>760.54</ele>
        <time>2017-10-10T09:48:21Z</time>
      </trkpt>
      <trkpt lat="38.1926671788" lon="-2.7687692642">
        <ele>759.58</ele>
        <time>2017-10-10T09:48:24Z</time>
      </trkpt>
      <trkpt lat="38.1926455535" lon="-2.7688779775">
        <ele>759.10</ele>
        <time>2017-10-10T09:48:25Z</time>
      </trkpt>
      <trkpt lat="38.1926084217" lon="-2.7689861879">
        <ele>758.62</ele>
        <time>2017-10-10T09:48:26Z</time>
      </trkpt>
      <trkpt lat="38.1925546937" lon="-2.7690866031">
        <ele>758.62</ele>
        <time>2017-10-10T09:48:27Z</time>
      </trkpt>
      <trkpt lat="38.1924891472" lon="-2.7691769600">
        <ele>758.14</ele>
        <time>2017-10-10T09:48:28Z</time>
      </trkpt>
      <trkpt lat="38.1924169790" lon="-2.7692640480">
        <ele>757.18</ele>
        <time>2017-10-10T09:48:29Z</time>
      </trkpt>
      <trkpt lat="38.1921342574" lon="-2.7696023416">
        <ele>755.25</ele>
        <time>2017-10-10T09:48:33Z</time>
      </trkpt>
      <trkpt lat="38.1920727342" lon="-2.7696918603">
        <ele>755.25</ele>
        <time>2017-10-10T09:48:34Z</time>
      </trkpt>
      <trkpt lat="38.1920246221" lon="-2.7697919402">
        <ele>755.25</ele>
        <time>2017-10-10T09:48:35Z</time>
      </trkpt>
      <trkpt lat="38.1919961236" lon="-2.7699009050">
        <ele>755.25</ele>
        <time>2017-10-10T09:48:36Z</time>
      </trkpt>
      <trkpt lat="38.1919891667" lon="-2.7700111270">
        <ele>754.77</ele>
        <time>2017-10-10T09:48:37Z</time>
      </trkpt>
      <trkpt lat="38.1919934414" lon="-2.7701200079">
        <ele>754.29</ele>
        <time>2017-10-10T09:48:38Z</time>
      </trkpt>
      <trkpt lat="38.1920010690" lon="-2.7702329122">
        <ele>754.29</ele>
        <time>2017-10-10T09:48:39Z</time>
      </trkpt>
      <trkpt lat="38.1921589002" lon="-2.7711049654">
        <ele>751.89</ele>
        <time>2017-10-10T09:48:47Z</time>
      </trkpt>
      <trkpt lat="38.1921733171" lon="-2.7712134272">
        <ele>751.89</ele>
        <time>2017-10-10T09:48:48Z</time>
      </trkpt>
      <trkpt lat="38.1921744067" lon="-2.7713182010">
        <ele>751.89</ele>
        <time>2017-10-10T09:48:49Z</time>
      </trkpt>
      <trkpt lat="38.1921617500" lon="-2.7714203764">
        <ele>751.89</ele>
        <time>2017-10-10T09:48:50Z</time>
      </trkpt>
      <trkpt lat="38.1921386998" lon="-2.7715198696">
        <ele>751.41</ele>
        <time>2017-10-10T09:48:51Z</time>
      </trkpt>
      <trkpt lat="38.1921051722" lon="-2.7716097236">
        <ele>751.41</ele>
        <time>2017-10-10T09:48:52Z</time>
      </trkpt>
      <trkpt lat="38.1920613348" lon="-2.7716873400">
        <ele>751.41</ele>
        <time>2017-10-10T09:48:53Z</time>
      </trkpt>
      <trkpt lat="38.1920090318" lon="-2.7717552334">
        <ele>751.41</ele>
        <time>2017-10-10T09:48:54Z</time>
      </trkpt>
      <trkpt lat="38.1919519510" lon="-2.7718139905">
        <ele>751.41</ele>
        <time>2017-10-10T09:48:55Z</time>
      </trkpt>
      <trkpt lat="38.1918926910" lon="-2.7718635276">
        <ele>750.93</ele>
        <time>2017-10-10T09:48:56Z</time>
      </trkpt>
      <trkpt lat="38.1918318383" lon="-2.7719081193">
        <ele>750.93</ele>
        <time>2017-10-10T09:48:57Z</time>
      </trkpt>
      <trkpt lat="38.1913851667" lon="-2.7721112128">
        <ele>750.93</ele>
        <time>2017-10-10T09:49:05Z</time>
      </trkpt>
      <trkpt lat="38.1913314387" lon="-2.7721102908">
        <ele>750.93</ele>
        <time>2017-10-10T09:49:06Z</time>
      </trkpt>
      <trkpt lat="38.1912783813" lon="-2.7721009031">
        <ele>750.45</ele>
        <time>2017-10-10T09:49:07Z</time>
      </trkpt>
      <trkpt lat="38.1910345517" lon="-2.7720210236">
        <ele>750.45</ele>
        <time>2017-10-10T09:49:12Z</time>
      </trkpt>
      <trkpt lat="38.1909949891" lon="-2.7719965484">
        <ele>750.93</ele>
        <time>2017-10-10T09:49:13Z</time>
      </trkpt>
      <trkpt lat="38.1909578573" lon="-2.7719721571">
        <ele>750.93</ele>
        <time>2017-10-10T09:49:14Z</time>
      </trkpt>
      <trkpt lat="38.1906893849" lon="-2.7718408126">
        <ele>751.41</ele>
        <time>2017-10-10T09:49:23Z</time>
      </trkpt>
      <trkpt lat="38.1903666817" lon="-2.7716633677">
        <ele>752.37</ele>
        <time>2017-10-10T09:49:35Z</time>
      </trkpt>
      <trkpt lat="38.1900023203" lon="-2.7714090608">
        <ele>753.81</ele>
        <time>2017-10-10T09:49:46Z</time>
      </trkpt>
      <trkpt lat="38.1896144897" lon="-2.7710910514">
        <ele>755.25</ele>
        <time>2017-10-10T09:49:59Z</time>
      </trkpt>
      <trkpt lat="38.1893033534" lon="-2.7707123570">
        <ele>756.21</ele>
        <time>2017-10-10T09:50:11Z</time>
      </trkpt>
      <trkpt lat="38.1890731025" lon="-2.7705700323">
        <ele>757.18</ele>
        <time>2017-10-10T09:50:18Z</time>
      </trkpt>
      <trkpt lat="38.1887335517" lon="-2.7705567889">
        <ele>758.14</ele>
        <time>2017-10-10T09:50:27Z</time>
      </trkpt>
      <trkpt lat="38.1884020474" lon="-2.7704992890">
        <ele>759.10</ele>
        <time>2017-10-10T09:50:37Z</time>
      </trkpt>
      <trkpt lat="38.1881205831" lon="-2.7703672741">
        <ele>759.58</ele>
        <time>2017-10-10T09:50:46Z</time>
      </trkpt>
      <trkpt lat="38.1878104527" lon="-2.7704064175">
        <ele>760.54</ele>
        <time>2017-10-10T09:50:55Z</time>
      </trkpt>
      <trkpt lat="38.1875931937" lon="-2.7706611436">
        <ele>761.02</ele>
        <time>2017-10-10T09:51:03Z</time>
      </trkpt>
      <trkpt lat="38.1873418204" lon="-2.7709549293">
        <ele>761.50</ele>
        <time>2017-10-10T09:51:12Z</time>
      </trkpt>
      <trkpt lat="38.1870109867" lon="-2.7712293528">
        <ele>763.90</ele>
        <time>2017-10-10T09:51:24Z</time>
      </trkpt>
      <trkpt lat="38.1867500581" lon="-2.7714380622">
        <ele>765.83</ele>
        <time>2017-10-10T09:51:37Z</time>
      </trkpt>
      <trkpt lat="38.1865645666" lon="-2.7717242204">
        <ele>765.83</ele>
        <time>2017-10-10T09:51:48Z</time>
      </trkpt>
      <trkpt lat="38.1865172926" lon="-2.7718482725">
        <ele>770.15</ele>
        <time>2017-10-10T09:51:52Z</time>
      </trkpt>
      <trkpt lat="38.1865048874" lon="-2.7718828060">
        <ele>765.83</ele>
        <time>2017-10-10T09:51:53Z</time>
      </trkpt>
      <trkpt lat="38.1864151172" lon="-2.7721625939">
        <ele>769.19</ele>
        <time>2017-10-10T09:52:01Z</time>
      </trkpt>
      <trkpt lat="38.1863261014" lon="-2.7724515181">
        <ele>768.71</ele>
        <time>2017-10-10T09:52:09Z</time>
      </trkpt>
      <trkpt lat="38.1862000376" lon="-2.7728370018">
        <ele>769.19</ele>
        <time>2017-10-10T09:52:19Z</time>
      </trkpt>
      <trkpt lat="38.1860891450" lon="-2.7730954159">
        <ele>769.19</ele>
        <time>2017-10-10T09:52:25Z</time>
      </trkpt>
      <trkpt lat="38.1860575452" lon="-2.7731376607">
        <ele>769.19</ele>
        <time>2017-10-10T09:52:26Z</time>
      </trkpt>
      <trkpt lat="38.1859781686" lon="-2.7732172888">
        <ele>768.23</ele>
        <time>2017-10-10T09:52:28Z</time>
      </trkpt>
      <trkpt lat="38.1858791783" lon="-2.7733013593">
        <ele>767.27</ele>
        <time>2017-10-10T09:52:30Z</time>
      </trkpt>
      <trkpt lat="38.1854798645" lon="-2.7736338694">
        <ele>763.90</ele>
        <time>2017-10-10T09:52:36Z</time>
      </trkpt>
      <trkpt lat="38.1850778684" lon="-2.7739392221">
        <ele>761.02</ele>
        <time>2017-10-10T09:52:41Z</time>
      </trkpt>
      <trkpt lat="38.1842365768" lon="-2.7745938487">
        <ele>758.62</ele>
        <time>2017-10-10T09:52:53Z</time>
      </trkpt>
      <trkpt lat="38.1840937492" lon="-2.7746925037">
        <ele>758.62</ele>
        <time>2017-10-10T09:52:55Z</time>
      </trkpt>
      <trkpt lat="38.1840165518" lon="-2.7747237682">
        <ele>758.14</ele>
        <time>2017-10-10T09:52:56Z</time>
      </trkpt>
      <trkpt lat="38.1839370914" lon="-2.7747393586">
        <ele>758.14</ele>
        <time>2017-10-10T09:52:57Z</time>
      </trkpt>
      <trkpt lat="38.1838563737" lon="-2.7747440524">
        <ele>757.66</ele>
        <time>2017-10-10T09:52:58Z</time>
      </trkpt>
      <trkpt lat="38.1837742310" lon="-2.7747412026">
        <ele>757.66</ele>
        <time>2017-10-10T09:52:59Z</time>
      </trkpt>
      <trkpt lat="38.1836877298" lon="-2.7747333236">
        <ele>757.18</ele>
        <time>2017-10-10T09:53:00Z</time>
      </trkpt>
      <trkpt lat="38.1832196843" lon="-2.7746773325">
        <ele>755.73</ele>
        <time>2017-10-10T09:53:06Z</time>
      </trkpt>
      <trkpt lat="38.1831462588" lon="-2.7746896539">
        <ele>755.73</ele>
        <time>2017-10-10T09:53:07Z</time>
      </trkpt>
      <trkpt lat="38.1830779463" lon="-2.7747156378">
        <ele>755.73</ele>
        <time>2017-10-10T09:53:08Z</time>
      </trkpt>
      <trkpt lat="38.1830169261" lon="-2.7747508418">
        <ele>755.73</ele>
        <time>2017-10-10T09:53:09Z</time>
      </trkpt>
      <trkpt lat="38.1829663832" lon="-2.7747943439">
        <ele>755.73</ele>
        <time>2017-10-10T09:53:10Z</time>
      </trkpt>
      <trkpt lat="38.1829272397" lon="-2.7748515923">
        <ele>755.73</ele>
        <time>2017-10-10T09:53:11Z</time>
      </trkpt>
      <trkpt lat="38.1828950532" lon="-2.7749236766">
        <ele>755.73</ele>
        <time>2017-10-10T09:53:12Z</time>
      </trkpt>
      <trkpt lat="38.1828749366" lon="-2.7750064898">
        <ele>755.73</ele>
        <time>2017-10-10T09:53:13Z</time>
      </trkpt>
      <trkpt lat="38.1828654651" lon="-2.7750958409">
        <ele>755.25</ele>
        <time>2017-10-10T09:53:14Z</time>
      </trkpt>
      <trkpt lat="38.1828699075" lon="-2.7751890477">
        <ele>754.29</ele>
        <time>2017-10-10T09:53:15Z</time>
      </trkpt>
      <trkpt lat="38.1828896049" lon="-2.7752842661">
        <ele>753.81</ele>
        <time>2017-10-10T09:53:16Z</time>
      </trkpt>
      <trkpt lat="38.1829191931" lon="-2.7753784787">
        <ele>752.37</ele>
        <time>2017-10-10T09:53:17Z</time>
      </trkpt>
      <trkpt lat="38.1829569116" lon="-2.7754739486">
        <ele>751.89</ele>
        <time>2017-10-10T09:53:18Z</time>
      </trkpt>
      <trkpt lat="38.1830000784" lon="-2.7755701728">
        <ele>751.89</ele>
        <time>2017-10-10T09:53:19Z</time>
      </trkpt>
      <trkpt lat="38.1832004897" lon="-2.7759766113">
        <ele>749.49</ele>
        <time>2017-10-10T09:53:23Z</time>
      </trkpt>
      <trkpt lat="38.1832823809" lon="-2.7761695627">
        <ele>749.97</ele>
        <time>2017-10-10T09:53:25Z</time>
      </trkpt>
      <trkpt lat="38.1833040062" lon="-2.7762694750">
        <ele>748.52</ele>
        <time>2017-10-10T09:53:26Z</time>
      </trkpt>
      <trkpt lat="38.1833097059" lon="-2.7763769310">
        <ele>747.56</ele>
        <time>2017-10-10T09:53:27Z</time>
      </trkpt>
      <trkpt lat="38.1832962111" lon="-2.7764863987">
        <ele>747.08</ele>
        <time>2017-10-10T09:53:28Z</time>
      </trkpt>
      <trkpt lat="38.1832615938" lon="-2.7765914239">
        <ele>746.60</ele>
        <time>2017-10-10T09:53:29Z</time>
      </trkpt>
      <trkpt lat="38.1832105480" lon="-2.7766863070">
        <ele>745.16</ele>
        <time>2017-10-10T09:53:30Z</time>
      </trkpt>
      <trkpt lat="38.1831406429" lon="-2.7767676953">
        <ele>744.20</ele>
        <time>2017-10-10T09:53:31Z</time>
      </trkpt>
      <trkpt lat="38.1830525491" lon="-2.7768307272">
        <ele>743.72</ele>
        <time>2017-10-10T09:53:32Z</time>
      </trkpt>
      <trkpt lat="38.1829549838" lon="-2.7768672723">
        <ele>743.24</ele>
        <time>2017-10-10T09:53:33Z</time>
      </trkpt>
      <trkpt lat="38.1828531437" lon="-2.7768743131">
        <ele>742.28</ele>
        <time>2017-10-10T09:53:34Z</time>
      </trkpt>
      <trkpt lat="38.1827530637" lon="-2.7768543642">
        <ele>741.31</ele>
        <time>2017-10-10T09:53:35Z</time>
      </trkpt>
      <trkpt lat="38.1826589350" lon="-2.7768103592">
        <ele>740.83</ele>
        <time>2017-10-10T09:53:36Z</time>
      </trkpt>
      <trkpt lat="38.1825780496" lon="-2.7767424658">
        <ele>740.35</ele>
        <time>2017-10-10T09:53:37Z</time>
      </trkpt>
      <trkpt lat="38.1825093180" lon="-2.7766633406">
        <ele>739.87</ele>
        <time>2017-10-10T09:53:38Z</time>
      </trkpt>
      <trkpt lat="38.1824459508" lon="-2.7765886579">
        <ele>738.91</ele>
        <time>2017-10-10T09:53:39Z</time>
      </trkpt>
      <trkpt lat="38.1823121756" lon="-2.7764557209">
        <ele>737.95</ele>
        <time>2017-10-10T09:53:41Z</time>
      </trkpt>
      <trkpt lat="38.1822345592" lon="-2.7764029149">
        <ele>736.99</ele>
        <time>2017-10-10T09:53:42Z</time>
      </trkpt>
      <trkpt lat="38.1821543444" lon="-2.7763634361">
        <ele>736.03</ele>
        <time>2017-10-10T09:53:43Z</time>
      </trkpt>
      <trkpt lat="38.1820651609" lon="-2.7763392124">
        <ele>735.55</ele>
        <time>2017-10-10T09:53:44Z</time>
      </trkpt>
      <trkpt lat="38.1819722056" lon="-2.7763279807">
        <ele>734.58</ele>
        <time>2017-10-10T09:53:45Z</time>
      </trkpt>
      <trkpt lat="38.1818825193" lon="-2.7763226163">
        <ele>733.62</ele>
        <time>2017-10-10T09:53:46Z</time>
      </trkpt>
      <trkpt lat="38.1813158188" lon="-2.7763021644">
        <ele>730.74</ele>
        <time>2017-10-10T09:53:52Z</time>
      </trkpt>
      <trkpt lat="38.1809109729" lon="-2.7763683815">
        <ele>727.37</ele>
        <time>2017-10-10T09:53:56Z</time>
      </trkpt>
      <trkpt lat="38.1803636346" lon="-2.7764573134">
        <ele>724.01</ele>
        <time>2017-10-10T09:54:01Z</time>
      </trkpt>
      <trkpt lat="38.1798205711" lon="-2.7763918508">
        <ele>720.16</ele>
        <time>2017-10-10T09:54:06Z</time>
      </trkpt>
      <trkpt lat="38.1794454809" lon="-2.7763949521">
        <ele>718.24</ele>
        <time>2017-10-10T09:54:10Z</time>
      </trkpt>
      <trkpt lat="38.1793514360" lon="-2.7764259651">
        <ele>717.28</ele>
        <time>2017-10-10T09:54:11Z</time>
      </trkpt>
      <trkpt lat="38.1792578939" lon="-2.7764694672">
        <ele>716.80</ele>
        <time>2017-10-10T09:54:12Z</time>
      </trkpt>
      <trkpt lat="38.1791653577" lon="-2.7765259612">
        <ele>716.32</ele>
        <time>2017-10-10T09:54:13Z</time>
      </trkpt>
      <trkpt lat="38.1790729053" lon="-2.7765889093">
        <ele>715.36</ele>
        <time>2017-10-10T09:54:14Z</time>
      </trkpt>
      <trkpt lat="38.1785922870" lon="-2.7768837847">
        <ele>711.99</ele>
        <time>2017-10-10T09:54:19Z</time>
      </trkpt>
      <trkpt lat="38.1781475432" lon="-2.7770628221">
        <ele>709.59</ele>
        <time>2017-10-10T09:54:24Z</time>
      </trkpt>
      <trkpt lat="38.1780618802" lon="-2.7770829387">
        <ele>709.11</ele>
        <time>2017-10-10T09:54:25Z</time>
      </trkpt>
      <trkpt lat="38.1779018696" lon="-2.7771385945">
        <ele>708.63</ele>
        <time>2017-10-10T09:54:27Z</time>
      </trkpt>
      <trkpt lat="38.1778244209" lon="-2.7771828510">
        <ele>708.15</ele>
        <time>2017-10-10T09:54:28Z</time>
      </trkpt>
      <trkpt lat="38.1777514983" lon="-2.7772445418">
        <ele>707.19</ele>
        <time>2017-10-10T09:54:29Z</time>
      </trkpt>
      <trkpt lat="38.1776859518" lon="-2.7773192246">
        <ele>706.71</ele>
        <time>2017-10-10T09:54:30Z</time>
      </trkpt>
      <trkpt lat="38.1776327267" lon="-2.7774083242">
        <ele>706.23</ele>
        <time>2017-10-10T09:54:31Z</time>
      </trkpt>
      <trkpt lat="38.1775837764" lon="-2.7775054704">
        <ele>705.75</ele>
        <time>2017-10-10T09:54:32Z</time>
      </trkpt>
      <trkpt lat="38.1774154678" lon="-2.7778029442">
        <ele>703.82</ele>
        <time>2017-10-10T09:54:35Z</time>
      </trkpt>
      <trkpt lat="38.1773456465" lon="-2.7778942231">
        <ele>702.86</ele>
        <time>2017-10-10T09:54:36Z</time>
      </trkpt>
      <trkpt lat="38.1772665214" lon="-2.7779737674">
        <ele>702.38</ele>
        <time>2017-10-10T09:54:37Z</time>
      </trkpt>
      <trkpt lat="38.1771841273" lon="-2.7780328598">
        <ele>701.42</ele>
        <time>2017-10-10T09:54:38Z</time>
      </trkpt>
      <trkpt lat="38.1771046668" lon="-2.7780800499">
        <ele>700.94</ele>
        <time>2017-10-10T09:54:39Z</time>
      </trkpt>
      <trkpt lat="38.1767659541" lon="-2.7782815509">
        <ele>698.05</ele>
        <time>2017-10-10T09:54:44Z</time>
      </trkpt>
      <trkpt lat="38.1763741840" lon="-2.7785400487">
        <ele>694.69</ele>
        <time>2017-10-10T09:54:50Z</time>
      </trkpt>
      <trkpt lat="38.1760106608" lon="-2.7787670307">
        <ele>692.29</ele>
        <time>2017-10-10T09:54:55Z</time>
      </trkpt>
      <trkpt lat="38.1758058071" lon="-2.7788900770">
        <ele>690.84</ele>
        <time>2017-10-10T09:54:58Z</time>
      </trkpt>
      <trkpt lat="38.1756636500" lon="-2.7790031489">
        <ele>689.40</ele>
        <time>2017-10-10T09:55:00Z</time>
      </trkpt>
      <trkpt lat="38.1752829440" lon="-2.7794777323">
        <ele>686.04</ele>
        <time>2017-10-10T09:55:06Z</time>
      </trkpt>
      <trkpt lat="38.1749557983" lon="-2.7799159382">
        <ele>683.15</ele>
        <time>2017-10-10T09:55:11Z</time>
      </trkpt>
      <trkpt lat="38.1746264733" lon="-2.7803596761">
        <ele>679.79</ele>
        <time>2017-10-10T09:55:16Z</time>
      </trkpt>
      <trkpt lat="38.1742960587" lon="-2.7807974629">
        <ele>677.39</ele>
        <time>2017-10-10T09:55:21Z</time>
      </trkpt>
      <trkpt lat="38.1742171850" lon="-2.7808629256">
        <ele>676.91</ele>
        <time>2017-10-10T09:55:22Z</time>
      </trkpt>
      <trkpt lat="38.1741312705" lon="-2.7809123788">
        <ele>676.42</ele>
        <time>2017-10-10T09:55:23Z</time>
      </trkpt>
      <trkpt lat="38.1735301204" lon="-2.7811909094">
        <ele>673.06</ele>
        <time>2017-10-10T09:55:30Z</time>
      </trkpt>
      <trkpt lat="38.1733614765" lon="-2.7812972758">
        <ele>672.10</ele>
        <time>2017-10-10T09:55:32Z</time>
      </trkpt>
      <trkpt lat="38.1732859556" lon="-2.7813657559">
        <ele>671.62</ele>
        <time>2017-10-10T09:55:33Z</time>
      </trkpt>
      <trkpt lat="38.1732138712" lon="-2.7814435400">
        <ele>671.14</ele>
        <time>2017-10-10T09:55:34Z</time>
      </trkpt>
      <trkpt lat="38.1731491629" lon="-2.7815318014">
        <ele>670.66</ele>
        <time>2017-10-10T09:55:35Z</time>
      </trkpt>
      <trkpt lat="38.1730925012" lon="-2.7816237509">
        <ele>670.66</ele>
        <time>2017-10-10T09:55:36Z</time>
      </trkpt>
      <trkpt lat="38.1729462370" lon="-2.7818675805">
        <ele>668.73</ele>
        <time>2017-10-10T09:55:39Z</time>
      </trkpt>
      <trkpt lat="38.1727448199" lon="-2.7822066285">
        <ele>665.37</ele>
        <time>2017-10-10T09:55:43Z</time>
      </trkpt>
      <trkpt lat="38.1724791974" lon="-2.7826729137">
        <ele>663.45</ele>
        <time>2017-10-10T09:55:48Z</time>
      </trkpt>
      <trkpt lat="38.1720012613" lon="-2.7835614793">
        <ele>660.08</ele>
        <time>2017-10-10T09:55:57Z</time>
      </trkpt>
      <trkpt lat="38.1715926435" lon="-2.7842318639">
        <ele>657.20</ele>
        <time>2017-10-10T09:56:04Z</time>
      </trkpt>
      <trkpt lat="38.1709255278" lon="-2.7849527076">
        <ele>653.83</ele>
        <time>2017-10-10T09:56:14Z</time>
      </trkpt>
      <trkpt lat="38.1706967019" lon="-2.7852236945">
        <ele>654.31</ele>
        <time>2017-10-10T09:56:18Z</time>
      </trkpt>
      <trkpt lat="38.1706527807" lon="-2.7852947731">
        <ele>654.31</ele>
        <time>2017-10-10T09:56:19Z</time>
      </trkpt>
      <trkpt lat="38.1705821212" lon="-2.7854372654">
        <ele>654.31</ele>
        <time>2017-10-10T09:56:21Z</time>
      </trkpt>
      <trkpt lat="38.1705581490" lon="-2.7855079249">
        <ele>654.80</ele>
        <time>2017-10-10T09:56:22Z</time>
      </trkpt>
      <trkpt lat="38.1704916805" lon="-2.7857699431">
        <ele>654.80</ele>
        <time>2017-10-10T09:56:26Z</time>
      </trkpt>
      <trkpt lat="38.1704149023" lon="-2.7860593703">
        <ele>655.28</ele>
        <time>2017-10-10T09:56:31Z</time>
      </trkpt>
      <trkpt lat="38.1703980546" lon="-2.7861136012">
        <ele>655.28</ele>
        <time>2017-10-10T09:56:32Z</time>
      </trkpt>
      <trkpt lat="38.1703249644" lon="-2.7863907069">
        <ele>655.76</ele>
        <time>2017-10-10T09:56:37Z</time>
      </trkpt>
      <trkpt lat="38.1703011598" lon="-2.7864497993">
        <ele>655.76</ele>
        <time>2017-10-10T09:56:38Z</time>
      </trkpt>
      <trkpt lat="38.1702900957" lon="-2.7865047846">
        <ele>656.24</ele>
        <time>2017-10-10T09:56:39Z</time>
      </trkpt>
      <trkpt lat="38.1702777743" lon="-2.7865578420">
        <ele>656.24</ele>
        <time>2017-10-10T09:56:40Z</time>
      </trkpt>
      <trkpt lat="38.1702685542" lon="-2.7866046969">
        <ele>656.24</ele>
        <time>2017-10-10T09:56:41Z</time>
      </trkpt>
      <trkpt lat="38.1703048479" lon="-2.7868821379">
        <ele>657.68</ele>
        <time>2017-10-10T09:56:49Z</time>
      </trkpt>
      <trkpt lat="38.1703332625" lon="-2.7872657776">
        <ele>659.12</ele>
        <time>2017-10-10T09:57:01Z</time>
      </trkpt>
      <trkpt lat="38.1703114696" lon="-2.7876007184">
        <ele>661.52</ele>
        <time>2017-10-10T09:57:13Z</time>
      </trkpt>
      <trkpt lat="38.1703137327" lon="-2.7878637426">
        <ele>663.45</ele>
        <time>2017-10-10T09:57:24Z</time>
      </trkpt>
      <trkpt lat="38.1703542173" lon="-2.7879965119">
        <ele>663.93</ele>
        <time>2017-10-10T09:57:30Z</time>
      </trkpt>
      <trkpt lat="38.1704027485" lon="-2.7881936543">
        <ele>665.37</ele>
        <time>2017-10-10T09:57:39Z</time>
      </trkpt>
      <trkpt lat="38.1704643555" lon="-2.7883126773">
        <ele>665.85</ele>
        <time>2017-10-10T09:57:45Z</time>
      </trkpt>
      <trkpt lat="38.1704626791" lon="-2.7883363143">
        <ele>666.33</ele>
        <time>2017-10-10T09:57:46Z</time>
      </trkpt>
      <trkpt lat="38.1704644393" lon="-2.7883596998">
        <ele>666.33</ele>
        <time>2017-10-10T09:57:47Z</time>
      </trkpt>
      <trkpt lat="38.1704699714" lon="-2.7883796487">
        <ele>666.81</ele>
        <time>2017-10-10T09:57:48Z</time>
      </trkpt>
      <trkpt lat="38.1704781856" lon="-2.7883962449">
        <ele>666.81</ele>
        <time>2017-10-10T09:57:49Z</time>
      </trkpt>
      <trkpt lat="38.1704858970" lon="-2.7884119190">
        <ele>666.81</ele>
        <time>2017-10-10T09:57:50Z</time>
      </trkpt>
      <trkpt lat="38.1704914290" lon="-2.7884291019">
        <ele>667.29</ele>
        <time>2017-10-10T09:57:51Z</time>
      </trkpt>
      <trkpt lat="38.1704958715" lon="-2.7884465363">
        <ele>667.29</ele>
        <time>2017-10-10T09:57:52Z</time>
      </trkpt>
      <trkpt lat="38.1705145631" lon="-2.7885863464">
        <ele>668.25</ele>
        <time>2017-10-10T09:57:59Z</time>
      </trkpt>
      <trkpt lat="38.1705169100" lon="-2.7886650525">
        <ele>668.73</ele>
        <time>2017-10-10T09:58:02Z</time>
      </trkpt>
      <trkpt lat="38.1705278065" lon="-2.7886831574">
        <ele>668.73</ele>
        <time>2017-10-10T09:58:03Z</time>
      </trkpt>
      <trkpt lat="38.1705390383" lon="-2.7887011785">
        <ele>668.73</ele>
        <time>2017-10-10T09:58:04Z</time>
      </trkpt>
      <trkpt lat="38.1705537904" lon="-2.7887160145">
        <ele>668.73</ele>
        <time>2017-10-10T09:58:05Z</time>
      </trkpt>
      <trkpt lat="38.1705626752" lon="-2.7887321915">
        <ele>669.22</ele>
        <time>2017-10-10T09:58:06Z</time>
      </trkpt>
      <trkpt lat="38.1705660280" lon="-2.7887500450">
        <ele>669.22</ele>
        <time>2017-10-10T09:58:07Z</time>
      </trkpt>
      <trkpt lat="38.1705635134" lon="-2.7887709998">
        <ele>669.22</ele>
        <time>2017-10-10T09:58:08Z</time>
      </trkpt>
      <trkpt lat="38.1705584005" lon="-2.7887941338">
        <ele>669.22</ele>
        <time>2017-10-10T09:58:09Z</time>
      </trkpt>
      <trkpt lat="38.1705562212" lon="-2.7888205368">
        <ele>669.22</ele>
        <time>2017-10-10T09:58:10Z</time>
      </trkpt>
      <trkpt lat="38.1705588195" lon="-2.7888438385">
        <ele>670.18</ele>
        <time>2017-10-10T09:58:11Z</time>
      </trkpt>
      <trkpt lat="38.1705744099" lon="-2.7888678946">
        <ele>669.70</ele>
        <time>2017-10-10T09:58:13Z</time>
      </trkpt>
      <trkpt lat="38.1705867313" lon="-2.7888813056">
        <ele>670.18</ele>
        <time>2017-10-10T09:58:14Z</time>
      </trkpt>
      <trkpt lat="38.1705920957" lon="-2.7889068704">
        <ele>669.70</ele>
        <time>2017-10-10T09:58:15Z</time>
      </trkpt>
      <trkpt lat="38.1705905031" lon="-2.7889370453">
        <ele>670.18</ele>
        <time>2017-10-10T09:58:16Z</time>
      </trkpt>
      <trkpt lat="38.1705884077" lon="-2.7889662981">
        <ele>670.18</ele>
        <time>2017-10-10T09:58:17Z</time>
      </trkpt>
      <trkpt lat="38.1705869827" lon="-2.7889958862">
        <ele>670.18</ele>
        <time>2017-10-10T09:58:18Z</time>
      </trkpt>
      <trkpt lat="38.1705927663" lon="-2.7890166733">
        <ele>670.66</ele>
        <time>2017-10-10T09:58:19Z</time>
      </trkpt>
      <trkpt lat="38.1706027407" lon="-2.7890367061">
        <ele>670.66</ele>
        <time>2017-10-10T09:58:20Z</time>
      </trkpt>
      <trkpt lat="38.1706161518" lon="-2.7890526317">
        <ele>670.66</ele>
        <time>2017-10-10T09:58:21Z</time>
      </trkpt>
      <trkpt lat="38.1706268806" lon="-2.7890688088">
        <ele>671.14</ele>
        <time>2017-10-10T09:58:22Z</time>
      </trkpt>
      <trkpt lat="38.1706439797" lon="-2.7891250513">
        <ele>671.14</ele>
        <time>2017-10-10T09:58:25Z</time>
      </trkpt>
      <trkpt lat="38.1706558820" lon="-2.7891395520">
        <ele>671.62</ele>
        <time>2017-10-10T09:58:26Z</time>
      </trkpt>
      <trkpt lat="38.1706583966" lon="-2.7891601715">
        <ele>671.62</ele>
        <time>2017-10-10T09:58:27Z</time>
      </trkpt>
      <trkpt lat="38.1706640124" lon="-2.7891848143">
        <ele>671.62</ele>
        <time>2017-10-10T09:58:28Z</time>
      </trkpt>
      <trkpt lat="38.1706739869" lon="-2.7892040089">
        <ele>671.62</ele>
        <time>2017-10-10T09:58:29Z</time>
      </trkpt>
      <trkpt lat="38.1706837937" lon="-2.7892187610">
        <ele>671.62</ele>
        <time>2017-10-10T09:58:30Z</time>
      </trkpt>
      <trkpt lat="38.1706891581" lon="-2.7892348543">
        <ele>672.10</ele>
        <time>2017-10-10T09:58:31Z</time>
      </trkpt>
      <trkpt lat="38.1706956960" lon="-2.7892588265">
        <ele>672.10</ele>
        <time>2017-10-10T09:58:32Z</time>
      </trkpt>
      <trkpt lat="38.1707039103" lon="-2.7892758418">
        <ele>672.10</ele>
        <time>2017-10-10T09:58:33Z</time>
      </trkpt>
      <trkpt lat="38.1707141362" lon="-2.7892913483">
        <ele>672.10</ele>
        <time>2017-10-10T09:58:34Z</time>
      </trkpt>
      <trkpt lat="38.1707232725" lon="-2.7893084474">
        <ele>672.10</ele>
        <time>2017-10-10T09:58:35Z</time>
      </trkpt>
      <trkpt lat="38.1707361806" lon="-2.7893247921">
        <ele>672.58</ele>
        <time>2017-10-10T09:58:36Z</time>
      </trkpt>
      <trkpt lat="38.1708342489" lon="-2.7895301487">
        <ele>673.54</ele>
        <time>2017-10-10T09:58:46Z</time>
      </trkpt>
      <trkpt lat="38.1708448101" lon="-2.7895449847">
        <ele>673.54</ele>
        <time>2017-10-10T09:58:47Z</time>
      </trkpt>
      <trkpt lat="38.1708593946" lon="-2.7895573899">
        <ele>674.02</ele>
        <time>2017-10-10T09:58:48Z</time>
      </trkpt>
      <trkpt lat="38.1708738953" lon="-2.7895722259">
        <ele>674.02</ele>
        <time>2017-10-10T09:58:49Z</time>
      </trkpt>
      <trkpt lat="38.1708863843" lon="-2.7895910852">
        <ele>674.02</ele>
        <time>2017-10-10T09:58:50Z</time>
      </trkpt>
      <trkpt lat="38.1708957721" lon="-2.7896106150">
        <ele>674.02</ele>
        <time>2017-10-10T09:58:51Z</time>
      </trkpt>
      <trkpt lat="38.1709083449" lon="-2.7896255348">
        <ele>674.02</ele>
        <time>2017-10-10T09:58:52Z</time>
      </trkpt>
      <trkpt lat="38.1709183194" lon="-2.7896424662">
        <ele>674.50</ele>
        <time>2017-10-10T09:58:53Z</time>
      </trkpt>
      <trkpt lat="38.1709290482" lon="-2.7896563802">
        <ele>674.50</ele>
        <time>2017-10-10T09:58:54Z</time>
      </trkpt>
      <trkpt lat="38.1709419563" lon="-2.7896628343">
        <ele>674.50</ele>
        <time>2017-10-10T09:58:55Z</time>
      </trkpt>
      <trkpt lat="38.1709572114" lon="-2.7896754071">
        <ele>674.50</ele>
        <time>2017-10-10T09:58:56Z</time>
      </trkpt>
      <trkpt lat="38.1709717121" lon="-2.7896899078">
        <ele>674.50</ele>
        <time>2017-10-10T09:58:57Z</time>
      </trkpt>
      <trkpt lat="38.1709843688" lon="-2.7897037379">
        <ele>674.98</ele>
        <time>2017-10-10T09:58:58Z</time>
      </trkpt>
      <trkpt lat="38.1709946785" lon="-2.7897190768">
        <ele>674.50</ele>
        <time>2017-10-10T09:58:59Z</time>
      </trkpt>
      <trkpt lat="38.1710088439" lon="-2.7897377685">
        <ele>674.98</ele>
        <time>2017-10-10T09:59:00Z</time>
      </trkpt>
      <trkpt lat="38.1710126996" lon="-2.7897666022">
        <ele>674.98</ele>
        <time>2017-10-10T09:59:01Z</time>
      </trkpt>
      <trkpt lat="38.1708948500" lon="-2.7898261137">
        <ele>674.98</ele>
        <time>2017-10-10T09:59:07Z</time>
      </trkpt>
      <trkpt lat="38.1708748173" lon="-2.7898293827">
        <ele>675.46</ele>
        <time>2017-10-10T09:59:08Z</time>
      </trkpt>
      <trkpt lat="38.1708220951" lon="-2.7898641676">
        <ele>675.94</ele>
        <time>2017-10-10T09:59:11Z</time>
      </trkpt>
      <trkpt lat="38.1707609911" lon="-2.7898380160">
        <ele>675.94</ele>
        <time>2017-10-10T09:59:20Z</time>
      </trkpt>
      <trkpt lat="38.1707758270" lon="-2.7898896486">
        <ele>675.46</ele>
        <time>2017-10-10T09:59:29Z</time>
      </trkpt>
      <trkpt lat="38.1707733963" lon="-2.7898501698">
        <ele>675.94</ele>
        <time>2017-10-10T09:59:38Z</time>
      </trkpt>
      <trkpt lat="38.1707932614" lon="-2.7898554504">
        <ele>675.94</ele>
        <time>2017-10-10T09:59:51Z</time>
      </trkpt>
      <trkpt lat="38.1707892381" lon="-2.7898724657">
        <ele>675.46</ele>
        <time>2017-10-10T10:00:06Z</time>
      </trkpt>
      <trkpt lat="38.1708148867" lon="-2.7898878884">
        <ele>675.46</ele>
        <time>2017-10-10T10:00:34Z</time>
      </trkpt>
      <trkpt lat="38.1708246097" lon="-2.7898844518">
        <ele>675.46</ele>
        <time>2017-10-10T10:00:44Z</time>
      </trkpt>
      <trkpt lat="38.1708885636" lon="-2.7898672689">
        <ele>675.46</ele>
        <time>2017-10-10T10:00:50Z</time>
      </trkpt>
      <trkpt lat="38.1709380168" lon="-2.7899273671">
        <ele>674.50</ele>
        <time>2017-10-10T10:01:00Z</time>
      </trkpt>
      <trkpt lat="38.1709370110" lon="-2.7899208292">
        <ele>674.02</ele>
        <time>2017-10-10T10:01:14Z</time>
      </trkpt>
      <trkpt lat="38.1709335744" lon="-2.7899162192">
        <ele>674.02</ele>
        <time>2017-10-10T10:01:38Z</time>
      </trkpt>
      <trkpt lat="38.1709343288" lon="-2.7899049874">
        <ele>674.02</ele>
        <time>2017-10-10T10:02:01Z</time>
      </trkpt>
      <trkpt lat="38.1709435489" lon="-2.7899058256">
        <ele>674.02</ele>
        <time>2017-10-10T10:02:23Z</time>
      </trkpt>
      <trkpt lat="38.1709315628" lon="-2.7899044007">
        <ele>674.02</ele>
        <time>2017-10-10T10:02:40Z</time>
      </trkpt>
      <trkpt lat="38.1709317304" lon="-2.7899041492">
        <ele>674.02</ele>
        <time>2017-10-10T10:02:41Z</time>
      </trkpt>
      <trkpt lat="38.1710396893" lon="-2.7898652572">
        <ele>674.02</ele>
        <time>2017-10-10T10:02:49Z</time>
      </trkpt>
      <trkpt lat="38.1710800063" lon="-2.7898547798">
        <ele>674.50</ele>
        <time>2017-10-10T10:02:52Z</time>
      </trkpt>
      <trkpt lat="38.1711854506" lon="-2.7899160516">
        <ele>674.50</ele>
        <time>2017-10-10T10:02:58Z</time>
      </trkpt>
      <trkpt lat="38.1713532563" lon="-2.7900845278">
        <ele>674.50</ele>
        <time>2017-10-10T10:03:08Z</time>
      </trkpt>
      <trkpt lat="38.1714265980" lon="-2.7901452128">
        <ele>674.50</ele>
        <time>2017-10-10T10:03:14Z</time>
      </trkpt>
      <trkpt lat="38.1714524142" lon="-2.7901684307">
        <ele>671.14</ele>
        <time>2017-10-10T10:03:17Z</time>
      </trkpt>
      <trkpt lat="38.1714524142" lon="-2.7901685145">
        <ele>674.98</ele>
        <time>2017-10-10T10:03:19Z</time>
      </trkpt>
      <trkpt lat="38.1714524142" lon="-2.7901685145">
        <ele>674.02</ele>
        <time>2017-10-10T10:03:20Z</time>
      </trkpt>
      <trkpt lat="38.1714528333" lon="-2.7901681792">
        <ele>679.31</ele>
        <time>2017-10-10T10:03:21Z</time>
      </trkpt>
      <trkpt lat="38.1714914739" lon="-2.7902393416">
        <ele>674.50</ele>
        <time>2017-10-10T10:03:24Z</time>
      </trkpt>
      <trkpt lat="38.1716561783" lon="-2.7905336302">
        <ele>674.02</ele>
        <time>2017-10-10T10:03:33Z</time>
      </trkpt>
      <trkpt lat="38.1718331203" lon="-2.7907808125">
        <ele>673.06</ele>
        <time>2017-10-10T10:03:42Z</time>
      </trkpt>
      <trkpt lat="38.1720789615" lon="-2.7909737639">
        <ele>672.10</ele>
        <time>2017-10-10T10:03:50Z</time>
      </trkpt>
      <trkpt lat="38.1721191946" lon="-2.7909993287">
        <ele>672.10</ele>
        <time>2017-10-10T10:03:51Z</time>
      </trkpt>
      <trkpt lat="38.1722434983" lon="-2.7910662163">
        <ele>671.14</ele>
        <time>2017-10-10T10:03:54Z</time>
      </trkpt>
      <trkpt lat="38.1723816320" lon="-2.7911579143">
        <ele>670.66</ele>
        <time>2017-10-10T10:03:57Z</time>
      </trkpt>
      <trkpt lat="38.1729715504" lon="-2.7914820425">
        <ele>667.29</ele>
        <time>2017-10-10T10:04:07Z</time>
      </trkpt>
      <trkpt lat="38.1730417907" lon="-2.7915208507">
        <ele>667.29</ele>
        <time>2017-10-10T10:04:08Z</time>
      </trkpt>
      <trkpt lat="38.1735428609" lon="-2.7918073442">
        <ele>663.93</ele>
        <time>2017-10-10T10:04:16Z</time>
      </trkpt>
      <trkpt lat="38.1741285883" lon="-2.7921411116">
        <ele>660.56</ele>
        <time>2017-10-10T10:04:24Z</time>
      </trkpt>
      <trkpt lat="38.1742866710" lon="-2.7922307979">
        <ele>658.16</ele>
        <time>2017-10-10T10:04:26Z</time>
      </trkpt>
      <trkpt lat="38.1746250484" lon="-2.7924300358">
        <ele>656.72</ele>
        <time>2017-10-10T10:04:30Z</time>
      </trkpt>
      <trkpt lat="38.1746991444" lon="-2.7925065625">
        <ele>655.76</ele>
        <time>2017-10-10T10:04:31Z</time>
      </trkpt>
      <trkpt lat="38.1747647747" lon="-2.7925932314">
        <ele>655.76</ele>
        <time>2017-10-10T10:04:32Z</time>
      </trkpt>
      <trkpt lat="38.1752433814" lon="-2.7933539730">
        <ele>654.31</ele>
        <time>2017-10-10T10:04:41Z</time>
      </trkpt>
      <trkpt lat="38.1755133625" lon="-2.7939300612">
        <ele>655.28</ele>
        <time>2017-10-10T10:04:50Z</time>
      </trkpt>
      <trkpt lat="38.1755971815" lon="-2.7941528521">
        <ele>653.83</ele>
        <time>2017-10-10T10:04:57Z</time>
      </trkpt>
      <trkpt lat="38.1756000314" lon="-2.7941624913">
        <ele>653.35</ele>
        <time>2017-10-10T10:05:02Z</time>
      </trkpt>
      <trkpt lat="38.1756079942" lon="-2.7941813506">
        <ele>653.35</ele>
        <time>2017-10-10T10:05:03Z</time>
      </trkpt>
      <trkpt lat="38.1757588685" lon="-2.7945220750">
        <ele>652.39</ele>
        <time>2017-10-10T10:05:11Z</time>
      </trkpt>
      <trkpt lat="38.1758897100" lon="-2.7948161960">
        <ele>651.43</ele>
        <time>2017-10-10T10:05:16Z</time>
      </trkpt>
      <trkpt lat="38.1759200525" lon="-2.7949490491">
        <ele>650.95</ele>
        <time>2017-10-10T10:05:18Z</time>
      </trkpt>
      <trkpt lat="38.1759238243" lon="-2.7950187027">
        <ele>650.95</ele>
        <time>2017-10-10T10:05:19Z</time>
      </trkpt>
      <trkpt lat="38.1758868601" lon="-2.7953191102">
        <ele>649.99</ele>
        <time>2017-10-10T10:05:23Z</time>
      </trkpt>
      <trkpt lat="38.1758020353" lon="-2.7956403047">
        <ele>649.99</ele>
        <time>2017-10-10T10:05:31Z</time>
      </trkpt>
      <trkpt lat="38.1755538471" lon="-2.7959170751">
        <ele>649.99</ele>
        <time>2017-10-10T10:05:42Z</time>
      </trkpt>
      <trkpt lat="38.1754092593" lon="-2.7960957773">
        <ele>649.51</ele>
        <time>2017-10-10T10:05:49Z</time>
      </trkpt>
      <trkpt lat="38.1754125282" lon="-2.7962080948">
        <ele>649.51</ele>
        <time>2017-10-10T10:05:57Z</time>
      </trkpt>
      <trkpt lat="38.1754075829" lon="-2.7962085977">
        <ele>649.51</ele>
        <time>2017-10-10T10:06:09Z</time>
      </trkpt>
      <trkpt lat="38.1754101813" lon="-2.7962033171">
        <ele>649.51</ele>
        <time>2017-10-10T10:06:15Z</time>
      </trkpt>
      <trkpt lat="38.1754147913" lon="-2.7961924206">
        <ele>649.51</ele>
        <time>2017-10-10T10:06:21Z</time>
      </trkpt>
      <trkpt lat="38.1754155457" lon="-2.7961919177">
        <ele>649.03</ele>
        <time>2017-10-10T10:06:23Z</time>
      </trkpt>
      <trkpt lat="38.1753931660" lon="-2.7960994653">
        <ele>649.99</ele>
        <time>2017-10-10T10:18:12Z</time>
      </trkpt>
      <trkpt lat="38.1753485743" lon="-2.7960639261">
        <ele>649.51</ele>
        <time>2017-10-10T10:18:16Z</time>
      </trkpt>
      <trkpt lat="38.1750161480" lon="-2.7959039994">
        <ele>648.07</ele>
        <time>2017-10-10T10:18:29Z</time>
      </trkpt>
      <trkpt lat="38.1747800298" lon="-2.7958853915">
        <ele>647.59</ele>
        <time>2017-10-10T10:18:37Z</time>
      </trkpt>
      <trkpt lat="38.1746821292" lon="-2.7958592400">
        <ele>647.10</ele>
        <time>2017-10-10T10:18:46Z</time>
      </trkpt>
      <trkpt lat="38.1746841408" lon="-2.7958672028">
        <ele>646.14</ele>
        <time>2017-10-10T10:19:01Z</time>
      </trkpt>
      <trkpt lat="38.1746385433" lon="-2.7958755847">
        <ele>645.66</ele>
        <time>2017-10-10T10:19:05Z</time>
      </trkpt>
      <trkpt lat="38.1745799538" lon="-2.7959152311">
        <ele>645.66</ele>
        <time>2017-10-10T10:19:12Z</time>
      </trkpt>
      <trkpt lat="38.1744831428" lon="-2.7959206793">
        <ele>645.66</ele>
        <time>2017-10-10T10:19:18Z</time>
      </trkpt>
      <trkpt lat="38.1741832383" lon="-2.7960489225">
        <ele>645.66</ele>
        <time>2017-10-10T10:19:29Z</time>
      </trkpt>
      <trkpt lat="38.1739216391" lon="-2.7962535247">
        <ele>645.18</ele>
        <time>2017-10-10T10:19:41Z</time>
      </trkpt>
      <trkpt lat="38.1737605389" lon="-2.7964516729">
        <ele>645.66</ele>
        <time>2017-10-10T10:19:50Z</time>
      </trkpt>
      <trkpt lat="38.1736352295" lon="-2.7966948319">
        <ele>645.18</ele>
        <time>2017-10-10T10:20:02Z</time>
      </trkpt>
      <trkpt lat="38.1735201459" lon="-2.7968716063">
        <ele>645.18</ele>
        <time>2017-10-10T10:20:11Z</time>
      </trkpt>
      <trkpt lat="38.1734000333" lon="-2.7969894558">
        <ele>646.14</ele>
        <time>2017-10-10T10:20:18Z</time>
      </trkpt>
      <trkpt lat="38.1731077563" lon="-2.7969813254">
        <ele>647.10</ele>
        <time>2017-10-10T10:20:30Z</time>
      </trkpt>
      <trkpt lat="38.1728115398" lon="-2.7968876995">
        <ele>647.10</ele>
        <time>2017-10-10T10:20:40Z</time>
      </trkpt>
      <trkpt lat="38.1724601705" lon="-2.7968594525">
        <ele>647.10</ele>
        <time>2017-10-10T10:20:52Z</time>
      </trkpt>
      <trkpt lat="38.1721300073" lon="-2.7969133481">
        <ele>647.10</ele>
        <time>2017-10-10T10:21:03Z</time>
      </trkpt>
      <trkpt lat="38.1719073001" lon="-2.7969588619">
        <ele>647.10</ele>
        <time>2017-10-10T10:21:12Z</time>
      </trkpt>
      <trkpt lat="38.1718045380" lon="-2.7969839238">
        <ele>647.10</ele>
        <time>2017-10-10T10:21:17Z</time>
      </trkpt>
      <trkpt lat="38.1716883648" lon="-2.7969071455">
        <ele>646.62</ele>
        <time>2017-10-10T10:21:26Z</time>
      </trkpt>
      <trkpt lat="38.1717011053" lon="-2.7969058044">
        <ele>646.62</ele>
        <time>2017-10-10T10:21:38Z</time>
      </trkpt>
      <trkpt lat="38.1717016920" lon="-2.7969129290">
        <ele>646.62</ele>
        <time>2017-10-10T10:21:58Z</time>
      </trkpt>
      <trkpt lat="38.1716974173" lon="-2.7969361469">
        <ele>646.62</ele>
        <time>2017-10-10T10:22:19Z</time>
      </trkpt>
      <trkpt lat="38.1717114151" lon="-2.7969222330">
        <ele>646.62</ele>
        <time>2017-10-10T10:22:47Z</time>
      </trkpt>
      <trkpt lat="38.1717074756" lon="-2.7969243284">
        <ele>646.62</ele>
        <time>2017-10-10T10:23:01Z</time>
      </trkpt>
      <trkpt lat="38.1716974173" lon="-2.7969198022">
        <ele>647.10</ele>
        <time>2017-10-10T10:23:18Z</time>
      </trkpt>
      <trkpt lat="38.1716822460" lon="-2.7969227359">
        <ele>647.10</ele>
        <time>2017-10-10T10:23:27Z</time>
      </trkpt>
      <trkpt lat="38.1716851797" lon="-2.7969162818">
        <ele>647.10</ele>
        <time>2017-10-10T10:23:47Z</time>
      </trkpt>
      <trkpt lat="38.1716870237" lon="-2.7969166171">
        <ele>647.10</ele>
        <time>2017-10-10T10:24:06Z</time>
      </trkpt>
      <trkpt lat="38.1716851797" lon="-2.7969136834">
        <ele>647.59</ele>
        <time>2017-10-10T10:24:24Z</time>
      </trkpt>
      <trkpt lat="38.1716861017" lon="-2.7969082352">
        <ele>647.59</ele>
        <time>2017-10-10T10:24:37Z</time>
      </trkpt>
      <trkpt lat="38.1716947351" lon="-2.7969121747">
        <ele>647.59</ele>
        <time>2017-10-10T10:24:56Z</time>
      </trkpt>
      <trkpt lat="38.1716909632" lon="-2.7969178744">
        <ele>647.59</ele>
        <time>2017-10-10T10:25:10Z</time>
      </trkpt>
      <trkpt lat="38.1716902088" lon="-2.7969211433">
        <ele>647.59</ele>
        <time>2017-10-10T10:25:28Z</time>
      </trkpt>
      <trkpt lat="38.1716661528" lon="-2.7969258372">
        <ele>647.59</ele>
        <time>2017-10-10T10:25:35Z</time>
      </trkpt>
      <trkpt lat="38.1716617942" lon="-2.7969183773">
        <ele>648.07</ele>
        <time>2017-10-10T10:26:01Z</time>
      </trkpt>
      <trkpt lat="38.1716581900" lon="-2.7969211433">
        <ele>648.07</ele>
        <time>2017-10-10T10:26:27Z</time>
      </trkpt>
      <trkpt lat="38.1716478802" lon="-2.7969650645">
        <ele>648.07</ele>
        <time>2017-10-10T10:26:54Z</time>
      </trkpt>
      <trkpt lat="38.1716577709" lon="-2.7969653159">
        <ele>648.07</ele>
        <time>2017-10-10T10:27:16Z</time>
      </trkpt>
      <trkpt lat="38.1716577709" lon="-2.7969661541">
        <ele>648.07</ele>
        <time>2017-10-10T10:27:18Z</time>
      </trkpt>
      <trkpt lat="38.1716562621" lon="-2.7970158588">
        <ele>648.07</ele>
        <time>2017-10-10T10:27:22Z</time>
      </trkpt>
      <trkpt lat="38.1715679169" lon="-2.7970497217">
        <ele>648.55</ele>
        <time>2017-10-10T10:27:29Z</time>
      </trkpt>
      <trkpt lat="38.1714421883" lon="-2.7970308624">
        <ele>648.55</ele>
        <time>2017-10-10T10:27:37Z</time>
      </trkpt>
      <trkpt lat="38.1712707784" lon="-2.7969059721">
        <ele>649.03</ele>
        <time>2017-10-10T10:27:46Z</time>
      </trkpt>
      <trkpt lat="38.1711866241" lon="-2.7968188841">
        <ele>649.03</ele>
        <time>2017-10-10T10:27:50Z</time>
      </trkpt>
      <trkpt lat="38.1709365919" lon="-2.7966144495">
        <ele>649.99</ele>
        <time>2017-10-10T10:28:01Z</time>
      </trkpt>
      <trkpt lat="38.1706963666" lon="-2.7966355719">
        <ele>651.43</ele>
        <time>2017-10-10T10:28:10Z</time>
      </trkpt>
      <trkpt lat="38.1704460829" lon="-2.7968170401">
        <ele>651.91</ele>
        <time>2017-10-10T10:28:20Z</time>
      </trkpt>
      <trkpt lat="38.1701745093" lon="-2.7969328780">
        <ele>652.39</ele>
        <time>2017-10-10T10:28:30Z</time>
      </trkpt>
      <trkpt lat="38.1698627863" lon="-2.7969555929">
        <ele>653.35</ele>
        <time>2017-10-10T10:28:40Z</time>
      </trkpt>
      <trkpt lat="38.1695993431" lon="-2.7969191317">
        <ele>654.31</ele>
        <time>2017-10-10T10:28:49Z</time>
      </trkpt>
      <trkpt lat="38.1692549307" lon="-2.7969652321">
        <ele>655.28</ele>
        <time>2017-10-10T10:29:00Z</time>
      </trkpt>
      <trkpt lat="38.1689580437" lon="-2.7971111611">
        <ele>656.72</ele>
        <time>2017-10-10T10:29:11Z</time>
      </trkpt>
      <trkpt lat="38.1687629130" lon="-2.7974338643">
        <ele>658.16</ele>
        <time>2017-10-10T10:29:23Z</time>
      </trkpt>
      <trkpt lat="38.1686438061" lon="-2.7977396362">
        <ele>660.08</ele>
        <time>2017-10-10T10:29:35Z</time>
      </trkpt>
      <trkpt lat="38.1685362663" lon="-2.7979708090">
        <ele>661.04</ele>
        <time>2017-10-10T10:29:45Z</time>
      </trkpt>
      <trkpt lat="38.1683781836" lon="-2.7983092703">
        <ele>662.01</ele>
        <time>2017-10-10T10:29:59Z</time>
      </trkpt>
      <trkpt lat="38.1681161653" lon="-2.7985681035">
        <ele>663.45</ele>
        <time>2017-10-10T10:30:13Z</time>
      </trkpt>
      <trkpt lat="38.1678755209" lon="-2.7987541817">
        <ele>664.41</ele>
        <time>2017-10-10T10:30:25Z</time>
      </trkpt>
      <trkpt lat="38.1676216330" lon="-2.7988286130">
        <ele>665.85</ele>
        <time>2017-10-10T10:30:36Z</time>
      </trkpt>
      <trkpt lat="38.1674234010" lon="-2.7989614662">
        <ele>666.81</ele>
        <time>2017-10-10T10:30:45Z</time>
      </trkpt>
      <trkpt lat="38.1671172939" lon="-2.7988637332">
        <ele>666.81</ele>
        <time>2017-10-10T10:30:55Z</time>
      </trkpt>
      <trkpt lat="38.1670411862" lon="-2.7987551037">
        <ele>666.81</ele>
        <time>2017-10-10T10:30:58Z</time>
      </trkpt>
      <trkpt lat="38.1668940838" lon="-2.7982733957">
        <ele>664.89</ele>
        <time>2017-10-10T10:31:06Z</time>
      </trkpt>
      <trkpt lat="38.1667852867" lon="-2.7978010755">
        <ele>663.45</ele>
        <time>2017-10-10T10:31:12Z</time>
      </trkpt>
      <trkpt lat="38.1667612307" lon="-2.7976567391">
        <ele>663.93</ele>
        <time>2017-10-10T10:31:14Z</time>
      </trkpt>
      <trkpt lat="38.1667463947" lon="-2.7975885104">
        <ele>663.93</ele>
        <time>2017-10-10T10:31:15Z</time>
      </trkpt>
      <trkpt lat="38.1667340733" lon="-2.7975248080">
        <ele>664.41</ele>
        <time>2017-10-10T10:31:16Z</time>
      </trkpt>
      <trkpt lat="38.1667261943" lon="-2.7974643745">
        <ele>665.37</ele>
        <time>2017-10-10T10:31:17Z</time>
      </trkpt>
      <trkpt lat="38.1667204108" lon="-2.7974042762">
        <ele>665.37</ele>
        <time>2017-10-10T10:31:18Z</time>
      </trkpt>
      <trkpt lat="38.1667125318" lon="-2.7973441780">
        <ele>665.37</ele>
        <time>2017-10-10T10:31:19Z</time>
      </trkpt>
      <trkpt lat="38.1667002942" lon="-2.7972861752">
        <ele>665.85</ele>
        <time>2017-10-10T10:31:20Z</time>
      </trkpt>
      <trkpt lat="38.1666330714" lon="-2.7968726959">
        <ele>666.33</ele>
        <time>2017-10-10T10:31:29Z</time>
      </trkpt>
      <trkpt lat="38.1665999629" lon="-2.7967818361">
        <ele>666.33</ele>
        <time>2017-10-10T10:31:31Z</time>
      </trkpt>
      <trkpt lat="38.1665628310" lon="-2.7966813371">
        <ele>665.85</ele>
        <time>2017-10-10T10:31:33Z</time>
      </trkpt>
      <trkpt lat="38.1665396970" lon="-2.7966342308">
        <ele>666.33</ele>
        <time>2017-10-10T10:31:34Z</time>
      </trkpt>
      <trkpt lat="38.1665131263" lon="-2.7965866216">
        <ele>666.33</ele>
        <time>2017-10-10T10:31:35Z</time>
      </trkpt>
      <trkpt lat="38.1664857175" lon="-2.7965401020">
        <ele>665.85</ele>
        <time>2017-10-10T10:31:36Z</time>
      </trkpt>
      <trkpt lat="38.1664565485" lon="-2.7964948397">
        <ele>665.85</ele>
        <time>2017-10-10T10:31:37Z</time>
      </trkpt>
      <trkpt lat="38.1663700473" lon="-2.7963573765">
        <ele>665.85</ele>
        <time>2017-10-10T10:31:40Z</time>
      </trkpt>
      <trkpt lat="38.1663410459" lon="-2.7963147126">
        <ele>665.85</ele>
        <time>2017-10-10T10:31:41Z</time>
      </trkpt>
      <trkpt lat="38.1661009882" lon="-2.7960186638">
        <ele>665.85</ele>
        <time>2017-10-10T10:31:48Z</time>
      </trkpt>
      <trkpt lat="38.1658410653" lon="-2.7958284784">
        <ele>664.89</ele>
        <time>2017-10-10T10:31:54Z</time>
      </trkpt>
      <trkpt lat="38.1657170970" lon="-2.7956767660">
        <ele>664.41</ele>
        <time>2017-10-10T10:31:57Z</time>
      </trkpt>
      <trkpt lat="38.1656896882" lon="-2.7956156619">
        <ele>664.41</ele>
        <time>2017-10-10T10:31:58Z</time>
      </trkpt>
      <trkpt lat="38.1656707451" lon="-2.7955536358">
        <ele>664.41</ele>
        <time>2017-10-10T10:31:59Z</time>
      </trkpt>
      <trkpt lat="38.1656582560" lon="-2.7954940405">
        <ele>664.41</ele>
        <time>2017-10-10T10:32:00Z</time>
      </trkpt>
      <trkpt lat="38.1656538974" lon="-2.7954372950">
        <ele>664.41</ele>
        <time>2017-10-10T10:32:01Z</time>
      </trkpt>
      <trkpt lat="38.1656601839" lon="-2.7953796275">
        <ele>664.41</ele>
        <time>2017-10-10T10:32:02Z</time>
      </trkpt>
      <trkpt lat="38.1656768639" lon="-2.7953217924">
        <ele>664.41</ele>
        <time>2017-10-10T10:32:03Z</time>
      </trkpt>
      <trkpt lat="38.1657010876" lon="-2.7952680644">
        <ele>664.41</ele>
        <time>2017-10-10T10:32:04Z</time>
      </trkpt>
      <trkpt lat="38.1657251436" lon="-2.7952183597">
        <ele>664.41</ele>
        <time>2017-10-10T10:32:05Z</time>
      </trkpt>
      <trkpt lat="38.1657534745" lon="-2.7951689065">
        <ele>664.89</ele>
        <time>2017-10-10T10:32:06Z</time>
      </trkpt>
      <trkpt lat="38.1660726573" lon="-2.7946820855">
        <ele>665.85</ele>
        <time>2017-10-10T10:32:18Z</time>
      </trkpt>
      <trkpt lat="38.1663418841" lon="-2.7942391019">
        <ele>666.33</ele>
        <time>2017-10-10T10:32:29Z</time>
      </trkpt>
      <trkpt lat="38.1664868072" lon="-2.7939017303">
        <ele>665.85</ele>
        <time>2017-10-10T10:32:35Z</time>
      </trkpt>
      <trkpt lat="38.1665541138" lon="-2.7937255427">
        <ele>665.37</ele>
        <time>2017-10-10T10:32:38Z</time>
      </trkpt>
      <trkpt lat="38.1665877253" lon="-2.7936138958">
        <ele>665.37</ele>
        <time>2017-10-10T10:32:40Z</time>
      </trkpt>
      <trkpt lat="38.1666116975" lon="-2.7935542166">
        <ele>665.37</ele>
        <time>2017-10-10T10:32:41Z</time>
      </trkpt>
      <trkpt lat="38.1666371785" lon="-2.7934903465">
        <ele>665.37</ele>
        <time>2017-10-10T10:32:42Z</time>
      </trkpt>
      <trkpt lat="38.1666611508" lon="-2.7934188489">
        <ele>664.89</ele>
        <time>2017-10-10T10:32:43Z</time>
      </trkpt>
      <trkpt lat="38.1667692773" lon="-2.7931023482">
        <ele>665.37</ele>
        <time>2017-10-10T10:32:48Z</time>
      </trkpt>
      <trkpt lat="38.1669222470" lon="-2.7927001845">
        <ele>666.81</ele>
        <time>2017-10-10T10:32:57Z</time>
      </trkpt>
      <trkpt lat="38.1670408510" lon="-2.7922188118">
        <ele>668.25</ele>
        <time>2017-10-10T10:33:09Z</time>
      </trkpt>
      <trkpt lat="38.1670701876" lon="-2.7918459009">
        <ele>669.22</ele>
        <time>2017-10-10T10:33:19Z</time>
      </trkpt>
      <trkpt lat="38.1670607999" lon="-2.7913128957">
        <ele>670.18</ele>
        <time>2017-10-10T10:33:32Z</time>
      </trkpt>
      <trkpt lat="38.1668000389" lon="-2.7909484506">
        <ele>671.14</ele>
        <time>2017-10-10T10:33:44Z</time>
      </trkpt>
      <trkpt lat="38.1666490808" lon="-2.7905680798">
        <ele>673.06</ele>
        <time>2017-10-10T10:33:54Z</time>
      </trkpt>
      <trkpt lat="38.1668049004" lon="-2.7901746333">
        <ele>675.46</ele>
        <time>2017-10-10T10:34:04Z</time>
      </trkpt>
      <trkpt lat="38.1667878851" lon="-2.7898290474">
        <ele>677.39</ele>
        <time>2017-10-10T10:34:12Z</time>
      </trkpt>
      <trkpt lat="38.1667625718" lon="-2.7897884790">
        <ele>677.39</ele>
        <time>2017-10-10T10:34:13Z</time>
      </trkpt>
      <trkpt lat="38.1664941832" lon="-2.7895322442">
        <ele>678.35</ele>
        <time>2017-10-10T10:34:22Z</time>
      </trkpt>
      <trkpt lat="38.1662387028" lon="-2.7891955432">
        <ele>679.31</ele>
        <time>2017-10-10T10:34:33Z</time>
      </trkpt>
      <trkpt lat="38.1660493556" lon="-2.7885760367">
        <ele>681.71</ele>
        <time>2017-10-10T10:34:48Z</time>
      </trkpt>
      <trkpt lat="38.1658372097" lon="-2.7880198974">
        <ele>681.23</ele>
        <time>2017-10-10T10:35:01Z</time>
      </trkpt>
      <trkpt lat="38.1656652968" lon="-2.7874894906">
        <ele>681.23</ele>
        <time>2017-10-10T10:35:11Z</time>
      </trkpt>
      <trkpt lat="38.1654561684" lon="-2.7869594190">
        <ele>681.71</ele>
        <time>2017-10-10T10:35:21Z</time>
      </trkpt>
      <trkpt lat="38.1654468644" lon="-2.7869091276">
        <ele>681.71</ele>
        <time>2017-10-10T10:35:22Z</time>
      </trkpt>
      <trkpt lat="38.1654644664" lon="-2.7864981629">
        <ele>682.19</ele>
        <time>2017-10-10T10:35:31Z</time>
      </trkpt>
      <trkpt lat="38.1655046996" lon="-2.7861540020">
        <ele>682.67</ele>
        <time>2017-10-10T10:35:38Z</time>
      </trkpt>
      <trkpt lat="38.1655093096" lon="-2.7861027885">
        <ele>682.67</ele>
        <time>2017-10-10T10:35:39Z</time>
      </trkpt>
      <trkpt lat="38.1655182783" lon="-2.7860532515">
        <ele>683.15</ele>
        <time>2017-10-10T10:35:40Z</time>
      </trkpt>
      <trkpt lat="38.1655461062" lon="-2.7858136967">
        <ele>683.15</ele>
        <time>2017-10-10T10:35:45Z</time>
      </trkpt>
      <trkpt lat="38.1655434240" lon="-2.7857613098">
        <ele>683.15</ele>
        <time>2017-10-10T10:35:46Z</time>
      </trkpt>
      <trkpt lat="38.1655367184" lon="-2.7857080009">
        <ele>683.15</ele>
        <time>2017-10-10T10:35:47Z</time>
      </trkpt>
      <trkpt lat="38.1655249000" lon="-2.7856546920">
        <ele>683.63</ele>
        <time>2017-10-10T10:35:48Z</time>
      </trkpt>
      <trkpt lat="38.1655110698" lon="-2.7856018860">
        <ele>683.15</ele>
        <time>2017-10-10T10:35:49Z</time>
      </trkpt>
      <trkpt lat="38.1654929649" lon="-2.7855507564">
        <ele>683.63</ele>
        <time>2017-10-10T10:35:50Z</time>
      </trkpt>
      <trkpt lat="38.1654711720" lon="-2.7855002135">
        <ele>683.15</ele>
        <time>2017-10-10T10:35:51Z</time>
      </trkpt>
      <trkpt lat="38.1654446851" lon="-2.7854492515">
        <ele>683.15</ele>
        <time>2017-10-10T10:35:52Z</time>
      </trkpt>
      <trkpt lat="38.1654159352" lon="-2.7854006365">
        <ele>683.15</ele>
        <time>2017-10-10T10:35:53Z</time>
      </trkpt>
      <trkpt lat="38.1653837487" lon="-2.7853556257">
        <ele>683.15</ele>
        <time>2017-10-10T10:35:54Z</time>
      </trkpt>
      <trkpt lat="38.1653500535" lon="-2.7853150573">
        <ele>683.15</ele>
        <time>2017-10-10T10:35:55Z</time>
      </trkpt>
      <trkpt lat="38.1653131731" lon="-2.7852762491">
        <ele>682.67</ele>
        <time>2017-10-10T10:35:56Z</time>
      </trkpt>
      <trkpt lat="38.1652730238" lon="-2.7852391172">
        <ele>683.15</ele>
        <time>2017-10-10T10:35:57Z</time>
      </trkpt>
      <trkpt lat="38.1652305275" lon="-2.7852034103">
        <ele>682.67</ele>
        <time>2017-10-10T10:35:58Z</time>
      </trkpt>
      <trkpt lat="38.1650546752" lon="-2.7850703057">
        <ele>683.15</ele>
        <time>2017-10-10T10:36:02Z</time>
      </trkpt>
      <trkpt lat="38.1649544276" lon="-2.7850281447">
        <ele>682.67</ele>
        <time>2017-10-10T10:36:04Z</time>
      </trkpt>
      <trkpt lat="38.1647923216" lon="-2.7850061003">
        <ele>682.67</ele>
        <time>2017-10-10T10:36:07Z</time>
      </trkpt>
      <trkpt lat="38.1641984638" lon="-2.7849720698">
        <ele>683.15</ele>
        <time>2017-10-10T10:36:18Z</time>
      </trkpt>
      <trkpt lat="38.1635632832" lon="-2.7849451639">
        <ele>682.67</ele>
        <time>2017-10-10T10:36:30Z</time>
      </trkpt>
      <trkpt lat="38.1630902924" lon="-2.7849229518">
        <ele>682.19</ele>
        <time>2017-10-10T10:36:38Z</time>
      </trkpt>
      <trkpt lat="38.1630311161" lon="-2.7849434037">
        <ele>682.19</ele>
        <time>2017-10-10T10:36:39Z</time>
      </trkpt>
      <trkpt lat="38.1629762147" lon="-2.7849728242">
        <ele>682.19</ele>
        <time>2017-10-10T10:36:40Z</time>
      </trkpt>
      <trkpt lat="38.1629249174" lon="-2.7850097045">
        <ele>682.19</ele>
        <time>2017-10-10T10:36:41Z</time>
      </trkpt>
      <trkpt lat="38.1628727820" lon="-2.7850485127">
        <ele>682.19</ele>
        <time>2017-10-10T10:36:42Z</time>
      </trkpt>
      <trkpt lat="38.1622853782" lon="-2.7852744889">
        <ele>682.19</ele>
        <time>2017-10-10T10:36:52Z</time>
      </trkpt>
      <trkpt lat="38.1616551429" lon="-2.7852143068">
        <ele>682.67</ele>
        <time>2017-10-10T10:37:03Z</time>
      </trkpt>
      <trkpt lat="38.1610615365" lon="-2.7851903345">
        <ele>683.15</ele>
        <time>2017-10-10T10:37:14Z</time>
      </trkpt>
      <trkpt lat="38.1609124225" lon="-2.7852728125">
        <ele>683.15</ele>
        <time>2017-10-10T10:37:17Z</time>
      </trkpt>
      <trkpt lat="38.1608658191" lon="-2.7853103634">
        <ele>683.63</ele>
        <time>2017-10-10T10:37:18Z</time>
      </trkpt>
      <trkpt lat="38.1607784797" lon="-2.7853949368">
        <ele>683.15</ele>
        <time>2017-10-10T10:37:20Z</time>
      </trkpt>
      <trkpt lat="38.1607386656" lon="-2.7854477428">
        <ele>683.15</ele>
        <time>2017-10-10T10:37:21Z</time>
      </trkpt>
      <trkpt lat="38.1607034616" lon="-2.7855062485">
        <ele>683.15</ele>
        <time>2017-10-10T10:37:22Z</time>
      </trkpt>
      <trkpt lat="38.1606731191" lon="-2.7855694480">
        <ele>683.15</ele>
        <time>2017-10-10T10:37:23Z</time>
      </trkpt>
      <trkpt lat="38.1606473029" lon="-2.7856354136">
        <ele>683.15</ele>
        <time>2017-10-10T10:37:24Z</time>
      </trkpt>
      <trkpt lat="38.1606255937" lon="-2.7857018821">
        <ele>683.15</ele>
        <time>2017-10-10T10:37:25Z</time>
      </trkpt>
      <trkpt lat="38.1606072374" lon="-2.7857692726">
        <ele>683.15</ele>
        <time>2017-10-10T10:37:26Z</time>
      </trkpt>
      <trkpt lat="38.1604452152" lon="-2.7861358970">
        <ele>683.15</ele>
        <time>2017-10-10T10:37:32Z</time>
      </trkpt>
      <trkpt lat="38.1604073290" lon="-2.7861897089">
        <ele>683.15</ele>
        <time>2017-10-10T10:37:33Z</time>
      </trkpt>
      <trkpt lat="38.1603665091" lon="-2.7862394135">
        <ele>683.15</ele>
        <time>2017-10-10T10:37:34Z</time>
      </trkpt>
      <trkpt lat="38.1600183249" lon="-2.7865476999">
        <ele>683.15</ele>
        <time>2017-10-10T10:37:42Z</time>
      </trkpt>
      <trkpt lat="38.1599697936" lon="-2.7865724266">
        <ele>683.15</ele>
        <time>2017-10-10T10:37:43Z</time>
      </trkpt>
      <trkpt lat="38.1599168200" lon="-2.7865898609">
        <ele>683.15</ele>
        <time>2017-10-10T10:37:44Z</time>
      </trkpt>
      <trkpt lat="38.1598604098" lon="-2.7866017632">
        <ele>683.15</ele>
        <time>2017-10-10T10:37:45Z</time>
      </trkpt>
      <trkpt lat="38.1598035805" lon="-2.7866054513">
        <ele>683.15</ele>
        <time>2017-10-10T10:37:46Z</time>
      </trkpt>
      <trkpt lat="38.1597454101" lon="-2.7866012603">
        <ele>683.15</ele>
        <time>2017-10-10T10:37:47Z</time>
      </trkpt>
      <trkpt lat="38.1596863177" lon="-2.7865914535">
        <ele>682.67</ele>
        <time>2017-10-10T10:37:48Z</time>
      </trkpt>
      <trkpt lat="38.1596293207" lon="-2.7865751926">
        <ele>682.67</ele>
        <time>2017-10-10T10:37:49Z</time>
      </trkpt>
      <trkpt lat="38.1595775206" lon="-2.7865529805">
        <ele>683.15</ele>
        <time>2017-10-10T10:37:50Z</time>
      </trkpt>
      <trkpt lat="38.1595284864" lon="-2.7865263261">
        <ele>682.67</ele>
        <time>2017-10-10T10:37:51Z</time>
      </trkpt>
      <trkpt lat="38.1591642089" lon="-2.7863319498">
        <ele>686.04</ele>
        <time>2017-10-10T10:37:59Z</time>
      </trkpt>
      <trkpt lat="38.1589634623" lon="-2.7862411737">
        <ele>686.52</ele>
        <time>2017-10-10T10:38:04Z</time>
      </trkpt>
      <trkpt lat="38.1589261629" lon="-2.7862366475">
        <ele>685.56</ele>
        <time>2017-10-10T10:38:05Z</time>
      </trkpt>
      <trkpt lat="38.1588902045" lon="-2.7862229850">
        <ele>685.56</ele>
        <time>2017-10-10T10:38:06Z</time>
      </trkpt>
      <trkpt lat="38.1584815029" lon="-2.7860776428">
        <ele>687.48</ele>
        <time>2017-10-10T10:38:17Z</time>
      </trkpt>
      <trkpt lat="38.1581739709" lon="-2.7859869506">
        <ele>688.44</ele>
        <time>2017-10-10T10:38:28Z</time>
      </trkpt>
      <trkpt lat="38.1578098610" lon="-2.7860317938">
        <ele>689.88</ele>
        <time>2017-10-10T10:38:40Z</time>
      </trkpt>
      <trkpt lat="38.1573790312" lon="-2.7861813270">
        <ele>690.84</ele>
        <time>2017-10-10T10:38:53Z</time>
      </trkpt>
      <trkpt lat="38.1569908652" lon="-2.7863906231">
        <ele>691.81</ele>
        <time>2017-10-10T10:39:05Z</time>
      </trkpt>
      <trkpt lat="38.1565063912" lon="-2.7866394818">
        <ele>693.73</ele>
        <time>2017-10-10T10:39:20Z</time>
      </trkpt>
      <trkpt lat="38.1560593005" lon="-2.7867554873">
        <ele>694.69</ele>
        <time>2017-10-10T10:39:33Z</time>
      </trkpt>
      <trkpt lat="38.1559438817" lon="-2.7867497876">
        <ele>694.69</ele>
        <time>2017-10-10T10:39:36Z</time>
      </trkpt>
      <trkpt lat="38.1559017207" lon="-2.7867451776">
        <ele>694.69</ele>
        <time>2017-10-10T10:39:37Z</time>
      </trkpt>
      <trkpt lat="38.1558575481" lon="-2.7867408190">
        <ele>694.21</ele>
        <time>2017-10-10T10:39:38Z</time>
      </trkpt>
      <trkpt lat="38.1552414782" lon="-2.7866704948">
        <ele>693.25</ele>
        <time>2017-10-10T10:39:50Z</time>
      </trkpt>
      <trkpt lat="38.1545697525" lon="-2.7867616061">
        <ele>691.81</ele>
        <time>2017-10-10T10:40:01Z</time>
      </trkpt>
      <trkpt lat="38.1543869432" lon="-2.7867786214">
        <ele>691.81</ele>
        <time>2017-10-10T10:40:04Z</time>
      </trkpt>
      <trkpt lat="38.1543287728" lon="-2.7867738437">
        <ele>691.81</ele>
        <time>2017-10-10T10:40:05Z</time>
      </trkpt>
      <trkpt lat="38.1542739552" lon="-2.7867647912">
        <ele>692.29</ele>
        <time>2017-10-10T10:40:06Z</time>
      </trkpt>
      <trkpt lat="38.1542212330" lon="-2.7867508773">
        <ele>692.29</ele>
        <time>2017-10-10T10:40:07Z</time>
      </trkpt>
      <trkpt lat="38.1541691814" lon="-2.7867311798">
        <ele>692.77</ele>
        <time>2017-10-10T10:40:08Z</time>
      </trkpt>
      <trkpt lat="38.1537034828" lon="-2.7864779625">
        <ele>692.77</ele>
        <time>2017-10-10T10:40:18Z</time>
      </trkpt>
      <trkpt lat="38.1535559613" lon="-2.7864202950">
        <ele>692.29</ele>
        <time>2017-10-10T10:40:21Z</time>
      </trkpt>
      <trkpt lat="38.1535018142" lon="-2.7864102367">
        <ele>692.29</ele>
        <time>2017-10-10T10:40:22Z</time>
      </trkpt>
      <trkpt lat="38.1534468289" lon="-2.7864094824">
        <ele>692.29</ele>
        <time>2017-10-10T10:40:23Z</time>
      </trkpt>
      <trkpt lat="38.1533940230" lon="-2.7864174452">
        <ele>692.29</ele>
        <time>2017-10-10T10:40:24Z</time>
      </trkpt>
      <trkpt lat="38.1533407141" lon="-2.7864302695">
        <ele>692.29</ele>
        <time>2017-10-10T10:40:25Z</time>
      </trkpt>
      <trkpt lat="38.1532920990" lon="-2.7864477877">
        <ele>692.29</ele>
        <time>2017-10-10T10:40:26Z</time>
      </trkpt>
      <trkpt lat="38.1529226247" lon="-2.7866363805">
        <ele>693.25</ele>
        <time>2017-10-10T10:40:34Z</time>
      </trkpt>
      <trkpt lat="38.1528300047" lon="-2.7866636217">
        <ele>693.73</ele>
        <time>2017-10-10T10:40:36Z</time>
      </trkpt>
      <trkpt lat="38.1525946409" lon="-2.7866790444">
        <ele>694.21</ele>
        <time>2017-10-10T10:40:41Z</time>
      </trkpt>
      <trkpt lat="38.1520938221" lon="-2.7866967302">
        <ele>695.17</ele>
        <time>2017-10-10T10:40:52Z</time>
      </trkpt>
      <trkpt lat="38.1520500686" lon="-2.7867103089">
        <ele>695.17</ele>
        <time>2017-10-10T10:40:53Z</time>
      </trkpt>
      <trkpt lat="38.1516279560" lon="-2.7868479397">
        <ele>696.61</ele>
        <time>2017-10-10T10:41:03Z</time>
      </trkpt>
      <trkpt lat="38.1511820387" lon="-2.7870178409">
        <ele>698.05</ele>
        <time>2017-10-10T10:41:15Z</time>
      </trkpt>
      <trkpt lat="38.1508469302" lon="-2.7871193457">
        <ele>699.98</ele>
        <time>2017-10-10T10:41:25Z</time>
      </trkpt>
      <trkpt lat="38.1504855026" lon="-2.7873780951">
        <ele>700.94</ele>
        <time>2017-10-10T10:41:36Z</time>
      </trkpt>
      <trkpt lat="38.1502661481" lon="-2.7877830248">
        <ele>700.46</ele>
        <time>2017-10-10T10:41:45Z</time>
      </trkpt>
      <trkpt lat="38.1502471212" lon="-2.7878365852">
        <ele>700.46</ele>
        <time>2017-10-10T10:41:46Z</time>
      </trkpt>
      <trkpt lat="38.1500357296" lon="-2.7884598635">
        <ele>700.46</ele>
        <time>2017-10-10T10:41:56Z</time>
      </trkpt>
      <trkpt lat="38.1496943347" lon="-2.7892005723">
        <ele>700.46</ele>
        <time>2017-10-10T10:42:08Z</time>
      </trkpt>
      <trkpt lat="38.1492751557" lon="-2.7900883835">
        <ele>699.50</ele>
        <time>2017-10-10T10:42:21Z</time>
      </trkpt>
      <trkpt lat="38.1492257025" lon="-2.7902280260">
        <ele>699.98</ele>
        <time>2017-10-10T10:42:23Z</time>
      </trkpt>
      <trkpt lat="38.1492090225" lon="-2.7902950812">
        <ele>699.98</ele>
        <time>2017-10-10T10:42:24Z</time>
      </trkpt>
      <trkpt lat="38.1492020655" lon="-2.7903623879">
        <ele>700.46</ele>
        <time>2017-10-10T10:42:25Z</time>
      </trkpt>
      <trkpt lat="38.1491912529" lon="-2.7904967498">
        <ele>699.98</ele>
        <time>2017-10-10T10:42:27Z</time>
      </trkpt>
      <trkpt lat="38.1491836254" lon="-2.7905622963">
        <ele>700.46</ele>
        <time>2017-10-10T10:42:28Z</time>
      </trkpt>
      <trkpt lat="38.1491771713" lon="-2.7906287648">
        <ele>699.98</ele>
        <time>2017-10-10T10:42:29Z</time>
      </trkpt>
      <trkpt lat="38.1491323281" lon="-2.7914087009">
        <ele>700.46</ele>
        <time>2017-10-10T10:42:40Z</time>
      </trkpt>
      <trkpt lat="38.1491402909" lon="-2.7916227747">
        <ele>699.98</ele>
        <time>2017-10-10T10:42:43Z</time>
      </trkpt>
      <trkpt lat="38.1491305679" lon="-2.7916922607">
        <ele>699.98</ele>
        <time>2017-10-10T10:42:44Z</time>
      </trkpt>
      <trkpt lat="38.1491153128" lon="-2.7917589806">
        <ele>699.98</ele>
        <time>2017-10-10T10:42:45Z</time>
      </trkpt>
      <trkpt lat="38.1490947772" lon="-2.7918245271">
        <ele>700.46</ele>
        <time>2017-10-10T10:42:46Z</time>
      </trkpt>
      <trkpt lat="38.1490699667" lon="-2.7918878105">
        <ele>700.46</ele>
        <time>2017-10-10T10:42:47Z</time>
      </trkpt>
      <trkpt lat="38.1490419712" lon="-2.7919482440">
        <ele>699.98</ele>
        <time>2017-10-10T10:42:48Z</time>
      </trkpt>
      <trkpt lat="38.1490120478" lon="-2.7920075879">
        <ele>700.46</ele>
        <time>2017-10-10T10:42:49Z</time>
      </trkpt>
      <trkpt lat="38.1489238702" lon="-2.7921815962">
        <ele>699.98</ele>
        <time>2017-10-10T10:42:52Z</time>
      </trkpt>
      <trkpt lat="38.1489022449" lon="-2.7922423650">
        <ele>699.98</ele>
        <time>2017-10-10T10:42:53Z</time>
      </trkpt>
      <trkpt lat="38.1488812063" lon="-2.7923057321">
        <ele>699.98</ele>
        <time>2017-10-10T10:42:54Z</time>
      </trkpt>
      <trkpt lat="38.1488588266" lon="-2.7923687641">
        <ele>699.98</ele>
        <time>2017-10-10T10:42:55Z</time>
      </trkpt>
      <trkpt lat="38.1488371175" lon="-2.7924354840">
        <ele>699.98</ele>
        <time>2017-10-10T10:42:56Z</time>
      </trkpt>
      <trkpt lat="38.1486954633" lon="-2.7928859275">
        <ele>699.98</ele>
        <time>2017-10-10T10:43:03Z</time>
      </trkpt>
      <trkpt lat="38.1486818008" lon="-2.7929496299">
        <ele>700.46</ele>
        <time>2017-10-10T10:43:04Z</time>
      </trkpt>
      <trkpt lat="38.1486644503" lon="-2.7930078004">
        <ele>700.46</ele>
        <time>2017-10-10T10:43:05Z</time>
      </trkpt>
      <trkpt lat="38.1486467645" lon="-2.7930644620">
        <ele>700.46</ele>
        <time>2017-10-10T10:43:06Z</time>
      </trkpt>
      <trkpt lat="38.1486347783" lon="-2.7931241412">
        <ele>700.46</ele>
        <time>2017-10-10T10:43:07Z</time>
      </trkpt>
      <trkpt lat="38.1486240495" lon="-2.7931876760">
        <ele>700.46</ele>
        <time>2017-10-10T10:43:08Z</time>
      </trkpt>
      <trkpt lat="38.1485879235" lon="-2.7933853213">
        <ele>700.46</ele>
        <time>2017-10-10T10:43:11Z</time>
      </trkpt>
      <trkpt lat="38.1485517975" lon="-2.7935180068">
        <ele>700.46</ele>
        <time>2017-10-10T10:43:13Z</time>
      </trkpt>
      <trkpt lat="38.1485284120" lon="-2.7935796976">
        <ele>700.46</ele>
        <time>2017-10-10T10:43:14Z</time>
      </trkpt>
      <trkpt lat="38.1484985724" lon="-2.7936311625">
        <ele>700.94</ele>
        <time>2017-10-10T10:43:15Z</time>
      </trkpt>
      <trkpt lat="38.1484607700" lon="-2.7936756704">
        <ele>700.94</ele>
        <time>2017-10-10T10:43:16Z</time>
      </trkpt>
      <trkpt lat="38.1484134123" lon="-2.7937107068">
        <ele>700.94</ele>
        <time>2017-10-10T10:43:17Z</time>
      </trkpt>
      <trkpt lat="38.1483589299" lon="-2.7937344275">
        <ele>700.94</ele>
        <time>2017-10-10T10:43:18Z</time>
      </trkpt>
      <trkpt lat="38.1483010948" lon="-2.7937433124">
        <ele>700.46</ele>
        <time>2017-10-10T10:43:19Z</time>
      </trkpt>
      <trkpt lat="38.1482432596" lon="-2.7937423065">
        <ele>700.46</ele>
        <time>2017-10-10T10:43:20Z</time>
      </trkpt>
      <trkpt lat="38.1481891964" lon="-2.7937346790">
        <ele>700.46</ele>
        <time>2017-10-10T10:43:21Z</time>
      </trkpt>
      <trkpt lat="38.1481392402" lon="-2.7937214356">
        <ele>700.46</ele>
        <time>2017-10-10T10:43:22Z</time>
      </trkpt>
      <trkpt lat="38.1480901223" lon="-2.7937034983">
        <ele>700.46</ele>
        <time>2017-10-10T10:43:23Z</time>
      </trkpt>
      <trkpt lat="38.1478968356" lon="-2.7936266363">
        <ele>700.94</ele>
        <time>2017-10-10T10:43:27Z</time>
      </trkpt>
      <trkpt lat="38.1477007829" lon="-2.7935875766">
        <ele>701.42</ele>
        <time>2017-10-10T10:43:31Z</time>
      </trkpt>
      <trkpt lat="38.1473026425" lon="-2.7937027439">
        <ele>700.94</ele>
        <time>2017-10-10T10:43:39Z</time>
      </trkpt>
      <trkpt lat="38.1472561229" lon="-2.7937384509">
        <ele>700.94</ele>
        <time>2017-10-10T10:43:40Z</time>
      </trkpt>
      <trkpt lat="38.1472119503" lon="-2.7937810309">
        <ele>700.94</ele>
        <time>2017-10-10T10:43:41Z</time>
      </trkpt>
      <trkpt lat="38.1471695378" lon="-2.7938309032">
        <ele>700.94</ele>
        <time>2017-10-10T10:43:42Z</time>
      </trkpt>
      <trkpt lat="38.1471275445" lon="-2.7938858047">
        <ele>700.46</ele>
        <time>2017-10-10T10:43:43Z</time>
      </trkpt>
      <trkpt lat="38.1470908318" lon="-2.7939471602">
        <ele>700.46</ele>
        <time>2017-10-10T10:43:44Z</time>
      </trkpt>
      <trkpt lat="38.1466807052" lon="-2.7948249970">
        <ele>698.53</ele>
        <time>2017-10-10T10:43:56Z</time>
      </trkpt>
      <trkpt lat="38.1466041785" lon="-2.7949801460">
        <ele>698.05</ele>
        <time>2017-10-10T10:43:58Z</time>
      </trkpt>
      <trkpt lat="38.1465541385" lon="-2.7950458601">
        <ele>698.05</ele>
        <time>2017-10-10T10:43:59Z</time>
      </trkpt>
      <trkpt lat="38.1464906875" lon="-2.7950952295">
        <ele>698.05</ele>
        <time>2017-10-10T10:44:00Z</time>
      </trkpt>
      <trkpt lat="38.1464176811" lon="-2.7951197047">
        <ele>697.09</ele>
        <time>2017-10-10T10:44:01Z</time>
      </trkpt>
      <trkpt lat="38.1463404838" lon="-2.7951284219">
        <ele>697.09</ele>
        <time>2017-10-10T10:44:02Z</time>
      </trkpt>
      <trkpt lat="38.1462605204" lon="-2.7951316070">
        <ele>696.61</ele>
        <time>2017-10-10T10:44:03Z</time>
      </trkpt>
      <trkpt lat="38.1461032759" lon="-2.7951228060">
        <ele>696.61</ele>
        <time>2017-10-10T10:44:05Z</time>
      </trkpt>
      <trkpt lat="38.1460322812" lon="-2.7951008454">
        <ele>696.61</ele>
        <time>2017-10-10T10:44:06Z</time>
      </trkpt>
      <trkpt lat="38.1459679082" lon="-2.7950673178">
        <ele>696.61</ele>
        <time>2017-10-10T10:44:07Z</time>
      </trkpt>
      <trkpt lat="38.1459105760" lon="-2.7950272523">
        <ele>696.61</ele>
        <time>2017-10-10T10:44:08Z</time>
      </trkpt>
      <trkpt lat="38.1458583567" lon="-2.7949797269">
        <ele>697.09</ele>
        <time>2017-10-10T10:44:09Z</time>
      </trkpt>
      <trkpt lat="38.1458079815" lon="-2.7949280106">
        <ele>697.09</ele>
        <time>2017-10-10T10:44:10Z</time>
      </trkpt>
      <trkpt lat="38.1454376690" lon="-2.7945637330">
        <ele>699.02</ele>
        <time>2017-10-10T10:44:19Z</time>
      </trkpt>
      <trkpt lat="38.1450975314" lon="-2.7941274550">
        <ele>699.98</ele>
        <time>2017-10-10T10:44:29Z</time>
      </trkpt>
      <trkpt lat="38.1450789236" lon="-2.7940724697">
        <ele>699.98</ele>
        <time>2017-10-10T10:44:30Z</time>
      </trkpt>
      <trkpt lat="38.1450518500" lon="-2.7939617448">
        <ele>700.46</ele>
        <time>2017-10-10T10:44:32Z</time>
      </trkpt>
      <trkpt lat="38.1450417917" lon="-2.7939040773">
        <ele>700.46</ele>
        <time>2017-10-10T10:44:33Z</time>
      </trkpt>
      <trkpt lat="38.1449356768" lon="-2.7934646979">
        <ele>700.94</ele>
        <time>2017-10-10T10:44:41Z</time>
      </trkpt>
      <trkpt lat="38.1449189130" lon="-2.7934091259">
        <ele>701.42</ele>
        <time>2017-10-10T10:44:42Z</time>
      </trkpt>
      <trkpt lat="38.1449003890" lon="-2.7933502849">
        <ele>700.94</ele>
        <time>2017-10-10T10:44:43Z</time>
      </trkpt>
      <trkpt lat="38.1448858883" lon="-2.7932937909">
        <ele>701.42</ele>
        <time>2017-10-10T10:44:44Z</time>
      </trkpt>
      <trkpt lat="38.1448527798" lon="-2.7931196988">
        <ele>701.42</ele>
        <time>2017-10-10T10:44:47Z</time>
      </trkpt>
      <trkpt lat="38.1448306516" lon="-2.7930030227">
        <ele>701.42</ele>
        <time>2017-10-10T10:44:49Z</time>
      </trkpt>
      <trkpt lat="38.1448221859" lon="-2.7929443493">
        <ele>701.42</ele>
        <time>2017-10-10T10:44:50Z</time>
      </trkpt>
      <trkpt lat="38.1447868980" lon="-2.7927633002">
        <ele>701.90</ele>
        <time>2017-10-10T10:44:53Z</time>
      </trkpt>
      <trkpt lat="38.1447739061" lon="-2.7927026153">
        <ele>701.90</ele>
        <time>2017-10-10T10:44:54Z</time>
      </trkpt>
      <trkpt lat="38.1447650213" lon="-2.7926400024">
        <ele>701.90</ele>
        <time>2017-10-10T10:44:55Z</time>
      </trkpt>
      <trkpt lat="38.1447607465" lon="-2.7925768867">
        <ele>701.90</ele>
        <time>2017-10-10T10:44:56Z</time>
      </trkpt>
      <trkpt lat="38.1447609980" lon="-2.7925167046">
        <ele>702.38</ele>
        <time>2017-10-10T10:44:57Z</time>
      </trkpt>
      <trkpt lat="38.1447677873" lon="-2.7924544271">
        <ele>701.90</ele>
        <time>2017-10-10T10:44:58Z</time>
      </trkpt>
      <trkpt lat="38.1447751634" lon="-2.7923914790">
        <ele>702.38</ele>
        <time>2017-10-10T10:44:59Z</time>
      </trkpt>
      <trkpt lat="38.1447737385" lon="-2.7920062467">
        <ele>702.38</ele>
        <time>2017-10-10T10:45:05Z</time>
      </trkpt>
      <trkpt lat="38.1447800249" lon="-2.7919429634">
        <ele>702.38</ele>
        <time>2017-10-10T10:45:06Z</time>
      </trkpt>
      <trkpt lat="38.1447764207" lon="-2.7918843739">
        <ele>702.38</ele>
        <time>2017-10-10T10:45:07Z</time>
      </trkpt>
      <trkpt lat="38.1447657757" lon="-2.7917686198">
        <ele>702.38</ele>
        <time>2017-10-10T10:45:09Z</time>
      </trkpt>
      <trkpt lat="38.1447656080" lon="-2.7917013131">
        <ele>702.38</ele>
        <time>2017-10-10T10:45:10Z</time>
      </trkpt>
      <trkpt lat="38.1447609980" lon="-2.7915066853">
        <ele>702.86</ele>
        <time>2017-10-10T10:45:13Z</time>
      </trkpt>
      <trkpt lat="38.1447513588" lon="-2.7914444916">
        <ele>702.86</ele>
        <time>2017-10-10T10:45:14Z</time>
      </trkpt>
      <trkpt lat="38.1447463296" lon="-2.7913802862">
        <ele>702.86</ele>
        <time>2017-10-10T10:45:15Z</time>
      </trkpt>
      <trkpt lat="38.1447390374" lon="-2.7913190145">
        <ele>702.86</ele>
        <time>2017-10-10T10:45:16Z</time>
      </trkpt>
      <trkpt lat="38.1447288115" lon="-2.7912557311">
        <ele>702.86</ele>
        <time>2017-10-10T10:45:17Z</time>
      </trkpt>
      <trkpt lat="38.1447143946" lon="-2.7911929507">
        <ele>702.86</ele>
        <time>2017-10-10T10:45:18Z</time>
      </trkpt>
      <trkpt lat="38.1446967926" lon="-2.7911339421">
        <ele>702.86</ele>
        <time>2017-10-10T10:45:19Z</time>
      </trkpt>
      <trkpt lat="38.1444560643" lon="-2.7905484661">
        <ele>703.82</ele>
        <time>2017-10-10T10:45:30Z</time>
      </trkpt>
      <trkpt lat="38.1443150807" lon="-2.7901270241">
        <ele>704.78</ele>
        <time>2017-10-10T10:45:40Z</time>
      </trkpt>
      <trkpt lat="38.1442243047" lon="-2.7897182386">
        <ele>705.75</ele>
        <time>2017-10-10T10:45:50Z</time>
      </trkpt>
      <trkpt lat="38.1442047749" lon="-2.7893953677">
        <ele>706.71</ele>
        <time>2017-10-10T10:45:58Z</time>
      </trkpt>
      <trkpt lat="38.1441915315" lon="-2.7893679589">
        <ele>706.71</ele>
        <time>2017-10-10T10:45:59Z</time>
      </trkpt>
      <trkpt lat="38.1441785395" lon="-2.7893413883">
        <ele>706.71</ele>
        <time>2017-10-10T10:46:00Z</time>
      </trkpt>
      <trkpt lat="38.1440893561" lon="-2.7889249753">
        <ele>707.67</ele>
        <time>2017-10-10T10:46:11Z</time>
      </trkpt>
      <trkpt lat="38.1438959017" lon="-2.7885118313">
        <ele>708.63</ele>
        <time>2017-10-10T10:46:22Z</time>
      </trkpt>
      <trkpt lat="38.1436266750" lon="-2.7882840112">
        <ele>709.59</ele>
        <time>2017-10-10T10:46:31Z</time>
      </trkpt>
      <trkpt lat="38.1432885490" lon="-2.7881566901">
        <ele>711.51</ele>
        <time>2017-10-10T10:46:41Z</time>
      </trkpt>
      <trkpt lat="38.1430910714" lon="-2.7880833484">
        <ele>711.99</ele>
        <time>2017-10-10T10:46:48Z</time>
      </trkpt>
      <trkpt lat="38.1427448988" lon="-2.7878353279">
        <ele>713.44</ele>
        <time>2017-10-10T10:46:59Z</time>
      </trkpt>
      <trkpt lat="38.1424242072" lon="-2.7876182366">
        <ele>714.88</ele>
        <time>2017-10-10T10:47:10Z</time>
      </trkpt>
      <trkpt lat="38.1420460995" lon="-2.7875013929">
        <ele>716.32</ele>
        <time>2017-10-10T10:47:21Z</time>
      </trkpt>
      <trkpt lat="38.1416732725" lon="-2.7874513529">
        <ele>716.32</ele>
        <time>2017-10-10T10:47:30Z</time>
      </trkpt>
      <trkpt lat="38.1416236516" lon="-2.7874502633">
        <ele>716.80</ele>
        <time>2017-10-10T10:47:31Z</time>
      </trkpt>
      <trkpt lat="38.1415777188" lon="-2.7874459885">
        <ele>716.32</ele>
        <time>2017-10-10T10:47:32Z</time>
      </trkpt>
      <trkpt lat="38.1412718631" lon="-2.7873499319">
        <ele>716.32</ele>
        <time>2017-10-10T10:47:39Z</time>
      </trkpt>
      <trkpt lat="38.1412301213" lon="-2.7873191703">
        <ele>716.32</ele>
        <time>2017-10-10T10:47:40Z</time>
      </trkpt>
      <trkpt lat="38.1411919836" lon="-2.7872799430">
        <ele>715.84</ele>
        <time>2017-10-10T10:47:41Z</time>
      </trkpt>
      <trkpt lat="38.1411582883" lon="-2.7872327529">
        <ele>716.32</ele>
        <time>2017-10-10T10:47:42Z</time>
      </trkpt>
      <trkpt lat="38.1411276944" lon="-2.7871843893">
        <ele>715.84</ele>
        <time>2017-10-10T10:47:43Z</time>
      </trkpt>
      <trkpt lat="38.1410995312" lon="-2.7871343493">
        <ele>715.84</ele>
        <time>2017-10-10T10:47:44Z</time>
      </trkpt>
      <trkpt lat="38.1410733797" lon="-2.7870799508">
        <ele>715.84</ele>
        <time>2017-10-10T10:47:45Z</time>
      </trkpt>
      <trkpt lat="38.1409954280" lon="-2.7869022544">
        <ele>715.84</ele>
        <time>2017-10-10T10:47:48Z</time>
      </trkpt>
      <trkpt lat="38.1408044882" lon="-2.7864663117">
        <ele>714.88</ele>
        <time>2017-10-10T10:47:55Z</time>
      </trkpt>
      <trkpt lat="38.1406208407" lon="-2.7859798260">
        <ele>713.92</ele>
        <time>2017-10-10T10:48:02Z</time>
      </trkpt>
      <trkpt lat="38.1405357644" lon="-2.7856505010">
        <ele>712.47</ele>
        <time>2017-10-10T10:48:06Z</time>
      </trkpt>
      <trkpt lat="38.1404785998" lon="-2.7854819410">
        <ele>711.51</ele>
        <time>2017-10-10T10:48:08Z</time>
      </trkpt>
      <trkpt lat="38.1404319964" lon="-2.7854096889">
        <ele>711.03</ele>
        <time>2017-10-10T10:48:09Z</time>
      </trkpt>
      <trkpt lat="38.1403735746" lon="-2.7853510156">
        <ele>711.03</ele>
        <time>2017-10-10T10:48:10Z</time>
      </trkpt>
      <trkpt lat="38.1403079443" lon="-2.7853048313">
        <ele>710.55</ele>
        <time>2017-10-10T10:48:11Z</time>
      </trkpt>
      <trkpt lat="38.1402397994" lon="-2.7852630895">
        <ele>711.51</ele>
        <time>2017-10-10T10:48:12Z</time>
      </trkpt>
      <trkpt lat="38.1397268269" lon="-2.7849493548">
        <ele>708.63</ele>
        <time>2017-10-10T10:48:19Z</time>
      </trkpt>
      <trkpt lat="38.1396453548" lon="-2.7849195991">
        <ele>708.15</ele>
        <time>2017-10-10T10:48:20Z</time>
      </trkpt>
      <trkpt lat="38.1394052971" lon="-2.7848305833">
        <ele>707.67</ele>
        <time>2017-10-10T10:48:23Z</time>
      </trkpt>
      <trkpt lat="38.1393296085" lon="-2.7847769391">
        <ele>706.71</ele>
        <time>2017-10-10T10:48:24Z</time>
      </trkpt>
      <trkpt lat="38.1392606255" lon="-2.7847079560">
        <ele>706.71</ele>
        <time>2017-10-10T10:48:25Z</time>
      </trkpt>
      <trkpt lat="38.1390650757" lon="-2.7844851650">
        <ele>705.75</ele>
        <time>2017-10-10T10:48:28Z</time>
      </trkpt>
      <trkpt lat="38.1389891356" lon="-2.7844337001">
        <ele>705.75</ele>
        <time>2017-10-10T10:48:29Z</time>
      </trkpt>
      <trkpt lat="38.1389058195" lon="-2.7844005916">
        <ele>705.75</ele>
        <time>2017-10-10T10:48:30Z</time>
      </trkpt>
      <trkpt lat="38.1380474288" lon="-2.7842318639">
        <ele>702.38</ele>
        <time>2017-10-10T10:48:40Z</time>
      </trkpt>
      <trkpt lat="38.1375404913" lon="-2.7841172833">
        <ele>699.98</ele>
        <time>2017-10-10T10:48:46Z</time>
      </trkpt>
      <trkpt lat="38.1374592707" lon="-2.7841198817">
        <ele>699.98</ele>
        <time>2017-10-10T10:48:47Z</time>
      </trkpt>
      <trkpt lat="38.1373775471" lon="-2.7841399983">
        <ele>699.50</ele>
        <time>2017-10-10T10:48:48Z</time>
      </trkpt>
      <trkpt lat="38.1372979190" lon="-2.7841726877">
        <ele>699.02</ele>
        <time>2017-10-10T10:48:49Z</time>
      </trkpt>
      <trkpt lat="38.1372208055" lon="-2.7842144296">
        <ele>699.02</ele>
        <time>2017-10-10T10:48:50Z</time>
      </trkpt>
      <trkpt lat="38.1371410936" lon="-2.7842549980">
        <ele>698.53</ele>
        <time>2017-10-10T10:48:51Z</time>
      </trkpt>
      <trkpt lat="38.1370589510" lon="-2.7842848375">
        <ele>698.05</ele>
        <time>2017-10-10T10:48:52Z</time>
      </trkpt>
      <trkpt lat="38.1369746290" lon="-2.7843052894">
        <ele>698.05</ele>
        <time>2017-10-10T10:48:53Z</time>
      </trkpt>
      <trkpt lat="38.1368882954" lon="-2.7843197901">
        <ele>697.57</ele>
        <time>2017-10-10T10:48:54Z</time>
      </trkpt>
      <trkpt lat="38.1361519452" lon="-2.7843533177">
        <ele>696.61</ele>
        <time>2017-10-10T10:49:03Z</time>
      </trkpt>
      <trkpt lat="38.1360768434" lon="-2.7843405772">
        <ele>696.61</ele>
        <time>2017-10-10T10:49:04Z</time>
      </trkpt>
      <trkpt lat="38.1360023282" lon="-2.7843150962">
        <ele>696.13</ele>
        <time>2017-10-10T10:49:05Z</time>
      </trkpt>
      <trkpt lat="38.1359284837" lon="-2.7842753660">
        <ele>696.13</ele>
        <time>2017-10-10T10:49:06Z</time>
      </trkpt>
      <trkpt lat="38.1357054412" lon="-2.7841448598">
        <ele>695.17</ele>
        <time>2017-10-10T10:49:09Z</time>
      </trkpt>
      <trkpt lat="38.1356274057" lon="-2.7841291018">
        <ele>695.17</ele>
        <time>2017-10-10T10:49:10Z</time>
      </trkpt>
      <trkpt lat="38.1355477776" lon="-2.7841377351">
        <ele>694.69</ele>
        <time>2017-10-10T10:49:11Z</time>
      </trkpt>
      <trkpt lat="38.1354740169" lon="-2.7841690835">
        <ele>694.69</ele>
        <time>2017-10-10T10:49:12Z</time>
      </trkpt>
      <trkpt lat="38.1354034413" lon="-2.7842099033">
        <ele>694.69</ele>
        <time>2017-10-10T10:49:13Z</time>
      </trkpt>
      <trkpt lat="38.1352523994" lon="-2.7842841670">
        <ele>694.21</ele>
        <time>2017-10-10T10:49:15Z</time>
      </trkpt>
      <trkpt lat="38.1351712625" lon="-2.7843062952">
        <ele>694.21</ele>
        <time>2017-10-10T10:49:16Z</time>
      </trkpt>
      <trkpt lat="38.1350878626" lon="-2.7843132522">
        <ele>693.73</ele>
        <time>2017-10-10T10:49:17Z</time>
      </trkpt>
      <trkpt lat="38.1350025348" lon="-2.7843097318">
        <ele>693.73</ele>
        <time>2017-10-10T10:49:18Z</time>
      </trkpt>
      <trkpt lat="38.1349215657" lon="-2.7843023557">
        <ele>693.73</ele>
        <time>2017-10-10T10:49:19Z</time>
      </trkpt>
      <trkpt lat="38.1345305499" lon="-2.7842612844">
        <ele>693.25</ele>
        <time>2017-10-10T10:49:24Z</time>
      </trkpt>
      <trkpt lat="38.1344517600" lon="-2.7842478734">
        <ele>693.25</ele>
        <time>2017-10-10T10:49:25Z</time>
      </trkpt>
      <trkpt lat="38.1338984706" lon="-2.7841802314">
        <ele>692.77</ele>
        <time>2017-10-10T10:49:32Z</time>
      </trkpt>
      <trkpt lat="38.1333678123" lon="-2.7840551734">
        <ele>692.29</ele>
        <time>2017-10-10T10:49:39Z</time>
      </trkpt>
      <trkpt lat="38.1332892738" lon="-2.7840588614">
        <ele>691.81</ele>
        <time>2017-10-10T10:49:40Z</time>
      </trkpt>
      <trkpt lat="38.1332104839" lon="-2.7840761282">
        <ele>691.81</ele>
        <time>2017-10-10T10:49:41Z</time>
      </trkpt>
      <trkpt lat="38.1330473721" lon="-2.7841143496">
        <ele>691.81</ele>
        <time>2017-10-10T10:49:43Z</time>
      </trkpt>
      <trkpt lat="38.1325380038" lon="-2.7841759566">
        <ele>691.33</ele>
        <time>2017-10-10T10:49:49Z</time>
      </trkpt>
      <trkpt lat="38.1323115248" lon="-2.7842929680">
        <ele>691.33</ele>
        <time>2017-10-10T10:49:52Z</time>
      </trkpt>
      <trkpt lat="38.1322459783" lon="-2.7843569219">
        <ele>690.84</ele>
        <time>2017-10-10T10:49:53Z</time>
      </trkpt>
      <trkpt lat="38.1321867183" lon="-2.7844322752">
        <ele>690.84</ele>
        <time>2017-10-10T10:49:54Z</time>
      </trkpt>
      <trkpt lat="38.1319455709" lon="-2.7847268991">
        <ele>690.36</ele>
        <time>2017-10-10T10:49:58Z</time>
      </trkpt>
      <trkpt lat="38.1318757497" lon="-2.7847761009">
        <ele>690.36</ele>
        <time>2017-10-10T10:49:59Z</time>
      </trkpt>
      <trkpt lat="38.1318023242" lon="-2.7848170046">
        <ele>690.36</ele>
        <time>2017-10-10T10:50:00Z</time>
      </trkpt>
      <trkpt lat="38.1316496059" lon="-2.7848972194">
        <ele>689.88</ele>
        <time>2017-10-10T10:50:02Z</time>
      </trkpt>
      <trkpt lat="38.1315813772" lon="-2.7849501092">
        <ele>690.36</ele>
        <time>2017-10-10T10:50:03Z</time>
      </trkpt>
      <trkpt lat="38.1315187644" lon="-2.7850143146">
        <ele>690.36</ele>
        <time>2017-10-10T10:50:04Z</time>
      </trkpt>
      <trkpt lat="38.1314602587" lon="-2.7850853931">
        <ele>689.88</ele>
        <time>2017-10-10T10:50:05Z</time>
      </trkpt>
      <trkpt lat="38.1314082071" lon="-2.7851629257">
        <ele>689.88</ele>
        <time>2017-10-10T10:50:06Z</time>
      </trkpt>
      <trkpt lat="38.1313647050" lon="-2.7852448169">
        <ele>689.88</ele>
        <time>2017-10-10T10:50:07Z</time>
      </trkpt>
      <trkpt lat="38.1313232146" lon="-2.7853274625">
        <ele>689.88</ele>
        <time>2017-10-10T10:50:08Z</time>
      </trkpt>
      <trkpt lat="38.1309017725" lon="-2.7859001141">
        <ele>688.92</ele>
        <time>2017-10-10T10:50:16Z</time>
      </trkpt>
      <trkpt lat="38.1301690266" lon="-2.7867112309">
        <ele>687.00</ele>
        <time>2017-10-10T10:50:28Z</time>
      </trkpt>
      <trkpt lat="38.1296884082" lon="-2.7875825297">
        <ele>684.12</ele>
        <time>2017-10-10T10:50:38Z</time>
      </trkpt>
      <trkpt lat="38.1294838898" lon="-2.7880584542">
        <ele>683.15</ele>
        <time>2017-10-10T10:50:43Z</time>
      </trkpt>
      <trkpt lat="38.1294263899" lon="-2.7881347295">
        <ele>683.15</ele>
        <time>2017-10-10T10:50:44Z</time>
      </trkpt>
      <trkpt lat="38.1293677166" lon="-2.7882039640">
        <ele>683.15</ele>
        <time>2017-10-10T10:50:45Z</time>
      </trkpt>
      <trkpt lat="38.1293073669" lon="-2.7882663254">
        <ele>683.15</ele>
        <time>2017-10-10T10:50:46Z</time>
      </trkpt>
      <trkpt lat="38.1292475201" lon="-2.7883251663">
        <ele>682.67</ele>
        <time>2017-10-10T10:50:47Z</time>
      </trkpt>
      <trkpt lat="38.1291295867" lon="-2.7884272579">
        <ele>683.15</ele>
        <time>2017-10-10T10:50:49Z</time>
      </trkpt>
      <trkpt lat="38.1284803245" lon="-2.7887863386">
        <ele>682.67</ele>
        <time>2017-10-10T10:50:59Z</time>
      </trkpt>
      <trkpt lat="38.1282102596" lon="-2.7889455948">
        <ele>682.19</ele>
        <time>2017-10-10T10:51:03Z</time>
      </trkpt>
      <trkpt lat="38.1281517539" lon="-2.7890021726">
        <ele>682.19</ele>
        <time>2017-10-10T10:51:04Z</time>
      </trkpt>
      <trkpt lat="38.1281028036" lon="-2.7890684735">
        <ele>682.19</ele>
        <time>2017-10-10T10:51:05Z</time>
      </trkpt>
      <trkpt lat="38.1280591339" lon="-2.7891388815">
        <ele>681.71</ele>
        <time>2017-10-10T10:51:06Z</time>
      </trkpt>
      <trkpt lat="38.1280173920" lon="-2.7892123908">
        <ele>681.71</ele>
        <time>2017-10-10T10:51:07Z</time>
      </trkpt>
      <trkpt lat="38.1278282963" lon="-2.7895895764">
        <ele>681.23</ele>
        <time>2017-10-10T10:51:12Z</time>
      </trkpt>
      <trkpt lat="38.1278184894" lon="-2.7896844596">
        <ele>681.23</ele>
        <time>2017-10-10T10:51:13Z</time>
      </trkpt>
      <trkpt lat="38.1278264523" lon="-2.7897829469">
        <ele>680.75</ele>
        <time>2017-10-10T10:51:14Z</time>
      </trkpt>
      <trkpt lat="38.1278460659" lon="-2.7898808476">
        <ele>680.75</ele>
        <time>2017-10-10T10:51:15Z</time>
      </trkpt>
      <trkpt lat="38.1278722174" lon="-2.7899728809">
        <ele>680.75</ele>
        <time>2017-10-10T10:51:16Z</time>
      </trkpt>
      <trkpt lat="38.1279015541" lon="-2.7900616452">
        <ele>680.75</ele>
        <time>2017-10-10T10:51:17Z</time>
      </trkpt>
      <trkpt lat="38.1279523484" lon="-2.7902398445">
        <ele>681.23</ele>
        <time>2017-10-10T10:51:19Z</time>
      </trkpt>
      <trkpt lat="38.1279646698" lon="-2.7903286926">
        <ele>681.23</ele>
        <time>2017-10-10T10:51:20Z</time>
      </trkpt>
      <trkpt lat="38.1279658433" lon="-2.7904172055">
        <ele>681.23</ele>
        <time>2017-10-10T10:51:21Z</time>
      </trkpt>
      <trkpt lat="38.1279531866" lon="-2.7905060537">
        <ele>681.23</ele>
        <time>2017-10-10T10:51:22Z</time>
      </trkpt>
      <trkpt lat="38.1279308908" lon="-2.7905926388">
        <ele>681.23</ele>
        <time>2017-10-10T10:51:23Z</time>
      </trkpt>
      <trkpt lat="38.1279011350" lon="-2.7906705067">
        <ele>681.23</ele>
        <time>2017-10-10T10:51:24Z</time>
      </trkpt>
      <trkpt lat="38.1278688647" lon="-2.7907403279">
        <ele>681.71</ele>
        <time>2017-10-10T10:51:25Z</time>
      </trkpt>
      <trkpt lat="38.1278357562" lon="-2.7908059582">
        <ele>682.19</ele>
        <time>2017-10-10T10:51:26Z</time>
      </trkpt>
      <trkpt lat="38.1275696307" lon="-2.7913397178">
        <ele>683.15</ele>
        <time>2017-10-10T10:51:35Z</time>
      </trkpt>
      <trkpt lat="38.1275463291" lon="-2.7913947031">
        <ele>683.15</ele>
        <time>2017-10-10T10:51:36Z</time>
      </trkpt>
      <trkpt lat="38.1273296569" lon="-2.7918832004">
        <ele>684.60</ele>
        <time>2017-10-10T10:51:46Z</time>
      </trkpt>
      <trkpt lat="38.1271269824" lon="-2.7922900580">
        <ele>686.04</ele>
        <time>2017-10-10T10:51:56Z</time>
      </trkpt>
      <trkpt lat="38.1269346178" lon="-2.7926922217">
        <ele>687.00</ele>
        <time>2017-10-10T10:52:06Z</time>
      </trkpt>
      <trkpt lat="38.1266406644" lon="-2.7930932119">
        <ele>687.00</ele>
        <time>2017-10-10T10:52:17Z</time>
      </trkpt>
      <trkpt lat="38.1265559234" lon="-2.7931448445">
        <ele>687.00</ele>
        <time>2017-10-10T10:52:19Z</time>
      </trkpt>
      <trkpt lat="38.1265089009" lon="-2.7931600157">
        <ele>687.00</ele>
        <time>2017-10-10T10:52:20Z</time>
      </trkpt>
      <trkpt lat="38.1264605373" lon="-2.7931643743">
        <ele>687.00</ele>
        <time>2017-10-10T10:52:21Z</time>
      </trkpt>
      <trkpt lat="38.1260332279" lon="-2.7931644581">
        <ele>686.04</ele>
        <time>2017-10-10T10:52:31Z</time>
      </trkpt>
      <trkpt lat="38.1259871274" lon="-2.7931618597">
        <ele>686.04</ele>
        <time>2017-10-10T10:52:32Z</time>
      </trkpt>
      <trkpt lat="38.1258489937" lon="-2.7931546513">
        <ele>685.56</ele>
        <time>2017-10-10T10:52:35Z</time>
      </trkpt>
      <trkpt lat="38.1256891508" lon="-2.7931693196">
        <ele>684.60</ele>
        <time>2017-10-10T10:52:38Z</time>
      </trkpt>
      <trkpt lat="38.1255675294" lon="-2.7931595966">
        <ele>684.12</ele>
        <time>2017-10-10T10:52:40Z</time>
      </trkpt>
      <trkpt lat="38.1255033240" lon="-2.7931654640">
        <ele>683.63</ele>
        <time>2017-10-10T10:52:41Z</time>
      </trkpt>
      <trkpt lat="38.1254371069" lon="-2.7931802999">
        <ele>683.63</ele>
        <time>2017-10-10T10:52:42Z</time>
      </trkpt>
      <trkpt lat="38.1253733207" lon="-2.7932100557">
        <ele>683.15</ele>
        <time>2017-10-10T10:52:43Z</time>
      </trkpt>
      <trkpt lat="38.1253161561" lon="-2.7932568267">
        <ele>682.67</ele>
        <time>2017-10-10T10:52:44Z</time>
      </trkpt>
      <trkpt lat="38.1252682116" lon="-2.7933154162">
        <ele>682.67</ele>
        <time>2017-10-10T10:52:45Z</time>
      </trkpt>
      <trkpt lat="38.1252311636" lon="-2.7933866624">
        <ele>682.67</ele>
        <time>2017-10-10T10:52:46Z</time>
      </trkpt>
      <trkpt lat="38.1252038386" lon="-2.7934613451">
        <ele>682.67</ele>
        <time>2017-10-10T10:52:47Z</time>
      </trkpt>
      <trkpt lat="38.1251852307" lon="-2.7935374528">
        <ele>682.67</ele>
        <time>2017-10-10T10:52:48Z</time>
      </trkpt>
      <trkpt lat="38.1251727417" lon="-2.7936127223">
        <ele>682.67</ele>
        <time>2017-10-10T10:52:49Z</time>
      </trkpt>
      <trkpt lat="38.1251625996" lon="-2.7936871536">
        <ele>682.67</ele>
        <time>2017-10-10T10:52:50Z</time>
      </trkpt>
      <trkpt lat="38.1251535472" lon="-2.7938961983">
        <ele>682.67</ele>
        <time>2017-10-10T10:52:53Z</time>
      </trkpt>
      <trkpt lat="38.1251579057" lon="-2.7939640079">
        <ele>682.67</ele>
        <time>2017-10-10T10:52:54Z</time>
      </trkpt>
      <trkpt lat="38.1251861528" lon="-2.7946550958">
        <ele>683.63</ele>
        <time>2017-10-10T10:53:05Z</time>
      </trkpt>
      <trkpt lat="38.1251878291" lon="-2.7947129309">
        <ele>683.63</ele>
        <time>2017-10-10T10:53:06Z</time>
      </trkpt>
      <trkpt lat="38.1251910981" lon="-2.7947664913">
        <ele>683.63</ele>
        <time>2017-10-10T10:53:07Z</time>
      </trkpt>
      <trkpt lat="38.1252014916" lon="-2.7948209736">
        <ele>683.63</ele>
        <time>2017-10-10T10:53:08Z</time>
      </trkpt>
      <trkpt lat="38.1252137292" lon="-2.7948757075">
        <ele>683.63</ele>
        <time>2017-10-10T10:53:09Z</time>
      </trkpt>
      <trkpt lat="38.1252215244" lon="-2.7949333750">
        <ele>683.63</ele>
        <time>2017-10-10T10:53:10Z</time>
      </trkpt>
      <trkpt lat="38.1252289843" lon="-2.7949905396">
        <ele>683.63</ele>
        <time>2017-10-10T10:53:11Z</time>
      </trkpt>
      <trkpt lat="38.1252775155" lon="-2.7952761948">
        <ele>684.12</ele>
        <time>2017-10-10T10:53:16Z</time>
      </trkpt>
      <trkpt lat="38.1252840534" lon="-2.7953331079">
        <ele>684.12</ele>
        <time>2017-10-10T10:53:17Z</time>
      </trkpt>
      <trkpt lat="38.1252960395" lon="-2.7953881770">
        <ele>684.12</ele>
        <time>2017-10-10T10:53:18Z</time>
      </trkpt>
      <trkpt lat="38.1253083609" lon="-2.7954431623">
        <ele>684.12</ele>
        <time>2017-10-10T10:53:19Z</time>
      </trkpt>
      <trkpt lat="38.1253174972" lon="-2.7954986505">
        <ele>684.12</ele>
        <time>2017-10-10T10:53:20Z</time>
      </trkpt>
      <trkpt lat="38.1254267134" lon="-2.7960522752">
        <ele>685.08</ele>
        <time>2017-10-10T10:53:31Z</time>
      </trkpt>
      <trkpt lat="38.1254220195" lon="-2.7961097751">
        <ele>685.56</ele>
        <time>2017-10-10T10:53:32Z</time>
      </trkpt>
      <trkpt lat="38.1254101172" lon="-2.7961649280">
        <ele>685.56</ele>
        <time>2017-10-10T10:53:33Z</time>
      </trkpt>
      <trkpt lat="38.1253882404" lon="-2.7962127887">
        <ele>685.56</ele>
        <time>2017-10-10T10:53:34Z</time>
      </trkpt>
      <trkpt lat="38.1253631786" lon="-2.7962577157">
        <ele>685.56</ele>
        <time>2017-10-10T10:53:35Z</time>
      </trkpt>
      <trkpt lat="38.1251291558" lon="-2.7963748947">
        <ele>685.56</ele>
        <time>2017-10-10T10:53:42Z</time>
      </trkpt>
      <trkpt lat="38.1250489410" lon="-2.7963441331">
        <ele>685.56</ele>
        <time>2017-10-10T10:53:44Z</time>
      </trkpt>
      <trkpt lat="38.1249693129" lon="-2.7962978650">
        <ele>685.56</ele>
        <time>2017-10-10T10:53:46Z</time>
      </trkpt>
      <trkpt lat="38.1249295827" lon="-2.7962718811">
        <ele>685.56</ele>
        <time>2017-10-10T10:53:47Z</time>
      </trkpt>
      <trkpt lat="38.1248904392" lon="-2.7962422930">
        <ele>685.56</ele>
        <time>2017-10-10T10:53:48Z</time>
      </trkpt>
      <trkpt lat="38.1248515472" lon="-2.7962143812">
        <ele>685.56</ele>
        <time>2017-10-10T10:53:49Z</time>
      </trkpt>
      <trkpt lat="38.1248125713" lon="-2.7961847093">
        <ele>685.56</ele>
        <time>2017-10-10T10:53:50Z</time>
      </trkpt>
      <trkpt lat="38.1246911176" lon="-2.7960900776">
        <ele>685.56</ele>
        <time>2017-10-10T10:53:53Z</time>
      </trkpt>
      <trkpt lat="38.1245606951" lon="-2.7959926799">
        <ele>685.08</ele>
        <time>2017-10-10T10:53:56Z</time>
      </trkpt>
      <trkpt lat="38.1245201267" lon="-2.7959576435">
        <ele>685.08</ele>
        <time>2017-10-10T10:53:57Z</time>
      </trkpt>
      <trkpt lat="38.1242089067" lon="-2.7956799511">
        <ele>684.60</ele>
        <time>2017-10-10T10:54:04Z</time>
      </trkpt>
      <trkpt lat="38.1238587946" lon="-2.7954200283">
        <ele>684.12</ele>
        <time>2017-10-10T10:54:11Z</time>
      </trkpt>
      <trkpt lat="38.1237505004" lon="-2.7953917813">
        <ele>685.08</ele>
        <time>2017-10-10T10:54:13Z</time>
      </trkpt>
      <trkpt lat="38.1236987840" lon="-2.7953939606">
        <ele>684.60</ele>
        <time>2017-10-10T10:54:14Z</time>
      </trkpt>
      <trkpt lat="38.1236452237" lon="-2.7954103891">
        <ele>684.12</ele>
        <time>2017-10-10T10:54:15Z</time>
      </trkpt>
      <trkpt lat="38.1235910766" lon="-2.7954439167">
        <ele>684.12</ele>
        <time>2017-10-10T10:54:16Z</time>
      </trkpt>
      <trkpt lat="38.1235430483" lon="-2.7954913583">
        <ele>683.63</ele>
        <time>2017-10-10T10:54:17Z</time>
      </trkpt>
      <trkpt lat="38.1235028990" lon="-2.7955512889">
        <ele>683.63</ele>
        <time>2017-10-10T10:54:18Z</time>
      </trkpt>
      <trkpt lat="38.1234694552" lon="-2.7956160810">
        <ele>683.63</ele>
        <time>2017-10-10T10:54:19Z</time>
      </trkpt>
      <trkpt lat="38.1234422978" lon="-2.7956827171">
        <ele>683.63</ele>
        <time>2017-10-10T10:54:20Z</time>
      </trkpt>
      <trkpt lat="38.1234176550" lon="-2.7957503591">
        <ele>683.63</ele>
        <time>2017-10-10T10:54:21Z</time>
      </trkpt>
      <trkpt lat="38.1233967841" lon="-2.7958179172">
        <ele>683.63</ele>
        <time>2017-10-10T10:54:22Z</time>
      </trkpt>
      <trkpt lat="38.1233765837" lon="-2.7958851401">
        <ele>682.19</ele>
        <time>2017-10-10T10:54:23Z</time>
      </trkpt>
      <trkpt lat="38.1233533658" lon="-2.7959529497">
        <ele>682.19</ele>
        <time>2017-10-10T10:54:24Z</time>
      </trkpt>
      <trkpt lat="38.1232562196" lon="-2.7962029818">
        <ele>683.63</ele>
        <time>2017-10-10T10:54:28Z</time>
      </trkpt>
      <trkpt lat="38.1232249551" lon="-2.7962606493">
        <ele>682.67</ele>
        <time>2017-10-10T10:54:29Z</time>
      </trkpt>
      <trkpt lat="38.1231451593" lon="-2.7964298800">
        <ele>684.60</ele>
        <time>2017-10-10T10:54:32Z</time>
      </trkpt>
      <trkpt lat="38.1230877433" lon="-2.7965531778">
        <ele>683.63</ele>
        <time>2017-10-10T10:54:34Z</time>
      </trkpt>
      <trkpt lat="38.1230520364" lon="-2.7966111805">
        <ele>683.15</ele>
        <time>2017-10-10T10:54:35Z</time>
      </trkpt>
      <trkpt lat="38.1229827181" lon="-2.7967219893">
        <ele>683.15</ele>
        <time>2017-10-10T10:54:37Z</time>
      </trkpt>
      <trkpt lat="38.1229203567" lon="-2.7968424372">
        <ele>683.15</ele>
        <time>2017-10-10T10:54:39Z</time>
      </trkpt>
      <trkpt lat="38.1228922773" lon="-2.7969031222">
        <ele>683.15</ele>
        <time>2017-10-10T10:54:40Z</time>
      </trkpt>
      <trkpt lat="38.1226730067" lon="-2.7972953115">
        <ele>682.19</ele>
        <time>2017-10-10T10:54:47Z</time>
      </trkpt>
      <trkpt lat="38.1226445921" lon="-2.7973485366">
        <ele>682.19</ele>
        <time>2017-10-10T10:54:48Z</time>
      </trkpt>
      <trkpt lat="38.1223662291" lon="-2.7979356050">
        <ele>681.23</ele>
        <time>2017-10-10T10:54:58Z</time>
      </trkpt>
      <trkpt lat="38.1223556679" lon="-2.7980049234">
        <ele>680.75</ele>
        <time>2017-10-10T10:54:59Z</time>
      </trkpt>
      <trkpt lat="38.1223559193" lon="-2.7980725653">
        <ele>680.75</ele>
        <time>2017-10-10T10:55:00Z</time>
      </trkpt>
      <trkpt lat="38.1223716773" lon="-2.7981385309">
        <ele>680.75</ele>
        <time>2017-10-10T10:55:01Z</time>
      </trkpt>
      <trkpt lat="38.1224006787" lon="-2.7981950250">
        <ele>680.75</ele>
        <time>2017-10-10T10:55:02Z</time>
      </trkpt>
      <trkpt lat="38.1224364694" lon="-2.7982433047">
        <ele>681.23</ele>
        <time>2017-10-10T10:55:03Z</time>
      </trkpt>
      <trkpt lat="38.1224733498" lon="-2.7982882317">
        <ele>681.23</ele>
        <time>2017-10-10T10:55:04Z</time>
      </trkpt>
      <trkpt lat="38.1225118227" lon="-2.7983272076">
        <ele>681.23</ele>
        <time>2017-10-10T10:55:05Z</time>
      </trkpt>
      <trkpt lat="38.1225499604" lon="-2.7983601484">
        <ele>681.23</ele>
        <time>2017-10-10T10:55:06Z</time>
      </trkpt>
      <trkpt lat="38.1225850806" lon="-2.7983915806">
        <ele>681.23</ele>
        <time>2017-10-10T10:55:07Z</time>
      </trkpt>
      <trkpt lat="38.1226192787" lon="-2.7984232642">
        <ele>681.23</ele>
        <time>2017-10-10T10:55:08Z</time>
      </trkpt>
      <trkpt lat="38.1226554886" lon="-2.7984556183">
        <ele>681.23</ele>
        <time>2017-10-10T10:55:09Z</time>
      </trkpt>
      <trkpt lat="38.1227289140" lon="-2.7985235956">
        <ele>681.71</ele>
        <time>2017-10-10T10:55:11Z</time>
      </trkpt>
      <trkpt lat="38.1228330173" lon="-2.7986217476">
        <ele>682.19</ele>
        <time>2017-10-10T10:55:14Z</time>
      </trkpt>
      <trkpt lat="38.1229074486" lon="-2.7986815106">
        <ele>682.19</ele>
        <time>2017-10-10T10:55:16Z</time>
      </trkpt>
      <trkpt lat="38.1231843866" lon="-2.7989783138">
        <ele>683.15</ele>
        <time>2017-10-10T10:55:24Z</time>
      </trkpt>
      <trkpt lat="38.1232536212" lon="-2.7990453690">
        <ele>683.63</ele>
        <time>2017-10-10T10:55:26Z</time>
      </trkpt>
      <trkpt lat="38.1235596444" lon="-2.7994674817">
        <ele>685.08</ele>
        <time>2017-10-10T10:55:38Z</time>
      </trkpt>
      <trkpt lat="38.1236096844" lon="-2.7998331003">
        <ele>685.56</ele>
        <time>2017-10-10T10:55:46Z</time>
      </trkpt>
      <trkpt lat="38.1235946808" lon="-2.7998810448">
        <ele>685.56</ele>
        <time>2017-10-10T10:55:47Z</time>
      </trkpt>
      <trkpt lat="38.1235707924" lon="-2.7999242116">
        <ele>685.08</ele>
        <time>2017-10-10T10:55:48Z</time>
      </trkpt>
      <trkpt lat="38.1235404499" lon="-2.7999612596">
        <ele>685.08</ele>
        <time>2017-10-10T10:55:49Z</time>
      </trkpt>
      <trkpt lat="38.1235044915" lon="-2.7999936976">
        <ele>685.08</ele>
        <time>2017-10-10T10:55:50Z</time>
      </trkpt>
      <trkpt lat="38.1234650966" lon="-2.8000211064">
        <ele>685.08</ele>
        <time>2017-10-10T10:55:51Z</time>
      </trkpt>
      <trkpt lat="38.1234234385" lon="-2.8000456654">
        <ele>684.60</ele>
        <time>2017-10-10T10:55:52Z</time>
      </trkpt>
      <trkpt lat="38.1233846303" lon="-2.8000738285">
        <ele>685.08</ele>
        <time>2017-10-10T10:55:53Z</time>
      </trkpt>
      <trkpt lat="38.1233454030" lon="-2.8001037519">
        <ele>684.60</ele>
        <time>2017-10-10T10:55:54Z</time>
      </trkpt>
      <trkpt lat="38.1232674513" lon="-2.8001662809">
        <ele>684.12</ele>
        <time>2017-10-10T10:55:56Z</time>
      </trkpt>
      <trkpt lat="38.1231176667" lon="-2.8003545385">
        <ele>683.63</ele>
        <time>2017-10-10T10:56:00Z</time>
      </trkpt>
      <trkpt lat="38.1227481924" lon="-2.8010198940">
        <ele>680.27</ele>
        <time>2017-10-10T10:56:09Z</time>
      </trkpt>
      <trkpt lat="38.1224581786" lon="-2.8016181104">
        <ele>678.35</ele>
        <time>2017-10-10T10:56:16Z</time>
      </trkpt>
      <trkpt lat="38.1223632954" lon="-2.8020158317">
        <ele>677.87</ele>
        <time>2017-10-10T10:56:20Z</time>
      </trkpt>
      <trkpt lat="38.1222534087" lon="-2.8029363323">
        <ele>677.39</ele>
        <time>2017-10-10T10:56:30Z</time>
      </trkpt>
      <trkpt lat="38.1221885327" lon="-2.8035876900">
        <ele>677.39</ele>
        <time>2017-10-10T10:56:38Z</time>
      </trkpt>
      <trkpt lat="38.1221861858" lon="-2.8038077150">
        <ele>677.39</ele>
        <time>2017-10-10T10:56:41Z</time>
      </trkpt>
      <trkpt lat="38.1221647281" lon="-2.8040063661">
        <ele>677.87</ele>
        <time>2017-10-10T10:56:44Z</time>
      </trkpt>
      <trkpt lat="38.1221441086" lon="-2.8040642012">
        <ele>678.35</ele>
        <time>2017-10-10T10:56:45Z</time>
      </trkpt>
      <trkpt lat="38.1221190467" lon="-2.8041159175">
        <ele>678.35</ele>
        <time>2017-10-10T10:56:46Z</time>
      </trkpt>
      <trkpt lat="38.1220896263" lon="-2.8041641973">
        <ele>678.35</ele>
        <time>2017-10-10T10:56:47Z</time>
      </trkpt>
      <trkpt lat="38.1220592838" lon="-2.8042031731">
        <ele>678.35</ele>
        <time>2017-10-10T10:56:48Z</time>
      </trkpt>
      <trkpt lat="38.1220271811" lon="-2.8042345215">
        <ele>678.83</ele>
        <time>2017-10-10T10:56:49Z</time>
      </trkpt>
      <trkpt lat="38.1219952460" lon="-2.8042596672">
        <ele>678.83</ele>
        <time>2017-10-10T10:56:50Z</time>
      </trkpt>
      <trkpt lat="38.1216743030" lon="-2.8045216016">
        <ele>680.75</ele>
        <time>2017-10-10T10:57:01Z</time>
      </trkpt>
      <trkpt lat="38.1215107720" lon="-2.8048287984">
        <ele>682.19</ele>
        <time>2017-10-10T10:57:10Z</time>
      </trkpt>
      <trkpt lat="38.1214650907" lon="-2.8051489033">
        <ele>683.15</ele>
        <time>2017-10-10T10:57:18Z</time>
      </trkpt>
      <trkpt lat="38.1214077584" lon="-2.8054980095">
        <ele>684.60</ele>
        <time>2017-10-10T10:57:28Z</time>
      </trkpt>
      <trkpt lat="38.1213453971" lon="-2.8058823198">
        <ele>685.56</ele>
        <time>2017-10-10T10:57:40Z</time>
      </trkpt>
      <trkpt lat="38.1212851312" lon="-2.8061408177">
        <ele>687.00</ele>
        <time>2017-10-10T10:57:49Z</time>
      </trkpt>
      <trkpt lat="38.1212707981" lon="-2.8061601799">
        <ele>687.00</ele>
        <time>2017-10-10T10:57:50Z</time>
      </trkpt>
      <trkpt lat="38.1212098617" lon="-2.8062507883">
        <ele>687.00</ele>
        <time>2017-10-10T10:57:54Z</time>
      </trkpt>
      <trkpt lat="38.1210730691" lon="-2.8065017425">
        <ele>687.96</ele>
        <time>2017-10-10T10:58:03Z</time>
      </trkpt>
      <trkpt lat="38.1208201870" lon="-2.8066252079">
        <ele>689.88</ele>
        <time>2017-10-10T10:58:13Z</time>
      </trkpt>
      <trkpt lat="38.1206439156" lon="-2.8065775149">
        <ele>689.40</ele>
        <time>2017-10-10T10:58:19Z</time>
      </trkpt>
      <trkpt lat="38.1204264052" lon="-2.8063778579">
        <ele>689.88</ele>
        <time>2017-10-10T10:58:28Z</time>
      </trkpt>
      <trkpt lat="38.1202512234" lon="-2.8060802165">
        <ele>690.36</ele>
        <time>2017-10-10T10:58:37Z</time>
      </trkpt>
      <trkpt lat="38.1200565118" lon="-2.8057190403">
        <ele>691.33</ele>
        <time>2017-10-10T10:58:47Z</time>
      </trkpt>
      <trkpt lat="38.1198416837" lon="-2.8052979335">
        <ele>692.29</ele>
        <time>2017-10-10T10:58:58Z</time>
      </trkpt>
      <trkpt lat="38.1196149532" lon="-2.8048995417">
        <ele>692.77</ele>
        <time>2017-10-10T10:59:09Z</time>
      </trkpt>
      <trkpt lat="38.1193596404" lon="-2.8048597276">
        <ele>692.77</ele>
        <time>2017-10-10T10:59:17Z</time>
      </trkpt>
      <trkpt lat="38.1193251908" lon="-2.8048930038">
        <ele>692.77</ele>
        <time>2017-10-10T10:59:18Z</time>
      </trkpt>
      <trkpt lat="38.1190737337" lon="-2.8052516654">
        <ele>692.77</ele>
        <time>2017-10-10T10:59:27Z</time>
      </trkpt>
      <trkpt lat="38.1188784353" lon="-2.8055026196">
        <ele>692.77</ele>
        <time>2017-10-10T10:59:33Z</time>
      </trkpt>
      <trkpt lat="38.1188376993" lon="-2.8055353090">
        <ele>692.77</ele>
        <time>2017-10-10T10:59:34Z</time>
      </trkpt>
      <trkpt lat="38.1187980529" lon="-2.8055716865">
        <ele>692.77</ele>
        <time>2017-10-10T10:59:35Z</time>
      </trkpt>
      <trkpt lat="38.1185702328" lon="-2.8058311064">
        <ele>692.77</ele>
        <time>2017-10-10T10:59:41Z</time>
      </trkpt>
      <trkpt lat="38.1185419858" lon="-2.8058810625">
        <ele>692.77</ele>
        <time>2017-10-10T10:59:42Z</time>
      </trkpt>
      <trkpt lat="38.1185201090" lon="-2.8059338685">
        <ele>692.77</ele>
        <time>2017-10-10T10:59:43Z</time>
      </trkpt>
      <trkpt lat="38.1185039319" lon="-2.8059892729">
        <ele>693.25</ele>
        <time>2017-10-10T10:59:44Z</time>
      </trkpt>
      <trkpt lat="38.1184931193" lon="-2.8060435038">
        <ele>693.25</ele>
        <time>2017-10-10T10:59:45Z</time>
      </trkpt>
      <trkpt lat="38.1183656305" lon="-2.8065446578">
        <ele>694.69</ele>
        <time>2017-10-10T10:59:56Z</time>
      </trkpt>
      <trkpt lat="38.1181524787" lon="-2.8067013156">
        <ele>695.17</ele>
        <time>2017-10-10T11:00:03Z</time>
      </trkpt>
      <trkpt lat="38.1178293563" lon="-2.8066542931">
        <ele>695.17</ele>
        <time>2017-10-10T11:00:12Z</time>
      </trkpt>
      <trkpt lat="38.1176413503" lon="-2.8064272273">
        <ele>694.69</ele>
        <time>2017-10-10T11:00:20Z</time>
      </trkpt>
      <trkpt lat="38.1175985187" lon="-2.8063346911">
        <ele>694.69</ele>
        <time>2017-10-10T11:00:22Z</time>
      </trkpt>
      <trkpt lat="38.1175856944" lon="-2.8062821366">
        <ele>694.21</ele>
        <time>2017-10-10T11:00:23Z</time>
      </trkpt>
      <trkpt lat="38.1175655778" lon="-2.8061741777">
        <ele>694.21</ele>
        <time>2017-10-10T11:00:25Z</time>
      </trkpt>
      <trkpt lat="38.1175593752" lon="-2.8061158396">
        <ele>694.21</ele>
        <time>2017-10-10T11:00:26Z</time>
      </trkpt>
      <trkpt lat="38.1175576989" lon="-2.8060523048">
        <ele>693.73</ele>
        <time>2017-10-10T11:00:27Z</time>
      </trkpt>
      <trkpt lat="38.1175552681" lon="-2.8059857525">
        <ele>693.73</ele>
        <time>2017-10-10T11:00:28Z</time>
      </trkpt>
      <trkpt lat="38.1175485626" lon="-2.8059155960">
        <ele>693.25</ele>
        <time>2017-10-10T11:00:29Z</time>
      </trkpt>
      <trkpt lat="38.1175114308" lon="-2.8056993429">
        <ele>692.77</ele>
        <time>2017-10-10T11:00:32Z</time>
      </trkpt>
      <trkpt lat="38.1174877100" lon="-2.8056272585">
        <ele>692.29</ele>
        <time>2017-10-10T11:00:33Z</time>
      </trkpt>
      <trkpt lat="38.1174624804" lon="-2.8055520728">
        <ele>691.81</ele>
        <time>2017-10-10T11:00:34Z</time>
      </trkpt>
      <trkpt lat="38.1174411066" lon="-2.8054707684">
        <ele>691.81</ele>
        <time>2017-10-10T11:00:35Z</time>
      </trkpt>
      <trkpt lat="38.1174204033" lon="-2.8053870331">
        <ele>691.33</ele>
        <time>2017-10-10T11:00:36Z</time>
      </trkpt>
      <trkpt lat="38.1173968501" lon="-2.8053050581">
        <ele>690.84</ele>
        <time>2017-10-10T11:00:37Z</time>
      </trkpt>
      <trkpt lat="38.1173476484" lon="-2.8051392641">
        <ele>689.88</ele>
        <time>2017-10-10T11:00:39Z</time>
      </trkpt>
      <trkpt lat="38.1173285376" lon="-2.8050528467">
        <ele>689.88</ele>
        <time>2017-10-10T11:00:40Z</time>
      </trkpt>
      <trkpt lat="38.1173204072" lon="-2.8049630765">
        <ele>689.40</ele>
        <time>2017-10-10T11:00:41Z</time>
      </trkpt>
      <trkpt lat="38.1173471455" lon="-2.8044651914">
        <ele>687.00</ele>
        <time>2017-10-10T11:00:46Z</time>
      </trkpt>
      <trkpt lat="38.1173723750" lon="-2.8042583261">
        <ele>686.04</ele>
        <time>2017-10-10T11:00:48Z</time>
      </trkpt>
      <trkpt lat="38.1173887197" lon="-2.8041490261">
        <ele>686.04</ele>
        <time>2017-10-10T11:00:49Z</time>
      </trkpt>
      <trkpt lat="38.1174927391" lon="-2.8033589479">
        <ele>682.67</ele>
        <time>2017-10-10T11:00:56Z</time>
      </trkpt>
      <trkpt lat="38.1175368279" lon="-2.8025428858">
        <ele>680.27</ele>
        <time>2017-10-10T11:01:03Z</time>
      </trkpt>
      <trkpt lat="38.1175349001" lon="-2.8024247009">
        <ele>679.79</ele>
        <time>2017-10-10T11:01:04Z</time>
      </trkpt>
      <trkpt lat="38.1174522545" lon="-2.8014912084">
        <ele>676.91</ele>
        <time>2017-10-10T11:01:12Z</time>
      </trkpt>
      <trkpt lat="38.1173366681" lon="-2.8009466361">
        <ele>674.98</ele>
        <time>2017-10-10T11:01:17Z</time>
      </trkpt>
      <trkpt lat="38.1172845326" lon="-2.8008549381">
        <ele>674.98</ele>
        <time>2017-10-10T11:01:18Z</time>
      </trkpt>
      <trkpt lat="38.1172204111" lon="-2.8007724602">
        <ele>674.02</ele>
        <time>2017-10-10T11:01:19Z</time>
      </trkpt>
      <trkpt lat="38.1170783378" lon="-2.8006161377">
        <ele>673.54</ele>
        <time>2017-10-10T11:01:21Z</time>
      </trkpt>
      <trkpt lat="38.1170005538" lon="-2.8005519323">
        <ele>673.06</ele>
        <time>2017-10-10T11:01:22Z</time>
      </trkpt>
      <trkpt lat="38.1169180758" lon="-2.8005046584">
        <ele>672.58</ele>
        <time>2017-10-10T11:01:23Z</time>
      </trkpt>
      <trkpt lat="38.1168314070" lon="-2.8004716337">
        <ele>672.10</ele>
        <time>2017-10-10T11:01:24Z</time>
      </trkpt>
      <trkpt lat="38.1167389546" lon="-2.8004514333">
        <ele>672.58</ele>
        <time>2017-10-10T11:01:25Z</time>
      </trkpt>
      <trkpt lat="38.1166460831" lon="-2.8004510142">
        <ele>672.10</ele>
        <time>2017-10-10T11:01:26Z</time>
      </trkpt>
      <trkpt lat="38.1165589113" lon="-2.8004751541">
        <ele>672.10</ele>
        <time>2017-10-10T11:01:27Z</time>
      </trkpt>
      <trkpt lat="38.1164819654" lon="-2.8005229309">
        <ele>672.10</ele>
        <time>2017-10-10T11:01:28Z</time>
      </trkpt>
      <trkpt lat="38.1164131500" lon="-2.8005821910">
        <ele>672.10</ele>
        <time>2017-10-10T11:01:29Z</time>
      </trkpt>
      <trkpt lat="38.1159637123" lon="-2.8010461293">
        <ele>672.10</ele>
        <time>2017-10-10T11:01:37Z</time>
      </trkpt>
      <trkpt lat="38.1159199588" lon="-2.8011075687">
        <ele>672.10</ele>
        <time>2017-10-10T11:01:38Z</time>
      </trkpt>
      <trkpt lat="38.1158876047" lon="-2.8011735342">
        <ele>672.10</ele>
        <time>2017-10-10T11:01:39Z</time>
      </trkpt>
      <trkpt lat="38.1158673204" lon="-2.8012452833">
        <ele>672.58</ele>
        <time>2017-10-10T11:01:40Z</time>
      </trkpt>
      <trkpt lat="38.1158555020" lon="-2.8013166133">
        <ele>672.58</ele>
        <time>2017-10-10T11:01:41Z</time>
      </trkpt>
      <trkpt lat="38.1158466171" lon="-2.8013870213">
        <ele>672.58</ele>
        <time>2017-10-10T11:01:42Z</time>
      </trkpt>
      <trkpt lat="38.1158415042" lon="-2.8014577646">
        <ele>672.58</ele>
        <time>2017-10-10T11:01:43Z</time>
      </trkpt>
      <trkpt lat="38.1158316135" lon="-2.8015966527">
        <ele>672.10</ele>
        <time>2017-10-10T11:01:45Z</time>
      </trkpt>
      <trkpt lat="38.1158104073" lon="-2.8017268237">
        <ele>672.58</ele>
        <time>2017-10-10T11:01:47Z</time>
      </trkpt>
      <trkpt lat="38.1156472955" lon="-2.8021284845">
        <ele>673.06</ele>
        <time>2017-10-10T11:01:56Z</time>
      </trkpt>
      <trkpt lat="38.1154603790" lon="-2.8024768364">
        <ele>673.06</ele>
        <time>2017-10-10T11:02:05Z</time>
      </trkpt>
      <trkpt lat="38.1151313055" lon="-2.8030429501">
        <ele>673.06</ele>
        <time>2017-10-10T11:02:17Z</time>
      </trkpt>
      <trkpt lat="38.1148168165" lon="-2.8033027053">
        <ele>673.06</ele>
        <time>2017-10-10T11:02:24Z</time>
      </trkpt>
      <trkpt lat="38.1144577358" lon="-2.8034866881">
        <ele>673.06</ele>
        <time>2017-10-10T11:02:31Z</time>
      </trkpt>
      <trkpt lat="38.1143548060" lon="-2.8035329562">
        <ele>673.06</ele>
        <time>2017-10-10T11:02:33Z</time>
      </trkpt>
      <trkpt lat="38.1138246506" lon="-2.8038404044">
        <ele>674.02</ele>
        <time>2017-10-10T11:02:44Z</time>
      </trkpt>
      <trkpt lat="38.1137857586" lon="-2.8038766980">
        <ele>674.02</ele>
        <time>2017-10-10T11:02:45Z</time>
      </trkpt>
      <trkpt lat="38.1133505702" lon="-2.8043471742">
        <ele>674.50</ele>
        <time>2017-10-10T11:02:55Z</time>
      </trkpt>
      <trkpt lat="38.1129976921" lon="-2.8046687879">
        <ele>675.46</ele>
        <time>2017-10-10T11:03:03Z</time>
      </trkpt>
      <trkpt lat="38.1129447185" lon="-2.8046931792">
        <ele>675.46</ele>
        <time>2017-10-10T11:03:04Z</time>
      </trkpt>
      <trkpt lat="38.1128891464" lon="-2.8047099430">
        <ele>675.46</ele>
        <time>2017-10-10T11:03:05Z</time>
      </trkpt>
      <trkpt lat="38.1128322333" lon="-2.8047234379">
        <ele>675.46</ele>
        <time>2017-10-10T11:03:06Z</time>
      </trkpt>
      <trkpt lat="38.1127743982" lon="-2.8047280479">
        <ele>675.46</ele>
        <time>2017-10-10T11:03:07Z</time>
      </trkpt>
      <trkpt lat="38.1127153896" lon="-2.8047251143">
        <ele>675.46</ele>
        <time>2017-10-10T11:03:08Z</time>
      </trkpt>
      <trkpt lat="38.1126593146" lon="-2.8047148045">
        <ele>675.46</ele>
        <time>2017-10-10T11:03:09Z</time>
      </trkpt>
      <trkpt lat="38.1126038264" lon="-2.8047005553">
        <ele>675.46</ele>
        <time>2017-10-10T11:03:10Z</time>
      </trkpt>
      <trkpt lat="38.1119953841" lon="-2.8044604976">
        <ele>674.98</ele>
        <time>2017-10-10T11:03:21Z</time>
      </trkpt>
      <trkpt lat="38.1118857488" lon="-2.8044107091">
        <ele>674.50</ele>
        <time>2017-10-10T11:03:23Z</time>
      </trkpt>
      <trkpt lat="38.1115969922" lon="-2.8043110482">
        <ele>674.50</ele>
        <time>2017-10-10T11:03:28Z</time>
      </trkpt>
      <trkpt lat="38.1115373969" lon="-2.8043061029">
        <ele>674.50</ele>
        <time>2017-10-10T11:03:29Z</time>
      </trkpt>
      <trkpt lat="38.1108607259" lon="-2.8043798637">
        <ele>674.50</ele>
        <time>2017-10-10T11:03:40Z</time>
      </trkpt>
      <trkpt lat="38.1106775813" lon="-2.8044228628">
        <ele>674.50</ele>
        <time>2017-10-10T11:03:43Z</time>
      </trkpt>
      <trkpt lat="38.1106187403" lon="-2.8044530377">
        <ele>674.50</ele>
        <time>2017-10-10T11:03:44Z</time>
      </trkpt>
      <trkpt lat="38.1105677783" lon="-2.8044946957">
        <ele>674.50</ele>
        <time>2017-10-10T11:03:45Z</time>
      </trkpt>
      <trkpt lat="38.1105235219" lon="-2.8045473341">
        <ele>674.50</ele>
        <time>2017-10-10T11:03:46Z</time>
      </trkpt>
      <trkpt lat="38.1104846299" lon="-2.8046066780">
        <ele>674.50</ele>
        <time>2017-10-10T11:03:47Z</time>
      </trkpt>
      <trkpt lat="38.1104511023" lon="-2.8046695422">
        <ele>674.50</ele>
        <time>2017-10-10T11:03:48Z</time>
      </trkpt>
      <trkpt lat="38.1104210950" lon="-2.8047350049">
        <ele>674.50</ele>
        <time>2017-10-10T11:03:49Z</time>
      </trkpt>
      <trkpt lat="38.1103950273" lon="-2.8048075922">
        <ele>674.50</ele>
        <time>2017-10-10T11:03:50Z</time>
      </trkpt>
      <trkpt lat="38.1102175824" lon="-2.8052475583">
        <ele>674.50</ele>
        <time>2017-10-10T11:03:56Z</time>
      </trkpt>
      <trkpt lat="38.1101766787" lon="-2.8053001128">
        <ele>674.50</ele>
        <time>2017-10-10T11:03:57Z</time>
      </trkpt>
      <trkpt lat="38.1101287343" lon="-2.8053407650">
        <ele>674.98</ele>
        <time>2017-10-10T11:03:58Z</time>
      </trkpt>
      <trkpt lat="38.1100766826" lon="-2.8053737897">
        <ele>674.98</ele>
        <time>2017-10-10T11:03:59Z</time>
      </trkpt>
      <trkpt lat="38.1100211106" lon="-2.8054007795">
        <ele>674.98</ele>
        <time>2017-10-10T11:04:00Z</time>
      </trkpt>
      <trkpt lat="38.1099661253" lon="-2.8054226562">
        <ele>674.98</ele>
        <time>2017-10-10T11:04:01Z</time>
      </trkpt>
      <trkpt lat="38.1097243074" lon="-2.8055471275">
        <ele>676.42</ele>
        <time>2017-10-10T11:04:06Z</time>
      </trkpt>
      <trkpt lat="38.1096837390" lon="-2.8055854328">
        <ele>676.91</ele>
        <time>2017-10-10T11:04:07Z</time>
      </trkpt>
      <trkpt lat="38.1096100621" lon="-2.8056752030">
        <ele>677.39</ele>
        <time>2017-10-10T11:04:09Z</time>
      </trkpt>
      <trkpt lat="38.1095580943" lon="-2.8057760373">
        <ele>677.87</ele>
        <time>2017-10-10T11:04:11Z</time>
      </trkpt>
      <trkpt lat="38.1095373072" lon="-2.8058240656">
        <ele>677.87</ele>
        <time>2017-10-10T11:04:12Z</time>
      </trkpt>
      <trkpt lat="38.1093431823" lon="-2.8062090464">
        <ele>679.79</ele>
        <time>2017-10-10T11:04:23Z</time>
      </trkpt>
      <trkpt lat="38.1091323774" lon="-2.8064087033">
        <ele>681.23</ele>
        <time>2017-10-10T11:04:34Z</time>
      </trkpt>
      <trkpt lat="38.1088357419" lon="-2.8065796103">
        <ele>683.15</ele>
        <time>2017-10-10T11:04:46Z</time>
      </trkpt>
      <trkpt lat="38.1085242704" lon="-2.8067609947">
        <ele>685.56</ele>
        <time>2017-10-10T11:04:59Z</time>
      </trkpt>
      <trkpt lat="38.1082783453" lon="-2.8068930935">
        <ele>686.52</ele>
        <time>2017-10-10T11:05:09Z</time>
      </trkpt>
      <trkpt lat="38.1079977192" lon="-2.8069101926">
        <ele>688.44</ele>
        <time>2017-10-10T11:05:20Z</time>
      </trkpt>
      <trkpt lat="38.1077439990" lon="-2.8068425506">
        <ele>690.84</ele>
        <time>2017-10-10T11:05:30Z</time>
      </trkpt>
      <trkpt lat="38.1077093817" lon="-2.8068338335">
        <ele>688.92</ele>
        <time>2017-10-10T11:05:32Z</time>
      </trkpt>
      <trkpt lat="38.1076883432" lon="-2.8068227693">
        <ele>690.36</ele>
        <time>2017-10-10T11:05:33Z</time>
      </trkpt>
      <trkpt lat="38.1076652929" lon="-2.8068129625">
        <ele>689.40</ele>
        <time>2017-10-10T11:05:34Z</time>
      </trkpt>
      <trkpt lat="38.1076400634" lon="-2.8068043292">
        <ele>687.96</ele>
        <time>2017-10-10T11:05:35Z</time>
      </trkpt>
      <trkpt lat="38.1076167617" lon="-2.8067939356">
        <ele>690.36</ele>
        <time>2017-10-10T11:05:36Z</time>
      </trkpt>
      <trkpt lat="38.1075932086" lon="-2.8067882359">
        <ele>690.36</ele>
        <time>2017-10-10T11:05:37Z</time>
      </trkpt>
      <trkpt lat="38.1075739302" lon="-2.8067910857">
        <ele>690.36</ele>
        <time>2017-10-10T11:05:38Z</time>
      </trkpt>
      <trkpt lat="38.1075533107" lon="-2.8067907505">
        <ele>687.00</ele>
        <time>2017-10-10T11:05:39Z</time>
      </trkpt>
      <trkpt lat="38.1075323559" lon="-2.8067885712">
        <ele>690.36</ele>
        <time>2017-10-10T11:05:40Z</time>
      </trkpt>
      <trkpt lat="38.1074178591" lon="-2.8067705501">
        <ele>690.84</ele>
        <time>2017-10-10T11:05:44Z</time>
      </trkpt>
      <trkpt lat="38.1070387457" lon="-2.8068868909">
        <ele>690.84</ele>
        <time>2017-10-10T11:05:55Z</time>
      </trkpt>
      <trkpt lat="38.1068170443" lon="-2.8072282020">
        <ele>691.81</ele>
        <time>2017-10-10T11:06:05Z</time>
      </trkpt>
      <trkpt lat="38.1065453030" lon="-2.8075177129">
        <ele>692.77</ele>
        <time>2017-10-10T11:06:14Z</time>
      </trkpt>
      <trkpt lat="38.1065080035" lon="-2.8075552639">
        <ele>691.81</ele>
        <time>2017-10-10T11:06:15Z</time>
      </trkpt>
      <trkpt lat="38.1064676028" lon="-2.8075918928">
        <ele>691.81</ele>
        <time>2017-10-10T11:06:16Z</time>
      </trkpt>
      <trkpt lat="38.1064245198" lon="-2.8076282702">
        <ele>691.81</ele>
        <time>2017-10-10T11:06:17Z</time>
      </trkpt>
      <trkpt lat="38.1063824426" lon="-2.8076665755">
        <ele>691.33</ele>
        <time>2017-10-10T11:06:18Z</time>
      </trkpt>
      <trkpt lat="38.1058749184" lon="-2.8080077190">
        <ele>689.88</ele>
        <time>2017-10-10T11:06:28Z</time>
      </trkpt>
      <trkpt lat="38.1052677333" lon="-2.8083752654">
        <ele>687.00</ele>
        <time>2017-10-10T11:06:38Z</time>
      </trkpt>
      <trkpt lat="38.1048781425" lon="-2.8085641097">
        <ele>686.04</ele>
        <time>2017-10-10T11:06:44Z</time>
      </trkpt>
      <trkpt lat="38.1048254203" lon="-2.8086088691">
        <ele>686.04</ele>
        <time>2017-10-10T11:06:45Z</time>
      </trkpt>
      <trkpt lat="38.1044497434" lon="-2.8089938499">
        <ele>686.04</ele>
        <time>2017-10-10T11:06:53Z</time>
      </trkpt>
      <trkpt lat="38.1044111867" lon="-2.8090459015">
        <ele>686.04</ele>
        <time>2017-10-10T11:06:54Z</time>
      </trkpt>
      <trkpt lat="38.1043796707" lon="-2.8091034852">
        <ele>686.04</ele>
        <time>2017-10-10T11:06:55Z</time>
      </trkpt>
      <trkpt lat="38.1043556146" lon="-2.8091664333">
        <ele>686.04</ele>
        <time>2017-10-10T11:06:56Z</time>
      </trkpt>
      <trkpt lat="38.1043375935" lon="-2.8092355840">
        <ele>686.04</ele>
        <time>2017-10-10T11:06:57Z</time>
      </trkpt>
      <trkpt lat="38.1043295469" lon="-2.8093079198">
        <ele>686.04</ele>
        <time>2017-10-10T11:06:58Z</time>
      </trkpt>
      <trkpt lat="38.1043321453" lon="-2.8093808424">
        <ele>686.04</ele>
        <time>2017-10-10T11:06:59Z</time>
      </trkpt>
      <trkpt lat="38.1043417845" lon="-2.8094517533">
        <ele>686.04</ele>
        <time>2017-10-10T11:07:00Z</time>
      </trkpt>
      <trkpt lat="38.1043544412" lon="-2.8095208202">
        <ele>686.04</ele>
        <time>2017-10-10T11:07:01Z</time>
      </trkpt>
      <trkpt lat="38.1043630745" lon="-2.8102029394">
        <ele>686.52</ele>
        <time>2017-10-10T11:07:11Z</time>
      </trkpt>
      <trkpt lat="38.1042497512" lon="-2.8109920118">
        <ele>687.48</ele>
        <time>2017-10-10T11:07:23Z</time>
      </trkpt>
      <trkpt lat="38.1041898206" lon="-2.8114712052">
        <ele>687.96</ele>
        <time>2017-10-10T11:07:30Z</time>
      </trkpt>
      <trkpt lat="38.1041798461" lon="-2.8117670864">
        <ele>687.48</ele>
        <time>2017-10-10T11:07:34Z</time>
      </trkpt>
      <trkpt lat="38.1041576341" lon="-2.8119352274">
        <ele>687.00</ele>
        <time>2017-10-10T11:07:36Z</time>
      </trkpt>
      <trkpt lat="38.1041319016" lon="-2.8120083176">
        <ele>687.48</ele>
        <time>2017-10-10T11:07:37Z</time>
      </trkpt>
      <trkpt lat="38.1040980387" lon="-2.8120711818">
        <ele>687.48</ele>
        <time>2017-10-10T11:07:38Z</time>
      </trkpt>
      <trkpt lat="38.1040602364" lon="-2.8121244907">
        <ele>687.96</ele>
        <time>2017-10-10T11:07:39Z</time>
      </trkpt>
      <trkpt lat="38.1040203385" lon="-2.8121727705">
        <ele>687.96</ele>
        <time>2017-10-10T11:07:40Z</time>
      </trkpt>
      <trkpt lat="38.1039778423" lon="-2.8122147638">
        <ele>687.96</ele>
        <time>2017-10-10T11:07:41Z</time>
      </trkpt>
      <trkpt lat="38.1039319932" lon="-2.8122541588">
        <ele>687.96</ele>
        <time>2017-10-10T11:07:42Z</time>
      </trkpt>
      <trkpt lat="38.1038821209" lon="-2.8122893628">
        <ele>687.96</ele>
        <time>2017-10-10T11:07:43Z</time>
      </trkpt>
      <trkpt lat="38.1038308237" lon="-2.8123226389">
        <ele>687.96</ele>
        <time>2017-10-10T11:07:44Z</time>
      </trkpt>
      <trkpt lat="38.1032920349" lon="-2.8125822265">
        <ele>688.92</ele>
        <time>2017-10-10T11:07:55Z</time>
      </trkpt>
      <trkpt lat="38.1027857680" lon="-2.8129247110">
        <ele>689.88</ele>
        <time>2017-10-10T11:08:07Z</time>
      </trkpt>
      <trkpt lat="38.1027157791" lon="-2.8129705600">
        <ele>689.88</ele>
        <time>2017-10-10T11:08:09Z</time>
      </trkpt>
      <trkpt lat="38.1026776414" lon="-2.8129858151">
        <ele>690.36</ele>
        <time>2017-10-10T11:08:10Z</time>
      </trkpt>
      <trkpt lat="38.1026347261" lon="-2.8129952867">
        <ele>690.36</ele>
        <time>2017-10-10T11:08:11Z</time>
      </trkpt>
      <trkpt lat="38.1025886256" lon="-2.8130049258">
        <ele>690.36</ele>
        <time>2017-10-10T11:08:12Z</time>
      </trkpt>
      <trkpt lat="38.1025406811" lon="-2.8130203485">
        <ele>690.36</ele>
        <time>2017-10-10T11:08:13Z</time>
      </trkpt>
      <trkpt lat="38.1019626651" lon="-2.8131354321">
        <ele>688.92</ele>
        <time>2017-10-10T11:08:23Z</time>
      </trkpt>
      <trkpt lat="38.1012869999" lon="-2.8130911756">
        <ele>688.44</ele>
        <time>2017-10-10T11:08:34Z</time>
      </trkpt>
      <trkpt lat="38.1007107440" lon="-2.8128175065">
        <ele>687.96</ele>
        <time>2017-10-10T11:08:44Z</time>
      </trkpt>
      <trkpt lat="38.1006614584" lon="-2.8127625212">
        <ele>687.96</ele>
        <time>2017-10-10T11:08:45Z</time>
      </trkpt>
      <trkpt lat="38.1006187946" lon="-2.8127014171">
        <ele>687.96</ele>
        <time>2017-10-10T11:08:46Z</time>
      </trkpt>
      <trkpt lat="38.1004473846" lon="-2.8124680649">
        <ele>687.48</ele>
        <time>2017-10-10T11:08:50Z</time>
      </trkpt>
      <trkpt lat="38.1004001945" lon="-2.8124220483">
        <ele>687.48</ele>
        <time>2017-10-10T11:08:51Z</time>
      </trkpt>
      <trkpt lat="38.1003511604" lon="-2.8123799711">
        <ele>687.48</ele>
        <time>2017-10-10T11:08:52Z</time>
      </trkpt>
      <trkpt lat="38.1000091787" lon="-2.8121489659">
        <ele>687.00</ele>
        <time>2017-10-10T11:08:58Z</time>
      </trkpt>
      <trkpt lat="38.0999480747" lon="-2.8121263348">
        <ele>687.00</ele>
        <time>2017-10-10T11:08:59Z</time>
      </trkpt>
      <trkpt lat="38.0998881441" lon="-2.8121099062">
        <ele>687.00</ele>
        <time>2017-10-10T11:09:00Z</time>
      </trkpt>
      <trkpt lat="38.0998267885" lon="-2.8121011890">
        <ele>687.00</ele>
        <time>2017-10-10T11:09:01Z</time>
      </trkpt>
      <trkpt lat="38.0997656006" lon="-2.8120975010">
        <ele>687.00</ele>
        <time>2017-10-10T11:09:02Z</time>
      </trkpt>
      <trkpt lat="38.0992808752" lon="-2.8120990098">
        <ele>687.00</ele>
        <time>2017-10-10T11:09:10Z</time>
      </trkpt>
      <trkpt lat="38.0992201902" lon="-2.8120847605">
        <ele>687.00</ele>
        <time>2017-10-10T11:09:11Z</time>
      </trkpt>
      <trkpt lat="38.0991595890" lon="-2.8120642249">
        <ele>687.00</ele>
        <time>2017-10-10T11:09:12Z</time>
      </trkpt>
      <trkpt lat="38.0990991555" lon="-2.8120374028">
        <ele>687.00</ele>
        <time>2017-10-10T11:09:13Z</time>
      </trkpt>
      <trkpt lat="38.0990378838" lon="-2.8120080661">
        <ele>687.00</ele>
        <time>2017-10-10T11:09:14Z</time>
      </trkpt>
      <trkpt lat="38.0986788869" lon="-2.8118886240">
        <ele>687.00</ele>
        <time>2017-10-10T11:09:20Z</time>
      </trkpt>
      <trkpt lat="38.0986187886" lon="-2.8118886240">
        <ele>687.00</ele>
        <time>2017-10-10T11:09:21Z</time>
      </trkpt>
      <trkpt lat="38.0985596124" lon="-2.8118949942">
        <ele>687.00</ele>
        <time>2017-10-10T11:09:22Z</time>
      </trkpt>
      <trkpt lat="38.0985007714" lon="-2.8119080700">
        <ele>687.00</ele>
        <time>2017-10-10T11:09:23Z</time>
      </trkpt>
      <trkpt lat="38.0984450318" lon="-2.8119305335">
        <ele>687.00</ele>
        <time>2017-10-10T11:09:24Z</time>
      </trkpt>
      <trkpt lat="38.0983933154" lon="-2.8119604569">
        <ele>687.48</ele>
        <time>2017-10-10T11:09:25Z</time>
      </trkpt>
      <trkpt lat="38.0983452033" lon="-2.8119942360">
        <ele>687.48</ele>
        <time>2017-10-10T11:09:26Z</time>
      </trkpt>
      <trkpt lat="38.0979919061" lon="-2.8121902887">
        <ele>688.92</ele>
        <time>2017-10-10T11:09:34Z</time>
      </trkpt>
      <trkpt lat="38.0979496613" lon="-2.8121959046">
        <ele>688.92</ele>
        <time>2017-10-10T11:09:35Z</time>
      </trkpt>
      <trkpt lat="38.0979110207" lon="-2.8121963236">
        <ele>688.92</ele>
        <time>2017-10-10T11:09:36Z</time>
      </trkpt>
      <trkpt lat="38.0978755653" lon="-2.8121933900">
        <ele>689.40</ele>
        <time>2017-10-10T11:09:37Z</time>
      </trkpt>
      <trkpt lat="38.0978424568" lon="-2.8121872712">
        <ele>689.40</ele>
        <time>2017-10-10T11:09:38Z</time>
      </trkpt>
      <trkpt lat="38.0978113599" lon="-2.8121825773">
        <ele>689.40</ele>
        <time>2017-10-10T11:09:39Z</time>
      </trkpt>
      <trkpt lat="38.0977840349" lon="-2.8121829126">
        <ele>689.40</ele>
        <time>2017-10-10T11:09:40Z</time>
      </trkpt>
      <trkpt lat="38.0977591407" lon="-2.8121858463">
        <ele>689.40</ele>
        <time>2017-10-10T11:09:41Z</time>
      </trkpt>
      <trkpt lat="38.0977359228" lon="-2.8121893667">
        <ele>689.88</ele>
        <time>2017-10-10T11:09:42Z</time>
      </trkpt>
      <trkpt lat="38.0977116153" lon="-2.8121899534">
        <ele>689.88</ele>
        <time>2017-10-10T11:09:43Z</time>
      </trkpt>
      <trkpt lat="38.0976869725" lon="-2.8121868521">
        <ele>689.88</ele>
        <time>2017-10-10T11:09:44Z</time>
      </trkpt>
      <trkpt lat="38.0976630840" lon="-2.8121828288">
        <ele>689.88</ele>
        <time>2017-10-10T11:09:45Z</time>
      </trkpt>
      <trkpt lat="38.0976221804" lon="-2.8121706750">
        <ele>689.88</ele>
        <time>2017-10-10T11:09:47Z</time>
      </trkpt>
      <trkpt lat="38.0976104457" lon="-2.8121533245">
        <ele>690.36</ele>
        <time>2017-10-10T11:09:48Z</time>
      </trkpt>
      <trkpt lat="38.0975960288" lon="-2.8120948188">
        <ele>690.36</ele>
        <time>2017-10-10T11:09:57Z</time>
      </trkpt>
      <trkpt lat="38.0975868925" lon="-2.8120920528">
        <ele>690.36</ele>
        <time>2017-10-10T11:10:08Z</time>
      </trkpt>
      <trkpt lat="38.0975966156" lon="-2.8120845929">
        <ele>690.36</ele>
        <time>2017-10-10T11:10:36Z</time>
      </trkpt>
      <trkpt lat="38.0975953583" lon="-2.8120904602">
        <ele>690.36</ele>
        <time>2017-10-10T11:11:01Z</time>
      </trkpt>
      <trkpt lat="38.0975917540" lon="-2.8120840900">
        <ele>689.88</ele>
        <time>2017-10-10T11:11:34Z</time>
      </trkpt>
      <trkpt lat="38.0975902453" lon="-2.8120781388">
        <ele>689.88</ele>
        <time>2017-10-10T11:12:03Z</time>
      </trkpt>
      <trkpt lat="38.0975790974" lon="-2.8121442720">
        <ele>690.36</ele>
        <time>2017-10-10T11:12:16Z</time>
      </trkpt>
      <trkpt lat="38.0975739006" lon="-2.8121574316">
        <ele>690.36</ele>
        <time>2017-10-10T11:12:19Z</time>
      </trkpt>
      <trkpt lat="38.0975328293" lon="-2.8121957369">
        <ele>690.36</ele>
        <time>2017-10-10T11:12:23Z</time>
      </trkpt>
      <trkpt lat="38.0974757485" lon="-2.8122104052">
        <ele>689.88</ele>
        <time>2017-10-10T11:12:26Z</time>
      </trkpt>
      <trkpt lat="38.0973649397" lon="-2.8121741116">
        <ele>690.36</ele>
        <time>2017-10-10T11:12:32Z</time>
      </trkpt>
      <trkpt lat="38.0973222759" lon="-2.8121803980">
        <ele>690.36</ele>
        <time>2017-10-10T11:12:34Z</time>
      </trkpt>
      <trkpt lat="38.0970556475" lon="-2.8121712618">
        <ele>691.33</ele>
        <time>2017-10-10T11:12:45Z</time>
      </trkpt>
      <trkpt lat="38.0967723392" lon="-2.8122565057">
        <ele>692.29</ele>
        <time>2017-10-10T11:12:55Z</time>
      </trkpt>
      <trkpt lat="38.0963373184" lon="-2.8124071285">
        <ele>693.25</ele>
        <time>2017-10-10T11:13:08Z</time>
      </trkpt>
      <trkpt lat="38.0961468816" lon="-2.8123772051">
        <ele>693.73</ele>
        <time>2017-10-10T11:13:13Z</time>
      </trkpt>
      <trkpt lat="38.0961097497" lon="-2.8123579267">
        <ele>693.73</ele>
        <time>2017-10-10T11:13:14Z</time>
      </trkpt>
      <trkpt lat="38.0960770603" lon="-2.8123357147">
        <ele>693.73</ele>
        <time>2017-10-10T11:13:15Z</time>
      </trkpt>
      <trkpt lat="38.0957358330" lon="-2.8121392429">
        <ele>694.21</ele>
        <time>2017-10-10T11:13:25Z</time>
      </trkpt>
      <trkpt lat="38.0955664348" lon="-2.8121927194">
        <ele>694.21</ele>
        <time>2017-10-10T11:13:30Z</time>
      </trkpt>
      <trkpt lat="38.0955288000" lon="-2.8122200444">
        <ele>694.21</ele>
        <time>2017-10-10T11:13:31Z</time>
      </trkpt>
      <trkpt lat="38.0954923388" lon="-2.8122521471">
        <ele>693.73</ele>
        <time>2017-10-10T11:13:32Z</time>
      </trkpt>
      <trkpt lat="38.0952070188" lon="-2.8124518879">
        <ele>693.73</ele>
        <time>2017-10-10T11:13:39Z</time>
      </trkpt>
      <trkpt lat="38.0950154923" lon="-2.8125199489">
        <ele>693.73</ele>
        <time>2017-10-10T11:13:43Z</time>
      </trkpt>
      <trkpt lat="38.0949663743" lon="-2.8125393949">
        <ele>693.25</ele>
        <time>2017-10-10T11:13:44Z</time>
      </trkpt>
      <trkpt lat="38.0946100596" lon="-2.8126269020">
        <ele>693.73</ele>
        <time>2017-10-10T11:13:51Z</time>
      </trkpt>
      <trkpt lat="38.0945075490" lon="-2.8126329370">
        <ele>693.25</ele>
        <time>2017-10-10T11:13:53Z</time>
      </trkpt>
      <trkpt lat="38.0944543239" lon="-2.8126259800">
        <ele>693.25</ele>
        <time>2017-10-10T11:13:54Z</time>
      </trkpt>
      <trkpt lat="38.0944000091" lon="-2.8126114793">
        <ele>693.73</ele>
        <time>2017-10-10T11:13:55Z</time>
      </trkpt>
      <trkpt lat="38.0943475384" lon="-2.8125932906">
        <ele>693.25</ele>
        <time>2017-10-10T11:13:56Z</time>
      </trkpt>
      <trkpt lat="38.0942970794" lon="-2.8125709947">
        <ele>693.25</ele>
        <time>2017-10-10T11:13:57Z</time>
      </trkpt>
      <trkpt lat="38.0942481291" lon="-2.8125417419">
        <ele>693.25</ele>
        <time>2017-10-10T11:13:58Z</time>
      </trkpt>
      <trkpt lat="38.0941985920" lon="-2.8125138301">
        <ele>692.77</ele>
        <time>2017-10-10T11:13:59Z</time>
      </trkpt>
      <trkpt lat="38.0941470433" lon="-2.8124922886">
        <ele>692.77</ele>
        <time>2017-10-10T11:14:00Z</time>
      </trkpt>
      <trkpt lat="38.0940936506" lon="-2.8124743514">
        <ele>692.77</ele>
        <time>2017-10-10T11:14:01Z</time>
      </trkpt>
      <trkpt lat="38.0940395873" lon="-2.8124557436">
        <ele>693.25</ele>
        <time>2017-10-10T11:14:02Z</time>
      </trkpt>
      <trkpt lat="38.0939861108" lon="-2.8124376386">
        <ele>692.77</ele>
        <time>2017-10-10T11:14:03Z</time>
      </trkpt>
      <trkpt lat="38.0939297844" lon="-2.8124182764">
        <ele>692.77</ele>
        <time>2017-10-10T11:14:04Z</time>
      </trkpt>
      <trkpt lat="38.0938727874" lon="-2.8123983275">
        <ele>692.77</ele>
        <time>2017-10-10T11:14:05Z</time>
      </trkpt>
      <trkpt lat="38.0938141141" lon="-2.8123832401">
        <ele>692.77</ele>
        <time>2017-10-10T11:14:06Z</time>
      </trkpt>
      <trkpt lat="38.0937543511" lon="-2.8123736847">
        <ele>692.77</ele>
        <time>2017-10-10T11:14:07Z</time>
      </trkpt>
      <trkpt lat="38.0936960131" lon="-2.8123689070">
        <ele>692.29</ele>
        <time>2017-10-10T11:14:08Z</time>
      </trkpt>
      <trkpt lat="38.0936406925" lon="-2.8123723436">
        <ele>692.29</ele>
        <time>2017-10-10T11:14:09Z</time>
      </trkpt>
      <trkpt lat="38.0935894791" lon="-2.8123805579">
        <ele>692.77</ele>
        <time>2017-10-10T11:14:10Z</time>
      </trkpt>
      <trkpt lat="38.0935404450" lon="-2.8123941366">
        <ele>692.77</ele>
        <time>2017-10-10T11:14:11Z</time>
      </trkpt>
      <trkpt lat="38.0932357628" lon="-2.8124764469">
        <ele>693.73</ele>
        <time>2017-10-10T11:14:17Z</time>
      </trkpt>
      <trkpt lat="38.0930851400" lon="-2.8124706633">
        <ele>693.73</ele>
        <time>2017-10-10T11:14:20Z</time>
      </trkpt>
      <trkpt lat="38.0930401292" lon="-2.8124608565">
        <ele>693.73</ele>
        <time>2017-10-10T11:14:21Z</time>
      </trkpt>
      <trkpt lat="38.0926552322" lon="-2.8123741876">
        <ele>693.73</ele>
        <time>2017-10-10T11:14:29Z</time>
      </trkpt>
      <trkpt lat="38.0925477762" lon="-2.8123724274">
        <ele>693.25</ele>
        <time>2017-10-10T11:14:31Z</time>
      </trkpt>
      <trkpt lat="38.0924897734" lon="-2.8123798035">
        <ele>693.25</ele>
        <time>2017-10-10T11:14:32Z</time>
      </trkpt>
      <trkpt lat="38.0924274959" lon="-2.8123943880">
        <ele>692.77</ele>
        <time>2017-10-10T11:14:33Z</time>
      </trkpt>
      <trkpt lat="38.0923637096" lon="-2.8124202881">
        <ele>692.29</ele>
        <time>2017-10-10T11:14:34Z</time>
      </trkpt>
      <trkpt lat="38.0922991689" lon="-2.8124576714">
        <ele>691.81</ele>
        <time>2017-10-10T11:14:35Z</time>
      </trkpt>
      <trkpt lat="38.0922339577" lon="-2.8125036880">
        <ele>691.33</ele>
        <time>2017-10-10T11:14:36Z</time>
      </trkpt>
      <trkpt lat="38.0921674892" lon="-2.8125560749">
        <ele>690.84</ele>
        <time>2017-10-10T11:14:37Z</time>
      </trkpt>
      <trkpt lat="38.0918727815" lon="-2.8128110524">
        <ele>687.48</ele>
        <time>2017-10-10T11:14:41Z</time>
      </trkpt>
      <trkpt lat="38.0915283691" lon="-2.8131143935">
        <ele>684.12</ele>
        <time>2017-10-10T11:14:45Z</time>
      </trkpt>
      <trkpt lat="38.0910786800" lon="-2.8134562913">
        <ele>680.75</ele>
        <time>2017-10-10T11:14:50Z</time>
      </trkpt>
      <trkpt lat="38.0907541327" lon="-2.8137096763">
        <ele>678.35</ele>
        <time>2017-10-10T11:14:54Z</time>
      </trkpt>
      <trkpt lat="38.0904854089" lon="-2.8141167853">
        <ele>675.94</ele>
        <time>2017-10-10T11:14:59Z</time>
      </trkpt>
      <trkpt lat="38.0904507078" lon="-2.8142146021">
        <ele>675.46</ele>
        <time>2017-10-10T11:15:00Z</time>
      </trkpt>
      <trkpt lat="38.0903774500" lon="-2.8144205455">
        <ele>674.50</ele>
        <time>2017-10-10T11:15:02Z</time>
      </trkpt>
      <trkpt lat="38.0903205369" lon="-2.8145192005">
        <ele>673.54</ele>
        <time>2017-10-10T11:15:03Z</time>
      </trkpt>
      <trkpt lat="38.0901053734" lon="-2.8147859126">
        <ele>671.14</ele>
        <time>2017-10-10T11:15:06Z</time>
      </trkpt>
      <trkpt lat="38.0900217220" lon="-2.8148486931">
        <ele>670.66</ele>
        <time>2017-10-10T11:15:07Z</time>
      </trkpt>
      <trkpt lat="38.0891865492" lon="-2.8152181674">
        <ele>670.18</ele>
        <time>2017-10-10T11:15:17Z</time>
      </trkpt>
      <trkpt lat="38.0888815317" lon="-2.8153054230">
        <ele>669.70</ele>
        <time>2017-10-10T11:15:21Z</time>
      </trkpt>
      <trkpt lat="38.0884009134" lon="-2.8154935967">
        <ele>670.18</ele>
        <time>2017-10-10T11:15:28Z</time>
      </trkpt>
      <trkpt lat="38.0879277550" lon="-2.8156459797">
        <ele>670.18</ele>
        <time>2017-10-10T11:15:36Z</time>
      </trkpt>
      <trkpt lat="38.0878731050" lon="-2.8156578820">
        <ele>670.18</ele>
        <time>2017-10-10T11:15:37Z</time>
      </trkpt>
      <trkpt lat="38.0878161080" lon="-2.8156661801">
        <ele>670.18</ele>
        <time>2017-10-10T11:15:38Z</time>
      </trkpt>
      <trkpt lat="38.0871411972" lon="-2.8157994524">
        <ele>669.70</ele>
        <time>2017-10-10T11:15:49Z</time>
      </trkpt>
      <trkpt lat="38.0867966171" lon="-2.8159871232">
        <ele>669.70</ele>
        <time>2017-10-10T11:15:55Z</time>
      </trkpt>
      <trkpt lat="38.0867416319" lon="-2.8160224110">
        <ele>669.22</ele>
        <time>2017-10-10T11:15:56Z</time>
      </trkpt>
      <trkpt lat="38.0861140788" lon="-2.8164171986">
        <ele>667.77</ele>
        <time>2017-10-10T11:16:06Z</time>
      </trkpt>
      <trkpt lat="38.0859880149" lon="-2.8165046219">
        <ele>667.29</ele>
        <time>2017-10-10T11:16:08Z</time>
      </trkpt>
      <trkpt lat="38.0859236419" lon="-2.8165495489">
        <ele>667.29</ele>
        <time>2017-10-10T11:16:09Z</time>
      </trkpt>
      <trkpt lat="38.0853481404" lon="-2.8169878386">
        <ele>665.85</ele>
        <time>2017-10-10T11:16:18Z</time>
      </trkpt>
      <trkpt lat="38.0852856953" lon="-2.8170431592">
        <ele>665.85</ele>
        <time>2017-10-10T11:16:19Z</time>
      </trkpt>
      <trkpt lat="38.0845826212" lon="-2.8175618313">
        <ele>662.97</ele>
        <time>2017-10-10T11:16:29Z</time>
      </trkpt>
      <trkpt lat="38.0840117298" lon="-2.8178781644">
        <ele>662.01</ele>
        <time>2017-10-10T11:16:37Z</time>
      </trkpt>
      <trkpt lat="38.0839421600" lon="-2.8178995382">
        <ele>662.01</ele>
        <time>2017-10-10T11:16:38Z</time>
      </trkpt>
      <trkpt lat="38.0835511442" lon="-2.8179541044">
        <ele>661.52</ele>
        <time>2017-10-10T11:16:44Z</time>
      </trkpt>
      <trkpt lat="38.0834920518" lon="-2.8179482371">
        <ele>661.52</ele>
        <time>2017-10-10T11:16:45Z</time>
      </trkpt>
      <trkpt lat="38.0834353901" lon="-2.8179372568">
        <ele>661.52</ele>
        <time>2017-10-10T11:16:46Z</time>
      </trkpt>
      <trkpt lat="38.0830069911" lon="-2.8178166412">
        <ele>662.01</ele>
        <time>2017-10-10T11:16:55Z</time>
      </trkpt>
      <trkpt lat="38.0829287041" lon="-2.8177953511">
        <ele>662.01</ele>
        <time>2017-10-10T11:16:57Z</time>
      </trkpt>
      <trkpt lat="38.0827996228" lon="-2.8177510109">
        <ele>662.01</ele>
        <time>2017-10-10T11:17:00Z</time>
      </trkpt>
      <trkpt lat="38.0827118643" lon="-2.8177048266">
        <ele>662.01</ele>
        <time>2017-10-10T11:17:02Z</time>
      </trkpt>
      <trkpt lat="38.0826733913" lon="-2.8176717181">
        <ele>662.01</ele>
        <time>2017-10-10T11:17:03Z</time>
      </trkpt>
      <trkpt lat="38.0826408695" lon="-2.8176334966">
        <ele>662.49</ele>
        <time>2017-10-10T11:17:04Z</time>
      </trkpt>
      <trkpt lat="38.0823242851" lon="-2.8171220329">
        <ele>662.97</ele>
        <time>2017-10-10T11:17:16Z</time>
      </trkpt>
      <trkpt lat="38.0823027436" lon="-2.8170718253">
        <ele>662.97</ele>
        <time>2017-10-10T11:17:17Z</time>
      </trkpt>
      <trkpt lat="38.0821238738" lon="-2.8167502955">
        <ele>663.45</ele>
        <time>2017-10-10T11:17:24Z</time>
      </trkpt>
      <trkpt lat="38.0820926093" lon="-2.8167063743">
        <ele>663.45</ele>
        <time>2017-10-10T11:17:25Z</time>
      </trkpt>
      <trkpt lat="38.0816755258" lon="-2.8161092475">
        <ele>663.45</ele>
        <time>2017-10-10T11:17:38Z</time>
      </trkpt>
      <trkpt lat="38.0814122502" lon="-2.8157501668">
        <ele>663.93</ele>
        <time>2017-10-10T11:17:46Z</time>
      </trkpt>
      <trkpt lat="38.0813430995" lon="-2.8156640008">
        <ele>663.93</ele>
        <time>2017-10-10T11:17:48Z</time>
      </trkpt>
      <trkpt lat="38.0812585261" lon="-2.8155798465">
        <ele>663.45</ele>
        <time>2017-10-10T11:17:50Z</time>
      </trkpt>
      <trkpt lat="38.0812100787" lon="-2.8155443072">
        <ele>663.93</ele>
        <time>2017-10-10T11:17:51Z</time>
      </trkpt>
      <trkpt lat="38.0811577756" lon="-2.8155175690">
        <ele>663.45</ele>
        <time>2017-10-10T11:17:52Z</time>
      </trkpt>
      <trkpt lat="38.0811034609" lon="-2.8155005537">
        <ele>663.45</ele>
        <time>2017-10-10T11:17:53Z</time>
      </trkpt>
      <trkpt lat="38.0810478050" lon="-2.8154954407">
        <ele>663.45</ele>
        <time>2017-10-10T11:17:54Z</time>
      </trkpt>
      <trkpt lat="38.0809918139" lon="-2.8154996317">
        <ele>663.93</ele>
        <time>2017-10-10T11:17:55Z</time>
      </trkpt>
      <trkpt lat="38.0809364934" lon="-2.8155147191">
        <ele>663.45</ele>
        <time>2017-10-10T11:17:56Z</time>
      </trkpt>
      <trkpt lat="38.0808835197" lon="-2.8155390266">
        <ele>663.93</ele>
        <time>2017-10-10T11:17:57Z</time>
      </trkpt>
      <trkpt lat="38.0808331445" lon="-2.8155694529">
        <ele>663.93</ele>
        <time>2017-10-10T11:17:58Z</time>
      </trkpt>
      <trkpt lat="38.0807849485" lon="-2.8156058304">
        <ele>663.45</ele>
        <time>2017-10-10T11:17:59Z</time>
      </trkpt>
      <trkpt lat="38.0807408597" lon="-2.8156436328">
        <ele>663.93</ele>
        <time>2017-10-10T11:18:00Z</time>
      </trkpt>
      <trkpt lat="38.0806978606" lon="-2.8156847879">
        <ele>663.93</ele>
        <time>2017-10-10T11:18:01Z</time>
      </trkpt>
      <trkpt lat="38.0806578789" lon="-2.8157301340">
        <ele>663.93</ele>
        <time>2017-10-10T11:18:02Z</time>
      </trkpt>
      <trkpt lat="38.0806209147" lon="-2.8157753963">
        <ele>663.93</ele>
        <time>2017-10-10T11:18:03Z</time>
      </trkpt>
      <trkpt lat="38.0805838667" lon="-2.8158224188">
        <ele>663.93</ele>
        <time>2017-10-10T11:18:04Z</time>
      </trkpt>
      <trkpt lat="38.0805517640" lon="-2.8158732131">
        <ele>663.93</ele>
        <time>2017-10-10T11:18:05Z</time>
      </trkpt>
      <trkpt lat="38.0805236846" lon="-2.8159292880">
        <ele>663.93</ele>
        <time>2017-10-10T11:18:06Z</time>
      </trkpt>
      <trkpt lat="38.0805027299" lon="-2.8159901407">
        <ele>663.93</ele>
        <time>2017-10-10T11:18:07Z</time>
      </trkpt>
      <trkpt lat="38.0804849602" lon="-2.8160545137">
        <ele>664.41</ele>
        <time>2017-10-10T11:18:08Z</time>
      </trkpt>
      <trkpt lat="38.0803692061" lon="-2.8165412508">
        <ele>665.85</ele>
        <time>2017-10-10T11:18:17Z</time>
      </trkpt>
      <trkpt lat="38.0803930946" lon="-2.8169794567">
        <ele>666.81</ele>
        <time>2017-10-10T11:18:26Z</time>
      </trkpt>
      <trkpt lat="38.0805749819" lon="-2.8173794411">
        <ele>667.77</ele>
        <time>2017-10-10T11:18:35Z</time>
      </trkpt>
      <trkpt lat="38.0805990379" lon="-2.8174220212">
        <ele>667.77</ele>
        <time>2017-10-10T11:18:36Z</time>
      </trkpt>
      <trkpt lat="38.0806984473" lon="-2.8176197503">
        <ele>668.25</ele>
        <time>2017-10-10T11:18:40Z</time>
      </trkpt>
      <trkpt lat="38.0807532649" lon="-2.8177216742">
        <ele>667.77</ele>
        <time>2017-10-10T11:18:42Z</time>
      </trkpt>
      <trkpt lat="38.0807732139" lon="-2.8177773301">
        <ele>667.77</ele>
        <time>2017-10-10T11:18:43Z</time>
      </trkpt>
      <trkpt lat="38.0807910673" lon="-2.8178329859">
        <ele>667.77</ele>
        <time>2017-10-10T11:18:44Z</time>
      </trkpt>
      <trkpt lat="38.0808128603" lon="-2.8179522604">
        <ele>667.77</ele>
        <time>2017-10-10T11:18:46Z</time>
      </trkpt>
      <trkpt lat="38.0808107648" lon="-2.8180128615">
        <ele>667.77</ele>
        <time>2017-10-10T11:18:47Z</time>
      </trkpt>
      <trkpt lat="38.0808053166" lon="-2.8180727921">
        <ele>667.77</ele>
        <time>2017-10-10T11:18:48Z</time>
      </trkpt>
      <trkpt lat="38.0807918217" lon="-2.8181302082">
        <ele>668.25</ele>
        <time>2017-10-10T11:18:49Z</time>
      </trkpt>
      <trkpt lat="38.0807706155" lon="-2.8181877080">
        <ele>668.25</ele>
        <time>2017-10-10T11:18:50Z</time>
      </trkpt>
      <trkpt lat="38.0807470623" lon="-2.8182456270">
        <ele>668.25</ele>
        <time>2017-10-10T11:18:51Z</time>
      </trkpt>
      <trkpt lat="38.0807167199" lon="-2.8182946611">
        <ele>668.25</ele>
        <time>2017-10-10T11:18:52Z</time>
      </trkpt>
      <trkpt lat="38.0806799233" lon="-2.8183339722">
        <ele>668.25</ele>
        <time>2017-10-10T11:18:53Z</time>
      </trkpt>
      <trkpt lat="38.0806412827" lon="-2.8183672484">
        <ele>668.25</ele>
        <time>2017-10-10T11:18:54Z</time>
      </trkpt>
      <trkpt lat="38.0806002114" lon="-2.8183913883">
        <ele>668.25</ele>
        <time>2017-10-10T11:18:55Z</time>
      </trkpt>
      <trkpt lat="38.0805592239" lon="-2.8184052184">
        <ele>668.25</ele>
        <time>2017-10-10T11:18:56Z</time>
      </trkpt>
      <trkpt lat="38.0805176497" lon="-2.8184120916">
        <ele>668.25</ele>
        <time>2017-10-10T11:18:57Z</time>
      </trkpt>
      <trkpt lat="38.0804757401" lon="-2.8184155282">
        <ele>668.73</ele>
        <time>2017-10-10T11:18:58Z</time>
      </trkpt>
      <trkpt lat="38.0804335792" lon="-2.8184172884">
        <ele>668.73</ele>
        <time>2017-10-10T11:18:59Z</time>
      </trkpt>
      <trkpt lat="38.0801449064" lon="-2.8184308670">
        <ele>670.18</ele>
        <time>2017-10-10T11:19:08Z</time>
      </trkpt>
      <trkpt lat="38.0798663758" lon="-2.8184757940">
        <ele>671.62</ele>
        <time>2017-10-10T11:19:19Z</time>
      </trkpt>
      <trkpt lat="38.0796274915" lon="-2.8186897002">
        <ele>673.06</ele>
        <time>2017-10-10T11:19:31Z</time>
      </trkpt>
      <trkpt lat="38.0794273317" lon="-2.8189254832">
        <ele>674.50</ele>
        <time>2017-10-10T11:19:43Z</time>
      </trkpt>
      <trkpt lat="38.0792546645" lon="-2.8191266488">
        <ele>675.94</ele>
        <time>2017-10-10T11:19:53Z</time>
      </trkpt>
      <trkpt lat="38.0790964141" lon="-2.8193123918">
        <ele>676.91</ele>
        <time>2017-10-10T11:20:02Z</time>
      </trkpt>
      <trkpt lat="38.0788939912" lon="-2.8195544612">
        <ele>678.35</ele>
        <time>2017-10-10T11:20:14Z</time>
      </trkpt>
      <trkpt lat="38.0788530037" lon="-2.8195921797">
        <ele>678.83</ele>
        <time>2017-10-10T11:20:18Z</time>
      </trkpt>
      <trkpt lat="38.0788400955" lon="-2.8196081053">
        <ele>678.83</ele>
        <time>2017-10-10T11:20:19Z</time>
      </trkpt>
      <trkpt lat="38.0787067395" lon="-2.8197770007">
        <ele>679.79</ele>
        <time>2017-10-10T11:20:28Z</time>
      </trkpt>
      <trkpt lat="38.0785954278" lon="-2.8200078383">
        <ele>681.23</ele>
        <time>2017-10-10T11:20:38Z</time>
      </trkpt>
      <trkpt lat="38.0784895644" lon="-2.8202556912">
        <ele>682.19</ele>
        <time>2017-10-10T11:20:48Z</time>
      </trkpt>
      <trkpt lat="38.0783656798" lon="-2.8205329645">
        <ele>683.63</ele>
        <time>2017-10-10T11:20:59Z</time>
      </trkpt>
      <trkpt lat="38.0782326590" lon="-2.8207096551">
        <ele>684.60</ele>
        <time>2017-10-10T11:21:08Z</time>
      </trkpt>
      <trkpt lat="38.0780259613" lon="-2.8208994213">
        <ele>685.56</ele>
        <time>2017-10-10T11:21:20Z</time>
      </trkpt>
      <trkpt lat="38.0779079441" lon="-2.8210953064">
        <ele>686.52</ele>
        <time>2017-10-10T11:21:30Z</time>
      </trkpt>
      <trkpt lat="38.0777915195" lon="-2.8213590849">
        <ele>687.48</ele>
        <time>2017-10-10T11:21:41Z</time>
      </trkpt>
      <trkpt lat="38.0775268190" lon="-2.8215923533">
        <ele>688.92</ele>
        <time>2017-10-10T11:21:54Z</time>
      </trkpt>
      <trkpt lat="38.0772490427" lon="-2.8218000568">
        <ele>689.88</ele>
        <time>2017-10-10T11:22:06Z</time>
      </trkpt>
      <trkpt lat="38.0771590210" lon="-2.8221109416">
        <ele>692.29</ele>
        <time>2017-10-10T11:22:16Z</time>
      </trkpt>
      <trkpt lat="38.0771593563" lon="-2.8224324714">
        <ele>692.77</ele>
        <time>2017-10-10T11:22:26Z</time>
      </trkpt>
      <trkpt lat="38.0770736933" lon="-2.8227695078">
        <ele>693.73</ele>
        <time>2017-10-10T11:22:37Z</time>
      </trkpt>
      <trkpt lat="38.0768717732" lon="-2.8229178675">
        <ele>694.69</ele>
        <time>2017-10-10T11:22:46Z</time>
      </trkpt>
      <trkpt lat="38.0765900575" lon="-2.8228512313">
        <ele>695.65</ele>
        <time>2017-10-10T11:22:57Z</time>
      </trkpt>
      <trkpt lat="38.0762601458" lon="-2.8226942383">
        <ele>696.61</ele>
        <time>2017-10-10T11:23:10Z</time>
      </trkpt>
      <trkpt lat="38.0759326648" lon="-2.8226266801">
        <ele>698.05</ele>
        <time>2017-10-10T11:23:23Z</time>
      </trkpt>
      <trkpt lat="38.0757396296" lon="-2.8224882111">
        <ele>699.02</ele>
        <time>2017-10-10T11:23:32Z</time>
      </trkpt>
      <trkpt lat="38.0754735041" lon="-2.8224138636">
        <ele>699.98</ele>
        <time>2017-10-10T11:23:43Z</time>
      </trkpt>
      <trkpt lat="38.0752218794" lon="-2.8224304598">
        <ele>700.94</ele>
        <time>2017-10-10T11:23:53Z</time>
      </trkpt>
      <trkpt lat="38.0749048758" lon="-2.8224114329">
        <ele>702.38</ele>
        <time>2017-10-10T11:24:05Z</time>
      </trkpt>
      <trkpt lat="38.0745913088" lon="-2.8222140390">
        <ele>703.82</ele>
        <time>2017-10-10T11:24:18Z</time>
      </trkpt>
      <trkpt lat="38.0743573699" lon="-2.8219992947">
        <ele>705.26</ele>
        <time>2017-10-10T11:24:29Z</time>
      </trkpt>
      <trkpt lat="38.0740818568" lon="-2.8217438143">
        <ele>706.23</ele>
        <time>2017-10-10T11:24:41Z</time>
      </trkpt>
      <trkpt lat="38.0736788549" lon="-2.8214869089">
        <ele>706.23</ele>
        <time>2017-10-10T11:24:53Z</time>
      </trkpt>
      <trkpt lat="38.0734876636" lon="-2.8213818837">
        <ele>706.23</ele>
        <time>2017-10-10T11:24:58Z</time>
      </trkpt>
      <trkpt lat="38.0730940495" lon="-2.8212233819">
        <ele>703.34</ele>
        <time>2017-10-10T11:25:05Z</time>
      </trkpt>
      <trkpt lat="38.0730186123" lon="-2.8212152515">
        <ele>702.86</ele>
        <time>2017-10-10T11:25:06Z</time>
      </trkpt>
      <trkpt lat="38.0729399901" lon="-2.8212212026">
        <ele>702.38</ele>
        <time>2017-10-10T11:25:07Z</time>
      </trkpt>
      <trkpt lat="38.0728626251" lon="-2.8212457616">
        <ele>701.90</ele>
        <time>2017-10-10T11:25:08Z</time>
      </trkpt>
      <trkpt lat="38.0727907084" lon="-2.8212989029">
        <ele>701.42</ele>
        <time>2017-10-10T11:25:09Z</time>
      </trkpt>
      <trkpt lat="38.0727246590" lon="-2.8213745076">
        <ele>699.98</ele>
        <time>2017-10-10T11:25:10Z</time>
      </trkpt>
      <trkpt lat="38.0726545025" lon="-2.8214490227">
        <ele>699.50</ele>
        <time>2017-10-10T11:25:11Z</time>
      </trkpt>
      <trkpt lat="38.0725767184" lon="-2.8215128090">
        <ele>699.02</ele>
        <time>2017-10-10T11:25:12Z</time>
      </trkpt>
      <trkpt lat="38.0724911392" lon="-2.8215605021">
        <ele>698.53</ele>
        <time>2017-10-10T11:25:13Z</time>
      </trkpt>
      <trkpt lat="38.0724001117" lon="-2.8215908445">
        <ele>698.53</ele>
        <time>2017-10-10T11:25:14Z</time>
      </trkpt>
      <trkpt lat="38.0723042227" lon="-2.8216019087">
        <ele>697.57</ele>
        <time>2017-10-10T11:25:15Z</time>
      </trkpt>
      <trkpt lat="38.0722067412" lon="-2.8215986397">
        <ele>697.09</ele>
        <time>2017-10-10T11:25:16Z</time>
      </trkpt>
      <trkpt lat="38.0721088406" lon="-2.8215763438">
        <ele>696.61</ele>
        <time>2017-10-10T11:25:17Z</time>
      </trkpt>
      <trkpt lat="38.0720105208" lon="-2.8215397988">
        <ele>695.65</ele>
        <time>2017-10-10T11:25:18Z</time>
      </trkpt>
      <trkpt lat="38.0719096866" lon="-2.8215077799">
        <ele>695.17</ele>
        <time>2017-10-10T11:25:19Z</time>
      </trkpt>
      <trkpt lat="38.0718078464" lon="-2.8214936145">
        <ele>694.69</ele>
        <time>2017-10-10T11:25:20Z</time>
      </trkpt>
      <trkpt lat="38.0717072636" lon="-2.8214948718">
        <ele>694.21</ele>
        <time>2017-10-10T11:25:21Z</time>
      </trkpt>
      <trkpt lat="38.0716084410" lon="-2.8214957938">
        <ele>693.25</ele>
        <time>2017-10-10T11:25:22Z</time>
      </trkpt>
      <trkpt lat="38.0715091154" lon="-2.8214910161">
        <ele>692.77</ele>
        <time>2017-10-10T11:25:23Z</time>
      </trkpt>
      <trkpt lat="38.0713114701" lon="-2.8214792814">
        <ele>691.81</ele>
        <time>2017-10-10T11:25:25Z</time>
      </trkpt>
      <trkpt lat="38.0712171737" lon="-2.8214837238">
        <ele>691.33</ele>
        <time>2017-10-10T11:25:26Z</time>
      </trkpt>
      <trkpt lat="38.0711213686" lon="-2.8215072770">
        <ele>690.84</ele>
        <time>2017-10-10T11:25:27Z</time>
      </trkpt>
      <trkpt lat="38.0710271560" lon="-2.8215570655">
        <ele>690.36</ele>
        <time>2017-10-10T11:25:28Z</time>
      </trkpt>
      <trkpt lat="38.0709428340" lon="-2.8216331732">
        <ele>689.40</ele>
        <time>2017-10-10T11:25:29Z</time>
      </trkpt>
      <trkpt lat="38.0708775390" lon="-2.8217319120">
        <ele>688.92</ele>
        <time>2017-10-10T11:25:30Z</time>
      </trkpt>
      <trkpt lat="38.0708273314" lon="-2.8218432236">
        <ele>688.44</ele>
        <time>2017-10-10T11:25:31Z</time>
      </trkpt>
      <trkpt lat="38.0707776267" lon="-2.8219602350">
        <ele>687.96</ele>
        <time>2017-10-10T11:25:32Z</time>
      </trkpt>
      <trkpt lat="38.0707252398" lon="-2.8220768273">
        <ele>687.48</ele>
        <time>2017-10-10T11:25:33Z</time>
      </trkpt>
      <trkpt lat="38.0706641357" lon="-2.8221863788">
        <ele>687.00</ele>
        <time>2017-10-10T11:25:34Z</time>
      </trkpt>
      <trkpt lat="38.0705871899" lon="-2.8222806752">
        <ele>686.52</ele>
        <time>2017-10-10T11:25:35Z</time>
      </trkpt>
      <trkpt lat="38.0702488124" lon="-2.8225901350">
        <ele>684.60</ele>
        <time>2017-10-10T11:25:39Z</time>
      </trkpt>
      <trkpt lat="38.0699090101" lon="-2.8228740301">
        <ele>683.15</ele>
        <time>2017-10-10T11:25:43Z</time>
      </trkpt>
      <trkpt lat="38.0698307231" lon="-2.8229635488">
        <ele>682.67</ele>
        <time>2017-10-10T11:25:44Z</time>
      </trkpt>
      <trkpt lat="38.0697642546" lon="-2.8230683226">
        <ele>682.19</ele>
        <time>2017-10-10T11:25:45Z</time>
      </trkpt>
      <trkpt lat="38.0697098561" lon="-2.8231840767">
        <ele>682.19</ele>
        <time>2017-10-10T11:25:46Z</time>
      </trkpt>
      <trkpt lat="38.0693678744" lon="-2.8240055032">
        <ele>678.83</ele>
        <time>2017-10-10T11:25:53Z</time>
      </trkpt>
      <trkpt lat="38.0692221131" lon="-2.8244985268">
        <ele>677.39</ele>
        <time>2017-10-10T11:25:57Z</time>
      </trkpt>
      <trkpt lat="38.0691683013" lon="-2.8246100899">
        <ele>676.91</ele>
        <time>2017-10-10T11:25:58Z</time>
      </trkpt>
      <trkpt lat="38.0690950435" lon="-2.8247043025">
        <ele>675.94</ele>
        <time>2017-10-10T11:25:59Z</time>
      </trkpt>
      <trkpt lat="38.0690118112" lon="-2.8247783985">
        <ele>675.94</ele>
        <time>2017-10-10T11:26:00Z</time>
      </trkpt>
      <trkpt lat="38.0689258128" lon="-2.8248462081">
        <ele>675.46</ele>
        <time>2017-10-10T11:26:01Z</time>
      </trkpt>
      <trkpt lat="38.0688424967" lon="-2.8249239083">
        <ele>674.98</ele>
        <time>2017-10-10T11:26:02Z</time>
      </trkpt>
      <trkpt lat="38.0687678978" lon="-2.8250151873">
        <ele>674.50</ele>
        <time>2017-10-10T11:26:03Z</time>
      </trkpt>
      <trkpt lat="38.0686319433" lon="-2.8252157662">
        <ele>673.54</ele>
        <time>2017-10-10T11:26:05Z</time>
      </trkpt>
      <trkpt lat="38.0684079789" lon="-2.8254869208">
        <ele>672.58</ele>
        <time>2017-10-10T11:26:08Z</time>
      </trkpt>
      <trkpt lat="38.0680074915" lon="-2.8258876596">
        <ele>670.66</ele>
        <time>2017-10-10T11:26:13Z</time>
      </trkpt>
      <trkpt lat="38.0679469742" lon="-2.8259827942">
        <ele>670.66</ele>
        <time>2017-10-10T11:26:14Z</time>
      </trkpt>
      <trkpt lat="38.0677002110" lon="-2.8264552820">
        <ele>671.14</ele>
        <time>2017-10-10T11:26:19Z</time>
      </trkpt>
      <trkpt lat="38.0676782504" lon="-2.8265566193">
        <ele>670.66</ele>
        <time>2017-10-10T11:26:20Z</time>
      </trkpt>
      <trkpt lat="38.0676685274" lon="-2.8266600519">
        <ele>670.66</ele>
        <time>2017-10-10T11:26:21Z</time>
      </trkpt>
      <trkpt lat="38.0676781666" lon="-2.8267626464">
        <ele>671.14</ele>
        <time>2017-10-10T11:26:22Z</time>
      </trkpt>
      <trkpt lat="38.0676958524" lon="-2.8268606309">
        <ele>671.14</ele>
        <time>2017-10-10T11:26:23Z</time>
      </trkpt>
      <trkpt lat="38.0677090958" lon="-2.8269558493">
        <ele>671.14</ele>
        <time>2017-10-10T11:26:24Z</time>
      </trkpt>
      <trkpt lat="38.0677791685" lon="-2.8276787046">
        <ele>671.14</ele>
        <time>2017-10-10T11:26:32Z</time>
      </trkpt>
      <trkpt lat="38.0677692778" lon="-2.8277588356">
        <ele>671.14</ele>
        <time>2017-10-10T11:26:33Z</time>
      </trkpt>
      <trkpt lat="38.0677632429" lon="-2.8278346919">
        <ele>671.62</ele>
        <time>2017-10-10T11:26:34Z</time>
      </trkpt>
      <trkpt lat="38.0677572079" lon="-2.8279075306">
        <ele>671.62</ele>
        <time>2017-10-10T11:26:35Z</time>
      </trkpt>
      <trkpt lat="38.0677395221" lon="-2.8279698920">
        <ele>671.62</ele>
        <time>2017-10-10T11:26:36Z</time>
      </trkpt>
      <trkpt lat="38.0677124485" lon="-2.8280215245">
        <ele>671.62</ele>
        <time>2017-10-10T11:26:37Z</time>
      </trkpt>
      <trkpt lat="38.0676831119" lon="-2.8280651104">
        <ele>671.62</ele>
        <time>2017-10-10T11:26:38Z</time>
      </trkpt>
      <trkpt lat="38.0676515959" lon="-2.8280972131">
        <ele>672.10</ele>
        <time>2017-10-10T11:26:39Z</time>
      </trkpt>
      <trkpt lat="38.0676199123" lon="-2.8281220235">
        <ele>672.10</ele>
        <time>2017-10-10T11:26:40Z</time>
      </trkpt>
      <trkpt lat="38.0675878935" lon="-2.8281416371">
        <ele>672.10</ele>
        <time>2017-10-10T11:26:41Z</time>
      </trkpt>
      <trkpt lat="38.0675516836" lon="-2.8281580657">
        <ele>672.10</ele>
        <time>2017-10-10T11:26:42Z</time>
      </trkpt>
      <trkpt lat="38.0675175693" lon="-2.8281696327">
        <ele>672.10</ele>
        <time>2017-10-10T11:26:43Z</time>
      </trkpt>
      <trkpt lat="38.0674850475" lon="-2.8281739913">
        <ele>672.10</ele>
        <time>2017-10-10T11:26:44Z</time>
      </trkpt>
      <trkpt lat="38.0674526095" lon="-2.8281765897">
        <ele>672.58</ele>
        <time>2017-10-10T11:26:45Z</time>
      </trkpt>
      <trkpt lat="38.0671704747" lon="-2.8280746657">
        <ele>673.06</ele>
        <time>2017-10-10T11:26:53Z</time>
      </trkpt>
      <trkpt lat="38.0667367112" lon="-2.8279853147">
        <ele>674.02</ele>
        <time>2017-10-10T11:27:04Z</time>
      </trkpt>
      <trkpt lat="38.0664088111" lon="-2.8279931936">
        <ele>674.50</ele>
        <time>2017-10-10T11:27:12Z</time>
      </trkpt>
      <trkpt lat="38.0659180507" lon="-2.8281514440">
        <ele>675.94</ele>
        <time>2017-10-10T11:27:24Z</time>
      </trkpt>
      <trkpt lat="38.0655817688" lon="-2.8283395339">
        <ele>676.42</ele>
        <time>2017-10-10T11:27:33Z</time>
      </trkpt>
      <trkpt lat="38.0655041523" lon="-2.8283883166">
        <ele>676.91</ele>
        <time>2017-10-10T11:27:35Z</time>
      </trkpt>
      <trkpt lat="38.0654663499" lon="-2.8284194134">
        <ele>676.91</ele>
        <time>2017-10-10T11:27:36Z</time>
      </trkpt>
      <trkpt lat="38.0654297210" lon="-2.8284523543">
        <ele>676.91</ele>
        <time>2017-10-10T11:27:37Z</time>
      </trkpt>
      <trkpt lat="38.0653987918" lon="-2.8284914140">
        <ele>676.91</ele>
        <time>2017-10-10T11:27:38Z</time>
      </trkpt>
      <trkpt lat="38.0653718021" lon="-2.8285350837">
        <ele>676.91</ele>
        <time>2017-10-10T11:27:39Z</time>
      </trkpt>
      <trkpt lat="38.0653470755" lon="-2.8285800107">
        <ele>676.91</ele>
        <time>2017-10-10T11:27:40Z</time>
      </trkpt>
      <trkpt lat="38.0653250311" lon="-2.8286266979">
        <ele>677.39</ele>
        <time>2017-10-10T11:27:41Z</time>
      </trkpt>
      <trkpt lat="38.0653018970" lon="-2.8286759835">
        <ele>677.39</ele>
        <time>2017-10-10T11:27:42Z</time>
      </trkpt>
      <trkpt lat="38.0652785115" lon="-2.8287255205">
        <ele>677.39</ele>
        <time>2017-10-10T11:27:43Z</time>
      </trkpt>
      <trkpt lat="38.0652267952" lon="-2.8288183082">
        <ele>677.39</ele>
        <time>2017-10-10T11:27:45Z</time>
      </trkpt>
      <trkpt lat="38.0651709717" lon="-2.8289028816">
        <ele>677.87</ele>
        <time>2017-10-10T11:27:47Z</time>
      </trkpt>
      <trkpt lat="38.0651436467" lon="-2.8289437853">
        <ele>677.39</ele>
        <time>2017-10-10T11:27:48Z</time>
      </trkpt>
      <trkpt lat="38.0649735779" lon="-2.8291853517">
        <ele>677.87</ele>
        <time>2017-10-10T11:27:54Z</time>
      </trkpt>
      <trkpt lat="38.0649429001" lon="-2.8292265069">
        <ele>677.87</ele>
        <time>2017-10-10T11:27:55Z</time>
      </trkpt>
      <trkpt lat="38.0649095401" lon="-2.8292620461">
        <ele>677.87</ele>
        <time>2017-10-10T11:27:56Z</time>
      </trkpt>
      <trkpt lat="38.0648403056" lon="-2.8293184564">
        <ele>677.87</ele>
        <time>2017-10-10T11:27:58Z</time>
      </trkpt>
      <trkpt lat="38.0646930356" lon="-2.8294132557">
        <ele>677.87</ele>
        <time>2017-10-10T11:28:02Z</time>
      </trkpt>
      <trkpt lat="38.0643756129" lon="-2.8295775410">
        <ele>678.35</ele>
        <time>2017-10-10T11:28:10Z</time>
      </trkpt>
      <trkpt lat="38.0640689190" lon="-2.8298709914">
        <ele>678.35</ele>
        <time>2017-10-10T11:28:20Z</time>
      </trkpt>
      <trkpt lat="38.0637932383" lon="-2.8302599117">
        <ele>678.83</ele>
        <time>2017-10-10T11:28:30Z</time>
      </trkpt>
      <trkpt lat="38.0637600459" lon="-2.8302954510">
        <ele>678.83</ele>
        <time>2017-10-10T11:28:31Z</time>
      </trkpt>
      <trkpt lat="38.0637230817" lon="-2.8303277213">
        <ele>678.83</ele>
        <time>2017-10-10T11:28:32Z</time>
      </trkpt>
      <trkpt lat="38.0636823457" lon="-2.8303537052">
        <ele>678.83</ele>
        <time>2017-10-10T11:28:33Z</time>
      </trkpt>
      <trkpt lat="38.0636390112" lon="-2.8303772584">
        <ele>678.83</ele>
        <time>2017-10-10T11:28:34Z</time>
      </trkpt>
      <trkpt lat="38.0635883007" lon="-2.8303961176">
        <ele>678.35</ele>
        <time>2017-10-10T11:28:35Z</time>
      </trkpt>
      <trkpt lat="38.0635337345" lon="-2.8304127138">
        <ele>677.87</ele>
        <time>2017-10-10T11:28:36Z</time>
      </trkpt>
      <trkpt lat="38.0632304773" lon="-2.8304745723">
        <ele>675.94</ele>
        <time>2017-10-10T11:28:41Z</time>
      </trkpt>
      <trkpt lat="38.0631636735" lon="-2.8304827027">
        <ele>675.94</ele>
        <time>2017-10-10T11:28:42Z</time>
      </trkpt>
      <trkpt lat="38.0626342725" lon="-2.8306260332">
        <ele>673.06</ele>
        <time>2017-10-10T11:28:49Z</time>
      </trkpt>
      <trkpt lat="38.0622347072" lon="-2.8308546077">
        <ele>671.14</ele>
        <time>2017-10-10T11:28:54Z</time>
      </trkpt>
      <trkpt lat="38.0618759617" lon="-2.8310162947">
        <ele>668.25</ele>
        <time>2017-10-10T11:28:58Z</time>
      </trkpt>
      <trkpt lat="38.0613352451" lon="-2.8313949052">
        <ele>665.37</ele>
        <time>2017-10-10T11:29:04Z</time>
      </trkpt>
      <trkpt lat="38.0607890803" lon="-2.8317539021">
        <ele>662.01</ele>
        <time>2017-10-10T11:29:10Z</time>
      </trkpt>
      <trkpt lat="38.0605878308" lon="-2.8318637889">
        <ele>661.52</ele>
        <time>2017-10-10T11:29:12Z</time>
      </trkpt>
      <trkpt lat="38.0604956299" lon="-2.8319344483">
        <ele>660.56</ele>
        <time>2017-10-10T11:29:13Z</time>
      </trkpt>
      <trkpt lat="38.0604113918" lon="-2.8320191894">
        <ele>660.08</ele>
        <time>2017-10-10T11:29:14Z</time>
      </trkpt>
      <trkpt lat="38.0603351165" lon="-2.8321154974">
        <ele>659.60</ele>
        <time>2017-10-10T11:29:15Z</time>
      </trkpt>
      <trkpt lat="38.0602660496" lon="-2.8322149068">
        <ele>659.60</ele>
        <time>2017-10-10T11:29:16Z</time>
      </trkpt>
      <trkpt lat="38.0597166158" lon="-2.8330056556">
        <ele>659.12</ele>
        <time>2017-10-10T11:29:25Z</time>
      </trkpt>
      <trkpt lat="38.0594413541" lon="-2.8335118387">
        <ele>659.60</ele>
        <time>2017-10-10T11:29:31Z</time>
      </trkpt>
      <trkpt lat="38.0593886320" lon="-2.8335824981">
        <ele>659.60</ele>
        <time>2017-10-10T11:29:32Z</time>
      </trkpt>
      <trkpt lat="38.0593307130" lon="-2.8336423449">
        <ele>659.60</ele>
        <time>2017-10-10T11:29:33Z</time>
      </trkpt>
      <trkpt lat="38.0592667591" lon="-2.8336923011">
        <ele>659.60</ele>
        <time>2017-10-10T11:29:34Z</time>
      </trkpt>
      <trkpt lat="38.0592021346" lon="-2.8337356355">
        <ele>659.60</ele>
        <time>2017-10-10T11:29:35Z</time>
      </trkpt>
      <trkpt lat="38.0587612465" lon="-2.8340113163">
        <ele>659.60</ele>
        <time>2017-10-10T11:29:42Z</time>
      </trkpt>
      <trkpt lat="38.0587116256" lon="-2.8340611048">
        <ele>659.60</ele>
        <time>2017-10-10T11:29:43Z</time>
      </trkpt>
      <trkpt lat="38.0586668663" lon="-2.8341175988">
        <ele>659.60</ele>
        <time>2017-10-10T11:29:44Z</time>
      </trkpt>
      <trkpt lat="38.0586293992" lon="-2.8341799602">
        <ele>660.08</ele>
        <time>2017-10-10T11:29:45Z</time>
      </trkpt>
      <trkpt lat="38.0586009007" lon="-2.8342485242">
        <ele>659.60</ele>
        <time>2017-10-10T11:29:46Z</time>
      </trkpt>
      <trkpt lat="38.0585817061" lon="-2.8343206085">
        <ele>659.60</ele>
        <time>2017-10-10T11:29:47Z</time>
      </trkpt>
      <trkpt lat="38.0585646909" lon="-2.8343895916">
        <ele>660.08</ele>
        <time>2017-10-10T11:29:48Z</time>
      </trkpt>
      <trkpt lat="38.0585501902" lon="-2.8344599158">
        <ele>660.08</ele>
        <time>2017-10-10T11:29:49Z</time>
      </trkpt>
      <trkpt lat="38.0584876612" lon="-2.8347368538">
        <ele>660.08</ele>
        <time>2017-10-10T11:29:53Z</time>
      </trkpt>
      <trkpt lat="38.0584623478" lon="-2.8347993828">
        <ele>660.08</ele>
        <time>2017-10-10T11:29:54Z</time>
      </trkpt>
      <trkpt lat="38.0584295746" lon="-2.8348582238">
        <ele>660.08</ele>
        <time>2017-10-10T11:29:55Z</time>
      </trkpt>
      <trkpt lat="38.0583563168" lon="-2.8349643387">
        <ele>660.08</ele>
        <time>2017-10-10T11:29:57Z</time>
      </trkpt>
      <trkpt lat="38.0583214480" lon="-2.8350160550">
        <ele>660.08</ele>
        <time>2017-10-10T11:29:58Z</time>
      </trkpt>
      <trkpt lat="38.0582873337" lon="-2.8350673523">
        <ele>660.08</ele>
        <time>2017-10-10T11:29:59Z</time>
      </trkpt>
      <trkpt lat="38.0581693165" lon="-2.8352095094">
        <ele>660.08</ele>
        <time>2017-10-10T11:30:02Z</time>
      </trkpt>
      <trkpt lat="38.0581278261" lon="-2.8352530114">
        <ele>660.08</ele>
        <time>2017-10-10T11:30:03Z</time>
      </trkpt>
      <trkpt lat="38.0577216391" lon="-2.8356784768">
        <ele>660.08</ele>
        <time>2017-10-10T11:30:13Z</time>
      </trkpt>
      <trkpt lat="38.0572794098" lon="-2.8361500427">
        <ele>660.08</ele>
        <time>2017-10-10T11:30:24Z</time>
      </trkpt>
      <trkpt lat="38.0572069902" lon="-2.8362582531">
        <ele>660.08</ele>
        <time>2017-10-10T11:30:26Z</time>
      </trkpt>
      <trkpt lat="38.0571201537" lon="-2.8364284057">
        <ele>660.08</ele>
        <time>2017-10-10T11:30:29Z</time>
      </trkpt>
      <trkpt lat="38.0570948403" lon="-2.8364885040">
        <ele>660.56</ele>
        <time>2017-10-10T11:30:30Z</time>
      </trkpt>
      <trkpt lat="38.0570660904" lon="-2.8365477640">
        <ele>660.08</ele>
        <time>2017-10-10T11:30:31Z</time>
      </trkpt>
      <trkpt lat="38.0567858834" lon="-2.8371147159">
        <ele>660.08</ele>
        <time>2017-10-10T11:30:41Z</time>
      </trkpt>
      <trkpt lat="38.0567292217" lon="-2.8372023068">
        <ele>660.08</ele>
        <time>2017-10-10T11:30:43Z</time>
      </trkpt>
      <trkpt lat="38.0566956103" lon="-2.8372396063">
        <ele>660.08</ele>
        <time>2017-10-10T11:30:44Z</time>
      </trkpt>
      <trkpt lat="38.0566596519" lon="-2.8372739721">
        <ele>660.08</ele>
        <time>2017-10-10T11:30:45Z</time>
      </trkpt>
      <trkpt lat="38.0566216819" lon="-2.8373100143">
        <ele>660.08</ele>
        <time>2017-10-10T11:30:46Z</time>
      </trkpt>
      <trkpt lat="38.0565854721" lon="-2.8373442963">
        <ele>660.08</ele>
        <time>2017-10-10T11:30:47Z</time>
      </trkpt>
      <trkpt lat="38.0565497652" lon="-2.8373724595">
        <ele>660.08</ele>
        <time>2017-10-10T11:30:48Z</time>
      </trkpt>
      <trkpt lat="38.0563244596" lon="-2.8376548458">
        <ele>660.08</ele>
        <time>2017-10-10T11:30:55Z</time>
      </trkpt>
      <trkpt lat="38.0562496930" lon="-2.8378430195">
        <ele>660.08</ele>
        <time>2017-10-10T11:30:58Z</time>
      </trkpt>
      <trkpt lat="38.0562259723" lon="-2.8379005194">
        <ele>660.08</ele>
        <time>2017-10-10T11:30:59Z</time>
      </trkpt>
      <trkpt lat="38.0560217891" lon="-2.8385443334">
        <ele>661.52</ele>
        <time>2017-10-10T11:31:11Z</time>
      </trkpt>
      <trkpt lat="38.0559323542" lon="-2.8389478382">
        <ele>662.49</ele>
        <time>2017-10-10T11:31:20Z</time>
      </trkpt>
      <trkpt lat="38.0559295043" lon="-2.8393665142">
        <ele>663.45</ele>
        <time>2017-10-10T11:31:28Z</time>
      </trkpt>
      <trkpt lat="38.0559202842" lon="-2.8394768201">
        <ele>663.93</ele>
        <time>2017-10-10T11:31:30Z</time>
      </trkpt>
      <trkpt lat="38.0559191108" lon="-2.8395326436">
        <ele>663.93</ele>
        <time>2017-10-10T11:31:31Z</time>
      </trkpt>
      <trkpt lat="38.0559170153" lon="-2.8396443743">
        <ele>663.93</ele>
        <time>2017-10-10T11:31:33Z</time>
      </trkpt>
      <trkpt lat="38.0559199490" lon="-2.8398861084">
        <ele>663.45</ele>
        <time>2017-10-10T11:31:37Z</time>
      </trkpt>
      <trkpt lat="38.0558917858" lon="-2.8402206302">
        <ele>662.97</ele>
        <time>2017-10-10T11:31:42Z</time>
      </trkpt>
      <trkpt lat="38.0558795482" lon="-2.8402881883">
        <ele>662.97</ele>
        <time>2017-10-10T11:31:43Z</time>
      </trkpt>
      <trkpt lat="38.0558420811" lon="-2.8404110670">
        <ele>662.97</ele>
        <time>2017-10-10T11:31:45Z</time>
      </trkpt>
      <trkpt lat="38.0558168516" lon="-2.8404694889">
        <ele>662.97</ele>
        <time>2017-10-10T11:31:46Z</time>
      </trkpt>
      <trkpt lat="38.0557890236" lon="-2.8405244742">
        <ele>662.49</ele>
        <time>2017-10-10T11:31:47Z</time>
      </trkpt>
      <trkpt lat="38.0557565857" lon="-2.8405768611">
        <ele>662.49</ele>
        <time>2017-10-10T11:31:48Z</time>
      </trkpt>
      <trkpt lat="38.0557197891" lon="-2.8406217881">
        <ele>660.56</ele>
        <time>2017-10-10T11:31:49Z</time>
      </trkpt>
      <trkpt lat="38.0556811485" lon="-2.8406665474">
        <ele>661.52</ele>
        <time>2017-10-10T11:31:50Z</time>
      </trkpt>
      <trkpt lat="38.0555130914" lon="-2.8408459201">
        <ele>662.01</ele>
        <time>2017-10-10T11:31:54Z</time>
      </trkpt>
      <trkpt lat="38.0554713495" lon="-2.8408891708">
        <ele>659.60</ele>
        <time>2017-10-10T11:31:55Z</time>
      </trkpt>
      <trkpt lat="38.0554255005" lon="-2.8409276437">
        <ele>663.45</ele>
        <time>2017-10-10T11:31:56Z</time>
      </trkpt>
      <trkpt lat="38.0550393462" lon="-2.8413159773">
        <ele>661.52</ele>
        <time>2017-10-10T11:32:05Z</time>
      </trkpt>
      <trkpt lat="38.0548848677" lon="-2.8415155504">
        <ele>661.52</ele>
        <time>2017-10-10T11:32:09Z</time>
      </trkpt>
      <trkpt lat="38.0548463110" lon="-2.8415629920">
        <ele>661.04</ele>
        <time>2017-10-10T11:32:10Z</time>
      </trkpt>
      <trkpt lat="38.0544972047" lon="-2.8419967555">
        <ele>661.04</ele>
        <time>2017-10-10T11:32:19Z</time>
      </trkpt>
      <trkpt lat="38.0543819536" lon="-2.8421374876">
        <ele>661.52</ele>
        <time>2017-10-10T11:32:22Z</time>
      </trkpt>
      <trkpt lat="38.0542155728" lon="-2.8424223047">
        <ele>661.52</ele>
        <time>2017-10-10T11:32:27Z</time>
      </trkpt>
      <trkpt lat="38.0541073624" lon="-2.8425679822">
        <ele>661.52</ele>
        <time>2017-10-10T11:32:30Z</time>
      </trkpt>
      <trkpt lat="38.0540665425" lon="-2.8426106460">
        <ele>661.52</ele>
        <time>2017-10-10T11:32:31Z</time>
      </trkpt>
      <trkpt lat="38.0540251359" lon="-2.8426497895">
        <ele>661.04</ele>
        <time>2017-10-10T11:32:32Z</time>
      </trkpt>
      <trkpt lat="38.0537888501" lon="-2.8428793699">
        <ele>661.52</ele>
        <time>2017-10-10T11:32:38Z</time>
      </trkpt>
      <trkpt lat="38.0537460186" lon="-2.8429169208">
        <ele>661.52</ele>
        <time>2017-10-10T11:32:39Z</time>
      </trkpt>
      <trkpt lat="38.0533205532" lon="-2.8433001414">
        <ele>662.01</ele>
        <time>2017-10-10T11:32:49Z</time>
      </trkpt>
      <trkpt lat="38.0532785598" lon="-2.8433395363">
        <ele>661.52</ele>
        <time>2017-10-10T11:32:50Z</time>
      </trkpt>
      <trkpt lat="38.0530058127" lon="-2.8435575496">
        <ele>662.01</ele>
        <time>2017-10-10T11:32:56Z</time>
      </trkpt>
      <trkpt lat="38.0529156234" lon="-2.8436175641">
        <ele>662.49</ele>
        <time>2017-10-10T11:32:58Z</time>
      </trkpt>
      <trkpt lat="38.0525276251" lon="-2.8438472282">
        <ele>663.45</ele>
        <time>2017-10-10T11:33:08Z</time>
      </trkpt>
      <trkpt lat="38.0522764195" lon="-2.8440671694">
        <ele>664.41</ele>
        <time>2017-10-10T11:33:16Z</time>
      </trkpt>
      <trkpt lat="38.0521203484" lon="-2.8442079015">
        <ele>664.89</ele>
        <time>2017-10-10T11:33:21Z</time>
      </trkpt>
      <trkpt lat="38.0520825461" lon="-2.8442348912">
        <ele>664.89</ele>
        <time>2017-10-10T11:33:22Z</time>
      </trkpt>
      <trkpt lat="38.0520475097" lon="-2.8442626353">
        <ele>664.89</ele>
        <time>2017-10-10T11:33:23Z</time>
      </trkpt>
      <trkpt lat="38.0519738328" lon="-2.8443283495">
        <ele>664.89</ele>
        <time>2017-10-10T11:33:25Z</time>
      </trkpt>
      <trkpt lat="38.0518212821" lon="-2.8444733564">
        <ele>664.89</ele>
        <time>2017-10-10T11:33:29Z</time>
      </trkpt>
      <trkpt lat="38.0515730102" lon="-2.8447531443">
        <ele>664.89</ele>
        <time>2017-10-10T11:33:36Z</time>
      </trkpt>
      <trkpt lat="38.0515386444" lon="-2.8447966464">
        <ele>664.89</ele>
        <time>2017-10-10T11:33:37Z</time>
      </trkpt>
      <trkpt lat="38.0512829125" lon="-2.8452144843">
        <ele>664.41</ele>
        <time>2017-10-10T11:33:46Z</time>
      </trkpt>
      <trkpt lat="38.0509785656" lon="-2.8456485830">
        <ele>664.41</ele>
        <time>2017-10-10T11:33:55Z</time>
      </trkpt>
      <trkpt lat="38.0509435292" lon="-2.8456972819">
        <ele>663.93</ele>
        <time>2017-10-10T11:33:56Z</time>
      </trkpt>
      <trkpt lat="38.0509090796" lon="-2.8457474057">
        <ele>664.41</ele>
        <time>2017-10-10T11:33:57Z</time>
      </trkpt>
      <trkpt lat="38.0505729653" lon="-2.8462892957">
        <ele>663.93</ele>
        <time>2017-10-10T11:34:08Z</time>
      </trkpt>
      <trkpt lat="38.0503942631" lon="-2.8467806429">
        <ele>663.93</ele>
        <time>2017-10-10T11:34:17Z</time>
      </trkpt>
      <trkpt lat="38.0502842925" lon="-2.8470385540">
        <ele>663.93</ele>
        <time>2017-10-10T11:34:22Z</time>
      </trkpt>
      <trkpt lat="38.0502621643" lon="-2.8470880911">
        <ele>663.93</ele>
        <time>2017-10-10T11:34:23Z</time>
      </trkpt>
      <trkpt lat="38.0500236992" lon="-2.8475299012">
        <ele>663.93</ele>
        <time>2017-10-10T11:34:33Z</time>
      </trkpt>
      <trkpt lat="38.0499185901" lon="-2.8477235232">
        <ele>663.93</ele>
        <time>2017-10-10T11:34:37Z</time>
      </trkpt>
      <trkpt lat="38.0498978868" lon="-2.8477812745">
        <ele>663.93</ele>
        <time>2017-10-10T11:34:38Z</time>
      </trkpt>
      <trkpt lat="38.0498813745" lon="-2.8478419594">
        <ele>663.93</ele>
        <time>2017-10-10T11:34:39Z</time>
      </trkpt>
      <trkpt lat="38.0498707294" lon="-2.8479054105">
        <ele>663.93</ele>
        <time>2017-10-10T11:34:40Z</time>
      </trkpt>
      <trkpt lat="38.0498672929" lon="-2.8479738906">
        <ele>663.45</ele>
        <time>2017-10-10T11:34:41Z</time>
      </trkpt>
      <trkpt lat="38.0498666223" lon="-2.8480462264">
        <ele>663.45</ele>
        <time>2017-10-10T11:34:42Z</time>
      </trkpt>
      <trkpt lat="38.0498633534" lon="-2.8481180593">
        <ele>663.45</ele>
        <time>2017-10-10T11:34:43Z</time>
      </trkpt>
      <trkpt lat="38.0498438235" lon="-2.8482662514">
        <ele>663.45</ele>
        <time>2017-10-10T11:34:45Z</time>
      </trkpt>
      <trkpt lat="38.0498271435" lon="-2.8483426105">
        <ele>663.45</ele>
        <time>2017-10-10T11:34:46Z</time>
      </trkpt>
      <trkpt lat="38.0495966412" lon="-2.8490663879">
        <ele>662.01</ele>
        <time>2017-10-10T11:34:55Z</time>
      </trkpt>
      <trkpt lat="38.0495847389" lon="-2.8491504584">
        <ele>662.01</ele>
        <time>2017-10-10T11:34:56Z</time>
      </trkpt>
      <trkpt lat="38.0495383032" lon="-2.8493983950">
        <ele>662.01</ele>
        <time>2017-10-10T11:34:59Z</time>
      </trkpt>
      <trkpt lat="38.0495042726" lon="-2.8494704794">
        <ele>662.01</ele>
        <time>2017-10-10T11:35:00Z</time>
      </trkpt>
      <trkpt lat="38.0494662188" lon="-2.8495371155">
        <ele>662.01</ele>
        <time>2017-10-10T11:35:01Z</time>
      </trkpt>
      <trkpt lat="38.0494253989" lon="-2.8496009018">
        <ele>662.01</ele>
        <time>2017-10-10T11:35:02Z</time>
      </trkpt>
      <trkpt lat="38.0493839923" lon="-2.8496612515">
        <ele>662.01</ele>
        <time>2017-10-10T11:35:03Z</time>
      </trkpt>
      <trkpt lat="38.0490872730" lon="-2.8499748185">
        <ele>662.97</ele>
        <time>2017-10-10T11:35:11Z</time>
      </trkpt>
      <trkpt lat="38.0489672441" lon="-2.8500444721">
        <ele>662.97</ele>
        <time>2017-10-10T11:35:17Z</time>
      </trkpt>
      <trkpt lat="38.0488126818" lon="-2.8502553608">
        <ele>661.04</ele>
        <time>2017-10-10T11:35:23Z</time>
      </trkpt>
      <trkpt lat="38.0487392563" lon="-2.8503756411">
        <ele>660.08</ele>
        <time>2017-10-10T11:35:25Z</time>
      </trkpt>
      <trkpt lat="38.0486924015" lon="-2.8504369128">
        <ele>659.12</ele>
        <time>2017-10-10T11:35:26Z</time>
      </trkpt>
      <trkpt lat="38.0486425292" lon="-2.8505037166">
        <ele>658.64</ele>
        <time>2017-10-10T11:35:27Z</time>
      </trkpt>
      <trkpt lat="38.0485927407" lon="-2.8505773097">
        <ele>658.16</ele>
        <time>2017-10-10T11:35:28Z</time>
      </trkpt>
      <trkpt lat="38.0485489033" lon="-2.8506633081">
        <ele>657.68</ele>
        <time>2017-10-10T11:35:29Z</time>
      </trkpt>
      <trkpt lat="38.0485070776" lon="-2.8507571016">
        <ele>657.20</ele>
        <time>2017-10-10T11:35:30Z</time>
      </trkpt>
      <trkpt lat="38.0484341551" lon="-2.8509496339">
        <ele>656.24</ele>
        <time>2017-10-10T11:35:32Z</time>
      </trkpt>
      <trkpt lat="38.0483596399" lon="-2.8511116561">
        <ele>655.28</ele>
        <time>2017-10-10T11:35:34Z</time>
      </trkpt>
      <trkpt lat="38.0483059119" lon="-2.8511747718">
        <ele>654.80</ele>
        <time>2017-10-10T11:35:35Z</time>
      </trkpt>
      <trkpt lat="38.0482355040" lon="-2.8512134962">
        <ele>653.83</ele>
        <time>2017-10-10T11:35:36Z</time>
      </trkpt>
      <trkpt lat="38.0481562950" lon="-2.8512195311">
        <ele>653.35</ele>
        <time>2017-10-10T11:35:37Z</time>
      </trkpt>
      <trkpt lat="38.0480812769" lon="-2.8511836566">
        <ele>652.87</ele>
        <time>2017-10-10T11:35:38Z</time>
      </trkpt>
      <trkpt lat="38.0480205920" lon="-2.8511149250">
        <ele>652.39</ele>
        <time>2017-10-10T11:35:39Z</time>
      </trkpt>
      <trkpt lat="38.0479817837" lon="-2.8510251548">
        <ele>652.39</ele>
        <time>2017-10-10T11:35:40Z</time>
      </trkpt>
      <trkpt lat="38.0479478370" lon="-2.8509298526">
        <ele>651.91</ele>
        <time>2017-10-10T11:35:41Z</time>
      </trkpt>
      <trkpt lat="38.0477139819" lon="-2.8502669279">
        <ele>654.31</ele>
        <time>2017-10-10T11:35:50Z</time>
      </trkpt>
      <trkpt lat="38.0476905964" lon="-2.8502098471">
        <ele>654.31</ele>
        <time>2017-10-10T11:35:51Z</time>
      </trkpt>
      <trkpt lat="38.0476650316" lon="-2.8501592204">
        <ele>654.31</ele>
        <time>2017-10-10T11:35:52Z</time>
      </trkpt>
      <trkpt lat="38.0476363655" lon="-2.8501197416">
        <ele>654.80</ele>
        <time>2017-10-10T11:35:53Z</time>
      </trkpt>
      <trkpt lat="38.0476054363" lon="-2.8500914946">
        <ele>654.80</ele>
        <time>2017-10-10T11:35:54Z</time>
      </trkpt>
      <trkpt lat="38.0475792009" lon="-2.8500718810">
        <ele>655.28</ele>
        <time>2017-10-10T11:35:55Z</time>
      </trkpt>
      <trkpt lat="38.0475515407" lon="-2.8500573803">
        <ele>655.76</ele>
        <time>2017-10-10T11:35:56Z</time>
      </trkpt>
      <trkpt lat="38.0474981479" lon="-2.8500517644">
        <ele>655.76</ele>
        <time>2017-10-10T11:35:58Z</time>
      </trkpt>
      <trkpt lat="38.0474693142" lon="-2.8500634152">
        <ele>656.24</ele>
        <time>2017-10-10T11:35:59Z</time>
      </trkpt>
      <trkpt lat="38.0474390555" lon="-2.8500858787">
        <ele>656.24</ele>
        <time>2017-10-10T11:36:00Z</time>
      </trkpt>
      <trkpt lat="38.0474125687" lon="-2.8501257766">
        <ele>656.72</ele>
        <time>2017-10-10T11:36:01Z</time>
      </trkpt>
      <trkpt lat="38.0473926198" lon="-2.8501738887">
        <ele>657.20</ele>
        <time>2017-10-10T11:36:02Z</time>
      </trkpt>
      <trkpt lat="38.0473512132" lon="-2.8502712864">
        <ele>657.68</ele>
        <time>2017-10-10T11:36:04Z</time>
      </trkpt>
      <trkpt lat="38.0473085493" lon="-2.8503936622">
        <ele>658.16</ele>
        <time>2017-10-10T11:36:06Z</time>
      </trkpt>
      <trkpt lat="38.0472797994" lon="-2.8504615556">
        <ele>658.16</ele>
        <time>2017-10-10T11:36:07Z</time>
      </trkpt>
      <trkpt lat="38.0472440086" lon="-2.8505261801">
        <ele>658.64</ele>
        <time>2017-10-10T11:36:08Z</time>
      </trkpt>
      <trkpt lat="38.0471596867" lon="-2.8506435268">
        <ele>658.64</ele>
        <time>2017-10-10T11:36:10Z</time>
      </trkpt>
      <trkpt lat="38.0471091438" lon="-2.8506992664">
        <ele>659.12</ele>
        <time>2017-10-10T11:36:11Z</time>
      </trkpt>
      <trkpt lat="38.0470538232" lon="-2.8507530782">
        <ele>659.12</ele>
        <time>2017-10-10T11:36:12Z</time>
      </trkpt>
      <trkpt lat="38.0469948146" lon="-2.8508017771">
        <ele>659.60</ele>
        <time>2017-10-10T11:36:13Z</time>
      </trkpt>
      <trkpt lat="38.0469344649" lon="-2.8508443572">
        <ele>659.60</ele>
        <time>2017-10-10T11:36:14Z</time>
      </trkpt>
      <trkpt lat="38.0468769651" lon="-2.8508845903">
        <ele>660.08</ele>
        <time>2017-10-10T11:36:15Z</time>
      </trkpt>
      <trkpt lat="38.0468229856" lon="-2.8509239852">
        <ele>660.56</ele>
        <time>2017-10-10T11:36:16Z</time>
      </trkpt>
      <trkpt lat="38.0467687547" lon="-2.8509577643">
        <ele>661.04</ele>
        <time>2017-10-10T11:36:17Z</time>
      </trkpt>
      <trkpt lat="38.0466641486" lon="-2.8510034457">
        <ele>662.01</ele>
        <time>2017-10-10T11:36:19Z</time>
      </trkpt>
      <trkpt lat="38.0466180481" lon="-2.8510094807">
        <ele>662.01</ele>
        <time>2017-10-10T11:36:20Z</time>
      </trkpt>
      <trkpt lat="38.0465773959" lon="-2.8510092292">
        <ele>662.49</ele>
        <time>2017-10-10T11:36:21Z</time>
      </trkpt>
      <trkpt lat="38.0465485621" lon="-2.8509955667">
        <ele>662.49</ele>
        <time>2017-10-10T11:36:22Z</time>
      </trkpt>
      <trkpt lat="38.0465421081" lon="-2.8509657271">
        <ele>662.97</ele>
        <time>2017-10-10T11:36:23Z</time>
      </trkpt>
      <trkpt lat="38.0465534236" lon="-2.8509476222">
        <ele>662.97</ele>
        <time>2017-10-10T11:36:24Z</time>
      </trkpt>
      <trkpt lat="38.0465779826" lon="-2.8509498015">
        <ele>662.49</ele>
        <time>2017-10-10T11:36:25Z</time>
      </trkpt>
      <trkpt lat="38.0466146953" lon="-2.8509616200">
        <ele>662.49</ele>
        <time>2017-10-10T11:36:26Z</time>
      </trkpt>
      <trkpt lat="38.0466539226" lon="-2.8509737737">
        <ele>662.01</ele>
        <time>2017-10-10T11:36:27Z</time>
      </trkpt>
      <trkpt lat="38.0466944072" lon="-2.8509762045">
        <ele>662.01</ele>
        <time>2017-10-10T11:36:28Z</time>
      </trkpt>
      <trkpt lat="38.0467317905" lon="-2.8509553336">
        <ele>661.52</ele>
        <time>2017-10-10T11:36:29Z</time>
      </trkpt>
      <trkpt lat="38.0467698444" lon="-2.8509218898">
        <ele>661.52</ele>
        <time>2017-10-10T11:36:30Z</time>
      </trkpt>
      <trkpt lat="38.0468142685" lon="-2.8508985043">
        <ele>661.04</ele>
        <time>2017-10-10T11:36:31Z</time>
      </trkpt>
      <trkpt lat="38.0468638893" lon="-2.8508790582">
        <ele>661.04</ele>
        <time>2017-10-10T11:36:32Z</time>
      </trkpt>
      <trkpt lat="38.0469123367" lon="-2.8508481290">
        <ele>660.56</ele>
        <time>2017-10-10T11:36:33Z</time>
      </trkpt>
      <trkpt lat="38.0469572637" lon="-2.8508083988">
        <ele>660.56</ele>
        <time>2017-10-10T11:36:34Z</time>
      </trkpt>
      <trkpt lat="38.0470031966" lon="-2.8507573530">
        <ele>660.08</ele>
        <time>2017-10-10T11:36:35Z</time>
      </trkpt>
      <trkpt lat="38.0470538232" lon="-2.8507085703">
        <ele>660.08</ele>
        <time>2017-10-10T11:36:36Z</time>
      </trkpt>
      <trkpt lat="38.0472585931" lon="-2.8505338077">
        <ele>659.12</ele>
        <time>2017-10-10T11:36:42Z</time>
      </trkpt>
      <trkpt lat="38.0472730100" lon="-2.8505361546">
        <ele>658.64</ele>
        <time>2017-10-10T11:36:43Z</time>
      </trkpt>
      <trkpt lat="38.0473254807" lon="-2.8505805787">
        <ele>658.64</ele>
        <time>2017-10-10T11:36:51Z</time>
      </trkpt>
      <trkpt lat="38.0473128241" lon="-2.8506055567">
        <ele>659.12</ele>
        <time>2017-10-10T11:37:00Z</time>
      </trkpt>
      <trkpt lat="38.0472968146" lon="-2.8506056406">
        <ele>659.12</ele>
        <time>2017-10-10T11:37:24Z</time>
      </trkpt>
      <trkpt lat="38.0472919531" lon="-2.8506050538">
        <ele>659.12</ele>
        <time>2017-10-10T11:37:47Z</time>
      </trkpt>
      <trkpt lat="38.0473198649" lon="-2.8505895473">
        <ele>659.12</ele>
        <time>2017-10-10T11:38:17Z</time>
      </trkpt>
      <trkpt lat="38.0473117344" lon="-2.8505749628">
        <ele>659.12</ele>
        <time>2017-10-10T11:38:43Z</time>
      </trkpt>
      <trkpt lat="38.0473044422" lon="-2.8505747952">
        <ele>659.60</ele>
        <time>2017-10-10T11:39:02Z</time>
      </trkpt>
      <trkpt lat="38.0472953059" lon="-2.8505851049">
        <ele>660.08</ele>
        <time>2017-10-10T11:39:15Z</time>
      </trkpt>
    </trkseg>
  </trk>
</gpx>
